<?xml version="1.0" encoding="UTF-8" standalone="no" ?>
<gpx xmlns="http://www.topografix.com/GPX/1/1" xmlns:xsi="http://www.w3.org/2001/XMLSchema-instance" xsi:schemaLocation="http://www.topografix.com/GPX/1/1 http://www.topografix.com/GPX/1/1/gpx.xsd" version="1.1" creator="VisuGPX - https://www.visugpx.com">
  <metadata>
    <name>suite voyage</name>
  </metadata>
  <trk>
    <name><![CDATA[T11]]></name>
    <trkseg>
      <trkpt lat="48.67176" lon="-4.33">
        <ele>4.3</ele>
        <time>2020-06-10T06:55:48Z</time>
      </trkpt>
      <trkpt lat="48.67176" lon="-4.33">
        <ele>4.3</ele>
        <time>2020-06-10T06:55:49Z</time>
      </trkpt>
      <trkpt lat="48.67176" lon="-4.33">
        <ele>4.3</ele>
        <time>2020-06-10T06:55:50Z</time>
      </trkpt>
      <trkpt lat="48.67176" lon="-4.32999">
        <ele>4.3</ele>
        <time>2020-06-10T06:55:51Z</time>
      </trkpt>
      <trkpt lat="48.67176" lon="-4.32998">
        <ele>4.2</ele>
        <time>2020-06-10T06:55:52Z</time>
      </trkpt>
      <trkpt lat="48.67175" lon="-4.32998">
        <ele>4.2</ele>
        <time>2020-06-10T06:55:53Z</time>
      </trkpt>
      <trkpt lat="48.67175" lon="-4.32997">
        <ele>4.2</ele>
        <time>2020-06-10T06:55:55Z</time>
      </trkpt>
      <trkpt lat="48.67175" lon="-4.32997">
        <ele>4.2</ele>
        <time>2020-06-10T06:55:56Z</time>
      </trkpt>
      <trkpt lat="48.67175" lon="-4.32996">
        <ele>4.2</ele>
        <time>2020-06-10T06:55:57Z</time>
      </trkpt>
      <trkpt lat="48.67174" lon="-4.32996">
        <ele>4.2</ele>
        <time>2020-06-10T06:55:58Z</time>
      </trkpt>
      <trkpt lat="48.67174" lon="-4.32996">
        <ele>4.2</ele>
        <time>2020-06-10T06:55:59Z</time>
      </trkpt>
      <trkpt lat="48.67173" lon="-4.32995">
        <ele>4.2</ele>
        <time>2020-06-10T06:56:00Z</time>
      </trkpt>
      <trkpt lat="48.67173" lon="-4.32996">
        <ele>4.2</ele>
        <time>2020-06-10T06:56:01Z</time>
      </trkpt>
      <trkpt lat="48.67173" lon="-4.32995">
        <ele>4.2</ele>
        <time>2020-06-10T06:56:02Z</time>
      </trkpt>
      <trkpt lat="48.67173" lon="-4.32996">
        <ele>4.2</ele>
        <time>2020-06-10T06:56:03Z</time>
      </trkpt>
      <trkpt lat="48.67173" lon="-4.32996">
        <ele>4.2</ele>
        <time>2020-06-10T06:56:04Z</time>
      </trkpt>
      <trkpt lat="48.67173" lon="-4.32997">
        <ele>4.2</ele>
        <time>2020-06-10T06:56:05Z</time>
      </trkpt>
      <trkpt lat="48.67173" lon="-4.32997">
        <ele>4.2</ele>
        <time>2020-06-10T06:56:06Z</time>
      </trkpt>
      <trkpt lat="48.67174" lon="-4.32997">
        <ele>4.2</ele>
        <time>2020-06-10T06:56:07Z</time>
      </trkpt>
      <trkpt lat="48.67184" lon="-4.32988">
        <ele>4.3</ele>
        <time>2020-06-10T06:59:09Z</time>
      </trkpt>
      <trkpt lat="48.67185" lon="-4.32987">
        <ele>4.3</ele>
        <time>2020-06-10T06:59:10Z</time>
      </trkpt>
      <trkpt lat="48.67186" lon="-4.32987">
        <ele>4.3</ele>
        <time>2020-06-10T06:59:11Z</time>
      </trkpt>
      <trkpt lat="48.67185" lon="-4.32987">
        <ele>4.3</ele>
        <time>2020-06-10T06:59:12Z</time>
      </trkpt>
      <trkpt lat="48.67185" lon="-4.32987">
        <ele>4.3</ele>
        <time>2020-06-10T06:59:13Z</time>
      </trkpt>
      <trkpt lat="48.67184" lon="-4.32989">
        <ele>4.3</ele>
        <time>2020-06-10T06:59:14Z</time>
      </trkpt>
      <trkpt lat="48.67184" lon="-4.32989">
        <ele>4.3</ele>
        <time>2020-06-10T06:59:15Z</time>
      </trkpt>
      <trkpt lat="48.67184" lon="-4.32989">
        <ele>4.3</ele>
        <time>2020-06-10T06:59:16Z</time>
      </trkpt>
      <trkpt lat="48.67183" lon="-4.32989">
        <ele>4.2</ele>
        <time>2020-06-10T06:59:17Z</time>
      </trkpt>
      <trkpt lat="48.67183" lon="-4.32989">
        <ele>4.2</ele>
        <time>2020-06-10T06:59:18Z</time>
      </trkpt>
      <trkpt lat="48.67183" lon="-4.32989">
        <ele>4.2</ele>
        <time>2020-06-10T06:59:19Z</time>
      </trkpt>
      <trkpt lat="48.67183" lon="-4.32989">
        <ele>4.2</ele>
        <time>2020-06-10T06:59:20Z</time>
      </trkpt>
      <trkpt lat="48.67183" lon="-4.32989">
        <ele>4.2</ele>
        <time>2020-06-10T06:59:21Z</time>
      </trkpt>
      <trkpt lat="48.67177" lon="-4.33004">
        <ele>4.4</ele>
        <time>2020-06-10T06:59:43Z</time>
      </trkpt>
      <trkpt lat="48.67177" lon="-4.33006">
        <ele>4.4</ele>
        <time>2020-06-10T06:59:44Z</time>
      </trkpt>
      <trkpt lat="48.67177" lon="-4.33006">
        <ele>4.4</ele>
        <time>2020-06-10T06:59:45Z</time>
      </trkpt>
      <trkpt lat="48.67178" lon="-4.33007">
        <ele>4.4</ele>
        <time>2020-06-10T06:59:46Z</time>
      </trkpt>
      <trkpt lat="48.6718" lon="-4.33007">
        <ele>4.4</ele>
        <time>2020-06-10T06:59:47Z</time>
      </trkpt>
      <trkpt lat="48.67181" lon="-4.33007">
        <ele>4.5</ele>
        <time>2020-06-10T06:59:48Z</time>
      </trkpt>
      <trkpt lat="48.67183" lon="-4.33007">
        <ele>4.5</ele>
        <time>2020-06-10T06:59:49Z</time>
      </trkpt>
      <trkpt lat="48.67184" lon="-4.33007">
        <ele>4.5</ele>
        <time>2020-06-10T06:59:50Z</time>
      </trkpt>
      <trkpt lat="48.67185" lon="-4.33006">
        <ele>4.5</ele>
        <time>2020-06-10T06:59:51Z</time>
      </trkpt>
      <trkpt lat="48.67186" lon="-4.33005">
        <ele>4.5</ele>
        <time>2020-06-10T06:59:52Z</time>
      </trkpt>
      <trkpt lat="48.67188" lon="-4.33005">
        <ele>4.6</ele>
        <time>2020-06-10T06:59:53Z</time>
      </trkpt>
      <trkpt lat="48.67189" lon="-4.33004">
        <ele>4.6</ele>
        <time>2020-06-10T06:59:54Z</time>
      </trkpt>
      <trkpt lat="48.67191" lon="-4.33002">
        <ele>4.6</ele>
        <time>2020-06-10T06:59:55Z</time>
      </trkpt>
      <trkpt lat="48.67193" lon="-4.32999">
        <ele>4.6</ele>
        <time>2020-06-10T06:59:56Z</time>
      </trkpt>
      <trkpt lat="48.67194" lon="-4.32998">
        <ele>4.6</ele>
        <time>2020-06-10T06:59:57Z</time>
      </trkpt>
      <trkpt lat="48.67197" lon="-4.32995">
        <ele>4.6</ele>
        <time>2020-06-10T06:59:58Z</time>
      </trkpt>
      <trkpt lat="48.67198" lon="-4.32994">
        <ele>4.6</ele>
        <time>2020-06-10T06:59:59Z</time>
      </trkpt>
      <trkpt lat="48.67202" lon="-4.3299">
        <ele>4.6</ele>
        <time>2020-06-10T07:00:00Z</time>
      </trkpt>
      <trkpt lat="48.67203" lon="-4.32987">
        <ele>4.6</ele>
        <time>2020-06-10T07:00:01Z</time>
      </trkpt>
      <trkpt lat="48.67205" lon="-4.32982">
        <ele>4.6</ele>
        <time>2020-06-10T07:00:02Z</time>
      </trkpt>
      <trkpt lat="48.67206" lon="-4.32977">
        <ele>4.5</ele>
        <time>2020-06-10T07:00:03Z</time>
      </trkpt>
      <trkpt lat="48.67207" lon="-4.32971">
        <ele>4.5</ele>
        <time>2020-06-10T07:00:04Z</time>
      </trkpt>
      <trkpt lat="48.67207" lon="-4.32967">
        <ele>4.4</ele>
        <time>2020-06-10T07:00:05Z</time>
      </trkpt>
      <trkpt lat="48.67207" lon="-4.32962">
        <ele>4.4</ele>
        <time>2020-06-10T07:00:06Z</time>
      </trkpt>
      <trkpt lat="48.67207" lon="-4.32957">
        <ele>4.3</ele>
        <time>2020-06-10T07:00:07Z</time>
      </trkpt>
      <trkpt lat="48.67207" lon="-4.32953">
        <ele>4.3</ele>
        <time>2020-06-10T07:00:08Z</time>
      </trkpt>
      <trkpt lat="48.67208" lon="-4.32949">
        <ele>4.2</ele>
        <time>2020-06-10T07:00:09Z</time>
      </trkpt>
      <trkpt lat="48.67208" lon="-4.32944">
        <ele>4.2</ele>
        <time>2020-06-10T07:00:10Z</time>
      </trkpt>
      <trkpt lat="48.67208" lon="-4.32938">
        <ele>4.1</ele>
        <time>2020-06-10T07:00:11Z</time>
      </trkpt>
      <trkpt lat="48.67209" lon="-4.32931">
        <ele>4</ele>
        <time>2020-06-10T07:00:12Z</time>
      </trkpt>
      <trkpt lat="48.6721" lon="-4.32926">
        <ele>4</ele>
        <time>2020-06-10T07:00:13Z</time>
      </trkpt>
      <trkpt lat="48.67214" lon="-4.32925">
        <ele>3.9</ele>
        <time>2020-06-10T07:00:14Z</time>
      </trkpt>
      <trkpt lat="48.67216" lon="-4.32925">
        <ele>3.9</ele>
        <time>2020-06-10T07:00:15Z</time>
      </trkpt>
      <trkpt lat="48.6722" lon="-4.32924">
        <ele>3.9</ele>
        <time>2020-06-10T07:00:16Z</time>
      </trkpt>
      <trkpt lat="48.67221" lon="-4.32923">
        <ele>3.9</ele>
        <time>2020-06-10T07:00:17Z</time>
      </trkpt>
      <trkpt lat="48.67223" lon="-4.32922">
        <ele>4</ele>
        <time>2020-06-10T07:00:18Z</time>
      </trkpt>
      <trkpt lat="48.67226" lon="-4.32922">
        <ele>4</ele>
        <time>2020-06-10T07:00:19Z</time>
      </trkpt>
      <trkpt lat="48.67227" lon="-4.32922">
        <ele>4</ele>
        <time>2020-06-10T07:00:20Z</time>
      </trkpt>
      <trkpt lat="48.67229" lon="-4.32921">
        <ele>3.9</ele>
        <time>2020-06-10T07:00:21Z</time>
      </trkpt>
      <trkpt lat="48.67231" lon="-4.32921">
        <ele>3.9</ele>
        <time>2020-06-10T07:00:22Z</time>
      </trkpt>
      <trkpt lat="48.67233" lon="-4.3292">
        <ele>3.9</ele>
        <time>2020-06-10T07:00:23Z</time>
      </trkpt>
      <trkpt lat="48.67234" lon="-4.3292">
        <ele>3.9</ele>
        <time>2020-06-10T07:00:24Z</time>
      </trkpt>
      <trkpt lat="48.67238" lon="-4.3292">
        <ele>3.9</ele>
        <time>2020-06-10T07:00:25Z</time>
      </trkpt>
      <trkpt lat="48.6724" lon="-4.3292">
        <ele>3.9</ele>
        <time>2020-06-10T07:00:26Z</time>
      </trkpt>
      <trkpt lat="48.67243" lon="-4.32919">
        <ele>3.9</ele>
        <time>2020-06-10T07:00:27Z</time>
      </trkpt>
      <trkpt lat="48.67246" lon="-4.32919">
        <ele>4</ele>
        <time>2020-06-10T07:00:28Z</time>
      </trkpt>
      <trkpt lat="48.6725" lon="-4.32918">
        <ele>4</ele>
        <time>2020-06-10T07:00:29Z</time>
      </trkpt>
      <trkpt lat="48.67254" lon="-4.32918">
        <ele>4</ele>
        <time>2020-06-10T07:00:30Z</time>
      </trkpt>
      <trkpt lat="48.67257" lon="-4.32917">
        <ele>4</ele>
        <time>2020-06-10T07:00:31Z</time>
      </trkpt>
      <trkpt lat="48.67261" lon="-4.32917">
        <ele>4</ele>
        <time>2020-06-10T07:00:32Z</time>
      </trkpt>
      <trkpt lat="48.67264" lon="-4.32916">
        <ele>4</ele>
        <time>2020-06-10T07:00:33Z</time>
      </trkpt>
      <trkpt lat="48.67267" lon="-4.32915">
        <ele>4</ele>
        <time>2020-06-10T07:00:34Z</time>
      </trkpt>
      <trkpt lat="48.67271" lon="-4.32917">
        <ele>4.1</ele>
        <time>2020-06-10T07:00:35Z</time>
      </trkpt>
      <trkpt lat="48.67272" lon="-4.32918">
        <ele>4.1</ele>
        <time>2020-06-10T07:00:36Z</time>
      </trkpt>
      <trkpt lat="48.67275" lon="-4.32919">
        <ele>4.2</ele>
        <time>2020-06-10T07:00:37Z</time>
      </trkpt>
      <trkpt lat="48.67276" lon="-4.32919">
        <ele>4.2</ele>
        <time>2020-06-10T07:00:38Z</time>
      </trkpt>
      <trkpt lat="48.67277" lon="-4.32919">
        <ele>4.2</ele>
        <time>2020-06-10T07:00:39Z</time>
      </trkpt>
      <trkpt lat="48.67278" lon="-4.32919">
        <ele>4.2</ele>
        <time>2020-06-10T07:00:40Z</time>
      </trkpt>
      <trkpt lat="48.67277" lon="-4.3292">
        <ele>4.2</ele>
        <time>2020-06-10T07:00:41Z</time>
      </trkpt>
      <trkpt lat="48.67277" lon="-4.32919">
        <ele>4.2</ele>
        <time>2020-06-10T07:00:42Z</time>
      </trkpt>
      <trkpt lat="48.67278" lon="-4.3292">
        <ele>4.2</ele>
        <time>2020-06-10T07:00:43Z</time>
      </trkpt>
      <trkpt lat="48.67278" lon="-4.3292">
        <ele>4.2</ele>
        <time>2020-06-10T07:00:44Z</time>
      </trkpt>
      <trkpt lat="48.67278" lon="-4.3292">
        <ele>4.2</ele>
        <time>2020-06-10T07:00:45Z</time>
      </trkpt>
      <trkpt lat="48.67278" lon="-4.32921">
        <ele>4.2</ele>
        <time>2020-06-10T07:00:46Z</time>
      </trkpt>
      <trkpt lat="48.67278" lon="-4.32922">
        <ele>4.2</ele>
        <time>2020-06-10T07:00:47Z</time>
      </trkpt>
      <trkpt lat="48.6728" lon="-4.32923">
        <ele>4.3</ele>
        <time>2020-06-10T07:00:48Z</time>
      </trkpt>
      <trkpt lat="48.67282" lon="-4.32924">
        <ele>4.3</ele>
        <time>2020-06-10T07:00:49Z</time>
      </trkpt>
      <trkpt lat="48.67284" lon="-4.32925">
        <ele>4.3</ele>
        <time>2020-06-10T07:00:50Z</time>
      </trkpt>
      <trkpt lat="48.67286" lon="-4.32926">
        <ele>4.3</ele>
        <time>2020-06-10T07:02:20Z</time>
      </trkpt>
      <trkpt lat="48.67288" lon="-4.32926">
        <ele>4.3</ele>
        <time>2020-06-10T07:02:21Z</time>
      </trkpt>
      <trkpt lat="48.67288" lon="-4.32931">
        <ele>4.3</ele>
        <time>2020-06-10T07:02:22Z</time>
      </trkpt>
      <trkpt lat="48.67288" lon="-4.32936">
        <ele>4.3</ele>
        <time>2020-06-10T07:02:23Z</time>
      </trkpt>
      <trkpt lat="48.67288" lon="-4.32941">
        <ele>4.3</ele>
        <time>2020-06-10T07:02:24Z</time>
      </trkpt>
      <trkpt lat="48.67288" lon="-4.32947">
        <ele>4.3</ele>
        <time>2020-06-10T07:02:25Z</time>
      </trkpt>
      <trkpt lat="48.67287" lon="-4.32952">
        <ele>4.3</ele>
        <time>2020-06-10T07:02:26Z</time>
      </trkpt>
      <trkpt lat="48.67287" lon="-4.32957">
        <ele>4.3</ele>
        <time>2020-06-10T07:02:27Z</time>
      </trkpt>
      <trkpt lat="48.67286" lon="-4.32962">
        <ele>4.3</ele>
        <time>2020-06-10T07:02:28Z</time>
      </trkpt>
      <trkpt lat="48.67286" lon="-4.32967">
        <ele>4.3</ele>
        <time>2020-06-10T07:02:29Z</time>
      </trkpt>
      <trkpt lat="48.67285" lon="-4.32972">
        <ele>4.3</ele>
        <time>2020-06-10T07:02:30Z</time>
      </trkpt>
      <trkpt lat="48.67285" lon="-4.32977">
        <ele>4.3</ele>
        <time>2020-06-10T07:02:31Z</time>
      </trkpt>
      <trkpt lat="48.67285" lon="-4.32981">
        <ele>4.3</ele>
        <time>2020-06-10T07:02:32Z</time>
      </trkpt>
      <trkpt lat="48.67285" lon="-4.32986">
        <ele>4.3</ele>
        <time>2020-06-10T07:02:33Z</time>
      </trkpt>
      <trkpt lat="48.67285" lon="-4.32991">
        <ele>4.3</ele>
        <time>2020-06-10T07:02:34Z</time>
      </trkpt>
      <trkpt lat="48.67285" lon="-4.32995">
        <ele>4.3</ele>
        <time>2020-06-10T07:02:35Z</time>
      </trkpt>
      <trkpt lat="48.67284" lon="-4.33">
        <ele>4.3</ele>
        <time>2020-06-10T07:02:36Z</time>
      </trkpt>
      <trkpt lat="48.67284" lon="-4.33005">
        <ele>4.3</ele>
        <time>2020-06-10T07:02:37Z</time>
      </trkpt>
      <trkpt lat="48.67284" lon="-4.33011">
        <ele>4.3</ele>
        <time>2020-06-10T07:02:38Z</time>
      </trkpt>
      <trkpt lat="48.67284" lon="-4.33016">
        <ele>4.3</ele>
        <time>2020-06-10T07:02:39Z</time>
      </trkpt>
      <trkpt lat="48.67284" lon="-4.33022">
        <ele>4.3</ele>
        <time>2020-06-10T07:02:40Z</time>
      </trkpt>
      <trkpt lat="48.67284" lon="-4.33027">
        <ele>4.3</ele>
        <time>2020-06-10T07:02:41Z</time>
      </trkpt>
      <trkpt lat="48.67284" lon="-4.33033">
        <ele>4.2</ele>
        <time>2020-06-10T07:02:42Z</time>
      </trkpt>
      <trkpt lat="48.67285" lon="-4.33039">
        <ele>4.2</ele>
        <time>2020-06-10T07:02:43Z</time>
      </trkpt>
      <trkpt lat="48.67286" lon="-4.33045">
        <ele>4.2</ele>
        <time>2020-06-10T07:02:44Z</time>
      </trkpt>
      <trkpt lat="48.67287" lon="-4.33051">
        <ele>4.2</ele>
        <time>2020-06-10T07:02:45Z</time>
      </trkpt>
      <trkpt lat="48.67287" lon="-4.33057">
        <ele>4.2</ele>
        <time>2020-06-10T07:02:46Z</time>
      </trkpt>
      <trkpt lat="48.67287" lon="-4.33064">
        <ele>4.3</ele>
        <time>2020-06-10T07:02:47Z</time>
      </trkpt>
      <trkpt lat="48.67289" lon="-4.3307">
        <ele>4.3</ele>
        <time>2020-06-10T07:02:48Z</time>
      </trkpt>
      <trkpt lat="48.6729" lon="-4.33076">
        <ele>4.4</ele>
        <time>2020-06-10T07:02:49Z</time>
      </trkpt>
      <trkpt lat="48.6729" lon="-4.33083">
        <ele>4.5</ele>
        <time>2020-06-10T07:02:50Z</time>
      </trkpt>
      <trkpt lat="48.67291" lon="-4.33089">
        <ele>4.5</ele>
        <time>2020-06-10T07:02:51Z</time>
      </trkpt>
      <trkpt lat="48.67292" lon="-4.33095">
        <ele>4.6</ele>
        <time>2020-06-10T07:02:52Z</time>
      </trkpt>
      <trkpt lat="48.67293" lon="-4.331">
        <ele>4.6</ele>
        <time>2020-06-10T07:02:53Z</time>
      </trkpt>
      <trkpt lat="48.67293" lon="-4.33105">
        <ele>4.7</ele>
        <time>2020-06-10T07:02:54Z</time>
      </trkpt>
      <trkpt lat="48.67294" lon="-4.33111">
        <ele>4.7</ele>
        <time>2020-06-10T07:02:55Z</time>
      </trkpt>
      <trkpt lat="48.67295" lon="-4.33116">
        <ele>4.8</ele>
        <time>2020-06-10T07:02:56Z</time>
      </trkpt>
      <trkpt lat="48.67295" lon="-4.33122">
        <ele>4.8</ele>
        <time>2020-06-10T07:02:57Z</time>
      </trkpt>
      <trkpt lat="48.67296" lon="-4.33127">
        <ele>4.9</ele>
        <time>2020-06-10T07:02:58Z</time>
      </trkpt>
      <trkpt lat="48.67298" lon="-4.33133">
        <ele>4.9</ele>
        <time>2020-06-10T07:02:59Z</time>
      </trkpt>
      <trkpt lat="48.67299" lon="-4.33138">
        <ele>5</ele>
        <time>2020-06-10T07:03:00Z</time>
      </trkpt>
      <trkpt lat="48.67301" lon="-4.33144">
        <ele>5.1</ele>
        <time>2020-06-10T07:03:01Z</time>
      </trkpt>
      <trkpt lat="48.67302" lon="-4.33149">
        <ele>5.1</ele>
        <time>2020-06-10T07:03:02Z</time>
      </trkpt>
      <trkpt lat="48.67302" lon="-4.33154">
        <ele>5.2</ele>
        <time>2020-06-10T07:03:03Z</time>
      </trkpt>
      <trkpt lat="48.67304" lon="-4.3316">
        <ele>5.3</ele>
        <time>2020-06-10T07:03:04Z</time>
      </trkpt>
      <trkpt lat="48.67304" lon="-4.33165">
        <ele>5.4</ele>
        <time>2020-06-10T07:03:05Z</time>
      </trkpt>
      <trkpt lat="48.67306" lon="-4.3317">
        <ele>5.5</ele>
        <time>2020-06-10T07:03:06Z</time>
      </trkpt>
      <trkpt lat="48.67307" lon="-4.33176">
        <ele>5.6</ele>
        <time>2020-06-10T07:03:07Z</time>
      </trkpt>
      <trkpt lat="48.67308" lon="-4.33182">
        <ele>5.7</ele>
        <time>2020-06-10T07:03:08Z</time>
      </trkpt>
      <trkpt lat="48.67309" lon="-4.33187">
        <ele>5.8</ele>
        <time>2020-06-10T07:03:09Z</time>
      </trkpt>
      <trkpt lat="48.6731" lon="-4.33192">
        <ele>5.9</ele>
        <time>2020-06-10T07:03:10Z</time>
      </trkpt>
      <trkpt lat="48.67312" lon="-4.33197">
        <ele>6</ele>
        <time>2020-06-10T07:03:11Z</time>
      </trkpt>
      <trkpt lat="48.67313" lon="-4.33202">
        <ele>6.1</ele>
        <time>2020-06-10T07:03:12Z</time>
      </trkpt>
      <trkpt lat="48.67314" lon="-4.33208">
        <ele>6.2</ele>
        <time>2020-06-10T07:03:13Z</time>
      </trkpt>
      <trkpt lat="48.67315" lon="-4.33214">
        <ele>6.3</ele>
        <time>2020-06-10T07:03:14Z</time>
      </trkpt>
      <trkpt lat="48.67317" lon="-4.33219">
        <ele>6.4</ele>
        <time>2020-06-10T07:03:15Z</time>
      </trkpt>
      <trkpt lat="48.67319" lon="-4.33223">
        <ele>6.5</ele>
        <time>2020-06-10T07:03:16Z</time>
      </trkpt>
      <trkpt lat="48.6732" lon="-4.33228">
        <ele>6.6</ele>
        <time>2020-06-10T07:03:17Z</time>
      </trkpt>
      <trkpt lat="48.67322" lon="-4.33233">
        <ele>6.7</ele>
        <time>2020-06-10T07:03:18Z</time>
      </trkpt>
      <trkpt lat="48.67324" lon="-4.33238">
        <ele>6.8</ele>
        <time>2020-06-10T07:03:19Z</time>
      </trkpt>
      <trkpt lat="48.67326" lon="-4.33242">
        <ele>6.9</ele>
        <time>2020-06-10T07:03:20Z</time>
      </trkpt>
      <trkpt lat="48.67327" lon="-4.33247">
        <ele>7</ele>
        <time>2020-06-10T07:03:21Z</time>
      </trkpt>
      <trkpt lat="48.67329" lon="-4.33252">
        <ele>7.1</ele>
        <time>2020-06-10T07:03:22Z</time>
      </trkpt>
      <trkpt lat="48.6733" lon="-4.33257">
        <ele>7.2</ele>
        <time>2020-06-10T07:03:23Z</time>
      </trkpt>
      <trkpt lat="48.67332" lon="-4.33261">
        <ele>7.3</ele>
        <time>2020-06-10T07:03:24Z</time>
      </trkpt>
      <trkpt lat="48.67333" lon="-4.33265">
        <ele>7.3</ele>
        <time>2020-06-10T07:03:25Z</time>
      </trkpt>
      <trkpt lat="48.67334" lon="-4.3327">
        <ele>7.4</ele>
        <time>2020-06-10T07:03:26Z</time>
      </trkpt>
      <trkpt lat="48.67336" lon="-4.33276">
        <ele>7.4</ele>
        <time>2020-06-10T07:03:27Z</time>
      </trkpt>
      <trkpt lat="48.67337" lon="-4.33281">
        <ele>7.4</ele>
        <time>2020-06-10T07:03:28Z</time>
      </trkpt>
      <trkpt lat="48.67337" lon="-4.33286">
        <ele>7.5</ele>
        <time>2020-06-10T07:03:29Z</time>
      </trkpt>
      <trkpt lat="48.67338" lon="-4.33292">
        <ele>7.5</ele>
        <time>2020-06-10T07:03:30Z</time>
      </trkpt>
      <trkpt lat="48.67338" lon="-4.33297">
        <ele>7.5</ele>
        <time>2020-06-10T07:03:31Z</time>
      </trkpt>
      <trkpt lat="48.67338" lon="-4.33303">
        <ele>7.5</ele>
        <time>2020-06-10T07:03:32Z</time>
      </trkpt>
      <trkpt lat="48.67337" lon="-4.33308">
        <ele>7.5</ele>
        <time>2020-06-10T07:03:33Z</time>
      </trkpt>
      <trkpt lat="48.67337" lon="-4.33314">
        <ele>7.4</ele>
        <time>2020-06-10T07:03:34Z</time>
      </trkpt>
      <trkpt lat="48.67336" lon="-4.33319">
        <ele>7.4</ele>
        <time>2020-06-10T07:03:35Z</time>
      </trkpt>
      <trkpt lat="48.67335" lon="-4.3332">
        <ele>7.3</ele>
        <time>2020-06-10T07:03:36Z</time>
      </trkpt>
      <trkpt lat="48.67335" lon="-4.33326">
        <ele>7.3</ele>
        <time>2020-06-10T07:03:37Z</time>
      </trkpt>
      <trkpt lat="48.67334" lon="-4.3333">
        <ele>7.2</ele>
        <time>2020-06-10T07:03:38Z</time>
      </trkpt>
      <trkpt lat="48.67333" lon="-4.33333">
        <ele>7.1</ele>
        <time>2020-06-10T07:03:39Z</time>
      </trkpt>
      <trkpt lat="48.67333" lon="-4.33337">
        <ele>7.1</ele>
        <time>2020-06-10T07:03:40Z</time>
      </trkpt>
      <trkpt lat="48.67332" lon="-4.33342">
        <ele>7</ele>
        <time>2020-06-10T07:03:41Z</time>
      </trkpt>
      <trkpt lat="48.67332" lon="-4.33348">
        <ele>6.9</ele>
        <time>2020-06-10T07:03:42Z</time>
      </trkpt>
      <trkpt lat="48.67332" lon="-4.33355">
        <ele>6.8</ele>
        <time>2020-06-10T07:03:43Z</time>
      </trkpt>
      <trkpt lat="48.67332" lon="-4.33362">
        <ele>6.7</ele>
        <time>2020-06-10T07:03:44Z</time>
      </trkpt>
      <trkpt lat="48.67331" lon="-4.33369">
        <ele>6.6</ele>
        <time>2020-06-10T07:03:45Z</time>
      </trkpt>
      <trkpt lat="48.6733" lon="-4.33375">
        <ele>6.4</ele>
        <time>2020-06-10T07:03:46Z</time>
      </trkpt>
      <trkpt lat="48.67328" lon="-4.33378">
        <ele>6.4</ele>
        <time>2020-06-10T07:03:47Z</time>
      </trkpt>
      <trkpt lat="48.67323" lon="-4.33381">
        <ele>6.4</ele>
        <time>2020-06-10T07:03:48Z</time>
      </trkpt>
      <trkpt lat="48.67318" lon="-4.33382">
        <ele>6.5</ele>
        <time>2020-06-10T07:03:49Z</time>
      </trkpt>
      <trkpt lat="48.67314" lon="-4.33384">
        <ele>6.5</ele>
        <time>2020-06-10T07:03:50Z</time>
      </trkpt>
      <trkpt lat="48.6731" lon="-4.33385">
        <ele>6.5</ele>
        <time>2020-06-10T07:03:51Z</time>
      </trkpt>
      <trkpt lat="48.67306" lon="-4.33386">
        <ele>6.5</ele>
        <time>2020-06-10T07:03:52Z</time>
      </trkpt>
      <trkpt lat="48.67303" lon="-4.33387">
        <ele>6.6</ele>
        <time>2020-06-10T07:03:53Z</time>
      </trkpt>
      <trkpt lat="48.67299" lon="-4.33387">
        <ele>6.6</ele>
        <time>2020-06-10T07:03:54Z</time>
      </trkpt>
      <trkpt lat="48.67294" lon="-4.33388">
        <ele>6.6</ele>
        <time>2020-06-10T07:03:55Z</time>
      </trkpt>
      <trkpt lat="48.67291" lon="-4.33389">
        <ele>6.7</ele>
        <time>2020-06-10T07:03:56Z</time>
      </trkpt>
      <trkpt lat="48.67287" lon="-4.33389">
        <ele>6.7</ele>
        <time>2020-06-10T07:03:57Z</time>
      </trkpt>
      <trkpt lat="48.67283" lon="-4.33391">
        <ele>6.7</ele>
        <time>2020-06-10T07:03:58Z</time>
      </trkpt>
      <trkpt lat="48.67278" lon="-4.33393">
        <ele>6.8</ele>
        <time>2020-06-10T07:03:59Z</time>
      </trkpt>
      <trkpt lat="48.67274" lon="-4.33395">
        <ele>6.8</ele>
        <time>2020-06-10T07:04:00Z</time>
      </trkpt>
      <trkpt lat="48.67269" lon="-4.33398">
        <ele>6.8</ele>
        <time>2020-06-10T07:04:01Z</time>
      </trkpt>
      <trkpt lat="48.67264" lon="-4.334">
        <ele>6.9</ele>
        <time>2020-06-10T07:04:02Z</time>
      </trkpt>
      <trkpt lat="48.6726" lon="-4.33403">
        <ele>7</ele>
        <time>2020-06-10T07:04:03Z</time>
      </trkpt>
      <trkpt lat="48.67257" lon="-4.33405">
        <ele>7.1</ele>
        <time>2020-06-10T07:04:04Z</time>
      </trkpt>
      <trkpt lat="48.67253" lon="-4.33407">
        <ele>7.1</ele>
        <time>2020-06-10T07:04:05Z</time>
      </trkpt>
      <trkpt lat="48.67249" lon="-4.33409">
        <ele>7.2</ele>
        <time>2020-06-10T07:04:06Z</time>
      </trkpt>
      <trkpt lat="48.67245" lon="-4.33411">
        <ele>7.3</ele>
        <time>2020-06-10T07:04:07Z</time>
      </trkpt>
      <trkpt lat="48.67242" lon="-4.33414">
        <ele>7.4</ele>
        <time>2020-06-10T07:04:08Z</time>
      </trkpt>
      <trkpt lat="48.67239" lon="-4.33416">
        <ele>7.5</ele>
        <time>2020-06-10T07:04:09Z</time>
      </trkpt>
      <trkpt lat="48.67235" lon="-4.33419">
        <ele>7.6</ele>
        <time>2020-06-10T07:04:10Z</time>
      </trkpt>
      <trkpt lat="48.67231" lon="-4.33422">
        <ele>7.7</ele>
        <time>2020-06-10T07:04:11Z</time>
      </trkpt>
      <trkpt lat="48.67227" lon="-4.33424">
        <ele>7.7</ele>
        <time>2020-06-10T07:04:12Z</time>
      </trkpt>
      <trkpt lat="48.67223" lon="-4.33427">
        <ele>7.8</ele>
        <time>2020-06-10T07:04:13Z</time>
      </trkpt>
      <trkpt lat="48.67219" lon="-4.33429">
        <ele>7.9</ele>
        <time>2020-06-10T07:04:14Z</time>
      </trkpt>
      <trkpt lat="48.67215" lon="-4.33432">
        <ele>8</ele>
        <time>2020-06-10T07:04:15Z</time>
      </trkpt>
      <trkpt lat="48.67212" lon="-4.33434">
        <ele>8.1</ele>
        <time>2020-06-10T07:04:16Z</time>
      </trkpt>
      <trkpt lat="48.67208" lon="-4.33437">
        <ele>8.2</ele>
        <time>2020-06-10T07:04:17Z</time>
      </trkpt>
      <trkpt lat="48.67203" lon="-4.3344">
        <ele>8.3</ele>
        <time>2020-06-10T07:04:18Z</time>
      </trkpt>
      <trkpt lat="48.67199" lon="-4.33443">
        <ele>8.4</ele>
        <time>2020-06-10T07:04:19Z</time>
      </trkpt>
      <trkpt lat="48.67195" lon="-4.33445">
        <ele>8.5</ele>
        <time>2020-06-10T07:04:20Z</time>
      </trkpt>
      <trkpt lat="48.67191" lon="-4.33448">
        <ele>8.6</ele>
        <time>2020-06-10T07:04:21Z</time>
      </trkpt>
      <trkpt lat="48.67187" lon="-4.33451">
        <ele>8.7</ele>
        <time>2020-06-10T07:04:22Z</time>
      </trkpt>
      <trkpt lat="48.67183" lon="-4.33454">
        <ele>8.8</ele>
        <time>2020-06-10T07:04:23Z</time>
      </trkpt>
      <trkpt lat="48.67179" lon="-4.33457">
        <ele>8.9</ele>
        <time>2020-06-10T07:04:24Z</time>
      </trkpt>
      <trkpt lat="48.67174" lon="-4.33459">
        <ele>9</ele>
        <time>2020-06-10T07:04:25Z</time>
      </trkpt>
      <trkpt lat="48.67169" lon="-4.33462">
        <ele>9.1</ele>
        <time>2020-06-10T07:04:26Z</time>
      </trkpt>
      <trkpt lat="48.67165" lon="-4.33465">
        <ele>9.2</ele>
        <time>2020-06-10T07:04:27Z</time>
      </trkpt>
      <trkpt lat="48.67161" lon="-4.33467">
        <ele>9.4</ele>
        <time>2020-06-10T07:04:28Z</time>
      </trkpt>
      <trkpt lat="48.67157" lon="-4.3347">
        <ele>9.5</ele>
        <time>2020-06-10T07:04:29Z</time>
      </trkpt>
      <trkpt lat="48.67153" lon="-4.33473">
        <ele>9.6</ele>
        <time>2020-06-10T07:04:30Z</time>
      </trkpt>
      <trkpt lat="48.6715" lon="-4.33475">
        <ele>9.7</ele>
        <time>2020-06-10T07:04:31Z</time>
      </trkpt>
      <trkpt lat="48.67146" lon="-4.33477">
        <ele>9.9</ele>
        <time>2020-06-10T07:04:32Z</time>
      </trkpt>
      <trkpt lat="48.67142" lon="-4.3348">
        <ele>10</ele>
        <time>2020-06-10T07:04:33Z</time>
      </trkpt>
      <trkpt lat="48.67138" lon="-4.33483">
        <ele>10.1</ele>
        <time>2020-06-10T07:04:34Z</time>
      </trkpt>
      <trkpt lat="48.67135" lon="-4.33485">
        <ele>10.2</ele>
        <time>2020-06-10T07:04:35Z</time>
      </trkpt>
      <trkpt lat="48.67132" lon="-4.33487">
        <ele>10.2</ele>
        <time>2020-06-10T07:04:36Z</time>
      </trkpt>
      <trkpt lat="48.67128" lon="-4.3349">
        <ele>10.3</ele>
        <time>2020-06-10T07:04:37Z</time>
      </trkpt>
      <trkpt lat="48.67124" lon="-4.33493">
        <ele>10.4</ele>
        <time>2020-06-10T07:04:38Z</time>
      </trkpt>
      <trkpt lat="48.6712" lon="-4.33495">
        <ele>10.5</ele>
        <time>2020-06-10T07:04:39Z</time>
      </trkpt>
      <trkpt lat="48.67115" lon="-4.33498">
        <ele>10.6</ele>
        <time>2020-06-10T07:04:40Z</time>
      </trkpt>
      <trkpt lat="48.67111" lon="-4.33501">
        <ele>10.7</ele>
        <time>2020-06-10T07:04:41Z</time>
      </trkpt>
      <trkpt lat="48.67107" lon="-4.33503">
        <ele>10.8</ele>
        <time>2020-06-10T07:04:42Z</time>
      </trkpt>
      <trkpt lat="48.67103" lon="-4.33505">
        <ele>10.9</ele>
        <time>2020-06-10T07:04:43Z</time>
      </trkpt>
      <trkpt lat="48.67099" lon="-4.33506">
        <ele>10.9</ele>
        <time>2020-06-10T07:04:44Z</time>
      </trkpt>
      <trkpt lat="48.67095" lon="-4.33507">
        <ele>11</ele>
        <time>2020-06-10T07:04:45Z</time>
      </trkpt>
      <trkpt lat="48.67091" lon="-4.33507">
        <ele>11.1</ele>
        <time>2020-06-10T07:04:46Z</time>
      </trkpt>
      <trkpt lat="48.67087" lon="-4.33507">
        <ele>11.2</ele>
        <time>2020-06-10T07:04:47Z</time>
      </trkpt>
      <trkpt lat="48.67083" lon="-4.33507">
        <ele>11.2</ele>
        <time>2020-06-10T07:04:48Z</time>
      </trkpt>
      <trkpt lat="48.67079" lon="-4.33507">
        <ele>11.3</ele>
        <time>2020-06-10T07:04:49Z</time>
      </trkpt>
      <trkpt lat="48.67077" lon="-4.33508">
        <ele>11.4</ele>
        <time>2020-06-10T07:04:50Z</time>
      </trkpt>
      <trkpt lat="48.67072" lon="-4.33508">
        <ele>11.6</ele>
        <time>2020-06-10T07:04:51Z</time>
      </trkpt>
      <trkpt lat="48.67068" lon="-4.33508">
        <ele>11.7</ele>
        <time>2020-06-10T07:04:52Z</time>
      </trkpt>
      <trkpt lat="48.67064" lon="-4.33508">
        <ele>11.8</ele>
        <time>2020-06-10T07:04:53Z</time>
      </trkpt>
      <trkpt lat="48.67059" lon="-4.33507">
        <ele>11.9</ele>
        <time>2020-06-10T07:04:54Z</time>
      </trkpt>
      <trkpt lat="48.67055" lon="-4.33507">
        <ele>12.1</ele>
        <time>2020-06-10T07:04:55Z</time>
      </trkpt>
      <trkpt lat="48.67051" lon="-4.33506">
        <ele>12.2</ele>
        <time>2020-06-10T07:04:56Z</time>
      </trkpt>
      <trkpt lat="48.67048" lon="-4.33506">
        <ele>12.2</ele>
        <time>2020-06-10T07:04:57Z</time>
      </trkpt>
      <trkpt lat="48.67044" lon="-4.33505">
        <ele>12.3</ele>
        <time>2020-06-10T07:04:58Z</time>
      </trkpt>
      <trkpt lat="48.67041" lon="-4.33504">
        <ele>12.3</ele>
        <time>2020-06-10T07:04:59Z</time>
      </trkpt>
      <trkpt lat="48.67041" lon="-4.33503">
        <ele>12.3</ele>
        <time>2020-06-10T07:05:00Z</time>
      </trkpt>
      <trkpt lat="48.6704" lon="-4.33503">
        <ele>12.3</ele>
        <time>2020-06-10T07:05:01Z</time>
      </trkpt>
      <trkpt lat="48.6704" lon="-4.33502">
        <ele>12.3</ele>
        <time>2020-06-10T07:05:02Z</time>
      </trkpt>
      <trkpt lat="48.6704" lon="-4.33502">
        <ele>12.3</ele>
        <time>2020-06-10T07:05:03Z</time>
      </trkpt>
      <trkpt lat="48.6704" lon="-4.33502">
        <ele>12.3</ele>
        <time>2020-06-10T07:05:04Z</time>
      </trkpt>
      <trkpt lat="48.6704" lon="-4.33502">
        <ele>12.3</ele>
        <time>2020-06-10T07:05:05Z</time>
      </trkpt>
      <trkpt lat="48.67041" lon="-4.33502">
        <ele>12.3</ele>
        <time>2020-06-10T07:05:06Z</time>
      </trkpt>
      <trkpt lat="48.67041" lon="-4.33502">
        <ele>12.3</ele>
        <time>2020-06-10T07:05:07Z</time>
      </trkpt>
      <trkpt lat="48.67041" lon="-4.33503">
        <ele>12.3</ele>
        <time>2020-06-10T07:05:08Z</time>
      </trkpt>
      <trkpt lat="48.67042" lon="-4.33503">
        <ele>12.3</ele>
        <time>2020-06-10T07:05:09Z</time>
      </trkpt>
      <trkpt lat="48.67041" lon="-4.33501">
        <ele>12.3</ele>
        <time>2020-06-10T07:05:10Z</time>
      </trkpt>
      <trkpt lat="48.6704" lon="-4.335">
        <ele>12.3</ele>
        <time>2020-06-10T07:05:11Z</time>
      </trkpt>
      <trkpt lat="48.67038" lon="-4.33497">
        <ele>12.4</ele>
        <time>2020-06-10T07:05:12Z</time>
      </trkpt>
      <trkpt lat="48.67035" lon="-4.33494">
        <ele>12.4</ele>
        <time>2020-06-10T07:05:13Z</time>
      </trkpt>
      <trkpt lat="48.67032" lon="-4.3349">
        <ele>12.4</ele>
        <time>2020-06-10T07:05:14Z</time>
      </trkpt>
      <trkpt lat="48.67029" lon="-4.33486">
        <ele>12.4</ele>
        <time>2020-06-10T07:05:15Z</time>
      </trkpt>
      <trkpt lat="48.67028" lon="-4.33485">
        <ele>12.4</ele>
        <time>2020-06-10T07:05:16Z</time>
      </trkpt>
      <trkpt lat="48.67026" lon="-4.33482">
        <ele>12.5</ele>
        <time>2020-06-10T07:05:17Z</time>
      </trkpt>
      <trkpt lat="48.67024" lon="-4.33478">
        <ele>12.5</ele>
        <time>2020-06-10T07:05:18Z</time>
      </trkpt>
      <trkpt lat="48.67021" lon="-4.33472">
        <ele>12.4</ele>
        <time>2020-06-10T07:05:19Z</time>
      </trkpt>
      <trkpt lat="48.67019" lon="-4.33465">
        <ele>12.3</ele>
        <time>2020-06-10T07:05:20Z</time>
      </trkpt>
      <trkpt lat="48.67017" lon="-4.33458">
        <ele>12.1</ele>
        <time>2020-06-10T07:05:21Z</time>
      </trkpt>
      <trkpt lat="48.67015" lon="-4.3345">
        <ele>12</ele>
        <time>2020-06-10T07:05:22Z</time>
      </trkpt>
      <trkpt lat="48.67013" lon="-4.33442">
        <ele>11.8</ele>
        <time>2020-06-10T07:05:23Z</time>
      </trkpt>
      <trkpt lat="48.67012" lon="-4.33435">
        <ele>11.7</ele>
        <time>2020-06-10T07:05:24Z</time>
      </trkpt>
      <trkpt lat="48.6701" lon="-4.33429">
        <ele>11.6</ele>
        <time>2020-06-10T07:05:25Z</time>
      </trkpt>
      <trkpt lat="48.67009" lon="-4.33422">
        <ele>11.3</ele>
        <time>2020-06-10T07:05:26Z</time>
      </trkpt>
      <trkpt lat="48.67008" lon="-4.33414">
        <ele>11.2</ele>
        <time>2020-06-10T07:05:27Z</time>
      </trkpt>
      <trkpt lat="48.67006" lon="-4.33406">
        <ele>11</ele>
        <time>2020-06-10T07:05:28Z</time>
      </trkpt>
      <trkpt lat="48.67004" lon="-4.33397">
        <ele>10.8</ele>
        <time>2020-06-10T07:05:29Z</time>
      </trkpt>
      <trkpt lat="48.67002" lon="-4.3339">
        <ele>10.6</ele>
        <time>2020-06-10T07:05:30Z</time>
      </trkpt>
      <trkpt lat="48.67" lon="-4.33381">
        <ele>10.4</ele>
        <time>2020-06-10T07:05:31Z</time>
      </trkpt>
      <trkpt lat="48.66996" lon="-4.33372">
        <ele>10.2</ele>
        <time>2020-06-10T07:05:32Z</time>
      </trkpt>
      <trkpt lat="48.66993" lon="-4.33365">
        <ele>10.2</ele>
        <time>2020-06-10T07:05:33Z</time>
      </trkpt>
      <trkpt lat="48.66989" lon="-4.33358">
        <ele>9.7</ele>
        <time>2020-06-10T07:05:34Z</time>
      </trkpt>
      <trkpt lat="48.66985" lon="-4.33352">
        <ele>9.4</ele>
        <time>2020-06-10T07:05:35Z</time>
      </trkpt>
      <trkpt lat="48.66982" lon="-4.33347">
        <ele>9.2</ele>
        <time>2020-06-10T07:05:36Z</time>
      </trkpt>
      <trkpt lat="48.66977" lon="-4.3334">
        <ele>8.9</ele>
        <time>2020-06-10T07:05:37Z</time>
      </trkpt>
      <trkpt lat="48.66973" lon="-4.33334">
        <ele>8.7</ele>
        <time>2020-06-10T07:05:38Z</time>
      </trkpt>
      <trkpt lat="48.66968" lon="-4.33327">
        <ele>8.4</ele>
        <time>2020-06-10T07:05:39Z</time>
      </trkpt>
      <trkpt lat="48.66962" lon="-4.33321">
        <ele>8</ele>
        <time>2020-06-10T07:05:40Z</time>
      </trkpt>
      <trkpt lat="48.66957" lon="-4.33314">
        <ele>7.8</ele>
        <time>2020-06-10T07:05:41Z</time>
      </trkpt>
      <trkpt lat="48.66953" lon="-4.33308">
        <ele>7.6</ele>
        <time>2020-06-10T07:05:42Z</time>
      </trkpt>
      <trkpt lat="48.66948" lon="-4.333">
        <ele>7.4</ele>
        <time>2020-06-10T07:05:43Z</time>
      </trkpt>
      <trkpt lat="48.66943" lon="-4.33293">
        <ele>7.1</ele>
        <time>2020-06-10T07:05:44Z</time>
      </trkpt>
      <trkpt lat="48.66938" lon="-4.33286">
        <ele>6.9</ele>
        <time>2020-06-10T07:05:45Z</time>
      </trkpt>
      <trkpt lat="48.66933" lon="-4.33277">
        <ele>6.7</ele>
        <time>2020-06-10T07:05:46Z</time>
      </trkpt>
      <trkpt lat="48.66929" lon="-4.33269">
        <ele>6.6</ele>
        <time>2020-06-10T07:05:47Z</time>
      </trkpt>
      <trkpt lat="48.66925" lon="-4.33261">
        <ele>6.4</ele>
        <time>2020-06-10T07:05:48Z</time>
      </trkpt>
      <trkpt lat="48.66921" lon="-4.33252">
        <ele>6.3</ele>
        <time>2020-06-10T07:05:49Z</time>
      </trkpt>
      <trkpt lat="48.66917" lon="-4.33245">
        <ele>6.1</ele>
        <time>2020-06-10T07:05:50Z</time>
      </trkpt>
      <trkpt lat="48.66913" lon="-4.33237">
        <ele>6</ele>
        <time>2020-06-10T07:05:51Z</time>
      </trkpt>
      <trkpt lat="48.6691" lon="-4.33229">
        <ele>5.9</ele>
        <time>2020-06-10T07:05:52Z</time>
      </trkpt>
      <trkpt lat="48.66906" lon="-4.3322">
        <ele>5.7</ele>
        <time>2020-06-10T07:05:53Z</time>
      </trkpt>
      <trkpt lat="48.66902" lon="-4.33212">
        <ele>5.6</ele>
        <time>2020-06-10T07:05:54Z</time>
      </trkpt>
      <trkpt lat="48.66898" lon="-4.33204">
        <ele>5.5</ele>
        <time>2020-06-10T07:05:55Z</time>
      </trkpt>
      <trkpt lat="48.66895" lon="-4.33195">
        <ele>5.4</ele>
        <time>2020-06-10T07:05:56Z</time>
      </trkpt>
      <trkpt lat="48.66892" lon="-4.33187">
        <ele>5.3</ele>
        <time>2020-06-10T07:05:57Z</time>
      </trkpt>
      <trkpt lat="48.66889" lon="-4.33178">
        <ele>5.3</ele>
        <time>2020-06-10T07:05:58Z</time>
      </trkpt>
      <trkpt lat="48.66888" lon="-4.33168">
        <ele>5.3</ele>
        <time>2020-06-10T07:05:59Z</time>
      </trkpt>
      <trkpt lat="48.66887" lon="-4.33159">
        <ele>5.2</ele>
        <time>2020-06-10T07:06:00Z</time>
      </trkpt>
      <trkpt lat="48.66887" lon="-4.33149">
        <ele>5.2</ele>
        <time>2020-06-10T07:06:01Z</time>
      </trkpt>
      <trkpt lat="48.66888" lon="-4.3314">
        <ele>5.1</ele>
        <time>2020-06-10T07:06:02Z</time>
      </trkpt>
      <trkpt lat="48.66889" lon="-4.33131">
        <ele>5.1</ele>
        <time>2020-06-10T07:06:03Z</time>
      </trkpt>
      <trkpt lat="48.66891" lon="-4.33122">
        <ele>5</ele>
        <time>2020-06-10T07:06:04Z</time>
      </trkpt>
      <trkpt lat="48.66893" lon="-4.33114">
        <ele>5</ele>
        <time>2020-06-10T07:06:05Z</time>
      </trkpt>
      <trkpt lat="48.66895" lon="-4.33106">
        <ele>5</ele>
        <time>2020-06-10T07:06:06Z</time>
      </trkpt>
      <trkpt lat="48.66897" lon="-4.33098">
        <ele>5</ele>
        <time>2020-06-10T07:06:07Z</time>
      </trkpt>
      <trkpt lat="48.66898" lon="-4.33089">
        <ele>5</ele>
        <time>2020-06-10T07:06:08Z</time>
      </trkpt>
      <trkpt lat="48.669" lon="-4.33081">
        <ele>5</ele>
        <time>2020-06-10T07:06:09Z</time>
      </trkpt>
      <trkpt lat="48.66901" lon="-4.33073">
        <ele>5</ele>
        <time>2020-06-10T07:06:10Z</time>
      </trkpt>
      <trkpt lat="48.66902" lon="-4.33065">
        <ele>5</ele>
        <time>2020-06-10T07:06:11Z</time>
      </trkpt>
      <trkpt lat="48.66903" lon="-4.33057">
        <ele>5</ele>
        <time>2020-06-10T07:06:12Z</time>
      </trkpt>
      <trkpt lat="48.66903" lon="-4.33049">
        <ele>5</ele>
        <time>2020-06-10T07:06:13Z</time>
      </trkpt>
      <trkpt lat="48.66902" lon="-4.33041">
        <ele>5</ele>
        <time>2020-06-10T07:06:14Z</time>
      </trkpt>
      <trkpt lat="48.66901" lon="-4.33033">
        <ele>5</ele>
        <time>2020-06-10T07:06:15Z</time>
      </trkpt>
      <trkpt lat="48.66901" lon="-4.33025">
        <ele>5</ele>
        <time>2020-06-10T07:06:16Z</time>
      </trkpt>
      <trkpt lat="48.669" lon="-4.33018">
        <ele>5</ele>
        <time>2020-06-10T07:06:17Z</time>
      </trkpt>
      <trkpt lat="48.66897" lon="-4.33013">
        <ele>5</ele>
        <time>2020-06-10T07:06:18Z</time>
      </trkpt>
      <trkpt lat="48.66893" lon="-4.33009">
        <ele>5</ele>
        <time>2020-06-10T07:06:19Z</time>
      </trkpt>
      <trkpt lat="48.66889" lon="-4.33007">
        <ele>4.9</ele>
        <time>2020-06-10T07:06:20Z</time>
      </trkpt>
      <trkpt lat="48.66886" lon="-4.33006">
        <ele>4.9</ele>
        <time>2020-06-10T07:06:21Z</time>
      </trkpt>
      <trkpt lat="48.66882" lon="-4.33004">
        <ele>4.9</ele>
        <time>2020-06-10T07:06:22Z</time>
      </trkpt>
      <trkpt lat="48.66881" lon="-4.33004">
        <ele>4.9</ele>
        <time>2020-06-10T07:06:23Z</time>
      </trkpt>
      <trkpt lat="48.6688" lon="-4.33004">
        <ele>4.8</ele>
        <time>2020-06-10T07:06:24Z</time>
      </trkpt>
      <trkpt lat="48.66879" lon="-4.33004">
        <ele>4.8</ele>
        <time>2020-06-10T07:06:25Z</time>
      </trkpt>
      <trkpt lat="48.66878" lon="-4.33004">
        <ele>4.8</ele>
        <time>2020-06-10T07:06:26Z</time>
      </trkpt>
      <trkpt lat="48.66878" lon="-4.33003">
        <ele>4.8</ele>
        <time>2020-06-10T07:06:27Z</time>
      </trkpt>
      <trkpt lat="48.66878" lon="-4.33002">
        <ele>4.8</ele>
        <time>2020-06-10T07:06:28Z</time>
      </trkpt>
      <trkpt lat="48.66877" lon="-4.33001">
        <ele>4.8</ele>
        <time>2020-06-10T07:06:29Z</time>
      </trkpt>
      <trkpt lat="48.66877" lon="-4.33001">
        <ele>4.9</ele>
        <time>2020-06-10T07:06:30Z</time>
      </trkpt>
      <trkpt lat="48.66877" lon="-4.33001">
        <ele>4.9</ele>
        <time>2020-06-10T07:06:31Z</time>
      </trkpt>
      <trkpt lat="48.66877" lon="-4.33">
        <ele>4.9</ele>
        <time>2020-06-10T07:06:32Z</time>
      </trkpt>
      <trkpt lat="48.66877" lon="-4.33001">
        <ele>4.9</ele>
        <time>2020-06-10T07:06:33Z</time>
      </trkpt>
      <trkpt lat="48.66876" lon="-4.33">
        <ele>4.9</ele>
        <time>2020-06-10T07:06:34Z</time>
      </trkpt>
      <trkpt lat="48.66876" lon="-4.33">
        <ele>4.9</ele>
        <time>2020-06-10T07:06:35Z</time>
      </trkpt>
      <trkpt lat="48.66876" lon="-4.33">
        <ele>4.9</ele>
        <time>2020-06-10T07:06:36Z</time>
      </trkpt>
      <trkpt lat="48.66877" lon="-4.33001">
        <ele>4.9</ele>
        <time>2020-06-10T07:06:37Z</time>
      </trkpt>
      <trkpt lat="48.66876" lon="-4.32999">
        <ele>4.9</ele>
        <time>2020-06-10T07:06:38Z</time>
      </trkpt>
      <trkpt lat="48.66877" lon="-4.32998">
        <ele>4.9</ele>
        <time>2020-06-10T07:06:39Z</time>
      </trkpt>
      <trkpt lat="48.66877" lon="-4.32999">
        <ele>4.9</ele>
        <time>2020-06-10T07:06:40Z</time>
      </trkpt>
      <trkpt lat="48.66878" lon="-4.33">
        <ele>4.9</ele>
        <time>2020-06-10T07:06:41Z</time>
      </trkpt>
      <trkpt lat="48.6688" lon="-4.33001">
        <ele>4.9</ele>
        <time>2020-06-10T07:06:42Z</time>
      </trkpt>
      <trkpt lat="48.66883" lon="-4.33002">
        <ele>4.9</ele>
        <time>2020-06-10T07:06:43Z</time>
      </trkpt>
      <trkpt lat="48.66885" lon="-4.33002">
        <ele>4.9</ele>
        <time>2020-06-10T07:06:44Z</time>
      </trkpt>
      <trkpt lat="48.66888" lon="-4.33003">
        <ele>4.9</ele>
        <time>2020-06-10T07:06:45Z</time>
      </trkpt>
      <trkpt lat="48.6689" lon="-4.33003">
        <ele>4.9</ele>
        <time>2020-06-10T07:06:46Z</time>
      </trkpt>
      <trkpt lat="48.66894" lon="-4.33004">
        <ele>5</ele>
        <time>2020-06-10T07:06:47Z</time>
      </trkpt>
      <trkpt lat="48.66895" lon="-4.33005">
        <ele>5</ele>
        <time>2020-06-10T07:06:48Z</time>
      </trkpt>
      <trkpt lat="48.66898" lon="-4.33005">
        <ele>5.1</ele>
        <time>2020-06-10T07:06:49Z</time>
      </trkpt>
      <trkpt lat="48.66902" lon="-4.33005">
        <ele>5.1</ele>
        <time>2020-06-10T07:06:50Z</time>
      </trkpt>
      <trkpt lat="48.66903" lon="-4.33005">
        <ele>5.2</ele>
        <time>2020-06-10T07:06:51Z</time>
      </trkpt>
      <trkpt lat="48.66906" lon="-4.33005">
        <ele>5.2</ele>
        <time>2020-06-10T07:06:52Z</time>
      </trkpt>
      <trkpt lat="48.66908" lon="-4.33006">
        <ele>5.2</ele>
        <time>2020-06-10T07:06:53Z</time>
      </trkpt>
      <trkpt lat="48.66912" lon="-4.33007">
        <ele>5.3</ele>
        <time>2020-06-10T07:06:54Z</time>
      </trkpt>
      <trkpt lat="48.66913" lon="-4.33008">
        <ele>5.3</ele>
        <time>2020-06-10T07:06:55Z</time>
      </trkpt>
      <trkpt lat="48.66917" lon="-4.33009">
        <ele>5.3</ele>
        <time>2020-06-10T07:06:56Z</time>
      </trkpt>
      <trkpt lat="48.66918" lon="-4.3301">
        <ele>5.2</ele>
        <time>2020-06-10T07:06:57Z</time>
      </trkpt>
      <trkpt lat="48.6692" lon="-4.33012">
        <ele>5.2</ele>
        <time>2020-06-10T07:06:58Z</time>
      </trkpt>
      <trkpt lat="48.66921" lon="-4.33013">
        <ele>5.2</ele>
        <time>2020-06-10T07:06:59Z</time>
      </trkpt>
      <trkpt lat="48.66922" lon="-4.33014">
        <ele>5.2</ele>
        <time>2020-06-10T07:07:00Z</time>
      </trkpt>
      <trkpt lat="48.66922" lon="-4.33015">
        <ele>5.2</ele>
        <time>2020-06-10T07:07:01Z</time>
      </trkpt>
      <trkpt lat="48.66923" lon="-4.33015">
        <ele>5.2</ele>
        <time>2020-06-10T07:07:02Z</time>
      </trkpt>
      <trkpt lat="48.66923" lon="-4.33015">
        <ele>5.2</ele>
        <time>2020-06-10T07:07:03Z</time>
      </trkpt>
      <trkpt lat="48.66922" lon="-4.33015">
        <ele>5.2</ele>
        <time>2020-06-10T07:07:04Z</time>
      </trkpt>
      <trkpt lat="48.66923" lon="-4.33015">
        <ele>5.2</ele>
        <time>2020-06-10T07:07:05Z</time>
      </trkpt>
      <trkpt lat="48.66923" lon="-4.33015">
        <ele>5.2</ele>
        <time>2020-06-10T07:07:06Z</time>
      </trkpt>
      <trkpt lat="48.66923" lon="-4.33013">
        <ele>5.2</ele>
        <time>2020-06-10T07:07:07Z</time>
      </trkpt>
      <trkpt lat="48.66923" lon="-4.33015">
        <ele>5.2</ele>
        <time>2020-06-10T07:07:08Z</time>
      </trkpt>
      <trkpt lat="48.66923" lon="-4.33015">
        <ele>5.2</ele>
        <time>2020-06-10T07:07:09Z</time>
      </trkpt>
      <trkpt lat="48.66923" lon="-4.33014">
        <ele>5.2</ele>
        <time>2020-06-10T07:07:10Z</time>
      </trkpt>
      <trkpt lat="48.66923" lon="-4.33014">
        <ele>5.2</ele>
        <time>2020-06-10T07:07:11Z</time>
      </trkpt>
      <trkpt lat="48.66923" lon="-4.33014">
        <ele>5.2</ele>
        <time>2020-06-10T07:07:12Z</time>
      </trkpt>
      <trkpt lat="48.66923" lon="-4.33014">
        <ele>5.2</ele>
        <time>2020-06-10T07:07:13Z</time>
      </trkpt>
      <trkpt lat="48.66924" lon="-4.33013">
        <ele>5.2</ele>
        <time>2020-06-10T07:07:14Z</time>
      </trkpt>
      <trkpt lat="48.66925" lon="-4.33013">
        <ele>5.2</ele>
        <time>2020-06-10T07:07:15Z</time>
      </trkpt>
      <trkpt lat="48.66925" lon="-4.33013">
        <ele>5.2</ele>
        <time>2020-06-10T07:07:16Z</time>
      </trkpt>
      <trkpt lat="48.66925" lon="-4.33014">
        <ele>5.2</ele>
        <time>2020-06-10T07:07:17Z</time>
      </trkpt>
      <trkpt lat="48.66925" lon="-4.33014">
        <ele>5.2</ele>
        <time>2020-06-10T07:07:18Z</time>
      </trkpt>
      <trkpt lat="48.66926" lon="-4.33014">
        <ele>5.2</ele>
        <time>2020-06-10T07:07:19Z</time>
      </trkpt>
      <trkpt lat="48.66926" lon="-4.33014">
        <ele>5.2</ele>
        <time>2020-06-10T07:07:20Z</time>
      </trkpt>
      <trkpt lat="48.66926" lon="-4.33014">
        <ele>5.2</ele>
        <time>2020-06-10T07:07:21Z</time>
      </trkpt>
      <trkpt lat="48.66926" lon="-4.33014">
        <ele>5.2</ele>
        <time>2020-06-10T07:07:22Z</time>
      </trkpt>
      <trkpt lat="48.66926" lon="-4.33014">
        <ele>5.2</ele>
        <time>2020-06-10T07:07:23Z</time>
      </trkpt>
      <trkpt lat="48.66926" lon="-4.33014">
        <ele>5.2</ele>
        <time>2020-06-10T07:07:24Z</time>
      </trkpt>
      <trkpt lat="48.66925" lon="-4.33015">
        <ele>5.2</ele>
        <time>2020-06-10T07:07:25Z</time>
      </trkpt>
      <trkpt lat="48.66927" lon="-4.3301">
        <ele>5.2</ele>
        <time>2020-06-10T07:11:51Z</time>
      </trkpt>
      <trkpt lat="48.66927" lon="-4.3301">
        <ele>5.2</ele>
        <time>2020-06-10T07:11:52Z</time>
      </trkpt>
      <trkpt lat="48.66927" lon="-4.3301">
        <ele>5.2</ele>
        <time>2020-06-10T07:11:53Z</time>
      </trkpt>
      <trkpt lat="48.66927" lon="-4.3301">
        <ele>5.3</ele>
        <time>2020-06-10T07:11:54Z</time>
      </trkpt>
      <trkpt lat="48.66927" lon="-4.33009">
        <ele>5.3</ele>
        <time>2020-06-10T07:11:55Z</time>
      </trkpt>
      <trkpt lat="48.66927" lon="-4.33009">
        <ele>5.3</ele>
        <time>2020-06-10T07:11:56Z</time>
      </trkpt>
      <trkpt lat="48.66927" lon="-4.33009">
        <ele>5.3</ele>
        <time>2020-06-10T07:11:57Z</time>
      </trkpt>
      <trkpt lat="48.66927" lon="-4.33009">
        <ele>5.3</ele>
        <time>2020-06-10T07:11:58Z</time>
      </trkpt>
      <trkpt lat="48.66927" lon="-4.33009">
        <ele>5.3</ele>
        <time>2020-06-10T07:11:59Z</time>
      </trkpt>
      <trkpt lat="48.66927" lon="-4.3301">
        <ele>5.3</ele>
        <time>2020-06-10T07:12:00Z</time>
      </trkpt>
      <trkpt lat="48.66927" lon="-4.33009">
        <ele>5.3</ele>
        <time>2020-06-10T07:12:01Z</time>
      </trkpt>
      <trkpt lat="48.66922" lon="-4.33007">
        <ele>5.3</ele>
        <time>2020-06-10T07:12:08Z</time>
      </trkpt>
      <trkpt lat="48.66921" lon="-4.33007">
        <ele>5.3</ele>
        <time>2020-06-10T07:12:09Z</time>
      </trkpt>
      <trkpt lat="48.6692" lon="-4.33006">
        <ele>5.3</ele>
        <time>2020-06-10T07:12:10Z</time>
      </trkpt>
      <trkpt lat="48.6692" lon="-4.33006">
        <ele>5.3</ele>
        <time>2020-06-10T07:12:11Z</time>
      </trkpt>
      <trkpt lat="48.66919" lon="-4.33006">
        <ele>5.3</ele>
        <time>2020-06-10T07:12:12Z</time>
      </trkpt>
      <trkpt lat="48.66919" lon="-4.33006">
        <ele>5.3</ele>
        <time>2020-06-10T07:12:13Z</time>
      </trkpt>
      <trkpt lat="48.66919" lon="-4.33006">
        <ele>5.3</ele>
        <time>2020-06-10T07:12:14Z</time>
      </trkpt>
      <trkpt lat="48.66918" lon="-4.33006">
        <ele>5.3</ele>
        <time>2020-06-10T07:12:15Z</time>
      </trkpt>
      <trkpt lat="48.66918" lon="-4.33006">
        <ele>5.3</ele>
        <time>2020-06-10T07:12:16Z</time>
      </trkpt>
      <trkpt lat="48.66917" lon="-4.33006">
        <ele>5.3</ele>
        <time>2020-06-10T07:12:17Z</time>
      </trkpt>
      <trkpt lat="48.66916" lon="-4.33006">
        <ele>5.3</ele>
        <time>2020-06-10T07:12:18Z</time>
      </trkpt>
      <trkpt lat="48.66916" lon="-4.33006">
        <ele>5.3</ele>
        <time>2020-06-10T07:12:19Z</time>
      </trkpt>
      <trkpt lat="48.66915" lon="-4.33006">
        <ele>5.3</ele>
        <time>2020-06-10T07:12:20Z</time>
      </trkpt>
      <trkpt lat="48.66915" lon="-4.33006">
        <ele>5.3</ele>
        <time>2020-06-10T07:12:21Z</time>
      </trkpt>
      <trkpt lat="48.66915" lon="-4.33006">
        <ele>5.3</ele>
        <time>2020-06-10T07:12:22Z</time>
      </trkpt>
      <trkpt lat="48.66915" lon="-4.33006">
        <ele>5.3</ele>
        <time>2020-06-10T07:12:23Z</time>
      </trkpt>
      <trkpt lat="48.66915" lon="-4.33006">
        <ele>5.3</ele>
        <time>2020-06-10T07:12:24Z</time>
      </trkpt>
      <trkpt lat="48.66914" lon="-4.33007">
        <ele>5.3</ele>
        <time>2020-06-10T07:12:25Z</time>
      </trkpt>
      <trkpt lat="48.66912" lon="-4.33009">
        <ele>5.3</ele>
        <time>2020-06-10T07:12:26Z</time>
      </trkpt>
      <trkpt lat="48.66911" lon="-4.3301">
        <ele>5.3</ele>
        <time>2020-06-10T07:12:27Z</time>
      </trkpt>
      <trkpt lat="48.6691" lon="-4.3301">
        <ele>5.3</ele>
        <time>2020-06-10T07:12:28Z</time>
      </trkpt>
      <trkpt lat="48.66907" lon="-4.33011">
        <ele>5.2</ele>
        <time>2020-06-10T07:12:29Z</time>
      </trkpt>
      <trkpt lat="48.66906" lon="-4.33011">
        <ele>5.2</ele>
        <time>2020-06-10T07:12:30Z</time>
      </trkpt>
      <trkpt lat="48.66904" lon="-4.33012">
        <ele>5.2</ele>
        <time>2020-06-10T07:12:31Z</time>
      </trkpt>
      <trkpt lat="48.66902" lon="-4.33012">
        <ele>5.2</ele>
        <time>2020-06-10T07:12:32Z</time>
      </trkpt>
      <trkpt lat="48.669" lon="-4.33012">
        <ele>5.1</ele>
        <time>2020-06-10T07:12:33Z</time>
      </trkpt>
      <trkpt lat="48.66899" lon="-4.33011">
        <ele>5.1</ele>
        <time>2020-06-10T07:12:34Z</time>
      </trkpt>
      <trkpt lat="48.66896" lon="-4.33012">
        <ele>5.1</ele>
        <time>2020-06-10T07:12:35Z</time>
      </trkpt>
      <trkpt lat="48.66895" lon="-4.33013">
        <ele>5.1</ele>
        <time>2020-06-10T07:12:36Z</time>
      </trkpt>
      <trkpt lat="48.66892" lon="-4.33014">
        <ele>5</ele>
        <time>2020-06-10T07:12:37Z</time>
      </trkpt>
      <trkpt lat="48.66891" lon="-4.33015">
        <ele>5</ele>
        <time>2020-06-10T07:12:38Z</time>
      </trkpt>
      <trkpt lat="48.66888" lon="-4.33017">
        <ele>5</ele>
        <time>2020-06-10T07:12:39Z</time>
      </trkpt>
      <trkpt lat="48.66887" lon="-4.33018">
        <ele>5</ele>
        <time>2020-06-10T07:12:40Z</time>
      </trkpt>
      <trkpt lat="48.66883" lon="-4.33021">
        <ele>5</ele>
        <time>2020-06-10T07:12:41Z</time>
      </trkpt>
      <trkpt lat="48.66882" lon="-4.33022">
        <ele>5</ele>
        <time>2020-06-10T07:12:42Z</time>
      </trkpt>
      <trkpt lat="48.6688" lon="-4.33025">
        <ele>4.9</ele>
        <time>2020-06-10T07:12:43Z</time>
      </trkpt>
      <trkpt lat="48.66879" lon="-4.33025">
        <ele>4.9</ele>
        <time>2020-06-10T07:12:44Z</time>
      </trkpt>
      <trkpt lat="48.66877" lon="-4.33028">
        <ele>4.9</ele>
        <time>2020-06-10T07:12:45Z</time>
      </trkpt>
      <trkpt lat="48.66877" lon="-4.33029">
        <ele>4.9</ele>
        <time>2020-06-10T07:12:46Z</time>
      </trkpt>
      <trkpt lat="48.66876" lon="-4.33031">
        <ele>4.9</ele>
        <time>2020-06-10T07:12:47Z</time>
      </trkpt>
      <trkpt lat="48.66875" lon="-4.33032">
        <ele>4.9</ele>
        <time>2020-06-10T07:12:48Z</time>
      </trkpt>
      <trkpt lat="48.66875" lon="-4.33034">
        <ele>4.9</ele>
        <time>2020-06-10T07:12:49Z</time>
      </trkpt>
      <trkpt lat="48.66874" lon="-4.33035">
        <ele>4.9</ele>
        <time>2020-06-10T07:12:50Z</time>
      </trkpt>
      <trkpt lat="48.66873" lon="-4.33038">
        <ele>4.9</ele>
        <time>2020-06-10T07:12:51Z</time>
      </trkpt>
      <trkpt lat="48.66872" lon="-4.33038">
        <ele>4.9</ele>
        <time>2020-06-10T07:12:52Z</time>
      </trkpt>
      <trkpt lat="48.66871" lon="-4.33039">
        <ele>4.9</ele>
        <time>2020-06-10T07:12:53Z</time>
      </trkpt>
      <trkpt lat="48.6687" lon="-4.33041">
        <ele>4.9</ele>
        <time>2020-06-10T07:12:54Z</time>
      </trkpt>
      <trkpt lat="48.66869" lon="-4.33042">
        <ele>4.9</ele>
        <time>2020-06-10T07:12:55Z</time>
      </trkpt>
      <trkpt lat="48.66868" lon="-4.33044">
        <ele>4.9</ele>
        <time>2020-06-10T07:12:56Z</time>
      </trkpt>
      <trkpt lat="48.66867" lon="-4.33046">
        <ele>4.9</ele>
        <time>2020-06-10T07:12:57Z</time>
      </trkpt>
      <trkpt lat="48.66866" lon="-4.33047">
        <ele>4.9</ele>
        <time>2020-06-10T07:12:58Z</time>
      </trkpt>
      <trkpt lat="48.66865" lon="-4.33048">
        <ele>4.9</ele>
        <time>2020-06-10T07:12:59Z</time>
      </trkpt>
      <trkpt lat="48.66865" lon="-4.33048">
        <ele>4.9</ele>
        <time>2020-06-10T07:13:00Z</time>
      </trkpt>
      <trkpt lat="48.66865" lon="-4.33048">
        <ele>4.9</ele>
        <time>2020-06-10T07:13:01Z</time>
      </trkpt>
      <trkpt lat="48.66864" lon="-4.33049">
        <ele>4.8</ele>
        <time>2020-06-10T07:13:02Z</time>
      </trkpt>
      <trkpt lat="48.66863" lon="-4.33049">
        <ele>4.8</ele>
        <time>2020-06-10T07:13:03Z</time>
      </trkpt>
      <trkpt lat="48.66864" lon="-4.33049">
        <ele>4.8</ele>
        <time>2020-06-10T07:13:04Z</time>
      </trkpt>
      <trkpt lat="48.66864" lon="-4.33048">
        <ele>4.8</ele>
        <time>2020-06-10T07:13:05Z</time>
      </trkpt>
      <trkpt lat="48.66864" lon="-4.33048">
        <ele>4.8</ele>
        <time>2020-06-10T07:13:06Z</time>
      </trkpt>
      <trkpt lat="48.66864" lon="-4.33049">
        <ele>4.8</ele>
        <time>2020-06-10T07:13:07Z</time>
      </trkpt>
      <trkpt lat="48.66864" lon="-4.33049">
        <ele>4.8</ele>
        <time>2020-06-10T07:13:08Z</time>
      </trkpt>
      <trkpt lat="48.66864" lon="-4.33048">
        <ele>4.8</ele>
        <time>2020-06-10T07:13:09Z</time>
      </trkpt>
      <trkpt lat="48.66864" lon="-4.33048">
        <ele>4.8</ele>
        <time>2020-06-10T07:13:10Z</time>
      </trkpt>
      <trkpt lat="48.66863" lon="-4.33048">
        <ele>4.8</ele>
        <time>2020-06-10T07:13:11Z</time>
      </trkpt>
      <trkpt lat="48.66864" lon="-4.33047">
        <ele>4.8</ele>
        <time>2020-06-10T07:13:12Z</time>
      </trkpt>
      <trkpt lat="48.66863" lon="-4.33048">
        <ele>4.8</ele>
        <time>2020-06-10T07:13:13Z</time>
      </trkpt>
      <trkpt lat="48.66864" lon="-4.33046">
        <ele>4.8</ele>
        <time>2020-06-10T07:13:14Z</time>
      </trkpt>
      <trkpt lat="48.66866" lon="-4.33044">
        <ele>4.8</ele>
        <time>2020-06-10T07:13:15Z</time>
      </trkpt>
      <trkpt lat="48.66867" lon="-4.33043">
        <ele>4.8</ele>
        <time>2020-06-10T07:13:16Z</time>
      </trkpt>
      <trkpt lat="48.66867" lon="-4.33043">
        <ele>4.8</ele>
        <time>2020-06-10T07:13:17Z</time>
      </trkpt>
      <trkpt lat="48.66867" lon="-4.33044">
        <ele>4.8</ele>
        <time>2020-06-10T07:13:18Z</time>
      </trkpt>
      <trkpt lat="48.66867" lon="-4.33045">
        <ele>4.8</ele>
        <time>2020-06-10T07:13:19Z</time>
      </trkpt>
      <trkpt lat="48.66867" lon="-4.33045">
        <ele>4.8</ele>
        <time>2020-06-10T07:13:20Z</time>
      </trkpt>
      <trkpt lat="48.66868" lon="-4.33044">
        <ele>4.8</ele>
        <time>2020-06-10T07:13:21Z</time>
      </trkpt>
      <trkpt lat="48.66869" lon="-4.33044">
        <ele>4.8</ele>
        <time>2020-06-10T07:13:22Z</time>
      </trkpt>
      <trkpt lat="48.66869" lon="-4.33042">
        <ele>4.8</ele>
        <time>2020-06-10T07:13:23Z</time>
      </trkpt>
      <trkpt lat="48.6687" lon="-4.33041">
        <ele>4.8</ele>
        <time>2020-06-10T07:13:24Z</time>
      </trkpt>
      <trkpt lat="48.6687" lon="-4.33039">
        <ele>4.8</ele>
        <time>2020-06-10T07:13:25Z</time>
      </trkpt>
      <trkpt lat="48.66871" lon="-4.33037">
        <ele>4.8</ele>
        <time>2020-06-10T07:13:26Z</time>
      </trkpt>
      <trkpt lat="48.66872" lon="-4.33035">
        <ele>4.8</ele>
        <time>2020-06-10T07:13:27Z</time>
      </trkpt>
      <trkpt lat="48.66872" lon="-4.33032">
        <ele>4.8</ele>
        <time>2020-06-10T07:13:28Z</time>
      </trkpt>
      <trkpt lat="48.66873" lon="-4.33031">
        <ele>4.8</ele>
        <time>2020-06-10T07:13:29Z</time>
      </trkpt>
      <trkpt lat="48.66873" lon="-4.33029">
        <ele>4.8</ele>
        <time>2020-06-10T07:13:30Z</time>
      </trkpt>
      <trkpt lat="48.66874" lon="-4.33029">
        <ele>4.7</ele>
        <time>2020-06-10T07:13:31Z</time>
      </trkpt>
      <trkpt lat="48.66875" lon="-4.33028">
        <ele>4.7</ele>
        <time>2020-06-10T07:13:32Z</time>
      </trkpt>
      <trkpt lat="48.66876" lon="-4.33028">
        <ele>4.7</ele>
        <time>2020-06-10T07:13:33Z</time>
      </trkpt>
      <trkpt lat="48.66876" lon="-4.33028">
        <ele>4.7</ele>
        <time>2020-06-10T07:13:34Z</time>
      </trkpt>
      <trkpt lat="48.66876" lon="-4.33028">
        <ele>4.7</ele>
        <time>2020-06-10T07:13:35Z</time>
      </trkpt>
      <trkpt lat="48.66876" lon="-4.33027">
        <ele>4.7</ele>
        <time>2020-06-10T07:13:36Z</time>
      </trkpt>
      <trkpt lat="48.66876" lon="-4.33026">
        <ele>4.7</ele>
        <time>2020-06-10T07:13:37Z</time>
      </trkpt>
      <trkpt lat="48.66876" lon="-4.33026">
        <ele>4.7</ele>
        <time>2020-06-10T07:13:38Z</time>
      </trkpt>
      <trkpt lat="48.66876" lon="-4.33025">
        <ele>4.7</ele>
        <time>2020-06-10T07:13:39Z</time>
      </trkpt>
      <trkpt lat="48.66875" lon="-4.33023">
        <ele>4.7</ele>
        <time>2020-06-10T07:13:40Z</time>
      </trkpt>
      <trkpt lat="48.66874" lon="-4.33022">
        <ele>4.7</ele>
        <time>2020-06-10T07:13:41Z</time>
      </trkpt>
      <trkpt lat="48.66872" lon="-4.33022">
        <ele>4.7</ele>
        <time>2020-06-10T07:13:42Z</time>
      </trkpt>
      <trkpt lat="48.66872" lon="-4.33021">
        <ele>4.7</ele>
        <time>2020-06-10T07:13:43Z</time>
      </trkpt>
      <trkpt lat="48.66872" lon="-4.3302">
        <ele>4.7</ele>
        <time>2020-06-10T07:13:44Z</time>
      </trkpt>
      <trkpt lat="48.66871" lon="-4.3302">
        <ele>4.7</ele>
        <time>2020-06-10T07:13:45Z</time>
      </trkpt>
      <trkpt lat="48.66871" lon="-4.3302">
        <ele>4.7</ele>
        <time>2020-06-10T07:13:46Z</time>
      </trkpt>
      <trkpt lat="48.66872" lon="-4.33021">
        <ele>4.7</ele>
        <time>2020-06-10T07:13:47Z</time>
      </trkpt>
      <trkpt lat="48.66872" lon="-4.33022">
        <ele>4.7</ele>
        <time>2020-06-10T07:13:48Z</time>
      </trkpt>
      <trkpt lat="48.66872" lon="-4.33022">
        <ele>4.7</ele>
        <time>2020-06-10T07:13:49Z</time>
      </trkpt>
      <trkpt lat="48.66872" lon="-4.33022">
        <ele>4.7</ele>
        <time>2020-06-10T07:13:50Z</time>
      </trkpt>
      <trkpt lat="48.66871" lon="-4.3302">
        <ele>4.7</ele>
        <time>2020-06-10T07:13:51Z</time>
      </trkpt>
      <trkpt lat="48.66871" lon="-4.33018">
        <ele>4.7</ele>
        <time>2020-06-10T07:13:52Z</time>
      </trkpt>
      <trkpt lat="48.66871" lon="-4.33017">
        <ele>4.7</ele>
        <time>2020-06-10T07:13:53Z</time>
      </trkpt>
      <trkpt lat="48.66872" lon="-4.33015">
        <ele>4.7</ele>
        <time>2020-06-10T07:13:54Z</time>
      </trkpt>
      <trkpt lat="48.66871" lon="-4.33014">
        <ele>4.7</ele>
        <time>2020-06-10T07:13:55Z</time>
      </trkpt>
      <trkpt lat="48.66872" lon="-4.33014">
        <ele>4.7</ele>
        <time>2020-06-10T07:13:56Z</time>
      </trkpt>
      <trkpt lat="48.66872" lon="-4.33015">
        <ele>4.7</ele>
        <time>2020-06-10T07:13:57Z</time>
      </trkpt>
      <trkpt lat="48.66871" lon="-4.33015">
        <ele>4.7</ele>
        <time>2020-06-10T07:13:58Z</time>
      </trkpt>
      <trkpt lat="48.66871" lon="-4.33015">
        <ele>4.7</ele>
        <time>2020-06-10T07:13:59Z</time>
      </trkpt>
      <trkpt lat="48.6687" lon="-4.33014">
        <ele>4.7</ele>
        <time>2020-06-10T07:14:00Z</time>
      </trkpt>
      <trkpt lat="48.6687" lon="-4.33014">
        <ele>4.7</ele>
        <time>2020-06-10T07:14:01Z</time>
      </trkpt>
      <trkpt lat="48.6687" lon="-4.33014">
        <ele>4.7</ele>
        <time>2020-06-10T07:14:02Z</time>
      </trkpt>
      <trkpt lat="48.66869" lon="-4.33013">
        <ele>4.7</ele>
        <time>2020-06-10T07:14:03Z</time>
      </trkpt>
      <trkpt lat="48.66869" lon="-4.33013">
        <ele>4.6</ele>
        <time>2020-06-10T07:14:04Z</time>
      </trkpt>
      <trkpt lat="48.66869" lon="-4.33012">
        <ele>4.6</ele>
        <time>2020-06-10T07:14:05Z</time>
      </trkpt>
      <trkpt lat="48.66868" lon="-4.33012">
        <ele>4.6</ele>
        <time>2020-06-10T07:14:06Z</time>
      </trkpt>
      <trkpt lat="48.66868" lon="-4.33011">
        <ele>4.6</ele>
        <time>2020-06-10T07:14:07Z</time>
      </trkpt>
      <trkpt lat="48.66867" lon="-4.33011">
        <ele>4.6</ele>
        <time>2020-06-10T07:14:08Z</time>
      </trkpt>
      <trkpt lat="48.66867" lon="-4.33011">
        <ele>4.6</ele>
        <time>2020-06-10T07:14:09Z</time>
      </trkpt>
      <trkpt lat="48.66866" lon="-4.3301">
        <ele>4.6</ele>
        <time>2020-06-10T07:14:10Z</time>
      </trkpt>
      <trkpt lat="48.66865" lon="-4.3301">
        <ele>4.6</ele>
        <time>2020-06-10T07:14:11Z</time>
      </trkpt>
      <trkpt lat="48.66865" lon="-4.3301">
        <ele>4.6</ele>
        <time>2020-06-10T07:14:12Z</time>
      </trkpt>
      <trkpt lat="48.66864" lon="-4.3301">
        <ele>4.6</ele>
        <time>2020-06-10T07:14:13Z</time>
      </trkpt>
      <trkpt lat="48.66864" lon="-4.33009">
        <ele>4.6</ele>
        <time>2020-06-10T07:14:14Z</time>
      </trkpt>
      <trkpt lat="48.66863" lon="-4.33008">
        <ele>4.6</ele>
        <time>2020-06-10T07:14:15Z</time>
      </trkpt>
      <trkpt lat="48.66862" lon="-4.33008">
        <ele>4.6</ele>
        <time>2020-06-10T07:14:16Z</time>
      </trkpt>
      <trkpt lat="48.66861" lon="-4.33007">
        <ele>4.6</ele>
        <time>2020-06-10T07:14:17Z</time>
      </trkpt>
      <trkpt lat="48.6686" lon="-4.33007">
        <ele>4.6</ele>
        <time>2020-06-10T07:14:18Z</time>
      </trkpt>
      <trkpt lat="48.66859" lon="-4.33007">
        <ele>4.6</ele>
        <time>2020-06-10T07:14:19Z</time>
      </trkpt>
      <trkpt lat="48.66859" lon="-4.33007">
        <ele>4.6</ele>
        <time>2020-06-10T07:14:20Z</time>
      </trkpt>
      <trkpt lat="48.66859" lon="-4.33007">
        <ele>4.6</ele>
        <time>2020-06-10T07:14:21Z</time>
      </trkpt>
      <trkpt lat="48.66859" lon="-4.33007">
        <ele>4.6</ele>
        <time>2020-06-10T07:14:22Z</time>
      </trkpt>
      <trkpt lat="48.66858" lon="-4.33007">
        <ele>4.6</ele>
        <time>2020-06-10T07:14:23Z</time>
      </trkpt>
      <trkpt lat="48.66858" lon="-4.33007">
        <ele>4.6</ele>
        <time>2020-06-10T07:14:24Z</time>
      </trkpt>
      <trkpt lat="48.66858" lon="-4.33007">
        <ele>4.6</ele>
        <time>2020-06-10T07:14:25Z</time>
      </trkpt>
      <trkpt lat="48.66858" lon="-4.33006">
        <ele>4.6</ele>
        <time>2020-06-10T07:14:26Z</time>
      </trkpt>
      <trkpt lat="48.66858" lon="-4.33006">
        <ele>4.6</ele>
        <time>2020-06-10T07:14:27Z</time>
      </trkpt>
      <trkpt lat="48.66857" lon="-4.33006">
        <ele>4.6</ele>
        <time>2020-06-10T07:14:28Z</time>
      </trkpt>
      <trkpt lat="48.66857" lon="-4.33006">
        <ele>4.6</ele>
        <time>2020-06-10T07:14:29Z</time>
      </trkpt>
      <trkpt lat="48.66857" lon="-4.33006">
        <ele>4.6</ele>
        <time>2020-06-10T07:14:30Z</time>
      </trkpt>
      <trkpt lat="48.66857" lon="-4.33006">
        <ele>4.6</ele>
        <time>2020-06-10T07:14:31Z</time>
      </trkpt>
      <trkpt lat="48.66857" lon="-4.33006">
        <ele>4.6</ele>
        <time>2020-06-10T07:14:32Z</time>
      </trkpt>
      <trkpt lat="48.66856" lon="-4.33006">
        <ele>4.6</ele>
        <time>2020-06-10T07:14:33Z</time>
      </trkpt>
      <trkpt lat="48.66856" lon="-4.33006">
        <ele>4.6</ele>
        <time>2020-06-10T07:14:34Z</time>
      </trkpt>
      <trkpt lat="48.66855" lon="-4.33006">
        <ele>4.6</ele>
        <time>2020-06-10T07:14:35Z</time>
      </trkpt>
      <trkpt lat="48.66854" lon="-4.33006">
        <ele>4.6</ele>
        <time>2020-06-10T07:14:36Z</time>
      </trkpt>
      <trkpt lat="48.66854" lon="-4.33005">
        <ele>4.6</ele>
        <time>2020-06-10T07:14:37Z</time>
      </trkpt>
      <trkpt lat="48.66854" lon="-4.33005">
        <ele>4.6</ele>
        <time>2020-06-10T07:14:38Z</time>
      </trkpt>
      <trkpt lat="48.66854" lon="-4.33005">
        <ele>4.6</ele>
        <time>2020-06-10T07:14:39Z</time>
      </trkpt>
      <trkpt lat="48.66854" lon="-4.33005">
        <ele>4.6</ele>
        <time>2020-06-10T07:14:40Z</time>
      </trkpt>
      <trkpt lat="48.66854" lon="-4.33005">
        <ele>4.6</ele>
        <time>2020-06-10T07:14:41Z</time>
      </trkpt>
      <trkpt lat="48.66854" lon="-4.33004">
        <ele>4.6</ele>
        <time>2020-06-10T07:14:42Z</time>
      </trkpt>
      <trkpt lat="48.66855" lon="-4.33003">
        <ele>4.6</ele>
        <time>2020-06-10T07:14:43Z</time>
      </trkpt>
      <trkpt lat="48.66856" lon="-4.33002">
        <ele>4.6</ele>
        <time>2020-06-10T07:14:44Z</time>
      </trkpt>
      <trkpt lat="48.66857" lon="-4.33002">
        <ele>4.6</ele>
        <time>2020-06-10T07:14:45Z</time>
      </trkpt>
      <trkpt lat="48.66857" lon="-4.33001">
        <ele>4.6</ele>
        <time>2020-06-10T07:14:46Z</time>
      </trkpt>
      <trkpt lat="48.66858" lon="-4.33">
        <ele>4.6</ele>
        <time>2020-06-10T07:14:47Z</time>
      </trkpt>
      <trkpt lat="48.66859" lon="-4.32999">
        <ele>4.7</ele>
        <time>2020-06-10T07:14:48Z</time>
      </trkpt>
      <trkpt lat="48.66859" lon="-4.32999">
        <ele>4.7</ele>
        <time>2020-06-10T07:14:49Z</time>
      </trkpt>
      <trkpt lat="48.6686" lon="-4.32998">
        <ele>4.7</ele>
        <time>2020-06-10T07:14:50Z</time>
      </trkpt>
      <trkpt lat="48.66861" lon="-4.32997">
        <ele>4.7</ele>
        <time>2020-06-10T07:14:51Z</time>
      </trkpt>
      <trkpt lat="48.66861" lon="-4.32997">
        <ele>4.7</ele>
        <time>2020-06-10T07:14:52Z</time>
      </trkpt>
      <trkpt lat="48.66862" lon="-4.32996">
        <ele>4.7</ele>
        <time>2020-06-10T07:14:53Z</time>
      </trkpt>
      <trkpt lat="48.66863" lon="-4.32995">
        <ele>4.7</ele>
        <time>2020-06-10T07:14:54Z</time>
      </trkpt>
      <trkpt lat="48.66862" lon="-4.32996">
        <ele>4.7</ele>
        <time>2020-06-10T07:14:55Z</time>
      </trkpt>
      <trkpt lat="48.66862" lon="-4.32997">
        <ele>4.7</ele>
        <time>2020-06-10T07:14:56Z</time>
      </trkpt>
      <trkpt lat="48.66861" lon="-4.32998">
        <ele>4.7</ele>
        <time>2020-06-10T07:14:57Z</time>
      </trkpt>
      <trkpt lat="48.66866" lon="-4.32995">
        <ele>4.7</ele>
        <time>2020-06-10T07:14:58Z</time>
      </trkpt>
      <trkpt lat="48.66872" lon="-4.32991">
        <ele>4.7</ele>
        <time>2020-06-10T07:14:59Z</time>
      </trkpt>
      <trkpt lat="48.66873" lon="-4.32991">
        <ele>4.8</ele>
        <time>2020-06-10T07:15:00Z</time>
      </trkpt>
      <trkpt lat="48.66873" lon="-4.32991">
        <ele>4.8</ele>
        <time>2020-06-10T07:15:01Z</time>
      </trkpt>
      <trkpt lat="48.66873" lon="-4.32991">
        <ele>4.8</ele>
        <time>2020-06-10T07:15:02Z</time>
      </trkpt>
      <trkpt lat="48.66875" lon="-4.32993">
        <ele>4.8</ele>
        <time>2020-06-10T07:15:03Z</time>
      </trkpt>
      <trkpt lat="48.66876" lon="-4.32993">
        <ele>4.8</ele>
        <time>2020-06-10T07:15:04Z</time>
      </trkpt>
      <trkpt lat="48.66876" lon="-4.32994">
        <ele>4.8</ele>
        <time>2020-06-10T07:15:05Z</time>
      </trkpt>
      <trkpt lat="48.66876" lon="-4.32996">
        <ele>4.8</ele>
        <time>2020-06-10T07:15:06Z</time>
      </trkpt>
      <trkpt lat="48.66877" lon="-4.32997">
        <ele>4.8</ele>
        <time>2020-06-10T07:15:07Z</time>
      </trkpt>
      <trkpt lat="48.66877" lon="-4.32998">
        <ele>4.8</ele>
        <time>2020-06-10T07:15:08Z</time>
      </trkpt>
      <trkpt lat="48.66879" lon="-4.32999">
        <ele>4.8</ele>
        <time>2020-06-10T07:15:09Z</time>
      </trkpt>
      <trkpt lat="48.66879" lon="-4.33">
        <ele>4.8</ele>
        <time>2020-06-10T07:15:23Z</time>
      </trkpt>
      <trkpt lat="48.6688" lon="-4.33001">
        <ele>4.8</ele>
        <time>2020-06-10T07:15:24Z</time>
      </trkpt>
      <trkpt lat="48.66881" lon="-4.33003">
        <ele>4.8</ele>
        <time>2020-06-10T07:15:25Z</time>
      </trkpt>
      <trkpt lat="48.66881" lon="-4.33004">
        <ele>4.8</ele>
        <time>2020-06-10T07:15:26Z</time>
      </trkpt>
      <trkpt lat="48.66882" lon="-4.33006">
        <ele>4.8</ele>
        <time>2020-06-10T07:15:27Z</time>
      </trkpt>
      <trkpt lat="48.66882" lon="-4.33007">
        <ele>4.8</ele>
        <time>2020-06-10T07:15:28Z</time>
      </trkpt>
      <trkpt lat="48.66882" lon="-4.33008">
        <ele>4.8</ele>
        <time>2020-06-10T07:15:29Z</time>
      </trkpt>
      <trkpt lat="48.66881" lon="-4.33008">
        <ele>4.8</ele>
        <time>2020-06-10T07:15:30Z</time>
      </trkpt>
      <trkpt lat="48.66881" lon="-4.33008">
        <ele>4.8</ele>
        <time>2020-06-10T07:15:31Z</time>
      </trkpt>
      <trkpt lat="48.66882" lon="-4.33007">
        <ele>4.8</ele>
        <time>2020-06-10T07:15:32Z</time>
      </trkpt>
      <trkpt lat="48.66882" lon="-4.33007">
        <ele>4.8</ele>
        <time>2020-06-10T07:15:33Z</time>
      </trkpt>
      <trkpt lat="48.66882" lon="-4.33007">
        <ele>4.8</ele>
        <time>2020-06-10T07:15:34Z</time>
      </trkpt>
      <trkpt lat="48.66882" lon="-4.33008">
        <ele>4.8</ele>
        <time>2020-06-10T07:15:35Z</time>
      </trkpt>
      <trkpt lat="48.66882" lon="-4.33008">
        <ele>4.8</ele>
        <time>2020-06-10T07:15:36Z</time>
      </trkpt>
      <trkpt lat="48.66882" lon="-4.33008">
        <ele>4.8</ele>
        <time>2020-06-10T07:15:37Z</time>
      </trkpt>
      <trkpt lat="48.66882" lon="-4.33009">
        <ele>4.9</ele>
        <time>2020-06-10T07:15:38Z</time>
      </trkpt>
      <trkpt lat="48.66881" lon="-4.33009">
        <ele>4.9</ele>
        <time>2020-06-10T07:15:39Z</time>
      </trkpt>
      <trkpt lat="48.66881" lon="-4.3301">
        <ele>4.9</ele>
        <time>2020-06-10T07:15:40Z</time>
      </trkpt>
      <trkpt lat="48.6688" lon="-4.33012">
        <ele>5.1</ele>
        <time>2020-06-10T07:15:41Z</time>
      </trkpt>
      <trkpt lat="48.66879" lon="-4.33012">
        <ele>5.1</ele>
        <time>2020-06-10T07:15:42Z</time>
      </trkpt>
      <trkpt lat="48.66875" lon="-4.33016">
        <ele>4.7</ele>
        <time>2020-06-10T07:15:45Z</time>
      </trkpt>
      <trkpt lat="48.66874" lon="-4.33016">
        <ele>4.6</ele>
        <time>2020-06-10T07:15:46Z</time>
      </trkpt>
      <trkpt lat="48.66874" lon="-4.33017">
        <ele>4.6</ele>
        <time>2020-06-10T07:15:47Z</time>
      </trkpt>
      <trkpt lat="48.66873" lon="-4.33017">
        <ele>4.6</ele>
        <time>2020-06-10T07:15:48Z</time>
      </trkpt>
      <trkpt lat="48.66871" lon="-4.33018">
        <ele>4.1</ele>
        <time>2020-06-10T07:15:49Z</time>
      </trkpt>
      <trkpt lat="48.66871" lon="-4.33018">
        <ele>4.1</ele>
        <time>2020-06-10T07:15:50Z</time>
      </trkpt>
      <trkpt lat="48.6687" lon="-4.33018">
        <ele>4.1</ele>
        <time>2020-06-10T07:15:51Z</time>
      </trkpt>
      <trkpt lat="48.66869" lon="-4.33019">
        <ele>3.4</ele>
        <time>2020-06-10T07:15:52Z</time>
      </trkpt>
      <trkpt lat="48.66868" lon="-4.33019">
        <ele>3.4</ele>
        <time>2020-06-10T07:15:53Z</time>
      </trkpt>
      <trkpt lat="48.66867" lon="-4.3302">
        <ele>3.4</ele>
        <time>2020-06-10T07:15:54Z</time>
      </trkpt>
      <trkpt lat="48.66866" lon="-4.33021">
        <ele>3.9</ele>
        <time>2020-06-10T07:15:55Z</time>
      </trkpt>
      <trkpt lat="48.66865" lon="-4.33021">
        <ele>3.2</ele>
        <time>2020-06-10T07:15:56Z</time>
      </trkpt>
      <trkpt lat="48.66864" lon="-4.33022">
        <ele>3.2</ele>
        <time>2020-06-10T07:15:57Z</time>
      </trkpt>
      <trkpt lat="48.66863" lon="-4.33022">
        <ele>2.6</ele>
        <time>2020-06-10T07:15:58Z</time>
      </trkpt>
      <trkpt lat="48.66862" lon="-4.33023">
        <ele>2.6</ele>
        <time>2020-06-10T07:15:59Z</time>
      </trkpt>
      <trkpt lat="48.66861" lon="-4.33023">
        <ele>2.6</ele>
        <time>2020-06-10T07:16:00Z</time>
      </trkpt>
      <trkpt lat="48.6686" lon="-4.33024">
        <ele>2</ele>
        <time>2020-06-10T07:16:01Z</time>
      </trkpt>
      <trkpt lat="48.6686" lon="-4.33024">
        <ele>2</ele>
        <time>2020-06-10T07:16:02Z</time>
      </trkpt>
      <trkpt lat="48.66859" lon="-4.33024">
        <ele>2</ele>
        <time>2020-06-10T07:16:03Z</time>
      </trkpt>
      <trkpt lat="48.66859" lon="-4.33026">
        <ele>2.7</ele>
        <time>2020-06-10T07:16:04Z</time>
      </trkpt>
      <trkpt lat="48.66859" lon="-4.33027">
        <ele>2.6</ele>
        <time>2020-06-10T07:16:05Z</time>
      </trkpt>
      <trkpt lat="48.66858" lon="-4.33028">
        <ele>2.6</ele>
        <time>2020-06-10T07:16:06Z</time>
      </trkpt>
      <trkpt lat="48.66858" lon="-4.33028">
        <ele>2.6</ele>
        <time>2020-06-10T07:16:07Z</time>
      </trkpt>
      <trkpt lat="48.66857" lon="-4.33029">
        <ele>3</ele>
        <time>2020-06-10T07:16:08Z</time>
      </trkpt>
      <trkpt lat="48.66858" lon="-4.33029">
        <ele>3.3</ele>
        <time>2020-06-10T07:16:09Z</time>
      </trkpt>
      <trkpt lat="48.66859" lon="-4.33029">
        <ele>3.3</ele>
        <time>2020-06-10T07:16:10Z</time>
      </trkpt>
      <trkpt lat="48.6686" lon="-4.33029">
        <ele>3.3</ele>
        <time>2020-06-10T07:16:11Z</time>
      </trkpt>
      <trkpt lat="48.6686" lon="-4.33029">
        <ele>3.3</ele>
        <time>2020-06-10T07:16:12Z</time>
      </trkpt>
      <trkpt lat="48.66859" lon="-4.3303">
        <ele>3.3</ele>
        <time>2020-06-10T07:16:13Z</time>
      </trkpt>
      <trkpt lat="48.66858" lon="-4.33032">
        <ele>3.3</ele>
        <time>2020-06-10T07:16:14Z</time>
      </trkpt>
      <trkpt lat="48.66859" lon="-4.33032">
        <ele>3.3</ele>
        <time>2020-06-10T07:16:15Z</time>
      </trkpt>
      <trkpt lat="48.6686" lon="-4.33033">
        <ele>3.3</ele>
        <time>2020-06-10T07:16:16Z</time>
      </trkpt>
      <trkpt lat="48.6686" lon="-4.33034">
        <ele>3.9</ele>
        <time>2020-06-10T07:16:17Z</time>
      </trkpt>
      <trkpt lat="48.6686" lon="-4.33033">
        <ele>3.9</ele>
        <time>2020-06-10T07:16:18Z</time>
      </trkpt>
      <trkpt lat="48.66859" lon="-4.33033">
        <ele>3.9</ele>
        <time>2020-06-10T07:16:19Z</time>
      </trkpt>
      <trkpt lat="48.66858" lon="-4.33034">
        <ele>3.9</ele>
        <time>2020-06-10T07:16:20Z</time>
      </trkpt>
      <trkpt lat="48.66857" lon="-4.33034">
        <ele>3.7</ele>
        <time>2020-06-10T07:16:21Z</time>
      </trkpt>
      <trkpt lat="48.66857" lon="-4.33035">
        <ele>3.7</ele>
        <time>2020-06-10T07:16:33Z</time>
      </trkpt>
      <trkpt lat="48.66856" lon="-4.33035">
        <ele>3.7</ele>
        <time>2020-06-10T07:16:34Z</time>
      </trkpt>
      <trkpt lat="48.66854" lon="-4.33037">
        <ele>3.5</ele>
        <time>2020-06-10T07:16:35Z</time>
      </trkpt>
      <trkpt lat="48.66853" lon="-4.33037">
        <ele>3.5</ele>
        <time>2020-06-10T07:16:36Z</time>
      </trkpt>
      <trkpt lat="48.66852" lon="-4.33037">
        <ele>4.2</ele>
        <time>2020-06-10T07:16:37Z</time>
      </trkpt>
      <trkpt lat="48.66851" lon="-4.33038">
        <ele>4.1</ele>
        <time>2020-06-10T07:16:38Z</time>
      </trkpt>
      <trkpt lat="48.6685" lon="-4.33038">
        <ele>4.1</ele>
        <time>2020-06-10T07:16:39Z</time>
      </trkpt>
      <trkpt lat="48.6685" lon="-4.33038">
        <ele>4.1</ele>
        <time>2020-06-10T07:16:40Z</time>
      </trkpt>
      <trkpt lat="48.6685" lon="-4.33038">
        <ele>4.1</ele>
        <time>2020-06-10T07:16:41Z</time>
      </trkpt>
      <trkpt lat="48.66849" lon="-4.33039">
        <ele>4</ele>
        <time>2020-06-10T07:16:42Z</time>
      </trkpt>
      <trkpt lat="48.66849" lon="-4.33039">
        <ele>4</ele>
        <time>2020-06-10T07:16:43Z</time>
      </trkpt>
      <trkpt lat="48.66848" lon="-4.3304">
        <ele>4</ele>
        <time>2020-06-10T07:16:44Z</time>
      </trkpt>
      <trkpt lat="48.66848" lon="-4.3304">
        <ele>4</ele>
        <time>2020-06-10T07:16:45Z</time>
      </trkpt>
      <trkpt lat="48.66848" lon="-4.3304">
        <ele>4</ele>
        <time>2020-06-10T07:16:46Z</time>
      </trkpt>
      <trkpt lat="48.66848" lon="-4.3304">
        <ele>4</ele>
        <time>2020-06-10T07:16:47Z</time>
      </trkpt>
      <trkpt lat="48.66852" lon="-4.33041">
        <ele>4.2</ele>
        <time>2020-06-10T07:16:48Z</time>
      </trkpt>
      <trkpt lat="48.66852" lon="-4.33041">
        <ele>4.2</ele>
        <time>2020-06-10T07:16:49Z</time>
      </trkpt>
      <trkpt lat="48.66853" lon="-4.33042">
        <ele>4.6</ele>
        <time>2020-06-10T07:16:50Z</time>
      </trkpt>
      <trkpt lat="48.66853" lon="-4.33042">
        <ele>4.6</ele>
        <time>2020-06-10T07:16:51Z</time>
      </trkpt>
      <trkpt lat="48.66853" lon="-4.33042">
        <ele>4.2</ele>
        <time>2020-06-10T07:16:52Z</time>
      </trkpt>
      <trkpt lat="48.66853" lon="-4.33041">
        <ele>4.2</ele>
        <time>2020-06-10T07:16:53Z</time>
      </trkpt>
      <trkpt lat="48.66853" lon="-4.33042">
        <ele>4.1</ele>
        <time>2020-06-10T07:16:54Z</time>
      </trkpt>
      <trkpt lat="48.66853" lon="-4.33041">
        <ele>4.1</ele>
        <time>2020-06-10T07:16:55Z</time>
      </trkpt>
      <trkpt lat="48.66853" lon="-4.3304">
        <ele>4.1</ele>
        <time>2020-06-10T07:16:56Z</time>
      </trkpt>
      <trkpt lat="48.66854" lon="-4.33038">
        <ele>4.1</ele>
        <time>2020-06-10T07:16:57Z</time>
      </trkpt>
      <trkpt lat="48.66855" lon="-4.33037">
        <ele>3.5</ele>
        <time>2020-06-10T07:16:58Z</time>
      </trkpt>
      <trkpt lat="48.66855" lon="-4.33036">
        <ele>3.6</ele>
        <time>2020-06-10T07:16:59Z</time>
      </trkpt>
      <trkpt lat="48.66851" lon="-4.33036">
        <ele>3.3</ele>
        <time>2020-06-10T07:17:00Z</time>
      </trkpt>
      <trkpt lat="48.6685" lon="-4.33037">
        <ele>3.3</ele>
        <time>2020-06-10T07:17:01Z</time>
      </trkpt>
      <trkpt lat="48.6685" lon="-4.33037">
        <ele>3.3</ele>
        <time>2020-06-10T07:17:02Z</time>
      </trkpt>
      <trkpt lat="48.6685" lon="-4.33037">
        <ele>3.3</ele>
        <time>2020-06-10T07:17:03Z</time>
      </trkpt>
      <trkpt lat="48.66851" lon="-4.33037">
        <ele>3.3</ele>
        <time>2020-06-10T07:17:04Z</time>
      </trkpt>
      <trkpt lat="48.66852" lon="-4.33035">
        <ele>3.3</ele>
        <time>2020-06-10T07:17:05Z</time>
      </trkpt>
      <trkpt lat="48.66853" lon="-4.33035">
        <ele>3.5</ele>
        <time>2020-06-10T07:17:06Z</time>
      </trkpt>
      <trkpt lat="48.66854" lon="-4.33035">
        <ele>3.5</ele>
        <time>2020-06-10T07:17:07Z</time>
      </trkpt>
      <trkpt lat="48.66854" lon="-4.33035">
        <ele>3.5</ele>
        <time>2020-06-10T07:17:08Z</time>
      </trkpt>
      <trkpt lat="48.66854" lon="-4.33035">
        <ele>3.5</ele>
        <time>2020-06-10T07:17:09Z</time>
      </trkpt>
      <trkpt lat="48.66855" lon="-4.33035">
        <ele>3.6</ele>
        <time>2020-06-10T07:17:10Z</time>
      </trkpt>
      <trkpt lat="48.66856" lon="-4.33034">
        <ele>3.6</ele>
        <time>2020-06-10T07:17:11Z</time>
      </trkpt>
      <trkpt lat="48.66857" lon="-4.33034">
        <ele>3.6</ele>
        <time>2020-06-10T07:17:12Z</time>
      </trkpt>
      <trkpt lat="48.66858" lon="-4.33035">
        <ele>3.8</ele>
        <time>2020-06-10T07:17:13Z</time>
      </trkpt>
      <trkpt lat="48.66859" lon="-4.33035">
        <ele>3.8</ele>
        <time>2020-06-10T07:17:14Z</time>
      </trkpt>
      <trkpt lat="48.66859" lon="-4.33035">
        <ele>3.8</ele>
        <time>2020-06-10T07:17:15Z</time>
      </trkpt>
      <trkpt lat="48.6686" lon="-4.33035">
        <ele>3.8</ele>
        <time>2020-06-10T07:17:16Z</time>
      </trkpt>
      <trkpt lat="48.6686" lon="-4.33036">
        <ele>3.8</ele>
        <time>2020-06-10T07:17:17Z</time>
      </trkpt>
      <trkpt lat="48.66861" lon="-4.33036">
        <ele>4.1</ele>
        <time>2020-06-10T07:17:18Z</time>
      </trkpt>
      <trkpt lat="48.66861" lon="-4.33036">
        <ele>4.1</ele>
        <time>2020-06-10T07:17:19Z</time>
      </trkpt>
      <trkpt lat="48.66862" lon="-4.33036">
        <ele>4.1</ele>
        <time>2020-06-10T07:17:20Z</time>
      </trkpt>
      <trkpt lat="48.66862" lon="-4.33036">
        <ele>4.1</ele>
        <time>2020-06-10T07:17:21Z</time>
      </trkpt>
      <trkpt lat="48.66863" lon="-4.33037">
        <ele>4.1</ele>
        <time>2020-06-10T07:17:22Z</time>
      </trkpt>
      <trkpt lat="48.66864" lon="-4.33037">
        <ele>4.3</ele>
        <time>2020-06-10T07:17:23Z</time>
      </trkpt>
      <trkpt lat="48.66865" lon="-4.33038">
        <ele>4.5</ele>
        <time>2020-06-10T07:17:24Z</time>
      </trkpt>
      <trkpt lat="48.66866" lon="-4.33038">
        <ele>4.5</ele>
        <time>2020-06-10T07:17:25Z</time>
      </trkpt>
      <trkpt lat="48.66867" lon="-4.33038">
        <ele>4.7</ele>
        <time>2020-06-10T07:17:26Z</time>
      </trkpt>
      <trkpt lat="48.66867" lon="-4.33038">
        <ele>4.7</ele>
        <time>2020-06-10T07:17:27Z</time>
      </trkpt>
      <trkpt lat="48.66868" lon="-4.33038">
        <ele>4.7</ele>
        <time>2020-06-10T07:17:28Z</time>
      </trkpt>
      <trkpt lat="48.66869" lon="-4.33038">
        <ele>4.8</ele>
        <time>2020-06-10T07:17:29Z</time>
      </trkpt>
      <trkpt lat="48.6687" lon="-4.33038">
        <ele>4.8</ele>
        <time>2020-06-10T07:17:30Z</time>
      </trkpt>
      <trkpt lat="48.6687" lon="-4.33038">
        <ele>4.8</ele>
        <time>2020-06-10T07:17:31Z</time>
      </trkpt>
      <trkpt lat="48.66871" lon="-4.33038">
        <ele>4.8</ele>
        <time>2020-06-10T07:17:32Z</time>
      </trkpt>
      <trkpt lat="48.66871" lon="-4.33037">
        <ele>4.8</ele>
        <time>2020-06-10T07:17:33Z</time>
      </trkpt>
      <trkpt lat="48.66871" lon="-4.33037">
        <ele>4.8</ele>
        <time>2020-06-10T07:17:34Z</time>
      </trkpt>
      <trkpt lat="48.66871" lon="-4.33038">
        <ele>4.8</ele>
        <time>2020-06-10T07:17:35Z</time>
      </trkpt>
      <trkpt lat="48.66871" lon="-4.33038">
        <ele>4.8</ele>
        <time>2020-06-10T07:17:36Z</time>
      </trkpt>
      <trkpt lat="48.66871" lon="-4.33038">
        <ele>4.8</ele>
        <time>2020-06-10T07:17:37Z</time>
      </trkpt>
      <trkpt lat="48.66871" lon="-4.33038">
        <ele>4.8</ele>
        <time>2020-06-10T07:17:38Z</time>
      </trkpt>
      <trkpt lat="48.66871" lon="-4.33038">
        <ele>4.8</ele>
        <time>2020-06-10T07:17:39Z</time>
      </trkpt>
      <trkpt lat="48.6689" lon="-4.33014">
        <ele>5.5</ele>
        <time>2020-06-10T07:33:14Z</time>
      </trkpt>
      <trkpt lat="48.66889" lon="-4.33015">
        <ele>5.5</ele>
        <time>2020-06-10T07:33:15Z</time>
      </trkpt>
      <trkpt lat="48.66888" lon="-4.33017">
        <ele>5.7</ele>
        <time>2020-06-10T07:33:16Z</time>
      </trkpt>
      <trkpt lat="48.66886" lon="-4.33018">
        <ele>5.7</ele>
        <time>2020-06-10T07:33:17Z</time>
      </trkpt>
      <trkpt lat="48.66886" lon="-4.33019">
        <ele>5.7</ele>
        <time>2020-06-10T07:33:18Z</time>
      </trkpt>
      <trkpt lat="48.66885" lon="-4.3302">
        <ele>5.7</ele>
        <time>2020-06-10T07:33:19Z</time>
      </trkpt>
      <trkpt lat="48.66883" lon="-4.33021">
        <ele>5.7</ele>
        <time>2020-06-10T07:33:20Z</time>
      </trkpt>
      <trkpt lat="48.66882" lon="-4.33022">
        <ele>5.7</ele>
        <time>2020-06-10T07:33:21Z</time>
      </trkpt>
      <trkpt lat="48.66882" lon="-4.33023">
        <ele>5.7</ele>
        <time>2020-06-10T07:33:22Z</time>
      </trkpt>
      <trkpt lat="48.66879" lon="-4.33025">
        <ele>5.5</ele>
        <time>2020-06-10T07:33:23Z</time>
      </trkpt>
      <trkpt lat="48.66878" lon="-4.33025">
        <ele>5.5</ele>
        <time>2020-06-10T07:33:24Z</time>
      </trkpt>
      <trkpt lat="48.66877" lon="-4.33027">
        <ele>5.3</ele>
        <time>2020-06-10T07:33:25Z</time>
      </trkpt>
      <trkpt lat="48.66875" lon="-4.33028">
        <ele>5.3</ele>
        <time>2020-06-10T07:33:26Z</time>
      </trkpt>
      <trkpt lat="48.66873" lon="-4.33031">
        <ele>5</ele>
        <time>2020-06-10T07:33:27Z</time>
      </trkpt>
      <trkpt lat="48.66871" lon="-4.33032">
        <ele>4.7</ele>
        <time>2020-06-10T07:33:28Z</time>
      </trkpt>
      <trkpt lat="48.66868" lon="-4.33034">
        <ele>4.5</ele>
        <time>2020-06-10T07:33:29Z</time>
      </trkpt>
      <trkpt lat="48.66867" lon="-4.33035">
        <ele>4.5</ele>
        <time>2020-06-10T07:33:30Z</time>
      </trkpt>
      <trkpt lat="48.66864" lon="-4.33037">
        <ele>4.3</ele>
        <time>2020-06-10T07:33:31Z</time>
      </trkpt>
      <trkpt lat="48.66861" lon="-4.33038">
        <ele>4.4</ele>
        <time>2020-06-10T07:33:32Z</time>
      </trkpt>
      <trkpt lat="48.66857" lon="-4.3304">
        <ele>4.2</ele>
        <time>2020-06-10T07:33:33Z</time>
      </trkpt>
      <trkpt lat="48.66853" lon="-4.33041">
        <ele>4.1</ele>
        <time>2020-06-10T07:33:34Z</time>
      </trkpt>
      <trkpt lat="48.66849" lon="-4.33043">
        <ele>4.5</ele>
        <time>2020-06-10T07:33:35Z</time>
      </trkpt>
      <trkpt lat="48.66843" lon="-4.33045">
        <ele>4.4</ele>
        <time>2020-06-10T07:33:36Z</time>
      </trkpt>
      <trkpt lat="48.66838" lon="-4.33046">
        <ele>4.5</ele>
        <time>2020-06-10T07:33:37Z</time>
      </trkpt>
      <trkpt lat="48.66833" lon="-4.33049">
        <ele>4.2</ele>
        <time>2020-06-10T07:33:38Z</time>
      </trkpt>
      <trkpt lat="48.66827" lon="-4.33051">
        <ele>4.1</ele>
        <time>2020-06-10T07:33:39Z</time>
      </trkpt>
      <trkpt lat="48.66822" lon="-4.33053">
        <ele>3.9</ele>
        <time>2020-06-10T07:33:40Z</time>
      </trkpt>
      <trkpt lat="48.66819" lon="-4.33054">
        <ele>3.8</ele>
        <time>2020-06-10T07:33:41Z</time>
      </trkpt>
      <trkpt lat="48.66815" lon="-4.33055">
        <ele>3.8</ele>
        <time>2020-06-10T07:33:42Z</time>
      </trkpt>
      <trkpt lat="48.6681" lon="-4.33057">
        <ele>3.8</ele>
        <time>2020-06-10T07:33:43Z</time>
      </trkpt>
      <trkpt lat="48.66805" lon="-4.33059">
        <ele>3.9</ele>
        <time>2020-06-10T07:33:44Z</time>
      </trkpt>
      <trkpt lat="48.66801" lon="-4.33062">
        <ele>3.8</ele>
        <time>2020-06-10T07:33:45Z</time>
      </trkpt>
      <trkpt lat="48.66796" lon="-4.33066">
        <ele>3.9</ele>
        <time>2020-06-10T07:33:46Z</time>
      </trkpt>
      <trkpt lat="48.66792" lon="-4.33068">
        <ele>4</ele>
        <time>2020-06-10T07:33:47Z</time>
      </trkpt>
      <trkpt lat="48.66787" lon="-4.33071">
        <ele>4</ele>
        <time>2020-06-10T07:33:48Z</time>
      </trkpt>
      <trkpt lat="48.66782" lon="-4.33073">
        <ele>4</ele>
        <time>2020-06-10T07:33:49Z</time>
      </trkpt>
      <trkpt lat="48.66777" lon="-4.33076">
        <ele>4</ele>
        <time>2020-06-10T07:33:50Z</time>
      </trkpt>
      <trkpt lat="48.66773" lon="-4.33078">
        <ele>4</ele>
        <time>2020-06-10T07:33:51Z</time>
      </trkpt>
      <trkpt lat="48.6677" lon="-4.33077">
        <ele>4</ele>
        <time>2020-06-10T07:33:52Z</time>
      </trkpt>
      <trkpt lat="48.66768" lon="-4.33074">
        <ele>4</ele>
        <time>2020-06-10T07:33:53Z</time>
      </trkpt>
      <trkpt lat="48.66765" lon="-4.33072">
        <ele>3.9</ele>
        <time>2020-06-10T07:33:54Z</time>
      </trkpt>
      <trkpt lat="48.66765" lon="-4.33071">
        <ele>3.9</ele>
        <time>2020-06-10T07:33:55Z</time>
      </trkpt>
      <trkpt lat="48.66764" lon="-4.33069">
        <ele>3.9</ele>
        <time>2020-06-10T07:33:56Z</time>
      </trkpt>
      <trkpt lat="48.66763" lon="-4.33067">
        <ele>3.9</ele>
        <time>2020-06-10T07:33:57Z</time>
      </trkpt>
      <trkpt lat="48.66761" lon="-4.33064">
        <ele>3.9</ele>
        <time>2020-06-10T07:33:58Z</time>
      </trkpt>
      <trkpt lat="48.66761" lon="-4.33063">
        <ele>3.9</ele>
        <time>2020-06-10T07:33:59Z</time>
      </trkpt>
      <trkpt lat="48.6676" lon="-4.33063">
        <ele>3.9</ele>
        <time>2020-06-10T07:34:00Z</time>
      </trkpt>
      <trkpt lat="48.66759" lon="-4.33064">
        <ele>3.9</ele>
        <time>2020-06-10T07:34:01Z</time>
      </trkpt>
      <trkpt lat="48.66758" lon="-4.33065">
        <ele>3.9</ele>
        <time>2020-06-10T07:34:02Z</time>
      </trkpt>
      <trkpt lat="48.66757" lon="-4.33065">
        <ele>3.9</ele>
        <time>2020-06-10T07:34:03Z</time>
      </trkpt>
      <trkpt lat="48.66757" lon="-4.33065">
        <ele>3.9</ele>
        <time>2020-06-10T07:34:04Z</time>
      </trkpt>
      <trkpt lat="48.66757" lon="-4.33065">
        <ele>3.9</ele>
        <time>2020-06-10T07:34:05Z</time>
      </trkpt>
      <trkpt lat="48.66757" lon="-4.33065">
        <ele>3.9</ele>
        <time>2020-06-10T07:34:06Z</time>
      </trkpt>
      <trkpt lat="48.66756" lon="-4.33066">
        <ele>3.9</ele>
        <time>2020-06-10T07:34:07Z</time>
      </trkpt>
      <trkpt lat="48.66756" lon="-4.33066">
        <ele>3.9</ele>
        <time>2020-06-10T07:34:08Z</time>
      </trkpt>
      <trkpt lat="48.66756" lon="-4.33066">
        <ele>3.9</ele>
        <time>2020-06-10T07:34:09Z</time>
      </trkpt>
      <trkpt lat="48.66756" lon="-4.33066">
        <ele>3.9</ele>
        <time>2020-06-10T07:34:10Z</time>
      </trkpt>
      <trkpt lat="48.66755" lon="-4.33066">
        <ele>3.9</ele>
        <time>2020-06-10T07:34:11Z</time>
      </trkpt>
      <trkpt lat="48.66755" lon="-4.33067">
        <ele>3.9</ele>
        <time>2020-06-10T07:34:12Z</time>
      </trkpt>
      <trkpt lat="48.66755" lon="-4.33067">
        <ele>3.9</ele>
        <time>2020-06-10T07:34:13Z</time>
      </trkpt>
      <trkpt lat="48.66755" lon="-4.33067">
        <ele>3.9</ele>
        <time>2020-06-10T07:34:14Z</time>
      </trkpt>
      <trkpt lat="48.66755" lon="-4.33067">
        <ele>3.9</ele>
        <time>2020-06-10T07:34:15Z</time>
      </trkpt>
      <trkpt lat="48.66748" lon="-4.33072">
        <ele>3.9</ele>
        <time>2020-06-10T07:34:16Z</time>
      </trkpt>
      <trkpt lat="48.66751" lon="-4.33073">
        <ele>3.9</ele>
        <time>2020-06-10T07:34:17Z</time>
      </trkpt>
      <trkpt lat="48.66744" lon="-4.33077">
        <ele>3.9</ele>
        <time>2020-06-10T07:34:18Z</time>
      </trkpt>
      <trkpt lat="48.66747" lon="-4.33077">
        <ele>3.9</ele>
        <time>2020-06-10T07:34:19Z</time>
      </trkpt>
      <trkpt lat="48.66748" lon="-4.33077">
        <ele>3.9</ele>
        <time>2020-06-10T07:34:20Z</time>
      </trkpt>
      <trkpt lat="48.66754" lon="-4.33077">
        <ele>3.9</ele>
        <time>2020-06-10T07:34:21Z</time>
      </trkpt>
      <trkpt lat="48.66756" lon="-4.33077">
        <ele>3.9</ele>
        <time>2020-06-10T07:34:22Z</time>
      </trkpt>
      <trkpt lat="48.66762" lon="-4.33077">
        <ele>3.9</ele>
        <time>2020-06-10T07:34:23Z</time>
      </trkpt>
      <trkpt lat="48.66764" lon="-4.33078">
        <ele>3.9</ele>
        <time>2020-06-10T07:34:24Z</time>
      </trkpt>
      <trkpt lat="48.66766" lon="-4.33078">
        <ele>3.9</ele>
        <time>2020-06-10T07:34:25Z</time>
      </trkpt>
      <trkpt lat="48.66765" lon="-4.33078">
        <ele>3.9</ele>
        <time>2020-06-10T07:34:26Z</time>
      </trkpt>
      <trkpt lat="48.66765" lon="-4.33078">
        <ele>3.9</ele>
        <time>2020-06-10T07:34:27Z</time>
      </trkpt>
      <trkpt lat="48.66766" lon="-4.33078">
        <ele>3.9</ele>
        <time>2020-06-10T07:34:28Z</time>
      </trkpt>
      <trkpt lat="48.66768" lon="-4.33078">
        <ele>3.9</ele>
        <time>2020-06-10T07:34:29Z</time>
      </trkpt>
      <trkpt lat="48.66772" lon="-4.33077">
        <ele>3.9</ele>
        <time>2020-06-10T07:34:30Z</time>
      </trkpt>
      <trkpt lat="48.66773" lon="-4.33076">
        <ele>3.9</ele>
        <time>2020-06-10T07:34:31Z</time>
      </trkpt>
      <trkpt lat="48.66776" lon="-4.33073">
        <ele>3.9</ele>
        <time>2020-06-10T07:34:32Z</time>
      </trkpt>
      <trkpt lat="48.6678" lon="-4.33071">
        <ele>3.9</ele>
        <time>2020-06-10T07:34:33Z</time>
      </trkpt>
      <trkpt lat="48.66782" lon="-4.3307">
        <ele>3.9</ele>
        <time>2020-06-10T07:34:34Z</time>
      </trkpt>
      <trkpt lat="48.66786" lon="-4.33071">
        <ele>3.9</ele>
        <time>2020-06-10T07:34:35Z</time>
      </trkpt>
      <trkpt lat="48.66791" lon="-4.33069">
        <ele>3.9</ele>
        <time>2020-06-10T07:34:36Z</time>
      </trkpt>
      <trkpt lat="48.66796" lon="-4.33068">
        <ele>3.9</ele>
        <time>2020-06-10T07:34:37Z</time>
      </trkpt>
      <trkpt lat="48.66797" lon="-4.33068">
        <ele>3.9</ele>
        <time>2020-06-10T07:34:38Z</time>
      </trkpt>
      <trkpt lat="48.66798" lon="-4.33069">
        <ele>3.9</ele>
        <time>2020-06-10T07:34:39Z</time>
      </trkpt>
      <trkpt lat="48.66799" lon="-4.3307">
        <ele>3.9</ele>
        <time>2020-06-10T07:34:40Z</time>
      </trkpt>
      <trkpt lat="48.668" lon="-4.33071">
        <ele>3.9</ele>
        <time>2020-06-10T07:34:41Z</time>
      </trkpt>
      <trkpt lat="48.66801" lon="-4.33073">
        <ele>4</ele>
        <time>2020-06-10T07:34:42Z</time>
      </trkpt>
      <trkpt lat="48.66803" lon="-4.33074">
        <ele>4</ele>
        <time>2020-06-10T07:34:43Z</time>
      </trkpt>
      <trkpt lat="48.66803" lon="-4.33074">
        <ele>4</ele>
        <time>2020-06-10T07:34:44Z</time>
      </trkpt>
      <trkpt lat="48.66804" lon="-4.33076">
        <ele>4</ele>
        <time>2020-06-10T07:34:45Z</time>
      </trkpt>
      <trkpt lat="48.66805" lon="-4.33076">
        <ele>4</ele>
        <time>2020-06-10T07:34:46Z</time>
      </trkpt>
      <trkpt lat="48.66805" lon="-4.33077">
        <ele>4</ele>
        <time>2020-06-10T07:34:47Z</time>
      </trkpt>
      <trkpt lat="48.66805" lon="-4.33077">
        <ele>4</ele>
        <time>2020-06-10T07:34:48Z</time>
      </trkpt>
      <trkpt lat="48.66806" lon="-4.33077">
        <ele>4</ele>
        <time>2020-06-10T07:34:49Z</time>
      </trkpt>
      <trkpt lat="48.66807" lon="-4.33078">
        <ele>4.1</ele>
        <time>2020-06-10T07:34:50Z</time>
      </trkpt>
      <trkpt lat="48.66807" lon="-4.33078">
        <ele>4.1</ele>
        <time>2020-06-10T07:34:51Z</time>
      </trkpt>
      <trkpt lat="48.66809" lon="-4.33078">
        <ele>4.1</ele>
        <time>2020-06-10T07:34:52Z</time>
      </trkpt>
      <trkpt lat="48.66811" lon="-4.33077">
        <ele>4.1</ele>
        <time>2020-06-10T07:34:53Z</time>
      </trkpt>
      <trkpt lat="48.66812" lon="-4.33077">
        <ele>4.1</ele>
        <time>2020-06-10T07:34:54Z</time>
      </trkpt>
      <trkpt lat="48.66814" lon="-4.33077">
        <ele>4.1</ele>
        <time>2020-06-10T07:34:55Z</time>
      </trkpt>
      <trkpt lat="48.66814" lon="-4.33077">
        <ele>4.1</ele>
        <time>2020-06-10T07:34:56Z</time>
      </trkpt>
      <trkpt lat="48.66814" lon="-4.33076">
        <ele>4.1</ele>
        <time>2020-06-10T07:34:57Z</time>
      </trkpt>
      <trkpt lat="48.66814" lon="-4.33076">
        <ele>4.1</ele>
        <time>2020-06-10T07:34:58Z</time>
      </trkpt>
      <trkpt lat="48.66815" lon="-4.33076">
        <ele>4.1</ele>
        <time>2020-06-10T07:34:59Z</time>
      </trkpt>
      <trkpt lat="48.66816" lon="-4.33077">
        <ele>4.1</ele>
        <time>2020-06-10T07:35:00Z</time>
      </trkpt>
      <trkpt lat="48.66817" lon="-4.33078">
        <ele>4.1</ele>
        <time>2020-06-10T07:35:01Z</time>
      </trkpt>
      <trkpt lat="48.66817" lon="-4.33079">
        <ele>4.1</ele>
        <time>2020-06-10T07:35:02Z</time>
      </trkpt>
      <trkpt lat="48.66818" lon="-4.33079">
        <ele>4.1</ele>
        <time>2020-06-10T07:35:03Z</time>
      </trkpt>
      <trkpt lat="48.66818" lon="-4.33079">
        <ele>4.1</ele>
        <time>2020-06-10T07:35:04Z</time>
      </trkpt>
      <trkpt lat="48.66846" lon="-4.33064">
        <ele>4.6</ele>
        <time>2020-06-10T07:36:18Z</time>
      </trkpt>
      <trkpt lat="48.66847" lon="-4.33064">
        <ele>4.6</ele>
        <time>2020-06-10T07:36:19Z</time>
      </trkpt>
      <trkpt lat="48.66847" lon="-4.33064">
        <ele>4.6</ele>
        <time>2020-06-10T07:36:20Z</time>
      </trkpt>
      <trkpt lat="48.66847" lon="-4.33064">
        <ele>4.6</ele>
        <time>2020-06-10T07:36:21Z</time>
      </trkpt>
      <trkpt lat="48.66848" lon="-4.33065">
        <ele>4.6</ele>
        <time>2020-06-10T07:36:22Z</time>
      </trkpt>
      <trkpt lat="48.66848" lon="-4.33065">
        <ele>4.6</ele>
        <time>2020-06-10T07:36:23Z</time>
      </trkpt>
      <trkpt lat="48.66849" lon="-4.33065">
        <ele>4.6</ele>
        <time>2020-06-10T07:36:24Z</time>
      </trkpt>
      <trkpt lat="48.66849" lon="-4.33065">
        <ele>4.6</ele>
        <time>2020-06-10T07:36:25Z</time>
      </trkpt>
      <trkpt lat="48.66849" lon="-4.33064">
        <ele>4.7</ele>
        <time>2020-06-10T07:36:26Z</time>
      </trkpt>
      <trkpt lat="48.66849" lon="-4.33064">
        <ele>4.7</ele>
        <time>2020-06-10T07:36:27Z</time>
      </trkpt>
      <trkpt lat="48.6685" lon="-4.33064">
        <ele>4.7</ele>
        <time>2020-06-10T07:36:28Z</time>
      </trkpt>
      <trkpt lat="48.6685" lon="-4.33072">
        <ele>4.5</ele>
        <time>2020-06-10T07:36:35Z</time>
      </trkpt>
      <trkpt lat="48.6685" lon="-4.33073">
        <ele>4.5</ele>
        <time>2020-06-10T07:36:36Z</time>
      </trkpt>
      <trkpt lat="48.66851" lon="-4.33073">
        <ele>4.5</ele>
        <time>2020-06-10T07:36:37Z</time>
      </trkpt>
      <trkpt lat="48.66851" lon="-4.33073">
        <ele>4.5</ele>
        <time>2020-06-10T07:36:38Z</time>
      </trkpt>
      <trkpt lat="48.66851" lon="-4.33072">
        <ele>4.5</ele>
        <time>2020-06-10T07:36:39Z</time>
      </trkpt>
      <trkpt lat="48.66851" lon="-4.33073">
        <ele>4.5</ele>
        <time>2020-06-10T07:36:40Z</time>
      </trkpt>
      <trkpt lat="48.66851" lon="-4.33072">
        <ele>4.5</ele>
        <time>2020-06-10T07:36:41Z</time>
      </trkpt>
      <trkpt lat="48.66852" lon="-4.33072">
        <ele>4.5</ele>
        <time>2020-06-10T07:36:42Z</time>
      </trkpt>
      <trkpt lat="48.66851" lon="-4.33072">
        <ele>4.5</ele>
        <time>2020-06-10T07:36:43Z</time>
      </trkpt>
      <trkpt lat="48.66851" lon="-4.33072">
        <ele>4.5</ele>
        <time>2020-06-10T07:36:44Z</time>
      </trkpt>
      <trkpt lat="48.66851" lon="-4.33073">
        <ele>4.5</ele>
        <time>2020-06-10T07:36:45Z</time>
      </trkpt>
      <trkpt lat="48.66851" lon="-4.33074">
        <ele>4.5</ele>
        <time>2020-06-10T07:36:46Z</time>
      </trkpt>
      <trkpt lat="48.66851" lon="-4.33074">
        <ele>4.5</ele>
        <time>2020-06-10T07:36:47Z</time>
      </trkpt>
      <trkpt lat="48.66851" lon="-4.33073">
        <ele>4.5</ele>
        <time>2020-06-10T07:36:48Z</time>
      </trkpt>
      <trkpt lat="48.66851" lon="-4.33073">
        <ele>4.5</ele>
        <time>2020-06-10T07:36:49Z</time>
      </trkpt>
      <trkpt lat="48.66851" lon="-4.33072">
        <ele>4.5</ele>
        <time>2020-06-10T07:36:50Z</time>
      </trkpt>
      <trkpt lat="48.66851" lon="-4.33072">
        <ele>4.5</ele>
        <time>2020-06-10T07:36:51Z</time>
      </trkpt>
      <trkpt lat="48.66851" lon="-4.33071">
        <ele>4.5</ele>
        <time>2020-06-10T07:36:52Z</time>
      </trkpt>
      <trkpt lat="48.66851" lon="-4.33071">
        <ele>4.5</ele>
        <time>2020-06-10T07:36:53Z</time>
      </trkpt>
      <trkpt lat="48.6685" lon="-4.3307">
        <ele>4.5</ele>
        <time>2020-06-10T07:36:54Z</time>
      </trkpt>
      <trkpt lat="48.66851" lon="-4.33069">
        <ele>4.5</ele>
        <time>2020-06-10T07:36:55Z</time>
      </trkpt>
      <trkpt lat="48.66851" lon="-4.33069">
        <ele>4.5</ele>
        <time>2020-06-10T07:36:56Z</time>
      </trkpt>
      <trkpt lat="48.66851" lon="-4.33068">
        <ele>4.5</ele>
        <time>2020-06-10T07:36:57Z</time>
      </trkpt>
      <trkpt lat="48.66851" lon="-4.33067">
        <ele>4.6</ele>
        <time>2020-06-10T07:36:58Z</time>
      </trkpt>
      <trkpt lat="48.66852" lon="-4.33066">
        <ele>4.7</ele>
        <time>2020-06-10T07:36:59Z</time>
      </trkpt>
      <trkpt lat="48.66854" lon="-4.33064">
        <ele>4.7</ele>
        <time>2020-06-10T07:37:00Z</time>
      </trkpt>
      <trkpt lat="48.66854" lon="-4.33063">
        <ele>4.8</ele>
        <time>2020-06-10T07:37:01Z</time>
      </trkpt>
      <trkpt lat="48.66854" lon="-4.33062">
        <ele>4.8</ele>
        <time>2020-06-10T07:37:02Z</time>
      </trkpt>
      <trkpt lat="48.66854" lon="-4.3306">
        <ele>4.8</ele>
        <time>2020-06-10T07:37:03Z</time>
      </trkpt>
      <trkpt lat="48.66855" lon="-4.33058">
        <ele>4.8</ele>
        <time>2020-06-10T07:37:04Z</time>
      </trkpt>
      <trkpt lat="48.66855" lon="-4.33056">
        <ele>4.8</ele>
        <time>2020-06-10T07:37:05Z</time>
      </trkpt>
      <trkpt lat="48.66855" lon="-4.33052">
        <ele>4.8</ele>
        <time>2020-06-10T07:37:06Z</time>
      </trkpt>
      <trkpt lat="48.66855" lon="-4.33051">
        <ele>4.8</ele>
        <time>2020-06-10T07:37:07Z</time>
      </trkpt>
      <trkpt lat="48.66856" lon="-4.3305">
        <ele>4.7</ele>
        <time>2020-06-10T07:37:08Z</time>
      </trkpt>
      <trkpt lat="48.66856" lon="-4.33047">
        <ele>4.7</ele>
        <time>2020-06-10T07:37:09Z</time>
      </trkpt>
      <trkpt lat="48.66856" lon="-4.33046">
        <ele>4.7</ele>
        <time>2020-06-10T07:37:10Z</time>
      </trkpt>
      <trkpt lat="48.66856" lon="-4.33045">
        <ele>4.4</ele>
        <time>2020-06-10T07:37:11Z</time>
      </trkpt>
      <trkpt lat="48.66856" lon="-4.33044">
        <ele>4.4</ele>
        <time>2020-06-10T07:37:12Z</time>
      </trkpt>
      <trkpt lat="48.66856" lon="-4.33043">
        <ele>4.4</ele>
        <time>2020-06-10T07:37:13Z</time>
      </trkpt>
      <trkpt lat="48.66856" lon="-4.33042">
        <ele>4.4</ele>
        <time>2020-06-10T07:37:14Z</time>
      </trkpt>
      <trkpt lat="48.66856" lon="-4.33041">
        <ele>4</ele>
        <time>2020-06-10T07:37:15Z</time>
      </trkpt>
      <trkpt lat="48.66856" lon="-4.33038">
        <ele>4</ele>
        <time>2020-06-10T07:37:16Z</time>
      </trkpt>
      <trkpt lat="48.66856" lon="-4.33037">
        <ele>3.4</ele>
        <time>2020-06-10T07:37:17Z</time>
      </trkpt>
      <trkpt lat="48.66856" lon="-4.33036">
        <ele>3.4</ele>
        <time>2020-06-10T07:37:18Z</time>
      </trkpt>
      <trkpt lat="48.66857" lon="-4.33034">
        <ele>3.4</ele>
        <time>2020-06-10T07:37:19Z</time>
      </trkpt>
      <trkpt lat="48.66858" lon="-4.33033">
        <ele>3.6</ele>
        <time>2020-06-10T07:37:20Z</time>
      </trkpt>
      <trkpt lat="48.66859" lon="-4.33033">
        <ele>3</ele>
        <time>2020-06-10T07:37:21Z</time>
      </trkpt>
      <trkpt lat="48.6686" lon="-4.33033">
        <ele>3</ele>
        <time>2020-06-10T07:37:22Z</time>
      </trkpt>
      <trkpt lat="48.66861" lon="-4.33033">
        <ele>3.8</ele>
        <time>2020-06-10T07:37:23Z</time>
      </trkpt>
      <trkpt lat="48.66863" lon="-4.33035">
        <ele>4.1</ele>
        <time>2020-06-10T07:37:24Z</time>
      </trkpt>
      <trkpt lat="48.66865" lon="-4.33035">
        <ele>4.1</ele>
        <time>2020-06-10T07:37:25Z</time>
      </trkpt>
      <trkpt lat="48.66866" lon="-4.33035">
        <ele>4.3</ele>
        <time>2020-06-10T07:37:26Z</time>
      </trkpt>
      <trkpt lat="48.66868" lon="-4.33035">
        <ele>4.3</ele>
        <time>2020-06-10T07:37:27Z</time>
      </trkpt>
      <trkpt lat="48.66869" lon="-4.33035">
        <ele>4.5</ele>
        <time>2020-06-10T07:37:28Z</time>
      </trkpt>
      <trkpt lat="48.66872" lon="-4.33035">
        <ele>4.5</ele>
        <time>2020-06-10T07:37:29Z</time>
      </trkpt>
      <trkpt lat="48.66872" lon="-4.33035">
        <ele>4.7</ele>
        <time>2020-06-10T07:37:30Z</time>
      </trkpt>
      <trkpt lat="48.66873" lon="-4.33034">
        <ele>4.7</ele>
        <time>2020-06-10T07:37:31Z</time>
      </trkpt>
      <trkpt lat="48.66874" lon="-4.33034">
        <ele>4.7</ele>
        <time>2020-06-10T07:37:32Z</time>
      </trkpt>
      <trkpt lat="48.66875" lon="-4.33034">
        <ele>4.9</ele>
        <time>2020-06-10T07:37:33Z</time>
      </trkpt>
      <trkpt lat="48.66876" lon="-4.33034">
        <ele>4.9</ele>
        <time>2020-06-10T07:37:34Z</time>
      </trkpt>
      <trkpt lat="48.66877" lon="-4.33034">
        <ele>4.9</ele>
        <time>2020-06-10T07:37:35Z</time>
      </trkpt>
      <trkpt lat="48.66878" lon="-4.33034">
        <ele>5</ele>
        <time>2020-06-10T07:37:36Z</time>
      </trkpt>
      <trkpt lat="48.66878" lon="-4.33035">
        <ele>5</ele>
        <time>2020-06-10T07:37:37Z</time>
      </trkpt>
      <trkpt lat="48.66878" lon="-4.33036">
        <ele>5</ele>
        <time>2020-06-10T07:37:38Z</time>
      </trkpt>
      <trkpt lat="48.66878" lon="-4.33036">
        <ele>5</ele>
        <time>2020-06-10T07:37:39Z</time>
      </trkpt>
      <trkpt lat="48.66878" lon="-4.33037">
        <ele>5</ele>
        <time>2020-06-10T07:37:40Z</time>
      </trkpt>
      <trkpt lat="48.66879" lon="-4.33037">
        <ele>5</ele>
        <time>2020-06-10T07:37:41Z</time>
      </trkpt>
      <trkpt lat="48.66879" lon="-4.33037">
        <ele>5</ele>
        <time>2020-06-10T07:37:42Z</time>
      </trkpt>
      <trkpt lat="48.66879" lon="-4.33037">
        <ele>5</ele>
        <time>2020-06-10T07:37:43Z</time>
      </trkpt>
      <trkpt lat="48.66879" lon="-4.33036">
        <ele>5</ele>
        <time>2020-06-10T07:37:44Z</time>
      </trkpt>
      <trkpt lat="48.66879" lon="-4.33036">
        <ele>5</ele>
        <time>2020-06-10T07:37:45Z</time>
      </trkpt>
      <trkpt lat="48.66878" lon="-4.33036">
        <ele>5</ele>
        <time>2020-06-10T07:37:46Z</time>
      </trkpt>
      <trkpt lat="48.66878" lon="-4.33035">
        <ele>5</ele>
        <time>2020-06-10T07:37:47Z</time>
      </trkpt>
      <trkpt lat="48.66878" lon="-4.33035">
        <ele>5</ele>
        <time>2020-06-10T07:37:48Z</time>
      </trkpt>
      <trkpt lat="48.66878" lon="-4.33035">
        <ele>5</ele>
        <time>2020-06-10T07:37:49Z</time>
      </trkpt>
      <trkpt lat="48.66878" lon="-4.33034">
        <ele>5</ele>
        <time>2020-06-10T07:37:50Z</time>
      </trkpt>
      <trkpt lat="48.66878" lon="-4.33034">
        <ele>5</ele>
        <time>2020-06-10T07:37:51Z</time>
      </trkpt>
      <trkpt lat="48.66878" lon="-4.33034">
        <ele>5</ele>
        <time>2020-06-10T07:37:52Z</time>
      </trkpt>
      <trkpt lat="48.66878" lon="-4.33033">
        <ele>5</ele>
        <time>2020-06-10T07:37:53Z</time>
      </trkpt>
      <trkpt lat="48.66877" lon="-4.33033">
        <ele>5</ele>
        <time>2020-06-10T07:37:54Z</time>
      </trkpt>
      <trkpt lat="48.66877" lon="-4.33033">
        <ele>5</ele>
        <time>2020-06-10T07:37:55Z</time>
      </trkpt>
      <trkpt lat="48.66877" lon="-4.33032">
        <ele>5</ele>
        <time>2020-06-10T07:37:56Z</time>
      </trkpt>
      <trkpt lat="48.66877" lon="-4.33032">
        <ele>5</ele>
        <time>2020-06-10T07:37:57Z</time>
      </trkpt>
      <trkpt lat="48.66877" lon="-4.33032">
        <ele>5</ele>
        <time>2020-06-10T07:37:58Z</time>
      </trkpt>
      <trkpt lat="48.66877" lon="-4.33031">
        <ele>5</ele>
        <time>2020-06-10T07:37:59Z</time>
      </trkpt>
      <trkpt lat="48.66877" lon="-4.33031">
        <ele>5</ele>
        <time>2020-06-10T07:38:00Z</time>
      </trkpt>
      <trkpt lat="48.66877" lon="-4.3303">
        <ele>5</ele>
        <time>2020-06-10T07:38:01Z</time>
      </trkpt>
      <trkpt lat="48.66877" lon="-4.3303">
        <ele>5</ele>
        <time>2020-06-10T07:38:02Z</time>
      </trkpt>
      <trkpt lat="48.66877" lon="-4.33029">
        <ele>5</ele>
        <time>2020-06-10T07:38:03Z</time>
      </trkpt>
      <trkpt lat="48.66877" lon="-4.33029">
        <ele>5</ele>
        <time>2020-06-10T07:38:04Z</time>
      </trkpt>
      <trkpt lat="48.66878" lon="-4.33028">
        <ele>5.3</ele>
        <time>2020-06-10T07:38:05Z</time>
      </trkpt>
      <trkpt lat="48.66879" lon="-4.33028">
        <ele>5.3</ele>
        <time>2020-06-10T07:38:06Z</time>
      </trkpt>
      <trkpt lat="48.66879" lon="-4.33029">
        <ele>5.2</ele>
        <time>2020-06-10T07:38:07Z</time>
      </trkpt>
      <trkpt lat="48.6688" lon="-4.3303">
        <ele>5.2</ele>
        <time>2020-06-10T07:38:08Z</time>
      </trkpt>
      <trkpt lat="48.66881" lon="-4.3303">
        <ele>5.3</ele>
        <time>2020-06-10T07:38:09Z</time>
      </trkpt>
      <trkpt lat="48.66881" lon="-4.33031">
        <ele>5.3</ele>
        <time>2020-06-10T07:38:10Z</time>
      </trkpt>
      <trkpt lat="48.66881" lon="-4.33031">
        <ele>5.3</ele>
        <time>2020-06-10T07:38:11Z</time>
      </trkpt>
      <trkpt lat="48.66882" lon="-4.33031">
        <ele>5.3</ele>
        <time>2020-06-10T07:38:12Z</time>
      </trkpt>
      <trkpt lat="48.66882" lon="-4.33032">
        <ele>5.3</ele>
        <time>2020-06-10T07:38:13Z</time>
      </trkpt>
      <trkpt lat="48.66883" lon="-4.33032">
        <ele>5.3</ele>
        <time>2020-06-10T07:38:14Z</time>
      </trkpt>
      <trkpt lat="48.66885" lon="-4.33033">
        <ele>5.3</ele>
        <time>2020-06-10T07:38:15Z</time>
      </trkpt>
      <trkpt lat="48.66886" lon="-4.33033">
        <ele>5.3</ele>
        <time>2020-06-10T07:38:16Z</time>
      </trkpt>
      <trkpt lat="48.66887" lon="-4.33032">
        <ele>5.3</ele>
        <time>2020-06-10T07:38:17Z</time>
      </trkpt>
      <trkpt lat="48.66888" lon="-4.33032">
        <ele>5.3</ele>
        <time>2020-06-10T07:38:18Z</time>
      </trkpt>
      <trkpt lat="48.66888" lon="-4.33031">
        <ele>5.3</ele>
        <time>2020-06-10T07:38:19Z</time>
      </trkpt>
      <trkpt lat="48.66889" lon="-4.33031">
        <ele>5.3</ele>
        <time>2020-06-10T07:38:20Z</time>
      </trkpt>
      <trkpt lat="48.6689" lon="-4.33031">
        <ele>5.3</ele>
        <time>2020-06-10T07:38:21Z</time>
      </trkpt>
      <trkpt lat="48.6689" lon="-4.33031">
        <ele>5.3</ele>
        <time>2020-06-10T07:38:22Z</time>
      </trkpt>
      <trkpt lat="48.6689" lon="-4.33031">
        <ele>5.3</ele>
        <time>2020-06-10T07:38:23Z</time>
      </trkpt>
      <trkpt lat="48.6689" lon="-4.3303">
        <ele>5.3</ele>
        <time>2020-06-10T07:38:24Z</time>
      </trkpt>
      <trkpt lat="48.6689" lon="-4.33031">
        <ele>5.3</ele>
        <time>2020-06-10T07:38:25Z</time>
      </trkpt>
      <trkpt lat="48.66891" lon="-4.3303">
        <ele>5.3</ele>
        <time>2020-06-10T07:38:26Z</time>
      </trkpt>
      <trkpt lat="48.66891" lon="-4.3303">
        <ele>5.3</ele>
        <time>2020-06-10T07:38:27Z</time>
      </trkpt>
      <trkpt lat="48.66891" lon="-4.33031">
        <ele>5.3</ele>
        <time>2020-06-10T07:38:28Z</time>
      </trkpt>
      <trkpt lat="48.66892" lon="-4.33031">
        <ele>5.2</ele>
        <time>2020-06-10T07:38:29Z</time>
      </trkpt>
      <trkpt lat="48.66892" lon="-4.33031">
        <ele>5.2</ele>
        <time>2020-06-10T07:38:30Z</time>
      </trkpt>
      <trkpt lat="48.66893" lon="-4.3303">
        <ele>5.2</ele>
        <time>2020-06-10T07:38:31Z</time>
      </trkpt>
      <trkpt lat="48.66894" lon="-4.3303">
        <ele>5.2</ele>
        <time>2020-06-10T07:38:32Z</time>
      </trkpt>
      <trkpt lat="48.66895" lon="-4.33029">
        <ele>5.2</ele>
        <time>2020-06-10T07:38:33Z</time>
      </trkpt>
      <trkpt lat="48.66896" lon="-4.33029">
        <ele>5.2</ele>
        <time>2020-06-10T07:38:34Z</time>
      </trkpt>
      <trkpt lat="48.66898" lon="-4.33028">
        <ele>5.1</ele>
        <time>2020-06-10T07:38:35Z</time>
      </trkpt>
      <trkpt lat="48.66898" lon="-4.33027">
        <ele>5.1</ele>
        <time>2020-06-10T07:38:36Z</time>
      </trkpt>
      <trkpt lat="48.66899" lon="-4.33027">
        <ele>5.1</ele>
        <time>2020-06-10T07:38:37Z</time>
      </trkpt>
      <trkpt lat="48.669" lon="-4.33027">
        <ele>5.1</ele>
        <time>2020-06-10T07:38:38Z</time>
      </trkpt>
      <trkpt lat="48.66901" lon="-4.33026">
        <ele>5</ele>
        <time>2020-06-10T07:38:39Z</time>
      </trkpt>
      <trkpt lat="48.66901" lon="-4.33025">
        <ele>5</ele>
        <time>2020-06-10T07:38:40Z</time>
      </trkpt>
      <trkpt lat="48.66903" lon="-4.33024">
        <ele>5</ele>
        <time>2020-06-10T07:38:41Z</time>
      </trkpt>
      <trkpt lat="48.66903" lon="-4.33023">
        <ele>4.9</ele>
        <time>2020-06-10T07:38:42Z</time>
      </trkpt>
      <trkpt lat="48.66904" lon="-4.33021">
        <ele>4.9</ele>
        <time>2020-06-10T07:38:43Z</time>
      </trkpt>
      <trkpt lat="48.66905" lon="-4.33021">
        <ele>4.9</ele>
        <time>2020-06-10T07:38:44Z</time>
      </trkpt>
      <trkpt lat="48.66904" lon="-4.33021">
        <ele>4.9</ele>
        <time>2020-06-10T07:38:45Z</time>
      </trkpt>
      <trkpt lat="48.66905" lon="-4.33022">
        <ele>4.9</ele>
        <time>2020-06-10T07:38:46Z</time>
      </trkpt>
      <trkpt lat="48.66906" lon="-4.33022">
        <ele>4.9</ele>
        <time>2020-06-10T07:38:47Z</time>
      </trkpt>
      <trkpt lat="48.66906" lon="-4.33023">
        <ele>4.9</ele>
        <time>2020-06-10T07:38:48Z</time>
      </trkpt>
      <trkpt lat="48.66907" lon="-4.33023">
        <ele>4.9</ele>
        <time>2020-06-10T07:38:49Z</time>
      </trkpt>
      <trkpt lat="48.66907" lon="-4.33023">
        <ele>4.9</ele>
        <time>2020-06-10T07:38:50Z</time>
      </trkpt>
      <trkpt lat="48.66908" lon="-4.33023">
        <ele>4.9</ele>
        <time>2020-06-10T07:38:51Z</time>
      </trkpt>
      <trkpt lat="48.66908" lon="-4.33023">
        <ele>4.9</ele>
        <time>2020-06-10T07:38:52Z</time>
      </trkpt>
      <trkpt lat="48.66908" lon="-4.33022">
        <ele>4.9</ele>
        <time>2020-06-10T07:38:53Z</time>
      </trkpt>
      <trkpt lat="48.66909" lon="-4.33022">
        <ele>4.9</ele>
        <time>2020-06-10T07:38:54Z</time>
      </trkpt>
      <trkpt lat="48.6691" lon="-4.3302">
        <ele>4.9</ele>
        <time>2020-06-10T07:38:55Z</time>
      </trkpt>
      <trkpt lat="48.66911" lon="-4.33018">
        <ele>4.9</ele>
        <time>2020-06-10T07:38:56Z</time>
      </trkpt>
      <trkpt lat="48.66912" lon="-4.33016">
        <ele>5</ele>
        <time>2020-06-10T07:38:57Z</time>
      </trkpt>
      <trkpt lat="48.66912" lon="-4.33015">
        <ele>5</ele>
        <time>2020-06-10T07:38:58Z</time>
      </trkpt>
      <trkpt lat="48.66913" lon="-4.33014">
        <ele>5</ele>
        <time>2020-06-10T07:38:59Z</time>
      </trkpt>
      <trkpt lat="48.66914" lon="-4.33013">
        <ele>5</ele>
        <time>2020-06-10T07:39:00Z</time>
      </trkpt>
      <trkpt lat="48.66914" lon="-4.33012">
        <ele>5</ele>
        <time>2020-06-10T07:39:01Z</time>
      </trkpt>
      <trkpt lat="48.66915" lon="-4.3301">
        <ele>5.2</ele>
        <time>2020-06-10T07:39:02Z</time>
      </trkpt>
      <trkpt lat="48.66915" lon="-4.3301">
        <ele>5.2</ele>
        <time>2020-06-10T07:39:03Z</time>
      </trkpt>
      <trkpt lat="48.66916" lon="-4.3301">
        <ele>5.2</ele>
        <time>2020-06-10T07:39:04Z</time>
      </trkpt>
      <trkpt lat="48.66917" lon="-4.33009">
        <ele>5.2</ele>
        <time>2020-06-10T07:39:05Z</time>
      </trkpt>
      <trkpt lat="48.66917" lon="-4.33008">
        <ele>5.2</ele>
        <time>2020-06-10T07:39:06Z</time>
      </trkpt>
      <trkpt lat="48.66919" lon="-4.33006">
        <ele>5.2</ele>
        <time>2020-06-10T07:39:07Z</time>
      </trkpt>
      <trkpt lat="48.66919" lon="-4.33004">
        <ele>5.2</ele>
        <time>2020-06-10T07:39:08Z</time>
      </trkpt>
      <trkpt lat="48.6692" lon="-4.33003">
        <ele>5.2</ele>
        <time>2020-06-10T07:39:09Z</time>
      </trkpt>
      <trkpt lat="48.66922" lon="-4.33001">
        <ele>5.2</ele>
        <time>2020-06-10T07:39:10Z</time>
      </trkpt>
      <trkpt lat="48.66922" lon="-4.33">
        <ele>5.2</ele>
        <time>2020-06-10T07:39:11Z</time>
      </trkpt>
      <trkpt lat="48.66923" lon="-4.32998">
        <ele>5.2</ele>
        <time>2020-06-10T07:39:12Z</time>
      </trkpt>
      <trkpt lat="48.66923" lon="-4.32997">
        <ele>5.3</ele>
        <time>2020-06-10T07:39:13Z</time>
      </trkpt>
      <trkpt lat="48.66924" lon="-4.32996">
        <ele>5.3</ele>
        <time>2020-06-10T07:39:14Z</time>
      </trkpt>
      <trkpt lat="48.66924" lon="-4.32995">
        <ele>5.3</ele>
        <time>2020-06-10T07:39:15Z</time>
      </trkpt>
      <trkpt lat="48.66924" lon="-4.32995">
        <ele>5.3</ele>
        <time>2020-06-10T07:39:16Z</time>
      </trkpt>
      <trkpt lat="48.66924" lon="-4.32995">
        <ele>5.3</ele>
        <time>2020-06-10T07:39:17Z</time>
      </trkpt>
      <trkpt lat="48.66924" lon="-4.32995">
        <ele>5.3</ele>
        <time>2020-06-10T07:39:18Z</time>
      </trkpt>
      <trkpt lat="48.66924" lon="-4.32995">
        <ele>5.3</ele>
        <time>2020-06-10T07:39:19Z</time>
      </trkpt>
      <trkpt lat="48.66923" lon="-4.32996">
        <ele>5.3</ele>
        <time>2020-06-10T07:39:20Z</time>
      </trkpt>
      <trkpt lat="48.66922" lon="-4.32996">
        <ele>5.3</ele>
        <time>2020-06-10T07:39:21Z</time>
      </trkpt>
      <trkpt lat="48.66921" lon="-4.32996">
        <ele>5.3</ele>
        <time>2020-06-10T07:39:22Z</time>
      </trkpt>
      <trkpt lat="48.66921" lon="-4.32996">
        <ele>5.3</ele>
        <time>2020-06-10T07:39:23Z</time>
      </trkpt>
      <trkpt lat="48.6692" lon="-4.32997">
        <ele>5.3</ele>
        <time>2020-06-10T07:39:24Z</time>
      </trkpt>
      <trkpt lat="48.66919" lon="-4.32997">
        <ele>5.3</ele>
        <time>2020-06-10T07:39:25Z</time>
      </trkpt>
      <trkpt lat="48.66922" lon="-4.32997">
        <ele>5.3</ele>
        <time>2020-06-10T07:40:00Z</time>
      </trkpt>
      <trkpt lat="48.66923" lon="-4.32997">
        <ele>5.3</ele>
        <time>2020-06-10T07:40:01Z</time>
      </trkpt>
      <trkpt lat="48.66923" lon="-4.32999">
        <ele>5.3</ele>
        <time>2020-06-10T07:40:02Z</time>
      </trkpt>
      <trkpt lat="48.66923" lon="-4.32999">
        <ele>5.3</ele>
        <time>2020-06-10T07:40:03Z</time>
      </trkpt>
      <trkpt lat="48.66923" lon="-4.32999">
        <ele>5.3</ele>
        <time>2020-06-10T07:40:04Z</time>
      </trkpt>
      <trkpt lat="48.66923" lon="-4.32999">
        <ele>5.3</ele>
        <time>2020-06-10T07:40:05Z</time>
      </trkpt>
      <trkpt lat="48.66924" lon="-4.33">
        <ele>5.3</ele>
        <time>2020-06-10T07:40:06Z</time>
      </trkpt>
      <trkpt lat="48.66924" lon="-4.33">
        <ele>5.3</ele>
        <time>2020-06-10T07:40:07Z</time>
      </trkpt>
      <trkpt lat="48.66924" lon="-4.33">
        <ele>5.3</ele>
        <time>2020-06-10T07:40:08Z</time>
      </trkpt>
      <trkpt lat="48.66925" lon="-4.33">
        <ele>5.3</ele>
        <time>2020-06-10T07:40:09Z</time>
      </trkpt>
      <trkpt lat="48.66925" lon="-4.33001">
        <ele>5.3</ele>
        <time>2020-06-10T07:40:10Z</time>
      </trkpt>
      <trkpt lat="48.66925" lon="-4.33001">
        <ele>5.3</ele>
        <time>2020-06-10T07:40:11Z</time>
      </trkpt>
      <trkpt lat="48.66925" lon="-4.33001">
        <ele>5.3</ele>
        <time>2020-06-10T07:40:12Z</time>
      </trkpt>
      <trkpt lat="48.66926" lon="-4.33001">
        <ele>5.3</ele>
        <time>2020-06-10T07:40:13Z</time>
      </trkpt>
      <trkpt lat="48.66926" lon="-4.33002">
        <ele>5.3</ele>
        <time>2020-06-10T07:40:14Z</time>
      </trkpt>
      <trkpt lat="48.66926" lon="-4.33002">
        <ele>5.3</ele>
        <time>2020-06-10T07:40:15Z</time>
      </trkpt>
      <trkpt lat="48.66927" lon="-4.33002">
        <ele>5.3</ele>
        <time>2020-06-10T07:41:15Z</time>
      </trkpt>
      <trkpt lat="48.66927" lon="-4.33002">
        <ele>5.3</ele>
        <time>2020-06-10T07:41:16Z</time>
      </trkpt>
      <trkpt lat="48.66927" lon="-4.33003">
        <ele>5.3</ele>
        <time>2020-06-10T07:41:17Z</time>
      </trkpt>
      <trkpt lat="48.66927" lon="-4.33003">
        <ele>5.3</ele>
        <time>2020-06-10T07:41:18Z</time>
      </trkpt>
      <trkpt lat="48.66928" lon="-4.33003">
        <ele>5.3</ele>
        <time>2020-06-10T07:41:19Z</time>
      </trkpt>
      <trkpt lat="48.66928" lon="-4.33003">
        <ele>5.3</ele>
        <time>2020-06-10T07:41:20Z</time>
      </trkpt>
      <trkpt lat="48.66928" lon="-4.33004">
        <ele>5.3</ele>
        <time>2020-06-10T07:41:21Z</time>
      </trkpt>
      <trkpt lat="48.66929" lon="-4.33004">
        <ele>5.3</ele>
        <time>2020-06-10T07:41:22Z</time>
      </trkpt>
      <trkpt lat="48.66929" lon="-4.33004">
        <ele>5.3</ele>
        <time>2020-06-10T07:41:23Z</time>
      </trkpt>
      <trkpt lat="48.66929" lon="-4.33004">
        <ele>5.3</ele>
        <time>2020-06-10T07:41:24Z</time>
      </trkpt>
      <trkpt lat="48.66929" lon="-4.33005">
        <ele>5.3</ele>
        <time>2020-06-10T07:41:25Z</time>
      </trkpt>
      <trkpt lat="48.6693" lon="-4.33005">
        <ele>5.3</ele>
        <time>2020-06-10T07:41:26Z</time>
      </trkpt>
      <trkpt lat="48.6693" lon="-4.33005">
        <ele>5.3</ele>
        <time>2020-06-10T07:41:27Z</time>
      </trkpt>
      <trkpt lat="48.6693" lon="-4.33005">
        <ele>5.3</ele>
        <time>2020-06-10T07:41:59Z</time>
      </trkpt>
      <trkpt lat="48.66931" lon="-4.33006">
        <ele>5.3</ele>
        <time>2020-06-10T07:42:00Z</time>
      </trkpt>
      <trkpt lat="48.66931" lon="-4.33006">
        <ele>5.3</ele>
        <time>2020-06-10T07:42:01Z</time>
      </trkpt>
      <trkpt lat="48.66931" lon="-4.33008">
        <ele>5.3</ele>
        <time>2020-06-10T07:42:02Z</time>
      </trkpt>
      <trkpt lat="48.6693" lon="-4.33011">
        <ele>5.3</ele>
        <time>2020-06-10T07:42:03Z</time>
      </trkpt>
      <trkpt lat="48.6693" lon="-4.33013">
        <ele>5.3</ele>
        <time>2020-06-10T07:42:04Z</time>
      </trkpt>
      <trkpt lat="48.6693" lon="-4.33013">
        <ele>5.3</ele>
        <time>2020-06-10T07:42:05Z</time>
      </trkpt>
      <trkpt lat="48.6693" lon="-4.33012">
        <ele>5.3</ele>
        <time>2020-06-10T07:42:06Z</time>
      </trkpt>
      <trkpt lat="48.6693" lon="-4.33011">
        <ele>5.3</ele>
        <time>2020-06-10T07:42:07Z</time>
      </trkpt>
      <trkpt lat="48.6693" lon="-4.33012">
        <ele>5.3</ele>
        <time>2020-06-10T07:42:08Z</time>
      </trkpt>
      <trkpt lat="48.6693" lon="-4.3301">
        <ele>5.3</ele>
        <time>2020-06-10T07:42:09Z</time>
      </trkpt>
      <trkpt lat="48.6693" lon="-4.33009">
        <ele>5.3</ele>
        <time>2020-06-10T07:42:10Z</time>
      </trkpt>
      <trkpt lat="48.6693" lon="-4.33008">
        <ele>5.3</ele>
        <time>2020-06-10T07:42:11Z</time>
      </trkpt>
      <trkpt lat="48.6693" lon="-4.33007">
        <ele>5.3</ele>
        <time>2020-06-10T07:42:12Z</time>
      </trkpt>
      <trkpt lat="48.6693" lon="-4.33007">
        <ele>5.3</ele>
        <time>2020-06-10T07:42:13Z</time>
      </trkpt>
      <trkpt lat="48.6693" lon="-4.33007">
        <ele>5.3</ele>
        <time>2020-06-10T07:42:14Z</time>
      </trkpt>
      <trkpt lat="48.6693" lon="-4.33007">
        <ele>5.3</ele>
        <time>2020-06-10T07:42:15Z</time>
      </trkpt>
      <trkpt lat="48.6693" lon="-4.33007">
        <ele>5.3</ele>
        <time>2020-06-10T07:42:16Z</time>
      </trkpt>
      <trkpt lat="48.6693" lon="-4.33007">
        <ele>5.3</ele>
        <time>2020-06-10T07:42:17Z</time>
      </trkpt>
      <trkpt lat="48.66931" lon="-4.33012">
        <ele>5.3</ele>
        <time>2020-06-10T07:42:46Z</time>
      </trkpt>
      <trkpt lat="48.66932" lon="-4.33013">
        <ele>5.3</ele>
        <time>2020-06-10T07:42:47Z</time>
      </trkpt>
      <trkpt lat="48.66932" lon="-4.33014">
        <ele>5.3</ele>
        <time>2020-06-10T07:42:48Z</time>
      </trkpt>
      <trkpt lat="48.66932" lon="-4.33014">
        <ele>5.3</ele>
        <time>2020-06-10T07:42:49Z</time>
      </trkpt>
      <trkpt lat="48.66932" lon="-4.33014">
        <ele>5.3</ele>
        <time>2020-06-10T07:42:50Z</time>
      </trkpt>
      <trkpt lat="48.66931" lon="-4.33014">
        <ele>5.3</ele>
        <time>2020-06-10T07:42:51Z</time>
      </trkpt>
      <trkpt lat="48.66931" lon="-4.33014">
        <ele>5.3</ele>
        <time>2020-06-10T07:42:52Z</time>
      </trkpt>
      <trkpt lat="48.66931" lon="-4.33014">
        <ele>5.3</ele>
        <time>2020-06-10T07:42:53Z</time>
      </trkpt>
      <trkpt lat="48.66931" lon="-4.33014">
        <ele>5.3</ele>
        <time>2020-06-10T07:42:54Z</time>
      </trkpt>
      <trkpt lat="48.66931" lon="-4.33014">
        <ele>5.3</ele>
        <time>2020-06-10T07:42:55Z</time>
      </trkpt>
      <trkpt lat="48.66931" lon="-4.33014">
        <ele>5.3</ele>
        <time>2020-06-10T07:42:56Z</time>
      </trkpt>
      <trkpt lat="48.66931" lon="-4.33015">
        <ele>5.3</ele>
        <time>2020-06-10T07:42:57Z</time>
      </trkpt>
      <trkpt lat="48.66932" lon="-4.33015">
        <ele>5.3</ele>
        <time>2020-06-10T07:42:58Z</time>
      </trkpt>
      <trkpt lat="48.66932" lon="-4.33015">
        <ele>5.3</ele>
        <time>2020-06-10T07:42:59Z</time>
      </trkpt>
      <trkpt lat="48.66932" lon="-4.33015">
        <ele>5.3</ele>
        <time>2020-06-10T07:43:00Z</time>
      </trkpt>
      <trkpt lat="48.66932" lon="-4.33015">
        <ele>5.3</ele>
        <time>2020-06-10T07:43:01Z</time>
      </trkpt>
      <trkpt lat="48.66933" lon="-4.33015">
        <ele>5.3</ele>
        <time>2020-06-10T07:43:02Z</time>
      </trkpt>
      <trkpt lat="48.66934" lon="-4.33015">
        <ele>5.3</ele>
        <time>2020-06-10T07:43:03Z</time>
      </trkpt>
      <trkpt lat="48.66934" lon="-4.33015">
        <ele>5.3</ele>
        <time>2020-06-10T07:43:04Z</time>
      </trkpt>
      <trkpt lat="48.66934" lon="-4.33014">
        <ele>5.3</ele>
        <time>2020-06-10T07:43:05Z</time>
      </trkpt>
      <trkpt lat="48.66935" lon="-4.33014">
        <ele>5.3</ele>
        <time>2020-06-10T07:43:06Z</time>
      </trkpt>
      <trkpt lat="48.66935" lon="-4.33014">
        <ele>5.3</ele>
        <time>2020-06-10T07:43:07Z</time>
      </trkpt>
      <trkpt lat="48.66935" lon="-4.33013">
        <ele>5.3</ele>
        <time>2020-06-10T07:43:08Z</time>
      </trkpt>
      <trkpt lat="48.66935" lon="-4.33012">
        <ele>5.3</ele>
        <time>2020-06-10T07:43:09Z</time>
      </trkpt>
      <trkpt lat="48.66936" lon="-4.33012">
        <ele>5.3</ele>
        <time>2020-06-10T07:43:10Z</time>
      </trkpt>
      <trkpt lat="48.66938" lon="-4.33012">
        <ele>5.4</ele>
        <time>2020-06-10T07:43:11Z</time>
      </trkpt>
      <trkpt lat="48.66939" lon="-4.33012">
        <ele>5.4</ele>
        <time>2020-06-10T07:43:12Z</time>
      </trkpt>
      <trkpt lat="48.66939" lon="-4.33011">
        <ele>5.4</ele>
        <time>2020-06-10T07:43:13Z</time>
      </trkpt>
      <trkpt lat="48.66939" lon="-4.33011">
        <ele>5.4</ele>
        <time>2020-06-10T07:43:14Z</time>
      </trkpt>
      <trkpt lat="48.66939" lon="-4.3301">
        <ele>5.4</ele>
        <time>2020-06-10T07:43:15Z</time>
      </trkpt>
      <trkpt lat="48.66939" lon="-4.3301">
        <ele>5.4</ele>
        <time>2020-06-10T07:43:16Z</time>
      </trkpt>
      <trkpt lat="48.66939" lon="-4.3301">
        <ele>5.4</ele>
        <time>2020-06-10T07:43:17Z</time>
      </trkpt>
      <trkpt lat="48.6694" lon="-4.3301">
        <ele>5.4</ele>
        <time>2020-06-10T07:43:18Z</time>
      </trkpt>
      <trkpt lat="48.6694" lon="-4.33009">
        <ele>5.4</ele>
        <time>2020-06-10T07:43:19Z</time>
      </trkpt>
      <trkpt lat="48.66939" lon="-4.33009">
        <ele>5.4</ele>
        <time>2020-06-10T07:43:20Z</time>
      </trkpt>
      <trkpt lat="48.66939" lon="-4.33009">
        <ele>5.4</ele>
        <time>2020-06-10T07:43:21Z</time>
      </trkpt>
      <trkpt lat="48.66939" lon="-4.33009">
        <ele>5.4</ele>
        <time>2020-06-10T07:43:22Z</time>
      </trkpt>
      <trkpt lat="48.66939" lon="-4.33009">
        <ele>5.4</ele>
        <time>2020-06-10T07:43:23Z</time>
      </trkpt>
      <trkpt lat="48.66939" lon="-4.33009">
        <ele>5.4</ele>
        <time>2020-06-10T07:43:24Z</time>
      </trkpt>
      <trkpt lat="48.66939" lon="-4.33009">
        <ele>5.4</ele>
        <time>2020-06-10T07:43:25Z</time>
      </trkpt>
      <trkpt lat="48.66939" lon="-4.33009">
        <ele>5.4</ele>
        <time>2020-06-10T07:43:26Z</time>
      </trkpt>
      <trkpt lat="48.66938" lon="-4.33008">
        <ele>5.4</ele>
        <time>2020-06-10T07:43:27Z</time>
      </trkpt>
      <trkpt lat="48.66937" lon="-4.33008">
        <ele>5.4</ele>
        <time>2020-06-10T07:43:28Z</time>
      </trkpt>
      <trkpt lat="48.66937" lon="-4.33008">
        <ele>5.4</ele>
        <time>2020-06-10T07:43:29Z</time>
      </trkpt>
      <trkpt lat="48.66936" lon="-4.33008">
        <ele>5.4</ele>
        <time>2020-06-10T07:43:30Z</time>
      </trkpt>
      <trkpt lat="48.66709" lon="-4.329">
        <ele>5.5</ele>
        <time>2020-06-10T07:51:55Z</time>
      </trkpt>
      <trkpt lat="48.66707" lon="-4.32895">
        <ele>5.5</ele>
        <time>2020-06-10T07:51:56Z</time>
      </trkpt>
      <trkpt lat="48.66706" lon="-4.3289">
        <ele>5.5</ele>
        <time>2020-06-10T07:51:57Z</time>
      </trkpt>
      <trkpt lat="48.66704" lon="-4.32886">
        <ele>5.6</ele>
        <time>2020-06-10T07:51:58Z</time>
      </trkpt>
      <trkpt lat="48.66702" lon="-4.32882">
        <ele>5.6</ele>
        <time>2020-06-10T07:51:59Z</time>
      </trkpt>
      <trkpt lat="48.667" lon="-4.32878">
        <ele>5.6</ele>
        <time>2020-06-10T07:52:00Z</time>
      </trkpt>
      <trkpt lat="48.66698" lon="-4.32874">
        <ele>5.6</ele>
        <time>2020-06-10T07:52:01Z</time>
      </trkpt>
      <trkpt lat="48.66696" lon="-4.3287">
        <ele>5.7</ele>
        <time>2020-06-10T07:52:02Z</time>
      </trkpt>
      <trkpt lat="48.66694" lon="-4.32866">
        <ele>5.7</ele>
        <time>2020-06-10T07:52:03Z</time>
      </trkpt>
      <trkpt lat="48.66692" lon="-4.32861">
        <ele>5.7</ele>
        <time>2020-06-10T07:52:04Z</time>
      </trkpt>
      <trkpt lat="48.66689" lon="-4.32856">
        <ele>5.8</ele>
        <time>2020-06-10T07:52:05Z</time>
      </trkpt>
      <trkpt lat="48.66687" lon="-4.32851">
        <ele>5.8</ele>
        <time>2020-06-10T07:52:06Z</time>
      </trkpt>
      <trkpt lat="48.66686" lon="-4.32847">
        <ele>5.8</ele>
        <time>2020-06-10T07:52:07Z</time>
      </trkpt>
      <trkpt lat="48.66685" lon="-4.32843">
        <ele>5.8</ele>
        <time>2020-06-10T07:52:08Z</time>
      </trkpt>
      <trkpt lat="48.66683" lon="-4.3284">
        <ele>5.9</ele>
        <time>2020-06-10T07:52:09Z</time>
      </trkpt>
      <trkpt lat="48.66682" lon="-4.32836">
        <ele>5.9</ele>
        <time>2020-06-10T07:52:10Z</time>
      </trkpt>
      <trkpt lat="48.66681" lon="-4.32832">
        <ele>5.9</ele>
        <time>2020-06-10T07:52:11Z</time>
      </trkpt>
      <trkpt lat="48.6668" lon="-4.32827">
        <ele>5.9</ele>
        <time>2020-06-10T07:52:12Z</time>
      </trkpt>
      <trkpt lat="48.66678" lon="-4.32823">
        <ele>5.9</ele>
        <time>2020-06-10T07:52:13Z</time>
      </trkpt>
      <trkpt lat="48.66676" lon="-4.32819">
        <ele>5.9</ele>
        <time>2020-06-10T07:52:14Z</time>
      </trkpt>
      <trkpt lat="48.66674" lon="-4.32815">
        <ele>6</ele>
        <time>2020-06-10T07:52:15Z</time>
      </trkpt>
      <trkpt lat="48.66673" lon="-4.32813">
        <ele>6</ele>
        <time>2020-06-10T07:52:16Z</time>
      </trkpt>
      <trkpt lat="48.66671" lon="-4.32808">
        <ele>6</ele>
        <time>2020-06-10T07:52:17Z</time>
      </trkpt>
      <trkpt lat="48.6667" lon="-4.32807">
        <ele>6</ele>
        <time>2020-06-10T07:52:18Z</time>
      </trkpt>
      <trkpt lat="48.66668" lon="-4.32802">
        <ele>6</ele>
        <time>2020-06-10T07:52:19Z</time>
      </trkpt>
      <trkpt lat="48.66667" lon="-4.32801">
        <ele>6</ele>
        <time>2020-06-10T07:52:20Z</time>
      </trkpt>
      <trkpt lat="48.66665" lon="-4.32798">
        <ele>6.1</ele>
        <time>2020-06-10T07:52:21Z</time>
      </trkpt>
      <trkpt lat="48.66665" lon="-4.32796">
        <ele>6.1</ele>
        <time>2020-06-10T07:52:22Z</time>
      </trkpt>
      <trkpt lat="48.66664" lon="-4.32792">
        <ele>6.1</ele>
        <time>2020-06-10T07:52:23Z</time>
      </trkpt>
      <trkpt lat="48.66663" lon="-4.32786">
        <ele>6.1</ele>
        <time>2020-06-10T07:52:24Z</time>
      </trkpt>
      <trkpt lat="48.66663" lon="-4.32784">
        <ele>6.1</ele>
        <time>2020-06-10T07:52:25Z</time>
      </trkpt>
      <trkpt lat="48.66661" lon="-4.32779">
        <ele>6.1</ele>
        <time>2020-06-10T07:52:26Z</time>
      </trkpt>
      <trkpt lat="48.66659" lon="-4.32774">
        <ele>6.1</ele>
        <time>2020-06-10T07:52:27Z</time>
      </trkpt>
      <trkpt lat="48.66657" lon="-4.32771">
        <ele>6.1</ele>
        <time>2020-06-10T07:52:28Z</time>
      </trkpt>
      <trkpt lat="48.66654" lon="-4.32766">
        <ele>6.1</ele>
        <time>2020-06-10T07:52:29Z</time>
      </trkpt>
      <trkpt lat="48.66651" lon="-4.32762">
        <ele>6.1</ele>
        <time>2020-06-10T07:52:30Z</time>
      </trkpt>
      <trkpt lat="48.66648" lon="-4.32757">
        <ele>6.1</ele>
        <time>2020-06-10T07:52:31Z</time>
      </trkpt>
      <trkpt lat="48.66644" lon="-4.32752">
        <ele>6.3</ele>
        <time>2020-06-10T07:52:32Z</time>
      </trkpt>
      <trkpt lat="48.6664" lon="-4.32748">
        <ele>6.4</ele>
        <time>2020-06-10T07:52:33Z</time>
      </trkpt>
      <trkpt lat="48.66636" lon="-4.32745">
        <ele>6.6</ele>
        <time>2020-06-10T07:52:34Z</time>
      </trkpt>
      <trkpt lat="48.66632" lon="-4.32741">
        <ele>6.7</ele>
        <time>2020-06-10T07:52:35Z</time>
      </trkpt>
      <trkpt lat="48.66628" lon="-4.32738">
        <ele>6.9</ele>
        <time>2020-06-10T07:52:36Z</time>
      </trkpt>
      <trkpt lat="48.66623" lon="-4.32737">
        <ele>7.1</ele>
        <time>2020-06-10T07:52:37Z</time>
      </trkpt>
      <trkpt lat="48.66619" lon="-4.32736">
        <ele>7.2</ele>
        <time>2020-06-10T07:52:38Z</time>
      </trkpt>
      <trkpt lat="48.66616" lon="-4.32735">
        <ele>7.4</ele>
        <time>2020-06-10T07:52:39Z</time>
      </trkpt>
      <trkpt lat="48.66612" lon="-4.32735">
        <ele>7.5</ele>
        <time>2020-06-10T07:52:40Z</time>
      </trkpt>
      <trkpt lat="48.66611" lon="-4.32735">
        <ele>7.6</ele>
        <time>2020-06-10T07:52:41Z</time>
      </trkpt>
      <trkpt lat="48.66608" lon="-4.32734">
        <ele>7.7</ele>
        <time>2020-06-10T07:52:42Z</time>
      </trkpt>
      <trkpt lat="48.66605" lon="-4.32731">
        <ele>7.9</ele>
        <time>2020-06-10T07:52:43Z</time>
      </trkpt>
      <trkpt lat="48.66603" lon="-4.3273">
        <ele>8</ele>
        <time>2020-06-10T07:52:44Z</time>
      </trkpt>
      <trkpt lat="48.666" lon="-4.32729">
        <ele>8.1</ele>
        <time>2020-06-10T07:52:45Z</time>
      </trkpt>
      <trkpt lat="48.66597" lon="-4.32727">
        <ele>8.3</ele>
        <time>2020-06-10T07:52:46Z</time>
      </trkpt>
      <trkpt lat="48.66593" lon="-4.32726">
        <ele>8.5</ele>
        <time>2020-06-10T07:52:47Z</time>
      </trkpt>
      <trkpt lat="48.66589" lon="-4.32724">
        <ele>8.7</ele>
        <time>2020-06-10T07:52:48Z</time>
      </trkpt>
      <trkpt lat="48.66585" lon="-4.32723">
        <ele>8.9</ele>
        <time>2020-06-10T07:52:49Z</time>
      </trkpt>
      <trkpt lat="48.66582" lon="-4.32722">
        <ele>9</ele>
        <time>2020-06-10T07:52:50Z</time>
      </trkpt>
      <trkpt lat="48.66579" lon="-4.32722">
        <ele>9.2</ele>
        <time>2020-06-10T07:52:51Z</time>
      </trkpt>
      <trkpt lat="48.66576" lon="-4.32721">
        <ele>9.3</ele>
        <time>2020-06-10T07:52:52Z</time>
      </trkpt>
      <trkpt lat="48.66572" lon="-4.32719">
        <ele>9.5</ele>
        <time>2020-06-10T07:52:53Z</time>
      </trkpt>
      <trkpt lat="48.66571" lon="-4.32718">
        <ele>9.6</ele>
        <time>2020-06-10T07:52:54Z</time>
      </trkpt>
      <trkpt lat="48.66568" lon="-4.32716">
        <ele>9.8</ele>
        <time>2020-06-10T07:52:55Z</time>
      </trkpt>
      <trkpt lat="48.66565" lon="-4.32715">
        <ele>10</ele>
        <time>2020-06-10T07:52:56Z</time>
      </trkpt>
      <trkpt lat="48.66561" lon="-4.32715">
        <ele>10.2</ele>
        <time>2020-06-10T07:52:57Z</time>
      </trkpt>
      <trkpt lat="48.66558" lon="-4.32713">
        <ele>10.3</ele>
        <time>2020-06-10T07:52:58Z</time>
      </trkpt>
      <trkpt lat="48.66555" lon="-4.32712">
        <ele>10.5</ele>
        <time>2020-06-10T07:52:59Z</time>
      </trkpt>
      <trkpt lat="48.66552" lon="-4.32712">
        <ele>10.6</ele>
        <time>2020-06-10T07:53:00Z</time>
      </trkpt>
      <trkpt lat="48.66549" lon="-4.3271">
        <ele>10.8</ele>
        <time>2020-06-10T07:53:01Z</time>
      </trkpt>
      <trkpt lat="48.66547" lon="-4.3271">
        <ele>10.9</ele>
        <time>2020-06-10T07:53:02Z</time>
      </trkpt>
      <trkpt lat="48.66545" lon="-4.32706">
        <ele>11.1</ele>
        <time>2020-06-10T07:53:03Z</time>
      </trkpt>
      <trkpt lat="48.66542" lon="-4.32705">
        <ele>11.3</ele>
        <time>2020-06-10T07:53:04Z</time>
      </trkpt>
      <trkpt lat="48.66541" lon="-4.32704">
        <ele>11.4</ele>
        <time>2020-06-10T07:53:05Z</time>
      </trkpt>
      <trkpt lat="48.66537" lon="-4.32701">
        <ele>11.6</ele>
        <time>2020-06-10T07:53:06Z</time>
      </trkpt>
      <trkpt lat="48.66535" lon="-4.32699">
        <ele>11.8</ele>
        <time>2020-06-10T07:53:07Z</time>
      </trkpt>
      <trkpt lat="48.66532" lon="-4.32696">
        <ele>12</ele>
        <time>2020-06-10T07:53:08Z</time>
      </trkpt>
      <trkpt lat="48.66529" lon="-4.32694">
        <ele>12.3</ele>
        <time>2020-06-10T07:53:09Z</time>
      </trkpt>
      <trkpt lat="48.66526" lon="-4.32691">
        <ele>12.5</ele>
        <time>2020-06-10T07:53:10Z</time>
      </trkpt>
      <trkpt lat="48.66522" lon="-4.32689">
        <ele>12.8</ele>
        <time>2020-06-10T07:53:11Z</time>
      </trkpt>
      <trkpt lat="48.66519" lon="-4.32687">
        <ele>13</ele>
        <time>2020-06-10T07:53:12Z</time>
      </trkpt>
      <trkpt lat="48.66516" lon="-4.32684">
        <ele>13.2</ele>
        <time>2020-06-10T07:53:13Z</time>
      </trkpt>
      <trkpt lat="48.66514" lon="-4.32681">
        <ele>13.4</ele>
        <time>2020-06-10T07:53:14Z</time>
      </trkpt>
      <trkpt lat="48.66511" lon="-4.32678">
        <ele>13.6</ele>
        <time>2020-06-10T07:53:15Z</time>
      </trkpt>
      <trkpt lat="48.66509" lon="-4.32674">
        <ele>13.8</ele>
        <time>2020-06-10T07:53:16Z</time>
      </trkpt>
      <trkpt lat="48.66506" lon="-4.32671">
        <ele>14</ele>
        <time>2020-06-10T07:53:17Z</time>
      </trkpt>
      <trkpt lat="48.66502" lon="-4.32669">
        <ele>14.2</ele>
        <time>2020-06-10T07:53:18Z</time>
      </trkpt>
      <trkpt lat="48.66501" lon="-4.32669">
        <ele>14.3</ele>
        <time>2020-06-10T07:53:19Z</time>
      </trkpt>
      <trkpt lat="48.66497" lon="-4.32667">
        <ele>14.5</ele>
        <time>2020-06-10T07:53:20Z</time>
      </trkpt>
      <trkpt lat="48.66494" lon="-4.32666">
        <ele>14.6</ele>
        <time>2020-06-10T07:53:21Z</time>
      </trkpt>
      <trkpt lat="48.6649" lon="-4.32664">
        <ele>14.8</ele>
        <time>2020-06-10T07:53:22Z</time>
      </trkpt>
      <trkpt lat="48.66487" lon="-4.32663">
        <ele>14.9</ele>
        <time>2020-06-10T07:53:23Z</time>
      </trkpt>
      <trkpt lat="48.66484" lon="-4.32661">
        <ele>15.1</ele>
        <time>2020-06-10T07:53:24Z</time>
      </trkpt>
      <trkpt lat="48.66482" lon="-4.3266">
        <ele>15.2</ele>
        <time>2020-06-10T07:53:25Z</time>
      </trkpt>
      <trkpt lat="48.66479" lon="-4.32658">
        <ele>15.3</ele>
        <time>2020-06-10T07:53:26Z</time>
      </trkpt>
      <trkpt lat="48.66476" lon="-4.32657">
        <ele>15.4</ele>
        <time>2020-06-10T07:53:27Z</time>
      </trkpt>
      <trkpt lat="48.66473" lon="-4.32656">
        <ele>15.6</ele>
        <time>2020-06-10T07:53:28Z</time>
      </trkpt>
      <trkpt lat="48.6647" lon="-4.32654">
        <ele>15.6</ele>
        <time>2020-06-10T07:53:29Z</time>
      </trkpt>
      <trkpt lat="48.66467" lon="-4.32654">
        <ele>15.7</ele>
        <time>2020-06-10T07:53:30Z</time>
      </trkpt>
      <trkpt lat="48.66463" lon="-4.32655">
        <ele>15.8</ele>
        <time>2020-06-10T07:53:31Z</time>
      </trkpt>
      <trkpt lat="48.6646" lon="-4.32655">
        <ele>15.9</ele>
        <time>2020-06-10T07:53:32Z</time>
      </trkpt>
      <trkpt lat="48.66457" lon="-4.32657">
        <ele>15.9</ele>
        <time>2020-06-10T07:53:33Z</time>
      </trkpt>
      <trkpt lat="48.66453" lon="-4.32658">
        <ele>16</ele>
        <time>2020-06-10T07:53:34Z</time>
      </trkpt>
      <trkpt lat="48.66452" lon="-4.32658">
        <ele>16</ele>
        <time>2020-06-10T07:53:35Z</time>
      </trkpt>
      <trkpt lat="48.66449" lon="-4.32659">
        <ele>16.1</ele>
        <time>2020-06-10T07:53:36Z</time>
      </trkpt>
      <trkpt lat="48.66448" lon="-4.32659">
        <ele>16.2</ele>
        <time>2020-06-10T07:53:37Z</time>
      </trkpt>
      <trkpt lat="48.66444" lon="-4.32659">
        <ele>16.2</ele>
        <time>2020-06-10T07:53:38Z</time>
      </trkpt>
      <trkpt lat="48.66443" lon="-4.32659">
        <ele>16.3</ele>
        <time>2020-06-10T07:53:39Z</time>
      </trkpt>
      <trkpt lat="48.6644" lon="-4.3266">
        <ele>16.3</ele>
        <time>2020-06-10T07:53:40Z</time>
      </trkpt>
      <trkpt lat="48.66439" lon="-4.3266">
        <ele>16.3</ele>
        <time>2020-06-10T07:53:41Z</time>
      </trkpt>
      <trkpt lat="48.66436" lon="-4.3266">
        <ele>16.3</ele>
        <time>2020-06-10T07:53:42Z</time>
      </trkpt>
      <trkpt lat="48.66433" lon="-4.32662">
        <ele>16.3</ele>
        <time>2020-06-10T07:53:43Z</time>
      </trkpt>
      <trkpt lat="48.66432" lon="-4.32663">
        <ele>16.3</ele>
        <time>2020-06-10T07:53:44Z</time>
      </trkpt>
      <trkpt lat="48.66429" lon="-4.32664">
        <ele>16.3</ele>
        <time>2020-06-10T07:53:45Z</time>
      </trkpt>
      <trkpt lat="48.66427" lon="-4.32664">
        <ele>16.3</ele>
        <time>2020-06-10T07:53:46Z</time>
      </trkpt>
      <trkpt lat="48.66424" lon="-4.32664">
        <ele>16</ele>
        <time>2020-06-10T07:53:47Z</time>
      </trkpt>
      <trkpt lat="48.66423" lon="-4.32664">
        <ele>16</ele>
        <time>2020-06-10T07:53:48Z</time>
      </trkpt>
      <trkpt lat="48.66422" lon="-4.32664">
        <ele>16</ele>
        <time>2020-06-10T07:53:49Z</time>
      </trkpt>
      <trkpt lat="48.66421" lon="-4.32665">
        <ele>15.9</ele>
        <time>2020-06-10T07:53:50Z</time>
      </trkpt>
      <trkpt lat="48.6642" lon="-4.32665">
        <ele>15.9</ele>
        <time>2020-06-10T07:53:51Z</time>
      </trkpt>
      <trkpt lat="48.66417" lon="-4.32666">
        <ele>15.8</ele>
        <time>2020-06-10T07:53:52Z</time>
      </trkpt>
      <trkpt lat="48.66413" lon="-4.32667">
        <ele>15.7</ele>
        <time>2020-06-10T07:53:53Z</time>
      </trkpt>
      <trkpt lat="48.66411" lon="-4.32668">
        <ele>15.6</ele>
        <time>2020-06-10T07:53:54Z</time>
      </trkpt>
      <trkpt lat="48.66408" lon="-4.32669">
        <ele>15.5</ele>
        <time>2020-06-10T07:53:55Z</time>
      </trkpt>
      <trkpt lat="48.66404" lon="-4.3267">
        <ele>15.3</ele>
        <time>2020-06-10T07:53:56Z</time>
      </trkpt>
      <trkpt lat="48.664" lon="-4.32669">
        <ele>15.1</ele>
        <time>2020-06-10T07:53:57Z</time>
      </trkpt>
      <trkpt lat="48.66396" lon="-4.3267">
        <ele>15</ele>
        <time>2020-06-10T07:53:58Z</time>
      </trkpt>
      <trkpt lat="48.66392" lon="-4.32671">
        <ele>14.8</ele>
        <time>2020-06-10T07:53:59Z</time>
      </trkpt>
      <trkpt lat="48.66389" lon="-4.32671">
        <ele>14.6</ele>
        <time>2020-06-10T07:54:00Z</time>
      </trkpt>
      <trkpt lat="48.66386" lon="-4.32671">
        <ele>14.5</ele>
        <time>2020-06-10T07:54:01Z</time>
      </trkpt>
      <trkpt lat="48.66382" lon="-4.32672">
        <ele>14.3</ele>
        <time>2020-06-10T07:54:02Z</time>
      </trkpt>
      <trkpt lat="48.66381" lon="-4.32671">
        <ele>14.3</ele>
        <time>2020-06-10T07:54:03Z</time>
      </trkpt>
      <trkpt lat="48.66377" lon="-4.32672">
        <ele>14</ele>
        <time>2020-06-10T07:54:04Z</time>
      </trkpt>
      <trkpt lat="48.66376" lon="-4.32672">
        <ele>14</ele>
        <time>2020-06-10T07:54:05Z</time>
      </trkpt>
      <trkpt lat="48.66372" lon="-4.32672">
        <ele>13.8</ele>
        <time>2020-06-10T07:54:06Z</time>
      </trkpt>
      <trkpt lat="48.66369" lon="-4.32672">
        <ele>13.8</ele>
        <time>2020-06-10T07:54:07Z</time>
      </trkpt>
      <trkpt lat="48.66368" lon="-4.32672">
        <ele>13.8</ele>
        <time>2020-06-10T07:54:08Z</time>
      </trkpt>
      <trkpt lat="48.66367" lon="-4.32671">
        <ele>13.7</ele>
        <time>2020-06-10T07:54:09Z</time>
      </trkpt>
      <trkpt lat="48.66367" lon="-4.3267">
        <ele>13.7</ele>
        <time>2020-06-10T07:54:10Z</time>
      </trkpt>
      <trkpt lat="48.66368" lon="-4.32669">
        <ele>13.7</ele>
        <time>2020-06-10T07:54:11Z</time>
      </trkpt>
      <trkpt lat="48.66368" lon="-4.32667">
        <ele>13.7</ele>
        <time>2020-06-10T07:54:12Z</time>
      </trkpt>
      <trkpt lat="48.66368" lon="-4.32667">
        <ele>13.7</ele>
        <time>2020-06-10T07:54:13Z</time>
      </trkpt>
      <trkpt lat="48.66368" lon="-4.32667">
        <ele>13.7</ele>
        <time>2020-06-10T07:54:14Z</time>
      </trkpt>
      <trkpt lat="48.66367" lon="-4.32666">
        <ele>13.7</ele>
        <time>2020-06-10T07:54:15Z</time>
      </trkpt>
      <trkpt lat="48.66368" lon="-4.32665">
        <ele>13.6</ele>
        <time>2020-06-10T07:54:16Z</time>
      </trkpt>
      <trkpt lat="48.66368" lon="-4.32667">
        <ele>13.6</ele>
        <time>2020-06-10T07:54:17Z</time>
      </trkpt>
      <trkpt lat="48.66367" lon="-4.32668">
        <ele>13.6</ele>
        <time>2020-06-10T07:54:18Z</time>
      </trkpt>
      <trkpt lat="48.66367" lon="-4.32668">
        <ele>13.6</ele>
        <time>2020-06-10T07:54:19Z</time>
      </trkpt>
      <trkpt lat="48.66367" lon="-4.32669">
        <ele>13.6</ele>
        <time>2020-06-10T07:54:20Z</time>
      </trkpt>
      <trkpt lat="48.66368" lon="-4.32668">
        <ele>13.6</ele>
        <time>2020-06-10T07:54:21Z</time>
      </trkpt>
      <trkpt lat="48.66367" lon="-4.32668">
        <ele>13.6</ele>
        <time>2020-06-10T07:54:22Z</time>
      </trkpt>
      <trkpt lat="48.66367" lon="-4.32668">
        <ele>13.6</ele>
        <time>2020-06-10T07:54:23Z</time>
      </trkpt>
      <trkpt lat="48.66367" lon="-4.32668">
        <ele>13.6</ele>
        <time>2020-06-10T07:54:24Z</time>
      </trkpt>
      <trkpt lat="48.66367" lon="-4.32668">
        <ele>13.6</ele>
        <time>2020-06-10T07:54:25Z</time>
      </trkpt>
      <trkpt lat="48.66367" lon="-4.32669">
        <ele>13.6</ele>
        <time>2020-06-10T07:54:26Z</time>
      </trkpt>
      <trkpt lat="48.66367" lon="-4.32669">
        <ele>13.6</ele>
        <time>2020-06-10T07:54:27Z</time>
      </trkpt>
      <trkpt lat="48.66366" lon="-4.32669">
        <ele>13.5</ele>
        <time>2020-06-10T07:54:28Z</time>
      </trkpt>
      <trkpt lat="48.66366" lon="-4.3267">
        <ele>13.5</ele>
        <time>2020-06-10T07:54:29Z</time>
      </trkpt>
      <trkpt lat="48.66366" lon="-4.3267">
        <ele>13.5</ele>
        <time>2020-06-10T07:54:30Z</time>
      </trkpt>
      <trkpt lat="48.66366" lon="-4.3267">
        <ele>13.5</ele>
        <time>2020-06-10T07:54:31Z</time>
      </trkpt>
      <trkpt lat="48.66366" lon="-4.3267">
        <ele>13.5</ele>
        <time>2020-06-10T07:54:32Z</time>
      </trkpt>
      <trkpt lat="48.66366" lon="-4.3267">
        <ele>13.5</ele>
        <time>2020-06-10T07:54:33Z</time>
      </trkpt>
      <trkpt lat="48.66367" lon="-4.3267">
        <ele>13.5</ele>
        <time>2020-06-10T07:54:34Z</time>
      </trkpt>
      <trkpt lat="48.66367" lon="-4.3267">
        <ele>13.5</ele>
        <time>2020-06-10T07:54:35Z</time>
      </trkpt>
      <trkpt lat="48.66366" lon="-4.32672">
        <ele>13.5</ele>
        <time>2020-06-10T07:54:36Z</time>
      </trkpt>
      <trkpt lat="48.66366" lon="-4.32673">
        <ele>13.4</ele>
        <time>2020-06-10T07:54:37Z</time>
      </trkpt>
      <trkpt lat="48.66366" lon="-4.32673">
        <ele>13.4</ele>
        <time>2020-06-10T07:54:38Z</time>
      </trkpt>
      <trkpt lat="48.66366" lon="-4.32674">
        <ele>13.4</ele>
        <time>2020-06-10T07:54:39Z</time>
      </trkpt>
      <trkpt lat="48.66366" lon="-4.32674">
        <ele>13.4</ele>
        <time>2020-06-10T07:54:40Z</time>
      </trkpt>
      <trkpt lat="48.66365" lon="-4.32674">
        <ele>13.4</ele>
        <time>2020-06-10T07:54:41Z</time>
      </trkpt>
      <trkpt lat="48.66365" lon="-4.32672">
        <ele>13.4</ele>
        <time>2020-06-10T07:54:42Z</time>
      </trkpt>
      <trkpt lat="48.66365" lon="-4.32671">
        <ele>13.4</ele>
        <time>2020-06-10T07:54:43Z</time>
      </trkpt>
      <trkpt lat="48.66365" lon="-4.3267">
        <ele>13.3</ele>
        <time>2020-06-10T07:54:44Z</time>
      </trkpt>
      <trkpt lat="48.66365" lon="-4.32669">
        <ele>13.3</ele>
        <time>2020-06-10T07:54:45Z</time>
      </trkpt>
      <trkpt lat="48.66365" lon="-4.32667">
        <ele>13.3</ele>
        <time>2020-06-10T07:54:46Z</time>
      </trkpt>
      <trkpt lat="48.66365" lon="-4.32666">
        <ele>13.3</ele>
        <time>2020-06-10T07:54:47Z</time>
      </trkpt>
      <trkpt lat="48.66365" lon="-4.32665">
        <ele>13.2</ele>
        <time>2020-06-10T07:54:48Z</time>
      </trkpt>
      <trkpt lat="48.66365" lon="-4.32664">
        <ele>13.2</ele>
        <time>2020-06-10T07:54:49Z</time>
      </trkpt>
      <trkpt lat="48.66365" lon="-4.32663">
        <ele>13.2</ele>
        <time>2020-06-10T07:56:27Z</time>
      </trkpt>
      <trkpt lat="48.66365" lon="-4.32661">
        <ele>13.2</ele>
        <time>2020-06-10T07:56:28Z</time>
      </trkpt>
      <trkpt lat="48.66364" lon="-4.32657">
        <ele>13.1</ele>
        <time>2020-06-10T07:56:29Z</time>
      </trkpt>
      <trkpt lat="48.66363" lon="-4.32653">
        <ele>13</ele>
        <time>2020-06-10T07:56:30Z</time>
      </trkpt>
      <trkpt lat="48.66362" lon="-4.32649">
        <ele>13</ele>
        <time>2020-06-10T07:56:31Z</time>
      </trkpt>
      <trkpt lat="48.6636" lon="-4.32645">
        <ele>12.9</ele>
        <time>2020-06-10T07:56:32Z</time>
      </trkpt>
      <trkpt lat="48.66359" lon="-4.32644">
        <ele>12.8</ele>
        <time>2020-06-10T07:56:33Z</time>
      </trkpt>
      <trkpt lat="48.66356" lon="-4.32639">
        <ele>12.7</ele>
        <time>2020-06-10T07:56:34Z</time>
      </trkpt>
      <trkpt lat="48.66353" lon="-4.32636">
        <ele>12.6</ele>
        <time>2020-06-10T07:56:35Z</time>
      </trkpt>
      <trkpt lat="48.6635" lon="-4.32634">
        <ele>12.3</ele>
        <time>2020-06-10T07:56:36Z</time>
      </trkpt>
      <trkpt lat="48.66346" lon="-4.32632">
        <ele>12.2</ele>
        <time>2020-06-10T07:56:37Z</time>
      </trkpt>
      <trkpt lat="48.66343" lon="-4.3263">
        <ele>12</ele>
        <time>2020-06-10T07:56:38Z</time>
      </trkpt>
      <trkpt lat="48.66339" lon="-4.3263">
        <ele>11.9</ele>
        <time>2020-06-10T07:56:39Z</time>
      </trkpt>
      <trkpt lat="48.66335" lon="-4.32629">
        <ele>11.7</ele>
        <time>2020-06-10T07:56:40Z</time>
      </trkpt>
      <trkpt lat="48.66331" lon="-4.32627">
        <ele>11.5</ele>
        <time>2020-06-10T07:56:41Z</time>
      </trkpt>
      <trkpt lat="48.66327" lon="-4.32627">
        <ele>11.3</ele>
        <time>2020-06-10T07:56:42Z</time>
      </trkpt>
      <trkpt lat="48.66322" lon="-4.32625">
        <ele>11.1</ele>
        <time>2020-06-10T07:56:43Z</time>
      </trkpt>
      <trkpt lat="48.66319" lon="-4.32625">
        <ele>10.9</ele>
        <time>2020-06-10T07:56:44Z</time>
      </trkpt>
      <trkpt lat="48.66316" lon="-4.32623">
        <ele>10.8</ele>
        <time>2020-06-10T07:56:45Z</time>
      </trkpt>
      <trkpt lat="48.66312" lon="-4.3262">
        <ele>10.6</ele>
        <time>2020-06-10T07:56:46Z</time>
      </trkpt>
      <trkpt lat="48.66309" lon="-4.32618">
        <ele>10.4</ele>
        <time>2020-06-10T07:56:47Z</time>
      </trkpt>
      <trkpt lat="48.66305" lon="-4.32616">
        <ele>10.2</ele>
        <time>2020-06-10T07:56:48Z</time>
      </trkpt>
      <trkpt lat="48.66301" lon="-4.32614">
        <ele>10.1</ele>
        <time>2020-06-10T07:56:49Z</time>
      </trkpt>
      <trkpt lat="48.66297" lon="-4.32612">
        <ele>9.9</ele>
        <time>2020-06-10T07:56:50Z</time>
      </trkpt>
      <trkpt lat="48.66293" lon="-4.32609">
        <ele>9.7</ele>
        <time>2020-06-10T07:56:51Z</time>
      </trkpt>
      <trkpt lat="48.66289" lon="-4.32605">
        <ele>9.5</ele>
        <time>2020-06-10T07:56:52Z</time>
      </trkpt>
      <trkpt lat="48.66284" lon="-4.32601">
        <ele>9.3</ele>
        <time>2020-06-10T07:56:53Z</time>
      </trkpt>
      <trkpt lat="48.66279" lon="-4.32596">
        <ele>9.1</ele>
        <time>2020-06-10T07:56:54Z</time>
      </trkpt>
      <trkpt lat="48.66275" lon="-4.32593">
        <ele>8.9</ele>
        <time>2020-06-10T07:56:55Z</time>
      </trkpt>
      <trkpt lat="48.6627" lon="-4.3259">
        <ele>8.7</ele>
        <time>2020-06-10T07:56:56Z</time>
      </trkpt>
      <trkpt lat="48.66266" lon="-4.32585">
        <ele>8.5</ele>
        <time>2020-06-10T07:56:57Z</time>
      </trkpt>
      <trkpt lat="48.66262" lon="-4.3258">
        <ele>8.3</ele>
        <time>2020-06-10T07:56:58Z</time>
      </trkpt>
      <trkpt lat="48.66257" lon="-4.32576">
        <ele>8.2</ele>
        <time>2020-06-10T07:56:59Z</time>
      </trkpt>
      <trkpt lat="48.66252" lon="-4.32572">
        <ele>8</ele>
        <time>2020-06-10T07:57:00Z</time>
      </trkpt>
      <trkpt lat="48.66248" lon="-4.32568">
        <ele>7.9</ele>
        <time>2020-06-10T07:57:01Z</time>
      </trkpt>
      <trkpt lat="48.66243" lon="-4.32562">
        <ele>7.7</ele>
        <time>2020-06-10T07:57:02Z</time>
      </trkpt>
      <trkpt lat="48.66238" lon="-4.32558">
        <ele>7.6</ele>
        <time>2020-06-10T07:57:03Z</time>
      </trkpt>
      <trkpt lat="48.66234" lon="-4.32554">
        <ele>7.4</ele>
        <time>2020-06-10T07:57:04Z</time>
      </trkpt>
      <trkpt lat="48.66229" lon="-4.3255">
        <ele>7.3</ele>
        <time>2020-06-10T07:57:05Z</time>
      </trkpt>
      <trkpt lat="48.66225" lon="-4.32545">
        <ele>7.1</ele>
        <time>2020-06-10T07:57:06Z</time>
      </trkpt>
      <trkpt lat="48.66222" lon="-4.3254">
        <ele>7</ele>
        <time>2020-06-10T07:57:07Z</time>
      </trkpt>
      <trkpt lat="48.66219" lon="-4.32532">
        <ele>6.9</ele>
        <time>2020-06-10T07:57:08Z</time>
      </trkpt>
      <trkpt lat="48.66216" lon="-4.32526">
        <ele>6.8</ele>
        <time>2020-06-10T07:57:09Z</time>
      </trkpt>
      <trkpt lat="48.66214" lon="-4.3252">
        <ele>6.7</ele>
        <time>2020-06-10T07:57:10Z</time>
      </trkpt>
      <trkpt lat="48.66212" lon="-4.32514">
        <ele>6.6</ele>
        <time>2020-06-10T07:57:11Z</time>
      </trkpt>
      <trkpt lat="48.6621" lon="-4.32509">
        <ele>6.5</ele>
        <time>2020-06-10T07:57:12Z</time>
      </trkpt>
      <trkpt lat="48.66208" lon="-4.32502">
        <ele>6.3</ele>
        <time>2020-06-10T07:57:13Z</time>
      </trkpt>
      <trkpt lat="48.66206" lon="-4.32495">
        <ele>6.2</ele>
        <time>2020-06-10T07:57:14Z</time>
      </trkpt>
      <trkpt lat="48.66204" lon="-4.32487">
        <ele>6</ele>
        <time>2020-06-10T07:57:15Z</time>
      </trkpt>
      <trkpt lat="48.66201" lon="-4.3248">
        <ele>5.8</ele>
        <time>2020-06-10T07:57:16Z</time>
      </trkpt>
      <trkpt lat="48.66199" lon="-4.32472">
        <ele>5.7</ele>
        <time>2020-06-10T07:57:17Z</time>
      </trkpt>
      <trkpt lat="48.66196" lon="-4.32464">
        <ele>5.6</ele>
        <time>2020-06-10T07:57:18Z</time>
      </trkpt>
      <trkpt lat="48.66192" lon="-4.32455">
        <ele>5.4</ele>
        <time>2020-06-10T07:57:19Z</time>
      </trkpt>
      <trkpt lat="48.66189" lon="-4.32447">
        <ele>5.3</ele>
        <time>2020-06-10T07:57:20Z</time>
      </trkpt>
      <trkpt lat="48.66186" lon="-4.3244">
        <ele>5.2</ele>
        <time>2020-06-10T07:57:21Z</time>
      </trkpt>
      <trkpt lat="48.66184" lon="-4.32433">
        <ele>5.1</ele>
        <time>2020-06-10T07:57:22Z</time>
      </trkpt>
      <trkpt lat="48.66181" lon="-4.32427">
        <ele>5.1</ele>
        <time>2020-06-10T07:57:23Z</time>
      </trkpt>
      <trkpt lat="48.66179" lon="-4.32422">
        <ele>5</ele>
        <time>2020-06-10T07:57:24Z</time>
      </trkpt>
      <trkpt lat="48.66177" lon="-4.32416">
        <ele>5</ele>
        <time>2020-06-10T07:57:25Z</time>
      </trkpt>
      <trkpt lat="48.66174" lon="-4.32409">
        <ele>4.9</ele>
        <time>2020-06-10T07:57:26Z</time>
      </trkpt>
      <trkpt lat="48.66171" lon="-4.32403">
        <ele>4.8</ele>
        <time>2020-06-10T07:57:27Z</time>
      </trkpt>
      <trkpt lat="48.66169" lon="-4.32396">
        <ele>4.8</ele>
        <time>2020-06-10T07:57:28Z</time>
      </trkpt>
      <trkpt lat="48.66166" lon="-4.3239">
        <ele>4.7</ele>
        <time>2020-06-10T07:57:29Z</time>
      </trkpt>
      <trkpt lat="48.66162" lon="-4.32386">
        <ele>4.7</ele>
        <time>2020-06-10T07:57:30Z</time>
      </trkpt>
      <trkpt lat="48.66158" lon="-4.32381">
        <ele>4.6</ele>
        <time>2020-06-10T07:57:31Z</time>
      </trkpt>
      <trkpt lat="48.66154" lon="-4.32377">
        <ele>4.8</ele>
        <time>2020-06-10T07:57:32Z</time>
      </trkpt>
      <trkpt lat="48.6615" lon="-4.32373">
        <ele>4.8</ele>
        <time>2020-06-10T07:57:33Z</time>
      </trkpt>
      <trkpt lat="48.66146" lon="-4.32371">
        <ele>4.9</ele>
        <time>2020-06-10T07:57:34Z</time>
      </trkpt>
      <trkpt lat="48.66143" lon="-4.32369">
        <ele>4.9</ele>
        <time>2020-06-10T07:57:35Z</time>
      </trkpt>
      <trkpt lat="48.66138" lon="-4.32366">
        <ele>5</ele>
        <time>2020-06-10T07:57:36Z</time>
      </trkpt>
      <trkpt lat="48.66134" lon="-4.32364">
        <ele>5</ele>
        <time>2020-06-10T07:57:37Z</time>
      </trkpt>
      <trkpt lat="48.6613" lon="-4.32362">
        <ele>5.1</ele>
        <time>2020-06-10T07:57:38Z</time>
      </trkpt>
      <trkpt lat="48.66125" lon="-4.32362">
        <ele>5.3</ele>
        <time>2020-06-10T07:57:39Z</time>
      </trkpt>
      <trkpt lat="48.66118" lon="-4.32363">
        <ele>5.5</ele>
        <time>2020-06-10T07:57:40Z</time>
      </trkpt>
      <trkpt lat="48.66112" lon="-4.32363">
        <ele>5.7</ele>
        <time>2020-06-10T07:57:41Z</time>
      </trkpt>
      <trkpt lat="48.66105" lon="-4.32364">
        <ele>5.9</ele>
        <time>2020-06-10T07:57:42Z</time>
      </trkpt>
      <trkpt lat="48.661" lon="-4.32363">
        <ele>6</ele>
        <time>2020-06-10T07:57:43Z</time>
      </trkpt>
      <trkpt lat="48.66094" lon="-4.32364">
        <ele>6.1</ele>
        <time>2020-06-10T07:57:44Z</time>
      </trkpt>
      <trkpt lat="48.66088" lon="-4.32363">
        <ele>6.2</ele>
        <time>2020-06-10T07:57:45Z</time>
      </trkpt>
      <trkpt lat="48.66084" lon="-4.32364">
        <ele>6.3</ele>
        <time>2020-06-10T07:57:46Z</time>
      </trkpt>
      <trkpt lat="48.66079" lon="-4.32364">
        <ele>6.4</ele>
        <time>2020-06-10T07:57:47Z</time>
      </trkpt>
      <trkpt lat="48.66074" lon="-4.32364">
        <ele>6.5</ele>
        <time>2020-06-10T07:57:48Z</time>
      </trkpt>
      <trkpt lat="48.6607" lon="-4.32363">
        <ele>6.6</ele>
        <time>2020-06-10T07:57:49Z</time>
      </trkpt>
      <trkpt lat="48.66066" lon="-4.32362">
        <ele>6.7</ele>
        <time>2020-06-10T07:57:50Z</time>
      </trkpt>
      <trkpt lat="48.66062" lon="-4.32361">
        <ele>6.8</ele>
        <time>2020-06-10T07:57:51Z</time>
      </trkpt>
      <trkpt lat="48.66058" lon="-4.32361">
        <ele>6.9</ele>
        <time>2020-06-10T07:57:52Z</time>
      </trkpt>
      <trkpt lat="48.66053" lon="-4.3236">
        <ele>7</ele>
        <time>2020-06-10T07:57:53Z</time>
      </trkpt>
      <trkpt lat="48.66048" lon="-4.32359">
        <ele>7.1</ele>
        <time>2020-06-10T07:57:54Z</time>
      </trkpt>
      <trkpt lat="48.66043" lon="-4.32356">
        <ele>7.1</ele>
        <time>2020-06-10T07:57:55Z</time>
      </trkpt>
      <trkpt lat="48.66038" lon="-4.32353">
        <ele>7.1</ele>
        <time>2020-06-10T07:57:56Z</time>
      </trkpt>
      <trkpt lat="48.66033" lon="-4.32349">
        <ele>7.2</ele>
        <time>2020-06-10T07:57:57Z</time>
      </trkpt>
      <trkpt lat="48.66029" lon="-4.32346">
        <ele>7.3</ele>
        <time>2020-06-10T07:57:58Z</time>
      </trkpt>
      <trkpt lat="48.66024" lon="-4.32343">
        <ele>7.3</ele>
        <time>2020-06-10T07:57:59Z</time>
      </trkpt>
      <trkpt lat="48.66021" lon="-4.32341">
        <ele>7.4</ele>
        <time>2020-06-10T07:58:00Z</time>
      </trkpt>
      <trkpt lat="48.66017" lon="-4.32339">
        <ele>7.5</ele>
        <time>2020-06-10T07:58:01Z</time>
      </trkpt>
      <trkpt lat="48.66013" lon="-4.32339">
        <ele>7.6</ele>
        <time>2020-06-10T07:58:02Z</time>
      </trkpt>
      <trkpt lat="48.66008" lon="-4.32339">
        <ele>7.7</ele>
        <time>2020-06-10T07:58:03Z</time>
      </trkpt>
      <trkpt lat="48.66003" lon="-4.3234">
        <ele>7.8</ele>
        <time>2020-06-10T07:58:04Z</time>
      </trkpt>
      <trkpt lat="48.65998" lon="-4.32342">
        <ele>7.9</ele>
        <time>2020-06-10T07:58:05Z</time>
      </trkpt>
      <trkpt lat="48.65993" lon="-4.32343">
        <ele>7.9</ele>
        <time>2020-06-10T07:58:06Z</time>
      </trkpt>
      <trkpt lat="48.65987" lon="-4.32345">
        <ele>8</ele>
        <time>2020-06-10T07:58:07Z</time>
      </trkpt>
      <trkpt lat="48.65983" lon="-4.32348">
        <ele>8.1</ele>
        <time>2020-06-10T07:58:08Z</time>
      </trkpt>
      <trkpt lat="48.65978" lon="-4.32349">
        <ele>8.2</ele>
        <time>2020-06-10T07:58:09Z</time>
      </trkpt>
      <trkpt lat="48.65974" lon="-4.32349">
        <ele>8.3</ele>
        <time>2020-06-10T07:58:10Z</time>
      </trkpt>
      <trkpt lat="48.65969" lon="-4.32348">
        <ele>8.5</ele>
        <time>2020-06-10T07:58:11Z</time>
      </trkpt>
      <trkpt lat="48.65964" lon="-4.32347">
        <ele>8.6</ele>
        <time>2020-06-10T07:58:12Z</time>
      </trkpt>
      <trkpt lat="48.6596" lon="-4.32347">
        <ele>8.6</ele>
        <time>2020-06-10T07:58:13Z</time>
      </trkpt>
      <trkpt lat="48.65955" lon="-4.32347">
        <ele>8.7</ele>
        <time>2020-06-10T07:58:14Z</time>
      </trkpt>
      <trkpt lat="48.65951" lon="-4.32347">
        <ele>8.8</ele>
        <time>2020-06-10T07:58:15Z</time>
      </trkpt>
      <trkpt lat="48.65946" lon="-4.32348">
        <ele>8.9</ele>
        <time>2020-06-10T07:58:16Z</time>
      </trkpt>
      <trkpt lat="48.65942" lon="-4.32348">
        <ele>9.1</ele>
        <time>2020-06-10T07:58:17Z</time>
      </trkpt>
      <trkpt lat="48.65937" lon="-4.3235">
        <ele>9.2</ele>
        <time>2020-06-10T07:58:18Z</time>
      </trkpt>
      <trkpt lat="48.65933" lon="-4.32349">
        <ele>9.4</ele>
        <time>2020-06-10T07:58:19Z</time>
      </trkpt>
      <trkpt lat="48.65929" lon="-4.32349">
        <ele>9.5</ele>
        <time>2020-06-10T07:58:20Z</time>
      </trkpt>
      <trkpt lat="48.65924" lon="-4.32349">
        <ele>9.7</ele>
        <time>2020-06-10T07:58:21Z</time>
      </trkpt>
      <trkpt lat="48.65919" lon="-4.32348">
        <ele>9.8</ele>
        <time>2020-06-10T07:58:22Z</time>
      </trkpt>
      <trkpt lat="48.65914" lon="-4.32348">
        <ele>9.9</ele>
        <time>2020-06-10T07:58:23Z</time>
      </trkpt>
      <trkpt lat="48.65909" lon="-4.32347">
        <ele>10.1</ele>
        <time>2020-06-10T07:58:24Z</time>
      </trkpt>
      <trkpt lat="48.65904" lon="-4.32346">
        <ele>10.2</ele>
        <time>2020-06-10T07:58:25Z</time>
      </trkpt>
      <trkpt lat="48.65898" lon="-4.32345">
        <ele>10.3</ele>
        <time>2020-06-10T07:58:26Z</time>
      </trkpt>
      <trkpt lat="48.65894" lon="-4.32342">
        <ele>10.4</ele>
        <time>2020-06-10T07:58:27Z</time>
      </trkpt>
      <trkpt lat="48.6589" lon="-4.3234">
        <ele>10.5</ele>
        <time>2020-06-10T07:58:28Z</time>
      </trkpt>
      <trkpt lat="48.65886" lon="-4.32337">
        <ele>10.6</ele>
        <time>2020-06-10T07:58:29Z</time>
      </trkpt>
      <trkpt lat="48.65882" lon="-4.32334">
        <ele>10.7</ele>
        <time>2020-06-10T07:58:30Z</time>
      </trkpt>
      <trkpt lat="48.65878" lon="-4.3233">
        <ele>10.9</ele>
        <time>2020-06-10T07:58:31Z</time>
      </trkpt>
      <trkpt lat="48.65875" lon="-4.32326">
        <ele>11</ele>
        <time>2020-06-10T07:58:32Z</time>
      </trkpt>
      <trkpt lat="48.65872" lon="-4.3232">
        <ele>11.2</ele>
        <time>2020-06-10T07:58:33Z</time>
      </trkpt>
      <trkpt lat="48.65869" lon="-4.32314">
        <ele>11.3</ele>
        <time>2020-06-10T07:58:34Z</time>
      </trkpt>
      <trkpt lat="48.65865" lon="-4.32308">
        <ele>11.4</ele>
        <time>2020-06-10T07:58:35Z</time>
      </trkpt>
      <trkpt lat="48.65861" lon="-4.32302">
        <ele>11.5</ele>
        <time>2020-06-10T07:58:36Z</time>
      </trkpt>
      <trkpt lat="48.65857" lon="-4.32297">
        <ele>11.5</ele>
        <time>2020-06-10T07:58:37Z</time>
      </trkpt>
      <trkpt lat="48.65853" lon="-4.32291">
        <ele>11.6</ele>
        <time>2020-06-10T07:58:38Z</time>
      </trkpt>
      <trkpt lat="48.65848" lon="-4.32287">
        <ele>11.7</ele>
        <time>2020-06-10T07:58:39Z</time>
      </trkpt>
      <trkpt lat="48.65844" lon="-4.32282">
        <ele>11.8</ele>
        <time>2020-06-10T07:58:40Z</time>
      </trkpt>
      <trkpt lat="48.65841" lon="-4.32276">
        <ele>11.9</ele>
        <time>2020-06-10T07:58:41Z</time>
      </trkpt>
      <trkpt lat="48.65838" lon="-4.3227">
        <ele>11.9</ele>
        <time>2020-06-10T07:58:42Z</time>
      </trkpt>
      <trkpt lat="48.65834" lon="-4.32265">
        <ele>12</ele>
        <time>2020-06-10T07:58:43Z</time>
      </trkpt>
      <trkpt lat="48.6583" lon="-4.32261">
        <ele>12</ele>
        <time>2020-06-10T07:58:44Z</time>
      </trkpt>
      <trkpt lat="48.65827" lon="-4.32255">
        <ele>12.1</ele>
        <time>2020-06-10T07:58:45Z</time>
      </trkpt>
      <trkpt lat="48.65824" lon="-4.32251">
        <ele>12.1</ele>
        <time>2020-06-10T07:58:46Z</time>
      </trkpt>
      <trkpt lat="48.65819" lon="-4.32247">
        <ele>12.2</ele>
        <time>2020-06-10T07:58:47Z</time>
      </trkpt>
      <trkpt lat="48.65814" lon="-4.32244">
        <ele>12.2</ele>
        <time>2020-06-10T07:58:48Z</time>
      </trkpt>
      <trkpt lat="48.65811" lon="-4.3224">
        <ele>12.2</ele>
        <time>2020-06-10T07:58:49Z</time>
      </trkpt>
      <trkpt lat="48.65807" lon="-4.32237">
        <ele>12.3</ele>
        <time>2020-06-10T07:58:50Z</time>
      </trkpt>
      <trkpt lat="48.65803" lon="-4.32235">
        <ele>12.3</ele>
        <time>2020-06-10T07:58:51Z</time>
      </trkpt>
      <trkpt lat="48.65799" lon="-4.32231">
        <ele>12.4</ele>
        <time>2020-06-10T07:58:52Z</time>
      </trkpt>
      <trkpt lat="48.65795" lon="-4.32227">
        <ele>12.4</ele>
        <time>2020-06-10T07:58:53Z</time>
      </trkpt>
      <trkpt lat="48.6579" lon="-4.32224">
        <ele>12.5</ele>
        <time>2020-06-10T07:58:54Z</time>
      </trkpt>
      <trkpt lat="48.65786" lon="-4.32221">
        <ele>12.5</ele>
        <time>2020-06-10T07:58:55Z</time>
      </trkpt>
      <trkpt lat="48.65781" lon="-4.3222">
        <ele>12.6</ele>
        <time>2020-06-10T07:58:56Z</time>
      </trkpt>
      <trkpt lat="48.65776" lon="-4.32217">
        <ele>12.7</ele>
        <time>2020-06-10T07:58:57Z</time>
      </trkpt>
      <trkpt lat="48.65771" lon="-4.32215">
        <ele>12.8</ele>
        <time>2020-06-10T07:58:58Z</time>
      </trkpt>
      <trkpt lat="48.65766" lon="-4.32214">
        <ele>12.8</ele>
        <time>2020-06-10T07:58:59Z</time>
      </trkpt>
      <trkpt lat="48.65761" lon="-4.32213">
        <ele>12.9</ele>
        <time>2020-06-10T07:59:00Z</time>
      </trkpt>
      <trkpt lat="48.65757" lon="-4.32211">
        <ele>13</ele>
        <time>2020-06-10T07:59:01Z</time>
      </trkpt>
      <trkpt lat="48.65752" lon="-4.32209">
        <ele>13</ele>
        <time>2020-06-10T07:59:02Z</time>
      </trkpt>
      <trkpt lat="48.65747" lon="-4.32208">
        <ele>13.1</ele>
        <time>2020-06-10T07:59:03Z</time>
      </trkpt>
      <trkpt lat="48.65741" lon="-4.32207">
        <ele>13.1</ele>
        <time>2020-06-10T07:59:04Z</time>
      </trkpt>
      <trkpt lat="48.65736" lon="-4.32207">
        <ele>13.2</ele>
        <time>2020-06-10T07:59:05Z</time>
      </trkpt>
      <trkpt lat="48.6573" lon="-4.32206">
        <ele>13.3</ele>
        <time>2020-06-10T07:59:06Z</time>
      </trkpt>
      <trkpt lat="48.65725" lon="-4.32205">
        <ele>13.3</ele>
        <time>2020-06-10T07:59:07Z</time>
      </trkpt>
      <trkpt lat="48.6572" lon="-4.32205">
        <ele>13.4</ele>
        <time>2020-06-10T07:59:08Z</time>
      </trkpt>
      <trkpt lat="48.65714" lon="-4.32205">
        <ele>13.6</ele>
        <time>2020-06-10T07:59:09Z</time>
      </trkpt>
      <trkpt lat="48.65709" lon="-4.32205">
        <ele>13.7</ele>
        <time>2020-06-10T07:59:10Z</time>
      </trkpt>
      <trkpt lat="48.65705" lon="-4.32206">
        <ele>13.9</ele>
        <time>2020-06-10T07:59:11Z</time>
      </trkpt>
      <trkpt lat="48.657" lon="-4.32204">
        <ele>14.1</ele>
        <time>2020-06-10T07:59:12Z</time>
      </trkpt>
      <trkpt lat="48.65695" lon="-4.32203">
        <ele>14.2</ele>
        <time>2020-06-10T07:59:13Z</time>
      </trkpt>
      <trkpt lat="48.6569" lon="-4.32203">
        <ele>14.3</ele>
        <time>2020-06-10T07:59:14Z</time>
      </trkpt>
      <trkpt lat="48.65685" lon="-4.32201">
        <ele>14.5</ele>
        <time>2020-06-10T07:59:15Z</time>
      </trkpt>
      <trkpt lat="48.6568" lon="-4.322">
        <ele>14.6</ele>
        <time>2020-06-10T07:59:16Z</time>
      </trkpt>
      <trkpt lat="48.65674" lon="-4.322">
        <ele>14.8</ele>
        <time>2020-06-10T07:59:17Z</time>
      </trkpt>
      <trkpt lat="48.6567" lon="-4.322">
        <ele>14.9</ele>
        <time>2020-06-10T07:59:18Z</time>
      </trkpt>
      <trkpt lat="48.65666" lon="-4.32199">
        <ele>15</ele>
        <time>2020-06-10T07:59:19Z</time>
      </trkpt>
      <trkpt lat="48.65661" lon="-4.32197">
        <ele>15.1</ele>
        <time>2020-06-10T07:59:20Z</time>
      </trkpt>
      <trkpt lat="48.65657" lon="-4.32195">
        <ele>15.2</ele>
        <time>2020-06-10T07:59:21Z</time>
      </trkpt>
      <trkpt lat="48.65652" lon="-4.32193">
        <ele>15.3</ele>
        <time>2020-06-10T07:59:22Z</time>
      </trkpt>
      <trkpt lat="48.65647" lon="-4.32192">
        <ele>15.4</ele>
        <time>2020-06-10T07:59:23Z</time>
      </trkpt>
      <trkpt lat="48.65643" lon="-4.32191">
        <ele>15.6</ele>
        <time>2020-06-10T07:59:24Z</time>
      </trkpt>
      <trkpt lat="48.65638" lon="-4.32189">
        <ele>15.7</ele>
        <time>2020-06-10T07:59:25Z</time>
      </trkpt>
      <trkpt lat="48.65633" lon="-4.32187">
        <ele>15.9</ele>
        <time>2020-06-10T07:59:26Z</time>
      </trkpt>
      <trkpt lat="48.65628" lon="-4.32185">
        <ele>16</ele>
        <time>2020-06-10T07:59:27Z</time>
      </trkpt>
      <trkpt lat="48.65624" lon="-4.32182">
        <ele>16.2</ele>
        <time>2020-06-10T07:59:28Z</time>
      </trkpt>
      <trkpt lat="48.65619" lon="-4.3218">
        <ele>16.3</ele>
        <time>2020-06-10T07:59:29Z</time>
      </trkpt>
      <trkpt lat="48.65614" lon="-4.32178">
        <ele>16.5</ele>
        <time>2020-06-10T07:59:30Z</time>
      </trkpt>
      <trkpt lat="48.6561" lon="-4.32176">
        <ele>16.5</ele>
        <time>2020-06-10T07:59:31Z</time>
      </trkpt>
      <trkpt lat="48.65605" lon="-4.32175">
        <ele>16.6</ele>
        <time>2020-06-10T07:59:32Z</time>
      </trkpt>
      <trkpt lat="48.65601" lon="-4.32173">
        <ele>16.6</ele>
        <time>2020-06-10T07:59:33Z</time>
      </trkpt>
      <trkpt lat="48.65596" lon="-4.3217">
        <ele>16.6</ele>
        <time>2020-06-10T07:59:34Z</time>
      </trkpt>
      <trkpt lat="48.65592" lon="-4.32167">
        <ele>16.7</ele>
        <time>2020-06-10T07:59:35Z</time>
      </trkpt>
      <trkpt lat="48.65588" lon="-4.32164">
        <ele>16.7</ele>
        <time>2020-06-10T07:59:36Z</time>
      </trkpt>
      <trkpt lat="48.65584" lon="-4.32161">
        <ele>16.8</ele>
        <time>2020-06-10T07:59:37Z</time>
      </trkpt>
      <trkpt lat="48.6558" lon="-4.32158">
        <ele>16.9</ele>
        <time>2020-06-10T07:59:38Z</time>
      </trkpt>
      <trkpt lat="48.65576" lon="-4.32156">
        <ele>17.1</ele>
        <time>2020-06-10T07:59:39Z</time>
      </trkpt>
      <trkpt lat="48.65572" lon="-4.32153">
        <ele>17.3</ele>
        <time>2020-06-10T07:59:40Z</time>
      </trkpt>
      <trkpt lat="48.65569" lon="-4.3215">
        <ele>17.4</ele>
        <time>2020-06-10T07:59:41Z</time>
      </trkpt>
      <trkpt lat="48.65566" lon="-4.32146">
        <ele>17.4</ele>
        <time>2020-06-10T07:59:42Z</time>
      </trkpt>
      <trkpt lat="48.65563" lon="-4.32142">
        <ele>17.5</ele>
        <time>2020-06-10T07:59:43Z</time>
      </trkpt>
      <trkpt lat="48.6556" lon="-4.3214">
        <ele>17.5</ele>
        <time>2020-06-10T07:59:44Z</time>
      </trkpt>
      <trkpt lat="48.65556" lon="-4.32136">
        <ele>17.5</ele>
        <time>2020-06-10T07:59:45Z</time>
      </trkpt>
      <trkpt lat="48.65553" lon="-4.32134">
        <ele>17.5</ele>
        <time>2020-06-10T07:59:46Z</time>
      </trkpt>
      <trkpt lat="48.6555" lon="-4.3213">
        <ele>17.5</ele>
        <time>2020-06-10T07:59:47Z</time>
      </trkpt>
      <trkpt lat="48.65546" lon="-4.32127">
        <ele>17.5</ele>
        <time>2020-06-10T07:59:48Z</time>
      </trkpt>
      <trkpt lat="48.65542" lon="-4.32123">
        <ele>17.4</ele>
        <time>2020-06-10T07:59:49Z</time>
      </trkpt>
      <trkpt lat="48.65539" lon="-4.32119">
        <ele>17.4</ele>
        <time>2020-06-10T07:59:50Z</time>
      </trkpt>
      <trkpt lat="48.65535" lon="-4.32116">
        <ele>17.4</ele>
        <time>2020-06-10T07:59:51Z</time>
      </trkpt>
      <trkpt lat="48.6553" lon="-4.32112">
        <ele>17.3</ele>
        <time>2020-06-10T07:59:52Z</time>
      </trkpt>
      <trkpt lat="48.65526" lon="-4.32109">
        <ele>17.3</ele>
        <time>2020-06-10T07:59:53Z</time>
      </trkpt>
      <trkpt lat="48.65521" lon="-4.32105">
        <ele>17.3</ele>
        <time>2020-06-10T07:59:54Z</time>
      </trkpt>
      <trkpt lat="48.65516" lon="-4.321">
        <ele>17.4</ele>
        <time>2020-06-10T07:59:55Z</time>
      </trkpt>
      <trkpt lat="48.65512" lon="-4.32097">
        <ele>17.4</ele>
        <time>2020-06-10T07:59:56Z</time>
      </trkpt>
      <trkpt lat="48.65507" lon="-4.32092">
        <ele>17.4</ele>
        <time>2020-06-10T07:59:57Z</time>
      </trkpt>
      <trkpt lat="48.65503" lon="-4.32088">
        <ele>17.4</ele>
        <time>2020-06-10T07:59:58Z</time>
      </trkpt>
      <trkpt lat="48.65498" lon="-4.32084">
        <ele>17.4</ele>
        <time>2020-06-10T07:59:59Z</time>
      </trkpt>
      <trkpt lat="48.65494" lon="-4.32079">
        <ele>17.4</ele>
        <time>2020-06-10T08:00:00Z</time>
      </trkpt>
      <trkpt lat="48.65489" lon="-4.32074">
        <ele>17.4</ele>
        <time>2020-06-10T08:00:01Z</time>
      </trkpt>
      <trkpt lat="48.65483" lon="-4.3207">
        <ele>17.4</ele>
        <time>2020-06-10T08:00:02Z</time>
      </trkpt>
      <trkpt lat="48.65479" lon="-4.32065">
        <ele>17.4</ele>
        <time>2020-06-10T08:00:03Z</time>
      </trkpt>
      <trkpt lat="48.65475" lon="-4.3206">
        <ele>17.4</ele>
        <time>2020-06-10T08:00:04Z</time>
      </trkpt>
      <trkpt lat="48.6547" lon="-4.32055">
        <ele>17.5</ele>
        <time>2020-06-10T08:00:05Z</time>
      </trkpt>
      <trkpt lat="48.65465" lon="-4.32051">
        <ele>17.5</ele>
        <time>2020-06-10T08:00:06Z</time>
      </trkpt>
      <trkpt lat="48.65461" lon="-4.32045">
        <ele>17.5</ele>
        <time>2020-06-10T08:00:07Z</time>
      </trkpt>
      <trkpt lat="48.65455" lon="-4.32042">
        <ele>17.6</ele>
        <time>2020-06-10T08:00:08Z</time>
      </trkpt>
      <trkpt lat="48.6545" lon="-4.32039">
        <ele>17.6</ele>
        <time>2020-06-10T08:00:09Z</time>
      </trkpt>
      <trkpt lat="48.65444" lon="-4.32037">
        <ele>17.6</ele>
        <time>2020-06-10T08:00:10Z</time>
      </trkpt>
      <trkpt lat="48.65439" lon="-4.32035">
        <ele>17.7</ele>
        <time>2020-06-10T08:00:11Z</time>
      </trkpt>
      <trkpt lat="48.65433" lon="-4.32033">
        <ele>17.7</ele>
        <time>2020-06-10T08:00:12Z</time>
      </trkpt>
      <trkpt lat="48.65428" lon="-4.32031">
        <ele>17.7</ele>
        <time>2020-06-10T08:00:13Z</time>
      </trkpt>
      <trkpt lat="48.65422" lon="-4.32029">
        <ele>17.8</ele>
        <time>2020-06-10T08:00:14Z</time>
      </trkpt>
      <trkpt lat="48.65416" lon="-4.32028">
        <ele>17.8</ele>
        <time>2020-06-10T08:00:15Z</time>
      </trkpt>
      <trkpt lat="48.65411" lon="-4.32027">
        <ele>17.8</ele>
        <time>2020-06-10T08:00:16Z</time>
      </trkpt>
      <trkpt lat="48.65406" lon="-4.32027">
        <ele>17.8</ele>
        <time>2020-06-10T08:00:17Z</time>
      </trkpt>
      <trkpt lat="48.654" lon="-4.32026">
        <ele>17.8</ele>
        <time>2020-06-10T08:00:18Z</time>
      </trkpt>
      <trkpt lat="48.65395" lon="-4.32026">
        <ele>17.9</ele>
        <time>2020-06-10T08:00:19Z</time>
      </trkpt>
      <trkpt lat="48.6539" lon="-4.32025">
        <ele>18</ele>
        <time>2020-06-10T08:00:20Z</time>
      </trkpt>
      <trkpt lat="48.65385" lon="-4.32023">
        <ele>18.1</ele>
        <time>2020-06-10T08:00:21Z</time>
      </trkpt>
      <trkpt lat="48.6538" lon="-4.32022">
        <ele>18.2</ele>
        <time>2020-06-10T08:00:22Z</time>
      </trkpt>
      <trkpt lat="48.65375" lon="-4.32021">
        <ele>18.3</ele>
        <time>2020-06-10T08:00:23Z</time>
      </trkpt>
      <trkpt lat="48.65371" lon="-4.3202">
        <ele>18.3</ele>
        <time>2020-06-10T08:00:24Z</time>
      </trkpt>
      <trkpt lat="48.65365" lon="-4.3202">
        <ele>18.4</ele>
        <time>2020-06-10T08:00:25Z</time>
      </trkpt>
      <trkpt lat="48.6536" lon="-4.3202">
        <ele>18.5</ele>
        <time>2020-06-10T08:00:26Z</time>
      </trkpt>
      <trkpt lat="48.65355" lon="-4.32019">
        <ele>18.7</ele>
        <time>2020-06-10T08:00:27Z</time>
      </trkpt>
      <trkpt lat="48.65349" lon="-4.32018">
        <ele>18.8</ele>
        <time>2020-06-10T08:00:28Z</time>
      </trkpt>
      <trkpt lat="48.65344" lon="-4.32018">
        <ele>18.9</ele>
        <time>2020-06-10T08:00:29Z</time>
      </trkpt>
      <trkpt lat="48.6534" lon="-4.32019">
        <ele>19</ele>
        <time>2020-06-10T08:00:30Z</time>
      </trkpt>
      <trkpt lat="48.65335" lon="-4.32017">
        <ele>19.1</ele>
        <time>2020-06-10T08:00:31Z</time>
      </trkpt>
      <trkpt lat="48.65329" lon="-4.32016">
        <ele>19.1</ele>
        <time>2020-06-10T08:00:32Z</time>
      </trkpt>
      <trkpt lat="48.65324" lon="-4.32015">
        <ele>19.2</ele>
        <time>2020-06-10T08:00:33Z</time>
      </trkpt>
      <trkpt lat="48.65319" lon="-4.32013">
        <ele>19.2</ele>
        <time>2020-06-10T08:00:34Z</time>
      </trkpt>
      <trkpt lat="48.65314" lon="-4.32011">
        <ele>19.3</ele>
        <time>2020-06-10T08:00:35Z</time>
      </trkpt>
      <trkpt lat="48.65309" lon="-4.32009">
        <ele>19.3</ele>
        <time>2020-06-10T08:00:36Z</time>
      </trkpt>
      <trkpt lat="48.65304" lon="-4.32008">
        <ele>19.4</ele>
        <time>2020-06-10T08:00:37Z</time>
      </trkpt>
      <trkpt lat="48.653" lon="-4.32006">
        <ele>19.4</ele>
        <time>2020-06-10T08:00:38Z</time>
      </trkpt>
      <trkpt lat="48.65296" lon="-4.32003">
        <ele>19.4</ele>
        <time>2020-06-10T08:00:39Z</time>
      </trkpt>
      <trkpt lat="48.65291" lon="-4.31999">
        <ele>19.4</ele>
        <time>2020-06-10T08:00:40Z</time>
      </trkpt>
      <trkpt lat="48.65286" lon="-4.31994">
        <ele>19.4</ele>
        <time>2020-06-10T08:00:41Z</time>
      </trkpt>
      <trkpt lat="48.65282" lon="-4.31989">
        <ele>19.3</ele>
        <time>2020-06-10T08:00:42Z</time>
      </trkpt>
      <trkpt lat="48.65278" lon="-4.31984">
        <ele>19.3</ele>
        <time>2020-06-10T08:00:43Z</time>
      </trkpt>
      <trkpt lat="48.65273" lon="-4.3198">
        <ele>19.4</ele>
        <time>2020-06-10T08:00:44Z</time>
      </trkpt>
      <trkpt lat="48.65268" lon="-4.31976">
        <ele>19.4</ele>
        <time>2020-06-10T08:00:45Z</time>
      </trkpt>
      <trkpt lat="48.65262" lon="-4.31973">
        <ele>19.4</ele>
        <time>2020-06-10T08:00:46Z</time>
      </trkpt>
      <trkpt lat="48.65257" lon="-4.3197">
        <ele>19.4</ele>
        <time>2020-06-10T08:00:47Z</time>
      </trkpt>
      <trkpt lat="48.65251" lon="-4.31968">
        <ele>19.4</ele>
        <time>2020-06-10T08:00:48Z</time>
      </trkpt>
      <trkpt lat="48.65245" lon="-4.31966">
        <ele>19.3</ele>
        <time>2020-06-10T08:00:49Z</time>
      </trkpt>
      <trkpt lat="48.6524" lon="-4.31966">
        <ele>19.3</ele>
        <time>2020-06-10T08:00:50Z</time>
      </trkpt>
      <trkpt lat="48.65235" lon="-4.31965">
        <ele>19.3</ele>
        <time>2020-06-10T08:00:51Z</time>
      </trkpt>
      <trkpt lat="48.6523" lon="-4.31963">
        <ele>19.2</ele>
        <time>2020-06-10T08:00:52Z</time>
      </trkpt>
      <trkpt lat="48.65226" lon="-4.3196">
        <ele>19.2</ele>
        <time>2020-06-10T08:00:53Z</time>
      </trkpt>
      <trkpt lat="48.6522" lon="-4.31958">
        <ele>19.1</ele>
        <time>2020-06-10T08:00:54Z</time>
      </trkpt>
      <trkpt lat="48.65215" lon="-4.31956">
        <ele>19.1</ele>
        <time>2020-06-10T08:00:55Z</time>
      </trkpt>
      <trkpt lat="48.65209" lon="-4.31954">
        <ele>19.1</ele>
        <time>2020-06-10T08:00:56Z</time>
      </trkpt>
      <trkpt lat="48.65204" lon="-4.31952">
        <ele>19.1</ele>
        <time>2020-06-10T08:00:57Z</time>
      </trkpt>
      <trkpt lat="48.65198" lon="-4.31951">
        <ele>19.1</ele>
        <time>2020-06-10T08:00:58Z</time>
      </trkpt>
      <trkpt lat="48.65193" lon="-4.3195">
        <ele>19.1</ele>
        <time>2020-06-10T08:00:59Z</time>
      </trkpt>
      <trkpt lat="48.65187" lon="-4.31948">
        <ele>19.1</ele>
        <time>2020-06-10T08:01:00Z</time>
      </trkpt>
      <trkpt lat="48.65182" lon="-4.31948">
        <ele>19.1</ele>
        <time>2020-06-10T08:01:01Z</time>
      </trkpt>
      <trkpt lat="48.65177" lon="-4.31948">
        <ele>19</ele>
        <time>2020-06-10T08:01:02Z</time>
      </trkpt>
      <trkpt lat="48.65173" lon="-4.31949">
        <ele>18.9</ele>
        <time>2020-06-10T08:01:03Z</time>
      </trkpt>
      <trkpt lat="48.65169" lon="-4.31951">
        <ele>18.9</ele>
        <time>2020-06-10T08:01:04Z</time>
      </trkpt>
      <trkpt lat="48.65164" lon="-4.31953">
        <ele>18.9</ele>
        <time>2020-06-10T08:01:05Z</time>
      </trkpt>
      <trkpt lat="48.65159" lon="-4.31956">
        <ele>18.9</ele>
        <time>2020-06-10T08:01:06Z</time>
      </trkpt>
      <trkpt lat="48.65155" lon="-4.31957">
        <ele>18.9</ele>
        <time>2020-06-10T08:01:07Z</time>
      </trkpt>
      <trkpt lat="48.6515" lon="-4.31959">
        <ele>18.9</ele>
        <time>2020-06-10T08:01:08Z</time>
      </trkpt>
      <trkpt lat="48.65146" lon="-4.31959">
        <ele>18.9</ele>
        <time>2020-06-10T08:01:09Z</time>
      </trkpt>
      <trkpt lat="48.65143" lon="-4.31961">
        <ele>19</ele>
        <time>2020-06-10T08:01:10Z</time>
      </trkpt>
      <trkpt lat="48.65139" lon="-4.31962">
        <ele>19</ele>
        <time>2020-06-10T08:01:11Z</time>
      </trkpt>
      <trkpt lat="48.65137" lon="-4.31959">
        <ele>19.1</ele>
        <time>2020-06-10T08:01:12Z</time>
      </trkpt>
      <trkpt lat="48.65135" lon="-4.31953">
        <ele>19.2</ele>
        <time>2020-06-10T08:01:13Z</time>
      </trkpt>
      <trkpt lat="48.65133" lon="-4.31945">
        <ele>19.4</ele>
        <time>2020-06-10T08:01:14Z</time>
      </trkpt>
      <trkpt lat="48.65131" lon="-4.31938">
        <ele>19.5</ele>
        <time>2020-06-10T08:01:15Z</time>
      </trkpt>
      <trkpt lat="48.65129" lon="-4.31932">
        <ele>19.7</ele>
        <time>2020-06-10T08:01:16Z</time>
      </trkpt>
      <trkpt lat="48.65127" lon="-4.31925">
        <ele>19.9</ele>
        <time>2020-06-10T08:01:17Z</time>
      </trkpt>
      <trkpt lat="48.65125" lon="-4.31919">
        <ele>20</ele>
        <time>2020-06-10T08:01:18Z</time>
      </trkpt>
      <trkpt lat="48.65122" lon="-4.31914">
        <ele>20.2</ele>
        <time>2020-06-10T08:01:19Z</time>
      </trkpt>
      <trkpt lat="48.6512" lon="-4.31909">
        <ele>20.3</ele>
        <time>2020-06-10T08:01:20Z</time>
      </trkpt>
      <trkpt lat="48.65119" lon="-4.31904">
        <ele>20.5</ele>
        <time>2020-06-10T08:01:21Z</time>
      </trkpt>
      <trkpt lat="48.65117" lon="-4.31897">
        <ele>20.7</ele>
        <time>2020-06-10T08:01:22Z</time>
      </trkpt>
      <trkpt lat="48.65115" lon="-4.31892">
        <ele>20.9</ele>
        <time>2020-06-10T08:01:23Z</time>
      </trkpt>
      <trkpt lat="48.65113" lon="-4.31887">
        <ele>21.3</ele>
        <time>2020-06-10T08:01:24Z</time>
      </trkpt>
      <trkpt lat="48.6511" lon="-4.31882">
        <ele>21.2</ele>
        <time>2020-06-10T08:01:25Z</time>
      </trkpt>
      <trkpt lat="48.65108" lon="-4.31878">
        <ele>21.1</ele>
        <time>2020-06-10T08:01:26Z</time>
      </trkpt>
      <trkpt lat="48.65105" lon="-4.31878">
        <ele>21</ele>
        <time>2020-06-10T08:01:27Z</time>
      </trkpt>
      <trkpt lat="48.65102" lon="-4.3188">
        <ele>20.8</ele>
        <time>2020-06-10T08:01:28Z</time>
      </trkpt>
      <trkpt lat="48.65098" lon="-4.31882">
        <ele>20.7</ele>
        <time>2020-06-10T08:01:29Z</time>
      </trkpt>
      <trkpt lat="48.65094" lon="-4.31883">
        <ele>20.6</ele>
        <time>2020-06-10T08:01:30Z</time>
      </trkpt>
      <trkpt lat="48.65091" lon="-4.31884">
        <ele>20.5</ele>
        <time>2020-06-10T08:01:31Z</time>
      </trkpt>
      <trkpt lat="48.65087" lon="-4.31887">
        <ele>20.3</ele>
        <time>2020-06-10T08:01:32Z</time>
      </trkpt>
      <trkpt lat="48.65083" lon="-4.31888">
        <ele>20.2</ele>
        <time>2020-06-10T08:01:33Z</time>
      </trkpt>
      <trkpt lat="48.65079" lon="-4.31889">
        <ele>20.1</ele>
        <time>2020-06-10T08:01:34Z</time>
      </trkpt>
      <trkpt lat="48.65075" lon="-4.3189">
        <ele>20</ele>
        <time>2020-06-10T08:01:35Z</time>
      </trkpt>
      <trkpt lat="48.65071" lon="-4.31891">
        <ele>19.9</ele>
        <time>2020-06-10T08:01:36Z</time>
      </trkpt>
      <trkpt lat="48.65066" lon="-4.31891">
        <ele>19.8</ele>
        <time>2020-06-10T08:01:37Z</time>
      </trkpt>
      <trkpt lat="48.65062" lon="-4.31891">
        <ele>19.7</ele>
        <time>2020-06-10T08:01:38Z</time>
      </trkpt>
      <trkpt lat="48.65059" lon="-4.31892">
        <ele>19.6</ele>
        <time>2020-06-10T08:01:39Z</time>
      </trkpt>
      <trkpt lat="48.65056" lon="-4.31893">
        <ele>19.5</ele>
        <time>2020-06-10T08:01:40Z</time>
      </trkpt>
      <trkpt lat="48.65052" lon="-4.31893">
        <ele>19.4</ele>
        <time>2020-06-10T08:01:41Z</time>
      </trkpt>
      <trkpt lat="48.65051" lon="-4.31893">
        <ele>19.4</ele>
        <time>2020-06-10T08:01:42Z</time>
      </trkpt>
      <trkpt lat="48.65048" lon="-4.31896">
        <ele>19.3</ele>
        <time>2020-06-10T08:01:43Z</time>
      </trkpt>
      <trkpt lat="48.65047" lon="-4.31897">
        <ele>19.3</ele>
        <time>2020-06-10T08:01:44Z</time>
      </trkpt>
      <trkpt lat="48.65047" lon="-4.31903">
        <ele>19.1</ele>
        <time>2020-06-10T08:01:45Z</time>
      </trkpt>
      <trkpt lat="48.65047" lon="-4.31909">
        <ele>19</ele>
        <time>2020-06-10T08:01:46Z</time>
      </trkpt>
      <trkpt lat="48.65046" lon="-4.31915">
        <ele>18.9</ele>
        <time>2020-06-10T08:01:47Z</time>
      </trkpt>
      <trkpt lat="48.65046" lon="-4.31922">
        <ele>18.8</ele>
        <time>2020-06-10T08:01:48Z</time>
      </trkpt>
      <trkpt lat="48.65046" lon="-4.31928">
        <ele>18.7</ele>
        <time>2020-06-10T08:01:49Z</time>
      </trkpt>
      <trkpt lat="48.65046" lon="-4.31934">
        <ele>18.6</ele>
        <time>2020-06-10T08:01:50Z</time>
      </trkpt>
      <trkpt lat="48.65044" lon="-4.31939">
        <ele>18.4</ele>
        <time>2020-06-10T08:01:51Z</time>
      </trkpt>
      <trkpt lat="48.65042" lon="-4.31944">
        <ele>18.3</ele>
        <time>2020-06-10T08:01:52Z</time>
      </trkpt>
      <trkpt lat="48.65041" lon="-4.31948">
        <ele>18.2</ele>
        <time>2020-06-10T08:01:53Z</time>
      </trkpt>
      <trkpt lat="48.6504" lon="-4.31948">
        <ele>18.2</ele>
        <time>2020-06-10T08:01:54Z</time>
      </trkpt>
      <trkpt lat="48.65037" lon="-4.3195">
        <ele>18</ele>
        <time>2020-06-10T08:01:55Z</time>
      </trkpt>
      <trkpt lat="48.65032" lon="-4.3195">
        <ele>17.4</ele>
        <time>2020-06-10T08:01:56Z</time>
      </trkpt>
      <trkpt lat="48.65026" lon="-4.3195">
        <ele>16.9</ele>
        <time>2020-06-10T08:01:57Z</time>
      </trkpt>
      <trkpt lat="48.6502" lon="-4.31949">
        <ele>16.5</ele>
        <time>2020-06-10T08:01:58Z</time>
      </trkpt>
      <trkpt lat="48.65014" lon="-4.31949">
        <ele>16.1</ele>
        <time>2020-06-10T08:01:59Z</time>
      </trkpt>
      <trkpt lat="48.65009" lon="-4.31949">
        <ele>15.7</ele>
        <time>2020-06-10T08:02:00Z</time>
      </trkpt>
      <trkpt lat="48.65004" lon="-4.31949">
        <ele>15.4</ele>
        <time>2020-06-10T08:02:01Z</time>
      </trkpt>
      <trkpt lat="48.65" lon="-4.31949">
        <ele>15.1</ele>
        <time>2020-06-10T08:02:02Z</time>
      </trkpt>
      <trkpt lat="48.64996" lon="-4.31947">
        <ele>14.9</ele>
        <time>2020-06-10T08:02:03Z</time>
      </trkpt>
      <trkpt lat="48.64993" lon="-4.31946">
        <ele>14.6</ele>
        <time>2020-06-10T08:02:04Z</time>
      </trkpt>
      <trkpt lat="48.6499" lon="-4.31948">
        <ele>14.5</ele>
        <time>2020-06-10T08:02:05Z</time>
      </trkpt>
      <trkpt lat="48.64988" lon="-4.31948">
        <ele>14.4</ele>
        <time>2020-06-10T08:02:06Z</time>
      </trkpt>
      <trkpt lat="48.64987" lon="-4.31949">
        <ele>14.3</ele>
        <time>2020-06-10T08:02:07Z</time>
      </trkpt>
      <trkpt lat="48.64986" lon="-4.3195">
        <ele>14.2</ele>
        <time>2020-06-10T08:02:08Z</time>
      </trkpt>
      <trkpt lat="48.64984" lon="-4.3195">
        <ele>14.1</ele>
        <time>2020-06-10T08:02:09Z</time>
      </trkpt>
      <trkpt lat="48.64982" lon="-4.31951">
        <ele>14</ele>
        <time>2020-06-10T08:02:10Z</time>
      </trkpt>
      <trkpt lat="48.64981" lon="-4.31951">
        <ele>13.8</ele>
        <time>2020-06-10T08:02:11Z</time>
      </trkpt>
      <trkpt lat="48.6498" lon="-4.3195">
        <ele>13.8</ele>
        <time>2020-06-10T08:02:12Z</time>
      </trkpt>
      <trkpt lat="48.64979" lon="-4.31952">
        <ele>13.7</ele>
        <time>2020-06-10T08:02:13Z</time>
      </trkpt>
      <trkpt lat="48.64977" lon="-4.31952">
        <ele>13.6</ele>
        <time>2020-06-10T08:02:14Z</time>
      </trkpt>
      <trkpt lat="48.64975" lon="-4.31953">
        <ele>13.6</ele>
        <time>2020-06-10T08:02:15Z</time>
      </trkpt>
      <trkpt lat="48.64974" lon="-4.31953">
        <ele>13.5</ele>
        <time>2020-06-10T08:02:16Z</time>
      </trkpt>
      <trkpt lat="48.64974" lon="-4.31953">
        <ele>13.5</ele>
        <time>2020-06-10T08:02:17Z</time>
      </trkpt>
      <trkpt lat="48.64973" lon="-4.31952">
        <ele>13.5</ele>
        <time>2020-06-10T08:02:18Z</time>
      </trkpt>
      <trkpt lat="48.64973" lon="-4.31952">
        <ele>13.4</ele>
        <time>2020-06-10T08:02:19Z</time>
      </trkpt>
      <trkpt lat="48.64972" lon="-4.31952">
        <ele>13.4</ele>
        <time>2020-06-10T08:02:20Z</time>
      </trkpt>
      <trkpt lat="48.64971" lon="-4.31951">
        <ele>13.4</ele>
        <time>2020-06-10T08:02:21Z</time>
      </trkpt>
      <trkpt lat="48.64971" lon="-4.31951">
        <ele>13.4</ele>
        <time>2020-06-10T08:02:22Z</time>
      </trkpt>
      <trkpt lat="48.6497" lon="-4.31951">
        <ele>13.3</ele>
        <time>2020-06-10T08:02:23Z</time>
      </trkpt>
      <trkpt lat="48.64969" lon="-4.3195">
        <ele>13.3</ele>
        <time>2020-06-10T08:02:24Z</time>
      </trkpt>
      <trkpt lat="48.64969" lon="-4.3195">
        <ele>13.3</ele>
        <time>2020-06-10T08:02:25Z</time>
      </trkpt>
      <trkpt lat="48.64968" lon="-4.31949">
        <ele>13.2</ele>
        <time>2020-06-10T08:02:26Z</time>
      </trkpt>
      <trkpt lat="48.64967" lon="-4.31949">
        <ele>13.2</ele>
        <time>2020-06-10T08:04:16Z</time>
      </trkpt>
      <trkpt lat="48.64967" lon="-4.31949">
        <ele>13.2</ele>
        <time>2020-06-10T08:04:17Z</time>
      </trkpt>
      <trkpt lat="48.64961" lon="-4.31949">
        <ele>13</ele>
        <time>2020-06-10T08:04:18Z</time>
      </trkpt>
      <trkpt lat="48.64956" lon="-4.31949">
        <ele>12.8</ele>
        <time>2020-06-10T08:04:19Z</time>
      </trkpt>
      <trkpt lat="48.64951" lon="-4.31949">
        <ele>12.6</ele>
        <time>2020-06-10T08:04:20Z</time>
      </trkpt>
      <trkpt lat="48.64945" lon="-4.3195">
        <ele>12.3</ele>
        <time>2020-06-10T08:04:21Z</time>
      </trkpt>
      <trkpt lat="48.64939" lon="-4.3195">
        <ele>12</ele>
        <time>2020-06-10T08:04:22Z</time>
      </trkpt>
      <trkpt lat="48.64933" lon="-4.31951">
        <ele>11.7</ele>
        <time>2020-06-10T08:04:23Z</time>
      </trkpt>
      <trkpt lat="48.64926" lon="-4.3195">
        <ele>11.4</ele>
        <time>2020-06-10T08:04:24Z</time>
      </trkpt>
      <trkpt lat="48.6492" lon="-4.31951">
        <ele>11</ele>
        <time>2020-06-10T08:04:25Z</time>
      </trkpt>
      <trkpt lat="48.64912" lon="-4.31952">
        <ele>10.7</ele>
        <time>2020-06-10T08:04:26Z</time>
      </trkpt>
      <trkpt lat="48.64905" lon="-4.31953">
        <ele>10.4</ele>
        <time>2020-06-10T08:04:27Z</time>
      </trkpt>
      <trkpt lat="48.64896" lon="-4.31954">
        <ele>10.1</ele>
        <time>2020-06-10T08:04:28Z</time>
      </trkpt>
      <trkpt lat="48.64888" lon="-4.31955">
        <ele>9.9</ele>
        <time>2020-06-10T08:04:29Z</time>
      </trkpt>
      <trkpt lat="48.64881" lon="-4.31956">
        <ele>9.6</ele>
        <time>2020-06-10T08:04:30Z</time>
      </trkpt>
      <trkpt lat="48.64874" lon="-4.31957">
        <ele>9.3</ele>
        <time>2020-06-10T08:04:31Z</time>
      </trkpt>
      <trkpt lat="48.64865" lon="-4.31957">
        <ele>9</ele>
        <time>2020-06-10T08:04:32Z</time>
      </trkpt>
      <trkpt lat="48.64858" lon="-4.3196">
        <ele>8.8</ele>
        <time>2020-06-10T08:04:33Z</time>
      </trkpt>
      <trkpt lat="48.6485" lon="-4.31962">
        <ele>8.6</ele>
        <time>2020-06-10T08:04:34Z</time>
      </trkpt>
      <trkpt lat="48.64843" lon="-4.31965">
        <ele>8.4</ele>
        <time>2020-06-10T08:04:35Z</time>
      </trkpt>
      <trkpt lat="48.64836" lon="-4.31967">
        <ele>8.2</ele>
        <time>2020-06-10T08:04:36Z</time>
      </trkpt>
      <trkpt lat="48.64829" lon="-4.3197">
        <ele>8.1</ele>
        <time>2020-06-10T08:04:37Z</time>
      </trkpt>
      <trkpt lat="48.64822" lon="-4.31973">
        <ele>7.9</ele>
        <time>2020-06-10T08:04:38Z</time>
      </trkpt>
      <trkpt lat="48.64815" lon="-4.31975">
        <ele>7.8</ele>
        <time>2020-06-10T08:04:39Z</time>
      </trkpt>
      <trkpt lat="48.64808" lon="-4.31978">
        <ele>7.6</ele>
        <time>2020-06-10T08:04:40Z</time>
      </trkpt>
      <trkpt lat="48.64801" lon="-4.3198">
        <ele>7.5</ele>
        <time>2020-06-10T08:04:41Z</time>
      </trkpt>
      <trkpt lat="48.64794" lon="-4.31983">
        <ele>7.4</ele>
        <time>2020-06-10T08:04:42Z</time>
      </trkpt>
      <trkpt lat="48.64787" lon="-4.31986">
        <ele>7.2</ele>
        <time>2020-06-10T08:04:43Z</time>
      </trkpt>
      <trkpt lat="48.6478" lon="-4.31988">
        <ele>7</ele>
        <time>2020-06-10T08:04:44Z</time>
      </trkpt>
      <trkpt lat="48.64772" lon="-4.31989">
        <ele>6.8</ele>
        <time>2020-06-10T08:04:45Z</time>
      </trkpt>
      <trkpt lat="48.64765" lon="-4.3199">
        <ele>6.7</ele>
        <time>2020-06-10T08:04:46Z</time>
      </trkpt>
      <trkpt lat="48.64758" lon="-4.3199">
        <ele>6.5</ele>
        <time>2020-06-10T08:04:47Z</time>
      </trkpt>
      <trkpt lat="48.6475" lon="-4.3199">
        <ele>6.3</ele>
        <time>2020-06-10T08:04:48Z</time>
      </trkpt>
      <trkpt lat="48.64742" lon="-4.31991">
        <ele>6.1</ele>
        <time>2020-06-10T08:04:49Z</time>
      </trkpt>
      <trkpt lat="48.64735" lon="-4.3199">
        <ele>5.9</ele>
        <time>2020-06-10T08:04:50Z</time>
      </trkpt>
      <trkpt lat="48.64727" lon="-4.3199">
        <ele>5.8</ele>
        <time>2020-06-10T08:04:51Z</time>
      </trkpt>
      <trkpt lat="48.6472" lon="-4.31989">
        <ele>5.7</ele>
        <time>2020-06-10T08:04:52Z</time>
      </trkpt>
      <trkpt lat="48.64712" lon="-4.31987">
        <ele>5.6</ele>
        <time>2020-06-10T08:04:53Z</time>
      </trkpt>
      <trkpt lat="48.64705" lon="-4.31986">
        <ele>5.6</ele>
        <time>2020-06-10T08:04:54Z</time>
      </trkpt>
      <trkpt lat="48.64699" lon="-4.31982">
        <ele>5.4</ele>
        <time>2020-06-10T08:04:55Z</time>
      </trkpt>
      <trkpt lat="48.64692" lon="-4.3198">
        <ele>5.3</ele>
        <time>2020-06-10T08:04:56Z</time>
      </trkpt>
      <trkpt lat="48.64685" lon="-4.31976">
        <ele>5.2</ele>
        <time>2020-06-10T08:04:57Z</time>
      </trkpt>
      <trkpt lat="48.64679" lon="-4.31973">
        <ele>5.1</ele>
        <time>2020-06-10T08:04:58Z</time>
      </trkpt>
      <trkpt lat="48.64673" lon="-4.3197">
        <ele>5</ele>
        <time>2020-06-10T08:04:59Z</time>
      </trkpt>
      <trkpt lat="48.64667" lon="-4.31967">
        <ele>5</ele>
        <time>2020-06-10T08:05:00Z</time>
      </trkpt>
      <trkpt lat="48.64661" lon="-4.31964">
        <ele>4.9</ele>
        <time>2020-06-10T08:05:01Z</time>
      </trkpt>
      <trkpt lat="48.64656" lon="-4.31961">
        <ele>4.9</ele>
        <time>2020-06-10T08:05:02Z</time>
      </trkpt>
      <trkpt lat="48.64651" lon="-4.31956">
        <ele>4.9</ele>
        <time>2020-06-10T08:05:03Z</time>
      </trkpt>
      <trkpt lat="48.64646" lon="-4.31951">
        <ele>4.8</ele>
        <time>2020-06-10T08:05:04Z</time>
      </trkpt>
      <trkpt lat="48.64641" lon="-4.31947">
        <ele>4.8</ele>
        <time>2020-06-10T08:05:05Z</time>
      </trkpt>
      <trkpt lat="48.64635" lon="-4.31946">
        <ele>4.7</ele>
        <time>2020-06-10T08:05:06Z</time>
      </trkpt>
      <trkpt lat="48.64631" lon="-4.31942">
        <ele>4.7</ele>
        <time>2020-06-10T08:05:07Z</time>
      </trkpt>
      <trkpt lat="48.64626" lon="-4.31937">
        <ele>4.6</ele>
        <time>2020-06-10T08:05:08Z</time>
      </trkpt>
      <trkpt lat="48.64622" lon="-4.31932">
        <ele>4.6</ele>
        <time>2020-06-10T08:05:09Z</time>
      </trkpt>
      <trkpt lat="48.64617" lon="-4.31927">
        <ele>4.6</ele>
        <time>2020-06-10T08:05:10Z</time>
      </trkpt>
      <trkpt lat="48.64613" lon="-4.31922">
        <ele>4.6</ele>
        <time>2020-06-10T08:05:11Z</time>
      </trkpt>
      <trkpt lat="48.64608" lon="-4.31917">
        <ele>4.6</ele>
        <time>2020-06-10T08:05:12Z</time>
      </trkpt>
      <trkpt lat="48.64603" lon="-4.31913">
        <ele>4.5</ele>
        <time>2020-06-10T08:05:13Z</time>
      </trkpt>
      <trkpt lat="48.64599" lon="-4.31909">
        <ele>4.5</ele>
        <time>2020-06-10T08:05:14Z</time>
      </trkpt>
      <trkpt lat="48.64594" lon="-4.31904">
        <ele>4.5</ele>
        <time>2020-06-10T08:05:15Z</time>
      </trkpt>
      <trkpt lat="48.64589" lon="-4.31899">
        <ele>4.4</ele>
        <time>2020-06-10T08:05:16Z</time>
      </trkpt>
      <trkpt lat="48.64584" lon="-4.31897">
        <ele>4.4</ele>
        <time>2020-06-10T08:05:17Z</time>
      </trkpt>
      <trkpt lat="48.64579" lon="-4.31893">
        <ele>4.4</ele>
        <time>2020-06-10T08:05:18Z</time>
      </trkpt>
      <trkpt lat="48.64574" lon="-4.3189">
        <ele>4.3</ele>
        <time>2020-06-10T08:05:19Z</time>
      </trkpt>
      <trkpt lat="48.64569" lon="-4.31887">
        <ele>4.3</ele>
        <time>2020-06-10T08:05:20Z</time>
      </trkpt>
      <trkpt lat="48.64564" lon="-4.31883">
        <ele>4.3</ele>
        <time>2020-06-10T08:05:21Z</time>
      </trkpt>
      <trkpt lat="48.64559" lon="-4.31879">
        <ele>4.3</ele>
        <time>2020-06-10T08:05:22Z</time>
      </trkpt>
      <trkpt lat="48.64553" lon="-4.31876">
        <ele>4.3</ele>
        <time>2020-06-10T08:05:23Z</time>
      </trkpt>
      <trkpt lat="48.64549" lon="-4.31871">
        <ele>4.2</ele>
        <time>2020-06-10T08:05:24Z</time>
      </trkpt>
      <trkpt lat="48.64543" lon="-4.31869">
        <ele>4.1</ele>
        <time>2020-06-10T08:05:25Z</time>
      </trkpt>
      <trkpt lat="48.64537" lon="-4.31866">
        <ele>4</ele>
        <time>2020-06-10T08:05:26Z</time>
      </trkpt>
      <trkpt lat="48.64532" lon="-4.31864">
        <ele>4</ele>
        <time>2020-06-10T08:05:27Z</time>
      </trkpt>
      <trkpt lat="48.64526" lon="-4.31862">
        <ele>3.9</ele>
        <time>2020-06-10T08:05:28Z</time>
      </trkpt>
      <trkpt lat="48.6452" lon="-4.31861">
        <ele>3.9</ele>
        <time>2020-06-10T08:05:29Z</time>
      </trkpt>
      <trkpt lat="48.64514" lon="-4.31861">
        <ele>4</ele>
        <time>2020-06-10T08:05:30Z</time>
      </trkpt>
      <trkpt lat="48.64508" lon="-4.3186">
        <ele>4</ele>
        <time>2020-06-10T08:05:31Z</time>
      </trkpt>
      <trkpt lat="48.64502" lon="-4.31859">
        <ele>4.1</ele>
        <time>2020-06-10T08:05:32Z</time>
      </trkpt>
      <trkpt lat="48.64497" lon="-4.31859">
        <ele>4.2</ele>
        <time>2020-06-10T08:05:33Z</time>
      </trkpt>
      <trkpt lat="48.64492" lon="-4.3186">
        <ele>4.2</ele>
        <time>2020-06-10T08:05:34Z</time>
      </trkpt>
      <trkpt lat="48.64486" lon="-4.31862">
        <ele>4.3</ele>
        <time>2020-06-10T08:05:35Z</time>
      </trkpt>
      <trkpt lat="48.64481" lon="-4.31862">
        <ele>4.4</ele>
        <time>2020-06-10T08:05:36Z</time>
      </trkpt>
      <trkpt lat="48.64475" lon="-4.31862">
        <ele>4.5</ele>
        <time>2020-06-10T08:05:37Z</time>
      </trkpt>
      <trkpt lat="48.6447" lon="-4.31862">
        <ele>4.5</ele>
        <time>2020-06-10T08:05:38Z</time>
      </trkpt>
      <trkpt lat="48.64465" lon="-4.31862">
        <ele>4.6</ele>
        <time>2020-06-10T08:05:39Z</time>
      </trkpt>
      <trkpt lat="48.64459" lon="-4.31862">
        <ele>4.7</ele>
        <time>2020-06-10T08:05:40Z</time>
      </trkpt>
      <trkpt lat="48.64454" lon="-4.31862">
        <ele>4.8</ele>
        <time>2020-06-10T08:05:41Z</time>
      </trkpt>
      <trkpt lat="48.64449" lon="-4.31861">
        <ele>4.9</ele>
        <time>2020-06-10T08:05:42Z</time>
      </trkpt>
      <trkpt lat="48.64443" lon="-4.3186">
        <ele>4.9</ele>
        <time>2020-06-10T08:05:43Z</time>
      </trkpt>
      <trkpt lat="48.64438" lon="-4.3186">
        <ele>5</ele>
        <time>2020-06-10T08:05:44Z</time>
      </trkpt>
      <trkpt lat="48.64432" lon="-4.3186">
        <ele>5.1</ele>
        <time>2020-06-10T08:05:45Z</time>
      </trkpt>
      <trkpt lat="48.64427" lon="-4.31861">
        <ele>5.2</ele>
        <time>2020-06-10T08:05:46Z</time>
      </trkpt>
      <trkpt lat="48.64421" lon="-4.31861">
        <ele>5.2</ele>
        <time>2020-06-10T08:05:47Z</time>
      </trkpt>
      <trkpt lat="48.64416" lon="-4.31862">
        <ele>5.3</ele>
        <time>2020-06-10T08:05:48Z</time>
      </trkpt>
      <trkpt lat="48.64411" lon="-4.31862">
        <ele>5.5</ele>
        <time>2020-06-10T08:05:49Z</time>
      </trkpt>
      <trkpt lat="48.64406" lon="-4.31862">
        <ele>5.6</ele>
        <time>2020-06-10T08:05:50Z</time>
      </trkpt>
      <trkpt lat="48.644" lon="-4.31861">
        <ele>5.7</ele>
        <time>2020-06-10T08:05:51Z</time>
      </trkpt>
      <trkpt lat="48.64395" lon="-4.31862">
        <ele>5.8</ele>
        <time>2020-06-10T08:05:52Z</time>
      </trkpt>
      <trkpt lat="48.6439" lon="-4.31861">
        <ele>5.9</ele>
        <time>2020-06-10T08:05:53Z</time>
      </trkpt>
      <trkpt lat="48.64385" lon="-4.3186">
        <ele>6</ele>
        <time>2020-06-10T08:05:54Z</time>
      </trkpt>
      <trkpt lat="48.64381" lon="-4.31859">
        <ele>6.1</ele>
        <time>2020-06-10T08:05:55Z</time>
      </trkpt>
      <trkpt lat="48.64376" lon="-4.31859">
        <ele>6.2</ele>
        <time>2020-06-10T08:05:56Z</time>
      </trkpt>
      <trkpt lat="48.64371" lon="-4.31859">
        <ele>6.4</ele>
        <time>2020-06-10T08:05:57Z</time>
      </trkpt>
      <trkpt lat="48.64366" lon="-4.31859">
        <ele>6.5</ele>
        <time>2020-06-10T08:05:58Z</time>
      </trkpt>
      <trkpt lat="48.64361" lon="-4.31858">
        <ele>6.6</ele>
        <time>2020-06-10T08:05:59Z</time>
      </trkpt>
      <trkpt lat="48.64357" lon="-4.31857">
        <ele>6.7</ele>
        <time>2020-06-10T08:06:00Z</time>
      </trkpt>
      <trkpt lat="48.64352" lon="-4.31857">
        <ele>6.9</ele>
        <time>2020-06-10T08:06:01Z</time>
      </trkpt>
      <trkpt lat="48.64347" lon="-4.31856">
        <ele>7</ele>
        <time>2020-06-10T08:06:02Z</time>
      </trkpt>
      <trkpt lat="48.64342" lon="-4.31855">
        <ele>7.1</ele>
        <time>2020-06-10T08:06:03Z</time>
      </trkpt>
      <trkpt lat="48.64338" lon="-4.31853">
        <ele>7.2</ele>
        <time>2020-06-10T08:06:04Z</time>
      </trkpt>
      <trkpt lat="48.64333" lon="-4.31852">
        <ele>7.3</ele>
        <time>2020-06-10T08:06:05Z</time>
      </trkpt>
      <trkpt lat="48.64328" lon="-4.3185">
        <ele>7.5</ele>
        <time>2020-06-10T08:06:06Z</time>
      </trkpt>
      <trkpt lat="48.64324" lon="-4.31849">
        <ele>7.6</ele>
        <time>2020-06-10T08:06:07Z</time>
      </trkpt>
      <trkpt lat="48.64319" lon="-4.31848">
        <ele>7.7</ele>
        <time>2020-06-10T08:06:08Z</time>
      </trkpt>
      <trkpt lat="48.64315" lon="-4.31846">
        <ele>7.8</ele>
        <time>2020-06-10T08:06:09Z</time>
      </trkpt>
      <trkpt lat="48.6431" lon="-4.31844">
        <ele>7.9</ele>
        <time>2020-06-10T08:06:10Z</time>
      </trkpt>
      <trkpt lat="48.64307" lon="-4.31841">
        <ele>8</ele>
        <time>2020-06-10T08:06:11Z</time>
      </trkpt>
      <trkpt lat="48.64303" lon="-4.31839">
        <ele>8.1</ele>
        <time>2020-06-10T08:06:12Z</time>
      </trkpt>
      <trkpt lat="48.64298" lon="-4.31837">
        <ele>8.2</ele>
        <time>2020-06-10T08:06:13Z</time>
      </trkpt>
      <trkpt lat="48.64294" lon="-4.31834">
        <ele>8.3</ele>
        <time>2020-06-10T08:06:14Z</time>
      </trkpt>
      <trkpt lat="48.64289" lon="-4.31832">
        <ele>8.4</ele>
        <time>2020-06-10T08:06:15Z</time>
      </trkpt>
      <trkpt lat="48.64285" lon="-4.31832">
        <ele>8.4</ele>
        <time>2020-06-10T08:06:16Z</time>
      </trkpt>
      <trkpt lat="48.64281" lon="-4.31829">
        <ele>8.5</ele>
        <time>2020-06-10T08:06:17Z</time>
      </trkpt>
      <trkpt lat="48.64276" lon="-4.31827">
        <ele>8.5</ele>
        <time>2020-06-10T08:06:18Z</time>
      </trkpt>
      <trkpt lat="48.64272" lon="-4.31824">
        <ele>8.6</ele>
        <time>2020-06-10T08:06:19Z</time>
      </trkpt>
      <trkpt lat="48.64268" lon="-4.31822">
        <ele>8.6</ele>
        <time>2020-06-10T08:06:20Z</time>
      </trkpt>
      <trkpt lat="48.64265" lon="-4.31819">
        <ele>8.6</ele>
        <time>2020-06-10T08:06:21Z</time>
      </trkpt>
      <trkpt lat="48.64261" lon="-4.31816">
        <ele>8.6</ele>
        <time>2020-06-10T08:06:22Z</time>
      </trkpt>
      <trkpt lat="48.64257" lon="-4.31813">
        <ele>8.6</ele>
        <time>2020-06-10T08:06:23Z</time>
      </trkpt>
      <trkpt lat="48.64253" lon="-4.31811">
        <ele>8.6</ele>
        <time>2020-06-10T08:06:24Z</time>
      </trkpt>
      <trkpt lat="48.6425" lon="-4.31808">
        <ele>8.7</ele>
        <time>2020-06-10T08:06:25Z</time>
      </trkpt>
      <trkpt lat="48.64246" lon="-4.31806">
        <ele>8.7</ele>
        <time>2020-06-10T08:06:26Z</time>
      </trkpt>
      <trkpt lat="48.64242" lon="-4.31803">
        <ele>8.6</ele>
        <time>2020-06-10T08:06:27Z</time>
      </trkpt>
      <trkpt lat="48.64237" lon="-4.318">
        <ele>8.6</ele>
        <time>2020-06-10T08:06:28Z</time>
      </trkpt>
      <trkpt lat="48.64233" lon="-4.31796">
        <ele>8.5</ele>
        <time>2020-06-10T08:06:29Z</time>
      </trkpt>
      <trkpt lat="48.64229" lon="-4.31794">
        <ele>8.5</ele>
        <time>2020-06-10T08:06:30Z</time>
      </trkpt>
      <trkpt lat="48.64224" lon="-4.31791">
        <ele>8.4</ele>
        <time>2020-06-10T08:06:31Z</time>
      </trkpt>
      <trkpt lat="48.6422" lon="-4.31788">
        <ele>8.3</ele>
        <time>2020-06-10T08:06:32Z</time>
      </trkpt>
      <trkpt lat="48.64215" lon="-4.31784">
        <ele>8.2</ele>
        <time>2020-06-10T08:06:33Z</time>
      </trkpt>
      <trkpt lat="48.64211" lon="-4.31781">
        <ele>8.1</ele>
        <time>2020-06-10T08:06:34Z</time>
      </trkpt>
      <trkpt lat="48.64207" lon="-4.31778">
        <ele>8</ele>
        <time>2020-06-10T08:06:35Z</time>
      </trkpt>
      <trkpt lat="48.64203" lon="-4.31775">
        <ele>7.9</ele>
        <time>2020-06-10T08:06:36Z</time>
      </trkpt>
      <trkpt lat="48.64199" lon="-4.31772">
        <ele>7.8</ele>
        <time>2020-06-10T08:06:37Z</time>
      </trkpt>
      <trkpt lat="48.64195" lon="-4.31769">
        <ele>7.6</ele>
        <time>2020-06-10T08:06:38Z</time>
      </trkpt>
      <trkpt lat="48.64191" lon="-4.31765">
        <ele>7.5</ele>
        <time>2020-06-10T08:06:39Z</time>
      </trkpt>
      <trkpt lat="48.64186" lon="-4.31763">
        <ele>7.3</ele>
        <time>2020-06-10T08:06:40Z</time>
      </trkpt>
      <trkpt lat="48.6418" lon="-4.3176">
        <ele>7.1</ele>
        <time>2020-06-10T08:06:41Z</time>
      </trkpt>
      <trkpt lat="48.64175" lon="-4.31757">
        <ele>6.9</ele>
        <time>2020-06-10T08:06:42Z</time>
      </trkpt>
      <trkpt lat="48.64169" lon="-4.31754">
        <ele>6.7</ele>
        <time>2020-06-10T08:06:43Z</time>
      </trkpt>
      <trkpt lat="48.64163" lon="-4.3175">
        <ele>6.5</ele>
        <time>2020-06-10T08:06:44Z</time>
      </trkpt>
      <trkpt lat="48.64157" lon="-4.31746">
        <ele>6.3</ele>
        <time>2020-06-10T08:06:45Z</time>
      </trkpt>
      <trkpt lat="48.6415" lon="-4.31741">
        <ele>6.2</ele>
        <time>2020-06-10T08:06:46Z</time>
      </trkpt>
      <trkpt lat="48.64144" lon="-4.31736">
        <ele>6</ele>
        <time>2020-06-10T08:06:47Z</time>
      </trkpt>
      <trkpt lat="48.64138" lon="-4.31731">
        <ele>5.8</ele>
        <time>2020-06-10T08:06:48Z</time>
      </trkpt>
      <trkpt lat="48.6413" lon="-4.31726">
        <ele>5.6</ele>
        <time>2020-06-10T08:06:49Z</time>
      </trkpt>
      <trkpt lat="48.64123" lon="-4.31722">
        <ele>5.5</ele>
        <time>2020-06-10T08:06:50Z</time>
      </trkpt>
      <trkpt lat="48.64116" lon="-4.31718">
        <ele>5.5</ele>
        <time>2020-06-10T08:06:51Z</time>
      </trkpt>
      <trkpt lat="48.64109" lon="-4.31715">
        <ele>5.4</ele>
        <time>2020-06-10T08:06:52Z</time>
      </trkpt>
      <trkpt lat="48.64103" lon="-4.31713">
        <ele>5.3</ele>
        <time>2020-06-10T08:06:53Z</time>
      </trkpt>
      <trkpt lat="48.64096" lon="-4.31711">
        <ele>5.2</ele>
        <time>2020-06-10T08:06:54Z</time>
      </trkpt>
      <trkpt lat="48.64089" lon="-4.31709">
        <ele>5.1</ele>
        <time>2020-06-10T08:06:55Z</time>
      </trkpt>
      <trkpt lat="48.64083" lon="-4.31706">
        <ele>5.1</ele>
        <time>2020-06-10T08:06:56Z</time>
      </trkpt>
      <trkpt lat="48.64077" lon="-4.31704">
        <ele>5</ele>
        <time>2020-06-10T08:06:57Z</time>
      </trkpt>
      <trkpt lat="48.64071" lon="-4.31702">
        <ele>4.9</ele>
        <time>2020-06-10T08:06:58Z</time>
      </trkpt>
      <trkpt lat="48.64065" lon="-4.317">
        <ele>4.8</ele>
        <time>2020-06-10T08:06:59Z</time>
      </trkpt>
      <trkpt lat="48.64059" lon="-4.31698">
        <ele>4.8</ele>
        <time>2020-06-10T08:07:00Z</time>
      </trkpt>
      <trkpt lat="48.64053" lon="-4.31696">
        <ele>4.7</ele>
        <time>2020-06-10T08:07:01Z</time>
      </trkpt>
      <trkpt lat="48.64047" lon="-4.31694">
        <ele>4.6</ele>
        <time>2020-06-10T08:07:02Z</time>
      </trkpt>
      <trkpt lat="48.64042" lon="-4.31694">
        <ele>4.6</ele>
        <time>2020-06-10T08:07:03Z</time>
      </trkpt>
      <trkpt lat="48.64036" lon="-4.31691">
        <ele>4.5</ele>
        <time>2020-06-10T08:07:04Z</time>
      </trkpt>
      <trkpt lat="48.64031" lon="-4.3169">
        <ele>4.5</ele>
        <time>2020-06-10T08:07:05Z</time>
      </trkpt>
      <trkpt lat="48.64025" lon="-4.31688">
        <ele>4.4</ele>
        <time>2020-06-10T08:07:06Z</time>
      </trkpt>
      <trkpt lat="48.64019" lon="-4.31686">
        <ele>4.4</ele>
        <time>2020-06-10T08:07:07Z</time>
      </trkpt>
      <trkpt lat="48.64013" lon="-4.31685">
        <ele>4.3</ele>
        <time>2020-06-10T08:07:08Z</time>
      </trkpt>
      <trkpt lat="48.64008" lon="-4.31684">
        <ele>4.3</ele>
        <time>2020-06-10T08:07:09Z</time>
      </trkpt>
      <trkpt lat="48.64002" lon="-4.31682">
        <ele>4.3</ele>
        <time>2020-06-10T08:07:10Z</time>
      </trkpt>
      <trkpt lat="48.63997" lon="-4.3168">
        <ele>4.3</ele>
        <time>2020-06-10T08:07:11Z</time>
      </trkpt>
      <trkpt lat="48.63991" lon="-4.31678">
        <ele>4.3</ele>
        <time>2020-06-10T08:07:12Z</time>
      </trkpt>
      <trkpt lat="48.63985" lon="-4.31676">
        <ele>4.3</ele>
        <time>2020-06-10T08:07:13Z</time>
      </trkpt>
      <trkpt lat="48.6398" lon="-4.31674">
        <ele>4.2</ele>
        <time>2020-06-10T08:07:14Z</time>
      </trkpt>
      <trkpt lat="48.63974" lon="-4.31671">
        <ele>4.2</ele>
        <time>2020-06-10T08:07:15Z</time>
      </trkpt>
      <trkpt lat="48.63968" lon="-4.3167">
        <ele>4.2</ele>
        <time>2020-06-10T08:07:16Z</time>
      </trkpt>
      <trkpt lat="48.63963" lon="-4.31668">
        <ele>4.1</ele>
        <time>2020-06-10T08:07:17Z</time>
      </trkpt>
      <trkpt lat="48.63957" lon="-4.31666">
        <ele>4.1</ele>
        <time>2020-06-10T08:07:18Z</time>
      </trkpt>
      <trkpt lat="48.63951" lon="-4.31665">
        <ele>4.1</ele>
        <time>2020-06-10T08:07:19Z</time>
      </trkpt>
      <trkpt lat="48.63945" lon="-4.31664">
        <ele>4</ele>
        <time>2020-06-10T08:07:20Z</time>
      </trkpt>
      <trkpt lat="48.6394" lon="-4.31663">
        <ele>4</ele>
        <time>2020-06-10T08:07:21Z</time>
      </trkpt>
      <trkpt lat="48.63934" lon="-4.31662">
        <ele>4</ele>
        <time>2020-06-10T08:07:22Z</time>
      </trkpt>
      <trkpt lat="48.63929" lon="-4.31661">
        <ele>4</ele>
        <time>2020-06-10T08:07:23Z</time>
      </trkpt>
      <trkpt lat="48.63923" lon="-4.3166">
        <ele>4</ele>
        <time>2020-06-10T08:07:24Z</time>
      </trkpt>
      <trkpt lat="48.63916" lon="-4.31658">
        <ele>4</ele>
        <time>2020-06-10T08:07:25Z</time>
      </trkpt>
      <trkpt lat="48.6391" lon="-4.31656">
        <ele>4</ele>
        <time>2020-06-10T08:07:26Z</time>
      </trkpt>
      <trkpt lat="48.63904" lon="-4.31654">
        <ele>4</ele>
        <time>2020-06-10T08:07:27Z</time>
      </trkpt>
      <trkpt lat="48.63897" lon="-4.31652">
        <ele>4</ele>
        <time>2020-06-10T08:07:28Z</time>
      </trkpt>
      <trkpt lat="48.63891" lon="-4.3165">
        <ele>4</ele>
        <time>2020-06-10T08:07:29Z</time>
      </trkpt>
      <trkpt lat="48.63886" lon="-4.31648">
        <ele>4</ele>
        <time>2020-06-10T08:07:30Z</time>
      </trkpt>
      <trkpt lat="48.6388" lon="-4.31646">
        <ele>4</ele>
        <time>2020-06-10T08:07:31Z</time>
      </trkpt>
      <trkpt lat="48.63875" lon="-4.31643">
        <ele>4.1</ele>
        <time>2020-06-10T08:07:32Z</time>
      </trkpt>
      <trkpt lat="48.63869" lon="-4.31641">
        <ele>4.1</ele>
        <time>2020-06-10T08:07:33Z</time>
      </trkpt>
      <trkpt lat="48.63864" lon="-4.3164">
        <ele>4.1</ele>
        <time>2020-06-10T08:07:34Z</time>
      </trkpt>
      <trkpt lat="48.63859" lon="-4.31638">
        <ele>4.1</ele>
        <time>2020-06-10T08:07:35Z</time>
      </trkpt>
      <trkpt lat="48.63853" lon="-4.31638">
        <ele>4.1</ele>
        <time>2020-06-10T08:07:36Z</time>
      </trkpt>
      <trkpt lat="48.63848" lon="-4.31637">
        <ele>4</ele>
        <time>2020-06-10T08:07:37Z</time>
      </trkpt>
      <trkpt lat="48.63843" lon="-4.31635">
        <ele>4</ele>
        <time>2020-06-10T08:07:38Z</time>
      </trkpt>
      <trkpt lat="48.63836" lon="-4.31635">
        <ele>4</ele>
        <time>2020-06-10T08:07:39Z</time>
      </trkpt>
      <trkpt lat="48.6383" lon="-4.31634">
        <ele>4</ele>
        <time>2020-06-10T08:07:40Z</time>
      </trkpt>
      <trkpt lat="48.63825" lon="-4.31633">
        <ele>4</ele>
        <time>2020-06-10T08:07:41Z</time>
      </trkpt>
      <trkpt lat="48.63819" lon="-4.31631">
        <ele>4.1</ele>
        <time>2020-06-10T08:07:42Z</time>
      </trkpt>
      <trkpt lat="48.63814" lon="-4.3163">
        <ele>4.1</ele>
        <time>2020-06-10T08:07:43Z</time>
      </trkpt>
      <trkpt lat="48.63809" lon="-4.31627">
        <ele>4.1</ele>
        <time>2020-06-10T08:07:44Z</time>
      </trkpt>
      <trkpt lat="48.63803" lon="-4.31625">
        <ele>4.1</ele>
        <time>2020-06-10T08:07:45Z</time>
      </trkpt>
      <trkpt lat="48.63798" lon="-4.31623">
        <ele>4.1</ele>
        <time>2020-06-10T08:07:46Z</time>
      </trkpt>
      <trkpt lat="48.63793" lon="-4.31622">
        <ele>4.1</ele>
        <time>2020-06-10T08:07:47Z</time>
      </trkpt>
      <trkpt lat="48.63788" lon="-4.31621">
        <ele>4.1</ele>
        <time>2020-06-10T08:07:48Z</time>
      </trkpt>
      <trkpt lat="48.63782" lon="-4.3162">
        <ele>4.1</ele>
        <time>2020-06-10T08:07:49Z</time>
      </trkpt>
      <trkpt lat="48.63777" lon="-4.31619">
        <ele>4.1</ele>
        <time>2020-06-10T08:07:50Z</time>
      </trkpt>
      <trkpt lat="48.63772" lon="-4.31618">
        <ele>4.1</ele>
        <time>2020-06-10T08:07:51Z</time>
      </trkpt>
      <trkpt lat="48.63767" lon="-4.31615">
        <ele>4.1</ele>
        <time>2020-06-10T08:07:52Z</time>
      </trkpt>
      <trkpt lat="48.63761" lon="-4.31613">
        <ele>4.1</ele>
        <time>2020-06-10T08:07:53Z</time>
      </trkpt>
      <trkpt lat="48.63756" lon="-4.31611">
        <ele>4.1</ele>
        <time>2020-06-10T08:07:54Z</time>
      </trkpt>
      <trkpt lat="48.6375" lon="-4.31609">
        <ele>4.1</ele>
        <time>2020-06-10T08:07:55Z</time>
      </trkpt>
      <trkpt lat="48.63745" lon="-4.31607">
        <ele>4.1</ele>
        <time>2020-06-10T08:07:56Z</time>
      </trkpt>
      <trkpt lat="48.6374" lon="-4.31605">
        <ele>4</ele>
        <time>2020-06-10T08:07:57Z</time>
      </trkpt>
      <trkpt lat="48.63735" lon="-4.31603">
        <ele>4</ele>
        <time>2020-06-10T08:07:58Z</time>
      </trkpt>
      <trkpt lat="48.63729" lon="-4.31602">
        <ele>3.9</ele>
        <time>2020-06-10T08:07:59Z</time>
      </trkpt>
      <trkpt lat="48.63724" lon="-4.316">
        <ele>3.9</ele>
        <time>2020-06-10T08:08:00Z</time>
      </trkpt>
      <trkpt lat="48.63719" lon="-4.31599">
        <ele>3.9</ele>
        <time>2020-06-10T08:08:01Z</time>
      </trkpt>
      <trkpt lat="48.63714" lon="-4.31598">
        <ele>3.9</ele>
        <time>2020-06-10T08:08:02Z</time>
      </trkpt>
      <trkpt lat="48.63709" lon="-4.31596">
        <ele>4</ele>
        <time>2020-06-10T08:08:03Z</time>
      </trkpt>
      <trkpt lat="48.63703" lon="-4.31594">
        <ele>4</ele>
        <time>2020-06-10T08:08:04Z</time>
      </trkpt>
      <trkpt lat="48.63698" lon="-4.31592">
        <ele>4</ele>
        <time>2020-06-10T08:08:05Z</time>
      </trkpt>
      <trkpt lat="48.63692" lon="-4.3159">
        <ele>4.1</ele>
        <time>2020-06-10T08:08:06Z</time>
      </trkpt>
      <trkpt lat="48.63687" lon="-4.31587">
        <ele>4.2</ele>
        <time>2020-06-10T08:08:07Z</time>
      </trkpt>
      <trkpt lat="48.63681" lon="-4.31586">
        <ele>4.2</ele>
        <time>2020-06-10T08:08:08Z</time>
      </trkpt>
      <trkpt lat="48.63676" lon="-4.31584">
        <ele>4.2</ele>
        <time>2020-06-10T08:08:09Z</time>
      </trkpt>
      <trkpt lat="48.63671" lon="-4.31582">
        <ele>4.3</ele>
        <time>2020-06-10T08:08:10Z</time>
      </trkpt>
      <trkpt lat="48.63665" lon="-4.31579">
        <ele>4.3</ele>
        <time>2020-06-10T08:08:11Z</time>
      </trkpt>
      <trkpt lat="48.63659" lon="-4.31577">
        <ele>4.3</ele>
        <time>2020-06-10T08:08:12Z</time>
      </trkpt>
      <trkpt lat="48.63653" lon="-4.31575">
        <ele>4.3</ele>
        <time>2020-06-10T08:08:13Z</time>
      </trkpt>
      <trkpt lat="48.63647" lon="-4.31573">
        <ele>4.4</ele>
        <time>2020-06-10T08:08:14Z</time>
      </trkpt>
      <trkpt lat="48.63641" lon="-4.31572">
        <ele>4.4</ele>
        <time>2020-06-10T08:08:15Z</time>
      </trkpt>
      <trkpt lat="48.63636" lon="-4.3157">
        <ele>4.5</ele>
        <time>2020-06-10T08:08:16Z</time>
      </trkpt>
      <trkpt lat="48.6363" lon="-4.31569">
        <ele>4.5</ele>
        <time>2020-06-10T08:08:17Z</time>
      </trkpt>
      <trkpt lat="48.63624" lon="-4.31567">
        <ele>4.5</ele>
        <time>2020-06-10T08:08:18Z</time>
      </trkpt>
      <trkpt lat="48.63618" lon="-4.31565">
        <ele>4.4</ele>
        <time>2020-06-10T08:08:19Z</time>
      </trkpt>
      <trkpt lat="48.63612" lon="-4.31565">
        <ele>4.4</ele>
        <time>2020-06-10T08:08:20Z</time>
      </trkpt>
      <trkpt lat="48.63606" lon="-4.31564">
        <ele>4.4</ele>
        <time>2020-06-10T08:08:21Z</time>
      </trkpt>
      <trkpt lat="48.636" lon="-4.31561">
        <ele>4.4</ele>
        <time>2020-06-10T08:08:22Z</time>
      </trkpt>
      <trkpt lat="48.63593" lon="-4.31559">
        <ele>4.4</ele>
        <time>2020-06-10T08:08:23Z</time>
      </trkpt>
      <trkpt lat="48.63587" lon="-4.31558">
        <ele>4.4</ele>
        <time>2020-06-10T08:08:24Z</time>
      </trkpt>
      <trkpt lat="48.63581" lon="-4.31556">
        <ele>4.4</ele>
        <time>2020-06-10T08:08:25Z</time>
      </trkpt>
      <trkpt lat="48.63576" lon="-4.31555">
        <ele>4.4</ele>
        <time>2020-06-10T08:08:26Z</time>
      </trkpt>
      <trkpt lat="48.63571" lon="-4.31554">
        <ele>4.5</ele>
        <time>2020-06-10T08:08:27Z</time>
      </trkpt>
      <trkpt lat="48.63566" lon="-4.31553">
        <ele>4.5</ele>
        <time>2020-06-10T08:08:28Z</time>
      </trkpt>
      <trkpt lat="48.63562" lon="-4.31552">
        <ele>4.6</ele>
        <time>2020-06-10T08:08:29Z</time>
      </trkpt>
      <trkpt lat="48.63557" lon="-4.3155">
        <ele>4.6</ele>
        <time>2020-06-10T08:08:30Z</time>
      </trkpt>
      <trkpt lat="48.63552" lon="-4.31549">
        <ele>4.7</ele>
        <time>2020-06-10T08:08:31Z</time>
      </trkpt>
      <trkpt lat="48.63548" lon="-4.31547">
        <ele>4.7</ele>
        <time>2020-06-10T08:08:32Z</time>
      </trkpt>
      <trkpt lat="48.63543" lon="-4.31545">
        <ele>4.8</ele>
        <time>2020-06-10T08:08:33Z</time>
      </trkpt>
      <trkpt lat="48.63538" lon="-4.31544">
        <ele>4.8</ele>
        <time>2020-06-10T08:08:34Z</time>
      </trkpt>
      <trkpt lat="48.63533" lon="-4.31542">
        <ele>4.9</ele>
        <time>2020-06-10T08:08:35Z</time>
      </trkpt>
      <trkpt lat="48.63527" lon="-4.31541">
        <ele>4.9</ele>
        <time>2020-06-10T08:08:36Z</time>
      </trkpt>
      <trkpt lat="48.63522" lon="-4.31539">
        <ele>5</ele>
        <time>2020-06-10T08:08:37Z</time>
      </trkpt>
      <trkpt lat="48.63517" lon="-4.31536">
        <ele>5</ele>
        <time>2020-06-10T08:08:38Z</time>
      </trkpt>
      <trkpt lat="48.63512" lon="-4.31534">
        <ele>5.1</ele>
        <time>2020-06-10T08:08:39Z</time>
      </trkpt>
      <trkpt lat="48.63507" lon="-4.31532">
        <ele>5.1</ele>
        <time>2020-06-10T08:08:40Z</time>
      </trkpt>
      <trkpt lat="48.63502" lon="-4.31531">
        <ele>5.2</ele>
        <time>2020-06-10T08:08:41Z</time>
      </trkpt>
      <trkpt lat="48.63497" lon="-4.31529">
        <ele>5.2</ele>
        <time>2020-06-10T08:08:42Z</time>
      </trkpt>
      <trkpt lat="48.63492" lon="-4.31528">
        <ele>5.3</ele>
        <time>2020-06-10T08:08:43Z</time>
      </trkpt>
      <trkpt lat="48.63487" lon="-4.31526">
        <ele>5.4</ele>
        <time>2020-06-10T08:08:44Z</time>
      </trkpt>
      <trkpt lat="48.63483" lon="-4.31524">
        <ele>5.4</ele>
        <time>2020-06-10T08:08:45Z</time>
      </trkpt>
      <trkpt lat="48.63478" lon="-4.31522">
        <ele>5.5</ele>
        <time>2020-06-10T08:08:46Z</time>
      </trkpt>
      <trkpt lat="48.63472" lon="-4.31521">
        <ele>5.6</ele>
        <time>2020-06-10T08:08:47Z</time>
      </trkpt>
      <trkpt lat="48.63467" lon="-4.3152">
        <ele>5.6</ele>
        <time>2020-06-10T08:08:48Z</time>
      </trkpt>
      <trkpt lat="48.63463" lon="-4.31519">
        <ele>5.7</ele>
        <time>2020-06-10T08:08:49Z</time>
      </trkpt>
      <trkpt lat="48.63459" lon="-4.31518">
        <ele>5.7</ele>
        <time>2020-06-10T08:08:50Z</time>
      </trkpt>
      <trkpt lat="48.63452" lon="-4.31517">
        <ele>5.8</ele>
        <time>2020-06-10T08:08:51Z</time>
      </trkpt>
      <trkpt lat="48.63446" lon="-4.31515">
        <ele>5.9</ele>
        <time>2020-06-10T08:08:52Z</time>
      </trkpt>
      <trkpt lat="48.63442" lon="-4.31512">
        <ele>5.9</ele>
        <time>2020-06-10T08:08:53Z</time>
      </trkpt>
      <trkpt lat="48.63437" lon="-4.3151">
        <ele>6</ele>
        <time>2020-06-10T08:08:54Z</time>
      </trkpt>
      <trkpt lat="48.63433" lon="-4.31509">
        <ele>6.1</ele>
        <time>2020-06-10T08:08:55Z</time>
      </trkpt>
      <trkpt lat="48.63428" lon="-4.31507">
        <ele>6.1</ele>
        <time>2020-06-10T08:08:56Z</time>
      </trkpt>
      <trkpt lat="48.63424" lon="-4.31506">
        <ele>6.2</ele>
        <time>2020-06-10T08:08:57Z</time>
      </trkpt>
      <trkpt lat="48.63419" lon="-4.31505">
        <ele>6.2</ele>
        <time>2020-06-10T08:08:58Z</time>
      </trkpt>
      <trkpt lat="48.63413" lon="-4.31503">
        <ele>6.3</ele>
        <time>2020-06-10T08:08:59Z</time>
      </trkpt>
      <trkpt lat="48.63408" lon="-4.31502">
        <ele>6.4</ele>
        <time>2020-06-10T08:09:00Z</time>
      </trkpt>
      <trkpt lat="48.63403" lon="-4.31501">
        <ele>6.5</ele>
        <time>2020-06-10T08:09:01Z</time>
      </trkpt>
      <trkpt lat="48.63398" lon="-4.31499">
        <ele>6.6</ele>
        <time>2020-06-10T08:09:02Z</time>
      </trkpt>
      <trkpt lat="48.63393" lon="-4.31498">
        <ele>6.6</ele>
        <time>2020-06-10T08:09:03Z</time>
      </trkpt>
      <trkpt lat="48.63388" lon="-4.31497">
        <ele>6.7</ele>
        <time>2020-06-10T08:09:04Z</time>
      </trkpt>
      <trkpt lat="48.63383" lon="-4.31496">
        <ele>6.8</ele>
        <time>2020-06-10T08:09:05Z</time>
      </trkpt>
      <trkpt lat="48.63377" lon="-4.31494">
        <ele>6.8</ele>
        <time>2020-06-10T08:09:06Z</time>
      </trkpt>
      <trkpt lat="48.63372" lon="-4.31493">
        <ele>6.9</ele>
        <time>2020-06-10T08:09:07Z</time>
      </trkpt>
      <trkpt lat="48.63367" lon="-4.31492">
        <ele>7</ele>
        <time>2020-06-10T08:09:08Z</time>
      </trkpt>
      <trkpt lat="48.63362" lon="-4.3149">
        <ele>7</ele>
        <time>2020-06-10T08:09:09Z</time>
      </trkpt>
      <trkpt lat="48.63357" lon="-4.31488">
        <ele>7.1</ele>
        <time>2020-06-10T08:09:10Z</time>
      </trkpt>
      <trkpt lat="48.63353" lon="-4.31485">
        <ele>7.1</ele>
        <time>2020-06-10T08:09:11Z</time>
      </trkpt>
      <trkpt lat="48.63347" lon="-4.31484">
        <ele>7.2</ele>
        <time>2020-06-10T08:09:12Z</time>
      </trkpt>
      <trkpt lat="48.63342" lon="-4.31481">
        <ele>7.1</ele>
        <time>2020-06-10T08:09:13Z</time>
      </trkpt>
      <trkpt lat="48.63336" lon="-4.31479">
        <ele>7.1</ele>
        <time>2020-06-10T08:09:14Z</time>
      </trkpt>
      <trkpt lat="48.63331" lon="-4.31477">
        <ele>7.1</ele>
        <time>2020-06-10T08:09:15Z</time>
      </trkpt>
      <trkpt lat="48.63326" lon="-4.31477">
        <ele>7.1</ele>
        <time>2020-06-10T08:09:16Z</time>
      </trkpt>
      <trkpt lat="48.63322" lon="-4.31476">
        <ele>7.1</ele>
        <time>2020-06-10T08:09:17Z</time>
      </trkpt>
      <trkpt lat="48.63316" lon="-4.31475">
        <ele>7.2</ele>
        <time>2020-06-10T08:09:18Z</time>
      </trkpt>
      <trkpt lat="48.63311" lon="-4.31473">
        <ele>7.2</ele>
        <time>2020-06-10T08:09:19Z</time>
      </trkpt>
      <trkpt lat="48.63307" lon="-4.31472">
        <ele>7.3</ele>
        <time>2020-06-10T08:09:20Z</time>
      </trkpt>
      <trkpt lat="48.63302" lon="-4.3147">
        <ele>7.3</ele>
        <time>2020-06-10T08:09:21Z</time>
      </trkpt>
      <trkpt lat="48.63298" lon="-4.31469">
        <ele>7.3</ele>
        <time>2020-06-10T08:09:22Z</time>
      </trkpt>
      <trkpt lat="48.63293" lon="-4.31467">
        <ele>7.4</ele>
        <time>2020-06-10T08:09:23Z</time>
      </trkpt>
      <trkpt lat="48.63289" lon="-4.31464">
        <ele>7.5</ele>
        <time>2020-06-10T08:09:24Z</time>
      </trkpt>
      <trkpt lat="48.63284" lon="-4.31461">
        <ele>7.5</ele>
        <time>2020-06-10T08:09:25Z</time>
      </trkpt>
      <trkpt lat="48.63279" lon="-4.31455">
        <ele>7.6</ele>
        <time>2020-06-10T08:09:26Z</time>
      </trkpt>
      <trkpt lat="48.63274" lon="-4.3145">
        <ele>7.6</ele>
        <time>2020-06-10T08:09:27Z</time>
      </trkpt>
      <trkpt lat="48.6327" lon="-4.31445">
        <ele>7.7</ele>
        <time>2020-06-10T08:09:28Z</time>
      </trkpt>
      <trkpt lat="48.63265" lon="-4.31441">
        <ele>7.7</ele>
        <time>2020-06-10T08:09:29Z</time>
      </trkpt>
      <trkpt lat="48.63261" lon="-4.31437">
        <ele>7.7</ele>
        <time>2020-06-10T08:09:30Z</time>
      </trkpt>
      <trkpt lat="48.63257" lon="-4.31432">
        <ele>7.7</ele>
        <time>2020-06-10T08:09:31Z</time>
      </trkpt>
      <trkpt lat="48.63254" lon="-4.31428">
        <ele>7.7</ele>
        <time>2020-06-10T08:09:32Z</time>
      </trkpt>
      <trkpt lat="48.6325" lon="-4.31427">
        <ele>7.8</ele>
        <time>2020-06-10T08:09:33Z</time>
      </trkpt>
      <trkpt lat="48.63245" lon="-4.31426">
        <ele>7.9</ele>
        <time>2020-06-10T08:09:34Z</time>
      </trkpt>
      <trkpt lat="48.63239" lon="-4.31425">
        <ele>8</ele>
        <time>2020-06-10T08:09:35Z</time>
      </trkpt>
      <trkpt lat="48.63234" lon="-4.31425">
        <ele>8.2</ele>
        <time>2020-06-10T08:09:36Z</time>
      </trkpt>
      <trkpt lat="48.6323" lon="-4.31422">
        <ele>8.1</ele>
        <time>2020-06-10T08:09:37Z</time>
      </trkpt>
      <trkpt lat="48.63226" lon="-4.31418">
        <ele>8</ele>
        <time>2020-06-10T08:09:38Z</time>
      </trkpt>
      <trkpt lat="48.63223" lon="-4.31412">
        <ele>8</ele>
        <time>2020-06-10T08:09:39Z</time>
      </trkpt>
      <trkpt lat="48.63222" lon="-4.31408">
        <ele>7.9</ele>
        <time>2020-06-10T08:09:40Z</time>
      </trkpt>
      <trkpt lat="48.63221" lon="-4.314">
        <ele>7.9</ele>
        <time>2020-06-10T08:09:41Z</time>
      </trkpt>
      <trkpt lat="48.6322" lon="-4.31392">
        <ele>7.8</ele>
        <time>2020-06-10T08:09:42Z</time>
      </trkpt>
      <trkpt lat="48.6322" lon="-4.31383">
        <ele>7.7</ele>
        <time>2020-06-10T08:09:43Z</time>
      </trkpt>
      <trkpt lat="48.63219" lon="-4.31373">
        <ele>7.8</ele>
        <time>2020-06-10T08:09:44Z</time>
      </trkpt>
      <trkpt lat="48.63218" lon="-4.31365">
        <ele>7.8</ele>
        <time>2020-06-10T08:09:45Z</time>
      </trkpt>
      <trkpt lat="48.63217" lon="-4.31356">
        <ele>7.9</ele>
        <time>2020-06-10T08:09:46Z</time>
      </trkpt>
      <trkpt lat="48.63215" lon="-4.31348">
        <ele>7.9</ele>
        <time>2020-06-10T08:09:47Z</time>
      </trkpt>
      <trkpt lat="48.63214" lon="-4.31341">
        <ele>7.9</ele>
        <time>2020-06-10T08:09:48Z</time>
      </trkpt>
      <trkpt lat="48.63213" lon="-4.31333">
        <ele>7.8</ele>
        <time>2020-06-10T08:09:49Z</time>
      </trkpt>
      <trkpt lat="48.63211" lon="-4.31322">
        <ele>7.7</ele>
        <time>2020-06-10T08:09:50Z</time>
      </trkpt>
      <trkpt lat="48.63209" lon="-4.31313">
        <ele>7.7</ele>
        <time>2020-06-10T08:09:51Z</time>
      </trkpt>
      <trkpt lat="48.63208" lon="-4.31304">
        <ele>7.6</ele>
        <time>2020-06-10T08:09:52Z</time>
      </trkpt>
      <trkpt lat="48.63206" lon="-4.31295">
        <ele>7.6</ele>
        <time>2020-06-10T08:09:53Z</time>
      </trkpt>
      <trkpt lat="48.63204" lon="-4.31286">
        <ele>7.6</ele>
        <time>2020-06-10T08:09:54Z</time>
      </trkpt>
      <trkpt lat="48.63203" lon="-4.31278">
        <ele>7.5</ele>
        <time>2020-06-10T08:09:55Z</time>
      </trkpt>
      <trkpt lat="48.63202" lon="-4.31268">
        <ele>7.5</ele>
        <time>2020-06-10T08:09:56Z</time>
      </trkpt>
      <trkpt lat="48.63201" lon="-4.31258">
        <ele>7.4</ele>
        <time>2020-06-10T08:09:57Z</time>
      </trkpt>
      <trkpt lat="48.632" lon="-4.3125">
        <ele>7.3</ele>
        <time>2020-06-10T08:09:58Z</time>
      </trkpt>
      <trkpt lat="48.63198" lon="-4.31241">
        <ele>7.3</ele>
        <time>2020-06-10T08:09:59Z</time>
      </trkpt>
      <trkpt lat="48.63197" lon="-4.31232">
        <ele>7.2</ele>
        <time>2020-06-10T08:10:00Z</time>
      </trkpt>
      <trkpt lat="48.63195" lon="-4.31223">
        <ele>7.1</ele>
        <time>2020-06-10T08:10:01Z</time>
      </trkpt>
      <trkpt lat="48.63194" lon="-4.31214">
        <ele>7.1</ele>
        <time>2020-06-10T08:10:02Z</time>
      </trkpt>
      <trkpt lat="48.63192" lon="-4.31204">
        <ele>7.1</ele>
        <time>2020-06-10T08:10:03Z</time>
      </trkpt>
      <trkpt lat="48.63191" lon="-4.31195">
        <ele>7.1</ele>
        <time>2020-06-10T08:10:04Z</time>
      </trkpt>
      <trkpt lat="48.6319" lon="-4.31186">
        <ele>7.1</ele>
        <time>2020-06-10T08:10:05Z</time>
      </trkpt>
      <trkpt lat="48.63189" lon="-4.31177">
        <ele>7.1</ele>
        <time>2020-06-10T08:10:06Z</time>
      </trkpt>
      <trkpt lat="48.63188" lon="-4.31168">
        <ele>7</ele>
        <time>2020-06-10T08:10:07Z</time>
      </trkpt>
      <trkpt lat="48.63187" lon="-4.31159">
        <ele>7</ele>
        <time>2020-06-10T08:10:08Z</time>
      </trkpt>
      <trkpt lat="48.63185" lon="-4.3115">
        <ele>7</ele>
        <time>2020-06-10T08:10:09Z</time>
      </trkpt>
      <trkpt lat="48.63184" lon="-4.3114">
        <ele>7</ele>
        <time>2020-06-10T08:10:10Z</time>
      </trkpt>
      <trkpt lat="48.63182" lon="-4.3113">
        <ele>7</ele>
        <time>2020-06-10T08:10:11Z</time>
      </trkpt>
      <trkpt lat="48.63181" lon="-4.3112">
        <ele>7</ele>
        <time>2020-06-10T08:10:12Z</time>
      </trkpt>
      <trkpt lat="48.63179" lon="-4.31111">
        <ele>6.9</ele>
        <time>2020-06-10T08:10:13Z</time>
      </trkpt>
      <trkpt lat="48.63178" lon="-4.31102">
        <ele>6.9</ele>
        <time>2020-06-10T08:10:14Z</time>
      </trkpt>
      <trkpt lat="48.63176" lon="-4.31093">
        <ele>6.9</ele>
        <time>2020-06-10T08:10:15Z</time>
      </trkpt>
      <trkpt lat="48.63175" lon="-4.31084">
        <ele>6.9</ele>
        <time>2020-06-10T08:10:16Z</time>
      </trkpt>
      <trkpt lat="48.63173" lon="-4.31075">
        <ele>6.9</ele>
        <time>2020-06-10T08:10:17Z</time>
      </trkpt>
      <trkpt lat="48.63172" lon="-4.31065">
        <ele>6.9</ele>
        <time>2020-06-10T08:10:18Z</time>
      </trkpt>
      <trkpt lat="48.6317" lon="-4.31056">
        <ele>6.9</ele>
        <time>2020-06-10T08:10:19Z</time>
      </trkpt>
      <trkpt lat="48.63169" lon="-4.31046">
        <ele>6.8</ele>
        <time>2020-06-10T08:10:20Z</time>
      </trkpt>
      <trkpt lat="48.63167" lon="-4.31037">
        <ele>6.8</ele>
        <time>2020-06-10T08:10:21Z</time>
      </trkpt>
      <trkpt lat="48.63166" lon="-4.31028">
        <ele>6.7</ele>
        <time>2020-06-10T08:10:22Z</time>
      </trkpt>
      <trkpt lat="48.63165" lon="-4.3102">
        <ele>6.7</ele>
        <time>2020-06-10T08:10:23Z</time>
      </trkpt>
      <trkpt lat="48.63164" lon="-4.31011">
        <ele>6.7</ele>
        <time>2020-06-10T08:10:24Z</time>
      </trkpt>
      <trkpt lat="48.63162" lon="-4.31005">
        <ele>6.7</ele>
        <time>2020-06-10T08:10:25Z</time>
      </trkpt>
      <trkpt lat="48.6316" lon="-4.30998">
        <ele>6.8</ele>
        <time>2020-06-10T08:10:26Z</time>
      </trkpt>
      <trkpt lat="48.63158" lon="-4.30991">
        <ele>6.8</ele>
        <time>2020-06-10T08:10:27Z</time>
      </trkpt>
      <trkpt lat="48.63155" lon="-4.30983">
        <ele>6.8</ele>
        <time>2020-06-10T08:10:28Z</time>
      </trkpt>
      <trkpt lat="48.63153" lon="-4.30976">
        <ele>6.9</ele>
        <time>2020-06-10T08:10:29Z</time>
      </trkpt>
      <trkpt lat="48.63151" lon="-4.30968">
        <ele>6.9</ele>
        <time>2020-06-10T08:10:30Z</time>
      </trkpt>
      <trkpt lat="48.63148" lon="-4.3096">
        <ele>7</ele>
        <time>2020-06-10T08:10:31Z</time>
      </trkpt>
      <trkpt lat="48.63145" lon="-4.30952">
        <ele>7</ele>
        <time>2020-06-10T08:10:32Z</time>
      </trkpt>
      <trkpt lat="48.63142" lon="-4.30944">
        <ele>7.1</ele>
        <time>2020-06-10T08:10:33Z</time>
      </trkpt>
      <trkpt lat="48.63138" lon="-4.30936">
        <ele>7.3</ele>
        <time>2020-06-10T08:10:34Z</time>
      </trkpt>
      <trkpt lat="48.63135" lon="-4.30929">
        <ele>7.3</ele>
        <time>2020-06-10T08:10:35Z</time>
      </trkpt>
      <trkpt lat="48.63133" lon="-4.30921">
        <ele>7.4</ele>
        <time>2020-06-10T08:10:36Z</time>
      </trkpt>
      <trkpt lat="48.63129" lon="-4.30914">
        <ele>7.5</ele>
        <time>2020-06-10T08:10:37Z</time>
      </trkpt>
      <trkpt lat="48.63127" lon="-4.30907">
        <ele>7.5</ele>
        <time>2020-06-10T08:10:38Z</time>
      </trkpt>
      <trkpt lat="48.63124" lon="-4.30901">
        <ele>7.6</ele>
        <time>2020-06-10T08:10:39Z</time>
      </trkpt>
      <trkpt lat="48.63121" lon="-4.30897">
        <ele>7.6</ele>
        <time>2020-06-10T08:10:40Z</time>
      </trkpt>
      <trkpt lat="48.63118" lon="-4.30892">
        <ele>7.6</ele>
        <time>2020-06-10T08:10:41Z</time>
      </trkpt>
      <trkpt lat="48.63115" lon="-4.30888">
        <ele>7.7</ele>
        <time>2020-06-10T08:10:42Z</time>
      </trkpt>
      <trkpt lat="48.63111" lon="-4.30882">
        <ele>7.7</ele>
        <time>2020-06-10T08:10:43Z</time>
      </trkpt>
      <trkpt lat="48.63107" lon="-4.30876">
        <ele>7.8</ele>
        <time>2020-06-10T08:10:44Z</time>
      </trkpt>
      <trkpt lat="48.63104" lon="-4.30869">
        <ele>7.8</ele>
        <time>2020-06-10T08:10:45Z</time>
      </trkpt>
      <trkpt lat="48.631" lon="-4.30863">
        <ele>7.9</ele>
        <time>2020-06-10T08:10:46Z</time>
      </trkpt>
      <trkpt lat="48.63097" lon="-4.30858">
        <ele>8</ele>
        <time>2020-06-10T08:10:47Z</time>
      </trkpt>
      <trkpt lat="48.63093" lon="-4.30853">
        <ele>8</ele>
        <time>2020-06-10T08:10:48Z</time>
      </trkpt>
      <trkpt lat="48.63089" lon="-4.30848">
        <ele>8.1</ele>
        <time>2020-06-10T08:10:49Z</time>
      </trkpt>
      <trkpt lat="48.63084" lon="-4.30845">
        <ele>8.2</ele>
        <time>2020-06-10T08:10:50Z</time>
      </trkpt>
      <trkpt lat="48.6308" lon="-4.30842">
        <ele>8.3</ele>
        <time>2020-06-10T08:10:51Z</time>
      </trkpt>
      <trkpt lat="48.63075" lon="-4.30838">
        <ele>8.4</ele>
        <time>2020-06-10T08:10:52Z</time>
      </trkpt>
      <trkpt lat="48.63071" lon="-4.30834">
        <ele>8.5</ele>
        <time>2020-06-10T08:10:53Z</time>
      </trkpt>
      <trkpt lat="48.63066" lon="-4.30831">
        <ele>8.6</ele>
        <time>2020-06-10T08:10:54Z</time>
      </trkpt>
      <trkpt lat="48.63062" lon="-4.30827">
        <ele>8.6</ele>
        <time>2020-06-10T08:10:55Z</time>
      </trkpt>
      <trkpt lat="48.63058" lon="-4.30823">
        <ele>8.7</ele>
        <time>2020-06-10T08:10:56Z</time>
      </trkpt>
      <trkpt lat="48.63054" lon="-4.30819">
        <ele>8.7</ele>
        <time>2020-06-10T08:10:57Z</time>
      </trkpt>
      <trkpt lat="48.63051" lon="-4.30815">
        <ele>8.8</ele>
        <time>2020-06-10T08:10:58Z</time>
      </trkpt>
      <trkpt lat="48.63049" lon="-4.30812">
        <ele>8.8</ele>
        <time>2020-06-10T08:10:59Z</time>
      </trkpt>
      <trkpt lat="48.63046" lon="-4.30807">
        <ele>8.8</ele>
        <time>2020-06-10T08:11:00Z</time>
      </trkpt>
      <trkpt lat="48.63042" lon="-4.30802">
        <ele>8.9</ele>
        <time>2020-06-10T08:11:01Z</time>
      </trkpt>
      <trkpt lat="48.6304" lon="-4.30795">
        <ele>8.9</ele>
        <time>2020-06-10T08:11:02Z</time>
      </trkpt>
      <trkpt lat="48.63037" lon="-4.30789">
        <ele>9</ele>
        <time>2020-06-10T08:11:03Z</time>
      </trkpt>
      <trkpt lat="48.63035" lon="-4.30783">
        <ele>9</ele>
        <time>2020-06-10T08:11:04Z</time>
      </trkpt>
      <trkpt lat="48.63032" lon="-4.30777">
        <ele>9.1</ele>
        <time>2020-06-10T08:11:05Z</time>
      </trkpt>
      <trkpt lat="48.6303" lon="-4.3077">
        <ele>9.2</ele>
        <time>2020-06-10T08:11:06Z</time>
      </trkpt>
      <trkpt lat="48.63028" lon="-4.30763">
        <ele>9.2</ele>
        <time>2020-06-10T08:11:07Z</time>
      </trkpt>
      <trkpt lat="48.63026" lon="-4.30754">
        <ele>9.4</ele>
        <time>2020-06-10T08:11:08Z</time>
      </trkpt>
      <trkpt lat="48.63024" lon="-4.30747">
        <ele>9.4</ele>
        <time>2020-06-10T08:11:09Z</time>
      </trkpt>
      <trkpt lat="48.63022" lon="-4.3074">
        <ele>9.5</ele>
        <time>2020-06-10T08:11:10Z</time>
      </trkpt>
      <trkpt lat="48.6302" lon="-4.30734">
        <ele>9.5</ele>
        <time>2020-06-10T08:11:11Z</time>
      </trkpt>
      <trkpt lat="48.63018" lon="-4.30727">
        <ele>9.6</ele>
        <time>2020-06-10T08:11:12Z</time>
      </trkpt>
      <trkpt lat="48.63018" lon="-4.30721">
        <ele>9.7</ele>
        <time>2020-06-10T08:11:13Z</time>
      </trkpt>
      <trkpt lat="48.63016" lon="-4.30714">
        <ele>9.7</ele>
        <time>2020-06-10T08:11:14Z</time>
      </trkpt>
      <trkpt lat="48.63014" lon="-4.30707">
        <ele>9.8</ele>
        <time>2020-06-10T08:11:15Z</time>
      </trkpt>
      <trkpt lat="48.63012" lon="-4.30699">
        <ele>9.9</ele>
        <time>2020-06-10T08:11:16Z</time>
      </trkpt>
      <trkpt lat="48.6301" lon="-4.30692">
        <ele>10</ele>
        <time>2020-06-10T08:11:17Z</time>
      </trkpt>
      <trkpt lat="48.63008" lon="-4.30684">
        <ele>10.1</ele>
        <time>2020-06-10T08:11:18Z</time>
      </trkpt>
      <trkpt lat="48.63006" lon="-4.30676">
        <ele>10.2</ele>
        <time>2020-06-10T08:11:19Z</time>
      </trkpt>
      <trkpt lat="48.63004" lon="-4.3067">
        <ele>10.2</ele>
        <time>2020-06-10T08:11:20Z</time>
      </trkpt>
      <trkpt lat="48.63" lon="-4.30664">
        <ele>10.2</ele>
        <time>2020-06-10T08:11:21Z</time>
      </trkpt>
      <trkpt lat="48.62998" lon="-4.30656">
        <ele>10.3</ele>
        <time>2020-06-10T08:11:22Z</time>
      </trkpt>
      <trkpt lat="48.62995" lon="-4.30649">
        <ele>10.3</ele>
        <time>2020-06-10T08:11:23Z</time>
      </trkpt>
      <trkpt lat="48.62992" lon="-4.30642">
        <ele>10.3</ele>
        <time>2020-06-10T08:11:24Z</time>
      </trkpt>
      <trkpt lat="48.62989" lon="-4.30635">
        <ele>10.3</ele>
        <time>2020-06-10T08:11:25Z</time>
      </trkpt>
      <trkpt lat="48.62986" lon="-4.30628">
        <ele>10.3</ele>
        <time>2020-06-10T08:11:26Z</time>
      </trkpt>
      <trkpt lat="48.62982" lon="-4.30621">
        <ele>10.3</ele>
        <time>2020-06-10T08:11:27Z</time>
      </trkpt>
      <trkpt lat="48.62979" lon="-4.30616">
        <ele>10.3</ele>
        <time>2020-06-10T08:11:28Z</time>
      </trkpt>
      <trkpt lat="48.62976" lon="-4.30609">
        <ele>10.3</ele>
        <time>2020-06-10T08:11:29Z</time>
      </trkpt>
      <trkpt lat="48.62971" lon="-4.30602">
        <ele>10.3</ele>
        <time>2020-06-10T08:11:30Z</time>
      </trkpt>
      <trkpt lat="48.62967" lon="-4.30596">
        <ele>10.3</ele>
        <time>2020-06-10T08:11:31Z</time>
      </trkpt>
      <trkpt lat="48.62964" lon="-4.3059">
        <ele>10.3</ele>
        <time>2020-06-10T08:11:32Z</time>
      </trkpt>
      <trkpt lat="48.62961" lon="-4.30583">
        <ele>10.3</ele>
        <time>2020-06-10T08:11:33Z</time>
      </trkpt>
      <trkpt lat="48.62958" lon="-4.30576">
        <ele>10.3</ele>
        <time>2020-06-10T08:11:34Z</time>
      </trkpt>
      <trkpt lat="48.62954" lon="-4.30569">
        <ele>10.2</ele>
        <time>2020-06-10T08:11:35Z</time>
      </trkpt>
      <trkpt lat="48.62951" lon="-4.30563">
        <ele>10.2</ele>
        <time>2020-06-10T08:11:36Z</time>
      </trkpt>
      <trkpt lat="48.62948" lon="-4.30556">
        <ele>10.2</ele>
        <time>2020-06-10T08:11:37Z</time>
      </trkpt>
      <trkpt lat="48.62945" lon="-4.30551">
        <ele>10.2</ele>
        <time>2020-06-10T08:11:38Z</time>
      </trkpt>
      <trkpt lat="48.62942" lon="-4.30544">
        <ele>10.2</ele>
        <time>2020-06-10T08:11:39Z</time>
      </trkpt>
      <trkpt lat="48.62938" lon="-4.30536">
        <ele>10.2</ele>
        <time>2020-06-10T08:11:40Z</time>
      </trkpt>
      <trkpt lat="48.62935" lon="-4.30529">
        <ele>10.1</ele>
        <time>2020-06-10T08:11:41Z</time>
      </trkpt>
      <trkpt lat="48.62933" lon="-4.30523">
        <ele>10.1</ele>
        <time>2020-06-10T08:11:42Z</time>
      </trkpt>
      <trkpt lat="48.6293" lon="-4.30516">
        <ele>10.1</ele>
        <time>2020-06-10T08:11:43Z</time>
      </trkpt>
      <trkpt lat="48.62928" lon="-4.30509">
        <ele>10</ele>
        <time>2020-06-10T08:11:44Z</time>
      </trkpt>
      <trkpt lat="48.62926" lon="-4.30502">
        <ele>9.9</ele>
        <time>2020-06-10T08:11:45Z</time>
      </trkpt>
      <trkpt lat="48.62924" lon="-4.30496">
        <ele>9.9</ele>
        <time>2020-06-10T08:11:46Z</time>
      </trkpt>
      <trkpt lat="48.62924" lon="-4.30491">
        <ele>9.8</ele>
        <time>2020-06-10T08:11:47Z</time>
      </trkpt>
      <trkpt lat="48.62922" lon="-4.30486">
        <ele>9.8</ele>
        <time>2020-06-10T08:11:48Z</time>
      </trkpt>
      <trkpt lat="48.62921" lon="-4.30477">
        <ele>9.7</ele>
        <time>2020-06-10T08:11:49Z</time>
      </trkpt>
      <trkpt lat="48.62919" lon="-4.3047">
        <ele>9.7</ele>
        <time>2020-06-10T08:11:50Z</time>
      </trkpt>
      <trkpt lat="48.62918" lon="-4.30462">
        <ele>9.6</ele>
        <time>2020-06-10T08:11:51Z</time>
      </trkpt>
      <trkpt lat="48.62917" lon="-4.30454">
        <ele>9.6</ele>
        <time>2020-06-10T08:11:52Z</time>
      </trkpt>
      <trkpt lat="48.62916" lon="-4.30448">
        <ele>9.5</ele>
        <time>2020-06-10T08:11:53Z</time>
      </trkpt>
      <trkpt lat="48.62915" lon="-4.30439">
        <ele>9.5</ele>
        <time>2020-06-10T08:11:54Z</time>
      </trkpt>
      <trkpt lat="48.62914" lon="-4.3043">
        <ele>9.4</ele>
        <time>2020-06-10T08:11:55Z</time>
      </trkpt>
      <trkpt lat="48.62912" lon="-4.30422">
        <ele>9.4</ele>
        <time>2020-06-10T08:11:56Z</time>
      </trkpt>
      <trkpt lat="48.6291" lon="-4.30416">
        <ele>9.3</ele>
        <time>2020-06-10T08:11:57Z</time>
      </trkpt>
      <trkpt lat="48.62908" lon="-4.30409">
        <ele>9.3</ele>
        <time>2020-06-10T08:11:58Z</time>
      </trkpt>
      <trkpt lat="48.62906" lon="-4.30402">
        <ele>9.3</ele>
        <time>2020-06-10T08:11:59Z</time>
      </trkpt>
      <trkpt lat="48.62904" lon="-4.30395">
        <ele>9.2</ele>
        <time>2020-06-10T08:12:00Z</time>
      </trkpt>
      <trkpt lat="48.62902" lon="-4.30386">
        <ele>9.2</ele>
        <time>2020-06-10T08:12:01Z</time>
      </trkpt>
      <trkpt lat="48.629" lon="-4.30377">
        <ele>9.1</ele>
        <time>2020-06-10T08:12:02Z</time>
      </trkpt>
      <trkpt lat="48.62897" lon="-4.30371">
        <ele>9.1</ele>
        <time>2020-06-10T08:12:03Z</time>
      </trkpt>
      <trkpt lat="48.62896" lon="-4.30363">
        <ele>9.1</ele>
        <time>2020-06-10T08:12:04Z</time>
      </trkpt>
      <trkpt lat="48.62896" lon="-4.30357">
        <ele>9.1</ele>
        <time>2020-06-10T08:12:05Z</time>
      </trkpt>
      <trkpt lat="48.62896" lon="-4.30349">
        <ele>9</ele>
        <time>2020-06-10T08:12:06Z</time>
      </trkpt>
      <trkpt lat="48.62897" lon="-4.30342">
        <ele>9</ele>
        <time>2020-06-10T08:12:07Z</time>
      </trkpt>
      <trkpt lat="48.62898" lon="-4.30334">
        <ele>9</ele>
        <time>2020-06-10T08:12:08Z</time>
      </trkpt>
      <trkpt lat="48.629" lon="-4.30326">
        <ele>9</ele>
        <time>2020-06-10T08:12:09Z</time>
      </trkpt>
      <trkpt lat="48.629" lon="-4.30318">
        <ele>9</ele>
        <time>2020-06-10T08:12:10Z</time>
      </trkpt>
      <trkpt lat="48.62901" lon="-4.3031">
        <ele>9</ele>
        <time>2020-06-10T08:12:11Z</time>
      </trkpt>
      <trkpt lat="48.62903" lon="-4.30302">
        <ele>9</ele>
        <time>2020-06-10T08:12:12Z</time>
      </trkpt>
      <trkpt lat="48.62903" lon="-4.30293">
        <ele>9</ele>
        <time>2020-06-10T08:12:13Z</time>
      </trkpt>
      <trkpt lat="48.62904" lon="-4.30286">
        <ele>9.1</ele>
        <time>2020-06-10T08:12:14Z</time>
      </trkpt>
      <trkpt lat="48.62905" lon="-4.30279">
        <ele>9.1</ele>
        <time>2020-06-10T08:12:15Z</time>
      </trkpt>
      <trkpt lat="48.62906" lon="-4.30271">
        <ele>9.2</ele>
        <time>2020-06-10T08:12:16Z</time>
      </trkpt>
      <trkpt lat="48.62906" lon="-4.30262">
        <ele>9.3</ele>
        <time>2020-06-10T08:12:17Z</time>
      </trkpt>
      <trkpt lat="48.62906" lon="-4.30254">
        <ele>9.5</ele>
        <time>2020-06-10T08:12:18Z</time>
      </trkpt>
      <trkpt lat="48.62905" lon="-4.30247">
        <ele>9.5</ele>
        <time>2020-06-10T08:12:19Z</time>
      </trkpt>
      <trkpt lat="48.62905" lon="-4.30239">
        <ele>9.5</ele>
        <time>2020-06-10T08:12:20Z</time>
      </trkpt>
      <trkpt lat="48.62905" lon="-4.3023">
        <ele>9.6</ele>
        <time>2020-06-10T08:12:21Z</time>
      </trkpt>
      <trkpt lat="48.62904" lon="-4.30222">
        <ele>9.7</ele>
        <time>2020-06-10T08:12:22Z</time>
      </trkpt>
      <trkpt lat="48.62904" lon="-4.30214">
        <ele>9.8</ele>
        <time>2020-06-10T08:12:23Z</time>
      </trkpt>
      <trkpt lat="48.62903" lon="-4.30206">
        <ele>9.9</ele>
        <time>2020-06-10T08:12:24Z</time>
      </trkpt>
      <trkpt lat="48.62902" lon="-4.30199">
        <ele>9.9</ele>
        <time>2020-06-10T08:12:25Z</time>
      </trkpt>
      <trkpt lat="48.62901" lon="-4.30191">
        <ele>10</ele>
        <time>2020-06-10T08:12:26Z</time>
      </trkpt>
      <trkpt lat="48.629" lon="-4.30186">
        <ele>10.1</ele>
        <time>2020-06-10T08:12:27Z</time>
      </trkpt>
      <trkpt lat="48.62898" lon="-4.30177">
        <ele>10.2</ele>
        <time>2020-06-10T08:12:28Z</time>
      </trkpt>
      <trkpt lat="48.62897" lon="-4.3017">
        <ele>10.3</ele>
        <time>2020-06-10T08:12:29Z</time>
      </trkpt>
      <trkpt lat="48.62896" lon="-4.30164">
        <ele>10.3</ele>
        <time>2020-06-10T08:12:30Z</time>
      </trkpt>
      <trkpt lat="48.62896" lon="-4.3016">
        <ele>10.4</ele>
        <time>2020-06-10T08:12:31Z</time>
      </trkpt>
      <trkpt lat="48.62895" lon="-4.30153">
        <ele>10.4</ele>
        <time>2020-06-10T08:12:32Z</time>
      </trkpt>
      <trkpt lat="48.62895" lon="-4.30146">
        <ele>10.5</ele>
        <time>2020-06-10T08:12:33Z</time>
      </trkpt>
      <trkpt lat="48.62894" lon="-4.3014">
        <ele>10.6</ele>
        <time>2020-06-10T08:12:34Z</time>
      </trkpt>
      <trkpt lat="48.62894" lon="-4.30135">
        <ele>10.6</ele>
        <time>2020-06-10T08:12:35Z</time>
      </trkpt>
      <trkpt lat="48.62893" lon="-4.3013">
        <ele>10.6</ele>
        <time>2020-06-10T08:12:36Z</time>
      </trkpt>
      <trkpt lat="48.62892" lon="-4.30125">
        <ele>10.7</ele>
        <time>2020-06-10T08:12:37Z</time>
      </trkpt>
      <trkpt lat="48.62892" lon="-4.30119">
        <ele>10.7</ele>
        <time>2020-06-10T08:12:38Z</time>
      </trkpt>
      <trkpt lat="48.62892" lon="-4.30115">
        <ele>10.7</ele>
        <time>2020-06-10T08:12:39Z</time>
      </trkpt>
      <trkpt lat="48.62892" lon="-4.30111">
        <ele>10.7</ele>
        <time>2020-06-10T08:12:40Z</time>
      </trkpt>
      <trkpt lat="48.62895" lon="-4.30107">
        <ele>10.8</ele>
        <time>2020-06-10T08:12:41Z</time>
      </trkpt>
      <trkpt lat="48.62896" lon="-4.30104">
        <ele>10.8</ele>
        <time>2020-06-10T08:12:42Z</time>
      </trkpt>
      <trkpt lat="48.62897" lon="-4.30103">
        <ele>10.8</ele>
        <time>2020-06-10T08:12:43Z</time>
      </trkpt>
      <trkpt lat="48.62898" lon="-4.30102">
        <ele>10.8</ele>
        <time>2020-06-10T08:12:44Z</time>
      </trkpt>
      <trkpt lat="48.62898" lon="-4.30101">
        <ele>10.8</ele>
        <time>2020-06-10T08:12:45Z</time>
      </trkpt>
      <trkpt lat="48.62898" lon="-4.30102">
        <ele>10.8</ele>
        <time>2020-06-10T08:12:46Z</time>
      </trkpt>
      <trkpt lat="48.62898" lon="-4.30101">
        <ele>10.8</ele>
        <time>2020-06-10T08:12:47Z</time>
      </trkpt>
      <trkpt lat="48.62898" lon="-4.30102">
        <ele>10.8</ele>
        <time>2020-06-10T08:12:48Z</time>
      </trkpt>
      <trkpt lat="48.62898" lon="-4.30102">
        <ele>10.8</ele>
        <time>2020-06-10T08:12:49Z</time>
      </trkpt>
      <trkpt lat="48.62898" lon="-4.30103">
        <ele>10.8</ele>
        <time>2020-06-10T08:12:50Z</time>
      </trkpt>
      <trkpt lat="48.62898" lon="-4.30103">
        <ele>10.8</ele>
        <time>2020-06-10T08:12:51Z</time>
      </trkpt>
      <trkpt lat="48.62898" lon="-4.30104">
        <ele>10.8</ele>
        <time>2020-06-10T08:12:52Z</time>
      </trkpt>
      <trkpt lat="48.62899" lon="-4.30103">
        <ele>10.8</ele>
        <time>2020-06-10T08:12:53Z</time>
      </trkpt>
      <trkpt lat="48.62899" lon="-4.30104">
        <ele>10.8</ele>
        <time>2020-06-10T08:12:54Z</time>
      </trkpt>
      <trkpt lat="48.62899" lon="-4.30104">
        <ele>10.8</ele>
        <time>2020-06-10T08:12:55Z</time>
      </trkpt>
      <trkpt lat="48.62899" lon="-4.30105">
        <ele>10.8</ele>
        <time>2020-06-10T08:12:56Z</time>
      </trkpt>
      <trkpt lat="48.62894" lon="-4.30103">
        <ele>10.9</ele>
        <time>2020-06-10T08:13:10Z</time>
      </trkpt>
      <trkpt lat="48.62892" lon="-4.30104">
        <ele>10.9</ele>
        <time>2020-06-10T08:13:11Z</time>
      </trkpt>
      <trkpt lat="48.6289" lon="-4.30105">
        <ele>10.9</ele>
        <time>2020-06-10T08:13:12Z</time>
      </trkpt>
      <trkpt lat="48.62889" lon="-4.30106">
        <ele>10.9</ele>
        <time>2020-06-10T08:13:13Z</time>
      </trkpt>
      <trkpt lat="48.62887" lon="-4.30106">
        <ele>10.9</ele>
        <time>2020-06-10T08:13:14Z</time>
      </trkpt>
      <trkpt lat="48.62885" lon="-4.30107">
        <ele>10.9</ele>
        <time>2020-06-10T08:13:15Z</time>
      </trkpt>
      <trkpt lat="48.62884" lon="-4.30107">
        <ele>10.9</ele>
        <time>2020-06-10T08:13:16Z</time>
      </trkpt>
      <trkpt lat="48.62883" lon="-4.30108">
        <ele>10.9</ele>
        <time>2020-06-10T08:13:17Z</time>
      </trkpt>
      <trkpt lat="48.62881" lon="-4.30105">
        <ele>11</ele>
        <time>2020-06-10T08:13:18Z</time>
      </trkpt>
      <trkpt lat="48.6288" lon="-4.30104">
        <ele>11</ele>
        <time>2020-06-10T08:13:19Z</time>
      </trkpt>
      <trkpt lat="48.62878" lon="-4.30103">
        <ele>11</ele>
        <time>2020-06-10T08:13:20Z</time>
      </trkpt>
      <trkpt lat="48.62874" lon="-4.30101">
        <ele>11</ele>
        <time>2020-06-10T08:13:21Z</time>
      </trkpt>
      <trkpt lat="48.62872" lon="-4.301">
        <ele>11.1</ele>
        <time>2020-06-10T08:13:22Z</time>
      </trkpt>
      <trkpt lat="48.62869" lon="-4.30098">
        <ele>11.1</ele>
        <time>2020-06-10T08:13:23Z</time>
      </trkpt>
      <trkpt lat="48.62868" lon="-4.30098">
        <ele>11.1</ele>
        <time>2020-06-10T08:13:24Z</time>
      </trkpt>
      <trkpt lat="48.62866" lon="-4.30098">
        <ele>11.1</ele>
        <time>2020-06-10T08:13:25Z</time>
      </trkpt>
      <trkpt lat="48.62863" lon="-4.30096">
        <ele>11.2</ele>
        <time>2020-06-10T08:13:26Z</time>
      </trkpt>
      <trkpt lat="48.62862" lon="-4.30094">
        <ele>11.2</ele>
        <time>2020-06-10T08:13:27Z</time>
      </trkpt>
      <trkpt lat="48.62859" lon="-4.30093">
        <ele>11.2</ele>
        <time>2020-06-10T08:13:28Z</time>
      </trkpt>
      <trkpt lat="48.62858" lon="-4.30092">
        <ele>11.2</ele>
        <time>2020-06-10T08:13:29Z</time>
      </trkpt>
      <trkpt lat="48.62853" lon="-4.3009">
        <ele>11.2</ele>
        <time>2020-06-10T08:13:30Z</time>
      </trkpt>
      <trkpt lat="48.62851" lon="-4.30089">
        <ele>11.2</ele>
        <time>2020-06-10T08:13:31Z</time>
      </trkpt>
      <trkpt lat="48.62848" lon="-4.30085">
        <ele>11.2</ele>
        <time>2020-06-10T08:13:32Z</time>
      </trkpt>
      <trkpt lat="48.62846" lon="-4.30084">
        <ele>11.2</ele>
        <time>2020-06-10T08:13:33Z</time>
      </trkpt>
      <trkpt lat="48.62845" lon="-4.3008">
        <ele>11.2</ele>
        <time>2020-06-10T08:13:34Z</time>
      </trkpt>
      <trkpt lat="48.62843" lon="-4.30075">
        <ele>11.1</ele>
        <time>2020-06-10T08:13:35Z</time>
      </trkpt>
      <trkpt lat="48.62841" lon="-4.30072">
        <ele>11.1</ele>
        <time>2020-06-10T08:13:36Z</time>
      </trkpt>
      <trkpt lat="48.62839" lon="-4.30067">
        <ele>11.1</ele>
        <time>2020-06-10T08:13:37Z</time>
      </trkpt>
      <trkpt lat="48.62838" lon="-4.30065">
        <ele>11</ele>
        <time>2020-06-10T08:13:38Z</time>
      </trkpt>
      <trkpt lat="48.62837" lon="-4.30059">
        <ele>11</ele>
        <time>2020-06-10T08:13:39Z</time>
      </trkpt>
      <trkpt lat="48.62835" lon="-4.30054">
        <ele>10.9</ele>
        <time>2020-06-10T08:13:40Z</time>
      </trkpt>
      <trkpt lat="48.62834" lon="-4.30052">
        <ele>10.9</ele>
        <time>2020-06-10T08:13:41Z</time>
      </trkpt>
      <trkpt lat="48.62833" lon="-4.30047">
        <ele>10.8</ele>
        <time>2020-06-10T08:13:42Z</time>
      </trkpt>
      <trkpt lat="48.62831" lon="-4.30043">
        <ele>10.8</ele>
        <time>2020-06-10T08:13:43Z</time>
      </trkpt>
      <trkpt lat="48.6283" lon="-4.30036">
        <ele>10.7</ele>
        <time>2020-06-10T08:13:44Z</time>
      </trkpt>
      <trkpt lat="48.62829" lon="-4.30034">
        <ele>10.6</ele>
        <time>2020-06-10T08:13:45Z</time>
      </trkpt>
      <trkpt lat="48.62828" lon="-4.30029">
        <ele>10.6</ele>
        <time>2020-06-10T08:13:46Z</time>
      </trkpt>
      <trkpt lat="48.62827" lon="-4.30025">
        <ele>10.5</ele>
        <time>2020-06-10T08:13:47Z</time>
      </trkpt>
      <trkpt lat="48.62827" lon="-4.3002">
        <ele>10.5</ele>
        <time>2020-06-10T08:13:48Z</time>
      </trkpt>
      <trkpt lat="48.62826" lon="-4.30013">
        <ele>10.4</ele>
        <time>2020-06-10T08:13:49Z</time>
      </trkpt>
      <trkpt lat="48.62825" lon="-4.30008">
        <ele>10.4</ele>
        <time>2020-06-10T08:13:50Z</time>
      </trkpt>
      <trkpt lat="48.62824" lon="-4.3">
        <ele>10.4</ele>
        <time>2020-06-10T08:13:51Z</time>
      </trkpt>
      <trkpt lat="48.62823" lon="-4.29995">
        <ele>10.3</ele>
        <time>2020-06-10T08:13:52Z</time>
      </trkpt>
      <trkpt lat="48.62822" lon="-4.29989">
        <ele>10.3</ele>
        <time>2020-06-10T08:13:53Z</time>
      </trkpt>
      <trkpt lat="48.62821" lon="-4.29983">
        <ele>10.3</ele>
        <time>2020-06-10T08:13:54Z</time>
      </trkpt>
      <trkpt lat="48.6282" lon="-4.29977">
        <ele>10.2</ele>
        <time>2020-06-10T08:13:55Z</time>
      </trkpt>
      <trkpt lat="48.62818" lon="-4.2997">
        <ele>10.2</ele>
        <time>2020-06-10T08:13:56Z</time>
      </trkpt>
      <trkpt lat="48.62816" lon="-4.29965">
        <ele>10.2</ele>
        <time>2020-06-10T08:13:57Z</time>
      </trkpt>
      <trkpt lat="48.62814" lon="-4.29959">
        <ele>10.2</ele>
        <time>2020-06-10T08:13:58Z</time>
      </trkpt>
      <trkpt lat="48.62812" lon="-4.29953">
        <ele>10.2</ele>
        <time>2020-06-10T08:13:59Z</time>
      </trkpt>
      <trkpt lat="48.62811" lon="-4.29947">
        <ele>10.2</ele>
        <time>2020-06-10T08:14:00Z</time>
      </trkpt>
      <trkpt lat="48.62808" lon="-4.2994">
        <ele>10.3</ele>
        <time>2020-06-10T08:14:01Z</time>
      </trkpt>
      <trkpt lat="48.62805" lon="-4.29934">
        <ele>10.3</ele>
        <time>2020-06-10T08:14:02Z</time>
      </trkpt>
      <trkpt lat="48.62802" lon="-4.29929">
        <ele>10.3</ele>
        <time>2020-06-10T08:14:03Z</time>
      </trkpt>
      <trkpt lat="48.62799" lon="-4.29924">
        <ele>10.4</ele>
        <time>2020-06-10T08:14:04Z</time>
      </trkpt>
      <trkpt lat="48.62796" lon="-4.29918">
        <ele>10.5</ele>
        <time>2020-06-10T08:14:05Z</time>
      </trkpt>
      <trkpt lat="48.62793" lon="-4.29912">
        <ele>10.5</ele>
        <time>2020-06-10T08:14:06Z</time>
      </trkpt>
      <trkpt lat="48.62791" lon="-4.29906">
        <ele>10.6</ele>
        <time>2020-06-10T08:14:07Z</time>
      </trkpt>
      <trkpt lat="48.6279" lon="-4.299">
        <ele>10.6</ele>
        <time>2020-06-10T08:14:08Z</time>
      </trkpt>
      <trkpt lat="48.62788" lon="-4.29895">
        <ele>10.6</ele>
        <time>2020-06-10T08:14:09Z</time>
      </trkpt>
      <trkpt lat="48.62787" lon="-4.2989">
        <ele>10.7</ele>
        <time>2020-06-10T08:14:10Z</time>
      </trkpt>
      <trkpt lat="48.62784" lon="-4.29885">
        <ele>10.7</ele>
        <time>2020-06-10T08:14:11Z</time>
      </trkpt>
      <trkpt lat="48.62782" lon="-4.29881">
        <ele>10.7</ele>
        <time>2020-06-10T08:14:12Z</time>
      </trkpt>
      <trkpt lat="48.62779" lon="-4.29878">
        <ele>10.8</ele>
        <time>2020-06-10T08:14:13Z</time>
      </trkpt>
      <trkpt lat="48.62776" lon="-4.29876">
        <ele>10.8</ele>
        <time>2020-06-10T08:14:14Z</time>
      </trkpt>
      <trkpt lat="48.62773" lon="-4.29873">
        <ele>10.9</ele>
        <time>2020-06-10T08:14:15Z</time>
      </trkpt>
      <trkpt lat="48.6277" lon="-4.29871">
        <ele>10.9</ele>
        <time>2020-06-10T08:14:16Z</time>
      </trkpt>
      <trkpt lat="48.62767" lon="-4.29871">
        <ele>10.9</ele>
        <time>2020-06-10T08:14:17Z</time>
      </trkpt>
      <trkpt lat="48.62762" lon="-4.2987">
        <ele>11</ele>
        <time>2020-06-10T08:14:18Z</time>
      </trkpt>
      <trkpt lat="48.62758" lon="-4.2987">
        <ele>11.1</ele>
        <time>2020-06-10T08:14:19Z</time>
      </trkpt>
      <trkpt lat="48.62754" lon="-4.29869">
        <ele>11.1</ele>
        <time>2020-06-10T08:14:20Z</time>
      </trkpt>
      <trkpt lat="48.6275" lon="-4.29868">
        <ele>11.2</ele>
        <time>2020-06-10T08:14:21Z</time>
      </trkpt>
      <trkpt lat="48.62743" lon="-4.29869">
        <ele>11.4</ele>
        <time>2020-06-10T08:14:22Z</time>
      </trkpt>
      <trkpt lat="48.62738" lon="-4.29869">
        <ele>11.5</ele>
        <time>2020-06-10T08:14:23Z</time>
      </trkpt>
      <trkpt lat="48.62733" lon="-4.29868">
        <ele>11.6</ele>
        <time>2020-06-10T08:14:24Z</time>
      </trkpt>
      <trkpt lat="48.62728" lon="-4.29867">
        <ele>11.6</ele>
        <time>2020-06-10T08:14:25Z</time>
      </trkpt>
      <trkpt lat="48.62723" lon="-4.29866">
        <ele>11.7</ele>
        <time>2020-06-10T08:14:26Z</time>
      </trkpt>
      <trkpt lat="48.62718" lon="-4.29864">
        <ele>11.8</ele>
        <time>2020-06-10T08:14:27Z</time>
      </trkpt>
      <trkpt lat="48.62713" lon="-4.29863">
        <ele>11.9</ele>
        <time>2020-06-10T08:14:28Z</time>
      </trkpt>
      <trkpt lat="48.62708" lon="-4.29863">
        <ele>12</ele>
        <time>2020-06-10T08:14:29Z</time>
      </trkpt>
      <trkpt lat="48.62703" lon="-4.29861">
        <ele>12.1</ele>
        <time>2020-06-10T08:14:30Z</time>
      </trkpt>
      <trkpt lat="48.62699" lon="-4.29861">
        <ele>12.2</ele>
        <time>2020-06-10T08:14:31Z</time>
      </trkpt>
      <trkpt lat="48.62695" lon="-4.2986">
        <ele>12.3</ele>
        <time>2020-06-10T08:14:32Z</time>
      </trkpt>
      <trkpt lat="48.6269" lon="-4.29858">
        <ele>12.4</ele>
        <time>2020-06-10T08:14:33Z</time>
      </trkpt>
      <trkpt lat="48.62685" lon="-4.29856">
        <ele>12.5</ele>
        <time>2020-06-10T08:14:34Z</time>
      </trkpt>
      <trkpt lat="48.62681" lon="-4.29855">
        <ele>12.6</ele>
        <time>2020-06-10T08:14:35Z</time>
      </trkpt>
      <trkpt lat="48.62677" lon="-4.29854">
        <ele>12.7</ele>
        <time>2020-06-10T08:14:36Z</time>
      </trkpt>
      <trkpt lat="48.62673" lon="-4.29853">
        <ele>12.9</ele>
        <time>2020-06-10T08:14:37Z</time>
      </trkpt>
      <trkpt lat="48.62669" lon="-4.29852">
        <ele>13</ele>
        <time>2020-06-10T08:14:38Z</time>
      </trkpt>
      <trkpt lat="48.62665" lon="-4.29851">
        <ele>13.1</ele>
        <time>2020-06-10T08:14:39Z</time>
      </trkpt>
      <trkpt lat="48.62661" lon="-4.2985">
        <ele>13.2</ele>
        <time>2020-06-10T08:14:40Z</time>
      </trkpt>
      <trkpt lat="48.62657" lon="-4.2985">
        <ele>13.3</ele>
        <time>2020-06-10T08:14:41Z</time>
      </trkpt>
      <trkpt lat="48.62653" lon="-4.29849">
        <ele>13.4</ele>
        <time>2020-06-10T08:14:42Z</time>
      </trkpt>
      <trkpt lat="48.62649" lon="-4.29848">
        <ele>13.5</ele>
        <time>2020-06-10T08:14:43Z</time>
      </trkpt>
      <trkpt lat="48.62646" lon="-4.29847">
        <ele>13.6</ele>
        <time>2020-06-10T08:14:44Z</time>
      </trkpt>
      <trkpt lat="48.62642" lon="-4.29847">
        <ele>13.7</ele>
        <time>2020-06-10T08:14:45Z</time>
      </trkpt>
      <trkpt lat="48.62639" lon="-4.29846">
        <ele>13.8</ele>
        <time>2020-06-10T08:14:46Z</time>
      </trkpt>
      <trkpt lat="48.62636" lon="-4.29844">
        <ele>13.9</ele>
        <time>2020-06-10T08:14:47Z</time>
      </trkpt>
      <trkpt lat="48.62634" lon="-4.2984">
        <ele>14</ele>
        <time>2020-06-10T08:14:48Z</time>
      </trkpt>
      <trkpt lat="48.62631" lon="-4.29837">
        <ele>14.1</ele>
        <time>2020-06-10T08:14:49Z</time>
      </trkpt>
      <trkpt lat="48.62627" lon="-4.29833">
        <ele>14.5</ele>
        <time>2020-06-10T08:14:50Z</time>
      </trkpt>
      <trkpt lat="48.62624" lon="-4.29828">
        <ele>14.6</ele>
        <time>2020-06-10T08:14:51Z</time>
      </trkpt>
      <trkpt lat="48.62622" lon="-4.29823">
        <ele>14.7</ele>
        <time>2020-06-10T08:14:52Z</time>
      </trkpt>
      <trkpt lat="48.6262" lon="-4.29818">
        <ele>14.8</ele>
        <time>2020-06-10T08:14:53Z</time>
      </trkpt>
      <trkpt lat="48.62619" lon="-4.29813">
        <ele>14.9</ele>
        <time>2020-06-10T08:14:54Z</time>
      </trkpt>
      <trkpt lat="48.62618" lon="-4.29808">
        <ele>15</ele>
        <time>2020-06-10T08:14:55Z</time>
      </trkpt>
      <trkpt lat="48.62617" lon="-4.29803">
        <ele>15.1</ele>
        <time>2020-06-10T08:14:56Z</time>
      </trkpt>
      <trkpt lat="48.62616" lon="-4.29799">
        <ele>15.3</ele>
        <time>2020-06-10T08:14:57Z</time>
      </trkpt>
      <trkpt lat="48.62614" lon="-4.29795">
        <ele>15.5</ele>
        <time>2020-06-10T08:14:58Z</time>
      </trkpt>
      <trkpt lat="48.62612" lon="-4.2979">
        <ele>15.6</ele>
        <time>2020-06-10T08:14:59Z</time>
      </trkpt>
      <trkpt lat="48.6261" lon="-4.29786">
        <ele>15.8</ele>
        <time>2020-06-10T08:15:00Z</time>
      </trkpt>
      <trkpt lat="48.6261" lon="-4.29781">
        <ele>16</ele>
        <time>2020-06-10T08:15:01Z</time>
      </trkpt>
      <trkpt lat="48.62609" lon="-4.29776">
        <ele>16.1</ele>
        <time>2020-06-10T08:15:02Z</time>
      </trkpt>
      <trkpt lat="48.62609" lon="-4.29772">
        <ele>16.3</ele>
        <time>2020-06-10T08:15:03Z</time>
      </trkpt>
      <trkpt lat="48.62608" lon="-4.29767">
        <ele>16.5</ele>
        <time>2020-06-10T08:15:04Z</time>
      </trkpt>
      <trkpt lat="48.62605" lon="-4.29763">
        <ele>16.7</ele>
        <time>2020-06-10T08:15:05Z</time>
      </trkpt>
      <trkpt lat="48.62605" lon="-4.29761">
        <ele>16.8</ele>
        <time>2020-06-10T08:15:06Z</time>
      </trkpt>
      <trkpt lat="48.62604" lon="-4.29756">
        <ele>17</ele>
        <time>2020-06-10T08:15:07Z</time>
      </trkpt>
      <trkpt lat="48.62602" lon="-4.2975">
        <ele>17.3</ele>
        <time>2020-06-10T08:15:08Z</time>
      </trkpt>
      <trkpt lat="48.626" lon="-4.29744">
        <ele>17.6</ele>
        <time>2020-06-10T08:15:09Z</time>
      </trkpt>
      <trkpt lat="48.62599" lon="-4.29737">
        <ele>17.9</ele>
        <time>2020-06-10T08:15:10Z</time>
      </trkpt>
      <trkpt lat="48.62599" lon="-4.29731">
        <ele>18.2</ele>
        <time>2020-06-10T08:15:11Z</time>
      </trkpt>
      <trkpt lat="48.62598" lon="-4.29726">
        <ele>18.5</ele>
        <time>2020-06-10T08:15:12Z</time>
      </trkpt>
      <trkpt lat="48.62597" lon="-4.29721">
        <ele>18.8</ele>
        <time>2020-06-10T08:15:13Z</time>
      </trkpt>
      <trkpt lat="48.62595" lon="-4.29717">
        <ele>19</ele>
        <time>2020-06-10T08:15:14Z</time>
      </trkpt>
      <trkpt lat="48.62594" lon="-4.29712">
        <ele>19.3</ele>
        <time>2020-06-10T08:15:15Z</time>
      </trkpt>
      <trkpt lat="48.62594" lon="-4.29708">
        <ele>19.5</ele>
        <time>2020-06-10T08:15:16Z</time>
      </trkpt>
      <trkpt lat="48.62593" lon="-4.29702">
        <ele>19.7</ele>
        <time>2020-06-10T08:15:17Z</time>
      </trkpt>
      <trkpt lat="48.62592" lon="-4.29698">
        <ele>20</ele>
        <time>2020-06-10T08:15:18Z</time>
      </trkpt>
      <trkpt lat="48.62592" lon="-4.29693">
        <ele>20.2</ele>
        <time>2020-06-10T08:15:19Z</time>
      </trkpt>
      <trkpt lat="48.62591" lon="-4.29689">
        <ele>20.4</ele>
        <time>2020-06-10T08:15:20Z</time>
      </trkpt>
      <trkpt lat="48.6259" lon="-4.29685">
        <ele>20.7</ele>
        <time>2020-06-10T08:15:21Z</time>
      </trkpt>
      <trkpt lat="48.62589" lon="-4.29681">
        <ele>20.9</ele>
        <time>2020-06-10T08:15:22Z</time>
      </trkpt>
      <trkpt lat="48.62589" lon="-4.29676">
        <ele>21.1</ele>
        <time>2020-06-10T08:15:23Z</time>
      </trkpt>
      <trkpt lat="48.62589" lon="-4.29671">
        <ele>21.4</ele>
        <time>2020-06-10T08:15:24Z</time>
      </trkpt>
      <trkpt lat="48.62589" lon="-4.29665">
        <ele>21.6</ele>
        <time>2020-06-10T08:15:25Z</time>
      </trkpt>
      <trkpt lat="48.62589" lon="-4.29664">
        <ele>21.7</ele>
        <time>2020-06-10T08:15:26Z</time>
      </trkpt>
      <trkpt lat="48.62589" lon="-4.2966">
        <ele>21.9</ele>
        <time>2020-06-10T08:15:27Z</time>
      </trkpt>
      <trkpt lat="48.62589" lon="-4.29654">
        <ele>22.2</ele>
        <time>2020-06-10T08:15:28Z</time>
      </trkpt>
      <trkpt lat="48.62589" lon="-4.29652">
        <ele>22.3</ele>
        <time>2020-06-10T08:15:29Z</time>
      </trkpt>
      <trkpt lat="48.62588" lon="-4.29647">
        <ele>22.5</ele>
        <time>2020-06-10T08:15:30Z</time>
      </trkpt>
      <trkpt lat="48.62587" lon="-4.29642">
        <ele>22.7</ele>
        <time>2020-06-10T08:15:31Z</time>
      </trkpt>
      <trkpt lat="48.62587" lon="-4.2964">
        <ele>22.8</ele>
        <time>2020-06-10T08:15:32Z</time>
      </trkpt>
      <trkpt lat="48.62586" lon="-4.29636">
        <ele>23</ele>
        <time>2020-06-10T08:15:33Z</time>
      </trkpt>
      <trkpt lat="48.62586" lon="-4.29631">
        <ele>23.2</ele>
        <time>2020-06-10T08:15:34Z</time>
      </trkpt>
      <trkpt lat="48.62585" lon="-4.29625">
        <ele>23.4</ele>
        <time>2020-06-10T08:15:35Z</time>
      </trkpt>
      <trkpt lat="48.62585" lon="-4.29619">
        <ele>23.7</ele>
        <time>2020-06-10T08:15:36Z</time>
      </trkpt>
      <trkpt lat="48.62584" lon="-4.29614">
        <ele>23.9</ele>
        <time>2020-06-10T08:15:37Z</time>
      </trkpt>
      <trkpt lat="48.62584" lon="-4.29608">
        <ele>24</ele>
        <time>2020-06-10T08:15:38Z</time>
      </trkpt>
      <trkpt lat="48.62584" lon="-4.29602">
        <ele>24.2</ele>
        <time>2020-06-10T08:15:39Z</time>
      </trkpt>
      <trkpt lat="48.62584" lon="-4.29596">
        <ele>24.4</ele>
        <time>2020-06-10T08:15:40Z</time>
      </trkpt>
      <trkpt lat="48.62583" lon="-4.29591">
        <ele>24.6</ele>
        <time>2020-06-10T08:15:41Z</time>
      </trkpt>
      <trkpt lat="48.62582" lon="-4.29586">
        <ele>24.8</ele>
        <time>2020-06-10T08:15:42Z</time>
      </trkpt>
      <trkpt lat="48.62581" lon="-4.2958">
        <ele>25.1</ele>
        <time>2020-06-10T08:15:43Z</time>
      </trkpt>
      <trkpt lat="48.6258" lon="-4.29573">
        <ele>25.3</ele>
        <time>2020-06-10T08:15:44Z</time>
      </trkpt>
      <trkpt lat="48.62579" lon="-4.29567">
        <ele>25.5</ele>
        <time>2020-06-10T08:15:45Z</time>
      </trkpt>
      <trkpt lat="48.62578" lon="-4.2956">
        <ele>25.7</ele>
        <time>2020-06-10T08:15:46Z</time>
      </trkpt>
      <trkpt lat="48.62578" lon="-4.29553">
        <ele>25.9</ele>
        <time>2020-06-10T08:15:47Z</time>
      </trkpt>
      <trkpt lat="48.62577" lon="-4.29547">
        <ele>26.1</ele>
        <time>2020-06-10T08:15:48Z</time>
      </trkpt>
      <trkpt lat="48.62577" lon="-4.29541">
        <ele>26.3</ele>
        <time>2020-06-10T08:15:49Z</time>
      </trkpt>
      <trkpt lat="48.62576" lon="-4.29535">
        <ele>26.4</ele>
        <time>2020-06-10T08:15:50Z</time>
      </trkpt>
      <trkpt lat="48.62576" lon="-4.2953">
        <ele>26.5</ele>
        <time>2020-06-10T08:15:51Z</time>
      </trkpt>
      <trkpt lat="48.62576" lon="-4.29524">
        <ele>26.7</ele>
        <time>2020-06-10T08:15:52Z</time>
      </trkpt>
      <trkpt lat="48.62575" lon="-4.29517">
        <ele>26.9</ele>
        <time>2020-06-10T08:15:53Z</time>
      </trkpt>
      <trkpt lat="48.62573" lon="-4.29511">
        <ele>27</ele>
        <time>2020-06-10T08:15:54Z</time>
      </trkpt>
      <trkpt lat="48.62572" lon="-4.29505">
        <ele>27.2</ele>
        <time>2020-06-10T08:15:55Z</time>
      </trkpt>
      <trkpt lat="48.62571" lon="-4.29498">
        <ele>27.3</ele>
        <time>2020-06-10T08:15:56Z</time>
      </trkpt>
      <trkpt lat="48.62571" lon="-4.29491">
        <ele>27.5</ele>
        <time>2020-06-10T08:15:57Z</time>
      </trkpt>
      <trkpt lat="48.6257" lon="-4.29484">
        <ele>27.6</ele>
        <time>2020-06-10T08:15:58Z</time>
      </trkpt>
      <trkpt lat="48.62569" lon="-4.29478">
        <ele>27.8</ele>
        <time>2020-06-10T08:15:59Z</time>
      </trkpt>
      <trkpt lat="48.62568" lon="-4.29472">
        <ele>27.9</ele>
        <time>2020-06-10T08:16:00Z</time>
      </trkpt>
      <trkpt lat="48.62567" lon="-4.29467">
        <ele>28</ele>
        <time>2020-06-10T08:16:01Z</time>
      </trkpt>
      <trkpt lat="48.62567" lon="-4.29462">
        <ele>28.1</ele>
        <time>2020-06-10T08:16:02Z</time>
      </trkpt>
      <trkpt lat="48.62566" lon="-4.29456">
        <ele>28.3</ele>
        <time>2020-06-10T08:16:03Z</time>
      </trkpt>
      <trkpt lat="48.62565" lon="-4.29455">
        <ele>28.3</ele>
        <time>2020-06-10T08:16:04Z</time>
      </trkpt>
      <trkpt lat="48.62564" lon="-4.29452">
        <ele>28.3</ele>
        <time>2020-06-10T08:16:05Z</time>
      </trkpt>
      <trkpt lat="48.62564" lon="-4.2945">
        <ele>28.4</ele>
        <time>2020-06-10T08:16:06Z</time>
      </trkpt>
      <trkpt lat="48.62563" lon="-4.29446">
        <ele>28.5</ele>
        <time>2020-06-10T08:16:07Z</time>
      </trkpt>
      <trkpt lat="48.62563" lon="-4.29444">
        <ele>28.5</ele>
        <time>2020-06-10T08:16:08Z</time>
      </trkpt>
      <trkpt lat="48.62562" lon="-4.2944">
        <ele>28.6</ele>
        <time>2020-06-10T08:16:09Z</time>
      </trkpt>
      <trkpt lat="48.62561" lon="-4.29435">
        <ele>28.7</ele>
        <time>2020-06-10T08:16:10Z</time>
      </trkpt>
      <trkpt lat="48.62561" lon="-4.29433">
        <ele>28.7</ele>
        <time>2020-06-10T08:16:11Z</time>
      </trkpt>
      <trkpt lat="48.62561" lon="-4.2943">
        <ele>28.7</ele>
        <time>2020-06-10T08:16:12Z</time>
      </trkpt>
      <trkpt lat="48.6256" lon="-4.29428">
        <ele>28.8</ele>
        <time>2020-06-10T08:16:13Z</time>
      </trkpt>
      <trkpt lat="48.6256" lon="-4.29425">
        <ele>28.8</ele>
        <time>2020-06-10T08:16:14Z</time>
      </trkpt>
      <trkpt lat="48.6256" lon="-4.29423">
        <ele>28.8</ele>
        <time>2020-06-10T08:16:15Z</time>
      </trkpt>
      <trkpt lat="48.6256" lon="-4.29419">
        <ele>28.8</ele>
        <time>2020-06-10T08:16:16Z</time>
      </trkpt>
      <trkpt lat="48.6256" lon="-4.29417">
        <ele>28.8</ele>
        <time>2020-06-10T08:16:17Z</time>
      </trkpt>
      <trkpt lat="48.62559" lon="-4.29415">
        <ele>28.8</ele>
        <time>2020-06-10T08:16:18Z</time>
      </trkpt>
      <trkpt lat="48.62559" lon="-4.29412">
        <ele>28.8</ele>
        <time>2020-06-10T08:16:19Z</time>
      </trkpt>
      <trkpt lat="48.62558" lon="-4.2941">
        <ele>28.8</ele>
        <time>2020-06-10T08:16:20Z</time>
      </trkpt>
      <trkpt lat="48.62558" lon="-4.29407">
        <ele>28.8</ele>
        <time>2020-06-10T08:16:21Z</time>
      </trkpt>
      <trkpt lat="48.62558" lon="-4.29402">
        <ele>28.8</ele>
        <time>2020-06-10T08:16:22Z</time>
      </trkpt>
      <trkpt lat="48.62558" lon="-4.294">
        <ele>28.8</ele>
        <time>2020-06-10T08:16:23Z</time>
      </trkpt>
      <trkpt lat="48.62558" lon="-4.29395">
        <ele>28.8</ele>
        <time>2020-06-10T08:16:24Z</time>
      </trkpt>
      <trkpt lat="48.62558" lon="-4.29393">
        <ele>28.8</ele>
        <time>2020-06-10T08:16:25Z</time>
      </trkpt>
      <trkpt lat="48.62558" lon="-4.29387">
        <ele>28.8</ele>
        <time>2020-06-10T08:16:26Z</time>
      </trkpt>
      <trkpt lat="48.62557" lon="-4.29385">
        <ele>28.8</ele>
        <time>2020-06-10T08:16:27Z</time>
      </trkpt>
      <trkpt lat="48.62557" lon="-4.2938">
        <ele>28.7</ele>
        <time>2020-06-10T08:16:28Z</time>
      </trkpt>
      <trkpt lat="48.62557" lon="-4.29378">
        <ele>28.7</ele>
        <time>2020-06-10T08:16:29Z</time>
      </trkpt>
      <trkpt lat="48.62557" lon="-4.29372">
        <ele>28.7</ele>
        <time>2020-06-10T08:16:30Z</time>
      </trkpt>
      <trkpt lat="48.62557" lon="-4.2937">
        <ele>28.7</ele>
        <time>2020-06-10T08:16:31Z</time>
      </trkpt>
      <trkpt lat="48.62557" lon="-4.29364">
        <ele>28.6</ele>
        <time>2020-06-10T08:16:32Z</time>
      </trkpt>
      <trkpt lat="48.62558" lon="-4.29358">
        <ele>28.5</ele>
        <time>2020-06-10T08:16:33Z</time>
      </trkpt>
      <trkpt lat="48.62558" lon="-4.29351">
        <ele>28.4</ele>
        <time>2020-06-10T08:16:34Z</time>
      </trkpt>
      <trkpt lat="48.62558" lon="-4.29345">
        <ele>28.4</ele>
        <time>2020-06-10T08:16:35Z</time>
      </trkpt>
      <trkpt lat="48.62558" lon="-4.29338">
        <ele>28.3</ele>
        <time>2020-06-10T08:16:36Z</time>
      </trkpt>
      <trkpt lat="48.62559" lon="-4.29331">
        <ele>28.2</ele>
        <time>2020-06-10T08:16:37Z</time>
      </trkpt>
      <trkpt lat="48.62559" lon="-4.29326">
        <ele>28.2</ele>
        <time>2020-06-10T08:16:38Z</time>
      </trkpt>
      <trkpt lat="48.62559" lon="-4.29319">
        <ele>28.1</ele>
        <time>2020-06-10T08:16:39Z</time>
      </trkpt>
      <trkpt lat="48.62559" lon="-4.29313">
        <ele>28</ele>
        <time>2020-06-10T08:16:40Z</time>
      </trkpt>
      <trkpt lat="48.62559" lon="-4.29306">
        <ele>28</ele>
        <time>2020-06-10T08:16:41Z</time>
      </trkpt>
      <trkpt lat="48.62559" lon="-4.293">
        <ele>27.9</ele>
        <time>2020-06-10T08:16:42Z</time>
      </trkpt>
      <trkpt lat="48.62559" lon="-4.29293">
        <ele>27.9</ele>
        <time>2020-06-10T08:16:43Z</time>
      </trkpt>
      <trkpt lat="48.6256" lon="-4.29285">
        <ele>27.8</ele>
        <time>2020-06-10T08:16:44Z</time>
      </trkpt>
      <trkpt lat="48.6256" lon="-4.29278">
        <ele>27.8</ele>
        <time>2020-06-10T08:16:45Z</time>
      </trkpt>
      <trkpt lat="48.6256" lon="-4.2927">
        <ele>27.8</ele>
        <time>2020-06-10T08:16:46Z</time>
      </trkpt>
      <trkpt lat="48.6256" lon="-4.29264">
        <ele>27.8</ele>
        <time>2020-06-10T08:16:47Z</time>
      </trkpt>
      <trkpt lat="48.6256" lon="-4.29257">
        <ele>27.8</ele>
        <time>2020-06-10T08:16:48Z</time>
      </trkpt>
      <trkpt lat="48.6256" lon="-4.2925">
        <ele>27.8</ele>
        <time>2020-06-10T08:16:49Z</time>
      </trkpt>
      <trkpt lat="48.6256" lon="-4.29244">
        <ele>27.8</ele>
        <time>2020-06-10T08:16:50Z</time>
      </trkpt>
      <trkpt lat="48.62561" lon="-4.29238">
        <ele>27.8</ele>
        <time>2020-06-10T08:16:51Z</time>
      </trkpt>
      <trkpt lat="48.62561" lon="-4.29232">
        <ele>27.8</ele>
        <time>2020-06-10T08:16:52Z</time>
      </trkpt>
      <trkpt lat="48.62562" lon="-4.29227">
        <ele>27.9</ele>
        <time>2020-06-10T08:16:53Z</time>
      </trkpt>
      <trkpt lat="48.62562" lon="-4.29222">
        <ele>27.9</ele>
        <time>2020-06-10T08:16:54Z</time>
      </trkpt>
      <trkpt lat="48.62562" lon="-4.29216">
        <ele>28</ele>
        <time>2020-06-10T08:16:55Z</time>
      </trkpt>
      <trkpt lat="48.62562" lon="-4.29211">
        <ele>28</ele>
        <time>2020-06-10T08:16:56Z</time>
      </trkpt>
      <trkpt lat="48.62562" lon="-4.29205">
        <ele>28.1</ele>
        <time>2020-06-10T08:16:57Z</time>
      </trkpt>
      <trkpt lat="48.62562" lon="-4.29199">
        <ele>28.1</ele>
        <time>2020-06-10T08:16:58Z</time>
      </trkpt>
      <trkpt lat="48.62561" lon="-4.29193">
        <ele>28.2</ele>
        <time>2020-06-10T08:16:59Z</time>
      </trkpt>
      <trkpt lat="48.62561" lon="-4.29186">
        <ele>28.2</ele>
        <time>2020-06-10T08:17:00Z</time>
      </trkpt>
      <trkpt lat="48.6256" lon="-4.29179">
        <ele>28.3</ele>
        <time>2020-06-10T08:17:01Z</time>
      </trkpt>
      <trkpt lat="48.6256" lon="-4.29173">
        <ele>28.3</ele>
        <time>2020-06-10T08:17:02Z</time>
      </trkpt>
      <trkpt lat="48.62559" lon="-4.29167">
        <ele>28.3</ele>
        <time>2020-06-10T08:17:03Z</time>
      </trkpt>
      <trkpt lat="48.62558" lon="-4.29161">
        <ele>28.2</ele>
        <time>2020-06-10T08:17:04Z</time>
      </trkpt>
      <trkpt lat="48.62558" lon="-4.29156">
        <ele>28.2</ele>
        <time>2020-06-10T08:17:05Z</time>
      </trkpt>
      <trkpt lat="48.62557" lon="-4.29149">
        <ele>28.1</ele>
        <time>2020-06-10T08:17:06Z</time>
      </trkpt>
      <trkpt lat="48.62555" lon="-4.29146">
        <ele>28</ele>
        <time>2020-06-10T08:17:07Z</time>
      </trkpt>
      <trkpt lat="48.62555" lon="-4.2914">
        <ele>27.9</ele>
        <time>2020-06-10T08:17:08Z</time>
      </trkpt>
      <trkpt lat="48.62554" lon="-4.29138">
        <ele>27.8</ele>
        <time>2020-06-10T08:17:09Z</time>
      </trkpt>
      <trkpt lat="48.62555" lon="-4.29133">
        <ele>27.7</ele>
        <time>2020-06-10T08:17:10Z</time>
      </trkpt>
      <trkpt lat="48.62555" lon="-4.29128">
        <ele>27.6</ele>
        <time>2020-06-10T08:17:11Z</time>
      </trkpt>
      <trkpt lat="48.62555" lon="-4.29123">
        <ele>27.4</ele>
        <time>2020-06-10T08:17:12Z</time>
      </trkpt>
      <trkpt lat="48.62555" lon="-4.29118">
        <ele>27.2</ele>
        <time>2020-06-10T08:17:13Z</time>
      </trkpt>
      <trkpt lat="48.62555" lon="-4.29112">
        <ele>26.9</ele>
        <time>2020-06-10T08:17:14Z</time>
      </trkpt>
      <trkpt lat="48.62555" lon="-4.29104">
        <ele>26.6</ele>
        <time>2020-06-10T08:17:15Z</time>
      </trkpt>
      <trkpt lat="48.62555" lon="-4.29094">
        <ele>26.1</ele>
        <time>2020-06-10T08:17:16Z</time>
      </trkpt>
      <trkpt lat="48.62554" lon="-4.29084">
        <ele>25.7</ele>
        <time>2020-06-10T08:17:17Z</time>
      </trkpt>
      <trkpt lat="48.62552" lon="-4.29075">
        <ele>25.2</ele>
        <time>2020-06-10T08:17:18Z</time>
      </trkpt>
      <trkpt lat="48.62548" lon="-4.29066">
        <ele>24.8</ele>
        <time>2020-06-10T08:17:19Z</time>
      </trkpt>
      <trkpt lat="48.62543" lon="-4.29058">
        <ele>24.2</ele>
        <time>2020-06-10T08:17:20Z</time>
      </trkpt>
      <trkpt lat="48.62537" lon="-4.29048">
        <ele>23.5</ele>
        <time>2020-06-10T08:17:21Z</time>
      </trkpt>
      <trkpt lat="48.62531" lon="-4.29038">
        <ele>22.9</ele>
        <time>2020-06-10T08:17:22Z</time>
      </trkpt>
      <trkpt lat="48.62524" lon="-4.29028">
        <ele>22.1</ele>
        <time>2020-06-10T08:17:23Z</time>
      </trkpt>
      <trkpt lat="48.62519" lon="-4.29015">
        <ele>21.3</ele>
        <time>2020-06-10T08:17:24Z</time>
      </trkpt>
      <trkpt lat="48.62514" lon="-4.29001">
        <ele>20.5</ele>
        <time>2020-06-10T08:17:25Z</time>
      </trkpt>
      <trkpt lat="48.62509" lon="-4.28988">
        <ele>19.7</ele>
        <time>2020-06-10T08:17:26Z</time>
      </trkpt>
      <trkpt lat="48.62505" lon="-4.28975">
        <ele>18.8</ele>
        <time>2020-06-10T08:17:27Z</time>
      </trkpt>
      <trkpt lat="48.62501" lon="-4.28961">
        <ele>17.9</ele>
        <time>2020-06-10T08:17:28Z</time>
      </trkpt>
      <trkpt lat="48.62496" lon="-4.28947">
        <ele>17.1</ele>
        <time>2020-06-10T08:17:29Z</time>
      </trkpt>
      <trkpt lat="48.62492" lon="-4.28933">
        <ele>16.3</ele>
        <time>2020-06-10T08:17:30Z</time>
      </trkpt>
      <trkpt lat="48.62487" lon="-4.28919">
        <ele>15.5</ele>
        <time>2020-06-10T08:17:31Z</time>
      </trkpt>
      <trkpt lat="48.62483" lon="-4.28905">
        <ele>14.8</ele>
        <time>2020-06-10T08:17:32Z</time>
      </trkpt>
      <trkpt lat="48.62479" lon="-4.2889">
        <ele>14.1</ele>
        <time>2020-06-10T08:17:33Z</time>
      </trkpt>
      <trkpt lat="48.62476" lon="-4.28875">
        <ele>13.4</ele>
        <time>2020-06-10T08:17:34Z</time>
      </trkpt>
      <trkpt lat="48.62473" lon="-4.2886">
        <ele>12.9</ele>
        <time>2020-06-10T08:17:35Z</time>
      </trkpt>
      <trkpt lat="48.62472" lon="-4.28845">
        <ele>12.3</ele>
        <time>2020-06-10T08:17:36Z</time>
      </trkpt>
      <trkpt lat="48.62471" lon="-4.2883">
        <ele>11.8</ele>
        <time>2020-06-10T08:17:37Z</time>
      </trkpt>
      <trkpt lat="48.62471" lon="-4.28815">
        <ele>11.3</ele>
        <time>2020-06-10T08:17:38Z</time>
      </trkpt>
      <trkpt lat="48.62471" lon="-4.288">
        <ele>10.9</ele>
        <time>2020-06-10T08:17:39Z</time>
      </trkpt>
      <trkpt lat="48.6247" lon="-4.28785">
        <ele>10.5</ele>
        <time>2020-06-10T08:17:40Z</time>
      </trkpt>
      <trkpt lat="48.6247" lon="-4.2877">
        <ele>10.2</ele>
        <time>2020-06-10T08:17:41Z</time>
      </trkpt>
      <trkpt lat="48.62468" lon="-4.28756">
        <ele>10</ele>
        <time>2020-06-10T08:17:42Z</time>
      </trkpt>
      <trkpt lat="48.62466" lon="-4.28741">
        <ele>9.7</ele>
        <time>2020-06-10T08:17:43Z</time>
      </trkpt>
      <trkpt lat="48.62463" lon="-4.28728">
        <ele>9.4</ele>
        <time>2020-06-10T08:17:44Z</time>
      </trkpt>
      <trkpt lat="48.62459" lon="-4.28715">
        <ele>9.2</ele>
        <time>2020-06-10T08:17:45Z</time>
      </trkpt>
      <trkpt lat="48.62453" lon="-4.28704">
        <ele>9</ele>
        <time>2020-06-10T08:17:46Z</time>
      </trkpt>
      <trkpt lat="48.62446" lon="-4.28696">
        <ele>8.7</ele>
        <time>2020-06-10T08:17:47Z</time>
      </trkpt>
      <trkpt lat="48.62439" lon="-4.28688">
        <ele>8.6</ele>
        <time>2020-06-10T08:17:48Z</time>
      </trkpt>
      <trkpt lat="48.62433" lon="-4.28679">
        <ele>8.4</ele>
        <time>2020-06-10T08:17:49Z</time>
      </trkpt>
      <trkpt lat="48.62427" lon="-4.28669">
        <ele>8.3</ele>
        <time>2020-06-10T08:17:50Z</time>
      </trkpt>
      <trkpt lat="48.62424" lon="-4.28658">
        <ele>8.3</ele>
        <time>2020-06-10T08:17:51Z</time>
      </trkpt>
      <trkpt lat="48.62421" lon="-4.28647">
        <ele>8.3</ele>
        <time>2020-06-10T08:17:52Z</time>
      </trkpt>
      <trkpt lat="48.62419" lon="-4.28636">
        <ele>8.3</ele>
        <time>2020-06-10T08:17:53Z</time>
      </trkpt>
      <trkpt lat="48.62417" lon="-4.28626">
        <ele>8.3</ele>
        <time>2020-06-10T08:17:54Z</time>
      </trkpt>
      <trkpt lat="48.62414" lon="-4.28615">
        <ele>8.2</ele>
        <time>2020-06-10T08:17:55Z</time>
      </trkpt>
      <trkpt lat="48.62413" lon="-4.28605">
        <ele>8.2</ele>
        <time>2020-06-10T08:17:56Z</time>
      </trkpt>
      <trkpt lat="48.6241" lon="-4.28596">
        <ele>8.2</ele>
        <time>2020-06-10T08:17:57Z</time>
      </trkpt>
      <trkpt lat="48.62408" lon="-4.28587">
        <ele>8.2</ele>
        <time>2020-06-10T08:17:58Z</time>
      </trkpt>
      <trkpt lat="48.62405" lon="-4.28578">
        <ele>8.2</ele>
        <time>2020-06-10T08:17:59Z</time>
      </trkpt>
      <trkpt lat="48.62402" lon="-4.2857">
        <ele>8.2</ele>
        <time>2020-06-10T08:18:00Z</time>
      </trkpt>
      <trkpt lat="48.62398" lon="-4.28563">
        <ele>8.2</ele>
        <time>2020-06-10T08:18:01Z</time>
      </trkpt>
      <trkpt lat="48.62394" lon="-4.28555">
        <ele>8.2</ele>
        <time>2020-06-10T08:18:02Z</time>
      </trkpt>
      <trkpt lat="48.62391" lon="-4.28549">
        <ele>8.2</ele>
        <time>2020-06-10T08:18:03Z</time>
      </trkpt>
      <trkpt lat="48.62386" lon="-4.28542">
        <ele>8.2</ele>
        <time>2020-06-10T08:18:04Z</time>
      </trkpt>
      <trkpt lat="48.62382" lon="-4.28536">
        <ele>8.3</ele>
        <time>2020-06-10T08:18:05Z</time>
      </trkpt>
      <trkpt lat="48.62378" lon="-4.28531">
        <ele>8.4</ele>
        <time>2020-06-10T08:18:06Z</time>
      </trkpt>
      <trkpt lat="48.62374" lon="-4.28526">
        <ele>8.5</ele>
        <time>2020-06-10T08:18:07Z</time>
      </trkpt>
      <trkpt lat="48.6237" lon="-4.28521">
        <ele>8.5</ele>
        <time>2020-06-10T08:18:08Z</time>
      </trkpt>
      <trkpt lat="48.62365" lon="-4.28517">
        <ele>8.6</ele>
        <time>2020-06-10T08:18:09Z</time>
      </trkpt>
      <trkpt lat="48.62361" lon="-4.28512">
        <ele>8.7</ele>
        <time>2020-06-10T08:18:10Z</time>
      </trkpt>
      <trkpt lat="48.62358" lon="-4.28507">
        <ele>8.8</ele>
        <time>2020-06-10T08:18:11Z</time>
      </trkpt>
      <trkpt lat="48.62355" lon="-4.28502">
        <ele>8.8</ele>
        <time>2020-06-10T08:18:12Z</time>
      </trkpt>
      <trkpt lat="48.62353" lon="-4.28495">
        <ele>8.8</ele>
        <time>2020-06-10T08:18:13Z</time>
      </trkpt>
      <trkpt lat="48.62352" lon="-4.28488">
        <ele>8.8</ele>
        <time>2020-06-10T08:18:14Z</time>
      </trkpt>
      <trkpt lat="48.62351" lon="-4.28481">
        <ele>8.8</ele>
        <time>2020-06-10T08:18:15Z</time>
      </trkpt>
      <trkpt lat="48.6235" lon="-4.28475">
        <ele>8.8</ele>
        <time>2020-06-10T08:18:16Z</time>
      </trkpt>
      <trkpt lat="48.62349" lon="-4.28468">
        <ele>8.8</ele>
        <time>2020-06-10T08:18:17Z</time>
      </trkpt>
      <trkpt lat="48.62348" lon="-4.28461">
        <ele>8.9</ele>
        <time>2020-06-10T08:18:18Z</time>
      </trkpt>
      <trkpt lat="48.62346" lon="-4.28455">
        <ele>8.8</ele>
        <time>2020-06-10T08:18:19Z</time>
      </trkpt>
      <trkpt lat="48.62345" lon="-4.28449">
        <ele>8.8</ele>
        <time>2020-06-10T08:18:20Z</time>
      </trkpt>
      <trkpt lat="48.62344" lon="-4.28442">
        <ele>8.8</ele>
        <time>2020-06-10T08:18:21Z</time>
      </trkpt>
      <trkpt lat="48.62342" lon="-4.28436">
        <ele>8.8</ele>
        <time>2020-06-10T08:18:22Z</time>
      </trkpt>
      <trkpt lat="48.6234" lon="-4.28431">
        <ele>8.8</ele>
        <time>2020-06-10T08:18:23Z</time>
      </trkpt>
      <trkpt lat="48.62338" lon="-4.28425">
        <ele>8.8</ele>
        <time>2020-06-10T08:18:24Z</time>
      </trkpt>
      <trkpt lat="48.62337" lon="-4.2842">
        <ele>8.7</ele>
        <time>2020-06-10T08:18:25Z</time>
      </trkpt>
      <trkpt lat="48.62336" lon="-4.28414">
        <ele>8.7</ele>
        <time>2020-06-10T08:18:26Z</time>
      </trkpt>
      <trkpt lat="48.62334" lon="-4.28409">
        <ele>8.7</ele>
        <time>2020-06-10T08:18:27Z</time>
      </trkpt>
      <trkpt lat="48.62332" lon="-4.28404">
        <ele>8.7</ele>
        <time>2020-06-10T08:18:28Z</time>
      </trkpt>
      <trkpt lat="48.62331" lon="-4.28399">
        <ele>8.7</ele>
        <time>2020-06-10T08:18:29Z</time>
      </trkpt>
      <trkpt lat="48.6233" lon="-4.28394">
        <ele>8.7</ele>
        <time>2020-06-10T08:18:30Z</time>
      </trkpt>
      <trkpt lat="48.62329" lon="-4.28389">
        <ele>8.7</ele>
        <time>2020-06-10T08:18:31Z</time>
      </trkpt>
      <trkpt lat="48.62327" lon="-4.28383">
        <ele>8.6</ele>
        <time>2020-06-10T08:18:32Z</time>
      </trkpt>
      <trkpt lat="48.62326" lon="-4.28379">
        <ele>8.6</ele>
        <time>2020-06-10T08:18:33Z</time>
      </trkpt>
      <trkpt lat="48.62326" lon="-4.28373">
        <ele>8.5</ele>
        <time>2020-06-10T08:18:34Z</time>
      </trkpt>
      <trkpt lat="48.62326" lon="-4.28367">
        <ele>8.5</ele>
        <time>2020-06-10T08:18:35Z</time>
      </trkpt>
      <trkpt lat="48.62327" lon="-4.28361">
        <ele>8.4</ele>
        <time>2020-06-10T08:18:36Z</time>
      </trkpt>
      <trkpt lat="48.62327" lon="-4.28354">
        <ele>8.3</ele>
        <time>2020-06-10T08:18:37Z</time>
      </trkpt>
      <trkpt lat="48.62327" lon="-4.28347">
        <ele>8.2</ele>
        <time>2020-06-10T08:18:38Z</time>
      </trkpt>
      <trkpt lat="48.62327" lon="-4.2834">
        <ele>8</ele>
        <time>2020-06-10T08:18:39Z</time>
      </trkpt>
      <trkpt lat="48.62327" lon="-4.28332">
        <ele>7.9</ele>
        <time>2020-06-10T08:18:40Z</time>
      </trkpt>
      <trkpt lat="48.62326" lon="-4.28324">
        <ele>7.7</ele>
        <time>2020-06-10T08:18:41Z</time>
      </trkpt>
      <trkpt lat="48.62325" lon="-4.28316">
        <ele>7.6</ele>
        <time>2020-06-10T08:18:42Z</time>
      </trkpt>
      <trkpt lat="48.62326" lon="-4.28308">
        <ele>7.5</ele>
        <time>2020-06-10T08:18:43Z</time>
      </trkpt>
      <trkpt lat="48.62326" lon="-4.283">
        <ele>7.4</ele>
        <time>2020-06-10T08:18:44Z</time>
      </trkpt>
      <trkpt lat="48.62326" lon="-4.28291">
        <ele>7.3</ele>
        <time>2020-06-10T08:18:45Z</time>
      </trkpt>
      <trkpt lat="48.62326" lon="-4.28282">
        <ele>7.2</ele>
        <time>2020-06-10T08:18:46Z</time>
      </trkpt>
      <trkpt lat="48.62328" lon="-4.28274">
        <ele>7.1</ele>
        <time>2020-06-10T08:18:47Z</time>
      </trkpt>
      <trkpt lat="48.62328" lon="-4.28266">
        <ele>7</ele>
        <time>2020-06-10T08:18:48Z</time>
      </trkpt>
      <trkpt lat="48.62329" lon="-4.28257">
        <ele>6.9</ele>
        <time>2020-06-10T08:18:49Z</time>
      </trkpt>
      <trkpt lat="48.6233" lon="-4.28248">
        <ele>6.9</ele>
        <time>2020-06-10T08:18:50Z</time>
      </trkpt>
      <trkpt lat="48.62331" lon="-4.28239">
        <ele>6.8</ele>
        <time>2020-06-10T08:18:51Z</time>
      </trkpt>
      <trkpt lat="48.62331" lon="-4.28229">
        <ele>6.7</ele>
        <time>2020-06-10T08:18:52Z</time>
      </trkpt>
      <trkpt lat="48.62332" lon="-4.28219">
        <ele>6.6</ele>
        <time>2020-06-10T08:18:53Z</time>
      </trkpt>
      <trkpt lat="48.62332" lon="-4.28209">
        <ele>6.6</ele>
        <time>2020-06-10T08:18:54Z</time>
      </trkpt>
      <trkpt lat="48.62333" lon="-4.282">
        <ele>6.6</ele>
        <time>2020-06-10T08:18:55Z</time>
      </trkpt>
      <trkpt lat="48.62333" lon="-4.2819">
        <ele>6.6</ele>
        <time>2020-06-10T08:18:56Z</time>
      </trkpt>
      <trkpt lat="48.62333" lon="-4.28181">
        <ele>6.6</ele>
        <time>2020-06-10T08:18:57Z</time>
      </trkpt>
      <trkpt lat="48.62332" lon="-4.28171">
        <ele>6.6</ele>
        <time>2020-06-10T08:18:58Z</time>
      </trkpt>
      <trkpt lat="48.62331" lon="-4.28162">
        <ele>6.6</ele>
        <time>2020-06-10T08:18:59Z</time>
      </trkpt>
      <trkpt lat="48.62331" lon="-4.28153">
        <ele>6.7</ele>
        <time>2020-06-10T08:19:00Z</time>
      </trkpt>
      <trkpt lat="48.6233" lon="-4.28145">
        <ele>6.7</ele>
        <time>2020-06-10T08:19:01Z</time>
      </trkpt>
      <trkpt lat="48.62329" lon="-4.28136">
        <ele>6.8</ele>
        <time>2020-06-10T08:19:02Z</time>
      </trkpt>
      <trkpt lat="48.62328" lon="-4.28128">
        <ele>6.9</ele>
        <time>2020-06-10T08:19:03Z</time>
      </trkpt>
      <trkpt lat="48.62327" lon="-4.28119">
        <ele>6.9</ele>
        <time>2020-06-10T08:19:04Z</time>
      </trkpt>
      <trkpt lat="48.62327" lon="-4.2811">
        <ele>7</ele>
        <time>2020-06-10T08:19:05Z</time>
      </trkpt>
      <trkpt lat="48.62327" lon="-4.28101">
        <ele>7</ele>
        <time>2020-06-10T08:19:06Z</time>
      </trkpt>
      <trkpt lat="48.62327" lon="-4.28093">
        <ele>7</ele>
        <time>2020-06-10T08:19:07Z</time>
      </trkpt>
      <trkpt lat="48.62326" lon="-4.28084">
        <ele>7</ele>
        <time>2020-06-10T08:19:08Z</time>
      </trkpt>
      <trkpt lat="48.62325" lon="-4.28075">
        <ele>7.1</ele>
        <time>2020-06-10T08:19:09Z</time>
      </trkpt>
      <trkpt lat="48.62325" lon="-4.28067">
        <ele>7.1</ele>
        <time>2020-06-10T08:19:10Z</time>
      </trkpt>
      <trkpt lat="48.62324" lon="-4.28058">
        <ele>7.1</ele>
        <time>2020-06-10T08:19:11Z</time>
      </trkpt>
      <trkpt lat="48.62324" lon="-4.28049">
        <ele>7.1</ele>
        <time>2020-06-10T08:19:12Z</time>
      </trkpt>
      <trkpt lat="48.62323" lon="-4.2804">
        <ele>7</ele>
        <time>2020-06-10T08:19:13Z</time>
      </trkpt>
      <trkpt lat="48.62322" lon="-4.28032">
        <ele>7</ele>
        <time>2020-06-10T08:19:14Z</time>
      </trkpt>
      <trkpt lat="48.62321" lon="-4.28023">
        <ele>7.1</ele>
        <time>2020-06-10T08:19:15Z</time>
      </trkpt>
      <trkpt lat="48.6232" lon="-4.28014">
        <ele>7.1</ele>
        <time>2020-06-10T08:19:16Z</time>
      </trkpt>
      <trkpt lat="48.6232" lon="-4.28005">
        <ele>7.2</ele>
        <time>2020-06-10T08:19:17Z</time>
      </trkpt>
      <trkpt lat="48.62319" lon="-4.27996">
        <ele>7.2</ele>
        <time>2020-06-10T08:19:18Z</time>
      </trkpt>
      <trkpt lat="48.62319" lon="-4.27987">
        <ele>7.3</ele>
        <time>2020-06-10T08:19:19Z</time>
      </trkpt>
      <trkpt lat="48.62318" lon="-4.27978">
        <ele>7.4</ele>
        <time>2020-06-10T08:19:20Z</time>
      </trkpt>
      <trkpt lat="48.62318" lon="-4.27969">
        <ele>7.4</ele>
        <time>2020-06-10T08:19:21Z</time>
      </trkpt>
      <trkpt lat="48.62318" lon="-4.2796">
        <ele>7.5</ele>
        <time>2020-06-10T08:19:22Z</time>
      </trkpt>
      <trkpt lat="48.62318" lon="-4.27951">
        <ele>7.6</ele>
        <time>2020-06-10T08:19:23Z</time>
      </trkpt>
      <trkpt lat="48.62318" lon="-4.27942">
        <ele>7.6</ele>
        <time>2020-06-10T08:19:24Z</time>
      </trkpt>
      <trkpt lat="48.62319" lon="-4.27933">
        <ele>7.7</ele>
        <time>2020-06-10T08:19:25Z</time>
      </trkpt>
      <trkpt lat="48.62319" lon="-4.27923">
        <ele>7.8</ele>
        <time>2020-06-10T08:19:26Z</time>
      </trkpt>
      <trkpt lat="48.62319" lon="-4.27914">
        <ele>7.7</ele>
        <time>2020-06-10T08:19:27Z</time>
      </trkpt>
      <trkpt lat="48.62319" lon="-4.27905">
        <ele>7.7</ele>
        <time>2020-06-10T08:19:28Z</time>
      </trkpt>
      <trkpt lat="48.62319" lon="-4.27896">
        <ele>7.7</ele>
        <time>2020-06-10T08:19:29Z</time>
      </trkpt>
      <trkpt lat="48.6232" lon="-4.27888">
        <ele>7.7</ele>
        <time>2020-06-10T08:19:30Z</time>
      </trkpt>
      <trkpt lat="48.6232" lon="-4.27879">
        <ele>7.7</ele>
        <time>2020-06-10T08:19:31Z</time>
      </trkpt>
      <trkpt lat="48.62321" lon="-4.2787">
        <ele>7.7</ele>
        <time>2020-06-10T08:19:32Z</time>
      </trkpt>
      <trkpt lat="48.62322" lon="-4.27862">
        <ele>7.7</ele>
        <time>2020-06-10T08:19:33Z</time>
      </trkpt>
      <trkpt lat="48.62323" lon="-4.27853">
        <ele>7.7</ele>
        <time>2020-06-10T08:19:34Z</time>
      </trkpt>
      <trkpt lat="48.62324" lon="-4.27844">
        <ele>7.7</ele>
        <time>2020-06-10T08:19:35Z</time>
      </trkpt>
      <trkpt lat="48.62324" lon="-4.27835">
        <ele>7.8</ele>
        <time>2020-06-10T08:19:36Z</time>
      </trkpt>
      <trkpt lat="48.62325" lon="-4.27826">
        <ele>7.8</ele>
        <time>2020-06-10T08:19:37Z</time>
      </trkpt>
      <trkpt lat="48.62324" lon="-4.27817">
        <ele>7.9</ele>
        <time>2020-06-10T08:19:38Z</time>
      </trkpt>
      <trkpt lat="48.62324" lon="-4.27808">
        <ele>8</ele>
        <time>2020-06-10T08:19:39Z</time>
      </trkpt>
      <trkpt lat="48.62324" lon="-4.278">
        <ele>8.2</ele>
        <time>2020-06-10T08:19:40Z</time>
      </trkpt>
      <trkpt lat="48.62325" lon="-4.27791">
        <ele>8.3</ele>
        <time>2020-06-10T08:19:41Z</time>
      </trkpt>
      <trkpt lat="48.62325" lon="-4.27783">
        <ele>8.5</ele>
        <time>2020-06-10T08:19:42Z</time>
      </trkpt>
      <trkpt lat="48.62326" lon="-4.27775">
        <ele>8.6</ele>
        <time>2020-06-10T08:19:43Z</time>
      </trkpt>
      <trkpt lat="48.62326" lon="-4.27766">
        <ele>8.7</ele>
        <time>2020-06-10T08:19:44Z</time>
      </trkpt>
      <trkpt lat="48.62326" lon="-4.27758">
        <ele>8.9</ele>
        <time>2020-06-10T08:19:45Z</time>
      </trkpt>
      <trkpt lat="48.62325" lon="-4.2775">
        <ele>9</ele>
        <time>2020-06-10T08:19:46Z</time>
      </trkpt>
      <trkpt lat="48.62325" lon="-4.27742">
        <ele>9.2</ele>
        <time>2020-06-10T08:19:47Z</time>
      </trkpt>
      <trkpt lat="48.62324" lon="-4.27734">
        <ele>9.4</ele>
        <time>2020-06-10T08:19:48Z</time>
      </trkpt>
      <trkpt lat="48.62324" lon="-4.27725">
        <ele>9.5</ele>
        <time>2020-06-10T08:19:49Z</time>
      </trkpt>
      <trkpt lat="48.62324" lon="-4.27717">
        <ele>9.7</ele>
        <time>2020-06-10T08:19:50Z</time>
      </trkpt>
      <trkpt lat="48.62323" lon="-4.27709">
        <ele>9.9</ele>
        <time>2020-06-10T08:19:51Z</time>
      </trkpt>
      <trkpt lat="48.62321" lon="-4.27701">
        <ele>10</ele>
        <time>2020-06-10T08:19:52Z</time>
      </trkpt>
      <trkpt lat="48.62321" lon="-4.27693">
        <ele>10.1</ele>
        <time>2020-06-10T08:19:53Z</time>
      </trkpt>
      <trkpt lat="48.6232" lon="-4.27686">
        <ele>10.2</ele>
        <time>2020-06-10T08:19:54Z</time>
      </trkpt>
      <trkpt lat="48.62318" lon="-4.27678">
        <ele>10.3</ele>
        <time>2020-06-10T08:19:55Z</time>
      </trkpt>
      <trkpt lat="48.62317" lon="-4.2767">
        <ele>10.5</ele>
        <time>2020-06-10T08:19:56Z</time>
      </trkpt>
      <trkpt lat="48.62315" lon="-4.27662">
        <ele>10.6</ele>
        <time>2020-06-10T08:19:57Z</time>
      </trkpt>
      <trkpt lat="48.62313" lon="-4.27654">
        <ele>10.7</ele>
        <time>2020-06-10T08:19:58Z</time>
      </trkpt>
      <trkpt lat="48.6231" lon="-4.27648">
        <ele>10.8</ele>
        <time>2020-06-10T08:19:59Z</time>
      </trkpt>
      <trkpt lat="48.62306" lon="-4.27641">
        <ele>10.9</ele>
        <time>2020-06-10T08:20:00Z</time>
      </trkpt>
      <trkpt lat="48.62302" lon="-4.27636">
        <ele>11</ele>
        <time>2020-06-10T08:20:01Z</time>
      </trkpt>
      <trkpt lat="48.62297" lon="-4.27631">
        <ele>11.1</ele>
        <time>2020-06-10T08:20:02Z</time>
      </trkpt>
      <trkpt lat="48.62293" lon="-4.27626">
        <ele>11.3</ele>
        <time>2020-06-10T08:20:03Z</time>
      </trkpt>
      <trkpt lat="48.62288" lon="-4.27622">
        <ele>11.4</ele>
        <time>2020-06-10T08:20:04Z</time>
      </trkpt>
      <trkpt lat="48.62283" lon="-4.27618">
        <ele>11.5</ele>
        <time>2020-06-10T08:20:05Z</time>
      </trkpt>
      <trkpt lat="48.62278" lon="-4.27613">
        <ele>11.6</ele>
        <time>2020-06-10T08:20:06Z</time>
      </trkpt>
      <trkpt lat="48.62274" lon="-4.27608">
        <ele>11.7</ele>
        <time>2020-06-10T08:20:07Z</time>
      </trkpt>
      <trkpt lat="48.6227" lon="-4.27603">
        <ele>11.8</ele>
        <time>2020-06-10T08:20:08Z</time>
      </trkpt>
      <trkpt lat="48.62266" lon="-4.27598">
        <ele>11.9</ele>
        <time>2020-06-10T08:20:09Z</time>
      </trkpt>
      <trkpt lat="48.62262" lon="-4.27593">
        <ele>12</ele>
        <time>2020-06-10T08:20:10Z</time>
      </trkpt>
      <trkpt lat="48.62259" lon="-4.27588">
        <ele>12.1</ele>
        <time>2020-06-10T08:20:11Z</time>
      </trkpt>
      <trkpt lat="48.62255" lon="-4.27584">
        <ele>12.1</ele>
        <time>2020-06-10T08:20:12Z</time>
      </trkpt>
      <trkpt lat="48.62251" lon="-4.27579">
        <ele>12.2</ele>
        <time>2020-06-10T08:20:13Z</time>
      </trkpt>
      <trkpt lat="48.62247" lon="-4.27576">
        <ele>12.3</ele>
        <time>2020-06-10T08:20:14Z</time>
      </trkpt>
      <trkpt lat="48.62243" lon="-4.27573">
        <ele>12.4</ele>
        <time>2020-06-10T08:20:15Z</time>
      </trkpt>
      <trkpt lat="48.62238" lon="-4.27568">
        <ele>12.4</ele>
        <time>2020-06-10T08:20:16Z</time>
      </trkpt>
      <trkpt lat="48.62234" lon="-4.27564">
        <ele>12.5</ele>
        <time>2020-06-10T08:20:17Z</time>
      </trkpt>
      <trkpt lat="48.6223" lon="-4.2756">
        <ele>12.5</ele>
        <time>2020-06-10T08:20:18Z</time>
      </trkpt>
      <trkpt lat="48.62225" lon="-4.27555">
        <ele>12.5</ele>
        <time>2020-06-10T08:20:19Z</time>
      </trkpt>
      <trkpt lat="48.62221" lon="-4.2755">
        <ele>12.5</ele>
        <time>2020-06-10T08:20:20Z</time>
      </trkpt>
      <trkpt lat="48.62216" lon="-4.27546">
        <ele>12.5</ele>
        <time>2020-06-10T08:20:21Z</time>
      </trkpt>
      <trkpt lat="48.62212" lon="-4.27542">
        <ele>12.5</ele>
        <time>2020-06-10T08:20:22Z</time>
      </trkpt>
      <trkpt lat="48.62207" lon="-4.27537">
        <ele>12.4</ele>
        <time>2020-06-10T08:20:23Z</time>
      </trkpt>
      <trkpt lat="48.62203" lon="-4.27533">
        <ele>12.4</ele>
        <time>2020-06-10T08:20:24Z</time>
      </trkpt>
      <trkpt lat="48.62199" lon="-4.27527">
        <ele>12.4</ele>
        <time>2020-06-10T08:20:25Z</time>
      </trkpt>
      <trkpt lat="48.62195" lon="-4.27522">
        <ele>12.3</ele>
        <time>2020-06-10T08:20:26Z</time>
      </trkpt>
      <trkpt lat="48.62191" lon="-4.27516">
        <ele>12.3</ele>
        <time>2020-06-10T08:20:27Z</time>
      </trkpt>
      <trkpt lat="48.62187" lon="-4.2751">
        <ele>12.3</ele>
        <time>2020-06-10T08:20:28Z</time>
      </trkpt>
      <trkpt lat="48.62182" lon="-4.27504">
        <ele>12.3</ele>
        <time>2020-06-10T08:20:29Z</time>
      </trkpt>
      <trkpt lat="48.62177" lon="-4.275">
        <ele>12.3</ele>
        <time>2020-06-10T08:20:30Z</time>
      </trkpt>
      <trkpt lat="48.62172" lon="-4.27495">
        <ele>12.3</ele>
        <time>2020-06-10T08:20:31Z</time>
      </trkpt>
      <trkpt lat="48.62167" lon="-4.2749">
        <ele>12.3</ele>
        <time>2020-06-10T08:20:32Z</time>
      </trkpt>
      <trkpt lat="48.62162" lon="-4.27485">
        <ele>12.3</ele>
        <time>2020-06-10T08:20:33Z</time>
      </trkpt>
      <trkpt lat="48.62157" lon="-4.2748">
        <ele>12.2</ele>
        <time>2020-06-10T08:20:34Z</time>
      </trkpt>
      <trkpt lat="48.62152" lon="-4.27475">
        <ele>12.1</ele>
        <time>2020-06-10T08:20:35Z</time>
      </trkpt>
      <trkpt lat="48.62148" lon="-4.2747">
        <ele>12.1</ele>
        <time>2020-06-10T08:20:36Z</time>
      </trkpt>
      <trkpt lat="48.62143" lon="-4.27465">
        <ele>12</ele>
        <time>2020-06-10T08:20:37Z</time>
      </trkpt>
      <trkpt lat="48.6214" lon="-4.27459">
        <ele>12</ele>
        <time>2020-06-10T08:20:38Z</time>
      </trkpt>
      <trkpt lat="48.62136" lon="-4.27453">
        <ele>11.9</ele>
        <time>2020-06-10T08:20:39Z</time>
      </trkpt>
      <trkpt lat="48.62133" lon="-4.27446">
        <ele>11.9</ele>
        <time>2020-06-10T08:20:40Z</time>
      </trkpt>
      <trkpt lat="48.6213" lon="-4.27439">
        <ele>11.8</ele>
        <time>2020-06-10T08:20:41Z</time>
      </trkpt>
      <trkpt lat="48.62126" lon="-4.27432">
        <ele>11.8</ele>
        <time>2020-06-10T08:20:42Z</time>
      </trkpt>
      <trkpt lat="48.62122" lon="-4.27426">
        <ele>11.7</ele>
        <time>2020-06-10T08:20:43Z</time>
      </trkpt>
      <trkpt lat="48.62119" lon="-4.27418">
        <ele>11.6</ele>
        <time>2020-06-10T08:20:44Z</time>
      </trkpt>
      <trkpt lat="48.62115" lon="-4.27412">
        <ele>11.5</ele>
        <time>2020-06-10T08:20:45Z</time>
      </trkpt>
      <trkpt lat="48.62111" lon="-4.27405">
        <ele>11.5</ele>
        <time>2020-06-10T08:20:46Z</time>
      </trkpt>
      <trkpt lat="48.62108" lon="-4.27399">
        <ele>11.4</ele>
        <time>2020-06-10T08:20:47Z</time>
      </trkpt>
      <trkpt lat="48.62104" lon="-4.27392">
        <ele>11.3</ele>
        <time>2020-06-10T08:20:48Z</time>
      </trkpt>
      <trkpt lat="48.62101" lon="-4.27385">
        <ele>11.2</ele>
        <time>2020-06-10T08:20:49Z</time>
      </trkpt>
      <trkpt lat="48.62097" lon="-4.27379">
        <ele>11.2</ele>
        <time>2020-06-10T08:20:50Z</time>
      </trkpt>
      <trkpt lat="48.62094" lon="-4.27372">
        <ele>11.1</ele>
        <time>2020-06-10T08:20:51Z</time>
      </trkpt>
      <trkpt lat="48.62091" lon="-4.27365">
        <ele>11</ele>
        <time>2020-06-10T08:20:52Z</time>
      </trkpt>
      <trkpt lat="48.62087" lon="-4.2736">
        <ele>10.9</ele>
        <time>2020-06-10T08:20:53Z</time>
      </trkpt>
      <trkpt lat="48.62083" lon="-4.27353">
        <ele>10.7</ele>
        <time>2020-06-10T08:20:54Z</time>
      </trkpt>
      <trkpt lat="48.6208" lon="-4.27346">
        <ele>10.6</ele>
        <time>2020-06-10T08:20:55Z</time>
      </trkpt>
      <trkpt lat="48.62076" lon="-4.27339">
        <ele>10.5</ele>
        <time>2020-06-10T08:20:56Z</time>
      </trkpt>
      <trkpt lat="48.62072" lon="-4.27332">
        <ele>10.3</ele>
        <time>2020-06-10T08:20:57Z</time>
      </trkpt>
      <trkpt lat="48.62068" lon="-4.27325">
        <ele>10.2</ele>
        <time>2020-06-10T08:20:58Z</time>
      </trkpt>
      <trkpt lat="48.62065" lon="-4.27318">
        <ele>10</ele>
        <time>2020-06-10T08:20:59Z</time>
      </trkpt>
      <trkpt lat="48.62061" lon="-4.27311">
        <ele>9.8</ele>
        <time>2020-06-10T08:21:00Z</time>
      </trkpt>
      <trkpt lat="48.62058" lon="-4.27304">
        <ele>9.6</ele>
        <time>2020-06-10T08:21:01Z</time>
      </trkpt>
      <trkpt lat="48.62054" lon="-4.27298">
        <ele>9.4</ele>
        <time>2020-06-10T08:21:02Z</time>
      </trkpt>
      <trkpt lat="48.62051" lon="-4.27291">
        <ele>9.3</ele>
        <time>2020-06-10T08:21:03Z</time>
      </trkpt>
      <trkpt lat="48.62048" lon="-4.27283">
        <ele>9.1</ele>
        <time>2020-06-10T08:21:04Z</time>
      </trkpt>
      <trkpt lat="48.62045" lon="-4.27275">
        <ele>8.9</ele>
        <time>2020-06-10T08:21:05Z</time>
      </trkpt>
      <trkpt lat="48.62042" lon="-4.27267">
        <ele>8.7</ele>
        <time>2020-06-10T08:21:06Z</time>
      </trkpt>
      <trkpt lat="48.6204" lon="-4.27258">
        <ele>8.4</ele>
        <time>2020-06-10T08:21:07Z</time>
      </trkpt>
      <trkpt lat="48.62038" lon="-4.2725">
        <ele>8.2</ele>
        <time>2020-06-10T08:21:08Z</time>
      </trkpt>
      <trkpt lat="48.62035" lon="-4.27241">
        <ele>8</ele>
        <time>2020-06-10T08:21:09Z</time>
      </trkpt>
      <trkpt lat="48.62033" lon="-4.27232">
        <ele>7.7</ele>
        <time>2020-06-10T08:21:10Z</time>
      </trkpt>
      <trkpt lat="48.62033" lon="-4.27222">
        <ele>7.4</ele>
        <time>2020-06-10T08:21:11Z</time>
      </trkpt>
      <trkpt lat="48.62033" lon="-4.27212">
        <ele>7.2</ele>
        <time>2020-06-10T08:21:12Z</time>
      </trkpt>
      <trkpt lat="48.62034" lon="-4.27202">
        <ele>6.9</ele>
        <time>2020-06-10T08:21:13Z</time>
      </trkpt>
      <trkpt lat="48.62035" lon="-4.27191">
        <ele>6.6</ele>
        <time>2020-06-10T08:21:14Z</time>
      </trkpt>
      <trkpt lat="48.62037" lon="-4.2718">
        <ele>6.3</ele>
        <time>2020-06-10T08:21:15Z</time>
      </trkpt>
      <trkpt lat="48.62039" lon="-4.2717">
        <ele>6</ele>
        <time>2020-06-10T08:21:16Z</time>
      </trkpt>
      <trkpt lat="48.62042" lon="-4.27159">
        <ele>5.7</ele>
        <time>2020-06-10T08:21:17Z</time>
      </trkpt>
      <trkpt lat="48.62044" lon="-4.27149">
        <ele>5.6</ele>
        <time>2020-06-10T08:21:18Z</time>
      </trkpt>
      <trkpt lat="48.62047" lon="-4.27138">
        <ele>5.4</ele>
        <time>2020-06-10T08:21:19Z</time>
      </trkpt>
      <trkpt lat="48.6205" lon="-4.27127">
        <ele>5.3</ele>
        <time>2020-06-10T08:21:20Z</time>
      </trkpt>
      <trkpt lat="48.62053" lon="-4.27117">
        <ele>5.2</ele>
        <time>2020-06-10T08:21:21Z</time>
      </trkpt>
      <trkpt lat="48.62055" lon="-4.27106">
        <ele>5</ele>
        <time>2020-06-10T08:21:22Z</time>
      </trkpt>
      <trkpt lat="48.62058" lon="-4.27094">
        <ele>4.8</ele>
        <time>2020-06-10T08:21:23Z</time>
      </trkpt>
      <trkpt lat="48.6206" lon="-4.27083">
        <ele>4.7</ele>
        <time>2020-06-10T08:21:24Z</time>
      </trkpt>
      <trkpt lat="48.62062" lon="-4.27073">
        <ele>4.6</ele>
        <time>2020-06-10T08:21:25Z</time>
      </trkpt>
      <trkpt lat="48.62064" lon="-4.27062">
        <ele>4.5</ele>
        <time>2020-06-10T08:21:26Z</time>
      </trkpt>
      <trkpt lat="48.62066" lon="-4.27051">
        <ele>4.5</ele>
        <time>2020-06-10T08:21:27Z</time>
      </trkpt>
      <trkpt lat="48.62068" lon="-4.27041">
        <ele>4.4</ele>
        <time>2020-06-10T08:21:28Z</time>
      </trkpt>
      <trkpt lat="48.6207" lon="-4.27031">
        <ele>4.2</ele>
        <time>2020-06-10T08:21:29Z</time>
      </trkpt>
      <trkpt lat="48.62072" lon="-4.27021">
        <ele>4.2</ele>
        <time>2020-06-10T08:21:30Z</time>
      </trkpt>
      <trkpt lat="48.62074" lon="-4.27011">
        <ele>4.1</ele>
        <time>2020-06-10T08:21:31Z</time>
      </trkpt>
      <trkpt lat="48.62076" lon="-4.27001">
        <ele>4.1</ele>
        <time>2020-06-10T08:21:32Z</time>
      </trkpt>
      <trkpt lat="48.62077" lon="-4.26992">
        <ele>4.1</ele>
        <time>2020-06-10T08:21:33Z</time>
      </trkpt>
      <trkpt lat="48.62079" lon="-4.26982">
        <ele>4</ele>
        <time>2020-06-10T08:21:34Z</time>
      </trkpt>
      <trkpt lat="48.62081" lon="-4.26972">
        <ele>4</ele>
        <time>2020-06-10T08:21:35Z</time>
      </trkpt>
      <trkpt lat="48.62082" lon="-4.26963">
        <ele>4</ele>
        <time>2020-06-10T08:21:36Z</time>
      </trkpt>
      <trkpt lat="48.62084" lon="-4.26954">
        <ele>4</ele>
        <time>2020-06-10T08:21:37Z</time>
      </trkpt>
      <trkpt lat="48.62085" lon="-4.26945">
        <ele>4</ele>
        <time>2020-06-10T08:21:38Z</time>
      </trkpt>
      <trkpt lat="48.62087" lon="-4.26936">
        <ele>4</ele>
        <time>2020-06-10T08:21:39Z</time>
      </trkpt>
      <trkpt lat="48.62089" lon="-4.26927">
        <ele>4.1</ele>
        <time>2020-06-10T08:21:40Z</time>
      </trkpt>
      <trkpt lat="48.62091" lon="-4.26918">
        <ele>4.2</ele>
        <time>2020-06-10T08:21:41Z</time>
      </trkpt>
      <trkpt lat="48.62093" lon="-4.2691">
        <ele>4.3</ele>
        <time>2020-06-10T08:21:42Z</time>
      </trkpt>
      <trkpt lat="48.62095" lon="-4.26901">
        <ele>4.4</ele>
        <time>2020-06-10T08:21:43Z</time>
      </trkpt>
      <trkpt lat="48.62097" lon="-4.26893">
        <ele>4.6</ele>
        <time>2020-06-10T08:21:44Z</time>
      </trkpt>
      <trkpt lat="48.62099" lon="-4.26885">
        <ele>4.7</ele>
        <time>2020-06-10T08:21:45Z</time>
      </trkpt>
      <trkpt lat="48.621" lon="-4.26877">
        <ele>4.9</ele>
        <time>2020-06-10T08:21:46Z</time>
      </trkpt>
      <trkpt lat="48.62102" lon="-4.26869">
        <ele>5.1</ele>
        <time>2020-06-10T08:21:47Z</time>
      </trkpt>
      <trkpt lat="48.62104" lon="-4.26864">
        <ele>5.3</ele>
        <time>2020-06-10T08:21:48Z</time>
      </trkpt>
      <trkpt lat="48.62105" lon="-4.26857">
        <ele>5.4</ele>
        <time>2020-06-10T08:21:49Z</time>
      </trkpt>
      <trkpt lat="48.62105" lon="-4.26851">
        <ele>5.5</ele>
        <time>2020-06-10T08:21:50Z</time>
      </trkpt>
      <trkpt lat="48.62105" lon="-4.26845">
        <ele>5.7</ele>
        <time>2020-06-10T08:21:51Z</time>
      </trkpt>
      <trkpt lat="48.62106" lon="-4.26838">
        <ele>5.8</ele>
        <time>2020-06-10T08:21:52Z</time>
      </trkpt>
      <trkpt lat="48.62106" lon="-4.26832">
        <ele>6</ele>
        <time>2020-06-10T08:21:53Z</time>
      </trkpt>
      <trkpt lat="48.62108" lon="-4.26827">
        <ele>6.1</ele>
        <time>2020-06-10T08:21:54Z</time>
      </trkpt>
      <trkpt lat="48.62108" lon="-4.26821">
        <ele>6.3</ele>
        <time>2020-06-10T08:21:55Z</time>
      </trkpt>
      <trkpt lat="48.62109" lon="-4.26815">
        <ele>6.4</ele>
        <time>2020-06-10T08:21:56Z</time>
      </trkpt>
      <trkpt lat="48.62109" lon="-4.26809">
        <ele>6.6</ele>
        <time>2020-06-10T08:21:57Z</time>
      </trkpt>
      <trkpt lat="48.62108" lon="-4.26804">
        <ele>6.8</ele>
        <time>2020-06-10T08:21:58Z</time>
      </trkpt>
      <trkpt lat="48.62107" lon="-4.26799">
        <ele>6.9</ele>
        <time>2020-06-10T08:21:59Z</time>
      </trkpt>
      <trkpt lat="48.62106" lon="-4.26793">
        <ele>7.1</ele>
        <time>2020-06-10T08:22:00Z</time>
      </trkpt>
      <trkpt lat="48.62105" lon="-4.26788">
        <ele>7.3</ele>
        <time>2020-06-10T08:22:01Z</time>
      </trkpt>
      <trkpt lat="48.62104" lon="-4.26782">
        <ele>7.4</ele>
        <time>2020-06-10T08:22:02Z</time>
      </trkpt>
      <trkpt lat="48.62104" lon="-4.26776">
        <ele>7.6</ele>
        <time>2020-06-10T08:22:03Z</time>
      </trkpt>
      <trkpt lat="48.62104" lon="-4.2677">
        <ele>7.8</ele>
        <time>2020-06-10T08:22:04Z</time>
      </trkpt>
      <trkpt lat="48.62102" lon="-4.26765">
        <ele>8</ele>
        <time>2020-06-10T08:22:05Z</time>
      </trkpt>
      <trkpt lat="48.62101" lon="-4.26759">
        <ele>8.2</ele>
        <time>2020-06-10T08:22:06Z</time>
      </trkpt>
      <trkpt lat="48.62101" lon="-4.26754">
        <ele>8.4</ele>
        <time>2020-06-10T08:22:07Z</time>
      </trkpt>
      <trkpt lat="48.62101" lon="-4.26749">
        <ele>8.6</ele>
        <time>2020-06-10T08:22:08Z</time>
      </trkpt>
      <trkpt lat="48.621" lon="-4.26743">
        <ele>8.8</ele>
        <time>2020-06-10T08:22:09Z</time>
      </trkpt>
      <trkpt lat="48.621" lon="-4.26738">
        <ele>8.9</ele>
        <time>2020-06-10T08:22:10Z</time>
      </trkpt>
      <trkpt lat="48.62099" lon="-4.26732">
        <ele>9.1</ele>
        <time>2020-06-10T08:22:11Z</time>
      </trkpt>
      <trkpt lat="48.62099" lon="-4.26726">
        <ele>9.3</ele>
        <time>2020-06-10T08:22:12Z</time>
      </trkpt>
      <trkpt lat="48.62097" lon="-4.26721">
        <ele>9.4</ele>
        <time>2020-06-10T08:22:13Z</time>
      </trkpt>
      <trkpt lat="48.62096" lon="-4.26714">
        <ele>9.7</ele>
        <time>2020-06-10T08:22:14Z</time>
      </trkpt>
      <trkpt lat="48.62095" lon="-4.26708">
        <ele>9.8</ele>
        <time>2020-06-10T08:22:15Z</time>
      </trkpt>
      <trkpt lat="48.62094" lon="-4.26702">
        <ele>10</ele>
        <time>2020-06-10T08:22:16Z</time>
      </trkpt>
      <trkpt lat="48.62093" lon="-4.26696">
        <ele>10.2</ele>
        <time>2020-06-10T08:22:17Z</time>
      </trkpt>
      <trkpt lat="48.62092" lon="-4.26689">
        <ele>10.4</ele>
        <time>2020-06-10T08:22:18Z</time>
      </trkpt>
      <trkpt lat="48.62092" lon="-4.26683">
        <ele>10.6</ele>
        <time>2020-06-10T08:22:19Z</time>
      </trkpt>
      <trkpt lat="48.62092" lon="-4.26675">
        <ele>10.8</ele>
        <time>2020-06-10T08:22:20Z</time>
      </trkpt>
      <trkpt lat="48.62091" lon="-4.26668">
        <ele>11</ele>
        <time>2020-06-10T08:22:21Z</time>
      </trkpt>
      <trkpt lat="48.6209" lon="-4.26661">
        <ele>11.2</ele>
        <time>2020-06-10T08:22:22Z</time>
      </trkpt>
      <trkpt lat="48.62089" lon="-4.26656">
        <ele>11.4</ele>
        <time>2020-06-10T08:22:23Z</time>
      </trkpt>
      <trkpt lat="48.62088" lon="-4.2665">
        <ele>11.6</ele>
        <time>2020-06-10T08:22:24Z</time>
      </trkpt>
      <trkpt lat="48.62088" lon="-4.26644">
        <ele>11.8</ele>
        <time>2020-06-10T08:22:25Z</time>
      </trkpt>
      <trkpt lat="48.62087" lon="-4.26638">
        <ele>12</ele>
        <time>2020-06-10T08:22:26Z</time>
      </trkpt>
      <trkpt lat="48.62086" lon="-4.26632">
        <ele>12.2</ele>
        <time>2020-06-10T08:22:27Z</time>
      </trkpt>
      <trkpt lat="48.62085" lon="-4.26626">
        <ele>12.4</ele>
        <time>2020-06-10T08:22:28Z</time>
      </trkpt>
      <trkpt lat="48.62084" lon="-4.2662">
        <ele>12.6</ele>
        <time>2020-06-10T08:22:29Z</time>
      </trkpt>
      <trkpt lat="48.62083" lon="-4.26614">
        <ele>12.8</ele>
        <time>2020-06-10T08:22:30Z</time>
      </trkpt>
      <trkpt lat="48.62082" lon="-4.26608">
        <ele>13.1</ele>
        <time>2020-06-10T08:22:31Z</time>
      </trkpt>
      <trkpt lat="48.62081" lon="-4.26603">
        <ele>13.3</ele>
        <time>2020-06-10T08:22:32Z</time>
      </trkpt>
      <trkpt lat="48.62081" lon="-4.26596">
        <ele>13.5</ele>
        <time>2020-06-10T08:22:33Z</time>
      </trkpt>
      <trkpt lat="48.6208" lon="-4.26589">
        <ele>13.7</ele>
        <time>2020-06-10T08:22:34Z</time>
      </trkpt>
      <trkpt lat="48.6208" lon="-4.26584">
        <ele>13.9</ele>
        <time>2020-06-10T08:22:35Z</time>
      </trkpt>
      <trkpt lat="48.62079" lon="-4.26578">
        <ele>14.2</ele>
        <time>2020-06-10T08:22:36Z</time>
      </trkpt>
      <trkpt lat="48.62079" lon="-4.26574">
        <ele>14.3</ele>
        <time>2020-06-10T08:22:37Z</time>
      </trkpt>
      <trkpt lat="48.62078" lon="-4.26569">
        <ele>14.5</ele>
        <time>2020-06-10T08:22:38Z</time>
      </trkpt>
      <trkpt lat="48.62078" lon="-4.26563">
        <ele>14.9</ele>
        <time>2020-06-10T08:22:39Z</time>
      </trkpt>
      <trkpt lat="48.62076" lon="-4.26557">
        <ele>15.2</ele>
        <time>2020-06-10T08:22:40Z</time>
      </trkpt>
      <trkpt lat="48.62076" lon="-4.26552">
        <ele>15.5</ele>
        <time>2020-06-10T08:22:41Z</time>
      </trkpt>
      <trkpt lat="48.62075" lon="-4.26547">
        <ele>15.7</ele>
        <time>2020-06-10T08:22:42Z</time>
      </trkpt>
      <trkpt lat="48.62075" lon="-4.26542">
        <ele>16</ele>
        <time>2020-06-10T08:22:43Z</time>
      </trkpt>
      <trkpt lat="48.62074" lon="-4.26538">
        <ele>16.2</ele>
        <time>2020-06-10T08:22:44Z</time>
      </trkpt>
      <trkpt lat="48.62073" lon="-4.26533">
        <ele>16.5</ele>
        <time>2020-06-10T08:22:45Z</time>
      </trkpt>
      <trkpt lat="48.62072" lon="-4.26528">
        <ele>16.7</ele>
        <time>2020-06-10T08:22:46Z</time>
      </trkpt>
      <trkpt lat="48.62071" lon="-4.26523">
        <ele>17</ele>
        <time>2020-06-10T08:22:47Z</time>
      </trkpt>
      <trkpt lat="48.62069" lon="-4.26518">
        <ele>17.2</ele>
        <time>2020-06-10T08:22:48Z</time>
      </trkpt>
      <trkpt lat="48.62069" lon="-4.26516">
        <ele>17.4</ele>
        <time>2020-06-10T08:22:49Z</time>
      </trkpt>
      <trkpt lat="48.62068" lon="-4.26511">
        <ele>17.7</ele>
        <time>2020-06-10T08:22:50Z</time>
      </trkpt>
      <trkpt lat="48.62066" lon="-4.26505">
        <ele>18</ele>
        <time>2020-06-10T08:22:51Z</time>
      </trkpt>
      <trkpt lat="48.62066" lon="-4.26503">
        <ele>18.2</ele>
        <time>2020-06-10T08:22:52Z</time>
      </trkpt>
      <trkpt lat="48.62065" lon="-4.26499">
        <ele>18.4</ele>
        <time>2020-06-10T08:22:53Z</time>
      </trkpt>
      <trkpt lat="48.62064" lon="-4.26495">
        <ele>18.7</ele>
        <time>2020-06-10T08:22:54Z</time>
      </trkpt>
      <trkpt lat="48.62062" lon="-4.2649">
        <ele>19</ele>
        <time>2020-06-10T08:22:55Z</time>
      </trkpt>
      <trkpt lat="48.62061" lon="-4.26485">
        <ele>19.3</ele>
        <time>2020-06-10T08:22:56Z</time>
      </trkpt>
      <trkpt lat="48.6206" lon="-4.26481">
        <ele>19.4</ele>
        <time>2020-06-10T08:22:57Z</time>
      </trkpt>
      <trkpt lat="48.62059" lon="-4.26477">
        <ele>19.5</ele>
        <time>2020-06-10T08:22:58Z</time>
      </trkpt>
      <trkpt lat="48.62057" lon="-4.26472">
        <ele>19.7</ele>
        <time>2020-06-10T08:22:59Z</time>
      </trkpt>
      <trkpt lat="48.62056" lon="-4.26467">
        <ele>19.9</ele>
        <time>2020-06-10T08:23:00Z</time>
      </trkpt>
      <trkpt lat="48.62055" lon="-4.26462">
        <ele>20.1</ele>
        <time>2020-06-10T08:23:01Z</time>
      </trkpt>
      <trkpt lat="48.62054" lon="-4.26457">
        <ele>20.3</ele>
        <time>2020-06-10T08:23:02Z</time>
      </trkpt>
      <trkpt lat="48.62054" lon="-4.26453">
        <ele>20.5</ele>
        <time>2020-06-10T08:23:03Z</time>
      </trkpt>
      <trkpt lat="48.62053" lon="-4.26449">
        <ele>20.7</ele>
        <time>2020-06-10T08:23:04Z</time>
      </trkpt>
      <trkpt lat="48.62052" lon="-4.26443">
        <ele>21</ele>
        <time>2020-06-10T08:23:05Z</time>
      </trkpt>
      <trkpt lat="48.62052" lon="-4.26441">
        <ele>21</ele>
        <time>2020-06-10T08:23:06Z</time>
      </trkpt>
      <trkpt lat="48.62052" lon="-4.26435">
        <ele>21.3</ele>
        <time>2020-06-10T08:23:07Z</time>
      </trkpt>
      <trkpt lat="48.62052" lon="-4.26432">
        <ele>21.4</ele>
        <time>2020-06-10T08:23:08Z</time>
      </trkpt>
      <trkpt lat="48.62052" lon="-4.26425">
        <ele>21.6</ele>
        <time>2020-06-10T08:23:09Z</time>
      </trkpt>
      <trkpt lat="48.62052" lon="-4.26421">
        <ele>21.8</ele>
        <time>2020-06-10T08:23:10Z</time>
      </trkpt>
      <trkpt lat="48.62051" lon="-4.26415">
        <ele>22</ele>
        <time>2020-06-10T08:23:11Z</time>
      </trkpt>
      <trkpt lat="48.6205" lon="-4.26414">
        <ele>22.1</ele>
        <time>2020-06-10T08:23:12Z</time>
      </trkpt>
      <trkpt lat="48.6205" lon="-4.26409">
        <ele>22.2</ele>
        <time>2020-06-10T08:23:13Z</time>
      </trkpt>
      <trkpt lat="48.62051" lon="-4.26403">
        <ele>22.4</ele>
        <time>2020-06-10T08:23:14Z</time>
      </trkpt>
      <trkpt lat="48.62051" lon="-4.26398">
        <ele>22.5</ele>
        <time>2020-06-10T08:23:15Z</time>
      </trkpt>
      <trkpt lat="48.62052" lon="-4.26392">
        <ele>22.6</ele>
        <time>2020-06-10T08:23:16Z</time>
      </trkpt>
      <trkpt lat="48.62053" lon="-4.26387">
        <ele>22.7</ele>
        <time>2020-06-10T08:23:17Z</time>
      </trkpt>
      <trkpt lat="48.62053" lon="-4.26385">
        <ele>22.7</ele>
        <time>2020-06-10T08:23:18Z</time>
      </trkpt>
      <trkpt lat="48.62055" lon="-4.26381">
        <ele>22.8</ele>
        <time>2020-06-10T08:23:19Z</time>
      </trkpt>
      <trkpt lat="48.62056" lon="-4.26376">
        <ele>22.9</ele>
        <time>2020-06-10T08:23:20Z</time>
      </trkpt>
      <trkpt lat="48.62057" lon="-4.26369">
        <ele>23</ele>
        <time>2020-06-10T08:23:21Z</time>
      </trkpt>
      <trkpt lat="48.62058" lon="-4.26363">
        <ele>23.1</ele>
        <time>2020-06-10T08:23:22Z</time>
      </trkpt>
      <trkpt lat="48.6206" lon="-4.26357">
        <ele>23.2</ele>
        <time>2020-06-10T08:23:23Z</time>
      </trkpt>
      <trkpt lat="48.62061" lon="-4.26351">
        <ele>23.2</ele>
        <time>2020-06-10T08:23:24Z</time>
      </trkpt>
      <trkpt lat="48.62062" lon="-4.26345">
        <ele>23.2</ele>
        <time>2020-06-10T08:23:25Z</time>
      </trkpt>
      <trkpt lat="48.62063" lon="-4.2634">
        <ele>23.3</ele>
        <time>2020-06-10T08:23:26Z</time>
      </trkpt>
      <trkpt lat="48.62064" lon="-4.26335">
        <ele>23.3</ele>
        <time>2020-06-10T08:23:27Z</time>
      </trkpt>
      <trkpt lat="48.62065" lon="-4.26329">
        <ele>23.3</ele>
        <time>2020-06-10T08:23:28Z</time>
      </trkpt>
      <trkpt lat="48.62066" lon="-4.26323">
        <ele>23.3</ele>
        <time>2020-06-10T08:23:29Z</time>
      </trkpt>
      <trkpt lat="48.62067" lon="-4.26315">
        <ele>23.4</ele>
        <time>2020-06-10T08:23:30Z</time>
      </trkpt>
      <trkpt lat="48.62068" lon="-4.26307">
        <ele>23.4</ele>
        <time>2020-06-10T08:23:31Z</time>
      </trkpt>
      <trkpt lat="48.6207" lon="-4.26301">
        <ele>23.5</ele>
        <time>2020-06-10T08:23:32Z</time>
      </trkpt>
      <trkpt lat="48.62071" lon="-4.26294">
        <ele>23.5</ele>
        <time>2020-06-10T08:23:33Z</time>
      </trkpt>
      <trkpt lat="48.62072" lon="-4.26287">
        <ele>23.6</ele>
        <time>2020-06-10T08:23:34Z</time>
      </trkpt>
      <trkpt lat="48.62072" lon="-4.26281">
        <ele>23.6</ele>
        <time>2020-06-10T08:23:35Z</time>
      </trkpt>
      <trkpt lat="48.62072" lon="-4.26274">
        <ele>23.7</ele>
        <time>2020-06-10T08:23:36Z</time>
      </trkpt>
      <trkpt lat="48.62073" lon="-4.26268">
        <ele>23.7</ele>
        <time>2020-06-10T08:23:37Z</time>
      </trkpt>
      <trkpt lat="48.62074" lon="-4.26263">
        <ele>23.8</ele>
        <time>2020-06-10T08:23:38Z</time>
      </trkpt>
      <trkpt lat="48.62074" lon="-4.26257">
        <ele>23.8</ele>
        <time>2020-06-10T08:23:39Z</time>
      </trkpt>
      <trkpt lat="48.62075" lon="-4.26253">
        <ele>23.8</ele>
        <time>2020-06-10T08:23:40Z</time>
      </trkpt>
      <trkpt lat="48.62075" lon="-4.26247">
        <ele>23.9</ele>
        <time>2020-06-10T08:23:41Z</time>
      </trkpt>
      <trkpt lat="48.62077" lon="-4.2624">
        <ele>23.9</ele>
        <time>2020-06-10T08:23:42Z</time>
      </trkpt>
      <trkpt lat="48.62077" lon="-4.26234">
        <ele>23.9</ele>
        <time>2020-06-10T08:23:43Z</time>
      </trkpt>
      <trkpt lat="48.62078" lon="-4.26228">
        <ele>23.8</ele>
        <time>2020-06-10T08:23:44Z</time>
      </trkpt>
      <trkpt lat="48.62078" lon="-4.26222">
        <ele>23.8</ele>
        <time>2020-06-10T08:23:45Z</time>
      </trkpt>
      <trkpt lat="48.62079" lon="-4.26216">
        <ele>23.7</ele>
        <time>2020-06-10T08:23:46Z</time>
      </trkpt>
      <trkpt lat="48.6208" lon="-4.2621">
        <ele>23.7</ele>
        <time>2020-06-10T08:23:47Z</time>
      </trkpt>
      <trkpt lat="48.62081" lon="-4.26204">
        <ele>23.6</ele>
        <time>2020-06-10T08:23:48Z</time>
      </trkpt>
      <trkpt lat="48.62083" lon="-4.26199">
        <ele>23.6</ele>
        <time>2020-06-10T08:23:49Z</time>
      </trkpt>
      <trkpt lat="48.62084" lon="-4.26192">
        <ele>23.5</ele>
        <time>2020-06-10T08:23:50Z</time>
      </trkpt>
      <trkpt lat="48.62085" lon="-4.26186">
        <ele>23.5</ele>
        <time>2020-06-10T08:23:51Z</time>
      </trkpt>
      <trkpt lat="48.62086" lon="-4.2618">
        <ele>23.4</ele>
        <time>2020-06-10T08:23:52Z</time>
      </trkpt>
      <trkpt lat="48.62087" lon="-4.26174">
        <ele>23.4</ele>
        <time>2020-06-10T08:23:53Z</time>
      </trkpt>
      <trkpt lat="48.62088" lon="-4.26168">
        <ele>23.3</ele>
        <time>2020-06-10T08:23:54Z</time>
      </trkpt>
      <trkpt lat="48.62089" lon="-4.26161">
        <ele>23.2</ele>
        <time>2020-06-10T08:23:55Z</time>
      </trkpt>
      <trkpt lat="48.62091" lon="-4.26154">
        <ele>23.2</ele>
        <time>2020-06-10T08:23:56Z</time>
      </trkpt>
      <trkpt lat="48.62091" lon="-4.26148">
        <ele>23.1</ele>
        <time>2020-06-10T08:23:57Z</time>
      </trkpt>
      <trkpt lat="48.62092" lon="-4.26142">
        <ele>23.1</ele>
        <time>2020-06-10T08:23:58Z</time>
      </trkpt>
      <trkpt lat="48.62094" lon="-4.26136">
        <ele>23</ele>
        <time>2020-06-10T08:23:59Z</time>
      </trkpt>
      <trkpt lat="48.62095" lon="-4.26129">
        <ele>23</ele>
        <time>2020-06-10T08:24:00Z</time>
      </trkpt>
      <trkpt lat="48.62096" lon="-4.26124">
        <ele>22.9</ele>
        <time>2020-06-10T08:24:01Z</time>
      </trkpt>
      <trkpt lat="48.62097" lon="-4.26118">
        <ele>22.9</ele>
        <time>2020-06-10T08:24:02Z</time>
      </trkpt>
      <trkpt lat="48.62098" lon="-4.26111">
        <ele>22.8</ele>
        <time>2020-06-10T08:24:03Z</time>
      </trkpt>
      <trkpt lat="48.621" lon="-4.26105">
        <ele>22.8</ele>
        <time>2020-06-10T08:24:04Z</time>
      </trkpt>
      <trkpt lat="48.62101" lon="-4.26098">
        <ele>22.7</ele>
        <time>2020-06-10T08:24:05Z</time>
      </trkpt>
      <trkpt lat="48.62102" lon="-4.26092">
        <ele>22.6</ele>
        <time>2020-06-10T08:24:06Z</time>
      </trkpt>
      <trkpt lat="48.62104" lon="-4.26087">
        <ele>22.6</ele>
        <time>2020-06-10T08:24:07Z</time>
      </trkpt>
      <trkpt lat="48.62104" lon="-4.2608">
        <ele>22.5</ele>
        <time>2020-06-10T08:24:08Z</time>
      </trkpt>
      <trkpt lat="48.62105" lon="-4.26073">
        <ele>22.5</ele>
        <time>2020-06-10T08:24:09Z</time>
      </trkpt>
      <trkpt lat="48.62105" lon="-4.26067">
        <ele>22.4</ele>
        <time>2020-06-10T08:24:10Z</time>
      </trkpt>
      <trkpt lat="48.62104" lon="-4.26062">
        <ele>22.4</ele>
        <time>2020-06-10T08:24:11Z</time>
      </trkpt>
      <trkpt lat="48.62104" lon="-4.26056">
        <ele>22.3</ele>
        <time>2020-06-10T08:24:12Z</time>
      </trkpt>
      <trkpt lat="48.62104" lon="-4.26049">
        <ele>22.3</ele>
        <time>2020-06-10T08:24:13Z</time>
      </trkpt>
      <trkpt lat="48.62103" lon="-4.26043">
        <ele>22.2</ele>
        <time>2020-06-10T08:24:14Z</time>
      </trkpt>
      <trkpt lat="48.62104" lon="-4.26036">
        <ele>22.2</ele>
        <time>2020-06-10T08:24:15Z</time>
      </trkpt>
      <trkpt lat="48.62103" lon="-4.2603">
        <ele>22.1</ele>
        <time>2020-06-10T08:24:16Z</time>
      </trkpt>
      <trkpt lat="48.62102" lon="-4.26024">
        <ele>22</ele>
        <time>2020-06-10T08:24:17Z</time>
      </trkpt>
      <trkpt lat="48.62101" lon="-4.26017">
        <ele>22</ele>
        <time>2020-06-10T08:24:18Z</time>
      </trkpt>
      <trkpt lat="48.621" lon="-4.2601">
        <ele>21.9</ele>
        <time>2020-06-10T08:24:19Z</time>
      </trkpt>
      <trkpt lat="48.62099" lon="-4.26003">
        <ele>21.8</ele>
        <time>2020-06-10T08:24:20Z</time>
      </trkpt>
      <trkpt lat="48.62099" lon="-4.25995">
        <ele>21.7</ele>
        <time>2020-06-10T08:24:21Z</time>
      </trkpt>
      <trkpt lat="48.62098" lon="-4.25988">
        <ele>21.6</ele>
        <time>2020-06-10T08:24:22Z</time>
      </trkpt>
      <trkpt lat="48.62099" lon="-4.2598">
        <ele>21.5</ele>
        <time>2020-06-10T08:24:23Z</time>
      </trkpt>
      <trkpt lat="48.62098" lon="-4.25972">
        <ele>21.7</ele>
        <time>2020-06-10T08:24:24Z</time>
      </trkpt>
      <trkpt lat="48.62097" lon="-4.25964">
        <ele>22.1</ele>
        <time>2020-06-10T08:24:25Z</time>
      </trkpt>
      <trkpt lat="48.62097" lon="-4.25956">
        <ele>22.6</ele>
        <time>2020-06-10T08:24:26Z</time>
      </trkpt>
      <trkpt lat="48.62097" lon="-4.25949">
        <ele>23</ele>
        <time>2020-06-10T08:24:27Z</time>
      </trkpt>
      <trkpt lat="48.62097" lon="-4.25943">
        <ele>23.4</ele>
        <time>2020-06-10T08:24:28Z</time>
      </trkpt>
      <trkpt lat="48.62098" lon="-4.25939">
        <ele>23.6</ele>
        <time>2020-06-10T08:24:29Z</time>
      </trkpt>
      <trkpt lat="48.62098" lon="-4.25941">
        <ele>23.7</ele>
        <time>2020-06-10T08:24:30Z</time>
      </trkpt>
      <trkpt lat="48.62098" lon="-4.25944">
        <ele>23.9</ele>
        <time>2020-06-10T08:24:31Z</time>
      </trkpt>
      <trkpt lat="48.62098" lon="-4.25946">
        <ele>24.1</ele>
        <time>2020-06-10T08:24:32Z</time>
      </trkpt>
      <trkpt lat="48.62096" lon="-4.25942">
        <ele>24.4</ele>
        <time>2020-06-10T08:24:33Z</time>
      </trkpt>
      <trkpt lat="48.62097" lon="-4.25945">
        <ele>24.5</ele>
        <time>2020-06-10T08:24:34Z</time>
      </trkpt>
      <trkpt lat="48.62097" lon="-4.25948">
        <ele>24.7</ele>
        <time>2020-06-10T08:24:35Z</time>
      </trkpt>
      <trkpt lat="48.62096" lon="-4.25954">
        <ele>25.1</ele>
        <time>2020-06-10T08:24:36Z</time>
      </trkpt>
      <trkpt lat="48.62097" lon="-4.25956">
        <ele>25.3</ele>
        <time>2020-06-10T08:24:37Z</time>
      </trkpt>
      <trkpt lat="48.62098" lon="-4.2596">
        <ele>25.6</ele>
        <time>2020-06-10T08:24:38Z</time>
      </trkpt>
      <trkpt lat="48.621" lon="-4.25963">
        <ele>25.9</ele>
        <time>2020-06-10T08:24:39Z</time>
      </trkpt>
      <trkpt lat="48.62102" lon="-4.25967">
        <ele>26.2</ele>
        <time>2020-06-10T08:24:40Z</time>
      </trkpt>
      <trkpt lat="48.62103" lon="-4.25971">
        <ele>26.5</ele>
        <time>2020-06-10T08:24:41Z</time>
      </trkpt>
      <trkpt lat="48.62105" lon="-4.25975">
        <ele>26.9</ele>
        <time>2020-06-10T08:24:42Z</time>
      </trkpt>
      <trkpt lat="48.62107" lon="-4.25978">
        <ele>27.2</ele>
        <time>2020-06-10T08:24:43Z</time>
      </trkpt>
      <trkpt lat="48.62108" lon="-4.25983">
        <ele>27.6</ele>
        <time>2020-06-10T08:24:44Z</time>
      </trkpt>
      <trkpt lat="48.6211" lon="-4.25986">
        <ele>27.9</ele>
        <time>2020-06-10T08:24:45Z</time>
      </trkpt>
      <trkpt lat="48.62112" lon="-4.2599">
        <ele>28.2</ele>
        <time>2020-06-10T08:24:46Z</time>
      </trkpt>
      <trkpt lat="48.62114" lon="-4.25993">
        <ele>28.5</ele>
        <time>2020-06-10T08:24:47Z</time>
      </trkpt>
      <trkpt lat="48.62116" lon="-4.25995">
        <ele>28.9</ele>
        <time>2020-06-10T08:24:48Z</time>
      </trkpt>
      <trkpt lat="48.62119" lon="-4.25998">
        <ele>29.2</ele>
        <time>2020-06-10T08:24:49Z</time>
      </trkpt>
      <trkpt lat="48.62121" lon="-4.26001">
        <ele>29.5</ele>
        <time>2020-06-10T08:24:50Z</time>
      </trkpt>
      <trkpt lat="48.62123" lon="-4.26002">
        <ele>29.8</ele>
        <time>2020-06-10T08:24:51Z</time>
      </trkpt>
      <trkpt lat="48.62126" lon="-4.26005">
        <ele>30.1</ele>
        <time>2020-06-10T08:24:52Z</time>
      </trkpt>
      <trkpt lat="48.62128" lon="-4.26007">
        <ele>30.4</ele>
        <time>2020-06-10T08:24:53Z</time>
      </trkpt>
      <trkpt lat="48.62131" lon="-4.2601">
        <ele>30.7</ele>
        <time>2020-06-10T08:24:54Z</time>
      </trkpt>
      <trkpt lat="48.62133" lon="-4.26013">
        <ele>31</ele>
        <time>2020-06-10T08:24:55Z</time>
      </trkpt>
      <trkpt lat="48.62136" lon="-4.26016">
        <ele>31.4</ele>
        <time>2020-06-10T08:24:56Z</time>
      </trkpt>
      <trkpt lat="48.62138" lon="-4.26019">
        <ele>31.7</ele>
        <time>2020-06-10T08:24:57Z</time>
      </trkpt>
      <trkpt lat="48.62141" lon="-4.26022">
        <ele>32</ele>
        <time>2020-06-10T08:24:58Z</time>
      </trkpt>
      <trkpt lat="48.62145" lon="-4.26024">
        <ele>32.5</ele>
        <time>2020-06-10T08:24:59Z</time>
      </trkpt>
      <trkpt lat="48.62146" lon="-4.26025">
        <ele>32.6</ele>
        <time>2020-06-10T08:25:00Z</time>
      </trkpt>
      <trkpt lat="48.62148" lon="-4.26028">
        <ele>32.9</ele>
        <time>2020-06-10T08:25:01Z</time>
      </trkpt>
      <trkpt lat="48.62151" lon="-4.2603">
        <ele>33.2</ele>
        <time>2020-06-10T08:25:02Z</time>
      </trkpt>
      <trkpt lat="48.62153" lon="-4.26031">
        <ele>33.5</ele>
        <time>2020-06-10T08:25:03Z</time>
      </trkpt>
      <trkpt lat="48.62156" lon="-4.26033">
        <ele>33.8</ele>
        <time>2020-06-10T08:25:04Z</time>
      </trkpt>
      <trkpt lat="48.62157" lon="-4.26033">
        <ele>33.9</ele>
        <time>2020-06-10T08:25:05Z</time>
      </trkpt>
      <trkpt lat="48.6216" lon="-4.26036">
        <ele>34.3</ele>
        <time>2020-06-10T08:25:06Z</time>
      </trkpt>
      <trkpt lat="48.6216" lon="-4.26037">
        <ele>34.4</ele>
        <time>2020-06-10T08:25:07Z</time>
      </trkpt>
      <trkpt lat="48.62163" lon="-4.26039">
        <ele>34.6</ele>
        <time>2020-06-10T08:25:08Z</time>
      </trkpt>
      <trkpt lat="48.62163" lon="-4.2604">
        <ele>34.8</ele>
        <time>2020-06-10T08:25:09Z</time>
      </trkpt>
      <trkpt lat="48.62166" lon="-4.26042">
        <ele>35.1</ele>
        <time>2020-06-10T08:25:10Z</time>
      </trkpt>
      <trkpt lat="48.62169" lon="-4.26044">
        <ele>35.4</ele>
        <time>2020-06-10T08:25:11Z</time>
      </trkpt>
      <trkpt lat="48.62172" lon="-4.26046">
        <ele>35.7</ele>
        <time>2020-06-10T08:25:12Z</time>
      </trkpt>
      <trkpt lat="48.62175" lon="-4.26048">
        <ele>36.1</ele>
        <time>2020-06-10T08:25:13Z</time>
      </trkpt>
      <trkpt lat="48.62178" lon="-4.26049">
        <ele>36.4</ele>
        <time>2020-06-10T08:25:14Z</time>
      </trkpt>
      <trkpt lat="48.62181" lon="-4.26052">
        <ele>36.8</ele>
        <time>2020-06-10T08:25:15Z</time>
      </trkpt>
      <trkpt lat="48.62183" lon="-4.26053">
        <ele>37</ele>
        <time>2020-06-10T08:25:16Z</time>
      </trkpt>
      <trkpt lat="48.62185" lon="-4.26055">
        <ele>37.3</ele>
        <time>2020-06-10T08:25:17Z</time>
      </trkpt>
      <trkpt lat="48.62188" lon="-4.26057">
        <ele>37.7</ele>
        <time>2020-06-10T08:25:18Z</time>
      </trkpt>
      <trkpt lat="48.62189" lon="-4.26058">
        <ele>37.8</ele>
        <time>2020-06-10T08:25:19Z</time>
      </trkpt>
      <trkpt lat="48.62193" lon="-4.2606">
        <ele>38.3</ele>
        <time>2020-06-10T08:25:20Z</time>
      </trkpt>
      <trkpt lat="48.62194" lon="-4.26062">
        <ele>38.4</ele>
        <time>2020-06-10T08:25:21Z</time>
      </trkpt>
      <trkpt lat="48.62196" lon="-4.26064">
        <ele>39.3</ele>
        <time>2020-06-10T08:25:22Z</time>
      </trkpt>
      <trkpt lat="48.62199" lon="-4.26066">
        <ele>39.4</ele>
        <time>2020-06-10T08:25:23Z</time>
      </trkpt>
      <trkpt lat="48.622" lon="-4.26066">
        <ele>39.4</ele>
        <time>2020-06-10T08:25:24Z</time>
      </trkpt>
      <trkpt lat="48.62203" lon="-4.26069">
        <ele>39.5</ele>
        <time>2020-06-10T08:25:25Z</time>
      </trkpt>
      <trkpt lat="48.62203" lon="-4.2607">
        <ele>39.5</ele>
        <time>2020-06-10T08:25:26Z</time>
      </trkpt>
      <trkpt lat="48.62205" lon="-4.26072">
        <ele>39.6</ele>
        <time>2020-06-10T08:25:27Z</time>
      </trkpt>
      <trkpt lat="48.62207" lon="-4.26073">
        <ele>39.7</ele>
        <time>2020-06-10T08:25:28Z</time>
      </trkpt>
      <trkpt lat="48.62209" lon="-4.26075">
        <ele>39.7</ele>
        <time>2020-06-10T08:25:29Z</time>
      </trkpt>
      <trkpt lat="48.62213" lon="-4.26078">
        <ele>39.9</ele>
        <time>2020-06-10T08:25:30Z</time>
      </trkpt>
      <trkpt lat="48.62214" lon="-4.26079">
        <ele>39.9</ele>
        <time>2020-06-10T08:25:31Z</time>
      </trkpt>
      <trkpt lat="48.62216" lon="-4.26081">
        <ele>40</ele>
        <time>2020-06-10T08:25:32Z</time>
      </trkpt>
      <trkpt lat="48.62217" lon="-4.26082">
        <ele>40</ele>
        <time>2020-06-10T08:25:33Z</time>
      </trkpt>
      <trkpt lat="48.62219" lon="-4.26083">
        <ele>40.1</ele>
        <time>2020-06-10T08:25:34Z</time>
      </trkpt>
      <trkpt lat="48.6222" lon="-4.26084">
        <ele>40.1</ele>
        <time>2020-06-10T08:25:35Z</time>
      </trkpt>
      <trkpt lat="48.62221" lon="-4.26085">
        <ele>40.2</ele>
        <time>2020-06-10T08:25:36Z</time>
      </trkpt>
      <trkpt lat="48.62222" lon="-4.26087">
        <ele>40.2</ele>
        <time>2020-06-10T08:25:37Z</time>
      </trkpt>
      <trkpt lat="48.62223" lon="-4.26088">
        <ele>40.3</ele>
        <time>2020-06-10T08:25:38Z</time>
      </trkpt>
      <trkpt lat="48.62225" lon="-4.26089">
        <ele>40.4</ele>
        <time>2020-06-10T08:25:39Z</time>
      </trkpt>
      <trkpt lat="48.62227" lon="-4.26092">
        <ele>40.5</ele>
        <time>2020-06-10T08:25:40Z</time>
      </trkpt>
      <trkpt lat="48.6223" lon="-4.26095">
        <ele>40.6</ele>
        <time>2020-06-10T08:25:41Z</time>
      </trkpt>
      <trkpt lat="48.62231" lon="-4.26097">
        <ele>40.7</ele>
        <time>2020-06-10T08:25:42Z</time>
      </trkpt>
      <trkpt lat="48.62234" lon="-4.26099">
        <ele>40.8</ele>
        <time>2020-06-10T08:25:43Z</time>
      </trkpt>
      <trkpt lat="48.62237" lon="-4.26101">
        <ele>40.9</ele>
        <time>2020-06-10T08:25:44Z</time>
      </trkpt>
      <trkpt lat="48.62238" lon="-4.26102">
        <ele>41</ele>
        <time>2020-06-10T08:25:45Z</time>
      </trkpt>
      <trkpt lat="48.62241" lon="-4.26104">
        <ele>41.1</ele>
        <time>2020-06-10T08:25:46Z</time>
      </trkpt>
      <trkpt lat="48.62244" lon="-4.26105">
        <ele>41.2</ele>
        <time>2020-06-10T08:25:47Z</time>
      </trkpt>
      <trkpt lat="48.62245" lon="-4.26106">
        <ele>41.2</ele>
        <time>2020-06-10T08:25:48Z</time>
      </trkpt>
      <trkpt lat="48.62247" lon="-4.26108">
        <ele>41.3</ele>
        <time>2020-06-10T08:25:49Z</time>
      </trkpt>
      <trkpt lat="48.62251" lon="-4.26111">
        <ele>41.5</ele>
        <time>2020-06-10T08:25:50Z</time>
      </trkpt>
      <trkpt lat="48.62253" lon="-4.26112">
        <ele>41.5</ele>
        <time>2020-06-10T08:25:51Z</time>
      </trkpt>
      <trkpt lat="48.62254" lon="-4.26112">
        <ele>41.6</ele>
        <time>2020-06-10T08:25:52Z</time>
      </trkpt>
      <trkpt lat="48.62256" lon="-4.26113">
        <ele>41.6</ele>
        <time>2020-06-10T08:25:53Z</time>
      </trkpt>
      <trkpt lat="48.6226" lon="-4.26113">
        <ele>41.7</ele>
        <time>2020-06-10T08:25:54Z</time>
      </trkpt>
      <trkpt lat="48.62261" lon="-4.26113">
        <ele>41.7</ele>
        <time>2020-06-10T08:25:55Z</time>
      </trkpt>
      <trkpt lat="48.62264" lon="-4.26114">
        <ele>41.7</ele>
        <time>2020-06-10T08:25:56Z</time>
      </trkpt>
      <trkpt lat="48.62267" lon="-4.26114">
        <ele>41.8</ele>
        <time>2020-06-10T08:25:57Z</time>
      </trkpt>
      <trkpt lat="48.62271" lon="-4.26114">
        <ele>41.8</ele>
        <time>2020-06-10T08:25:58Z</time>
      </trkpt>
      <trkpt lat="48.62272" lon="-4.26115">
        <ele>41.8</ele>
        <time>2020-06-10T08:25:59Z</time>
      </trkpt>
      <trkpt lat="48.62274" lon="-4.26116">
        <ele>41.7</ele>
        <time>2020-06-10T08:26:00Z</time>
      </trkpt>
      <trkpt lat="48.62275" lon="-4.26116">
        <ele>41.7</ele>
        <time>2020-06-10T08:26:01Z</time>
      </trkpt>
      <trkpt lat="48.62277" lon="-4.26116">
        <ele>41.7</ele>
        <time>2020-06-10T08:26:02Z</time>
      </trkpt>
      <trkpt lat="48.62278" lon="-4.26116">
        <ele>41.6</ele>
        <time>2020-06-10T08:26:03Z</time>
      </trkpt>
      <trkpt lat="48.6228" lon="-4.26117">
        <ele>41.6</ele>
        <time>2020-06-10T08:26:04Z</time>
      </trkpt>
      <trkpt lat="48.62283" lon="-4.26116">
        <ele>41.5</ele>
        <time>2020-06-10T08:26:05Z</time>
      </trkpt>
      <trkpt lat="48.62284" lon="-4.26116">
        <ele>41.4</ele>
        <time>2020-06-10T08:26:06Z</time>
      </trkpt>
      <trkpt lat="48.62287" lon="-4.26116">
        <ele>41.3</ele>
        <time>2020-06-10T08:26:07Z</time>
      </trkpt>
      <trkpt lat="48.62291" lon="-4.26115">
        <ele>41.1</ele>
        <time>2020-06-10T08:26:08Z</time>
      </trkpt>
      <trkpt lat="48.62292" lon="-4.26115">
        <ele>43.2</ele>
        <time>2020-06-10T08:26:09Z</time>
      </trkpt>
      <trkpt lat="48.62294" lon="-4.26115">
        <ele>43.2</ele>
        <time>2020-06-10T08:26:10Z</time>
      </trkpt>
      <trkpt lat="48.62294" lon="-4.26115">
        <ele>43.2</ele>
        <time>2020-06-10T08:26:11Z</time>
      </trkpt>
      <trkpt lat="48.62295" lon="-4.26116">
        <ele>43.2</ele>
        <time>2020-06-10T08:26:12Z</time>
      </trkpt>
      <trkpt lat="48.62297" lon="-4.26116">
        <ele>43.2</ele>
        <time>2020-06-10T08:26:13Z</time>
      </trkpt>
      <trkpt lat="48.62298" lon="-4.26115">
        <ele>43.2</ele>
        <time>2020-06-10T08:26:14Z</time>
      </trkpt>
      <trkpt lat="48.62299" lon="-4.26114">
        <ele>43.2</ele>
        <time>2020-06-10T08:26:15Z</time>
      </trkpt>
      <trkpt lat="48.623" lon="-4.26112">
        <ele>43.3</ele>
        <time>2020-06-10T08:26:16Z</time>
      </trkpt>
      <trkpt lat="48.62301" lon="-4.26112">
        <ele>43.3</ele>
        <time>2020-06-10T08:26:17Z</time>
      </trkpt>
      <trkpt lat="48.62301" lon="-4.26112">
        <ele>43.3</ele>
        <time>2020-06-10T08:26:18Z</time>
      </trkpt>
      <trkpt lat="48.62302" lon="-4.26112">
        <ele>43.3</ele>
        <time>2020-06-10T08:26:19Z</time>
      </trkpt>
      <trkpt lat="48.62304" lon="-4.26113">
        <ele>43.3</ele>
        <time>2020-06-10T08:26:20Z</time>
      </trkpt>
      <trkpt lat="48.62305" lon="-4.26113">
        <ele>43.3</ele>
        <time>2020-06-10T08:26:21Z</time>
      </trkpt>
      <trkpt lat="48.62306" lon="-4.26112">
        <ele>43.3</ele>
        <time>2020-06-10T08:26:22Z</time>
      </trkpt>
      <trkpt lat="48.62309" lon="-4.2611">
        <ele>43.3</ele>
        <time>2020-06-10T08:26:23Z</time>
      </trkpt>
      <trkpt lat="48.62309" lon="-4.2611">
        <ele>43.3</ele>
        <time>2020-06-10T08:26:24Z</time>
      </trkpt>
      <trkpt lat="48.62311" lon="-4.2611">
        <ele>43.3</ele>
        <time>2020-06-10T08:26:25Z</time>
      </trkpt>
      <trkpt lat="48.6231" lon="-4.26108">
        <ele>43.3</ele>
        <time>2020-06-10T08:26:26Z</time>
      </trkpt>
      <trkpt lat="48.62311" lon="-4.26107">
        <ele>43.3</ele>
        <time>2020-06-10T08:26:27Z</time>
      </trkpt>
      <trkpt lat="48.62312" lon="-4.26111">
        <ele>43.3</ele>
        <time>2020-06-10T08:26:28Z</time>
      </trkpt>
      <trkpt lat="48.62312" lon="-4.26112">
        <ele>43.3</ele>
        <time>2020-06-10T08:26:29Z</time>
      </trkpt>
      <trkpt lat="48.62313" lon="-4.26112">
        <ele>43.3</ele>
        <time>2020-06-10T08:26:30Z</time>
      </trkpt>
      <trkpt lat="48.62313" lon="-4.26111">
        <ele>43.3</ele>
        <time>2020-06-10T08:26:31Z</time>
      </trkpt>
      <trkpt lat="48.62313" lon="-4.26111">
        <ele>43.3</ele>
        <time>2020-06-10T08:26:32Z</time>
      </trkpt>
      <trkpt lat="48.62314" lon="-4.2611">
        <ele>43.3</ele>
        <time>2020-06-10T08:26:33Z</time>
      </trkpt>
      <trkpt lat="48.62315" lon="-4.26109">
        <ele>43.3</ele>
        <time>2020-06-10T08:26:34Z</time>
      </trkpt>
      <trkpt lat="48.62315" lon="-4.26108">
        <ele>43.3</ele>
        <time>2020-06-10T08:26:35Z</time>
      </trkpt>
      <trkpt lat="48.62315" lon="-4.26108">
        <ele>43.3</ele>
        <time>2020-06-10T08:26:36Z</time>
      </trkpt>
      <trkpt lat="48.62316" lon="-4.26109">
        <ele>43.3</ele>
        <time>2020-06-10T08:26:37Z</time>
      </trkpt>
      <trkpt lat="48.62316" lon="-4.26109">
        <ele>43.3</ele>
        <time>2020-06-10T08:26:38Z</time>
      </trkpt>
      <trkpt lat="48.62316" lon="-4.2611">
        <ele>43.3</ele>
        <time>2020-06-10T08:26:39Z</time>
      </trkpt>
      <trkpt lat="48.62316" lon="-4.2611">
        <ele>43.3</ele>
        <time>2020-06-10T08:26:40Z</time>
      </trkpt>
      <trkpt lat="48.62316" lon="-4.26111">
        <ele>43.3</ele>
        <time>2020-06-10T08:26:41Z</time>
      </trkpt>
      <trkpt lat="48.62317" lon="-4.26111">
        <ele>43.3</ele>
        <time>2020-06-10T08:26:42Z</time>
      </trkpt>
      <trkpt lat="48.62317" lon="-4.26112">
        <ele>43.3</ele>
        <time>2020-06-10T08:26:43Z</time>
      </trkpt>
      <trkpt lat="48.62317" lon="-4.26113">
        <ele>43.3</ele>
        <time>2020-06-10T08:26:44Z</time>
      </trkpt>
      <trkpt lat="48.62317" lon="-4.26113">
        <ele>43.3</ele>
        <time>2020-06-10T08:26:45Z</time>
      </trkpt>
      <trkpt lat="48.62317" lon="-4.26114">
        <ele>43.3</ele>
        <time>2020-06-10T08:26:46Z</time>
      </trkpt>
      <trkpt lat="48.62318" lon="-4.26114">
        <ele>43.3</ele>
        <time>2020-06-10T08:38:35Z</time>
      </trkpt>
      <trkpt lat="48.62318" lon="-4.26115">
        <ele>43.3</ele>
        <time>2020-06-10T08:38:36Z</time>
      </trkpt>
      <trkpt lat="48.62318" lon="-4.26115">
        <ele>43.3</ele>
        <time>2020-06-10T08:38:37Z</time>
      </trkpt>
      <trkpt lat="48.62315" lon="-4.26118">
        <ele>43.3</ele>
        <time>2020-06-10T08:38:38Z</time>
      </trkpt>
      <trkpt lat="48.62314" lon="-4.26119">
        <ele>43.3</ele>
        <time>2020-06-10T08:38:39Z</time>
      </trkpt>
      <trkpt lat="48.62311" lon="-4.2612">
        <ele>43.2</ele>
        <time>2020-06-10T08:38:40Z</time>
      </trkpt>
      <trkpt lat="48.62309" lon="-4.26122">
        <ele>43.2</ele>
        <time>2020-06-10T08:38:41Z</time>
      </trkpt>
      <trkpt lat="48.62308" lon="-4.26123">
        <ele>43.2</ele>
        <time>2020-06-10T08:38:42Z</time>
      </trkpt>
      <trkpt lat="48.62305" lon="-4.26126">
        <ele>43.2</ele>
        <time>2020-06-10T08:38:43Z</time>
      </trkpt>
      <trkpt lat="48.62304" lon="-4.26127">
        <ele>43.2</ele>
        <time>2020-06-10T08:38:44Z</time>
      </trkpt>
      <trkpt lat="48.62302" lon="-4.26127">
        <ele>43.2</ele>
        <time>2020-06-10T08:38:45Z</time>
      </trkpt>
      <trkpt lat="48.62301" lon="-4.26128">
        <ele>43.2</ele>
        <time>2020-06-10T08:38:46Z</time>
      </trkpt>
      <trkpt lat="48.62299" lon="-4.26125">
        <ele>43.2</ele>
        <time>2020-06-10T08:38:47Z</time>
      </trkpt>
      <trkpt lat="48.62298" lon="-4.26125">
        <ele>43.2</ele>
        <time>2020-06-10T08:38:48Z</time>
      </trkpt>
      <trkpt lat="48.62294" lon="-4.26123">
        <ele>43.2</ele>
        <time>2020-06-10T08:38:49Z</time>
      </trkpt>
      <trkpt lat="48.62293" lon="-4.26122">
        <ele>43.2</ele>
        <time>2020-06-10T08:38:50Z</time>
      </trkpt>
      <trkpt lat="48.6229" lon="-4.26122">
        <ele>41.1</ele>
        <time>2020-06-10T08:38:51Z</time>
      </trkpt>
      <trkpt lat="48.62286" lon="-4.26122">
        <ele>41.3</ele>
        <time>2020-06-10T08:38:52Z</time>
      </trkpt>
      <trkpt lat="48.62283" lon="-4.26121">
        <ele>41.5</ele>
        <time>2020-06-10T08:38:53Z</time>
      </trkpt>
      <trkpt lat="48.6228" lon="-4.26121">
        <ele>41.6</ele>
        <time>2020-06-10T08:38:54Z</time>
      </trkpt>
      <trkpt lat="48.62276" lon="-4.2612">
        <ele>41.7</ele>
        <time>2020-06-10T08:38:55Z</time>
      </trkpt>
      <trkpt lat="48.62272" lon="-4.26119">
        <ele>41.8</ele>
        <time>2020-06-10T08:38:56Z</time>
      </trkpt>
      <trkpt lat="48.62267" lon="-4.26118">
        <ele>41.7</ele>
        <time>2020-06-10T08:38:57Z</time>
      </trkpt>
      <trkpt lat="48.62264" lon="-4.26117">
        <ele>41.7</ele>
        <time>2020-06-10T08:38:58Z</time>
      </trkpt>
      <trkpt lat="48.62259" lon="-4.26116">
        <ele>41.6</ele>
        <time>2020-06-10T08:38:59Z</time>
      </trkpt>
      <trkpt lat="48.62253" lon="-4.26113">
        <ele>41.5</ele>
        <time>2020-06-10T08:39:00Z</time>
      </trkpt>
      <trkpt lat="48.62248" lon="-4.26109">
        <ele>41.3</ele>
        <time>2020-06-10T08:39:01Z</time>
      </trkpt>
      <trkpt lat="48.62241" lon="-4.26105">
        <ele>41</ele>
        <time>2020-06-10T08:39:02Z</time>
      </trkpt>
      <trkpt lat="48.62235" lon="-4.261">
        <ele>40.7</ele>
        <time>2020-06-10T08:39:03Z</time>
      </trkpt>
      <trkpt lat="48.62228" lon="-4.26094">
        <ele>40.4</ele>
        <time>2020-06-10T08:39:04Z</time>
      </trkpt>
      <trkpt lat="48.62221" lon="-4.26088">
        <ele>40.1</ele>
        <time>2020-06-10T08:39:05Z</time>
      </trkpt>
      <trkpt lat="48.62214" lon="-4.26081">
        <ele>39.8</ele>
        <time>2020-06-10T08:39:06Z</time>
      </trkpt>
      <trkpt lat="48.62207" lon="-4.26074">
        <ele>39.6</ele>
        <time>2020-06-10T08:39:07Z</time>
      </trkpt>
      <trkpt lat="48.62199" lon="-4.26067">
        <ele>39.3</ele>
        <time>2020-06-10T08:39:08Z</time>
      </trkpt>
      <trkpt lat="48.62191" lon="-4.2606">
        <ele>37.9</ele>
        <time>2020-06-10T08:39:09Z</time>
      </trkpt>
      <trkpt lat="48.62183" lon="-4.26053">
        <ele>36.4</ele>
        <time>2020-06-10T08:39:10Z</time>
      </trkpt>
      <trkpt lat="48.62174" lon="-4.26046">
        <ele>34.9</ele>
        <time>2020-06-10T08:39:11Z</time>
      </trkpt>
      <trkpt lat="48.62166" lon="-4.26039">
        <ele>33.4</ele>
        <time>2020-06-10T08:39:12Z</time>
      </trkpt>
      <trkpt lat="48.62158" lon="-4.26032">
        <ele>32</ele>
        <time>2020-06-10T08:39:13Z</time>
      </trkpt>
      <trkpt lat="48.6215" lon="-4.26025">
        <ele>30.6</ele>
        <time>2020-06-10T08:39:14Z</time>
      </trkpt>
      <trkpt lat="48.62142" lon="-4.26019">
        <ele>29.4</ele>
        <time>2020-06-10T08:39:15Z</time>
      </trkpt>
      <trkpt lat="48.62135" lon="-4.26013">
        <ele>28.1</ele>
        <time>2020-06-10T08:39:16Z</time>
      </trkpt>
      <trkpt lat="48.62129" lon="-4.26008">
        <ele>26.9</ele>
        <time>2020-06-10T08:39:17Z</time>
      </trkpt>
      <trkpt lat="48.62123" lon="-4.26004">
        <ele>25.9</ele>
        <time>2020-06-10T08:39:18Z</time>
      </trkpt>
      <trkpt lat="48.62117" lon="-4.26">
        <ele>25.1</ele>
        <time>2020-06-10T08:39:19Z</time>
      </trkpt>
      <trkpt lat="48.62112" lon="-4.25996">
        <ele>24.2</ele>
        <time>2020-06-10T08:39:20Z</time>
      </trkpt>
      <trkpt lat="48.62108" lon="-4.25993">
        <ele>23.5</ele>
        <time>2020-06-10T08:39:21Z</time>
      </trkpt>
      <trkpt lat="48.62104" lon="-4.25989">
        <ele>22.8</ele>
        <time>2020-06-10T08:39:22Z</time>
      </trkpt>
      <trkpt lat="48.621" lon="-4.25984">
        <ele>22.2</ele>
        <time>2020-06-10T08:39:23Z</time>
      </trkpt>
      <trkpt lat="48.62097" lon="-4.2598">
        <ele>21.4</ele>
        <time>2020-06-10T08:39:24Z</time>
      </trkpt>
      <trkpt lat="48.62095" lon="-4.25972">
        <ele>21.4</ele>
        <time>2020-06-10T08:39:25Z</time>
      </trkpt>
      <trkpt lat="48.62095" lon="-4.25964">
        <ele>21.4</ele>
        <time>2020-06-10T08:39:26Z</time>
      </trkpt>
      <trkpt lat="48.62095" lon="-4.25955">
        <ele>21.4</ele>
        <time>2020-06-10T08:39:27Z</time>
      </trkpt>
      <trkpt lat="48.62096" lon="-4.25948">
        <ele>21.4</ele>
        <time>2020-06-10T08:39:28Z</time>
      </trkpt>
      <trkpt lat="48.62097" lon="-4.2594">
        <ele>21.4</ele>
        <time>2020-06-10T08:39:29Z</time>
      </trkpt>
      <trkpt lat="48.62097" lon="-4.25932">
        <ele>21.5</ele>
        <time>2020-06-10T08:39:30Z</time>
      </trkpt>
      <trkpt lat="48.62097" lon="-4.25924">
        <ele>21.5</ele>
        <time>2020-06-10T08:39:31Z</time>
      </trkpt>
      <trkpt lat="48.62098" lon="-4.25916">
        <ele>21.6</ele>
        <time>2020-06-10T08:39:32Z</time>
      </trkpt>
      <trkpt lat="48.62098" lon="-4.25908">
        <ele>21.6</ele>
        <time>2020-06-10T08:39:33Z</time>
      </trkpt>
      <trkpt lat="48.62099" lon="-4.25899">
        <ele>21.7</ele>
        <time>2020-06-10T08:39:34Z</time>
      </trkpt>
      <trkpt lat="48.62099" lon="-4.25891">
        <ele>21.7</ele>
        <time>2020-06-10T08:39:35Z</time>
      </trkpt>
      <trkpt lat="48.62099" lon="-4.25884">
        <ele>21.7</ele>
        <time>2020-06-10T08:39:36Z</time>
      </trkpt>
      <trkpt lat="48.621" lon="-4.25877">
        <ele>21.8</ele>
        <time>2020-06-10T08:39:37Z</time>
      </trkpt>
      <trkpt lat="48.621" lon="-4.25871">
        <ele>21.9</ele>
        <time>2020-06-10T08:39:38Z</time>
      </trkpt>
      <trkpt lat="48.621" lon="-4.25864">
        <ele>22</ele>
        <time>2020-06-10T08:39:39Z</time>
      </trkpt>
      <trkpt lat="48.621" lon="-4.25858">
        <ele>22.1</ele>
        <time>2020-06-10T08:39:40Z</time>
      </trkpt>
      <trkpt lat="48.621" lon="-4.25851">
        <ele>22.1</ele>
        <time>2020-06-10T08:39:41Z</time>
      </trkpt>
      <trkpt lat="48.621" lon="-4.25845">
        <ele>22.2</ele>
        <time>2020-06-10T08:39:42Z</time>
      </trkpt>
      <trkpt lat="48.62101" lon="-4.25838">
        <ele>22.2</ele>
        <time>2020-06-10T08:39:43Z</time>
      </trkpt>
      <trkpt lat="48.62101" lon="-4.25831">
        <ele>22.3</ele>
        <time>2020-06-10T08:39:44Z</time>
      </trkpt>
      <trkpt lat="48.62101" lon="-4.25824">
        <ele>22.3</ele>
        <time>2020-06-10T08:39:45Z</time>
      </trkpt>
      <trkpt lat="48.62101" lon="-4.25818">
        <ele>22.4</ele>
        <time>2020-06-10T08:39:46Z</time>
      </trkpt>
      <trkpt lat="48.62102" lon="-4.25811">
        <ele>22.4</ele>
        <time>2020-06-10T08:39:47Z</time>
      </trkpt>
      <trkpt lat="48.62103" lon="-4.25804">
        <ele>22.5</ele>
        <time>2020-06-10T08:39:48Z</time>
      </trkpt>
      <trkpt lat="48.62103" lon="-4.25797">
        <ele>22.5</ele>
        <time>2020-06-10T08:39:49Z</time>
      </trkpt>
      <trkpt lat="48.62103" lon="-4.2579">
        <ele>22.6</ele>
        <time>2020-06-10T08:39:50Z</time>
      </trkpt>
      <trkpt lat="48.62103" lon="-4.25783">
        <ele>22.7</ele>
        <time>2020-06-10T08:39:51Z</time>
      </trkpt>
      <trkpt lat="48.62103" lon="-4.25775">
        <ele>22.7</ele>
        <time>2020-06-10T08:39:52Z</time>
      </trkpt>
      <trkpt lat="48.62103" lon="-4.25768">
        <ele>22.8</ele>
        <time>2020-06-10T08:39:53Z</time>
      </trkpt>
      <trkpt lat="48.62103" lon="-4.2576">
        <ele>22.8</ele>
        <time>2020-06-10T08:39:54Z</time>
      </trkpt>
      <trkpt lat="48.62104" lon="-4.25753">
        <ele>22.8</ele>
        <time>2020-06-10T08:39:55Z</time>
      </trkpt>
      <trkpt lat="48.62104" lon="-4.25746">
        <ele>22.7</ele>
        <time>2020-06-10T08:39:56Z</time>
      </trkpt>
      <trkpt lat="48.62104" lon="-4.25738">
        <ele>22.7</ele>
        <time>2020-06-10T08:39:57Z</time>
      </trkpt>
      <trkpt lat="48.62104" lon="-4.2573">
        <ele>22.7</ele>
        <time>2020-06-10T08:39:58Z</time>
      </trkpt>
      <trkpt lat="48.62104" lon="-4.25722">
        <ele>22.8</ele>
        <time>2020-06-10T08:39:59Z</time>
      </trkpt>
      <trkpt lat="48.62104" lon="-4.25714">
        <ele>22.8</ele>
        <time>2020-06-10T08:40:00Z</time>
      </trkpt>
      <trkpt lat="48.62104" lon="-4.25706">
        <ele>22.9</ele>
        <time>2020-06-10T08:40:01Z</time>
      </trkpt>
      <trkpt lat="48.62104" lon="-4.25699">
        <ele>23</ele>
        <time>2020-06-10T08:40:02Z</time>
      </trkpt>
      <trkpt lat="48.62103" lon="-4.25691">
        <ele>23</ele>
        <time>2020-06-10T08:40:03Z</time>
      </trkpt>
      <trkpt lat="48.62102" lon="-4.25684">
        <ele>23.1</ele>
        <time>2020-06-10T08:40:04Z</time>
      </trkpt>
      <trkpt lat="48.62102" lon="-4.25677">
        <ele>23.2</ele>
        <time>2020-06-10T08:40:05Z</time>
      </trkpt>
      <trkpt lat="48.62102" lon="-4.2567">
        <ele>23.2</ele>
        <time>2020-06-10T08:40:06Z</time>
      </trkpt>
      <trkpt lat="48.62102" lon="-4.25663">
        <ele>23.3</ele>
        <time>2020-06-10T08:40:07Z</time>
      </trkpt>
      <trkpt lat="48.62102" lon="-4.25657">
        <ele>23.4</ele>
        <time>2020-06-10T08:40:08Z</time>
      </trkpt>
      <trkpt lat="48.62102" lon="-4.2565">
        <ele>23.5</ele>
        <time>2020-06-10T08:40:09Z</time>
      </trkpt>
      <trkpt lat="48.62103" lon="-4.25644">
        <ele>23.5</ele>
        <time>2020-06-10T08:40:10Z</time>
      </trkpt>
      <trkpt lat="48.62103" lon="-4.25637">
        <ele>23.6</ele>
        <time>2020-06-10T08:40:11Z</time>
      </trkpt>
      <trkpt lat="48.62102" lon="-4.2563">
        <ele>23.8</ele>
        <time>2020-06-10T08:40:12Z</time>
      </trkpt>
      <trkpt lat="48.62103" lon="-4.25623">
        <ele>23.9</ele>
        <time>2020-06-10T08:40:13Z</time>
      </trkpt>
      <trkpt lat="48.62103" lon="-4.25617">
        <ele>23.9</ele>
        <time>2020-06-10T08:40:14Z</time>
      </trkpt>
      <trkpt lat="48.62102" lon="-4.2561">
        <ele>24</ele>
        <time>2020-06-10T08:40:15Z</time>
      </trkpt>
      <trkpt lat="48.62103" lon="-4.25604">
        <ele>24.1</ele>
        <time>2020-06-10T08:40:16Z</time>
      </trkpt>
      <trkpt lat="48.62104" lon="-4.25597">
        <ele>24.3</ele>
        <time>2020-06-10T08:40:17Z</time>
      </trkpt>
      <trkpt lat="48.62105" lon="-4.25591">
        <ele>24.4</ele>
        <time>2020-06-10T08:40:18Z</time>
      </trkpt>
      <trkpt lat="48.62105" lon="-4.25585">
        <ele>24.6</ele>
        <time>2020-06-10T08:40:19Z</time>
      </trkpt>
      <trkpt lat="48.62106" lon="-4.25579">
        <ele>24.8</ele>
        <time>2020-06-10T08:40:20Z</time>
      </trkpt>
      <trkpt lat="48.62107" lon="-4.25572">
        <ele>25</ele>
        <time>2020-06-10T08:40:21Z</time>
      </trkpt>
      <trkpt lat="48.62107" lon="-4.25566">
        <ele>25.2</ele>
        <time>2020-06-10T08:40:22Z</time>
      </trkpt>
      <trkpt lat="48.62108" lon="-4.2556">
        <ele>25.4</ele>
        <time>2020-06-10T08:40:23Z</time>
      </trkpt>
      <trkpt lat="48.62109" lon="-4.25554">
        <ele>25.7</ele>
        <time>2020-06-10T08:40:24Z</time>
      </trkpt>
      <trkpt lat="48.62109" lon="-4.25548">
        <ele>25.9</ele>
        <time>2020-06-10T08:40:25Z</time>
      </trkpt>
      <trkpt lat="48.6211" lon="-4.25543">
        <ele>26.1</ele>
        <time>2020-06-10T08:40:26Z</time>
      </trkpt>
      <trkpt lat="48.62111" lon="-4.25537">
        <ele>26.4</ele>
        <time>2020-06-10T08:40:27Z</time>
      </trkpt>
      <trkpt lat="48.62112" lon="-4.25531">
        <ele>26.6</ele>
        <time>2020-06-10T08:40:28Z</time>
      </trkpt>
      <trkpt lat="48.62112" lon="-4.25525">
        <ele>26.8</ele>
        <time>2020-06-10T08:40:29Z</time>
      </trkpt>
      <trkpt lat="48.62112" lon="-4.2552">
        <ele>27</ele>
        <time>2020-06-10T08:40:30Z</time>
      </trkpt>
      <trkpt lat="48.62113" lon="-4.25514">
        <ele>27.2</ele>
        <time>2020-06-10T08:40:31Z</time>
      </trkpt>
      <trkpt lat="48.62112" lon="-4.2551">
        <ele>27.4</ele>
        <time>2020-06-10T08:40:32Z</time>
      </trkpt>
      <trkpt lat="48.62111" lon="-4.25504">
        <ele>27.6</ele>
        <time>2020-06-10T08:40:33Z</time>
      </trkpt>
      <trkpt lat="48.6211" lon="-4.25498">
        <ele>27.8</ele>
        <time>2020-06-10T08:40:34Z</time>
      </trkpt>
      <trkpt lat="48.6211" lon="-4.25496">
        <ele>28</ele>
        <time>2020-06-10T08:40:35Z</time>
      </trkpt>
      <trkpt lat="48.62111" lon="-4.25492">
        <ele>28.1</ele>
        <time>2020-06-10T08:40:36Z</time>
      </trkpt>
      <trkpt lat="48.62112" lon="-4.25487">
        <ele>28.3</ele>
        <time>2020-06-10T08:40:37Z</time>
      </trkpt>
      <trkpt lat="48.62113" lon="-4.25482">
        <ele>28.5</ele>
        <time>2020-06-10T08:40:38Z</time>
      </trkpt>
      <trkpt lat="48.62114" lon="-4.25478">
        <ele>29</ele>
        <time>2020-06-10T08:40:39Z</time>
      </trkpt>
      <trkpt lat="48.62115" lon="-4.25475">
        <ele>29</ele>
        <time>2020-06-10T08:40:40Z</time>
      </trkpt>
      <trkpt lat="48.62114" lon="-4.25472">
        <ele>29</ele>
        <time>2020-06-10T08:40:41Z</time>
      </trkpt>
      <trkpt lat="48.62113" lon="-4.25469">
        <ele>29.1</ele>
        <time>2020-06-10T08:40:42Z</time>
      </trkpt>
      <trkpt lat="48.62111" lon="-4.25463">
        <ele>29.1</ele>
        <time>2020-06-10T08:40:43Z</time>
      </trkpt>
      <trkpt lat="48.62111" lon="-4.25461">
        <ele>29.2</ele>
        <time>2020-06-10T08:40:44Z</time>
      </trkpt>
      <trkpt lat="48.6211" lon="-4.25456">
        <ele>29.2</ele>
        <time>2020-06-10T08:40:45Z</time>
      </trkpt>
      <trkpt lat="48.62109" lon="-4.25451">
        <ele>29.3</ele>
        <time>2020-06-10T08:40:46Z</time>
      </trkpt>
      <trkpt lat="48.62109" lon="-4.2545">
        <ele>29.3</ele>
        <time>2020-06-10T08:40:47Z</time>
      </trkpt>
      <trkpt lat="48.62108" lon="-4.25446">
        <ele>29.3</ele>
        <time>2020-06-10T08:40:48Z</time>
      </trkpt>
      <trkpt lat="48.62108" lon="-4.25444">
        <ele>29.3</ele>
        <time>2020-06-10T08:40:49Z</time>
      </trkpt>
      <trkpt lat="48.62107" lon="-4.25439">
        <ele>29.4</ele>
        <time>2020-06-10T08:40:50Z</time>
      </trkpt>
      <trkpt lat="48.62106" lon="-4.25437">
        <ele>29.4</ele>
        <time>2020-06-10T08:40:51Z</time>
      </trkpt>
      <trkpt lat="48.62104" lon="-4.25433">
        <ele>29.4</ele>
        <time>2020-06-10T08:40:52Z</time>
      </trkpt>
      <trkpt lat="48.62104" lon="-4.25432">
        <ele>29.4</ele>
        <time>2020-06-10T08:40:53Z</time>
      </trkpt>
      <trkpt lat="48.62102" lon="-4.25426">
        <ele>29.5</ele>
        <time>2020-06-10T08:40:54Z</time>
      </trkpt>
      <trkpt lat="48.62101" lon="-4.25425">
        <ele>29.5</ele>
        <time>2020-06-10T08:40:55Z</time>
      </trkpt>
      <trkpt lat="48.621" lon="-4.25419">
        <ele>29.6</ele>
        <time>2020-06-10T08:40:56Z</time>
      </trkpt>
      <trkpt lat="48.62099" lon="-4.25415">
        <ele>29.6</ele>
        <time>2020-06-10T08:40:57Z</time>
      </trkpt>
      <trkpt lat="48.62098" lon="-4.25411">
        <ele>29.7</ele>
        <time>2020-06-10T08:40:58Z</time>
      </trkpt>
      <trkpt lat="48.62096" lon="-4.25406">
        <ele>29.7</ele>
        <time>2020-06-10T08:40:59Z</time>
      </trkpt>
      <trkpt lat="48.62095" lon="-4.25402">
        <ele>29.8</ele>
        <time>2020-06-10T08:41:00Z</time>
      </trkpt>
      <trkpt lat="48.62094" lon="-4.25397">
        <ele>29.9</ele>
        <time>2020-06-10T08:41:01Z</time>
      </trkpt>
      <trkpt lat="48.62093" lon="-4.25392">
        <ele>30</ele>
        <time>2020-06-10T08:41:02Z</time>
      </trkpt>
      <trkpt lat="48.62092" lon="-4.25388">
        <ele>30.1</ele>
        <time>2020-06-10T08:41:03Z</time>
      </trkpt>
      <trkpt lat="48.62092" lon="-4.25384">
        <ele>30.1</ele>
        <time>2020-06-10T08:41:04Z</time>
      </trkpt>
      <trkpt lat="48.62091" lon="-4.25379">
        <ele>30.2</ele>
        <time>2020-06-10T08:41:05Z</time>
      </trkpt>
      <trkpt lat="48.62091" lon="-4.25374">
        <ele>30.4</ele>
        <time>2020-06-10T08:41:06Z</time>
      </trkpt>
      <trkpt lat="48.6209" lon="-4.2537">
        <ele>30.5</ele>
        <time>2020-06-10T08:41:07Z</time>
      </trkpt>
      <trkpt lat="48.62088" lon="-4.25364">
        <ele>30.6</ele>
        <time>2020-06-10T08:41:08Z</time>
      </trkpt>
      <trkpt lat="48.62087" lon="-4.25362">
        <ele>30.7</ele>
        <time>2020-06-10T08:41:09Z</time>
      </trkpt>
      <trkpt lat="48.62086" lon="-4.25358">
        <ele>30.8</ele>
        <time>2020-06-10T08:41:10Z</time>
      </trkpt>
      <trkpt lat="48.62085" lon="-4.25353">
        <ele>31</ele>
        <time>2020-06-10T08:41:11Z</time>
      </trkpt>
      <trkpt lat="48.62083" lon="-4.25348">
        <ele>31.1</ele>
        <time>2020-06-10T08:41:12Z</time>
      </trkpt>
      <trkpt lat="48.62083" lon="-4.25344">
        <ele>31.3</ele>
        <time>2020-06-10T08:41:13Z</time>
      </trkpt>
      <trkpt lat="48.62082" lon="-4.25339">
        <ele>31.4</ele>
        <time>2020-06-10T08:41:14Z</time>
      </trkpt>
      <trkpt lat="48.62081" lon="-4.25334">
        <ele>31.6</ele>
        <time>2020-06-10T08:41:15Z</time>
      </trkpt>
      <trkpt lat="48.62079" lon="-4.25327">
        <ele>31.8</ele>
        <time>2020-06-10T08:41:16Z</time>
      </trkpt>
      <trkpt lat="48.62079" lon="-4.25324">
        <ele>31.9</ele>
        <time>2020-06-10T08:41:17Z</time>
      </trkpt>
      <trkpt lat="48.62077" lon="-4.25319">
        <ele>32</ele>
        <time>2020-06-10T08:41:18Z</time>
      </trkpt>
      <trkpt lat="48.62076" lon="-4.25313">
        <ele>32.2</ele>
        <time>2020-06-10T08:41:19Z</time>
      </trkpt>
      <trkpt lat="48.62075" lon="-4.25307">
        <ele>32.4</ele>
        <time>2020-06-10T08:41:20Z</time>
      </trkpt>
      <trkpt lat="48.62073" lon="-4.25299">
        <ele>32.6</ele>
        <time>2020-06-10T08:41:21Z</time>
      </trkpt>
      <trkpt lat="48.62072" lon="-4.25292">
        <ele>32.9</ele>
        <time>2020-06-10T08:41:22Z</time>
      </trkpt>
      <trkpt lat="48.62071" lon="-4.25288">
        <ele>33</ele>
        <time>2020-06-10T08:41:23Z</time>
      </trkpt>
      <trkpt lat="48.6207" lon="-4.25281">
        <ele>33.2</ele>
        <time>2020-06-10T08:41:24Z</time>
      </trkpt>
      <trkpt lat="48.62068" lon="-4.25273">
        <ele>33.5</ele>
        <time>2020-06-10T08:41:25Z</time>
      </trkpt>
      <trkpt lat="48.62066" lon="-4.25267">
        <ele>33.8</ele>
        <time>2020-06-10T08:41:26Z</time>
      </trkpt>
      <trkpt lat="48.62065" lon="-4.2526">
        <ele>34</ele>
        <time>2020-06-10T08:41:27Z</time>
      </trkpt>
      <trkpt lat="48.62063" lon="-4.25254">
        <ele>34.3</ele>
        <time>2020-06-10T08:41:28Z</time>
      </trkpt>
      <trkpt lat="48.62061" lon="-4.25249">
        <ele>34.5</ele>
        <time>2020-06-10T08:41:29Z</time>
      </trkpt>
      <trkpt lat="48.62059" lon="-4.25244">
        <ele>34.7</ele>
        <time>2020-06-10T08:41:30Z</time>
      </trkpt>
      <trkpt lat="48.62057" lon="-4.25238">
        <ele>35</ele>
        <time>2020-06-10T08:41:31Z</time>
      </trkpt>
      <trkpt lat="48.62055" lon="-4.25232">
        <ele>35.3</ele>
        <time>2020-06-10T08:41:32Z</time>
      </trkpt>
      <trkpt lat="48.62055" lon="-4.25228">
        <ele>35.4</ele>
        <time>2020-06-10T08:41:33Z</time>
      </trkpt>
      <trkpt lat="48.62054" lon="-4.25224">
        <ele>35.6</ele>
        <time>2020-06-10T08:41:34Z</time>
      </trkpt>
      <trkpt lat="48.62053" lon="-4.25219">
        <ele>35.9</ele>
        <time>2020-06-10T08:41:35Z</time>
      </trkpt>
      <trkpt lat="48.62051" lon="-4.25214">
        <ele>36.1</ele>
        <time>2020-06-10T08:41:36Z</time>
      </trkpt>
      <trkpt lat="48.62049" lon="-4.25209">
        <ele>36.3</ele>
        <time>2020-06-10T08:41:37Z</time>
      </trkpt>
      <trkpt lat="48.62047" lon="-4.25204">
        <ele>36.6</ele>
        <time>2020-06-10T08:41:38Z</time>
      </trkpt>
      <trkpt lat="48.62046" lon="-4.25199">
        <ele>36.8</ele>
        <time>2020-06-10T08:41:39Z</time>
      </trkpt>
      <trkpt lat="48.62045" lon="-4.25194">
        <ele>37</ele>
        <time>2020-06-10T08:41:40Z</time>
      </trkpt>
      <trkpt lat="48.62043" lon="-4.25189">
        <ele>37.3</ele>
        <time>2020-06-10T08:41:41Z</time>
      </trkpt>
      <trkpt lat="48.62042" lon="-4.25184">
        <ele>37.5</ele>
        <time>2020-06-10T08:41:42Z</time>
      </trkpt>
      <trkpt lat="48.6204" lon="-4.25179">
        <ele>37.7</ele>
        <time>2020-06-10T08:41:43Z</time>
      </trkpt>
      <trkpt lat="48.62039" lon="-4.25174">
        <ele>38</ele>
        <time>2020-06-10T08:41:44Z</time>
      </trkpt>
      <trkpt lat="48.62037" lon="-4.2517">
        <ele>38.2</ele>
        <time>2020-06-10T08:41:45Z</time>
      </trkpt>
      <trkpt lat="48.62036" lon="-4.25164">
        <ele>38.5</ele>
        <time>2020-06-10T08:41:46Z</time>
      </trkpt>
      <trkpt lat="48.62035" lon="-4.25159">
        <ele>38.8</ele>
        <time>2020-06-10T08:41:47Z</time>
      </trkpt>
      <trkpt lat="48.62034" lon="-4.25154">
        <ele>39</ele>
        <time>2020-06-10T08:41:48Z</time>
      </trkpt>
      <trkpt lat="48.62032" lon="-4.25149">
        <ele>39.2</ele>
        <time>2020-06-10T08:41:49Z</time>
      </trkpt>
      <trkpt lat="48.62031" lon="-4.25145">
        <ele>39.4</ele>
        <time>2020-06-10T08:41:50Z</time>
      </trkpt>
      <trkpt lat="48.6203" lon="-4.2514">
        <ele>39.7</ele>
        <time>2020-06-10T08:41:51Z</time>
      </trkpt>
      <trkpt lat="48.62028" lon="-4.25135">
        <ele>39.9</ele>
        <time>2020-06-10T08:41:52Z</time>
      </trkpt>
      <trkpt lat="48.62027" lon="-4.25129">
        <ele>40.2</ele>
        <time>2020-06-10T08:41:53Z</time>
      </trkpt>
      <trkpt lat="48.62026" lon="-4.25123">
        <ele>40.5</ele>
        <time>2020-06-10T08:41:54Z</time>
      </trkpt>
      <trkpt lat="48.62024" lon="-4.25118">
        <ele>40.8</ele>
        <time>2020-06-10T08:41:55Z</time>
      </trkpt>
      <trkpt lat="48.62023" lon="-4.25114">
        <ele>40.9</ele>
        <time>2020-06-10T08:41:56Z</time>
      </trkpt>
      <trkpt lat="48.62021" lon="-4.25108">
        <ele>41.2</ele>
        <time>2020-06-10T08:41:57Z</time>
      </trkpt>
      <trkpt lat="48.62019" lon="-4.25104">
        <ele>41.5</ele>
        <time>2020-06-10T08:41:58Z</time>
      </trkpt>
      <trkpt lat="48.62018" lon="-4.25099">
        <ele>41.7</ele>
        <time>2020-06-10T08:41:59Z</time>
      </trkpt>
      <trkpt lat="48.62016" lon="-4.25094">
        <ele>42</ele>
        <time>2020-06-10T08:42:00Z</time>
      </trkpt>
      <trkpt lat="48.62015" lon="-4.25089">
        <ele>42.3</ele>
        <time>2020-06-10T08:42:01Z</time>
      </trkpt>
      <trkpt lat="48.62014" lon="-4.25087">
        <ele>42.4</ele>
        <time>2020-06-10T08:42:02Z</time>
      </trkpt>
      <trkpt lat="48.62013" lon="-4.25083">
        <ele>42.6</ele>
        <time>2020-06-10T08:42:03Z</time>
      </trkpt>
      <trkpt lat="48.62012" lon="-4.25079">
        <ele>42.8</ele>
        <time>2020-06-10T08:42:04Z</time>
      </trkpt>
      <trkpt lat="48.6201" lon="-4.25074">
        <ele>43</ele>
        <time>2020-06-10T08:42:05Z</time>
      </trkpt>
      <trkpt lat="48.6201" lon="-4.25073">
        <ele>43.1</ele>
        <time>2020-06-10T08:42:06Z</time>
      </trkpt>
      <trkpt lat="48.62008" lon="-4.25066">
        <ele>43.4</ele>
        <time>2020-06-10T08:42:07Z</time>
      </trkpt>
      <trkpt lat="48.62008" lon="-4.25064">
        <ele>43.6</ele>
        <time>2020-06-10T08:42:08Z</time>
      </trkpt>
      <trkpt lat="48.62007" lon="-4.25058">
        <ele>43.8</ele>
        <time>2020-06-10T08:42:09Z</time>
      </trkpt>
      <trkpt lat="48.62005" lon="-4.25052">
        <ele>44.1</ele>
        <time>2020-06-10T08:42:10Z</time>
      </trkpt>
      <trkpt lat="48.62004" lon="-4.25047">
        <ele>44.4</ele>
        <time>2020-06-10T08:42:11Z</time>
      </trkpt>
      <trkpt lat="48.62002" lon="-4.25042">
        <ele>44.6</ele>
        <time>2020-06-10T08:42:12Z</time>
      </trkpt>
      <trkpt lat="48.62001" lon="-4.25038">
        <ele>44.8</ele>
        <time>2020-06-10T08:42:13Z</time>
      </trkpt>
      <trkpt lat="48.61999" lon="-4.25033">
        <ele>45.1</ele>
        <time>2020-06-10T08:42:14Z</time>
      </trkpt>
      <trkpt lat="48.61998" lon="-4.25029">
        <ele>45.2</ele>
        <time>2020-06-10T08:42:15Z</time>
      </trkpt>
      <trkpt lat="48.61996" lon="-4.25023">
        <ele>45.5</ele>
        <time>2020-06-10T08:42:16Z</time>
      </trkpt>
      <trkpt lat="48.61995" lon="-4.25019">
        <ele>45.7</ele>
        <time>2020-06-10T08:42:17Z</time>
      </trkpt>
      <trkpt lat="48.61994" lon="-4.25015">
        <ele>45.9</ele>
        <time>2020-06-10T08:42:18Z</time>
      </trkpt>
      <trkpt lat="48.61992" lon="-4.25011">
        <ele>46.1</ele>
        <time>2020-06-10T08:42:19Z</time>
      </trkpt>
      <trkpt lat="48.61991" lon="-4.25007">
        <ele>46.3</ele>
        <time>2020-06-10T08:42:20Z</time>
      </trkpt>
      <trkpt lat="48.61989" lon="-4.25002">
        <ele>46.5</ele>
        <time>2020-06-10T08:42:21Z</time>
      </trkpt>
      <trkpt lat="48.61987" lon="-4.24997">
        <ele>46.8</ele>
        <time>2020-06-10T08:42:22Z</time>
      </trkpt>
      <trkpt lat="48.61986" lon="-4.24993">
        <ele>47</ele>
        <time>2020-06-10T08:42:23Z</time>
      </trkpt>
      <trkpt lat="48.61984" lon="-4.2499">
        <ele>47.1</ele>
        <time>2020-06-10T08:42:24Z</time>
      </trkpt>
      <trkpt lat="48.61982" lon="-4.24986">
        <ele>47.3</ele>
        <time>2020-06-10T08:42:25Z</time>
      </trkpt>
      <trkpt lat="48.61981" lon="-4.24983">
        <ele>47.5</ele>
        <time>2020-06-10T08:42:26Z</time>
      </trkpt>
      <trkpt lat="48.61979" lon="-4.24978">
        <ele>47.7</ele>
        <time>2020-06-10T08:42:27Z</time>
      </trkpt>
      <trkpt lat="48.61977" lon="-4.24973">
        <ele>48</ele>
        <time>2020-06-10T08:42:28Z</time>
      </trkpt>
      <trkpt lat="48.61976" lon="-4.24968">
        <ele>48.2</ele>
        <time>2020-06-10T08:42:29Z</time>
      </trkpt>
      <trkpt lat="48.61974" lon="-4.24964">
        <ele>48.4</ele>
        <time>2020-06-10T08:42:30Z</time>
      </trkpt>
      <trkpt lat="48.61973" lon="-4.2496">
        <ele>48.5</ele>
        <time>2020-06-10T08:42:31Z</time>
      </trkpt>
      <trkpt lat="48.61972" lon="-4.24956">
        <ele>48.7</ele>
        <time>2020-06-10T08:42:32Z</time>
      </trkpt>
      <trkpt lat="48.61971" lon="-4.24951">
        <ele>48.9</ele>
        <time>2020-06-10T08:42:33Z</time>
      </trkpt>
      <trkpt lat="48.61969" lon="-4.24947">
        <ele>49.1</ele>
        <time>2020-06-10T08:42:34Z</time>
      </trkpt>
      <trkpt lat="48.61967" lon="-4.24942">
        <ele>49.3</ele>
        <time>2020-06-10T08:42:35Z</time>
      </trkpt>
      <trkpt lat="48.61966" lon="-4.24939">
        <ele>49.4</ele>
        <time>2020-06-10T08:42:36Z</time>
      </trkpt>
      <trkpt lat="48.61964" lon="-4.24934">
        <ele>49.6</ele>
        <time>2020-06-10T08:42:37Z</time>
      </trkpt>
      <trkpt lat="48.61963" lon="-4.2493">
        <ele>49.9</ele>
        <time>2020-06-10T08:42:38Z</time>
      </trkpt>
      <trkpt lat="48.61962" lon="-4.24924">
        <ele>50.1</ele>
        <time>2020-06-10T08:42:39Z</time>
      </trkpt>
      <trkpt lat="48.61962" lon="-4.24922">
        <ele>50.1</ele>
        <time>2020-06-10T08:42:40Z</time>
      </trkpt>
      <trkpt lat="48.61962" lon="-4.24917">
        <ele>50.3</ele>
        <time>2020-06-10T08:42:41Z</time>
      </trkpt>
      <trkpt lat="48.61962" lon="-4.24914">
        <ele>50.4</ele>
        <time>2020-06-10T08:42:42Z</time>
      </trkpt>
      <trkpt lat="48.61963" lon="-4.2491">
        <ele>50.5</ele>
        <time>2020-06-10T08:42:43Z</time>
      </trkpt>
      <trkpt lat="48.61962" lon="-4.24905">
        <ele>50.6</ele>
        <time>2020-06-10T08:42:44Z</time>
      </trkpt>
      <trkpt lat="48.61962" lon="-4.24901">
        <ele>50.7</ele>
        <time>2020-06-10T08:42:45Z</time>
      </trkpt>
      <trkpt lat="48.61961" lon="-4.24896">
        <ele>50.9</ele>
        <time>2020-06-10T08:42:46Z</time>
      </trkpt>
      <trkpt lat="48.61961" lon="-4.24891">
        <ele>51</ele>
        <time>2020-06-10T08:42:47Z</time>
      </trkpt>
      <trkpt lat="48.61961" lon="-4.24885">
        <ele>51.2</ele>
        <time>2020-06-10T08:42:48Z</time>
      </trkpt>
      <trkpt lat="48.61961" lon="-4.24881">
        <ele>51.3</ele>
        <time>2020-06-10T08:42:49Z</time>
      </trkpt>
      <trkpt lat="48.61961" lon="-4.24877">
        <ele>51.4</ele>
        <time>2020-06-10T08:42:50Z</time>
      </trkpt>
      <trkpt lat="48.6196" lon="-4.24873">
        <ele>51.6</ele>
        <time>2020-06-10T08:42:51Z</time>
      </trkpt>
      <trkpt lat="48.6196" lon="-4.24868">
        <ele>51.6</ele>
        <time>2020-06-10T08:42:52Z</time>
      </trkpt>
      <trkpt lat="48.61961" lon="-4.24864">
        <ele>51.6</ele>
        <time>2020-06-10T08:42:53Z</time>
      </trkpt>
      <trkpt lat="48.61961" lon="-4.24858">
        <ele>51.5</ele>
        <time>2020-06-10T08:42:54Z</time>
      </trkpt>
      <trkpt lat="48.6196" lon="-4.24856">
        <ele>51.5</ele>
        <time>2020-06-10T08:42:55Z</time>
      </trkpt>
      <trkpt lat="48.6196" lon="-4.24849">
        <ele>51.5</ele>
        <time>2020-06-10T08:42:56Z</time>
      </trkpt>
      <trkpt lat="48.6196" lon="-4.24845">
        <ele>51.5</ele>
        <time>2020-06-10T08:42:57Z</time>
      </trkpt>
      <trkpt lat="48.6196" lon="-4.2484">
        <ele>51.5</ele>
        <time>2020-06-10T08:42:58Z</time>
      </trkpt>
      <trkpt lat="48.6196" lon="-4.24835">
        <ele>51.5</ele>
        <time>2020-06-10T08:42:59Z</time>
      </trkpt>
      <trkpt lat="48.61959" lon="-4.24828">
        <ele>51.5</ele>
        <time>2020-06-10T08:43:00Z</time>
      </trkpt>
      <trkpt lat="48.61959" lon="-4.24826">
        <ele>51.6</ele>
        <time>2020-06-10T08:43:01Z</time>
      </trkpt>
      <trkpt lat="48.61958" lon="-4.24821">
        <ele>51.6</ele>
        <time>2020-06-10T08:43:02Z</time>
      </trkpt>
      <trkpt lat="48.61957" lon="-4.24816">
        <ele>51.6</ele>
        <time>2020-06-10T08:43:03Z</time>
      </trkpt>
      <trkpt lat="48.61955" lon="-4.24809">
        <ele>51.7</ele>
        <time>2020-06-10T08:43:04Z</time>
      </trkpt>
      <trkpt lat="48.61954" lon="-4.24805">
        <ele>51.7</ele>
        <time>2020-06-10T08:43:05Z</time>
      </trkpt>
      <trkpt lat="48.61953" lon="-4.24797">
        <ele>51.8</ele>
        <time>2020-06-10T08:43:06Z</time>
      </trkpt>
      <trkpt lat="48.61952" lon="-4.24792">
        <ele>51.8</ele>
        <time>2020-06-10T08:43:07Z</time>
      </trkpt>
      <trkpt lat="48.61951" lon="-4.24786">
        <ele>51.9</ele>
        <time>2020-06-10T08:43:08Z</time>
      </trkpt>
      <trkpt lat="48.6195" lon="-4.2478">
        <ele>52</ele>
        <time>2020-06-10T08:43:09Z</time>
      </trkpt>
      <trkpt lat="48.61949" lon="-4.24776">
        <ele>52.1</ele>
        <time>2020-06-10T08:43:10Z</time>
      </trkpt>
      <trkpt lat="48.61948" lon="-4.2477">
        <ele>52.2</ele>
        <time>2020-06-10T08:43:11Z</time>
      </trkpt>
      <trkpt lat="48.61947" lon="-4.24766">
        <ele>52.2</ele>
        <time>2020-06-10T08:43:12Z</time>
      </trkpt>
      <trkpt lat="48.61946" lon="-4.2476">
        <ele>52.3</ele>
        <time>2020-06-10T08:43:13Z</time>
      </trkpt>
      <trkpt lat="48.61945" lon="-4.24753">
        <ele>52.4</ele>
        <time>2020-06-10T08:43:14Z</time>
      </trkpt>
      <trkpt lat="48.61943" lon="-4.24746">
        <ele>52.6</ele>
        <time>2020-06-10T08:43:15Z</time>
      </trkpt>
      <trkpt lat="48.61942" lon="-4.24741">
        <ele>52.6</ele>
        <time>2020-06-10T08:43:16Z</time>
      </trkpt>
      <trkpt lat="48.61941" lon="-4.24735">
        <ele>52.7</ele>
        <time>2020-06-10T08:43:17Z</time>
      </trkpt>
      <trkpt lat="48.6194" lon="-4.24731">
        <ele>52.8</ele>
        <time>2020-06-10T08:43:18Z</time>
      </trkpt>
      <trkpt lat="48.6194" lon="-4.24726">
        <ele>52.8</ele>
        <time>2020-06-10T08:43:19Z</time>
      </trkpt>
      <trkpt lat="48.61939" lon="-4.24721">
        <ele>52.9</ele>
        <time>2020-06-10T08:43:20Z</time>
      </trkpt>
      <trkpt lat="48.61938" lon="-4.24717">
        <ele>53</ele>
        <time>2020-06-10T08:43:21Z</time>
      </trkpt>
      <trkpt lat="48.61937" lon="-4.24712">
        <ele>53.1</ele>
        <time>2020-06-10T08:43:22Z</time>
      </trkpt>
      <trkpt lat="48.61936" lon="-4.24707">
        <ele>53.1</ele>
        <time>2020-06-10T08:43:23Z</time>
      </trkpt>
      <trkpt lat="48.61934" lon="-4.247">
        <ele>53.2</ele>
        <time>2020-06-10T08:43:24Z</time>
      </trkpt>
      <trkpt lat="48.61933" lon="-4.24693">
        <ele>53.3</ele>
        <time>2020-06-10T08:43:25Z</time>
      </trkpt>
      <trkpt lat="48.61933" lon="-4.24688">
        <ele>53.4</ele>
        <time>2020-06-10T08:43:26Z</time>
      </trkpt>
      <trkpt lat="48.61932" lon="-4.24683">
        <ele>53.5</ele>
        <time>2020-06-10T08:43:27Z</time>
      </trkpt>
      <trkpt lat="48.6193" lon="-4.24678">
        <ele>53.6</ele>
        <time>2020-06-10T08:43:28Z</time>
      </trkpt>
      <trkpt lat="48.61929" lon="-4.24674">
        <ele>53.7</ele>
        <time>2020-06-10T08:43:29Z</time>
      </trkpt>
      <trkpt lat="48.61927" lon="-4.24669">
        <ele>53.8</ele>
        <time>2020-06-10T08:43:30Z</time>
      </trkpt>
      <trkpt lat="48.61926" lon="-4.24664">
        <ele>53.9</ele>
        <time>2020-06-10T08:43:31Z</time>
      </trkpt>
      <trkpt lat="48.61924" lon="-4.24658">
        <ele>54</ele>
        <time>2020-06-10T08:43:32Z</time>
      </trkpt>
      <trkpt lat="48.61922" lon="-4.24652">
        <ele>54.1</ele>
        <time>2020-06-10T08:43:33Z</time>
      </trkpt>
      <trkpt lat="48.61921" lon="-4.24647">
        <ele>54.2</ele>
        <time>2020-06-10T08:43:34Z</time>
      </trkpt>
      <trkpt lat="48.61919" lon="-4.24641">
        <ele>54.3</ele>
        <time>2020-06-10T08:43:35Z</time>
      </trkpt>
      <trkpt lat="48.61918" lon="-4.24637">
        <ele>54.3</ele>
        <time>2020-06-10T08:43:36Z</time>
      </trkpt>
      <trkpt lat="48.61918" lon="-4.24633">
        <ele>54.4</ele>
        <time>2020-06-10T08:43:37Z</time>
      </trkpt>
      <trkpt lat="48.61918" lon="-4.24626">
        <ele>54.5</ele>
        <time>2020-06-10T08:43:38Z</time>
      </trkpt>
      <trkpt lat="48.61917" lon="-4.24622">
        <ele>54.6</ele>
        <time>2020-06-10T08:43:39Z</time>
      </trkpt>
      <trkpt lat="48.61917" lon="-4.24617">
        <ele>54.7</ele>
        <time>2020-06-10T08:43:40Z</time>
      </trkpt>
      <trkpt lat="48.61917" lon="-4.24612">
        <ele>54.9</ele>
        <time>2020-06-10T08:43:41Z</time>
      </trkpt>
      <trkpt lat="48.61917" lon="-4.24609">
        <ele>54.9</ele>
        <time>2020-06-10T08:43:42Z</time>
      </trkpt>
      <trkpt lat="48.61917" lon="-4.24602">
        <ele>55.1</ele>
        <time>2020-06-10T08:43:43Z</time>
      </trkpt>
      <trkpt lat="48.61919" lon="-4.24597">
        <ele>55.3</ele>
        <time>2020-06-10T08:43:44Z</time>
      </trkpt>
      <trkpt lat="48.61921" lon="-4.2459">
        <ele>55.4</ele>
        <time>2020-06-10T08:43:45Z</time>
      </trkpt>
      <trkpt lat="48.61923" lon="-4.24586">
        <ele>55.5</ele>
        <time>2020-06-10T08:43:46Z</time>
      </trkpt>
      <trkpt lat="48.61925" lon="-4.24584">
        <ele>55.5</ele>
        <time>2020-06-10T08:43:47Z</time>
      </trkpt>
      <trkpt lat="48.6193" lon="-4.2458">
        <ele>55.6</ele>
        <time>2020-06-10T08:43:48Z</time>
      </trkpt>
      <trkpt lat="48.61933" lon="-4.24576">
        <ele>55.6</ele>
        <time>2020-06-10T08:43:49Z</time>
      </trkpt>
      <trkpt lat="48.61937" lon="-4.24573">
        <ele>55.7</ele>
        <time>2020-06-10T08:43:50Z</time>
      </trkpt>
      <trkpt lat="48.6194" lon="-4.24569">
        <ele>55.8</ele>
        <time>2020-06-10T08:43:51Z</time>
      </trkpt>
      <trkpt lat="48.61943" lon="-4.24567">
        <ele>55.9</ele>
        <time>2020-06-10T08:43:52Z</time>
      </trkpt>
      <trkpt lat="48.61945" lon="-4.24565">
        <ele>55.9</ele>
        <time>2020-06-10T08:43:53Z</time>
      </trkpt>
      <trkpt lat="48.61948" lon="-4.24563">
        <ele>56</ele>
        <time>2020-06-10T08:43:54Z</time>
      </trkpt>
      <trkpt lat="48.61951" lon="-4.2456">
        <ele>56.1</ele>
        <time>2020-06-10T08:43:55Z</time>
      </trkpt>
      <trkpt lat="48.61953" lon="-4.24557">
        <ele>56.1</ele>
        <time>2020-06-10T08:43:56Z</time>
      </trkpt>
      <trkpt lat="48.61955" lon="-4.24554">
        <ele>56.2</ele>
        <time>2020-06-10T08:43:57Z</time>
      </trkpt>
      <trkpt lat="48.61957" lon="-4.2455">
        <ele>56.2</ele>
        <time>2020-06-10T08:43:58Z</time>
      </trkpt>
      <trkpt lat="48.61958" lon="-4.24545">
        <ele>56.3</ele>
        <time>2020-06-10T08:43:59Z</time>
      </trkpt>
      <trkpt lat="48.61959" lon="-4.24542">
        <ele>56.3</ele>
        <time>2020-06-10T08:44:00Z</time>
      </trkpt>
      <trkpt lat="48.6196" lon="-4.24538">
        <ele>56.4</ele>
        <time>2020-06-10T08:44:01Z</time>
      </trkpt>
      <trkpt lat="48.61961" lon="-4.24534">
        <ele>56.4</ele>
        <time>2020-06-10T08:44:02Z</time>
      </trkpt>
      <trkpt lat="48.61961" lon="-4.24529">
        <ele>56.5</ele>
        <time>2020-06-10T08:44:03Z</time>
      </trkpt>
      <trkpt lat="48.61962" lon="-4.24525">
        <ele>56.5</ele>
        <time>2020-06-10T08:44:04Z</time>
      </trkpt>
      <trkpt lat="48.61962" lon="-4.24521">
        <ele>56.6</ele>
        <time>2020-06-10T08:44:05Z</time>
      </trkpt>
      <trkpt lat="48.61962" lon="-4.24519">
        <ele>56.6</ele>
        <time>2020-06-10T08:44:06Z</time>
      </trkpt>
      <trkpt lat="48.61962" lon="-4.24513">
        <ele>56.6</ele>
        <time>2020-06-10T08:44:07Z</time>
      </trkpt>
      <trkpt lat="48.61962" lon="-4.24507">
        <ele>56.7</ele>
        <time>2020-06-10T08:44:08Z</time>
      </trkpt>
      <trkpt lat="48.61962" lon="-4.24505">
        <ele>56.7</ele>
        <time>2020-06-10T08:44:09Z</time>
      </trkpt>
      <trkpt lat="48.61961" lon="-4.24501">
        <ele>56.7</ele>
        <time>2020-06-10T08:44:10Z</time>
      </trkpt>
      <trkpt lat="48.61961" lon="-4.24496">
        <ele>56.8</ele>
        <time>2020-06-10T08:44:11Z</time>
      </trkpt>
      <trkpt lat="48.61961" lon="-4.24491">
        <ele>56.8</ele>
        <time>2020-06-10T08:44:12Z</time>
      </trkpt>
      <trkpt lat="48.61961" lon="-4.24489">
        <ele>56.8</ele>
        <time>2020-06-10T08:44:13Z</time>
      </trkpt>
      <trkpt lat="48.61961" lon="-4.24483">
        <ele>56.8</ele>
        <time>2020-06-10T08:44:14Z</time>
      </trkpt>
      <trkpt lat="48.61961" lon="-4.2448">
        <ele>56.8</ele>
        <time>2020-06-10T08:44:15Z</time>
      </trkpt>
      <trkpt lat="48.6196" lon="-4.24476">
        <ele>56.8</ele>
        <time>2020-06-10T08:44:16Z</time>
      </trkpt>
      <trkpt lat="48.6196" lon="-4.2447">
        <ele>56.8</ele>
        <time>2020-06-10T08:44:17Z</time>
      </trkpt>
      <trkpt lat="48.61959" lon="-4.24467">
        <ele>56.8</ele>
        <time>2020-06-10T08:44:18Z</time>
      </trkpt>
      <trkpt lat="48.61959" lon="-4.24462">
        <ele>56.8</ele>
        <time>2020-06-10T08:44:19Z</time>
      </trkpt>
      <trkpt lat="48.61959" lon="-4.24458">
        <ele>56.9</ele>
        <time>2020-06-10T08:44:20Z</time>
      </trkpt>
      <trkpt lat="48.61959" lon="-4.24453">
        <ele>56.9</ele>
        <time>2020-06-10T08:44:21Z</time>
      </trkpt>
      <trkpt lat="48.61958" lon="-4.24448">
        <ele>56.9</ele>
        <time>2020-06-10T08:44:22Z</time>
      </trkpt>
      <trkpt lat="48.61957" lon="-4.24443">
        <ele>56.9</ele>
        <time>2020-06-10T08:44:23Z</time>
      </trkpt>
      <trkpt lat="48.61956" lon="-4.24437">
        <ele>56.9</ele>
        <time>2020-06-10T08:44:24Z</time>
      </trkpt>
      <trkpt lat="48.61955" lon="-4.24432">
        <ele>56.9</ele>
        <time>2020-06-10T08:44:25Z</time>
      </trkpt>
      <trkpt lat="48.61954" lon="-4.24426">
        <ele>57</ele>
        <time>2020-06-10T08:44:26Z</time>
      </trkpt>
      <trkpt lat="48.61953" lon="-4.2442">
        <ele>57</ele>
        <time>2020-06-10T08:44:27Z</time>
      </trkpt>
      <trkpt lat="48.61951" lon="-4.24416">
        <ele>57.1</ele>
        <time>2020-06-10T08:44:28Z</time>
      </trkpt>
      <trkpt lat="48.6195" lon="-4.24411">
        <ele>57.1</ele>
        <time>2020-06-10T08:44:29Z</time>
      </trkpt>
      <trkpt lat="48.61948" lon="-4.24406">
        <ele>57.2</ele>
        <time>2020-06-10T08:44:30Z</time>
      </trkpt>
      <trkpt lat="48.61947" lon="-4.24402">
        <ele>57.2</ele>
        <time>2020-06-10T08:44:31Z</time>
      </trkpt>
      <trkpt lat="48.61947" lon="-4.24397">
        <ele>57.3</ele>
        <time>2020-06-10T08:44:32Z</time>
      </trkpt>
      <trkpt lat="48.61946" lon="-4.24392">
        <ele>57.3</ele>
        <time>2020-06-10T08:44:33Z</time>
      </trkpt>
      <trkpt lat="48.61946" lon="-4.24387">
        <ele>57.4</ele>
        <time>2020-06-10T08:44:34Z</time>
      </trkpt>
      <trkpt lat="48.61945" lon="-4.24379">
        <ele>57.4</ele>
        <time>2020-06-10T08:44:35Z</time>
      </trkpt>
      <trkpt lat="48.61943" lon="-4.24373">
        <ele>57.5</ele>
        <time>2020-06-10T08:44:36Z</time>
      </trkpt>
      <trkpt lat="48.61943" lon="-4.2437">
        <ele>57.5</ele>
        <time>2020-06-10T08:44:37Z</time>
      </trkpt>
      <trkpt lat="48.61941" lon="-4.24365">
        <ele>57.5</ele>
        <time>2020-06-10T08:44:38Z</time>
      </trkpt>
      <trkpt lat="48.6194" lon="-4.24363">
        <ele>57.5</ele>
        <time>2020-06-10T08:44:39Z</time>
      </trkpt>
      <trkpt lat="48.61938" lon="-4.2436">
        <ele>57.5</ele>
        <time>2020-06-10T08:44:40Z</time>
      </trkpt>
      <trkpt lat="48.61937" lon="-4.24353">
        <ele>57.5</ele>
        <time>2020-06-10T08:44:41Z</time>
      </trkpt>
      <trkpt lat="48.61936" lon="-4.2435">
        <ele>57.5</ele>
        <time>2020-06-10T08:44:42Z</time>
      </trkpt>
      <trkpt lat="48.61935" lon="-4.24345">
        <ele>57.5</ele>
        <time>2020-06-10T08:44:43Z</time>
      </trkpt>
      <trkpt lat="48.61934" lon="-4.24341">
        <ele>57.5</ele>
        <time>2020-06-10T08:44:44Z</time>
      </trkpt>
      <trkpt lat="48.61933" lon="-4.24337">
        <ele>57.5</ele>
        <time>2020-06-10T08:44:45Z</time>
      </trkpt>
      <trkpt lat="48.61932" lon="-4.24332">
        <ele>57.6</ele>
        <time>2020-06-10T08:44:46Z</time>
      </trkpt>
      <trkpt lat="48.61932" lon="-4.24328">
        <ele>57.6</ele>
        <time>2020-06-10T08:44:47Z</time>
      </trkpt>
      <trkpt lat="48.61931" lon="-4.24323">
        <ele>57.6</ele>
        <time>2020-06-10T08:44:48Z</time>
      </trkpt>
      <trkpt lat="48.61931" lon="-4.24317">
        <ele>57.7</ele>
        <time>2020-06-10T08:44:49Z</time>
      </trkpt>
      <trkpt lat="48.6193" lon="-4.24312">
        <ele>57.7</ele>
        <time>2020-06-10T08:44:50Z</time>
      </trkpt>
      <trkpt lat="48.61929" lon="-4.24306">
        <ele>57.7</ele>
        <time>2020-06-10T08:44:51Z</time>
      </trkpt>
      <trkpt lat="48.61929" lon="-4.243">
        <ele>57.8</ele>
        <time>2020-06-10T08:44:52Z</time>
      </trkpt>
      <trkpt lat="48.61928" lon="-4.24294">
        <ele>57.8</ele>
        <time>2020-06-10T08:44:53Z</time>
      </trkpt>
      <trkpt lat="48.61927" lon="-4.24288">
        <ele>57.9</ele>
        <time>2020-06-10T08:44:54Z</time>
      </trkpt>
      <trkpt lat="48.61927" lon="-4.24284">
        <ele>57.9</ele>
        <time>2020-06-10T08:44:55Z</time>
      </trkpt>
      <trkpt lat="48.61926" lon="-4.24279">
        <ele>58</ele>
        <time>2020-06-10T08:44:56Z</time>
      </trkpt>
      <trkpt lat="48.61926" lon="-4.24274">
        <ele>58</ele>
        <time>2020-06-10T08:44:57Z</time>
      </trkpt>
      <trkpt lat="48.61925" lon="-4.24268">
        <ele>58.1</ele>
        <time>2020-06-10T08:44:58Z</time>
      </trkpt>
      <trkpt lat="48.61925" lon="-4.24263">
        <ele>58.1</ele>
        <time>2020-06-10T08:44:59Z</time>
      </trkpt>
      <trkpt lat="48.61925" lon="-4.24258">
        <ele>58.2</ele>
        <time>2020-06-10T08:45:00Z</time>
      </trkpt>
      <trkpt lat="48.61925" lon="-4.24252">
        <ele>58.2</ele>
        <time>2020-06-10T08:45:01Z</time>
      </trkpt>
      <trkpt lat="48.61925" lon="-4.24247">
        <ele>58.2</ele>
        <time>2020-06-10T08:45:02Z</time>
      </trkpt>
      <trkpt lat="48.61925" lon="-4.24241">
        <ele>58.1</ele>
        <time>2020-06-10T08:45:03Z</time>
      </trkpt>
      <trkpt lat="48.61924" lon="-4.24237">
        <ele>58.1</ele>
        <time>2020-06-10T08:45:04Z</time>
      </trkpt>
      <trkpt lat="48.61925" lon="-4.24232">
        <ele>58.1</ele>
        <time>2020-06-10T08:45:05Z</time>
      </trkpt>
      <trkpt lat="48.61925" lon="-4.24226">
        <ele>58.1</ele>
        <time>2020-06-10T08:45:06Z</time>
      </trkpt>
      <trkpt lat="48.61925" lon="-4.2422">
        <ele>58.1</ele>
        <time>2020-06-10T08:45:07Z</time>
      </trkpt>
      <trkpt lat="48.61925" lon="-4.24215">
        <ele>58.1</ele>
        <time>2020-06-10T08:45:08Z</time>
      </trkpt>
      <trkpt lat="48.61924" lon="-4.24209">
        <ele>58.1</ele>
        <time>2020-06-10T08:45:09Z</time>
      </trkpt>
      <trkpt lat="48.61924" lon="-4.24204">
        <ele>58.1</ele>
        <time>2020-06-10T08:45:10Z</time>
      </trkpt>
      <trkpt lat="48.61923" lon="-4.24197">
        <ele>58</ele>
        <time>2020-06-10T08:45:11Z</time>
      </trkpt>
      <trkpt lat="48.61923" lon="-4.24191">
        <ele>57.9</ele>
        <time>2020-06-10T08:45:12Z</time>
      </trkpt>
      <trkpt lat="48.61922" lon="-4.24184">
        <ele>57.8</ele>
        <time>2020-06-10T08:45:13Z</time>
      </trkpt>
      <trkpt lat="48.61922" lon="-4.24176">
        <ele>57.6</ele>
        <time>2020-06-10T08:45:14Z</time>
      </trkpt>
      <trkpt lat="48.61923" lon="-4.24169">
        <ele>57.5</ele>
        <time>2020-06-10T08:45:15Z</time>
      </trkpt>
      <trkpt lat="48.61923" lon="-4.24161">
        <ele>57.3</ele>
        <time>2020-06-10T08:45:16Z</time>
      </trkpt>
      <trkpt lat="48.61924" lon="-4.24154">
        <ele>57.2</ele>
        <time>2020-06-10T08:45:17Z</time>
      </trkpt>
      <trkpt lat="48.61925" lon="-4.24146">
        <ele>57</ele>
        <time>2020-06-10T08:45:18Z</time>
      </trkpt>
      <trkpt lat="48.61925" lon="-4.24138">
        <ele>56.8</ele>
        <time>2020-06-10T08:45:19Z</time>
      </trkpt>
      <trkpt lat="48.61926" lon="-4.24129">
        <ele>56.6</ele>
        <time>2020-06-10T08:45:20Z</time>
      </trkpt>
      <trkpt lat="48.61926" lon="-4.24118">
        <ele>56.4</ele>
        <time>2020-06-10T08:45:21Z</time>
      </trkpt>
      <trkpt lat="48.61927" lon="-4.24109">
        <ele>56.2</ele>
        <time>2020-06-10T08:45:22Z</time>
      </trkpt>
      <trkpt lat="48.61928" lon="-4.24099">
        <ele>56</ele>
        <time>2020-06-10T08:45:23Z</time>
      </trkpt>
      <trkpt lat="48.61928" lon="-4.24091">
        <ele>55.8</ele>
        <time>2020-06-10T08:45:24Z</time>
      </trkpt>
      <trkpt lat="48.61928" lon="-4.24082">
        <ele>55.7</ele>
        <time>2020-06-10T08:45:25Z</time>
      </trkpt>
      <trkpt lat="48.61928" lon="-4.24072">
        <ele>55.5</ele>
        <time>2020-06-10T08:45:26Z</time>
      </trkpt>
      <trkpt lat="48.61928" lon="-4.24063">
        <ele>55.4</ele>
        <time>2020-06-10T08:45:27Z</time>
      </trkpt>
      <trkpt lat="48.61928" lon="-4.24054">
        <ele>55.2</ele>
        <time>2020-06-10T08:45:28Z</time>
      </trkpt>
      <trkpt lat="48.61928" lon="-4.24045">
        <ele>55.1</ele>
        <time>2020-06-10T08:45:29Z</time>
      </trkpt>
      <trkpt lat="48.61929" lon="-4.24036">
        <ele>55</ele>
        <time>2020-06-10T08:45:30Z</time>
      </trkpt>
      <trkpt lat="48.61929" lon="-4.24026">
        <ele>54.9</ele>
        <time>2020-06-10T08:45:31Z</time>
      </trkpt>
      <trkpt lat="48.6193" lon="-4.24015">
        <ele>54.7</ele>
        <time>2020-06-10T08:45:32Z</time>
      </trkpt>
      <trkpt lat="48.6193" lon="-4.24006">
        <ele>54.5</ele>
        <time>2020-06-10T08:45:33Z</time>
      </trkpt>
      <trkpt lat="48.6193" lon="-4.23997">
        <ele>54.4</ele>
        <time>2020-06-10T08:45:34Z</time>
      </trkpt>
      <trkpt lat="48.61931" lon="-4.23988">
        <ele>54.2</ele>
        <time>2020-06-10T08:45:35Z</time>
      </trkpt>
      <trkpt lat="48.61931" lon="-4.23979">
        <ele>54.2</ele>
        <time>2020-06-10T08:45:36Z</time>
      </trkpt>
      <trkpt lat="48.61932" lon="-4.2397">
        <ele>54.2</ele>
        <time>2020-06-10T08:45:37Z</time>
      </trkpt>
      <trkpt lat="48.61932" lon="-4.23963">
        <ele>54.2</ele>
        <time>2020-06-10T08:45:38Z</time>
      </trkpt>
      <trkpt lat="48.61931" lon="-4.23954">
        <ele>54.2</ele>
        <time>2020-06-10T08:45:39Z</time>
      </trkpt>
      <trkpt lat="48.61932" lon="-4.23946">
        <ele>54.2</ele>
        <time>2020-06-10T08:45:40Z</time>
      </trkpt>
      <trkpt lat="48.61931" lon="-4.23937">
        <ele>54.3</ele>
        <time>2020-06-10T08:45:41Z</time>
      </trkpt>
      <trkpt lat="48.61931" lon="-4.23929">
        <ele>54.3</ele>
        <time>2020-06-10T08:45:42Z</time>
      </trkpt>
      <trkpt lat="48.61931" lon="-4.23919">
        <ele>54.4</ele>
        <time>2020-06-10T08:45:43Z</time>
      </trkpt>
      <trkpt lat="48.61931" lon="-4.23909">
        <ele>54.4</ele>
        <time>2020-06-10T08:45:44Z</time>
      </trkpt>
      <trkpt lat="48.61932" lon="-4.239">
        <ele>54.5</ele>
        <time>2020-06-10T08:45:45Z</time>
      </trkpt>
      <trkpt lat="48.61931" lon="-4.23892">
        <ele>54.6</ele>
        <time>2020-06-10T08:45:46Z</time>
      </trkpt>
      <trkpt lat="48.61931" lon="-4.23885">
        <ele>54.7</ele>
        <time>2020-06-10T08:45:47Z</time>
      </trkpt>
      <trkpt lat="48.61931" lon="-4.23877">
        <ele>54.7</ele>
        <time>2020-06-10T08:45:48Z</time>
      </trkpt>
      <trkpt lat="48.61931" lon="-4.23869">
        <ele>54.8</ele>
        <time>2020-06-10T08:45:49Z</time>
      </trkpt>
      <trkpt lat="48.61931" lon="-4.23863">
        <ele>54.8</ele>
        <time>2020-06-10T08:45:50Z</time>
      </trkpt>
      <trkpt lat="48.6193" lon="-4.23856">
        <ele>54.9</ele>
        <time>2020-06-10T08:45:51Z</time>
      </trkpt>
      <trkpt lat="48.6193" lon="-4.23848">
        <ele>54.9</ele>
        <time>2020-06-10T08:45:52Z</time>
      </trkpt>
      <trkpt lat="48.6193" lon="-4.23838">
        <ele>54.8</ele>
        <time>2020-06-10T08:45:53Z</time>
      </trkpt>
      <trkpt lat="48.6193" lon="-4.23829">
        <ele>54.8</ele>
        <time>2020-06-10T08:45:54Z</time>
      </trkpt>
      <trkpt lat="48.61929" lon="-4.2382">
        <ele>54.8</ele>
        <time>2020-06-10T08:45:55Z</time>
      </trkpt>
      <trkpt lat="48.61929" lon="-4.23811">
        <ele>54.9</ele>
        <time>2020-06-10T08:45:56Z</time>
      </trkpt>
      <trkpt lat="48.61929" lon="-4.23803">
        <ele>54.9</ele>
        <time>2020-06-10T08:45:57Z</time>
      </trkpt>
      <trkpt lat="48.61928" lon="-4.23795">
        <ele>54.9</ele>
        <time>2020-06-10T08:45:58Z</time>
      </trkpt>
      <trkpt lat="48.61928" lon="-4.23786">
        <ele>55</ele>
        <time>2020-06-10T08:45:59Z</time>
      </trkpt>
      <trkpt lat="48.61928" lon="-4.23778">
        <ele>55</ele>
        <time>2020-06-10T08:46:00Z</time>
      </trkpt>
      <trkpt lat="48.61927" lon="-4.2377">
        <ele>55</ele>
        <time>2020-06-10T08:46:01Z</time>
      </trkpt>
      <trkpt lat="48.61927" lon="-4.23761">
        <ele>55</ele>
        <time>2020-06-10T08:46:02Z</time>
      </trkpt>
      <trkpt lat="48.61927" lon="-4.23752">
        <ele>55</ele>
        <time>2020-06-10T08:46:03Z</time>
      </trkpt>
      <trkpt lat="48.61926" lon="-4.23743">
        <ele>54.9</ele>
        <time>2020-06-10T08:46:04Z</time>
      </trkpt>
      <trkpt lat="48.61926" lon="-4.23736">
        <ele>54.9</ele>
        <time>2020-06-10T08:46:05Z</time>
      </trkpt>
      <trkpt lat="48.61926" lon="-4.23729">
        <ele>54.9</ele>
        <time>2020-06-10T08:46:06Z</time>
      </trkpt>
      <trkpt lat="48.61926" lon="-4.23721">
        <ele>54.9</ele>
        <time>2020-06-10T08:46:07Z</time>
      </trkpt>
      <trkpt lat="48.61926" lon="-4.23713">
        <ele>54.9</ele>
        <time>2020-06-10T08:46:08Z</time>
      </trkpt>
      <trkpt lat="48.61926" lon="-4.23704">
        <ele>54.9</ele>
        <time>2020-06-10T08:46:09Z</time>
      </trkpt>
      <trkpt lat="48.61926" lon="-4.23697">
        <ele>54.9</ele>
        <time>2020-06-10T08:46:10Z</time>
      </trkpt>
      <trkpt lat="48.61925" lon="-4.23688">
        <ele>55</ele>
        <time>2020-06-10T08:46:11Z</time>
      </trkpt>
      <trkpt lat="48.61925" lon="-4.23679">
        <ele>55.1</ele>
        <time>2020-06-10T08:46:12Z</time>
      </trkpt>
      <trkpt lat="48.61925" lon="-4.2367">
        <ele>55.2</ele>
        <time>2020-06-10T08:46:13Z</time>
      </trkpt>
      <trkpt lat="48.61925" lon="-4.23663">
        <ele>55.3</ele>
        <time>2020-06-10T08:46:14Z</time>
      </trkpt>
      <trkpt lat="48.61925" lon="-4.23655">
        <ele>55.4</ele>
        <time>2020-06-10T08:46:15Z</time>
      </trkpt>
      <trkpt lat="48.61924" lon="-4.23647">
        <ele>55.5</ele>
        <time>2020-06-10T08:46:16Z</time>
      </trkpt>
      <trkpt lat="48.6192" lon="-4.23641">
        <ele>55.6</ele>
        <time>2020-06-10T08:46:17Z</time>
      </trkpt>
      <trkpt lat="48.61915" lon="-4.23637">
        <ele>55.7</ele>
        <time>2020-06-10T08:46:18Z</time>
      </trkpt>
      <trkpt lat="48.61909" lon="-4.23636">
        <ele>55.8</ele>
        <time>2020-06-10T08:46:19Z</time>
      </trkpt>
      <trkpt lat="48.61904" lon="-4.23635">
        <ele>56</ele>
        <time>2020-06-10T08:46:20Z</time>
      </trkpt>
      <trkpt lat="48.61898" lon="-4.23635">
        <ele>56.2</ele>
        <time>2020-06-10T08:46:21Z</time>
      </trkpt>
      <trkpt lat="48.61893" lon="-4.23634">
        <ele>56.4</ele>
        <time>2020-06-10T08:46:22Z</time>
      </trkpt>
      <trkpt lat="48.61888" lon="-4.23633">
        <ele>56.5</ele>
        <time>2020-06-10T08:46:23Z</time>
      </trkpt>
      <trkpt lat="48.61883" lon="-4.23632">
        <ele>56.6</ele>
        <time>2020-06-10T08:46:24Z</time>
      </trkpt>
      <trkpt lat="48.61878" lon="-4.23632">
        <ele>56.7</ele>
        <time>2020-06-10T08:46:25Z</time>
      </trkpt>
      <trkpt lat="48.61874" lon="-4.23632">
        <ele>56.7</ele>
        <time>2020-06-10T08:46:26Z</time>
      </trkpt>
      <trkpt lat="48.6187" lon="-4.23631">
        <ele>56.8</ele>
        <time>2020-06-10T08:46:27Z</time>
      </trkpt>
      <trkpt lat="48.61867" lon="-4.23631">
        <ele>56.8</ele>
        <time>2020-06-10T08:46:28Z</time>
      </trkpt>
      <trkpt lat="48.61862" lon="-4.2363">
        <ele>56.9</ele>
        <time>2020-06-10T08:46:29Z</time>
      </trkpt>
      <trkpt lat="48.61858" lon="-4.23629">
        <ele>56.9</ele>
        <time>2020-06-10T08:46:30Z</time>
      </trkpt>
      <trkpt lat="48.61855" lon="-4.23628">
        <ele>57</ele>
        <time>2020-06-10T08:46:31Z</time>
      </trkpt>
      <trkpt lat="48.6185" lon="-4.23628">
        <ele>57.1</ele>
        <time>2020-06-10T08:46:32Z</time>
      </trkpt>
      <trkpt lat="48.61847" lon="-4.23628">
        <ele>57.1</ele>
        <time>2020-06-10T08:46:33Z</time>
      </trkpt>
      <trkpt lat="48.61843" lon="-4.23626">
        <ele>57.2</ele>
        <time>2020-06-10T08:46:34Z</time>
      </trkpt>
      <trkpt lat="48.61839" lon="-4.23624">
        <ele>57.3</ele>
        <time>2020-06-10T08:46:35Z</time>
      </trkpt>
      <trkpt lat="48.61835" lon="-4.23624">
        <ele>57.4</ele>
        <time>2020-06-10T08:46:36Z</time>
      </trkpt>
      <trkpt lat="48.61832" lon="-4.23623">
        <ele>57.5</ele>
        <time>2020-06-10T08:46:37Z</time>
      </trkpt>
      <trkpt lat="48.61829" lon="-4.23621">
        <ele>57.6</ele>
        <time>2020-06-10T08:46:38Z</time>
      </trkpt>
      <trkpt lat="48.61826" lon="-4.23621">
        <ele>57.6</ele>
        <time>2020-06-10T08:46:39Z</time>
      </trkpt>
      <trkpt lat="48.61823" lon="-4.23619">
        <ele>57.6</ele>
        <time>2020-06-10T08:46:40Z</time>
      </trkpt>
      <trkpt lat="48.6182" lon="-4.23618">
        <ele>57.7</ele>
        <time>2020-06-10T08:46:41Z</time>
      </trkpt>
      <trkpt lat="48.61815" lon="-4.23618">
        <ele>57.7</ele>
        <time>2020-06-10T08:46:42Z</time>
      </trkpt>
      <trkpt lat="48.61812" lon="-4.23616">
        <ele>57.7</ele>
        <time>2020-06-10T08:46:43Z</time>
      </trkpt>
      <trkpt lat="48.61808" lon="-4.23616">
        <ele>57.8</ele>
        <time>2020-06-10T08:46:44Z</time>
      </trkpt>
      <trkpt lat="48.61804" lon="-4.23616">
        <ele>57.9</ele>
        <time>2020-06-10T08:46:45Z</time>
      </trkpt>
      <trkpt lat="48.618" lon="-4.23617">
        <ele>57.9</ele>
        <time>2020-06-10T08:46:46Z</time>
      </trkpt>
      <trkpt lat="48.61797" lon="-4.23616">
        <ele>58</ele>
        <time>2020-06-10T08:46:47Z</time>
      </trkpt>
      <trkpt lat="48.61796" lon="-4.23616">
        <ele>58</ele>
        <time>2020-06-10T08:46:48Z</time>
      </trkpt>
      <trkpt lat="48.61792" lon="-4.23615">
        <ele>58.1</ele>
        <time>2020-06-10T08:46:49Z</time>
      </trkpt>
      <trkpt lat="48.61791" lon="-4.23615">
        <ele>58.1</ele>
        <time>2020-06-10T08:46:50Z</time>
      </trkpt>
      <trkpt lat="48.61787" lon="-4.23615">
        <ele>58.1</ele>
        <time>2020-06-10T08:46:51Z</time>
      </trkpt>
      <trkpt lat="48.61786" lon="-4.23615">
        <ele>58.2</ele>
        <time>2020-06-10T08:46:52Z</time>
      </trkpt>
      <trkpt lat="48.61782" lon="-4.23615">
        <ele>58.2</ele>
        <time>2020-06-10T08:46:53Z</time>
      </trkpt>
      <trkpt lat="48.61779" lon="-4.23613">
        <ele>58.3</ele>
        <time>2020-06-10T08:46:54Z</time>
      </trkpt>
      <trkpt lat="48.61778" lon="-4.23612">
        <ele>58.3</ele>
        <time>2020-06-10T08:46:55Z</time>
      </trkpt>
      <trkpt lat="48.61775" lon="-4.2361">
        <ele>58.3</ele>
        <time>2020-06-10T08:46:56Z</time>
      </trkpt>
      <trkpt lat="48.61772" lon="-4.23612">
        <ele>58.4</ele>
        <time>2020-06-10T08:46:57Z</time>
      </trkpt>
      <trkpt lat="48.61771" lon="-4.23612">
        <ele>58.4</ele>
        <time>2020-06-10T08:46:58Z</time>
      </trkpt>
      <trkpt lat="48.61767" lon="-4.23611">
        <ele>58.4</ele>
        <time>2020-06-10T08:46:59Z</time>
      </trkpt>
      <trkpt lat="48.61765" lon="-4.2361">
        <ele>58.4</ele>
        <time>2020-06-10T08:47:00Z</time>
      </trkpt>
      <trkpt lat="48.61762" lon="-4.23609">
        <ele>58.5</ele>
        <time>2020-06-10T08:47:01Z</time>
      </trkpt>
      <trkpt lat="48.61759" lon="-4.23608">
        <ele>58.5</ele>
        <time>2020-06-10T08:47:02Z</time>
      </trkpt>
      <trkpt lat="48.61756" lon="-4.23608">
        <ele>58.6</ele>
        <time>2020-06-10T08:47:03Z</time>
      </trkpt>
      <trkpt lat="48.61755" lon="-4.23608">
        <ele>58.6</ele>
        <time>2020-06-10T08:47:04Z</time>
      </trkpt>
      <trkpt lat="48.61751" lon="-4.23606">
        <ele>58.6</ele>
        <time>2020-06-10T08:47:05Z</time>
      </trkpt>
      <trkpt lat="48.6175" lon="-4.23605">
        <ele>58.6</ele>
        <time>2020-06-10T08:47:06Z</time>
      </trkpt>
      <trkpt lat="48.61747" lon="-4.23604">
        <ele>58.7</ele>
        <time>2020-06-10T08:47:07Z</time>
      </trkpt>
      <trkpt lat="48.61743" lon="-4.23602">
        <ele>58.7</ele>
        <time>2020-06-10T08:47:08Z</time>
      </trkpt>
      <trkpt lat="48.6174" lon="-4.236">
        <ele>58.7</ele>
        <time>2020-06-10T08:47:09Z</time>
      </trkpt>
      <trkpt lat="48.61738" lon="-4.23599">
        <ele>58.7</ele>
        <time>2020-06-10T08:47:10Z</time>
      </trkpt>
      <trkpt lat="48.61736" lon="-4.23597">
        <ele>58.7</ele>
        <time>2020-06-10T08:47:11Z</time>
      </trkpt>
      <trkpt lat="48.61732" lon="-4.23595">
        <ele>58.7</ele>
        <time>2020-06-10T08:47:12Z</time>
      </trkpt>
      <trkpt lat="48.61731" lon="-4.23594">
        <ele>58.7</ele>
        <time>2020-06-10T08:47:13Z</time>
      </trkpt>
      <trkpt lat="48.61728" lon="-4.23592">
        <ele>58.7</ele>
        <time>2020-06-10T08:47:14Z</time>
      </trkpt>
      <trkpt lat="48.61725" lon="-4.23588">
        <ele>58.7</ele>
        <time>2020-06-10T08:47:15Z</time>
      </trkpt>
      <trkpt lat="48.61724" lon="-4.23587">
        <ele>58.7</ele>
        <time>2020-06-10T08:47:16Z</time>
      </trkpt>
      <trkpt lat="48.61722" lon="-4.23585">
        <ele>58.7</ele>
        <time>2020-06-10T08:47:17Z</time>
      </trkpt>
      <trkpt lat="48.61719" lon="-4.23582">
        <ele>58.8</ele>
        <time>2020-06-10T08:47:18Z</time>
      </trkpt>
      <trkpt lat="48.61718" lon="-4.23581">
        <ele>58.8</ele>
        <time>2020-06-10T08:47:19Z</time>
      </trkpt>
      <trkpt lat="48.61717" lon="-4.23579">
        <ele>58.8</ele>
        <time>2020-06-10T08:47:20Z</time>
      </trkpt>
      <trkpt lat="48.61715" lon="-4.23575">
        <ele>58.8</ele>
        <time>2020-06-10T08:47:21Z</time>
      </trkpt>
      <trkpt lat="48.61714" lon="-4.23574">
        <ele>58.9</ele>
        <time>2020-06-10T08:47:22Z</time>
      </trkpt>
      <trkpt lat="48.61713" lon="-4.23568">
        <ele>58.9</ele>
        <time>2020-06-10T08:47:23Z</time>
      </trkpt>
      <trkpt lat="48.61712" lon="-4.23561">
        <ele>59</ele>
        <time>2020-06-10T08:47:24Z</time>
      </trkpt>
      <trkpt lat="48.61711" lon="-4.23554">
        <ele>59.1</ele>
        <time>2020-06-10T08:47:25Z</time>
      </trkpt>
      <trkpt lat="48.6171" lon="-4.23546">
        <ele>59.2</ele>
        <time>2020-06-10T08:47:26Z</time>
      </trkpt>
      <trkpt lat="48.6171" lon="-4.23539">
        <ele>59.3</ele>
        <time>2020-06-10T08:47:27Z</time>
      </trkpt>
      <trkpt lat="48.61709" lon="-4.23532">
        <ele>59.3</ele>
        <time>2020-06-10T08:47:28Z</time>
      </trkpt>
      <trkpt lat="48.61709" lon="-4.23523">
        <ele>59.3</ele>
        <time>2020-06-10T08:47:29Z</time>
      </trkpt>
      <trkpt lat="48.61708" lon="-4.23514">
        <ele>59.3</ele>
        <time>2020-06-10T08:47:30Z</time>
      </trkpt>
      <trkpt lat="48.61707" lon="-4.23502">
        <ele>59.3</ele>
        <time>2020-06-10T08:47:31Z</time>
      </trkpt>
      <trkpt lat="48.61705" lon="-4.2349">
        <ele>59.2</ele>
        <time>2020-06-10T08:47:32Z</time>
      </trkpt>
      <trkpt lat="48.61703" lon="-4.23477">
        <ele>59.2</ele>
        <time>2020-06-10T08:47:33Z</time>
      </trkpt>
      <trkpt lat="48.61701" lon="-4.23465">
        <ele>59.2</ele>
        <time>2020-06-10T08:47:34Z</time>
      </trkpt>
      <trkpt lat="48.61699" lon="-4.23454">
        <ele>59.3</ele>
        <time>2020-06-10T08:47:35Z</time>
      </trkpt>
      <trkpt lat="48.61697" lon="-4.23443">
        <ele>59.4</ele>
        <time>2020-06-10T08:47:36Z</time>
      </trkpt>
      <trkpt lat="48.61695" lon="-4.23432">
        <ele>59.6</ele>
        <time>2020-06-10T08:47:37Z</time>
      </trkpt>
      <trkpt lat="48.61693" lon="-4.23423">
        <ele>59.6</ele>
        <time>2020-06-10T08:47:38Z</time>
      </trkpt>
      <trkpt lat="48.61692" lon="-4.23415">
        <ele>59.6</ele>
        <time>2020-06-10T08:47:39Z</time>
      </trkpt>
      <trkpt lat="48.61691" lon="-4.23405">
        <ele>59.4</ele>
        <time>2020-06-10T08:47:40Z</time>
      </trkpt>
      <trkpt lat="48.6169" lon="-4.23395">
        <ele>59.3</ele>
        <time>2020-06-10T08:47:41Z</time>
      </trkpt>
      <trkpt lat="48.61689" lon="-4.23383">
        <ele>59.2</ele>
        <time>2020-06-10T08:47:42Z</time>
      </trkpt>
      <trkpt lat="48.61688" lon="-4.23371">
        <ele>59.2</ele>
        <time>2020-06-10T08:47:43Z</time>
      </trkpt>
      <trkpt lat="48.61686" lon="-4.2336">
        <ele>59.1</ele>
        <time>2020-06-10T08:47:44Z</time>
      </trkpt>
      <trkpt lat="48.61684" lon="-4.23348">
        <ele>59.2</ele>
        <time>2020-06-10T08:47:45Z</time>
      </trkpt>
      <trkpt lat="48.61681" lon="-4.23336">
        <ele>59.2</ele>
        <time>2020-06-10T08:47:46Z</time>
      </trkpt>
      <trkpt lat="48.61678" lon="-4.23323">
        <ele>59.2</ele>
        <time>2020-06-10T08:47:47Z</time>
      </trkpt>
      <trkpt lat="48.61677" lon="-4.2331">
        <ele>59.2</ele>
        <time>2020-06-10T08:47:48Z</time>
      </trkpt>
      <trkpt lat="48.61675" lon="-4.23297">
        <ele>59.1</ele>
        <time>2020-06-10T08:47:49Z</time>
      </trkpt>
      <trkpt lat="48.61673" lon="-4.23284">
        <ele>59</ele>
        <time>2020-06-10T08:47:50Z</time>
      </trkpt>
      <trkpt lat="48.6167" lon="-4.23271">
        <ele>59</ele>
        <time>2020-06-10T08:47:51Z</time>
      </trkpt>
      <trkpt lat="48.61668" lon="-4.23258">
        <ele>58.9</ele>
        <time>2020-06-10T08:47:52Z</time>
      </trkpt>
      <trkpt lat="48.61665" lon="-4.23245">
        <ele>58.8</ele>
        <time>2020-06-10T08:47:53Z</time>
      </trkpt>
      <trkpt lat="48.61663" lon="-4.23232">
        <ele>58.7</ele>
        <time>2020-06-10T08:47:54Z</time>
      </trkpt>
      <trkpt lat="48.6166" lon="-4.23219">
        <ele>58.6</ele>
        <time>2020-06-10T08:47:55Z</time>
      </trkpt>
      <trkpt lat="48.61658" lon="-4.23207">
        <ele>58.6</ele>
        <time>2020-06-10T08:47:56Z</time>
      </trkpt>
      <trkpt lat="48.61655" lon="-4.23194">
        <ele>58.5</ele>
        <time>2020-06-10T08:47:57Z</time>
      </trkpt>
      <trkpt lat="48.61653" lon="-4.23182">
        <ele>58.5</ele>
        <time>2020-06-10T08:47:58Z</time>
      </trkpt>
      <trkpt lat="48.6165" lon="-4.2317">
        <ele>58.4</ele>
        <time>2020-06-10T08:47:59Z</time>
      </trkpt>
      <trkpt lat="48.61648" lon="-4.23158">
        <ele>58.3</ele>
        <time>2020-06-10T08:48:00Z</time>
      </trkpt>
      <trkpt lat="48.61646" lon="-4.23147">
        <ele>58.2</ele>
        <time>2020-06-10T08:48:01Z</time>
      </trkpt>
      <trkpt lat="48.61644" lon="-4.23137">
        <ele>58.1</ele>
        <time>2020-06-10T08:48:02Z</time>
      </trkpt>
      <trkpt lat="48.61642" lon="-4.23126">
        <ele>58</ele>
        <time>2020-06-10T08:48:03Z</time>
      </trkpt>
      <trkpt lat="48.61639" lon="-4.23116">
        <ele>57.8</ele>
        <time>2020-06-10T08:48:04Z</time>
      </trkpt>
      <trkpt lat="48.61637" lon="-4.23106">
        <ele>57.6</ele>
        <time>2020-06-10T08:48:05Z</time>
      </trkpt>
      <trkpt lat="48.61634" lon="-4.23096">
        <ele>57.4</ele>
        <time>2020-06-10T08:48:06Z</time>
      </trkpt>
      <trkpt lat="48.61631" lon="-4.23086">
        <ele>57.2</ele>
        <time>2020-06-10T08:48:07Z</time>
      </trkpt>
      <trkpt lat="48.61628" lon="-4.23076">
        <ele>57.1</ele>
        <time>2020-06-10T08:48:08Z</time>
      </trkpt>
      <trkpt lat="48.61626" lon="-4.23067">
        <ele>56.9</ele>
        <time>2020-06-10T08:48:09Z</time>
      </trkpt>
      <trkpt lat="48.61623" lon="-4.23057">
        <ele>56.8</ele>
        <time>2020-06-10T08:48:10Z</time>
      </trkpt>
      <trkpt lat="48.61621" lon="-4.23048">
        <ele>56.7</ele>
        <time>2020-06-10T08:48:11Z</time>
      </trkpt>
      <trkpt lat="48.61618" lon="-4.23039">
        <ele>56.6</ele>
        <time>2020-06-10T08:48:12Z</time>
      </trkpt>
      <trkpt lat="48.61616" lon="-4.23029">
        <ele>56.4</ele>
        <time>2020-06-10T08:48:13Z</time>
      </trkpt>
      <trkpt lat="48.61614" lon="-4.2302">
        <ele>56.3</ele>
        <time>2020-06-10T08:48:14Z</time>
      </trkpt>
      <trkpt lat="48.61611" lon="-4.2301">
        <ele>56.2</ele>
        <time>2020-06-10T08:48:15Z</time>
      </trkpt>
      <trkpt lat="48.61609" lon="-4.23001">
        <ele>56.1</ele>
        <time>2020-06-10T08:48:16Z</time>
      </trkpt>
      <trkpt lat="48.61607" lon="-4.22991">
        <ele>56</ele>
        <time>2020-06-10T08:48:17Z</time>
      </trkpt>
      <trkpt lat="48.61605" lon="-4.22982">
        <ele>55.9</ele>
        <time>2020-06-10T08:48:18Z</time>
      </trkpt>
      <trkpt lat="48.61603" lon="-4.22973">
        <ele>55.9</ele>
        <time>2020-06-10T08:48:19Z</time>
      </trkpt>
      <trkpt lat="48.61601" lon="-4.22963">
        <ele>55.8</ele>
        <time>2020-06-10T08:48:20Z</time>
      </trkpt>
      <trkpt lat="48.61599" lon="-4.22953">
        <ele>55.7</ele>
        <time>2020-06-10T08:48:21Z</time>
      </trkpt>
      <trkpt lat="48.61597" lon="-4.22944">
        <ele>55.7</ele>
        <time>2020-06-10T08:48:22Z</time>
      </trkpt>
      <trkpt lat="48.61594" lon="-4.22934">
        <ele>55.7</ele>
        <time>2020-06-10T08:48:23Z</time>
      </trkpt>
      <trkpt lat="48.61592" lon="-4.22925">
        <ele>55.7</ele>
        <time>2020-06-10T08:48:24Z</time>
      </trkpt>
      <trkpt lat="48.6159" lon="-4.22916">
        <ele>55.7</ele>
        <time>2020-06-10T08:48:25Z</time>
      </trkpt>
      <trkpt lat="48.61588" lon="-4.22906">
        <ele>55.8</ele>
        <time>2020-06-10T08:48:26Z</time>
      </trkpt>
      <trkpt lat="48.61585" lon="-4.22897">
        <ele>55.8</ele>
        <time>2020-06-10T08:48:27Z</time>
      </trkpt>
      <trkpt lat="48.61582" lon="-4.22888">
        <ele>55.9</ele>
        <time>2020-06-10T08:48:28Z</time>
      </trkpt>
      <trkpt lat="48.6158" lon="-4.22879">
        <ele>56</ele>
        <time>2020-06-10T08:48:29Z</time>
      </trkpt>
      <trkpt lat="48.61578" lon="-4.2287">
        <ele>56.2</ele>
        <time>2020-06-10T08:48:30Z</time>
      </trkpt>
      <trkpt lat="48.61576" lon="-4.22861">
        <ele>56.3</ele>
        <time>2020-06-10T08:48:31Z</time>
      </trkpt>
      <trkpt lat="48.61574" lon="-4.22852">
        <ele>56.5</ele>
        <time>2020-06-10T08:48:32Z</time>
      </trkpt>
      <trkpt lat="48.61572" lon="-4.22843">
        <ele>56.6</ele>
        <time>2020-06-10T08:48:33Z</time>
      </trkpt>
      <trkpt lat="48.6157" lon="-4.22835">
        <ele>56.8</ele>
        <time>2020-06-10T08:48:34Z</time>
      </trkpt>
      <trkpt lat="48.61567" lon="-4.22827">
        <ele>56.9</ele>
        <time>2020-06-10T08:48:35Z</time>
      </trkpt>
      <trkpt lat="48.61566" lon="-4.22819">
        <ele>57.1</ele>
        <time>2020-06-10T08:48:36Z</time>
      </trkpt>
      <trkpt lat="48.61564" lon="-4.22811">
        <ele>57.2</ele>
        <time>2020-06-10T08:48:37Z</time>
      </trkpt>
      <trkpt lat="48.61562" lon="-4.22803">
        <ele>57.3</ele>
        <time>2020-06-10T08:48:38Z</time>
      </trkpt>
      <trkpt lat="48.6156" lon="-4.22796">
        <ele>57.4</ele>
        <time>2020-06-10T08:48:39Z</time>
      </trkpt>
      <trkpt lat="48.61558" lon="-4.22788">
        <ele>57.5</ele>
        <time>2020-06-10T08:48:40Z</time>
      </trkpt>
      <trkpt lat="48.61557" lon="-4.2278">
        <ele>57.6</ele>
        <time>2020-06-10T08:48:41Z</time>
      </trkpt>
      <trkpt lat="48.61555" lon="-4.22773">
        <ele>57.7</ele>
        <time>2020-06-10T08:48:42Z</time>
      </trkpt>
      <trkpt lat="48.61554" lon="-4.22765">
        <ele>57.9</ele>
        <time>2020-06-10T08:48:43Z</time>
      </trkpt>
      <trkpt lat="48.61552" lon="-4.22758">
        <ele>58.1</ele>
        <time>2020-06-10T08:48:44Z</time>
      </trkpt>
      <trkpt lat="48.61551" lon="-4.22752">
        <ele>58.2</ele>
        <time>2020-06-10T08:48:45Z</time>
      </trkpt>
      <trkpt lat="48.6155" lon="-4.22746">
        <ele>58.4</ele>
        <time>2020-06-10T08:48:46Z</time>
      </trkpt>
      <trkpt lat="48.61549" lon="-4.2274">
        <ele>58.5</ele>
        <time>2020-06-10T08:48:47Z</time>
      </trkpt>
      <trkpt lat="48.61548" lon="-4.22734">
        <ele>58.6</ele>
        <time>2020-06-10T08:48:48Z</time>
      </trkpt>
      <trkpt lat="48.61546" lon="-4.22727">
        <ele>58.8</ele>
        <time>2020-06-10T08:48:49Z</time>
      </trkpt>
      <trkpt lat="48.61545" lon="-4.22721">
        <ele>58.9</ele>
        <time>2020-06-10T08:48:50Z</time>
      </trkpt>
      <trkpt lat="48.61543" lon="-4.22714">
        <ele>59</ele>
        <time>2020-06-10T08:48:51Z</time>
      </trkpt>
      <trkpt lat="48.61542" lon="-4.22707">
        <ele>59.1</ele>
        <time>2020-06-10T08:48:52Z</time>
      </trkpt>
      <trkpt lat="48.61541" lon="-4.227">
        <ele>59.2</ele>
        <time>2020-06-10T08:48:53Z</time>
      </trkpt>
      <trkpt lat="48.61539" lon="-4.22693">
        <ele>59.4</ele>
        <time>2020-06-10T08:48:54Z</time>
      </trkpt>
      <trkpt lat="48.61538" lon="-4.22686">
        <ele>59.5</ele>
        <time>2020-06-10T08:48:55Z</time>
      </trkpt>
      <trkpt lat="48.61537" lon="-4.22679">
        <ele>59.6</ele>
        <time>2020-06-10T08:48:56Z</time>
      </trkpt>
      <trkpt lat="48.61536" lon="-4.22673">
        <ele>59.7</ele>
        <time>2020-06-10T08:48:57Z</time>
      </trkpt>
      <trkpt lat="48.61535" lon="-4.22666">
        <ele>59.8</ele>
        <time>2020-06-10T08:48:58Z</time>
      </trkpt>
      <trkpt lat="48.61533" lon="-4.2266">
        <ele>59.9</ele>
        <time>2020-06-10T08:48:59Z</time>
      </trkpt>
      <trkpt lat="48.61531" lon="-4.22653">
        <ele>60.1</ele>
        <time>2020-06-10T08:49:00Z</time>
      </trkpt>
      <trkpt lat="48.61529" lon="-4.22646">
        <ele>60.2</ele>
        <time>2020-06-10T08:49:01Z</time>
      </trkpt>
      <trkpt lat="48.61527" lon="-4.22639">
        <ele>60.3</ele>
        <time>2020-06-10T08:49:02Z</time>
      </trkpt>
      <trkpt lat="48.61525" lon="-4.22633">
        <ele>60.4</ele>
        <time>2020-06-10T08:49:03Z</time>
      </trkpt>
      <trkpt lat="48.61523" lon="-4.22625">
        <ele>60.5</ele>
        <time>2020-06-10T08:49:04Z</time>
      </trkpt>
      <trkpt lat="48.61521" lon="-4.22619">
        <ele>60.6</ele>
        <time>2020-06-10T08:49:05Z</time>
      </trkpt>
      <trkpt lat="48.61519" lon="-4.22613">
        <ele>60.7</ele>
        <time>2020-06-10T08:49:06Z</time>
      </trkpt>
      <trkpt lat="48.61518" lon="-4.22607">
        <ele>60.8</ele>
        <time>2020-06-10T08:49:07Z</time>
      </trkpt>
      <trkpt lat="48.61517" lon="-4.226">
        <ele>60.9</ele>
        <time>2020-06-10T08:49:08Z</time>
      </trkpt>
      <trkpt lat="48.61516" lon="-4.22594">
        <ele>61.1</ele>
        <time>2020-06-10T08:49:09Z</time>
      </trkpt>
      <trkpt lat="48.61515" lon="-4.22589">
        <ele>61.2</ele>
        <time>2020-06-10T08:49:10Z</time>
      </trkpt>
      <trkpt lat="48.61514" lon="-4.22583">
        <ele>61.4</ele>
        <time>2020-06-10T08:49:11Z</time>
      </trkpt>
      <trkpt lat="48.61512" lon="-4.22576">
        <ele>61.6</ele>
        <time>2020-06-10T08:49:12Z</time>
      </trkpt>
      <trkpt lat="48.6151" lon="-4.22569">
        <ele>61.8</ele>
        <time>2020-06-10T08:49:13Z</time>
      </trkpt>
      <trkpt lat="48.61508" lon="-4.22562">
        <ele>62</ele>
        <time>2020-06-10T08:49:14Z</time>
      </trkpt>
      <trkpt lat="48.61507" lon="-4.22555">
        <ele>62.3</ele>
        <time>2020-06-10T08:49:15Z</time>
      </trkpt>
      <trkpt lat="48.61506" lon="-4.22548">
        <ele>62.5</ele>
        <time>2020-06-10T08:49:16Z</time>
      </trkpt>
      <trkpt lat="48.61505" lon="-4.22541">
        <ele>62.8</ele>
        <time>2020-06-10T08:49:17Z</time>
      </trkpt>
      <trkpt lat="48.61504" lon="-4.22533">
        <ele>62.9</ele>
        <time>2020-06-10T08:49:18Z</time>
      </trkpt>
      <trkpt lat="48.61502" lon="-4.22528">
        <ele>62.9</ele>
        <time>2020-06-10T08:49:19Z</time>
      </trkpt>
      <trkpt lat="48.61501" lon="-4.22523">
        <ele>63</ele>
        <time>2020-06-10T08:49:20Z</time>
      </trkpt>
      <trkpt lat="48.61499" lon="-4.22517">
        <ele>63</ele>
        <time>2020-06-10T08:49:21Z</time>
      </trkpt>
      <trkpt lat="48.61497" lon="-4.2251">
        <ele>63</ele>
        <time>2020-06-10T08:49:22Z</time>
      </trkpt>
      <trkpt lat="48.61494" lon="-4.22503">
        <ele>63</ele>
        <time>2020-06-10T08:49:23Z</time>
      </trkpt>
      <trkpt lat="48.61491" lon="-4.22497">
        <ele>63</ele>
        <time>2020-06-10T08:49:24Z</time>
      </trkpt>
      <trkpt lat="48.61489" lon="-4.22489">
        <ele>63</ele>
        <time>2020-06-10T08:49:25Z</time>
      </trkpt>
      <trkpt lat="48.61488" lon="-4.22482">
        <ele>63.1</ele>
        <time>2020-06-10T08:49:26Z</time>
      </trkpt>
      <trkpt lat="48.61486" lon="-4.22475">
        <ele>63.1</ele>
        <time>2020-06-10T08:49:27Z</time>
      </trkpt>
      <trkpt lat="48.61485" lon="-4.22467">
        <ele>63.2</ele>
        <time>2020-06-10T08:49:28Z</time>
      </trkpt>
      <trkpt lat="48.61482" lon="-4.22461">
        <ele>63.2</ele>
        <time>2020-06-10T08:49:29Z</time>
      </trkpt>
      <trkpt lat="48.6148" lon="-4.22454">
        <ele>63.3</ele>
        <time>2020-06-10T08:49:30Z</time>
      </trkpt>
      <trkpt lat="48.61478" lon="-4.22447">
        <ele>63.3</ele>
        <time>2020-06-10T08:49:31Z</time>
      </trkpt>
      <trkpt lat="48.61476" lon="-4.2244">
        <ele>63.4</ele>
        <time>2020-06-10T08:49:32Z</time>
      </trkpt>
      <trkpt lat="48.61474" lon="-4.22432">
        <ele>63.4</ele>
        <time>2020-06-10T08:49:33Z</time>
      </trkpt>
      <trkpt lat="48.61472" lon="-4.22423">
        <ele>63.4</ele>
        <time>2020-06-10T08:49:34Z</time>
      </trkpt>
      <trkpt lat="48.6147" lon="-4.22415">
        <ele>63.4</ele>
        <time>2020-06-10T08:49:35Z</time>
      </trkpt>
      <trkpt lat="48.61469" lon="-4.22408">
        <ele>63.4</ele>
        <time>2020-06-10T08:49:36Z</time>
      </trkpt>
      <trkpt lat="48.61466" lon="-4.22401">
        <ele>63.4</ele>
        <time>2020-06-10T08:49:37Z</time>
      </trkpt>
      <trkpt lat="48.61463" lon="-4.22394">
        <ele>63.4</ele>
        <time>2020-06-10T08:49:38Z</time>
      </trkpt>
      <trkpt lat="48.61461" lon="-4.22387">
        <ele>63.4</ele>
        <time>2020-06-10T08:49:39Z</time>
      </trkpt>
      <trkpt lat="48.61459" lon="-4.2238">
        <ele>63.5</ele>
        <time>2020-06-10T08:49:40Z</time>
      </trkpt>
      <trkpt lat="48.61457" lon="-4.22373">
        <ele>63.6</ele>
        <time>2020-06-10T08:49:41Z</time>
      </trkpt>
      <trkpt lat="48.61455" lon="-4.22365">
        <ele>63.7</ele>
        <time>2020-06-10T08:49:42Z</time>
      </trkpt>
      <trkpt lat="48.61453" lon="-4.22358">
        <ele>63.8</ele>
        <time>2020-06-10T08:49:43Z</time>
      </trkpt>
      <trkpt lat="48.61452" lon="-4.2235">
        <ele>63.9</ele>
        <time>2020-06-10T08:49:44Z</time>
      </trkpt>
      <trkpt lat="48.61451" lon="-4.22342">
        <ele>63.9</ele>
        <time>2020-06-10T08:49:45Z</time>
      </trkpt>
      <trkpt lat="48.61449" lon="-4.22335">
        <ele>64</ele>
        <time>2020-06-10T08:49:46Z</time>
      </trkpt>
      <trkpt lat="48.61446" lon="-4.22328">
        <ele>64</ele>
        <time>2020-06-10T08:49:47Z</time>
      </trkpt>
      <trkpt lat="48.61445" lon="-4.2232">
        <ele>64.1</ele>
        <time>2020-06-10T08:49:48Z</time>
      </trkpt>
      <trkpt lat="48.61443" lon="-4.22312">
        <ele>64.2</ele>
        <time>2020-06-10T08:49:49Z</time>
      </trkpt>
      <trkpt lat="48.61441" lon="-4.22304">
        <ele>64.2</ele>
        <time>2020-06-10T08:49:50Z</time>
      </trkpt>
      <trkpt lat="48.61439" lon="-4.22296">
        <ele>64.3</ele>
        <time>2020-06-10T08:49:51Z</time>
      </trkpt>
      <trkpt lat="48.61438" lon="-4.22289">
        <ele>64.3</ele>
        <time>2020-06-10T08:49:52Z</time>
      </trkpt>
      <trkpt lat="48.61435" lon="-4.22282">
        <ele>64.3</ele>
        <time>2020-06-10T08:49:53Z</time>
      </trkpt>
      <trkpt lat="48.61434" lon="-4.22274">
        <ele>64.4</ele>
        <time>2020-06-10T08:49:54Z</time>
      </trkpt>
      <trkpt lat="48.61432" lon="-4.22266">
        <ele>64.4</ele>
        <time>2020-06-10T08:49:55Z</time>
      </trkpt>
      <trkpt lat="48.61429" lon="-4.22258">
        <ele>64.5</ele>
        <time>2020-06-10T08:49:56Z</time>
      </trkpt>
      <trkpt lat="48.61427" lon="-4.2225">
        <ele>64.3</ele>
        <time>2020-06-10T08:49:57Z</time>
      </trkpt>
      <trkpt lat="48.61425" lon="-4.22242">
        <ele>64.3</ele>
        <time>2020-06-10T08:49:58Z</time>
      </trkpt>
      <trkpt lat="48.61423" lon="-4.22233">
        <ele>64.2</ele>
        <time>2020-06-10T08:49:59Z</time>
      </trkpt>
      <trkpt lat="48.61421" lon="-4.22225">
        <ele>64.2</ele>
        <time>2020-06-10T08:50:00Z</time>
      </trkpt>
      <trkpt lat="48.61419" lon="-4.22217">
        <ele>64.2</ele>
        <time>2020-06-10T08:50:01Z</time>
      </trkpt>
      <trkpt lat="48.61418" lon="-4.22209">
        <ele>64.2</ele>
        <time>2020-06-10T08:50:02Z</time>
      </trkpt>
      <trkpt lat="48.61416" lon="-4.22201">
        <ele>64.2</ele>
        <time>2020-06-10T08:50:03Z</time>
      </trkpt>
      <trkpt lat="48.61414" lon="-4.22193">
        <ele>64.2</ele>
        <time>2020-06-10T08:50:04Z</time>
      </trkpt>
      <trkpt lat="48.61413" lon="-4.22185">
        <ele>64.3</ele>
        <time>2020-06-10T08:50:05Z</time>
      </trkpt>
      <trkpt lat="48.61412" lon="-4.22177">
        <ele>64.3</ele>
        <time>2020-06-10T08:50:06Z</time>
      </trkpt>
      <trkpt lat="48.61409" lon="-4.2217">
        <ele>64.3</ele>
        <time>2020-06-10T08:50:07Z</time>
      </trkpt>
      <trkpt lat="48.61408" lon="-4.22162">
        <ele>64.3</ele>
        <time>2020-06-10T08:50:08Z</time>
      </trkpt>
      <trkpt lat="48.61405" lon="-4.22155">
        <ele>64.3</ele>
        <time>2020-06-10T08:50:09Z</time>
      </trkpt>
      <trkpt lat="48.61404" lon="-4.22147">
        <ele>64.3</ele>
        <time>2020-06-10T08:50:10Z</time>
      </trkpt>
      <trkpt lat="48.61404" lon="-4.22139">
        <ele>64.3</ele>
        <time>2020-06-10T08:50:11Z</time>
      </trkpt>
      <trkpt lat="48.61402" lon="-4.22132">
        <ele>64.3</ele>
        <time>2020-06-10T08:50:12Z</time>
      </trkpt>
      <trkpt lat="48.61401" lon="-4.22124">
        <ele>64.3</ele>
        <time>2020-06-10T08:50:13Z</time>
      </trkpt>
      <trkpt lat="48.614" lon="-4.22116">
        <ele>64.3</ele>
        <time>2020-06-10T08:50:14Z</time>
      </trkpt>
      <trkpt lat="48.61398" lon="-4.22108">
        <ele>64.3</ele>
        <time>2020-06-10T08:50:15Z</time>
      </trkpt>
      <trkpt lat="48.61397" lon="-4.221">
        <ele>64.3</ele>
        <time>2020-06-10T08:50:16Z</time>
      </trkpt>
      <trkpt lat="48.61395" lon="-4.22093">
        <ele>64.4</ele>
        <time>2020-06-10T08:50:17Z</time>
      </trkpt>
      <trkpt lat="48.61393" lon="-4.22085">
        <ele>64.4</ele>
        <time>2020-06-10T08:50:18Z</time>
      </trkpt>
      <trkpt lat="48.61392" lon="-4.22078">
        <ele>64.4</ele>
        <time>2020-06-10T08:50:19Z</time>
      </trkpt>
      <trkpt lat="48.61391" lon="-4.2207">
        <ele>64.5</ele>
        <time>2020-06-10T08:50:20Z</time>
      </trkpt>
      <trkpt lat="48.6139" lon="-4.22062">
        <ele>64.4</ele>
        <time>2020-06-10T08:50:21Z</time>
      </trkpt>
      <trkpt lat="48.61389" lon="-4.22055">
        <ele>64.4</ele>
        <time>2020-06-10T08:50:22Z</time>
      </trkpt>
      <trkpt lat="48.61389" lon="-4.22047">
        <ele>64.4</ele>
        <time>2020-06-10T08:50:23Z</time>
      </trkpt>
      <trkpt lat="48.61388" lon="-4.22038">
        <ele>64.3</ele>
        <time>2020-06-10T08:50:24Z</time>
      </trkpt>
      <trkpt lat="48.61388" lon="-4.22031">
        <ele>64.3</ele>
        <time>2020-06-10T08:50:25Z</time>
      </trkpt>
      <trkpt lat="48.61388" lon="-4.22023">
        <ele>64.2</ele>
        <time>2020-06-10T08:50:26Z</time>
      </trkpt>
      <trkpt lat="48.61387" lon="-4.22015">
        <ele>64.2</ele>
        <time>2020-06-10T08:50:27Z</time>
      </trkpt>
      <trkpt lat="48.61385" lon="-4.22008">
        <ele>64.2</ele>
        <time>2020-06-10T08:50:28Z</time>
      </trkpt>
      <trkpt lat="48.61384" lon="-4.22">
        <ele>64.3</ele>
        <time>2020-06-10T08:50:29Z</time>
      </trkpt>
      <trkpt lat="48.61384" lon="-4.21992">
        <ele>64.4</ele>
        <time>2020-06-10T08:50:30Z</time>
      </trkpt>
      <trkpt lat="48.61384" lon="-4.21984">
        <ele>64.5</ele>
        <time>2020-06-10T08:50:31Z</time>
      </trkpt>
      <trkpt lat="48.61383" lon="-4.21976">
        <ele>64.5</ele>
        <time>2020-06-10T08:50:32Z</time>
      </trkpt>
      <trkpt lat="48.61381" lon="-4.21969">
        <ele>64.5</ele>
        <time>2020-06-10T08:50:33Z</time>
      </trkpt>
      <trkpt lat="48.6138" lon="-4.21961">
        <ele>64.5</ele>
        <time>2020-06-10T08:50:34Z</time>
      </trkpt>
      <trkpt lat="48.6138" lon="-4.21953">
        <ele>64.5</ele>
        <time>2020-06-10T08:50:35Z</time>
      </trkpt>
      <trkpt lat="48.61379" lon="-4.21945">
        <ele>64.5</ele>
        <time>2020-06-10T08:50:36Z</time>
      </trkpt>
      <trkpt lat="48.61378" lon="-4.21936">
        <ele>64.6</ele>
        <time>2020-06-10T08:50:37Z</time>
      </trkpt>
      <trkpt lat="48.61377" lon="-4.21928">
        <ele>64.6</ele>
        <time>2020-06-10T08:50:38Z</time>
      </trkpt>
      <trkpt lat="48.61376" lon="-4.21919">
        <ele>64.7</ele>
        <time>2020-06-10T08:50:39Z</time>
      </trkpt>
      <trkpt lat="48.61375" lon="-4.21911">
        <ele>64.7</ele>
        <time>2020-06-10T08:50:40Z</time>
      </trkpt>
      <trkpt lat="48.61375" lon="-4.21903">
        <ele>64.7</ele>
        <time>2020-06-10T08:50:41Z</time>
      </trkpt>
      <trkpt lat="48.61375" lon="-4.21896">
        <ele>64.8</ele>
        <time>2020-06-10T08:50:42Z</time>
      </trkpt>
      <trkpt lat="48.61374" lon="-4.21888">
        <ele>64.8</ele>
        <time>2020-06-10T08:50:43Z</time>
      </trkpt>
      <trkpt lat="48.61374" lon="-4.2188">
        <ele>64.8</ele>
        <time>2020-06-10T08:50:44Z</time>
      </trkpt>
      <trkpt lat="48.61374" lon="-4.21872">
        <ele>64.8</ele>
        <time>2020-06-10T08:50:45Z</time>
      </trkpt>
      <trkpt lat="48.61375" lon="-4.21864">
        <ele>64.7</ele>
        <time>2020-06-10T08:50:46Z</time>
      </trkpt>
      <trkpt lat="48.61375" lon="-4.21855">
        <ele>64.7</ele>
        <time>2020-06-10T08:50:47Z</time>
      </trkpt>
      <trkpt lat="48.61376" lon="-4.21847">
        <ele>64.7</ele>
        <time>2020-06-10T08:50:48Z</time>
      </trkpt>
      <trkpt lat="48.61376" lon="-4.21838">
        <ele>64.7</ele>
        <time>2020-06-10T08:50:49Z</time>
      </trkpt>
      <trkpt lat="48.61377" lon="-4.2183">
        <ele>64.7</ele>
        <time>2020-06-10T08:50:50Z</time>
      </trkpt>
      <trkpt lat="48.61378" lon="-4.21822">
        <ele>64.7</ele>
        <time>2020-06-10T08:50:51Z</time>
      </trkpt>
      <trkpt lat="48.61379" lon="-4.21814">
        <ele>64.8</ele>
        <time>2020-06-10T08:50:52Z</time>
      </trkpt>
      <trkpt lat="48.61379" lon="-4.21806">
        <ele>64.9</ele>
        <time>2020-06-10T08:50:53Z</time>
      </trkpt>
      <trkpt lat="48.6138" lon="-4.21798">
        <ele>65</ele>
        <time>2020-06-10T08:50:54Z</time>
      </trkpt>
      <trkpt lat="48.61379" lon="-4.2179">
        <ele>65.1</ele>
        <time>2020-06-10T08:50:55Z</time>
      </trkpt>
      <trkpt lat="48.61379" lon="-4.21782">
        <ele>65.2</ele>
        <time>2020-06-10T08:50:56Z</time>
      </trkpt>
      <trkpt lat="48.61379" lon="-4.21774">
        <ele>65.2</ele>
        <time>2020-06-10T08:50:57Z</time>
      </trkpt>
      <trkpt lat="48.61379" lon="-4.21766">
        <ele>65.3</ele>
        <time>2020-06-10T08:50:58Z</time>
      </trkpt>
      <trkpt lat="48.6138" lon="-4.21758">
        <ele>65.3</ele>
        <time>2020-06-10T08:50:59Z</time>
      </trkpt>
      <trkpt lat="48.6138" lon="-4.2175">
        <ele>65.4</ele>
        <time>2020-06-10T08:51:00Z</time>
      </trkpt>
      <trkpt lat="48.61379" lon="-4.21742">
        <ele>65.4</ele>
        <time>2020-06-10T08:51:01Z</time>
      </trkpt>
      <trkpt lat="48.61378" lon="-4.21733">
        <ele>65.5</ele>
        <time>2020-06-10T08:51:02Z</time>
      </trkpt>
      <trkpt lat="48.61377" lon="-4.21725">
        <ele>65.5</ele>
        <time>2020-06-10T08:51:03Z</time>
      </trkpt>
      <trkpt lat="48.61378" lon="-4.21716">
        <ele>65.5</ele>
        <time>2020-06-10T08:51:04Z</time>
      </trkpt>
      <trkpt lat="48.61379" lon="-4.21708">
        <ele>65.6</ele>
        <time>2020-06-10T08:51:05Z</time>
      </trkpt>
      <trkpt lat="48.61379" lon="-4.21699">
        <ele>65.6</ele>
        <time>2020-06-10T08:51:06Z</time>
      </trkpt>
      <trkpt lat="48.61379" lon="-4.2169">
        <ele>65.7</ele>
        <time>2020-06-10T08:51:07Z</time>
      </trkpt>
      <trkpt lat="48.61379" lon="-4.21682">
        <ele>65.8</ele>
        <time>2020-06-10T08:51:08Z</time>
      </trkpt>
      <trkpt lat="48.6138" lon="-4.21673">
        <ele>65.9</ele>
        <time>2020-06-10T08:51:09Z</time>
      </trkpt>
      <trkpt lat="48.6138" lon="-4.21665">
        <ele>65.9</ele>
        <time>2020-06-10T08:51:10Z</time>
      </trkpt>
      <trkpt lat="48.61381" lon="-4.21657">
        <ele>66</ele>
        <time>2020-06-10T08:51:11Z</time>
      </trkpt>
      <trkpt lat="48.61382" lon="-4.21649">
        <ele>66</ele>
        <time>2020-06-10T08:51:12Z</time>
      </trkpt>
      <trkpt lat="48.61383" lon="-4.21641">
        <ele>66.1</ele>
        <time>2020-06-10T08:51:13Z</time>
      </trkpt>
      <trkpt lat="48.61383" lon="-4.21634">
        <ele>66.1</ele>
        <time>2020-06-10T08:51:14Z</time>
      </trkpt>
      <trkpt lat="48.61383" lon="-4.21627">
        <ele>66.2</ele>
        <time>2020-06-10T08:51:15Z</time>
      </trkpt>
      <trkpt lat="48.61383" lon="-4.2162">
        <ele>66.3</ele>
        <time>2020-06-10T08:51:16Z</time>
      </trkpt>
      <trkpt lat="48.61383" lon="-4.21612">
        <ele>66.3</ele>
        <time>2020-06-10T08:51:17Z</time>
      </trkpt>
      <trkpt lat="48.61383" lon="-4.21606">
        <ele>66.4</ele>
        <time>2020-06-10T08:51:18Z</time>
      </trkpt>
      <trkpt lat="48.61383" lon="-4.21599">
        <ele>66.4</ele>
        <time>2020-06-10T08:51:19Z</time>
      </trkpt>
      <trkpt lat="48.61383" lon="-4.21593">
        <ele>66.4</ele>
        <time>2020-06-10T08:51:20Z</time>
      </trkpt>
      <trkpt lat="48.61383" lon="-4.21588">
        <ele>66.4</ele>
        <time>2020-06-10T08:51:21Z</time>
      </trkpt>
      <trkpt lat="48.61385" lon="-4.21584">
        <ele>66.3</ele>
        <time>2020-06-10T08:51:22Z</time>
      </trkpt>
      <trkpt lat="48.61388" lon="-4.21584">
        <ele>66.2</ele>
        <time>2020-06-10T08:51:23Z</time>
      </trkpt>
      <trkpt lat="48.61389" lon="-4.21585">
        <ele>66.2</ele>
        <time>2020-06-10T08:51:24Z</time>
      </trkpt>
      <trkpt lat="48.61392" lon="-4.21589">
        <ele>66.1</ele>
        <time>2020-06-10T08:51:25Z</time>
      </trkpt>
      <trkpt lat="48.61395" lon="-4.21592">
        <ele>66</ele>
        <time>2020-06-10T08:51:26Z</time>
      </trkpt>
      <trkpt lat="48.61398" lon="-4.21595">
        <ele>65.9</ele>
        <time>2020-06-10T08:51:27Z</time>
      </trkpt>
      <trkpt lat="48.61401" lon="-4.21597">
        <ele>65.8</ele>
        <time>2020-06-10T08:51:28Z</time>
      </trkpt>
      <trkpt lat="48.61405" lon="-4.216">
        <ele>65.8</ele>
        <time>2020-06-10T08:51:29Z</time>
      </trkpt>
      <trkpt lat="48.61409" lon="-4.21599">
        <ele>65.7</ele>
        <time>2020-06-10T08:51:30Z</time>
      </trkpt>
      <trkpt lat="48.61413" lon="-4.21598">
        <ele>65.6</ele>
        <time>2020-06-10T08:51:31Z</time>
      </trkpt>
      <trkpt lat="48.61417" lon="-4.21597">
        <ele>65.5</ele>
        <time>2020-06-10T08:51:32Z</time>
      </trkpt>
      <trkpt lat="48.61422" lon="-4.21596">
        <ele>65.5</ele>
        <time>2020-06-10T08:51:33Z</time>
      </trkpt>
      <trkpt lat="48.61426" lon="-4.21594">
        <ele>65.4</ele>
        <time>2020-06-10T08:51:34Z</time>
      </trkpt>
      <trkpt lat="48.61431" lon="-4.21593">
        <ele>65.4</ele>
        <time>2020-06-10T08:51:35Z</time>
      </trkpt>
      <trkpt lat="48.61436" lon="-4.2159">
        <ele>65.4</ele>
        <time>2020-06-10T08:51:36Z</time>
      </trkpt>
      <trkpt lat="48.61441" lon="-4.21589">
        <ele>65.4</ele>
        <time>2020-06-10T08:51:37Z</time>
      </trkpt>
      <trkpt lat="48.61446" lon="-4.21586">
        <ele>65.4</ele>
        <time>2020-06-10T08:51:38Z</time>
      </trkpt>
      <trkpt lat="48.61451" lon="-4.21584">
        <ele>65.4</ele>
        <time>2020-06-10T08:51:39Z</time>
      </trkpt>
      <trkpt lat="48.61456" lon="-4.21582">
        <ele>65.4</ele>
        <time>2020-06-10T08:51:40Z</time>
      </trkpt>
      <trkpt lat="48.61461" lon="-4.21581">
        <ele>65.5</ele>
        <time>2020-06-10T08:51:41Z</time>
      </trkpt>
      <trkpt lat="48.61466" lon="-4.21579">
        <ele>65.5</ele>
        <time>2020-06-10T08:51:42Z</time>
      </trkpt>
      <trkpt lat="48.61471" lon="-4.21578">
        <ele>65.6</ele>
        <time>2020-06-10T08:51:43Z</time>
      </trkpt>
      <trkpt lat="48.61476" lon="-4.21576">
        <ele>65.7</ele>
        <time>2020-06-10T08:51:44Z</time>
      </trkpt>
      <trkpt lat="48.6148" lon="-4.21574">
        <ele>65.8</ele>
        <time>2020-06-10T08:51:45Z</time>
      </trkpt>
      <trkpt lat="48.61485" lon="-4.21574">
        <ele>65.9</ele>
        <time>2020-06-10T08:51:46Z</time>
      </trkpt>
      <trkpt lat="48.6149" lon="-4.21573">
        <ele>65.9</ele>
        <time>2020-06-10T08:51:47Z</time>
      </trkpt>
      <trkpt lat="48.61495" lon="-4.21571">
        <ele>66</ele>
        <time>2020-06-10T08:51:48Z</time>
      </trkpt>
      <trkpt lat="48.61499" lon="-4.21568">
        <ele>66.1</ele>
        <time>2020-06-10T08:51:49Z</time>
      </trkpt>
      <trkpt lat="48.61504" lon="-4.21567">
        <ele>66.1</ele>
        <time>2020-06-10T08:51:50Z</time>
      </trkpt>
      <trkpt lat="48.61508" lon="-4.21565">
        <ele>66.2</ele>
        <time>2020-06-10T08:51:51Z</time>
      </trkpt>
      <trkpt lat="48.61513" lon="-4.21565">
        <ele>66.3</ele>
        <time>2020-06-10T08:51:52Z</time>
      </trkpt>
      <trkpt lat="48.61518" lon="-4.21563">
        <ele>66.3</ele>
        <time>2020-06-10T08:51:53Z</time>
      </trkpt>
      <trkpt lat="48.61522" lon="-4.21562">
        <ele>66.4</ele>
        <time>2020-06-10T08:51:54Z</time>
      </trkpt>
      <trkpt lat="48.61527" lon="-4.21562">
        <ele>66.5</ele>
        <time>2020-06-10T08:51:55Z</time>
      </trkpt>
      <trkpt lat="48.61532" lon="-4.2156">
        <ele>66.6</ele>
        <time>2020-06-10T08:51:56Z</time>
      </trkpt>
      <trkpt lat="48.61536" lon="-4.21558">
        <ele>66.7</ele>
        <time>2020-06-10T08:51:57Z</time>
      </trkpt>
      <trkpt lat="48.61541" lon="-4.21556">
        <ele>66.7</ele>
        <time>2020-06-10T08:51:58Z</time>
      </trkpt>
      <trkpt lat="48.61545" lon="-4.21555">
        <ele>66.8</ele>
        <time>2020-06-10T08:51:59Z</time>
      </trkpt>
      <trkpt lat="48.6155" lon="-4.21554">
        <ele>66.9</ele>
        <time>2020-06-10T08:52:00Z</time>
      </trkpt>
      <trkpt lat="48.61554" lon="-4.21554">
        <ele>66.9</ele>
        <time>2020-06-10T08:52:01Z</time>
      </trkpt>
      <trkpt lat="48.61558" lon="-4.21554">
        <ele>67</ele>
        <time>2020-06-10T08:52:02Z</time>
      </trkpt>
      <trkpt lat="48.61563" lon="-4.21553">
        <ele>67.1</ele>
        <time>2020-06-10T08:52:03Z</time>
      </trkpt>
      <trkpt lat="48.61567" lon="-4.21553">
        <ele>67.2</ele>
        <time>2020-06-10T08:52:04Z</time>
      </trkpt>
      <trkpt lat="48.61571" lon="-4.21551">
        <ele>67.2</ele>
        <time>2020-06-10T08:52:05Z</time>
      </trkpt>
      <trkpt lat="48.61576" lon="-4.21549">
        <ele>67.3</ele>
        <time>2020-06-10T08:52:06Z</time>
      </trkpt>
      <trkpt lat="48.6158" lon="-4.21544">
        <ele>67.4</ele>
        <time>2020-06-10T08:52:07Z</time>
      </trkpt>
      <trkpt lat="48.61584" lon="-4.2154">
        <ele>67.4</ele>
        <time>2020-06-10T08:52:08Z</time>
      </trkpt>
      <trkpt lat="48.61587" lon="-4.21533">
        <ele>67.4</ele>
        <time>2020-06-10T08:52:09Z</time>
      </trkpt>
      <trkpt lat="48.61591" lon="-4.21527">
        <ele>67.4</ele>
        <time>2020-06-10T08:52:10Z</time>
      </trkpt>
      <trkpt lat="48.61593" lon="-4.2152">
        <ele>67.4</ele>
        <time>2020-06-10T08:52:11Z</time>
      </trkpt>
      <trkpt lat="48.61595" lon="-4.21513">
        <ele>67.3</ele>
        <time>2020-06-10T08:52:12Z</time>
      </trkpt>
      <trkpt lat="48.61598" lon="-4.21506">
        <ele>67.3</ele>
        <time>2020-06-10T08:52:13Z</time>
      </trkpt>
      <trkpt lat="48.616" lon="-4.21499">
        <ele>67.2</ele>
        <time>2020-06-10T08:52:14Z</time>
      </trkpt>
      <trkpt lat="48.61602" lon="-4.21492">
        <ele>67.2</ele>
        <time>2020-06-10T08:52:15Z</time>
      </trkpt>
      <trkpt lat="48.61604" lon="-4.21486">
        <ele>67.2</ele>
        <time>2020-06-10T08:52:16Z</time>
      </trkpt>
      <trkpt lat="48.61605" lon="-4.21478">
        <ele>67.2</ele>
        <time>2020-06-10T08:52:17Z</time>
      </trkpt>
      <trkpt lat="48.61607" lon="-4.21471">
        <ele>67.1</ele>
        <time>2020-06-10T08:52:18Z</time>
      </trkpt>
      <trkpt lat="48.61609" lon="-4.21464">
        <ele>67.1</ele>
        <time>2020-06-10T08:52:19Z</time>
      </trkpt>
      <trkpt lat="48.6161" lon="-4.21456">
        <ele>67.1</ele>
        <time>2020-06-10T08:52:20Z</time>
      </trkpt>
      <trkpt lat="48.61613" lon="-4.2145">
        <ele>67.1</ele>
        <time>2020-06-10T08:52:21Z</time>
      </trkpt>
      <trkpt lat="48.61616" lon="-4.21443">
        <ele>67.1</ele>
        <time>2020-06-10T08:52:22Z</time>
      </trkpt>
      <trkpt lat="48.61618" lon="-4.21436">
        <ele>67.1</ele>
        <time>2020-06-10T08:52:23Z</time>
      </trkpt>
      <trkpt lat="48.61621" lon="-4.21429">
        <ele>67.1</ele>
        <time>2020-06-10T08:52:24Z</time>
      </trkpt>
      <trkpt lat="48.61624" lon="-4.21422">
        <ele>67.1</ele>
        <time>2020-06-10T08:52:25Z</time>
      </trkpt>
      <trkpt lat="48.61625" lon="-4.21414">
        <ele>67.1</ele>
        <time>2020-06-10T08:52:26Z</time>
      </trkpt>
      <trkpt lat="48.61627" lon="-4.21407">
        <ele>67</ele>
        <time>2020-06-10T08:52:27Z</time>
      </trkpt>
      <trkpt lat="48.6163" lon="-4.214">
        <ele>67</ele>
        <time>2020-06-10T08:52:28Z</time>
      </trkpt>
      <trkpt lat="48.61634" lon="-4.21394">
        <ele>67</ele>
        <time>2020-06-10T08:52:29Z</time>
      </trkpt>
      <trkpt lat="48.61637" lon="-4.21388">
        <ele>67</ele>
        <time>2020-06-10T08:52:30Z</time>
      </trkpt>
      <trkpt lat="48.6164" lon="-4.21381">
        <ele>66.9</ele>
        <time>2020-06-10T08:52:31Z</time>
      </trkpt>
      <trkpt lat="48.61642" lon="-4.21375">
        <ele>66.9</ele>
        <time>2020-06-10T08:52:32Z</time>
      </trkpt>
      <trkpt lat="48.61644" lon="-4.21368">
        <ele>66.9</ele>
        <time>2020-06-10T08:52:33Z</time>
      </trkpt>
      <trkpt lat="48.61646" lon="-4.21361">
        <ele>66.9</ele>
        <time>2020-06-10T08:52:34Z</time>
      </trkpt>
      <trkpt lat="48.61648" lon="-4.21353">
        <ele>66.9</ele>
        <time>2020-06-10T08:52:35Z</time>
      </trkpt>
      <trkpt lat="48.61651" lon="-4.21346">
        <ele>66.9</ele>
        <time>2020-06-10T08:52:36Z</time>
      </trkpt>
      <trkpt lat="48.61654" lon="-4.21339">
        <ele>66.9</ele>
        <time>2020-06-10T08:52:37Z</time>
      </trkpt>
      <trkpt lat="48.61655" lon="-4.21331">
        <ele>67</ele>
        <time>2020-06-10T08:52:38Z</time>
      </trkpt>
      <trkpt lat="48.61658" lon="-4.21324">
        <ele>67</ele>
        <time>2020-06-10T08:52:39Z</time>
      </trkpt>
      <trkpt lat="48.61659" lon="-4.21317">
        <ele>67.1</ele>
        <time>2020-06-10T08:52:40Z</time>
      </trkpt>
      <trkpt lat="48.61661" lon="-4.2131">
        <ele>67.2</ele>
        <time>2020-06-10T08:52:41Z</time>
      </trkpt>
      <trkpt lat="48.61663" lon="-4.21303">
        <ele>67.3</ele>
        <time>2020-06-10T08:52:42Z</time>
      </trkpt>
      <trkpt lat="48.61665" lon="-4.21296">
        <ele>67.3</ele>
        <time>2020-06-10T08:52:43Z</time>
      </trkpt>
      <trkpt lat="48.61667" lon="-4.21289">
        <ele>67.4</ele>
        <time>2020-06-10T08:52:44Z</time>
      </trkpt>
      <trkpt lat="48.6167" lon="-4.21283">
        <ele>67.4</ele>
        <time>2020-06-10T08:52:45Z</time>
      </trkpt>
      <trkpt lat="48.61672" lon="-4.21276">
        <ele>67.5</ele>
        <time>2020-06-10T08:52:46Z</time>
      </trkpt>
      <trkpt lat="48.61676" lon="-4.21271">
        <ele>67.5</ele>
        <time>2020-06-10T08:52:47Z</time>
      </trkpt>
      <trkpt lat="48.61679" lon="-4.21265">
        <ele>67.5</ele>
        <time>2020-06-10T08:52:48Z</time>
      </trkpt>
      <trkpt lat="48.61682" lon="-4.2126">
        <ele>67.5</ele>
        <time>2020-06-10T08:52:49Z</time>
      </trkpt>
      <trkpt lat="48.61685" lon="-4.21255">
        <ele>67.5</ele>
        <time>2020-06-10T08:52:50Z</time>
      </trkpt>
      <trkpt lat="48.61688" lon="-4.21249">
        <ele>67.5</ele>
        <time>2020-06-10T08:52:51Z</time>
      </trkpt>
      <trkpt lat="48.61691" lon="-4.21243">
        <ele>67.5</ele>
        <time>2020-06-10T08:52:52Z</time>
      </trkpt>
      <trkpt lat="48.61696" lon="-4.21241">
        <ele>67.4</ele>
        <time>2020-06-10T08:52:53Z</time>
      </trkpt>
      <trkpt lat="48.61699" lon="-4.21237">
        <ele>67.4</ele>
        <time>2020-06-10T08:52:54Z</time>
      </trkpt>
      <trkpt lat="48.61702" lon="-4.21232">
        <ele>67.4</ele>
        <time>2020-06-10T08:52:55Z</time>
      </trkpt>
      <trkpt lat="48.61705" lon="-4.21228">
        <ele>67.4</ele>
        <time>2020-06-10T08:52:56Z</time>
      </trkpt>
      <trkpt lat="48.61707" lon="-4.21223">
        <ele>67.4</ele>
        <time>2020-06-10T08:52:57Z</time>
      </trkpt>
      <trkpt lat="48.6171" lon="-4.21218">
        <ele>67.4</ele>
        <time>2020-06-10T08:52:58Z</time>
      </trkpt>
      <trkpt lat="48.61713" lon="-4.21214">
        <ele>67.4</ele>
        <time>2020-06-10T08:52:59Z</time>
      </trkpt>
      <trkpt lat="48.61715" lon="-4.21209">
        <ele>67.4</ele>
        <time>2020-06-10T08:53:00Z</time>
      </trkpt>
      <trkpt lat="48.61716" lon="-4.21203">
        <ele>67.4</ele>
        <time>2020-06-10T08:53:01Z</time>
      </trkpt>
      <trkpt lat="48.61718" lon="-4.21197">
        <ele>67.4</ele>
        <time>2020-06-10T08:53:02Z</time>
      </trkpt>
      <trkpt lat="48.61719" lon="-4.21191">
        <ele>67.5</ele>
        <time>2020-06-10T08:53:03Z</time>
      </trkpt>
      <trkpt lat="48.61721" lon="-4.21185">
        <ele>67.5</ele>
        <time>2020-06-10T08:53:04Z</time>
      </trkpt>
      <trkpt lat="48.61723" lon="-4.2118">
        <ele>67.4</ele>
        <time>2020-06-10T08:53:05Z</time>
      </trkpt>
      <trkpt lat="48.61724" lon="-4.21174">
        <ele>67.3</ele>
        <time>2020-06-10T08:53:06Z</time>
      </trkpt>
      <trkpt lat="48.61725" lon="-4.21168">
        <ele>67.2</ele>
        <time>2020-06-10T08:53:07Z</time>
      </trkpt>
      <trkpt lat="48.61726" lon="-4.21163">
        <ele>67.1</ele>
        <time>2020-06-10T08:53:08Z</time>
      </trkpt>
      <trkpt lat="48.61727" lon="-4.21157">
        <ele>67</ele>
        <time>2020-06-10T08:53:09Z</time>
      </trkpt>
      <trkpt lat="48.61727" lon="-4.21151">
        <ele>66.9</ele>
        <time>2020-06-10T08:53:10Z</time>
      </trkpt>
      <trkpt lat="48.61729" lon="-4.21145">
        <ele>66.8</ele>
        <time>2020-06-10T08:53:11Z</time>
      </trkpt>
      <trkpt lat="48.61729" lon="-4.21138">
        <ele>66.7</ele>
        <time>2020-06-10T08:53:12Z</time>
      </trkpt>
      <trkpt lat="48.6173" lon="-4.21131">
        <ele>66.5</ele>
        <time>2020-06-10T08:53:13Z</time>
      </trkpt>
      <trkpt lat="48.61731" lon="-4.21124">
        <ele>66.4</ele>
        <time>2020-06-10T08:53:14Z</time>
      </trkpt>
      <trkpt lat="48.61732" lon="-4.21118">
        <ele>66.3</ele>
        <time>2020-06-10T08:53:15Z</time>
      </trkpt>
      <trkpt lat="48.61734" lon="-4.21113">
        <ele>66.2</ele>
        <time>2020-06-10T08:53:16Z</time>
      </trkpt>
      <trkpt lat="48.61735" lon="-4.21108">
        <ele>66.1</ele>
        <time>2020-06-10T08:53:17Z</time>
      </trkpt>
      <trkpt lat="48.61737" lon="-4.21103">
        <ele>66</ele>
        <time>2020-06-10T08:53:18Z</time>
      </trkpt>
      <trkpt lat="48.61738" lon="-4.21099">
        <ele>65.9</ele>
        <time>2020-06-10T08:53:19Z</time>
      </trkpt>
      <trkpt lat="48.61741" lon="-4.21096">
        <ele>65.7</ele>
        <time>2020-06-10T08:53:20Z</time>
      </trkpt>
      <trkpt lat="48.61742" lon="-4.21095">
        <ele>65.7</ele>
        <time>2020-06-10T08:53:21Z</time>
      </trkpt>
      <trkpt lat="48.61745" lon="-4.21095">
        <ele>65.6</ele>
        <time>2020-06-10T08:53:22Z</time>
      </trkpt>
      <trkpt lat="48.61748" lon="-4.21091">
        <ele>65.4</ele>
        <time>2020-06-10T08:53:23Z</time>
      </trkpt>
      <trkpt lat="48.61749" lon="-4.2109">
        <ele>65.4</ele>
        <time>2020-06-10T08:53:24Z</time>
      </trkpt>
      <trkpt lat="48.61751" lon="-4.21088">
        <ele>65.3</ele>
        <time>2020-06-10T08:53:25Z</time>
      </trkpt>
      <trkpt lat="48.61752" lon="-4.21088">
        <ele>65.2</ele>
        <time>2020-06-10T08:53:26Z</time>
      </trkpt>
      <trkpt lat="48.61753" lon="-4.21089">
        <ele>65.2</ele>
        <time>2020-06-10T08:53:27Z</time>
      </trkpt>
      <trkpt lat="48.61754" lon="-4.2109">
        <ele>65.2</ele>
        <time>2020-06-10T08:53:28Z</time>
      </trkpt>
      <trkpt lat="48.61754" lon="-4.21091">
        <ele>65.1</ele>
        <time>2020-06-10T08:53:29Z</time>
      </trkpt>
      <trkpt lat="48.61754" lon="-4.21092">
        <ele>65.1</ele>
        <time>2020-06-10T08:53:30Z</time>
      </trkpt>
      <trkpt lat="48.61754" lon="-4.21093">
        <ele>65.1</ele>
        <time>2020-06-10T08:53:31Z</time>
      </trkpt>
      <trkpt lat="48.61754" lon="-4.21095">
        <ele>65</ele>
        <time>2020-06-10T08:53:32Z</time>
      </trkpt>
      <trkpt lat="48.61755" lon="-4.21095">
        <ele>65</ele>
        <time>2020-06-10T08:53:33Z</time>
      </trkpt>
      <trkpt lat="48.61756" lon="-4.21097">
        <ele>65</ele>
        <time>2020-06-10T08:53:34Z</time>
      </trkpt>
      <trkpt lat="48.61756" lon="-4.21097">
        <ele>64.9</ele>
        <time>2020-06-10T08:53:35Z</time>
      </trkpt>
      <trkpt lat="48.61756" lon="-4.21097">
        <ele>64.9</ele>
        <time>2020-06-10T08:53:36Z</time>
      </trkpt>
      <trkpt lat="48.61757" lon="-4.21099">
        <ele>64.9</ele>
        <time>2020-06-10T08:53:37Z</time>
      </trkpt>
      <trkpt lat="48.61757" lon="-4.21099">
        <ele>64.9</ele>
        <time>2020-06-10T08:53:38Z</time>
      </trkpt>
      <trkpt lat="48.61758" lon="-4.21099">
        <ele>64.9</ele>
        <time>2020-06-10T08:53:39Z</time>
      </trkpt>
      <trkpt lat="48.61758" lon="-4.21099">
        <ele>64.9</ele>
        <time>2020-06-10T08:53:40Z</time>
      </trkpt>
      <trkpt lat="48.61758" lon="-4.21099">
        <ele>64.9</ele>
        <time>2020-06-10T08:53:41Z</time>
      </trkpt>
      <trkpt lat="48.61758" lon="-4.21099">
        <ele>64.9</ele>
        <time>2020-06-10T08:53:42Z</time>
      </trkpt>
      <trkpt lat="48.61758" lon="-4.21099">
        <ele>64.9</ele>
        <time>2020-06-10T08:53:43Z</time>
      </trkpt>
      <trkpt lat="48.61758" lon="-4.21099">
        <ele>64.9</ele>
        <time>2020-06-10T08:53:44Z</time>
      </trkpt>
      <trkpt lat="48.61758" lon="-4.21099">
        <ele>64.9</ele>
        <time>2020-06-10T08:53:45Z</time>
      </trkpt>
      <trkpt lat="48.61758" lon="-4.21099">
        <ele>64.9</ele>
        <time>2020-06-10T08:53:46Z</time>
      </trkpt>
      <trkpt lat="48.61758" lon="-4.21099">
        <ele>64.9</ele>
        <time>2020-06-10T08:53:47Z</time>
      </trkpt>
      <trkpt lat="48.61758" lon="-4.21099">
        <ele>64.9</ele>
        <time>2020-06-10T08:53:48Z</time>
      </trkpt>
      <trkpt lat="48.61758" lon="-4.21099">
        <ele>64.9</ele>
        <time>2020-06-10T08:53:49Z</time>
      </trkpt>
      <trkpt lat="48.61758" lon="-4.21099">
        <ele>64.9</ele>
        <time>2020-06-10T08:53:50Z</time>
      </trkpt>
      <trkpt lat="48.61758" lon="-4.21099">
        <ele>64.9</ele>
        <time>2020-06-10T08:53:51Z</time>
      </trkpt>
      <trkpt lat="48.61758" lon="-4.21099">
        <ele>64.9</ele>
        <time>2020-06-10T08:53:52Z</time>
      </trkpt>
      <trkpt lat="48.61755" lon="-4.21082">
        <ele>64.4</ele>
        <time>2020-06-10T09:02:09Z</time>
      </trkpt>
      <trkpt lat="48.61755" lon="-4.21079">
        <ele>64.4</ele>
        <time>2020-06-10T09:02:10Z</time>
      </trkpt>
      <trkpt lat="48.61754" lon="-4.21076">
        <ele>64.3</ele>
        <time>2020-06-10T09:02:11Z</time>
      </trkpt>
      <trkpt lat="48.61753" lon="-4.21074">
        <ele>64.2</ele>
        <time>2020-06-10T09:02:12Z</time>
      </trkpt>
      <trkpt lat="48.61752" lon="-4.21069">
        <ele>64.1</ele>
        <time>2020-06-10T09:02:13Z</time>
      </trkpt>
      <trkpt lat="48.61752" lon="-4.21068">
        <ele>64</ele>
        <time>2020-06-10T09:02:14Z</time>
      </trkpt>
      <trkpt lat="48.61751" lon="-4.21062">
        <ele>63.9</ele>
        <time>2020-06-10T09:02:15Z</time>
      </trkpt>
      <trkpt lat="48.61751" lon="-4.21061">
        <ele>63.9</ele>
        <time>2020-06-10T09:02:16Z</time>
      </trkpt>
      <trkpt lat="48.61751" lon="-4.21056">
        <ele>63.8</ele>
        <time>2020-06-10T09:02:17Z</time>
      </trkpt>
      <trkpt lat="48.61752" lon="-4.21051">
        <ele>63.6</ele>
        <time>2020-06-10T09:02:18Z</time>
      </trkpt>
      <trkpt lat="48.61753" lon="-4.21046">
        <ele>63.5</ele>
        <time>2020-06-10T09:02:19Z</time>
      </trkpt>
      <trkpt lat="48.61755" lon="-4.21041">
        <ele>63.4</ele>
        <time>2020-06-10T09:02:20Z</time>
      </trkpt>
      <trkpt lat="48.61756" lon="-4.21036">
        <ele>63.3</ele>
        <time>2020-06-10T09:02:21Z</time>
      </trkpt>
      <trkpt lat="48.61757" lon="-4.2103">
        <ele>63.1</ele>
        <time>2020-06-10T09:02:22Z</time>
      </trkpt>
      <trkpt lat="48.61758" lon="-4.21024">
        <ele>63</ele>
        <time>2020-06-10T09:02:23Z</time>
      </trkpt>
      <trkpt lat="48.6176" lon="-4.21018">
        <ele>62.9</ele>
        <time>2020-06-10T09:02:24Z</time>
      </trkpt>
      <trkpt lat="48.61761" lon="-4.21012">
        <ele>62.7</ele>
        <time>2020-06-10T09:02:25Z</time>
      </trkpt>
      <trkpt lat="48.61763" lon="-4.21005">
        <ele>62.6</ele>
        <time>2020-06-10T09:02:26Z</time>
      </trkpt>
      <trkpt lat="48.61764" lon="-4.20998">
        <ele>62.5</ele>
        <time>2020-06-10T09:02:27Z</time>
      </trkpt>
      <trkpt lat="48.61767" lon="-4.2099">
        <ele>62.3</ele>
        <time>2020-06-10T09:02:28Z</time>
      </trkpt>
      <trkpt lat="48.61767" lon="-4.20983">
        <ele>62.2</ele>
        <time>2020-06-10T09:02:29Z</time>
      </trkpt>
      <trkpt lat="48.61769" lon="-4.20976">
        <ele>62.1</ele>
        <time>2020-06-10T09:02:30Z</time>
      </trkpt>
      <trkpt lat="48.6177" lon="-4.20969">
        <ele>61.9</ele>
        <time>2020-06-10T09:02:31Z</time>
      </trkpt>
      <trkpt lat="48.61772" lon="-4.20961">
        <ele>61.8</ele>
        <time>2020-06-10T09:02:32Z</time>
      </trkpt>
      <trkpt lat="48.61773" lon="-4.20954">
        <ele>61.7</ele>
        <time>2020-06-10T09:02:33Z</time>
      </trkpt>
      <trkpt lat="48.61775" lon="-4.20945">
        <ele>61.6</ele>
        <time>2020-06-10T09:02:34Z</time>
      </trkpt>
      <trkpt lat="48.61777" lon="-4.20938">
        <ele>61.5</ele>
        <time>2020-06-10T09:02:35Z</time>
      </trkpt>
      <trkpt lat="48.61779" lon="-4.20931">
        <ele>61.5</ele>
        <time>2020-06-10T09:02:36Z</time>
      </trkpt>
      <trkpt lat="48.61781" lon="-4.20924">
        <ele>61.5</ele>
        <time>2020-06-10T09:02:37Z</time>
      </trkpt>
      <trkpt lat="48.61783" lon="-4.20919">
        <ele>61.5</ele>
        <time>2020-06-10T09:02:38Z</time>
      </trkpt>
      <trkpt lat="48.61784" lon="-4.20913">
        <ele>61.5</ele>
        <time>2020-06-10T09:02:39Z</time>
      </trkpt>
      <trkpt lat="48.61785" lon="-4.20907">
        <ele>61.6</ele>
        <time>2020-06-10T09:02:40Z</time>
      </trkpt>
      <trkpt lat="48.61786" lon="-4.20901">
        <ele>61.6</ele>
        <time>2020-06-10T09:02:41Z</time>
      </trkpt>
      <trkpt lat="48.61786" lon="-4.20897">
        <ele>61.7</ele>
        <time>2020-06-10T09:02:42Z</time>
      </trkpt>
      <trkpt lat="48.61786" lon="-4.20895">
        <ele>61.7</ele>
        <time>2020-06-10T09:02:43Z</time>
      </trkpt>
      <trkpt lat="48.61786" lon="-4.20894">
        <ele>61.7</ele>
        <time>2020-06-10T09:02:44Z</time>
      </trkpt>
      <trkpt lat="48.61787" lon="-4.20893">
        <ele>61.7</ele>
        <time>2020-06-10T09:02:45Z</time>
      </trkpt>
      <trkpt lat="48.61787" lon="-4.20892">
        <ele>61.7</ele>
        <time>2020-06-10T09:02:46Z</time>
      </trkpt>
      <trkpt lat="48.61787" lon="-4.20891">
        <ele>61.7</ele>
        <time>2020-06-10T09:02:47Z</time>
      </trkpt>
      <trkpt lat="48.61788" lon="-4.2089">
        <ele>61.7</ele>
        <time>2020-06-10T09:02:48Z</time>
      </trkpt>
      <trkpt lat="48.61788" lon="-4.20889">
        <ele>61.8</ele>
        <time>2020-06-10T09:02:49Z</time>
      </trkpt>
      <trkpt lat="48.61789" lon="-4.20888">
        <ele>61.8</ele>
        <time>2020-06-10T09:02:50Z</time>
      </trkpt>
      <trkpt lat="48.61789" lon="-4.20888">
        <ele>61.8</ele>
        <time>2020-06-10T09:02:51Z</time>
      </trkpt>
      <trkpt lat="48.6179" lon="-4.20887">
        <ele>61.8</ele>
        <time>2020-06-10T09:02:52Z</time>
      </trkpt>
      <trkpt lat="48.6179" lon="-4.20886">
        <ele>61.8</ele>
        <time>2020-06-10T09:02:53Z</time>
      </trkpt>
      <trkpt lat="48.61791" lon="-4.20885">
        <ele>61.8</ele>
        <time>2020-06-10T09:02:54Z</time>
      </trkpt>
      <trkpt lat="48.61791" lon="-4.20884">
        <ele>61.8</ele>
        <time>2020-06-10T09:03:57Z</time>
      </trkpt>
      <trkpt lat="48.61792" lon="-4.20883">
        <ele>61.9</ele>
        <time>2020-06-10T09:03:58Z</time>
      </trkpt>
      <trkpt lat="48.61792" lon="-4.20879">
        <ele>61.9</ele>
        <time>2020-06-10T09:03:59Z</time>
      </trkpt>
      <trkpt lat="48.61793" lon="-4.20873">
        <ele>62</ele>
        <time>2020-06-10T09:04:00Z</time>
      </trkpt>
      <trkpt lat="48.61795" lon="-4.20869">
        <ele>62</ele>
        <time>2020-06-10T09:04:01Z</time>
      </trkpt>
      <trkpt lat="48.61797" lon="-4.20863">
        <ele>62.1</ele>
        <time>2020-06-10T09:04:02Z</time>
      </trkpt>
      <trkpt lat="48.61798" lon="-4.20858">
        <ele>62.2</ele>
        <time>2020-06-10T09:04:03Z</time>
      </trkpt>
      <trkpt lat="48.61798" lon="-4.20852">
        <ele>62.2</ele>
        <time>2020-06-10T09:04:04Z</time>
      </trkpt>
      <trkpt lat="48.61799" lon="-4.20847">
        <ele>62.3</ele>
        <time>2020-06-10T09:04:05Z</time>
      </trkpt>
      <trkpt lat="48.618" lon="-4.20842">
        <ele>62.4</ele>
        <time>2020-06-10T09:04:06Z</time>
      </trkpt>
      <trkpt lat="48.618" lon="-4.20836">
        <ele>62.4</ele>
        <time>2020-06-10T09:04:07Z</time>
      </trkpt>
      <trkpt lat="48.618" lon="-4.20831">
        <ele>62.5</ele>
        <time>2020-06-10T09:04:08Z</time>
      </trkpt>
      <trkpt lat="48.618" lon="-4.20825">
        <ele>62.6</ele>
        <time>2020-06-10T09:04:09Z</time>
      </trkpt>
      <trkpt lat="48.61801" lon="-4.20819">
        <ele>62.7</ele>
        <time>2020-06-10T09:04:10Z</time>
      </trkpt>
      <trkpt lat="48.61802" lon="-4.20812">
        <ele>62.7</ele>
        <time>2020-06-10T09:04:11Z</time>
      </trkpt>
      <trkpt lat="48.61801" lon="-4.20805">
        <ele>62.8</ele>
        <time>2020-06-10T09:04:12Z</time>
      </trkpt>
      <trkpt lat="48.61802" lon="-4.20799">
        <ele>62.9</ele>
        <time>2020-06-10T09:04:13Z</time>
      </trkpt>
      <trkpt lat="48.61803" lon="-4.20791">
        <ele>63</ele>
        <time>2020-06-10T09:04:14Z</time>
      </trkpt>
      <trkpt lat="48.61802" lon="-4.20782">
        <ele>63.1</ele>
        <time>2020-06-10T09:04:15Z</time>
      </trkpt>
      <trkpt lat="48.61802" lon="-4.20775">
        <ele>63.2</ele>
        <time>2020-06-10T09:04:16Z</time>
      </trkpt>
      <trkpt lat="48.61803" lon="-4.2077">
        <ele>63.2</ele>
        <time>2020-06-10T09:04:17Z</time>
      </trkpt>
      <trkpt lat="48.61804" lon="-4.20764">
        <ele>63.3</ele>
        <time>2020-06-10T09:04:18Z</time>
      </trkpt>
      <trkpt lat="48.61805" lon="-4.2076">
        <ele>63.3</ele>
        <time>2020-06-10T09:04:19Z</time>
      </trkpt>
      <trkpt lat="48.61806" lon="-4.20755">
        <ele>63.3</ele>
        <time>2020-06-10T09:04:20Z</time>
      </trkpt>
      <trkpt lat="48.61806" lon="-4.20751">
        <ele>63.3</ele>
        <time>2020-06-10T09:04:21Z</time>
      </trkpt>
      <trkpt lat="48.61807" lon="-4.20747">
        <ele>63.3</ele>
        <time>2020-06-10T09:04:22Z</time>
      </trkpt>
      <trkpt lat="48.61808" lon="-4.20742">
        <ele>63.3</ele>
        <time>2020-06-10T09:04:23Z</time>
      </trkpt>
      <trkpt lat="48.6181" lon="-4.20737">
        <ele>63.3</ele>
        <time>2020-06-10T09:04:24Z</time>
      </trkpt>
      <trkpt lat="48.6181" lon="-4.20735">
        <ele>63.3</ele>
        <time>2020-06-10T09:04:25Z</time>
      </trkpt>
      <trkpt lat="48.61811" lon="-4.20729">
        <ele>63.2</ele>
        <time>2020-06-10T09:04:26Z</time>
      </trkpt>
      <trkpt lat="48.61812" lon="-4.20727">
        <ele>63.2</ele>
        <time>2020-06-10T09:04:27Z</time>
      </trkpt>
      <trkpt lat="48.61813" lon="-4.20723">
        <ele>63.2</ele>
        <time>2020-06-10T09:04:28Z</time>
      </trkpt>
      <trkpt lat="48.61813" lon="-4.2072">
        <ele>63.1</ele>
        <time>2020-06-10T09:04:29Z</time>
      </trkpt>
      <trkpt lat="48.61812" lon="-4.20719">
        <ele>63.1</ele>
        <time>2020-06-10T09:04:30Z</time>
      </trkpt>
      <trkpt lat="48.61812" lon="-4.20717">
        <ele>63.1</ele>
        <time>2020-06-10T09:04:31Z</time>
      </trkpt>
      <trkpt lat="48.61812" lon="-4.20716">
        <ele>63.1</ele>
        <time>2020-06-10T09:04:32Z</time>
      </trkpt>
      <trkpt lat="48.61812" lon="-4.20714">
        <ele>63.1</ele>
        <time>2020-06-10T09:04:33Z</time>
      </trkpt>
      <trkpt lat="48.6181" lon="-4.20713">
        <ele>63.1</ele>
        <time>2020-06-10T09:04:34Z</time>
      </trkpt>
      <trkpt lat="48.61808" lon="-4.20713">
        <ele>63</ele>
        <time>2020-06-10T09:04:35Z</time>
      </trkpt>
      <trkpt lat="48.61807" lon="-4.20713">
        <ele>63</ele>
        <time>2020-06-10T09:04:36Z</time>
      </trkpt>
      <trkpt lat="48.61806" lon="-4.20714">
        <ele>63</ele>
        <time>2020-06-10T09:04:37Z</time>
      </trkpt>
      <trkpt lat="48.61806" lon="-4.20714">
        <ele>63</ele>
        <time>2020-06-10T09:04:38Z</time>
      </trkpt>
      <trkpt lat="48.61806" lon="-4.20714">
        <ele>63</ele>
        <time>2020-06-10T09:04:39Z</time>
      </trkpt>
      <trkpt lat="48.61806" lon="-4.20713">
        <ele>63</ele>
        <time>2020-06-10T09:04:40Z</time>
      </trkpt>
      <trkpt lat="48.61806" lon="-4.20713">
        <ele>63</ele>
        <time>2020-06-10T09:04:41Z</time>
      </trkpt>
      <trkpt lat="48.61806" lon="-4.20712">
        <ele>63</ele>
        <time>2020-06-10T09:04:42Z</time>
      </trkpt>
      <trkpt lat="48.61806" lon="-4.20711">
        <ele>63</ele>
        <time>2020-06-10T09:04:43Z</time>
      </trkpt>
      <trkpt lat="48.61806" lon="-4.20711">
        <ele>63</ele>
        <time>2020-06-10T09:04:44Z</time>
      </trkpt>
      <trkpt lat="48.61807" lon="-4.2071">
        <ele>62.9</ele>
        <time>2020-06-10T09:04:45Z</time>
      </trkpt>
      <trkpt lat="48.61807" lon="-4.2071">
        <ele>62.9</ele>
        <time>2020-06-10T09:04:46Z</time>
      </trkpt>
      <trkpt lat="48.61807" lon="-4.20709">
        <ele>62.9</ele>
        <time>2020-06-10T09:04:47Z</time>
      </trkpt>
      <trkpt lat="48.61807" lon="-4.20709">
        <ele>62.9</ele>
        <time>2020-06-10T09:04:48Z</time>
      </trkpt>
      <trkpt lat="48.61807" lon="-4.20708">
        <ele>62.9</ele>
        <time>2020-06-10T09:04:49Z</time>
      </trkpt>
      <trkpt lat="48.61807" lon="-4.20708">
        <ele>62.9</ele>
        <time>2020-06-10T09:04:50Z</time>
      </trkpt>
      <trkpt lat="48.61807" lon="-4.20707">
        <ele>62.9</ele>
        <time>2020-06-10T09:04:51Z</time>
      </trkpt>
      <trkpt lat="48.61807" lon="-4.20707">
        <ele>62.9</ele>
        <time>2020-06-10T09:04:52Z</time>
      </trkpt>
      <trkpt lat="48.61808" lon="-4.20706">
        <ele>62.9</ele>
        <time>2020-06-10T09:04:53Z</time>
      </trkpt>
      <trkpt lat="48.61808" lon="-4.20705">
        <ele>62.9</ele>
        <time>2020-06-10T09:04:54Z</time>
      </trkpt>
      <trkpt lat="48.61808" lon="-4.20705">
        <ele>62.9</ele>
        <time>2020-06-10T09:04:55Z</time>
      </trkpt>
      <trkpt lat="48.61808" lon="-4.20704">
        <ele>62.9</ele>
        <time>2020-06-10T09:04:56Z</time>
      </trkpt>
      <trkpt lat="48.61808" lon="-4.20704">
        <ele>62.8</ele>
        <time>2020-06-10T09:15:22Z</time>
      </trkpt>
      <trkpt lat="48.61808" lon="-4.20703">
        <ele>62.8</ele>
        <time>2020-06-10T09:15:23Z</time>
      </trkpt>
      <trkpt lat="48.61808" lon="-4.20698">
        <ele>62.8</ele>
        <time>2020-06-10T09:15:24Z</time>
      </trkpt>
      <trkpt lat="48.61809" lon="-4.20694">
        <ele>62.7</ele>
        <time>2020-06-10T09:15:25Z</time>
      </trkpt>
      <trkpt lat="48.61809" lon="-4.20689">
        <ele>62.6</ele>
        <time>2020-06-10T09:15:26Z</time>
      </trkpt>
      <trkpt lat="48.61811" lon="-4.20684">
        <ele>62.5</ele>
        <time>2020-06-10T09:15:27Z</time>
      </trkpt>
      <trkpt lat="48.61813" lon="-4.20679">
        <ele>62.4</ele>
        <time>2020-06-10T09:15:28Z</time>
      </trkpt>
      <trkpt lat="48.61814" lon="-4.20673">
        <ele>62.2</ele>
        <time>2020-06-10T09:15:29Z</time>
      </trkpt>
      <trkpt lat="48.61816" lon="-4.20665">
        <ele>62.1</ele>
        <time>2020-06-10T09:15:30Z</time>
      </trkpt>
      <trkpt lat="48.61819" lon="-4.20657">
        <ele>61.9</ele>
        <time>2020-06-10T09:15:31Z</time>
      </trkpt>
      <trkpt lat="48.6182" lon="-4.20651">
        <ele>61.7</ele>
        <time>2020-06-10T09:15:32Z</time>
      </trkpt>
      <trkpt lat="48.61822" lon="-4.20644">
        <ele>61.6</ele>
        <time>2020-06-10T09:15:33Z</time>
      </trkpt>
      <trkpt lat="48.61823" lon="-4.20637">
        <ele>61.2</ele>
        <time>2020-06-10T09:15:34Z</time>
      </trkpt>
      <trkpt lat="48.61822" lon="-4.20629">
        <ele>60.9</ele>
        <time>2020-06-10T09:15:35Z</time>
      </trkpt>
      <trkpt lat="48.61822" lon="-4.20621">
        <ele>60.5</ele>
        <time>2020-06-10T09:15:36Z</time>
      </trkpt>
      <trkpt lat="48.61823" lon="-4.20611">
        <ele>60.3</ele>
        <time>2020-06-10T09:15:37Z</time>
      </trkpt>
      <trkpt lat="48.61824" lon="-4.20602">
        <ele>60.1</ele>
        <time>2020-06-10T09:15:38Z</time>
      </trkpt>
      <trkpt lat="48.61824" lon="-4.20593">
        <ele>59.9</ele>
        <time>2020-06-10T09:15:39Z</time>
      </trkpt>
      <trkpt lat="48.61823" lon="-4.20583">
        <ele>59.7</ele>
        <time>2020-06-10T09:15:40Z</time>
      </trkpt>
      <trkpt lat="48.61822" lon="-4.20574">
        <ele>59.5</ele>
        <time>2020-06-10T09:15:41Z</time>
      </trkpt>
      <trkpt lat="48.61819" lon="-4.20565">
        <ele>59.3</ele>
        <time>2020-06-10T09:15:42Z</time>
      </trkpt>
      <trkpt lat="48.61818" lon="-4.20555">
        <ele>59.2</ele>
        <time>2020-06-10T09:15:43Z</time>
      </trkpt>
      <trkpt lat="48.61815" lon="-4.20546">
        <ele>59</ele>
        <time>2020-06-10T09:15:44Z</time>
      </trkpt>
      <trkpt lat="48.61812" lon="-4.20536">
        <ele>58.9</ele>
        <time>2020-06-10T09:15:45Z</time>
      </trkpt>
      <trkpt lat="48.6181" lon="-4.20528">
        <ele>58.9</ele>
        <time>2020-06-10T09:15:46Z</time>
      </trkpt>
      <trkpt lat="48.61806" lon="-4.2052">
        <ele>59</ele>
        <time>2020-06-10T09:15:47Z</time>
      </trkpt>
      <trkpt lat="48.61803" lon="-4.20512">
        <ele>58.9</ele>
        <time>2020-06-10T09:15:48Z</time>
      </trkpt>
      <trkpt lat="48.61799" lon="-4.20505">
        <ele>58.8</ele>
        <time>2020-06-10T09:15:49Z</time>
      </trkpt>
      <trkpt lat="48.61796" lon="-4.20497">
        <ele>58.7</ele>
        <time>2020-06-10T09:15:50Z</time>
      </trkpt>
      <trkpt lat="48.61793" lon="-4.20489">
        <ele>58.7</ele>
        <time>2020-06-10T09:15:51Z</time>
      </trkpt>
      <trkpt lat="48.61789" lon="-4.20481">
        <ele>58.7</ele>
        <time>2020-06-10T09:15:52Z</time>
      </trkpt>
      <trkpt lat="48.61786" lon="-4.20474">
        <ele>58.7</ele>
        <time>2020-06-10T09:15:53Z</time>
      </trkpt>
      <trkpt lat="48.61781" lon="-4.20468">
        <ele>58.7</ele>
        <time>2020-06-10T09:15:54Z</time>
      </trkpt>
      <trkpt lat="48.61778" lon="-4.20462">
        <ele>58.8</ele>
        <time>2020-06-10T09:15:55Z</time>
      </trkpt>
      <trkpt lat="48.61775" lon="-4.20454">
        <ele>58.9</ele>
        <time>2020-06-10T09:15:56Z</time>
      </trkpt>
      <trkpt lat="48.61772" lon="-4.20447">
        <ele>59.1</ele>
        <time>2020-06-10T09:15:57Z</time>
      </trkpt>
      <trkpt lat="48.6177" lon="-4.2044">
        <ele>59.2</ele>
        <time>2020-06-10T09:15:58Z</time>
      </trkpt>
      <trkpt lat="48.61768" lon="-4.20433">
        <ele>59.4</ele>
        <time>2020-06-10T09:15:59Z</time>
      </trkpt>
      <trkpt lat="48.61766" lon="-4.20428">
        <ele>59.6</ele>
        <time>2020-06-10T09:16:00Z</time>
      </trkpt>
      <trkpt lat="48.61765" lon="-4.20422">
        <ele>59.8</ele>
        <time>2020-06-10T09:16:01Z</time>
      </trkpt>
      <trkpt lat="48.61764" lon="-4.20417">
        <ele>59.9</ele>
        <time>2020-06-10T09:16:02Z</time>
      </trkpt>
      <trkpt lat="48.61762" lon="-4.20412">
        <ele>60.1</ele>
        <time>2020-06-10T09:16:03Z</time>
      </trkpt>
      <trkpt lat="48.61761" lon="-4.20407">
        <ele>60.3</ele>
        <time>2020-06-10T09:16:04Z</time>
      </trkpt>
      <trkpt lat="48.6176" lon="-4.20402">
        <ele>60.4</ele>
        <time>2020-06-10T09:16:05Z</time>
      </trkpt>
      <trkpt lat="48.61759" lon="-4.20396">
        <ele>60.6</ele>
        <time>2020-06-10T09:16:06Z</time>
      </trkpt>
      <trkpt lat="48.61758" lon="-4.20391">
        <ele>60.7</ele>
        <time>2020-06-10T09:16:07Z</time>
      </trkpt>
      <trkpt lat="48.61756" lon="-4.20386">
        <ele>60.9</ele>
        <time>2020-06-10T09:16:08Z</time>
      </trkpt>
      <trkpt lat="48.61756" lon="-4.20381">
        <ele>61.2</ele>
        <time>2020-06-10T09:16:09Z</time>
      </trkpt>
      <trkpt lat="48.61756" lon="-4.20376">
        <ele>61.4</ele>
        <time>2020-06-10T09:16:10Z</time>
      </trkpt>
      <trkpt lat="48.61755" lon="-4.2037">
        <ele>61.5</ele>
        <time>2020-06-10T09:16:11Z</time>
      </trkpt>
      <trkpt lat="48.61756" lon="-4.20365">
        <ele>61.7</ele>
        <time>2020-06-10T09:16:12Z</time>
      </trkpt>
      <trkpt lat="48.61757" lon="-4.2036">
        <ele>61.8</ele>
        <time>2020-06-10T09:16:13Z</time>
      </trkpt>
      <trkpt lat="48.61759" lon="-4.20355">
        <ele>62</ele>
        <time>2020-06-10T09:16:14Z</time>
      </trkpt>
      <trkpt lat="48.6176" lon="-4.2035">
        <ele>62.1</ele>
        <time>2020-06-10T09:16:15Z</time>
      </trkpt>
      <trkpt lat="48.61762" lon="-4.20344">
        <ele>62.3</ele>
        <time>2020-06-10T09:16:16Z</time>
      </trkpt>
      <trkpt lat="48.61763" lon="-4.20338">
        <ele>62.4</ele>
        <time>2020-06-10T09:16:17Z</time>
      </trkpt>
      <trkpt lat="48.61765" lon="-4.20333">
        <ele>62.5</ele>
        <time>2020-06-10T09:16:18Z</time>
      </trkpt>
      <trkpt lat="48.61766" lon="-4.20328">
        <ele>62.6</ele>
        <time>2020-06-10T09:16:19Z</time>
      </trkpt>
      <trkpt lat="48.61768" lon="-4.20324">
        <ele>62.8</ele>
        <time>2020-06-10T09:16:20Z</time>
      </trkpt>
      <trkpt lat="48.6177" lon="-4.20319">
        <ele>62.9</ele>
        <time>2020-06-10T09:16:21Z</time>
      </trkpt>
      <trkpt lat="48.61771" lon="-4.20314">
        <ele>63</ele>
        <time>2020-06-10T09:16:22Z</time>
      </trkpt>
      <trkpt lat="48.61772" lon="-4.20312">
        <ele>63.1</ele>
        <time>2020-06-10T09:16:23Z</time>
      </trkpt>
      <trkpt lat="48.61773" lon="-4.20308">
        <ele>63.2</ele>
        <time>2020-06-10T09:16:24Z</time>
      </trkpt>
      <trkpt lat="48.61774" lon="-4.20306">
        <ele>63.2</ele>
        <time>2020-06-10T09:16:25Z</time>
      </trkpt>
      <trkpt lat="48.61774" lon="-4.20305">
        <ele>63.2</ele>
        <time>2020-06-10T09:16:26Z</time>
      </trkpt>
      <trkpt lat="48.61776" lon="-4.20302">
        <ele>63.3</ele>
        <time>2020-06-10T09:16:27Z</time>
      </trkpt>
      <trkpt lat="48.61778" lon="-4.20297">
        <ele>63.4</ele>
        <time>2020-06-10T09:16:28Z</time>
      </trkpt>
      <trkpt lat="48.61779" lon="-4.20295">
        <ele>63.5</ele>
        <time>2020-06-10T09:16:29Z</time>
      </trkpt>
      <trkpt lat="48.61781" lon="-4.2029">
        <ele>63.6</ele>
        <time>2020-06-10T09:16:30Z</time>
      </trkpt>
      <trkpt lat="48.61782" lon="-4.20285">
        <ele>63.6</ele>
        <time>2020-06-10T09:16:31Z</time>
      </trkpt>
      <trkpt lat="48.61783" lon="-4.20283">
        <ele>63.7</ele>
        <time>2020-06-10T09:16:32Z</time>
      </trkpt>
      <trkpt lat="48.61783" lon="-4.20278">
        <ele>63.8</ele>
        <time>2020-06-10T09:16:33Z</time>
      </trkpt>
      <trkpt lat="48.61783" lon="-4.20277">
        <ele>63.8</ele>
        <time>2020-06-10T09:16:34Z</time>
      </trkpt>
      <trkpt lat="48.61784" lon="-4.20272">
        <ele>63.9</ele>
        <time>2020-06-10T09:16:35Z</time>
      </trkpt>
      <trkpt lat="48.61786" lon="-4.20268">
        <ele>64</ele>
        <time>2020-06-10T09:16:36Z</time>
      </trkpt>
      <trkpt lat="48.61788" lon="-4.20264">
        <ele>64.1</ele>
        <time>2020-06-10T09:16:37Z</time>
      </trkpt>
      <trkpt lat="48.61788" lon="-4.20262">
        <ele>64.2</ele>
        <time>2020-06-10T09:16:38Z</time>
      </trkpt>
      <trkpt lat="48.61788" lon="-4.20258">
        <ele>64.3</ele>
        <time>2020-06-10T09:16:39Z</time>
      </trkpt>
      <trkpt lat="48.61789" lon="-4.20254">
        <ele>64.4</ele>
        <time>2020-06-10T09:16:40Z</time>
      </trkpt>
      <trkpt lat="48.61791" lon="-4.20248">
        <ele>64.5</ele>
        <time>2020-06-10T09:16:41Z</time>
      </trkpt>
      <trkpt lat="48.61792" lon="-4.20246">
        <ele>64.6</ele>
        <time>2020-06-10T09:16:42Z</time>
      </trkpt>
      <trkpt lat="48.61793" lon="-4.20241">
        <ele>64.7</ele>
        <time>2020-06-10T09:16:43Z</time>
      </trkpt>
      <trkpt lat="48.61794" lon="-4.20239">
        <ele>64.8</ele>
        <time>2020-06-10T09:16:44Z</time>
      </trkpt>
      <trkpt lat="48.61795" lon="-4.20235">
        <ele>64.9</ele>
        <time>2020-06-10T09:16:45Z</time>
      </trkpt>
      <trkpt lat="48.61795" lon="-4.20231">
        <ele>64.9</ele>
        <time>2020-06-10T09:16:46Z</time>
      </trkpt>
      <trkpt lat="48.61797" lon="-4.20227">
        <ele>65</ele>
        <time>2020-06-10T09:16:47Z</time>
      </trkpt>
      <trkpt lat="48.61798" lon="-4.20223">
        <ele>65.1</ele>
        <time>2020-06-10T09:16:48Z</time>
      </trkpt>
      <trkpt lat="48.618" lon="-4.2022">
        <ele>65.2</ele>
        <time>2020-06-10T09:16:49Z</time>
      </trkpt>
      <trkpt lat="48.61801" lon="-4.20216">
        <ele>65.3</ele>
        <time>2020-06-10T09:16:50Z</time>
      </trkpt>
      <trkpt lat="48.61804" lon="-4.20213">
        <ele>65.4</ele>
        <time>2020-06-10T09:16:51Z</time>
      </trkpt>
      <trkpt lat="48.61805" lon="-4.20208">
        <ele>65.5</ele>
        <time>2020-06-10T09:16:52Z</time>
      </trkpt>
      <trkpt lat="48.61806" lon="-4.20206">
        <ele>65.6</ele>
        <time>2020-06-10T09:16:53Z</time>
      </trkpt>
      <trkpt lat="48.61806" lon="-4.20201">
        <ele>65.6</ele>
        <time>2020-06-10T09:16:54Z</time>
      </trkpt>
      <trkpt lat="48.61807" lon="-4.20197">
        <ele>65.7</ele>
        <time>2020-06-10T09:16:55Z</time>
      </trkpt>
      <trkpt lat="48.61808" lon="-4.20193">
        <ele>65.8</ele>
        <time>2020-06-10T09:16:56Z</time>
      </trkpt>
      <trkpt lat="48.61809" lon="-4.20188">
        <ele>65.9</ele>
        <time>2020-06-10T09:16:57Z</time>
      </trkpt>
      <trkpt lat="48.61811" lon="-4.20182">
        <ele>66</ele>
        <time>2020-06-10T09:16:58Z</time>
      </trkpt>
      <trkpt lat="48.61813" lon="-4.20177">
        <ele>66.1</ele>
        <time>2020-06-10T09:16:59Z</time>
      </trkpt>
      <trkpt lat="48.61814" lon="-4.20171">
        <ele>66.2</ele>
        <time>2020-06-10T09:17:00Z</time>
      </trkpt>
      <trkpt lat="48.61816" lon="-4.20165">
        <ele>66.4</ele>
        <time>2020-06-10T09:17:01Z</time>
      </trkpt>
      <trkpt lat="48.61817" lon="-4.20159">
        <ele>66.6</ele>
        <time>2020-06-10T09:17:02Z</time>
      </trkpt>
      <trkpt lat="48.61819" lon="-4.20153">
        <ele>66.8</ele>
        <time>2020-06-10T09:17:03Z</time>
      </trkpt>
      <trkpt lat="48.6182" lon="-4.20147">
        <ele>66.9</ele>
        <time>2020-06-10T09:17:04Z</time>
      </trkpt>
      <trkpt lat="48.61821" lon="-4.2014">
        <ele>67</ele>
        <time>2020-06-10T09:17:05Z</time>
      </trkpt>
      <trkpt lat="48.61823" lon="-4.20133">
        <ele>67.1</ele>
        <time>2020-06-10T09:17:06Z</time>
      </trkpt>
      <trkpt lat="48.61826" lon="-4.20127">
        <ele>67.1</ele>
        <time>2020-06-10T09:17:07Z</time>
      </trkpt>
      <trkpt lat="48.61828" lon="-4.2012">
        <ele>67.2</ele>
        <time>2020-06-10T09:17:08Z</time>
      </trkpt>
      <trkpt lat="48.6183" lon="-4.20113">
        <ele>67.2</ele>
        <time>2020-06-10T09:17:09Z</time>
      </trkpt>
      <trkpt lat="48.61833" lon="-4.20106">
        <ele>67.2</ele>
        <time>2020-06-10T09:17:10Z</time>
      </trkpt>
      <trkpt lat="48.61835" lon="-4.20099">
        <ele>67.3</ele>
        <time>2020-06-10T09:17:11Z</time>
      </trkpt>
      <trkpt lat="48.61838" lon="-4.20091">
        <ele>67.3</ele>
        <time>2020-06-10T09:17:12Z</time>
      </trkpt>
      <trkpt lat="48.61841" lon="-4.20082">
        <ele>67.3</ele>
        <time>2020-06-10T09:17:13Z</time>
      </trkpt>
      <trkpt lat="48.61843" lon="-4.20075">
        <ele>67.3</ele>
        <time>2020-06-10T09:17:14Z</time>
      </trkpt>
      <trkpt lat="48.61846" lon="-4.20068">
        <ele>67.2</ele>
        <time>2020-06-10T09:17:15Z</time>
      </trkpt>
      <trkpt lat="48.61849" lon="-4.20058">
        <ele>67.2</ele>
        <time>2020-06-10T09:17:16Z</time>
      </trkpt>
      <trkpt lat="48.61852" lon="-4.20052">
        <ele>67.2</ele>
        <time>2020-06-10T09:17:17Z</time>
      </trkpt>
      <trkpt lat="48.61854" lon="-4.20046">
        <ele>67.2</ele>
        <time>2020-06-10T09:17:18Z</time>
      </trkpt>
      <trkpt lat="48.61857" lon="-4.20038">
        <ele>67.2</ele>
        <time>2020-06-10T09:17:19Z</time>
      </trkpt>
      <trkpt lat="48.61861" lon="-4.2003">
        <ele>67.2</ele>
        <time>2020-06-10T09:17:20Z</time>
      </trkpt>
      <trkpt lat="48.61864" lon="-4.20023">
        <ele>67.3</ele>
        <time>2020-06-10T09:17:21Z</time>
      </trkpt>
      <trkpt lat="48.61866" lon="-4.20015">
        <ele>67.3</ele>
        <time>2020-06-10T09:17:22Z</time>
      </trkpt>
      <trkpt lat="48.61869" lon="-4.20005">
        <ele>67.4</ele>
        <time>2020-06-10T09:17:23Z</time>
      </trkpt>
      <trkpt lat="48.61872" lon="-4.19996">
        <ele>67.5</ele>
        <time>2020-06-10T09:17:24Z</time>
      </trkpt>
      <trkpt lat="48.61875" lon="-4.19988">
        <ele>67.5</ele>
        <time>2020-06-10T09:17:25Z</time>
      </trkpt>
      <trkpt lat="48.61877" lon="-4.19983">
        <ele>67.5</ele>
        <time>2020-06-10T09:17:26Z</time>
      </trkpt>
      <trkpt lat="48.6188" lon="-4.19975">
        <ele>67.5</ele>
        <time>2020-06-10T09:17:27Z</time>
      </trkpt>
      <trkpt lat="48.61882" lon="-4.19966">
        <ele>67.6</ele>
        <time>2020-06-10T09:17:28Z</time>
      </trkpt>
      <trkpt lat="48.61885" lon="-4.19959">
        <ele>67.6</ele>
        <time>2020-06-10T09:17:29Z</time>
      </trkpt>
      <trkpt lat="48.61888" lon="-4.19951">
        <ele>67.5</ele>
        <time>2020-06-10T09:17:30Z</time>
      </trkpt>
      <trkpt lat="48.61891" lon="-4.19944">
        <ele>67.4</ele>
        <time>2020-06-10T09:17:31Z</time>
      </trkpt>
      <trkpt lat="48.61894" lon="-4.19936">
        <ele>67.5</ele>
        <time>2020-06-10T09:17:32Z</time>
      </trkpt>
      <trkpt lat="48.61897" lon="-4.19928">
        <ele>67.6</ele>
        <time>2020-06-10T09:17:33Z</time>
      </trkpt>
      <trkpt lat="48.61899" lon="-4.19921">
        <ele>67.7</ele>
        <time>2020-06-10T09:17:34Z</time>
      </trkpt>
      <trkpt lat="48.61902" lon="-4.19916">
        <ele>67.7</ele>
        <time>2020-06-10T09:17:35Z</time>
      </trkpt>
      <trkpt lat="48.61904" lon="-4.19909">
        <ele>67.8</ele>
        <time>2020-06-10T09:17:36Z</time>
      </trkpt>
      <trkpt lat="48.61907" lon="-4.19902">
        <ele>68</ele>
        <time>2020-06-10T09:17:37Z</time>
      </trkpt>
      <trkpt lat="48.6191" lon="-4.19894">
        <ele>68.1</ele>
        <time>2020-06-10T09:17:38Z</time>
      </trkpt>
      <trkpt lat="48.61912" lon="-4.19887">
        <ele>68.3</ele>
        <time>2020-06-10T09:17:39Z</time>
      </trkpt>
      <trkpt lat="48.61916" lon="-4.1988">
        <ele>68.4</ele>
        <time>2020-06-10T09:17:40Z</time>
      </trkpt>
      <trkpt lat="48.61919" lon="-4.19873">
        <ele>68.6</ele>
        <time>2020-06-10T09:17:41Z</time>
      </trkpt>
      <trkpt lat="48.61922" lon="-4.19868">
        <ele>68.7</ele>
        <time>2020-06-10T09:17:42Z</time>
      </trkpt>
      <trkpt lat="48.61924" lon="-4.19861">
        <ele>68.9</ele>
        <time>2020-06-10T09:17:43Z</time>
      </trkpt>
      <trkpt lat="48.61927" lon="-4.19853">
        <ele>69.1</ele>
        <time>2020-06-10T09:17:44Z</time>
      </trkpt>
      <trkpt lat="48.61929" lon="-4.19845">
        <ele>69.3</ele>
        <time>2020-06-10T09:17:45Z</time>
      </trkpt>
      <trkpt lat="48.61932" lon="-4.19839">
        <ele>69.4</ele>
        <time>2020-06-10T09:17:46Z</time>
      </trkpt>
      <trkpt lat="48.61934" lon="-4.19833">
        <ele>69.6</ele>
        <time>2020-06-10T09:17:47Z</time>
      </trkpt>
      <trkpt lat="48.61935" lon="-4.19826">
        <ele>69.8</ele>
        <time>2020-06-10T09:17:48Z</time>
      </trkpt>
      <trkpt lat="48.61937" lon="-4.19818">
        <ele>70</ele>
        <time>2020-06-10T09:17:49Z</time>
      </trkpt>
      <trkpt lat="48.61939" lon="-4.19812">
        <ele>70.1</ele>
        <time>2020-06-10T09:17:50Z</time>
      </trkpt>
      <trkpt lat="48.6194" lon="-4.19806">
        <ele>70.3</ele>
        <time>2020-06-10T09:17:51Z</time>
      </trkpt>
      <trkpt lat="48.61942" lon="-4.19799">
        <ele>70.5</ele>
        <time>2020-06-10T09:17:52Z</time>
      </trkpt>
      <trkpt lat="48.61944" lon="-4.19791">
        <ele>70.7</ele>
        <time>2020-06-10T09:17:53Z</time>
      </trkpt>
      <trkpt lat="48.61945" lon="-4.19785">
        <ele>70.8</ele>
        <time>2020-06-10T09:17:54Z</time>
      </trkpt>
      <trkpt lat="48.61947" lon="-4.19778">
        <ele>71</ele>
        <time>2020-06-10T09:17:55Z</time>
      </trkpt>
      <trkpt lat="48.61948" lon="-4.19773">
        <ele>71.2</ele>
        <time>2020-06-10T09:17:56Z</time>
      </trkpt>
      <trkpt lat="48.61949" lon="-4.19769">
        <ele>71.3</ele>
        <time>2020-06-10T09:17:57Z</time>
      </trkpt>
      <trkpt lat="48.6195" lon="-4.19763">
        <ele>71.4</ele>
        <time>2020-06-10T09:17:58Z</time>
      </trkpt>
      <trkpt lat="48.61951" lon="-4.19757">
        <ele>71.5</ele>
        <time>2020-06-10T09:17:59Z</time>
      </trkpt>
      <trkpt lat="48.61953" lon="-4.19752">
        <ele>71.6</ele>
        <time>2020-06-10T09:18:00Z</time>
      </trkpt>
      <trkpt lat="48.61953" lon="-4.19746">
        <ele>71.6</ele>
        <time>2020-06-10T09:18:01Z</time>
      </trkpt>
      <trkpt lat="48.61954" lon="-4.19742">
        <ele>71.6</ele>
        <time>2020-06-10T09:18:02Z</time>
      </trkpt>
      <trkpt lat="48.61956" lon="-4.19737">
        <ele>71.7</ele>
        <time>2020-06-10T09:18:03Z</time>
      </trkpt>
      <trkpt lat="48.61958" lon="-4.19732">
        <ele>71.7</ele>
        <time>2020-06-10T09:18:04Z</time>
      </trkpt>
      <trkpt lat="48.6196" lon="-4.19726">
        <ele>71.8</ele>
        <time>2020-06-10T09:18:05Z</time>
      </trkpt>
      <trkpt lat="48.61962" lon="-4.1972">
        <ele>71.8</ele>
        <time>2020-06-10T09:18:06Z</time>
      </trkpt>
      <trkpt lat="48.61963" lon="-4.19717">
        <ele>71.8</ele>
        <time>2020-06-10T09:18:07Z</time>
      </trkpt>
      <trkpt lat="48.61964" lon="-4.19712">
        <ele>71.8</ele>
        <time>2020-06-10T09:18:08Z</time>
      </trkpt>
      <trkpt lat="48.61967" lon="-4.19707">
        <ele>71.7</ele>
        <time>2020-06-10T09:18:09Z</time>
      </trkpt>
      <trkpt lat="48.61969" lon="-4.19703">
        <ele>71.7</ele>
        <time>2020-06-10T09:18:10Z</time>
      </trkpt>
      <trkpt lat="48.61972" lon="-4.19697">
        <ele>71.6</ele>
        <time>2020-06-10T09:18:11Z</time>
      </trkpt>
      <trkpt lat="48.61975" lon="-4.19691">
        <ele>71.5</ele>
        <time>2020-06-10T09:18:12Z</time>
      </trkpt>
      <trkpt lat="48.61977" lon="-4.19685">
        <ele>71.4</ele>
        <time>2020-06-10T09:18:13Z</time>
      </trkpt>
      <trkpt lat="48.61979" lon="-4.1968">
        <ele>71.3</ele>
        <time>2020-06-10T09:18:14Z</time>
      </trkpt>
      <trkpt lat="48.61981" lon="-4.19674">
        <ele>71.2</ele>
        <time>2020-06-10T09:18:15Z</time>
      </trkpt>
      <trkpt lat="48.61984" lon="-4.19667">
        <ele>71.1</ele>
        <time>2020-06-10T09:18:16Z</time>
      </trkpt>
      <trkpt lat="48.61987" lon="-4.19658">
        <ele>70.9</ele>
        <time>2020-06-10T09:18:17Z</time>
      </trkpt>
      <trkpt lat="48.61989" lon="-4.19654">
        <ele>70.8</ele>
        <time>2020-06-10T09:18:18Z</time>
      </trkpt>
      <trkpt lat="48.61992" lon="-4.19649">
        <ele>70.6</ele>
        <time>2020-06-10T09:18:19Z</time>
      </trkpt>
      <trkpt lat="48.61995" lon="-4.19643">
        <ele>70.4</ele>
        <time>2020-06-10T09:18:20Z</time>
      </trkpt>
      <trkpt lat="48.61997" lon="-4.19636">
        <ele>70.1</ele>
        <time>2020-06-10T09:18:21Z</time>
      </trkpt>
      <trkpt lat="48.62001" lon="-4.19628">
        <ele>69.8</ele>
        <time>2020-06-10T09:18:22Z</time>
      </trkpt>
      <trkpt lat="48.62004" lon="-4.19618">
        <ele>69.5</ele>
        <time>2020-06-10T09:18:23Z</time>
      </trkpt>
      <trkpt lat="48.62007" lon="-4.19609">
        <ele>69.1</ele>
        <time>2020-06-10T09:18:24Z</time>
      </trkpt>
      <trkpt lat="48.6201" lon="-4.196">
        <ele>68.7</ele>
        <time>2020-06-10T09:18:25Z</time>
      </trkpt>
      <trkpt lat="48.62013" lon="-4.19592">
        <ele>68.4</ele>
        <time>2020-06-10T09:18:26Z</time>
      </trkpt>
      <trkpt lat="48.62016" lon="-4.19583">
        <ele>68</ele>
        <time>2020-06-10T09:18:27Z</time>
      </trkpt>
      <trkpt lat="48.6202" lon="-4.19571">
        <ele>67.5</ele>
        <time>2020-06-10T09:18:28Z</time>
      </trkpt>
      <trkpt lat="48.62024" lon="-4.19561">
        <ele>67</ele>
        <time>2020-06-10T09:18:29Z</time>
      </trkpt>
      <trkpt lat="48.62027" lon="-4.1955">
        <ele>66.6</ele>
        <time>2020-06-10T09:18:30Z</time>
      </trkpt>
      <trkpt lat="48.62032" lon="-4.19539">
        <ele>66.3</ele>
        <time>2020-06-10T09:18:31Z</time>
      </trkpt>
      <trkpt lat="48.62036" lon="-4.19527">
        <ele>66</ele>
        <time>2020-06-10T09:18:32Z</time>
      </trkpt>
      <trkpt lat="48.62041" lon="-4.19516">
        <ele>65.4</ele>
        <time>2020-06-10T09:18:33Z</time>
      </trkpt>
      <trkpt lat="48.62045" lon="-4.19504">
        <ele>65.2</ele>
        <time>2020-06-10T09:18:34Z</time>
      </trkpt>
      <trkpt lat="48.62049" lon="-4.19493">
        <ele>65</ele>
        <time>2020-06-10T09:18:35Z</time>
      </trkpt>
      <trkpt lat="48.62054" lon="-4.19482">
        <ele>64.8</ele>
        <time>2020-06-10T09:18:36Z</time>
      </trkpt>
      <trkpt lat="48.62059" lon="-4.19471">
        <ele>64.6</ele>
        <time>2020-06-10T09:18:37Z</time>
      </trkpt>
      <trkpt lat="48.62064" lon="-4.19461">
        <ele>64.4</ele>
        <time>2020-06-10T09:18:38Z</time>
      </trkpt>
      <trkpt lat="48.62069" lon="-4.1945">
        <ele>63.9</ele>
        <time>2020-06-10T09:18:39Z</time>
      </trkpt>
      <trkpt lat="48.62073" lon="-4.19439">
        <ele>63.8</ele>
        <time>2020-06-10T09:18:40Z</time>
      </trkpt>
      <trkpt lat="48.62079" lon="-4.19429">
        <ele>63.7</ele>
        <time>2020-06-10T09:18:41Z</time>
      </trkpt>
      <trkpt lat="48.62083" lon="-4.19419">
        <ele>63.6</ele>
        <time>2020-06-10T09:18:42Z</time>
      </trkpt>
      <trkpt lat="48.62088" lon="-4.19409">
        <ele>63.4</ele>
        <time>2020-06-10T09:18:43Z</time>
      </trkpt>
      <trkpt lat="48.62093" lon="-4.19398">
        <ele>63.3</ele>
        <time>2020-06-10T09:18:44Z</time>
      </trkpt>
      <trkpt lat="48.62098" lon="-4.19388">
        <ele>63.1</ele>
        <time>2020-06-10T09:18:45Z</time>
      </trkpt>
      <trkpt lat="48.62102" lon="-4.19377">
        <ele>63</ele>
        <time>2020-06-10T09:18:46Z</time>
      </trkpt>
      <trkpt lat="48.62108" lon="-4.19367">
        <ele>62.9</ele>
        <time>2020-06-10T09:18:47Z</time>
      </trkpt>
      <trkpt lat="48.62112" lon="-4.19357">
        <ele>62.9</ele>
        <time>2020-06-10T09:18:48Z</time>
      </trkpt>
      <trkpt lat="48.62117" lon="-4.19346">
        <ele>62.8</ele>
        <time>2020-06-10T09:18:49Z</time>
      </trkpt>
      <trkpt lat="48.62121" lon="-4.19336">
        <ele>62.8</ele>
        <time>2020-06-10T09:18:50Z</time>
      </trkpt>
      <trkpt lat="48.62125" lon="-4.19325">
        <ele>62.7</ele>
        <time>2020-06-10T09:18:51Z</time>
      </trkpt>
      <trkpt lat="48.62128" lon="-4.19314">
        <ele>62.7</ele>
        <time>2020-06-10T09:18:52Z</time>
      </trkpt>
      <trkpt lat="48.62132" lon="-4.19303">
        <ele>62.8</ele>
        <time>2020-06-10T09:18:53Z</time>
      </trkpt>
      <trkpt lat="48.62135" lon="-4.19292">
        <ele>62.9</ele>
        <time>2020-06-10T09:18:54Z</time>
      </trkpt>
      <trkpt lat="48.62137" lon="-4.19281">
        <ele>63.1</ele>
        <time>2020-06-10T09:18:55Z</time>
      </trkpt>
      <trkpt lat="48.6214" lon="-4.19271">
        <ele>63</ele>
        <time>2020-06-10T09:18:56Z</time>
      </trkpt>
      <trkpt lat="48.62143" lon="-4.19261">
        <ele>62.9</ele>
        <time>2020-06-10T09:18:57Z</time>
      </trkpt>
      <trkpt lat="48.62146" lon="-4.19252">
        <ele>62.8</ele>
        <time>2020-06-10T09:18:58Z</time>
      </trkpt>
      <trkpt lat="48.62149" lon="-4.19242">
        <ele>62.7</ele>
        <time>2020-06-10T09:18:59Z</time>
      </trkpt>
      <trkpt lat="48.62152" lon="-4.19233">
        <ele>62.6</ele>
        <time>2020-06-10T09:19:00Z</time>
      </trkpt>
      <trkpt lat="48.62155" lon="-4.19223">
        <ele>62.4</ele>
        <time>2020-06-10T09:19:01Z</time>
      </trkpt>
      <trkpt lat="48.62158" lon="-4.19214">
        <ele>62.3</ele>
        <time>2020-06-10T09:19:02Z</time>
      </trkpt>
      <trkpt lat="48.6216" lon="-4.19205">
        <ele>62.1</ele>
        <time>2020-06-10T09:19:03Z</time>
      </trkpt>
      <trkpt lat="48.62164" lon="-4.19196">
        <ele>61.9</ele>
        <time>2020-06-10T09:19:04Z</time>
      </trkpt>
      <trkpt lat="48.62166" lon="-4.19186">
        <ele>61.6</ele>
        <time>2020-06-10T09:19:05Z</time>
      </trkpt>
      <trkpt lat="48.6217" lon="-4.19176">
        <ele>61.4</ele>
        <time>2020-06-10T09:19:06Z</time>
      </trkpt>
      <trkpt lat="48.62173" lon="-4.19166">
        <ele>61.1</ele>
        <time>2020-06-10T09:19:07Z</time>
      </trkpt>
      <trkpt lat="48.62176" lon="-4.19155">
        <ele>60.8</ele>
        <time>2020-06-10T09:19:08Z</time>
      </trkpt>
      <trkpt lat="48.62179" lon="-4.19145">
        <ele>60.5</ele>
        <time>2020-06-10T09:19:09Z</time>
      </trkpt>
      <trkpt lat="48.62183" lon="-4.19134">
        <ele>60.1</ele>
        <time>2020-06-10T09:19:10Z</time>
      </trkpt>
      <trkpt lat="48.62186" lon="-4.19123">
        <ele>59.8</ele>
        <time>2020-06-10T09:19:11Z</time>
      </trkpt>
      <trkpt lat="48.6219" lon="-4.19113">
        <ele>59.4</ele>
        <time>2020-06-10T09:19:12Z</time>
      </trkpt>
      <trkpt lat="48.62195" lon="-4.19103">
        <ele>59</ele>
        <time>2020-06-10T09:19:13Z</time>
      </trkpt>
      <trkpt lat="48.622" lon="-4.19093">
        <ele>58.6</ele>
        <time>2020-06-10T09:19:14Z</time>
      </trkpt>
      <trkpt lat="48.62205" lon="-4.19083">
        <ele>58.2</ele>
        <time>2020-06-10T09:19:15Z</time>
      </trkpt>
      <trkpt lat="48.62211" lon="-4.19074">
        <ele>57.9</ele>
        <time>2020-06-10T09:19:16Z</time>
      </trkpt>
      <trkpt lat="48.62217" lon="-4.19065">
        <ele>57.5</ele>
        <time>2020-06-10T09:19:17Z</time>
      </trkpt>
      <trkpt lat="48.62223" lon="-4.19056">
        <ele>57.1</ele>
        <time>2020-06-10T09:19:18Z</time>
      </trkpt>
      <trkpt lat="48.62229" lon="-4.19046">
        <ele>56.8</ele>
        <time>2020-06-10T09:19:19Z</time>
      </trkpt>
      <trkpt lat="48.62236" lon="-4.19037">
        <ele>56.4</ele>
        <time>2020-06-10T09:19:20Z</time>
      </trkpt>
      <trkpt lat="48.62242" lon="-4.19028">
        <ele>56</ele>
        <time>2020-06-10T09:19:21Z</time>
      </trkpt>
      <trkpt lat="48.62248" lon="-4.19018">
        <ele>55.6</ele>
        <time>2020-06-10T09:19:22Z</time>
      </trkpt>
      <trkpt lat="48.62255" lon="-4.19008">
        <ele>55.2</ele>
        <time>2020-06-10T09:19:23Z</time>
      </trkpt>
      <trkpt lat="48.62261" lon="-4.18999">
        <ele>54.8</ele>
        <time>2020-06-10T09:19:24Z</time>
      </trkpt>
      <trkpt lat="48.62267" lon="-4.18988">
        <ele>54.3</ele>
        <time>2020-06-10T09:19:25Z</time>
      </trkpt>
      <trkpt lat="48.62272" lon="-4.18977">
        <ele>53.8</ele>
        <time>2020-06-10T09:19:26Z</time>
      </trkpt>
      <trkpt lat="48.62277" lon="-4.18965">
        <ele>53.4</ele>
        <time>2020-06-10T09:19:27Z</time>
      </trkpt>
      <trkpt lat="48.62281" lon="-4.18953">
        <ele>53</ele>
        <time>2020-06-10T09:19:28Z</time>
      </trkpt>
      <trkpt lat="48.62284" lon="-4.18939">
        <ele>52.4</ele>
        <time>2020-06-10T09:19:29Z</time>
      </trkpt>
      <trkpt lat="48.62287" lon="-4.18926">
        <ele>51.9</ele>
        <time>2020-06-10T09:19:30Z</time>
      </trkpt>
      <trkpt lat="48.62291" lon="-4.18913">
        <ele>51.5</ele>
        <time>2020-06-10T09:19:31Z</time>
      </trkpt>
      <trkpt lat="48.62294" lon="-4.18901">
        <ele>51.1</ele>
        <time>2020-06-10T09:19:32Z</time>
      </trkpt>
      <trkpt lat="48.62297" lon="-4.18888">
        <ele>50.7</ele>
        <time>2020-06-10T09:19:33Z</time>
      </trkpt>
      <trkpt lat="48.62301" lon="-4.18876">
        <ele>50.3</ele>
        <time>2020-06-10T09:19:34Z</time>
      </trkpt>
      <trkpt lat="48.62304" lon="-4.18862">
        <ele>50</ele>
        <time>2020-06-10T09:19:35Z</time>
      </trkpt>
      <trkpt lat="48.62307" lon="-4.18848">
        <ele>49.9</ele>
        <time>2020-06-10T09:19:36Z</time>
      </trkpt>
      <trkpt lat="48.6231" lon="-4.18835">
        <ele>49.9</ele>
        <time>2020-06-10T09:19:37Z</time>
      </trkpt>
      <trkpt lat="48.62313" lon="-4.18822">
        <ele>49.8</ele>
        <time>2020-06-10T09:19:38Z</time>
      </trkpt>
      <trkpt lat="48.62315" lon="-4.18808">
        <ele>49.7</ele>
        <time>2020-06-10T09:19:39Z</time>
      </trkpt>
      <trkpt lat="48.62316" lon="-4.18795">
        <ele>49.7</ele>
        <time>2020-06-10T09:19:40Z</time>
      </trkpt>
      <trkpt lat="48.62319" lon="-4.18783">
        <ele>49.7</ele>
        <time>2020-06-10T09:19:41Z</time>
      </trkpt>
      <trkpt lat="48.62323" lon="-4.18771">
        <ele>49.8</ele>
        <time>2020-06-10T09:19:42Z</time>
      </trkpt>
      <trkpt lat="48.62326" lon="-4.1876">
        <ele>50</ele>
        <time>2020-06-10T09:19:43Z</time>
      </trkpt>
      <trkpt lat="48.6233" lon="-4.1875">
        <ele>50.2</ele>
        <time>2020-06-10T09:19:44Z</time>
      </trkpt>
      <trkpt lat="48.62333" lon="-4.18739">
        <ele>50.4</ele>
        <time>2020-06-10T09:19:45Z</time>
      </trkpt>
      <trkpt lat="48.62336" lon="-4.18729">
        <ele>50.6</ele>
        <time>2020-06-10T09:19:46Z</time>
      </trkpt>
      <trkpt lat="48.6234" lon="-4.18719">
        <ele>50.9</ele>
        <time>2020-06-10T09:19:47Z</time>
      </trkpt>
      <trkpt lat="48.62343" lon="-4.1871">
        <ele>51.2</ele>
        <time>2020-06-10T09:19:48Z</time>
      </trkpt>
      <trkpt lat="48.62347" lon="-4.187">
        <ele>51.8</ele>
        <time>2020-06-10T09:19:49Z</time>
      </trkpt>
      <trkpt lat="48.6235" lon="-4.18691">
        <ele>52.1</ele>
        <time>2020-06-10T09:19:50Z</time>
      </trkpt>
      <trkpt lat="48.62353" lon="-4.18682">
        <ele>52.3</ele>
        <time>2020-06-10T09:19:51Z</time>
      </trkpt>
      <trkpt lat="48.62356" lon="-4.18673">
        <ele>52.6</ele>
        <time>2020-06-10T09:19:52Z</time>
      </trkpt>
      <trkpt lat="48.62359" lon="-4.18665">
        <ele>52.9</ele>
        <time>2020-06-10T09:19:53Z</time>
      </trkpt>
      <trkpt lat="48.62362" lon="-4.18658">
        <ele>53.1</ele>
        <time>2020-06-10T09:19:54Z</time>
      </trkpt>
      <trkpt lat="48.62365" lon="-4.18651">
        <ele>53.4</ele>
        <time>2020-06-10T09:19:55Z</time>
      </trkpt>
      <trkpt lat="48.62367" lon="-4.18644">
        <ele>53.6</ele>
        <time>2020-06-10T09:19:56Z</time>
      </trkpt>
      <trkpt lat="48.62369" lon="-4.18638">
        <ele>53.8</ele>
        <time>2020-06-10T09:19:57Z</time>
      </trkpt>
      <trkpt lat="48.6237" lon="-4.18631">
        <ele>54.1</ele>
        <time>2020-06-10T09:19:58Z</time>
      </trkpt>
      <trkpt lat="48.62371" lon="-4.18624">
        <ele>54.3</ele>
        <time>2020-06-10T09:19:59Z</time>
      </trkpt>
      <trkpt lat="48.62372" lon="-4.18617">
        <ele>54.6</ele>
        <time>2020-06-10T09:20:00Z</time>
      </trkpt>
      <trkpt lat="48.62374" lon="-4.1861">
        <ele>54.8</ele>
        <time>2020-06-10T09:20:01Z</time>
      </trkpt>
      <trkpt lat="48.62376" lon="-4.18604">
        <ele>55</ele>
        <time>2020-06-10T09:20:02Z</time>
      </trkpt>
      <trkpt lat="48.62377" lon="-4.18599">
        <ele>55.2</ele>
        <time>2020-06-10T09:20:03Z</time>
      </trkpt>
      <trkpt lat="48.62379" lon="-4.18593">
        <ele>55.4</ele>
        <time>2020-06-10T09:20:04Z</time>
      </trkpt>
      <trkpt lat="48.6238" lon="-4.18587">
        <ele>55.6</ele>
        <time>2020-06-10T09:20:05Z</time>
      </trkpt>
      <trkpt lat="48.62382" lon="-4.18582">
        <ele>55.8</ele>
        <time>2020-06-10T09:20:06Z</time>
      </trkpt>
      <trkpt lat="48.62384" lon="-4.18576">
        <ele>55.9</ele>
        <time>2020-06-10T09:20:07Z</time>
      </trkpt>
      <trkpt lat="48.62386" lon="-4.18571">
        <ele>56.1</ele>
        <time>2020-06-10T09:20:08Z</time>
      </trkpt>
      <trkpt lat="48.62388" lon="-4.18565">
        <ele>56.3</ele>
        <time>2020-06-10T09:20:09Z</time>
      </trkpt>
      <trkpt lat="48.6239" lon="-4.18559">
        <ele>56.4</ele>
        <time>2020-06-10T09:20:10Z</time>
      </trkpt>
      <trkpt lat="48.62392" lon="-4.18553">
        <ele>56.6</ele>
        <time>2020-06-10T09:20:11Z</time>
      </trkpt>
      <trkpt lat="48.62395" lon="-4.18546">
        <ele>56.8</ele>
        <time>2020-06-10T09:20:12Z</time>
      </trkpt>
      <trkpt lat="48.62397" lon="-4.1854">
        <ele>56.9</ele>
        <time>2020-06-10T09:20:13Z</time>
      </trkpt>
      <trkpt lat="48.62399" lon="-4.18534">
        <ele>57</ele>
        <time>2020-06-10T09:20:14Z</time>
      </trkpt>
      <trkpt lat="48.62401" lon="-4.18526">
        <ele>57.1</ele>
        <time>2020-06-10T09:20:15Z</time>
      </trkpt>
      <trkpt lat="48.62403" lon="-4.18521">
        <ele>57.1</ele>
        <time>2020-06-10T09:20:16Z</time>
      </trkpt>
      <trkpt lat="48.62405" lon="-4.18515">
        <ele>57.2</ele>
        <time>2020-06-10T09:20:17Z</time>
      </trkpt>
      <trkpt lat="48.62407" lon="-4.18509">
        <ele>57.3</ele>
        <time>2020-06-10T09:20:18Z</time>
      </trkpt>
      <trkpt lat="48.6241" lon="-4.18504">
        <ele>57.4</ele>
        <time>2020-06-10T09:20:19Z</time>
      </trkpt>
      <trkpt lat="48.62412" lon="-4.18497">
        <ele>57.6</ele>
        <time>2020-06-10T09:20:20Z</time>
      </trkpt>
      <trkpt lat="48.62415" lon="-4.1849">
        <ele>57.7</ele>
        <time>2020-06-10T09:20:21Z</time>
      </trkpt>
      <trkpt lat="48.62418" lon="-4.18482">
        <ele>57.8</ele>
        <time>2020-06-10T09:20:22Z</time>
      </trkpt>
      <trkpt lat="48.6242" lon="-4.18475">
        <ele>58</ele>
        <time>2020-06-10T09:20:23Z</time>
      </trkpt>
      <trkpt lat="48.62422" lon="-4.18468">
        <ele>58</ele>
        <time>2020-06-10T09:20:24Z</time>
      </trkpt>
      <trkpt lat="48.62425" lon="-4.1846">
        <ele>58.1</ele>
        <time>2020-06-10T09:20:25Z</time>
      </trkpt>
      <trkpt lat="48.62427" lon="-4.18454">
        <ele>58.2</ele>
        <time>2020-06-10T09:20:26Z</time>
      </trkpt>
      <trkpt lat="48.62429" lon="-4.18447">
        <ele>58.3</ele>
        <time>2020-06-10T09:20:27Z</time>
      </trkpt>
      <trkpt lat="48.62431" lon="-4.1844">
        <ele>58.4</ele>
        <time>2020-06-10T09:20:28Z</time>
      </trkpt>
      <trkpt lat="48.62433" lon="-4.18434">
        <ele>58.5</ele>
        <time>2020-06-10T09:20:29Z</time>
      </trkpt>
      <trkpt lat="48.62435" lon="-4.18427">
        <ele>58.6</ele>
        <time>2020-06-10T09:20:30Z</time>
      </trkpt>
      <trkpt lat="48.62437" lon="-4.18421">
        <ele>58.7</ele>
        <time>2020-06-10T09:20:31Z</time>
      </trkpt>
      <trkpt lat="48.62439" lon="-4.18413">
        <ele>58.9</ele>
        <time>2020-06-10T09:20:32Z</time>
      </trkpt>
      <trkpt lat="48.62441" lon="-4.18406">
        <ele>59</ele>
        <time>2020-06-10T09:20:33Z</time>
      </trkpt>
      <trkpt lat="48.62443" lon="-4.184">
        <ele>59.2</ele>
        <time>2020-06-10T09:20:34Z</time>
      </trkpt>
      <trkpt lat="48.62445" lon="-4.18394">
        <ele>59.3</ele>
        <time>2020-06-10T09:20:35Z</time>
      </trkpt>
      <trkpt lat="48.62447" lon="-4.18387">
        <ele>59.5</ele>
        <time>2020-06-10T09:20:36Z</time>
      </trkpt>
      <trkpt lat="48.62449" lon="-4.18381">
        <ele>59.7</ele>
        <time>2020-06-10T09:20:37Z</time>
      </trkpt>
      <trkpt lat="48.62451" lon="-4.18375">
        <ele>59.9</ele>
        <time>2020-06-10T09:20:38Z</time>
      </trkpt>
      <trkpt lat="48.62452" lon="-4.18369">
        <ele>60.1</ele>
        <time>2020-06-10T09:20:39Z</time>
      </trkpt>
      <trkpt lat="48.62455" lon="-4.18363">
        <ele>60.3</ele>
        <time>2020-06-10T09:20:40Z</time>
      </trkpt>
      <trkpt lat="48.62457" lon="-4.18356">
        <ele>60.6</ele>
        <time>2020-06-10T09:20:41Z</time>
      </trkpt>
      <trkpt lat="48.62459" lon="-4.18351">
        <ele>60.8</ele>
        <time>2020-06-10T09:20:42Z</time>
      </trkpt>
      <trkpt lat="48.62461" lon="-4.18345">
        <ele>61</ele>
        <time>2020-06-10T09:20:43Z</time>
      </trkpt>
      <trkpt lat="48.62464" lon="-4.1834">
        <ele>61.2</ele>
        <time>2020-06-10T09:20:44Z</time>
      </trkpt>
      <trkpt lat="48.62466" lon="-4.18336">
        <ele>61.4</ele>
        <time>2020-06-10T09:20:45Z</time>
      </trkpt>
      <trkpt lat="48.62468" lon="-4.1833">
        <ele>61.6</ele>
        <time>2020-06-10T09:20:46Z</time>
      </trkpt>
      <trkpt lat="48.6247" lon="-4.18325">
        <ele>61.8</ele>
        <time>2020-06-10T09:20:47Z</time>
      </trkpt>
      <trkpt lat="48.62472" lon="-4.18319">
        <ele>62.1</ele>
        <time>2020-06-10T09:20:48Z</time>
      </trkpt>
      <trkpt lat="48.62475" lon="-4.18313">
        <ele>62.3</ele>
        <time>2020-06-10T09:20:49Z</time>
      </trkpt>
      <trkpt lat="48.62477" lon="-4.18306">
        <ele>62.6</ele>
        <time>2020-06-10T09:20:50Z</time>
      </trkpt>
      <trkpt lat="48.62479" lon="-4.18301">
        <ele>62.8</ele>
        <time>2020-06-10T09:20:51Z</time>
      </trkpt>
      <trkpt lat="48.62482" lon="-4.18298">
        <ele>63</ele>
        <time>2020-06-10T09:20:52Z</time>
      </trkpt>
      <trkpt lat="48.62484" lon="-4.18292">
        <ele>63.3</ele>
        <time>2020-06-10T09:20:53Z</time>
      </trkpt>
      <trkpt lat="48.62486" lon="-4.18288">
        <ele>63.5</ele>
        <time>2020-06-10T09:20:54Z</time>
      </trkpt>
      <trkpt lat="48.62489" lon="-4.18283">
        <ele>63.7</ele>
        <time>2020-06-10T09:20:55Z</time>
      </trkpt>
      <trkpt lat="48.6249" lon="-4.18279">
        <ele>63.9</ele>
        <time>2020-06-10T09:20:56Z</time>
      </trkpt>
      <trkpt lat="48.62493" lon="-4.18273">
        <ele>64.1</ele>
        <time>2020-06-10T09:20:57Z</time>
      </trkpt>
      <trkpt lat="48.62496" lon="-4.18267">
        <ele>64.4</ele>
        <time>2020-06-10T09:20:58Z</time>
      </trkpt>
      <trkpt lat="48.62499" lon="-4.18262">
        <ele>64.6</ele>
        <time>2020-06-10T09:20:59Z</time>
      </trkpt>
      <trkpt lat="48.62501" lon="-4.18258">
        <ele>64.8</ele>
        <time>2020-06-10T09:21:00Z</time>
      </trkpt>
      <trkpt lat="48.62502" lon="-4.18254">
        <ele>64.9</ele>
        <time>2020-06-10T09:21:01Z</time>
      </trkpt>
      <trkpt lat="48.62505" lon="-4.1825">
        <ele>65.1</ele>
        <time>2020-06-10T09:21:02Z</time>
      </trkpt>
      <trkpt lat="48.62506" lon="-4.18246">
        <ele>65.2</ele>
        <time>2020-06-10T09:21:03Z</time>
      </trkpt>
      <trkpt lat="48.62509" lon="-4.18243">
        <ele>65.4</ele>
        <time>2020-06-10T09:21:04Z</time>
      </trkpt>
      <trkpt lat="48.62511" lon="-4.18239">
        <ele>65.5</ele>
        <time>2020-06-10T09:21:05Z</time>
      </trkpt>
      <trkpt lat="48.62513" lon="-4.18235">
        <ele>65.6</ele>
        <time>2020-06-10T09:21:06Z</time>
      </trkpt>
      <trkpt lat="48.62515" lon="-4.1823">
        <ele>65.8</ele>
        <time>2020-06-10T09:21:07Z</time>
      </trkpt>
      <trkpt lat="48.62518" lon="-4.18223">
        <ele>66</ele>
        <time>2020-06-10T09:21:08Z</time>
      </trkpt>
      <trkpt lat="48.6252" lon="-4.18219">
        <ele>66.1</ele>
        <time>2020-06-10T09:21:09Z</time>
      </trkpt>
      <trkpt lat="48.62523" lon="-4.18214">
        <ele>66.1</ele>
        <time>2020-06-10T09:21:10Z</time>
      </trkpt>
      <trkpt lat="48.62525" lon="-4.1821">
        <ele>66.2</ele>
        <time>2020-06-10T09:21:11Z</time>
      </trkpt>
      <trkpt lat="48.62528" lon="-4.18205">
        <ele>66.3</ele>
        <time>2020-06-10T09:21:12Z</time>
      </trkpt>
      <trkpt lat="48.62531" lon="-4.18202">
        <ele>66.3</ele>
        <time>2020-06-10T09:21:13Z</time>
      </trkpt>
      <trkpt lat="48.62534" lon="-4.18196">
        <ele>66.4</ele>
        <time>2020-06-10T09:21:14Z</time>
      </trkpt>
      <trkpt lat="48.62537" lon="-4.18189">
        <ele>66.4</ele>
        <time>2020-06-10T09:21:15Z</time>
      </trkpt>
      <trkpt lat="48.6254" lon="-4.18183">
        <ele>66.5</ele>
        <time>2020-06-10T09:21:16Z</time>
      </trkpt>
      <trkpt lat="48.62544" lon="-4.18176">
        <ele>66.4</ele>
        <time>2020-06-10T09:21:17Z</time>
      </trkpt>
      <trkpt lat="48.62548" lon="-4.18172">
        <ele>66.4</ele>
        <time>2020-06-10T09:21:18Z</time>
      </trkpt>
      <trkpt lat="48.62552" lon="-4.18164">
        <ele>66.3</ele>
        <time>2020-06-10T09:21:19Z</time>
      </trkpt>
      <trkpt lat="48.62556" lon="-4.18156">
        <ele>66.2</ele>
        <time>2020-06-10T09:21:20Z</time>
      </trkpt>
      <trkpt lat="48.62561" lon="-4.18149">
        <ele>66.1</ele>
        <time>2020-06-10T09:21:21Z</time>
      </trkpt>
      <trkpt lat="48.62564" lon="-4.18142">
        <ele>66.1</ele>
        <time>2020-06-10T09:21:22Z</time>
      </trkpt>
      <trkpt lat="48.62568" lon="-4.18135">
        <ele>66</ele>
        <time>2020-06-10T09:21:23Z</time>
      </trkpt>
      <trkpt lat="48.62573" lon="-4.18127">
        <ele>65.9</ele>
        <time>2020-06-10T09:21:24Z</time>
      </trkpt>
      <trkpt lat="48.62577" lon="-4.1812">
        <ele>65.6</ele>
        <time>2020-06-10T09:21:25Z</time>
      </trkpt>
      <trkpt lat="48.62581" lon="-4.18114">
        <ele>65.3</ele>
        <time>2020-06-10T09:21:26Z</time>
      </trkpt>
      <trkpt lat="48.62586" lon="-4.18105">
        <ele>64.8</ele>
        <time>2020-06-10T09:21:27Z</time>
      </trkpt>
      <trkpt lat="48.6259" lon="-4.18097">
        <ele>64.5</ele>
        <time>2020-06-10T09:21:28Z</time>
      </trkpt>
      <trkpt lat="48.62594" lon="-4.18089">
        <ele>64.4</ele>
        <time>2020-06-10T09:21:29Z</time>
      </trkpt>
      <trkpt lat="48.62599" lon="-4.18081">
        <ele>64.2</ele>
        <time>2020-06-10T09:21:30Z</time>
      </trkpt>
      <trkpt lat="48.62603" lon="-4.18072">
        <ele>64.1</ele>
        <time>2020-06-10T09:21:31Z</time>
      </trkpt>
      <trkpt lat="48.62607" lon="-4.18064">
        <ele>64.1</ele>
        <time>2020-06-10T09:21:32Z</time>
      </trkpt>
      <trkpt lat="48.62611" lon="-4.18056">
        <ele>64</ele>
        <time>2020-06-10T09:21:33Z</time>
      </trkpt>
      <trkpt lat="48.62615" lon="-4.18047">
        <ele>64</ele>
        <time>2020-06-10T09:21:34Z</time>
      </trkpt>
      <trkpt lat="48.62619" lon="-4.18038">
        <ele>64</ele>
        <time>2020-06-10T09:21:35Z</time>
      </trkpt>
      <trkpt lat="48.62624" lon="-4.1803">
        <ele>64</ele>
        <time>2020-06-10T09:21:36Z</time>
      </trkpt>
      <trkpt lat="48.62628" lon="-4.18022">
        <ele>63.9</ele>
        <time>2020-06-10T09:21:37Z</time>
      </trkpt>
      <trkpt lat="48.62632" lon="-4.18013">
        <ele>63.9</ele>
        <time>2020-06-10T09:21:38Z</time>
      </trkpt>
      <trkpt lat="48.62637" lon="-4.18004">
        <ele>63.9</ele>
        <time>2020-06-10T09:21:39Z</time>
      </trkpt>
      <trkpt lat="48.62641" lon="-4.17996">
        <ele>63.9</ele>
        <time>2020-06-10T09:21:40Z</time>
      </trkpt>
      <trkpt lat="48.62644" lon="-4.17987">
        <ele>63.9</ele>
        <time>2020-06-10T09:21:41Z</time>
      </trkpt>
      <trkpt lat="48.62649" lon="-4.17979">
        <ele>63.9</ele>
        <time>2020-06-10T09:21:42Z</time>
      </trkpt>
      <trkpt lat="48.62653" lon="-4.17971">
        <ele>64</ele>
        <time>2020-06-10T09:21:43Z</time>
      </trkpt>
      <trkpt lat="48.62656" lon="-4.17962">
        <ele>64.1</ele>
        <time>2020-06-10T09:21:44Z</time>
      </trkpt>
      <trkpt lat="48.6266" lon="-4.17953">
        <ele>64.2</ele>
        <time>2020-06-10T09:21:45Z</time>
      </trkpt>
      <trkpt lat="48.62664" lon="-4.17945">
        <ele>64.3</ele>
        <time>2020-06-10T09:21:46Z</time>
      </trkpt>
      <trkpt lat="48.62668" lon="-4.17936">
        <ele>64.4</ele>
        <time>2020-06-10T09:21:47Z</time>
      </trkpt>
      <trkpt lat="48.62671" lon="-4.17927">
        <ele>64.6</ele>
        <time>2020-06-10T09:21:48Z</time>
      </trkpt>
      <trkpt lat="48.62675" lon="-4.17919">
        <ele>64.9</ele>
        <time>2020-06-10T09:21:49Z</time>
      </trkpt>
      <trkpt lat="48.62678" lon="-4.1791">
        <ele>65.2</ele>
        <time>2020-06-10T09:21:50Z</time>
      </trkpt>
      <trkpt lat="48.62682" lon="-4.17901">
        <ele>65.4</ele>
        <time>2020-06-10T09:21:51Z</time>
      </trkpt>
      <trkpt lat="48.62685" lon="-4.17892">
        <ele>65.6</ele>
        <time>2020-06-10T09:21:52Z</time>
      </trkpt>
      <trkpt lat="48.62686" lon="-4.17883">
        <ele>65.7</ele>
        <time>2020-06-10T09:21:53Z</time>
      </trkpt>
      <trkpt lat="48.62688" lon="-4.17873">
        <ele>65.8</ele>
        <time>2020-06-10T09:21:54Z</time>
      </trkpt>
      <trkpt lat="48.62691" lon="-4.17865">
        <ele>65.8</ele>
        <time>2020-06-10T09:21:55Z</time>
      </trkpt>
      <trkpt lat="48.62693" lon="-4.17855">
        <ele>65.8</ele>
        <time>2020-06-10T09:21:56Z</time>
      </trkpt>
      <trkpt lat="48.62695" lon="-4.17846">
        <ele>65.8</ele>
        <time>2020-06-10T09:21:57Z</time>
      </trkpt>
      <trkpt lat="48.62697" lon="-4.17837">
        <ele>65.8</ele>
        <time>2020-06-10T09:21:58Z</time>
      </trkpt>
      <trkpt lat="48.62699" lon="-4.17828">
        <ele>66</ele>
        <time>2020-06-10T09:21:59Z</time>
      </trkpt>
      <trkpt lat="48.62701" lon="-4.17819">
        <ele>66.1</ele>
        <time>2020-06-10T09:22:00Z</time>
      </trkpt>
      <trkpt lat="48.62703" lon="-4.1781">
        <ele>66.2</ele>
        <time>2020-06-10T09:22:01Z</time>
      </trkpt>
      <trkpt lat="48.62705" lon="-4.17802">
        <ele>66.3</ele>
        <time>2020-06-10T09:22:02Z</time>
      </trkpt>
      <trkpt lat="48.62707" lon="-4.17793">
        <ele>66.4</ele>
        <time>2020-06-10T09:22:03Z</time>
      </trkpt>
      <trkpt lat="48.62709" lon="-4.17785">
        <ele>66.5</ele>
        <time>2020-06-10T09:22:04Z</time>
      </trkpt>
      <trkpt lat="48.62711" lon="-4.17777">
        <ele>66.6</ele>
        <time>2020-06-10T09:22:05Z</time>
      </trkpt>
      <trkpt lat="48.62713" lon="-4.1777">
        <ele>66.7</ele>
        <time>2020-06-10T09:22:06Z</time>
      </trkpt>
      <trkpt lat="48.62716" lon="-4.17763">
        <ele>66.7</ele>
        <time>2020-06-10T09:22:07Z</time>
      </trkpt>
      <trkpt lat="48.62718" lon="-4.17756">
        <ele>66.8</ele>
        <time>2020-06-10T09:22:08Z</time>
      </trkpt>
      <trkpt lat="48.6272" lon="-4.17749">
        <ele>66.9</ele>
        <time>2020-06-10T09:22:09Z</time>
      </trkpt>
      <trkpt lat="48.62722" lon="-4.17743">
        <ele>66.9</ele>
        <time>2020-06-10T09:22:10Z</time>
      </trkpt>
      <trkpt lat="48.62724" lon="-4.17737">
        <ele>67</ele>
        <time>2020-06-10T09:22:11Z</time>
      </trkpt>
      <trkpt lat="48.62726" lon="-4.17731">
        <ele>67</ele>
        <time>2020-06-10T09:22:12Z</time>
      </trkpt>
      <trkpt lat="48.62727" lon="-4.17724">
        <ele>67</ele>
        <time>2020-06-10T09:22:13Z</time>
      </trkpt>
      <trkpt lat="48.62728" lon="-4.17718">
        <ele>67</ele>
        <time>2020-06-10T09:22:14Z</time>
      </trkpt>
      <trkpt lat="48.62729" lon="-4.17712">
        <ele>67</ele>
        <time>2020-06-10T09:22:15Z</time>
      </trkpt>
      <trkpt lat="48.6273" lon="-4.17705">
        <ele>67</ele>
        <time>2020-06-10T09:22:16Z</time>
      </trkpt>
      <trkpt lat="48.62731" lon="-4.17698">
        <ele>66.9</ele>
        <time>2020-06-10T09:22:17Z</time>
      </trkpt>
      <trkpt lat="48.62733" lon="-4.17691">
        <ele>66.8</ele>
        <time>2020-06-10T09:22:18Z</time>
      </trkpt>
      <trkpt lat="48.62735" lon="-4.17683">
        <ele>66.6</ele>
        <time>2020-06-10T09:22:19Z</time>
      </trkpt>
      <trkpt lat="48.62736" lon="-4.17675">
        <ele>66.5</ele>
        <time>2020-06-10T09:22:20Z</time>
      </trkpt>
      <trkpt lat="48.62738" lon="-4.17666">
        <ele>66.3</ele>
        <time>2020-06-10T09:22:21Z</time>
      </trkpt>
      <trkpt lat="48.62739" lon="-4.17657">
        <ele>66.2</ele>
        <time>2020-06-10T09:22:22Z</time>
      </trkpt>
      <trkpt lat="48.62741" lon="-4.17648">
        <ele>66.1</ele>
        <time>2020-06-10T09:22:23Z</time>
      </trkpt>
      <trkpt lat="48.62743" lon="-4.17639">
        <ele>65.9</ele>
        <time>2020-06-10T09:22:24Z</time>
      </trkpt>
      <trkpt lat="48.62744" lon="-4.17629">
        <ele>65.7</ele>
        <time>2020-06-10T09:22:25Z</time>
      </trkpt>
      <trkpt lat="48.62746" lon="-4.17619">
        <ele>65.5</ele>
        <time>2020-06-10T09:22:26Z</time>
      </trkpt>
      <trkpt lat="48.62748" lon="-4.17609">
        <ele>65.3</ele>
        <time>2020-06-10T09:22:27Z</time>
      </trkpt>
      <trkpt lat="48.6275" lon="-4.17598">
        <ele>65</ele>
        <time>2020-06-10T09:22:28Z</time>
      </trkpt>
      <trkpt lat="48.62753" lon="-4.17587">
        <ele>64.7</ele>
        <time>2020-06-10T09:22:29Z</time>
      </trkpt>
      <trkpt lat="48.62755" lon="-4.17577">
        <ele>64.3</ele>
        <time>2020-06-10T09:22:30Z</time>
      </trkpt>
      <trkpt lat="48.6276" lon="-4.17567">
        <ele>64</ele>
        <time>2020-06-10T09:22:31Z</time>
      </trkpt>
      <trkpt lat="48.62765" lon="-4.17558">
        <ele>63.6</ele>
        <time>2020-06-10T09:22:32Z</time>
      </trkpt>
      <trkpt lat="48.62772" lon="-4.17551">
        <ele>63.2</ele>
        <time>2020-06-10T09:22:33Z</time>
      </trkpt>
      <trkpt lat="48.62779" lon="-4.17544">
        <ele>62.8</ele>
        <time>2020-06-10T09:22:34Z</time>
      </trkpt>
      <trkpt lat="48.62787" lon="-4.17538">
        <ele>62.4</ele>
        <time>2020-06-10T09:22:35Z</time>
      </trkpt>
      <trkpt lat="48.62795" lon="-4.17532">
        <ele>61.9</ele>
        <time>2020-06-10T09:22:36Z</time>
      </trkpt>
      <trkpt lat="48.62804" lon="-4.17527">
        <ele>61.4</ele>
        <time>2020-06-10T09:22:37Z</time>
      </trkpt>
      <trkpt lat="48.62812" lon="-4.17521">
        <ele>60.6</ele>
        <time>2020-06-10T09:22:38Z</time>
      </trkpt>
      <trkpt lat="48.62821" lon="-4.17515">
        <ele>60</ele>
        <time>2020-06-10T09:22:39Z</time>
      </trkpt>
      <trkpt lat="48.62831" lon="-4.17508">
        <ele>59.4</ele>
        <time>2020-06-10T09:22:40Z</time>
      </trkpt>
      <trkpt lat="48.6284" lon="-4.17501">
        <ele>59</ele>
        <time>2020-06-10T09:22:41Z</time>
      </trkpt>
      <trkpt lat="48.62848" lon="-4.17493">
        <ele>58.6</ele>
        <time>2020-06-10T09:22:42Z</time>
      </trkpt>
      <trkpt lat="48.62857" lon="-4.17484">
        <ele>58.3</ele>
        <time>2020-06-10T09:22:43Z</time>
      </trkpt>
      <trkpt lat="48.62865" lon="-4.17474">
        <ele>58</ele>
        <time>2020-06-10T09:22:44Z</time>
      </trkpt>
      <trkpt lat="48.62873" lon="-4.17464">
        <ele>57.7</ele>
        <time>2020-06-10T09:22:45Z</time>
      </trkpt>
      <trkpt lat="48.6288" lon="-4.17452">
        <ele>57.6</ele>
        <time>2020-06-10T09:22:46Z</time>
      </trkpt>
      <trkpt lat="48.62885" lon="-4.1744">
        <ele>57.5</ele>
        <time>2020-06-10T09:22:47Z</time>
      </trkpt>
      <trkpt lat="48.62891" lon="-4.17428">
        <ele>57.6</ele>
        <time>2020-06-10T09:22:48Z</time>
      </trkpt>
      <trkpt lat="48.62896" lon="-4.17416">
        <ele>57.7</ele>
        <time>2020-06-10T09:22:49Z</time>
      </trkpt>
      <trkpt lat="48.62901" lon="-4.17404">
        <ele>57.9</ele>
        <time>2020-06-10T09:22:50Z</time>
      </trkpt>
      <trkpt lat="48.62906" lon="-4.17391">
        <ele>58.1</ele>
        <time>2020-06-10T09:22:51Z</time>
      </trkpt>
      <trkpt lat="48.62911" lon="-4.17379">
        <ele>58.4</ele>
        <time>2020-06-10T09:22:52Z</time>
      </trkpt>
      <trkpt lat="48.62916" lon="-4.17368">
        <ele>58.7</ele>
        <time>2020-06-10T09:22:53Z</time>
      </trkpt>
      <trkpt lat="48.6292" lon="-4.17357">
        <ele>59.1</ele>
        <time>2020-06-10T09:22:54Z</time>
      </trkpt>
      <trkpt lat="48.62925" lon="-4.17347">
        <ele>59.4</ele>
        <time>2020-06-10T09:22:55Z</time>
      </trkpt>
      <trkpt lat="48.6293" lon="-4.17337">
        <ele>59.8</ele>
        <time>2020-06-10T09:22:56Z</time>
      </trkpt>
      <trkpt lat="48.62934" lon="-4.17327">
        <ele>60.1</ele>
        <time>2020-06-10T09:22:57Z</time>
      </trkpt>
      <trkpt lat="48.62938" lon="-4.17318">
        <ele>60.5</ele>
        <time>2020-06-10T09:22:58Z</time>
      </trkpt>
      <trkpt lat="48.62942" lon="-4.17309">
        <ele>60.9</ele>
        <time>2020-06-10T09:22:59Z</time>
      </trkpt>
      <trkpt lat="48.62946" lon="-4.173">
        <ele>61.2</ele>
        <time>2020-06-10T09:23:00Z</time>
      </trkpt>
      <trkpt lat="48.6295" lon="-4.17291">
        <ele>61.5</ele>
        <time>2020-06-10T09:23:01Z</time>
      </trkpt>
      <trkpt lat="48.62954" lon="-4.17283">
        <ele>61.8</ele>
        <time>2020-06-10T09:23:02Z</time>
      </trkpt>
      <trkpt lat="48.62957" lon="-4.17275">
        <ele>62.1</ele>
        <time>2020-06-10T09:23:03Z</time>
      </trkpt>
      <trkpt lat="48.62961" lon="-4.17267">
        <ele>62.2</ele>
        <time>2020-06-10T09:23:04Z</time>
      </trkpt>
      <trkpt lat="48.62964" lon="-4.1726">
        <ele>62.4</ele>
        <time>2020-06-10T09:23:05Z</time>
      </trkpt>
      <trkpt lat="48.62968" lon="-4.17252">
        <ele>62.6</ele>
        <time>2020-06-10T09:23:06Z</time>
      </trkpt>
      <trkpt lat="48.62971" lon="-4.17245">
        <ele>62.8</ele>
        <time>2020-06-10T09:23:07Z</time>
      </trkpt>
      <trkpt lat="48.62974" lon="-4.17237">
        <ele>62.9</ele>
        <time>2020-06-10T09:23:08Z</time>
      </trkpt>
      <trkpt lat="48.62977" lon="-4.1723">
        <ele>63.1</ele>
        <time>2020-06-10T09:23:09Z</time>
      </trkpt>
      <trkpt lat="48.6298" lon="-4.17222">
        <ele>63.3</ele>
        <time>2020-06-10T09:23:10Z</time>
      </trkpt>
      <trkpt lat="48.62983" lon="-4.17214">
        <ele>63.5</ele>
        <time>2020-06-10T09:23:11Z</time>
      </trkpt>
      <trkpt lat="48.62985" lon="-4.17206">
        <ele>63.7</ele>
        <time>2020-06-10T09:23:12Z</time>
      </trkpt>
      <trkpt lat="48.62987" lon="-4.17198">
        <ele>64</ele>
        <time>2020-06-10T09:23:13Z</time>
      </trkpt>
      <trkpt lat="48.62989" lon="-4.17191">
        <ele>64.2</ele>
        <time>2020-06-10T09:23:14Z</time>
      </trkpt>
      <trkpt lat="48.62992" lon="-4.17184">
        <ele>64.4</ele>
        <time>2020-06-10T09:23:15Z</time>
      </trkpt>
      <trkpt lat="48.62994" lon="-4.17178">
        <ele>64.6</ele>
        <time>2020-06-10T09:23:16Z</time>
      </trkpt>
      <trkpt lat="48.62996" lon="-4.17172">
        <ele>64.8</ele>
        <time>2020-06-10T09:23:17Z</time>
      </trkpt>
      <trkpt lat="48.62998" lon="-4.17166">
        <ele>64.9</ele>
        <time>2020-06-10T09:23:18Z</time>
      </trkpt>
      <trkpt lat="48.63" lon="-4.1716">
        <ele>65.1</ele>
        <time>2020-06-10T09:23:19Z</time>
      </trkpt>
      <trkpt lat="48.63001" lon="-4.17154">
        <ele>65.2</ele>
        <time>2020-06-10T09:23:20Z</time>
      </trkpt>
      <trkpt lat="48.63002" lon="-4.17148">
        <ele>65.3</ele>
        <time>2020-06-10T09:23:21Z</time>
      </trkpt>
      <trkpt lat="48.63004" lon="-4.1714">
        <ele>65.4</ele>
        <time>2020-06-10T09:23:22Z</time>
      </trkpt>
      <trkpt lat="48.63005" lon="-4.17134">
        <ele>65.5</ele>
        <time>2020-06-10T09:23:23Z</time>
      </trkpt>
      <trkpt lat="48.63005" lon="-4.17127">
        <ele>65.7</ele>
        <time>2020-06-10T09:23:24Z</time>
      </trkpt>
      <trkpt lat="48.63006" lon="-4.1712">
        <ele>65.8</ele>
        <time>2020-06-10T09:23:25Z</time>
      </trkpt>
      <trkpt lat="48.63006" lon="-4.17115">
        <ele>65.9</ele>
        <time>2020-06-10T09:23:26Z</time>
      </trkpt>
      <trkpt lat="48.63005" lon="-4.17108">
        <ele>66</ele>
        <time>2020-06-10T09:23:27Z</time>
      </trkpt>
      <trkpt lat="48.63004" lon="-4.17101">
        <ele>66.1</ele>
        <time>2020-06-10T09:23:28Z</time>
      </trkpt>
      <trkpt lat="48.63004" lon="-4.17095">
        <ele>66.2</ele>
        <time>2020-06-10T09:23:29Z</time>
      </trkpt>
      <trkpt lat="48.63004" lon="-4.17088">
        <ele>66.3</ele>
        <time>2020-06-10T09:23:30Z</time>
      </trkpt>
      <trkpt lat="48.63004" lon="-4.17082">
        <ele>66.4</ele>
        <time>2020-06-10T09:23:31Z</time>
      </trkpt>
      <trkpt lat="48.63004" lon="-4.17075">
        <ele>66.5</ele>
        <time>2020-06-10T09:23:32Z</time>
      </trkpt>
      <trkpt lat="48.63004" lon="-4.17066">
        <ele>66.6</ele>
        <time>2020-06-10T09:23:33Z</time>
      </trkpt>
      <trkpt lat="48.63004" lon="-4.17059">
        <ele>66.7</ele>
        <time>2020-06-10T09:23:34Z</time>
      </trkpt>
      <trkpt lat="48.63003" lon="-4.17052">
        <ele>66.8</ele>
        <time>2020-06-10T09:23:35Z</time>
      </trkpt>
      <trkpt lat="48.63003" lon="-4.17044">
        <ele>66.9</ele>
        <time>2020-06-10T09:23:36Z</time>
      </trkpt>
      <trkpt lat="48.63002" lon="-4.17038">
        <ele>67</ele>
        <time>2020-06-10T09:23:37Z</time>
      </trkpt>
      <trkpt lat="48.63001" lon="-4.17031">
        <ele>67.1</ele>
        <time>2020-06-10T09:23:38Z</time>
      </trkpt>
      <trkpt lat="48.63" lon="-4.17025">
        <ele>67.2</ele>
        <time>2020-06-10T09:23:39Z</time>
      </trkpt>
      <trkpt lat="48.63" lon="-4.17018">
        <ele>67.3</ele>
        <time>2020-06-10T09:23:40Z</time>
      </trkpt>
      <trkpt lat="48.62999" lon="-4.17012">
        <ele>67.4</ele>
        <time>2020-06-10T09:23:41Z</time>
      </trkpt>
      <trkpt lat="48.62999" lon="-4.17005">
        <ele>67.5</ele>
        <time>2020-06-10T09:23:42Z</time>
      </trkpt>
      <trkpt lat="48.63" lon="-4.16999">
        <ele>67.6</ele>
        <time>2020-06-10T09:23:43Z</time>
      </trkpt>
      <trkpt lat="48.63" lon="-4.16993">
        <ele>67.7</ele>
        <time>2020-06-10T09:23:44Z</time>
      </trkpt>
      <trkpt lat="48.62998" lon="-4.16985">
        <ele>67.9</ele>
        <time>2020-06-10T09:23:45Z</time>
      </trkpt>
      <trkpt lat="48.62997" lon="-4.1698">
        <ele>68</ele>
        <time>2020-06-10T09:23:46Z</time>
      </trkpt>
      <trkpt lat="48.62997" lon="-4.16974">
        <ele>68.1</ele>
        <time>2020-06-10T09:23:47Z</time>
      </trkpt>
      <trkpt lat="48.62996" lon="-4.16969">
        <ele>68.2</ele>
        <time>2020-06-10T09:23:48Z</time>
      </trkpt>
      <trkpt lat="48.62995" lon="-4.16964">
        <ele>68.3</ele>
        <time>2020-06-10T09:23:49Z</time>
      </trkpt>
      <trkpt lat="48.62994" lon="-4.16962">
        <ele>68.4</ele>
        <time>2020-06-10T09:23:50Z</time>
      </trkpt>
      <trkpt lat="48.62991" lon="-4.16963">
        <ele>68.3</ele>
        <time>2020-06-10T09:23:51Z</time>
      </trkpt>
      <trkpt lat="48.6299" lon="-4.16962">
        <ele>68.3</ele>
        <time>2020-06-10T09:23:52Z</time>
      </trkpt>
      <trkpt lat="48.62989" lon="-4.16962">
        <ele>68.3</ele>
        <time>2020-06-10T09:23:53Z</time>
      </trkpt>
      <trkpt lat="48.62989" lon="-4.16962">
        <ele>68.2</ele>
        <time>2020-06-10T09:23:54Z</time>
      </trkpt>
      <trkpt lat="48.62989" lon="-4.16962">
        <ele>68.2</ele>
        <time>2020-06-10T09:23:55Z</time>
      </trkpt>
      <trkpt lat="48.62988" lon="-4.16961">
        <ele>68.2</ele>
        <time>2020-06-10T09:23:56Z</time>
      </trkpt>
      <trkpt lat="48.62988" lon="-4.16961">
        <ele>68.2</ele>
        <time>2020-06-10T09:23:57Z</time>
      </trkpt>
      <trkpt lat="48.62989" lon="-4.16962">
        <ele>68.2</ele>
        <time>2020-06-10T09:23:58Z</time>
      </trkpt>
      <trkpt lat="48.62988" lon="-4.1696">
        <ele>68.2</ele>
        <time>2020-06-10T09:23:59Z</time>
      </trkpt>
      <trkpt lat="48.62987" lon="-4.1696">
        <ele>68.2</ele>
        <time>2020-06-10T09:24:00Z</time>
      </trkpt>
      <trkpt lat="48.62987" lon="-4.16959">
        <ele>68.2</ele>
        <time>2020-06-10T09:24:01Z</time>
      </trkpt>
      <trkpt lat="48.62986" lon="-4.16959">
        <ele>68.2</ele>
        <time>2020-06-10T09:24:02Z</time>
      </trkpt>
      <trkpt lat="48.62985" lon="-4.16959">
        <ele>68.1</ele>
        <time>2020-06-10T09:24:03Z</time>
      </trkpt>
      <trkpt lat="48.62984" lon="-4.16959">
        <ele>68.1</ele>
        <time>2020-06-10T09:24:04Z</time>
      </trkpt>
      <trkpt lat="48.62983" lon="-4.16959">
        <ele>68.1</ele>
        <time>2020-06-10T09:24:05Z</time>
      </trkpt>
      <trkpt lat="48.62982" lon="-4.16959">
        <ele>68.1</ele>
        <time>2020-06-10T09:24:06Z</time>
      </trkpt>
      <trkpt lat="48.62981" lon="-4.16959">
        <ele>68.1</ele>
        <time>2020-06-10T09:24:07Z</time>
      </trkpt>
      <trkpt lat="48.6298" lon="-4.16958">
        <ele>68</ele>
        <time>2020-06-10T09:24:08Z</time>
      </trkpt>
      <trkpt lat="48.62979" lon="-4.16958">
        <ele>68</ele>
        <time>2020-06-10T09:24:09Z</time>
      </trkpt>
      <trkpt lat="48.62978" lon="-4.16958">
        <ele>68</ele>
        <time>2020-06-10T09:24:10Z</time>
      </trkpt>
      <trkpt lat="48.62977" lon="-4.16958">
        <ele>68</ele>
        <time>2020-06-10T09:24:11Z</time>
      </trkpt>
      <trkpt lat="48.62975" lon="-4.16958">
        <ele>68</ele>
        <time>2020-06-10T09:24:12Z</time>
      </trkpt>
      <trkpt lat="48.62974" lon="-4.16958">
        <ele>68</ele>
        <time>2020-06-10T09:24:13Z</time>
      </trkpt>
      <trkpt lat="48.62973" lon="-4.16958">
        <ele>68</ele>
        <time>2020-06-10T09:24:14Z</time>
      </trkpt>
      <trkpt lat="48.62972" lon="-4.16957">
        <ele>68</ele>
        <time>2020-06-10T09:25:13Z</time>
      </trkpt>
      <trkpt lat="48.62971" lon="-4.16957">
        <ele>68</ele>
        <time>2020-06-10T09:25:14Z</time>
      </trkpt>
      <trkpt lat="48.62967" lon="-4.16957">
        <ele>67.9</ele>
        <time>2020-06-10T09:25:15Z</time>
      </trkpt>
      <trkpt lat="48.62962" lon="-4.16957">
        <ele>67.9</ele>
        <time>2020-06-10T09:25:16Z</time>
      </trkpt>
      <trkpt lat="48.62958" lon="-4.16956">
        <ele>68</ele>
        <time>2020-06-10T09:25:17Z</time>
      </trkpt>
      <trkpt lat="48.62954" lon="-4.16956">
        <ele>68</ele>
        <time>2020-06-10T09:25:18Z</time>
      </trkpt>
      <trkpt lat="48.62949" lon="-4.16956">
        <ele>68</ele>
        <time>2020-06-10T09:25:19Z</time>
      </trkpt>
      <trkpt lat="48.62944" lon="-4.16955">
        <ele>68</ele>
        <time>2020-06-10T09:25:20Z</time>
      </trkpt>
      <trkpt lat="48.6294" lon="-4.16954">
        <ele>68.1</ele>
        <time>2020-06-10T09:25:21Z</time>
      </trkpt>
      <trkpt lat="48.62934" lon="-4.16953">
        <ele>68.1</ele>
        <time>2020-06-10T09:25:22Z</time>
      </trkpt>
      <trkpt lat="48.62929" lon="-4.16951">
        <ele>68.2</ele>
        <time>2020-06-10T09:25:23Z</time>
      </trkpt>
      <trkpt lat="48.62922" lon="-4.16951">
        <ele>68.3</ele>
        <time>2020-06-10T09:25:24Z</time>
      </trkpt>
      <trkpt lat="48.62915" lon="-4.1695">
        <ele>68.4</ele>
        <time>2020-06-10T09:25:25Z</time>
      </trkpt>
      <trkpt lat="48.62908" lon="-4.16949">
        <ele>68.5</ele>
        <time>2020-06-10T09:25:26Z</time>
      </trkpt>
      <trkpt lat="48.62904" lon="-4.16946">
        <ele>68.6</ele>
        <time>2020-06-10T09:25:27Z</time>
      </trkpt>
      <trkpt lat="48.62898" lon="-4.16944">
        <ele>68.6</ele>
        <time>2020-06-10T09:25:28Z</time>
      </trkpt>
      <trkpt lat="48.62893" lon="-4.16941">
        <ele>68.7</ele>
        <time>2020-06-10T09:25:29Z</time>
      </trkpt>
      <trkpt lat="48.62888" lon="-4.16938">
        <ele>68.8</ele>
        <time>2020-06-10T09:25:30Z</time>
      </trkpt>
      <trkpt lat="48.62882" lon="-4.16937">
        <ele>68.8</ele>
        <time>2020-06-10T09:25:31Z</time>
      </trkpt>
      <trkpt lat="48.62875" lon="-4.16935">
        <ele>68.9</ele>
        <time>2020-06-10T09:25:32Z</time>
      </trkpt>
      <trkpt lat="48.62869" lon="-4.16935">
        <ele>69</ele>
        <time>2020-06-10T09:25:33Z</time>
      </trkpt>
      <trkpt lat="48.62863" lon="-4.16934">
        <ele>69.1</ele>
        <time>2020-06-10T09:25:34Z</time>
      </trkpt>
      <trkpt lat="48.62858" lon="-4.16933">
        <ele>69.2</ele>
        <time>2020-06-10T09:25:35Z</time>
      </trkpt>
      <trkpt lat="48.62854" lon="-4.16934">
        <ele>69.3</ele>
        <time>2020-06-10T09:25:36Z</time>
      </trkpt>
      <trkpt lat="48.62847" lon="-4.16932">
        <ele>69.4</ele>
        <time>2020-06-10T09:25:37Z</time>
      </trkpt>
      <trkpt lat="48.62841" lon="-4.16928">
        <ele>69.5</ele>
        <time>2020-06-10T09:25:38Z</time>
      </trkpt>
      <trkpt lat="48.62834" lon="-4.16924">
        <ele>69.6</ele>
        <time>2020-06-10T09:25:39Z</time>
      </trkpt>
      <trkpt lat="48.62828" lon="-4.16919">
        <ele>69.6</ele>
        <time>2020-06-10T09:25:40Z</time>
      </trkpt>
      <trkpt lat="48.62824" lon="-4.16917">
        <ele>69.6</ele>
        <time>2020-06-10T09:25:41Z</time>
      </trkpt>
      <trkpt lat="48.62819" lon="-4.16913">
        <ele>69.7</ele>
        <time>2020-06-10T09:25:42Z</time>
      </trkpt>
      <trkpt lat="48.62813" lon="-4.16909">
        <ele>69.7</ele>
        <time>2020-06-10T09:25:43Z</time>
      </trkpt>
      <trkpt lat="48.62807" lon="-4.16906">
        <ele>69.7</ele>
        <time>2020-06-10T09:25:44Z</time>
      </trkpt>
      <trkpt lat="48.62801" lon="-4.16901">
        <ele>69.8</ele>
        <time>2020-06-10T09:25:45Z</time>
      </trkpt>
      <trkpt lat="48.62795" lon="-4.16897">
        <ele>69.8</ele>
        <time>2020-06-10T09:25:46Z</time>
      </trkpt>
      <trkpt lat="48.62789" lon="-4.16894">
        <ele>69.9</ele>
        <time>2020-06-10T09:25:47Z</time>
      </trkpt>
      <trkpt lat="48.62784" lon="-4.16892">
        <ele>69.9</ele>
        <time>2020-06-10T09:25:48Z</time>
      </trkpt>
      <trkpt lat="48.62779" lon="-4.16889">
        <ele>69.9</ele>
        <time>2020-06-10T09:25:49Z</time>
      </trkpt>
      <trkpt lat="48.62773" lon="-4.16884">
        <ele>69.9</ele>
        <time>2020-06-10T09:25:50Z</time>
      </trkpt>
      <trkpt lat="48.62768" lon="-4.1688">
        <ele>70</ele>
        <time>2020-06-10T09:25:51Z</time>
      </trkpt>
      <trkpt lat="48.62763" lon="-4.16875">
        <ele>70</ele>
        <time>2020-06-10T09:25:52Z</time>
      </trkpt>
      <trkpt lat="48.62756" lon="-4.16871">
        <ele>70</ele>
        <time>2020-06-10T09:25:53Z</time>
      </trkpt>
      <trkpt lat="48.62751" lon="-4.16866">
        <ele>70</ele>
        <time>2020-06-10T09:25:54Z</time>
      </trkpt>
      <trkpt lat="48.62747" lon="-4.16862">
        <ele>70</ele>
        <time>2020-06-10T09:25:55Z</time>
      </trkpt>
      <trkpt lat="48.62741" lon="-4.16857">
        <ele>70</ele>
        <time>2020-06-10T09:25:56Z</time>
      </trkpt>
      <trkpt lat="48.62737" lon="-4.16853">
        <ele>70.1</ele>
        <time>2020-06-10T09:25:57Z</time>
      </trkpt>
      <trkpt lat="48.62732" lon="-4.16849">
        <ele>70.1</ele>
        <time>2020-06-10T09:25:58Z</time>
      </trkpt>
      <trkpt lat="48.62727" lon="-4.16845">
        <ele>70.1</ele>
        <time>2020-06-10T09:25:59Z</time>
      </trkpt>
      <trkpt lat="48.62722" lon="-4.16841">
        <ele>70.1</ele>
        <time>2020-06-10T09:26:00Z</time>
      </trkpt>
      <trkpt lat="48.62717" lon="-4.16837">
        <ele>70.1</ele>
        <time>2020-06-10T09:26:01Z</time>
      </trkpt>
      <trkpt lat="48.62711" lon="-4.16832">
        <ele>70.2</ele>
        <time>2020-06-10T09:26:02Z</time>
      </trkpt>
      <trkpt lat="48.62706" lon="-4.16827">
        <ele>70.2</ele>
        <time>2020-06-10T09:26:03Z</time>
      </trkpt>
      <trkpt lat="48.627" lon="-4.16822">
        <ele>70.2</ele>
        <time>2020-06-10T09:26:04Z</time>
      </trkpt>
      <trkpt lat="48.62694" lon="-4.16818">
        <ele>70.3</ele>
        <time>2020-06-10T09:26:05Z</time>
      </trkpt>
      <trkpt lat="48.62688" lon="-4.16813">
        <ele>70.3</ele>
        <time>2020-06-10T09:26:06Z</time>
      </trkpt>
      <trkpt lat="48.62683" lon="-4.16808">
        <ele>70.3</ele>
        <time>2020-06-10T09:26:07Z</time>
      </trkpt>
      <trkpt lat="48.62676" lon="-4.16803">
        <ele>70.4</ele>
        <time>2020-06-10T09:26:08Z</time>
      </trkpt>
      <trkpt lat="48.62671" lon="-4.16797">
        <ele>70.4</ele>
        <time>2020-06-10T09:26:09Z</time>
      </trkpt>
      <trkpt lat="48.62666" lon="-4.16793">
        <ele>70.4</ele>
        <time>2020-06-10T09:26:10Z</time>
      </trkpt>
      <trkpt lat="48.62661" lon="-4.16788">
        <ele>70.4</ele>
        <time>2020-06-10T09:26:11Z</time>
      </trkpt>
      <trkpt lat="48.62656" lon="-4.16783">
        <ele>70.4</ele>
        <time>2020-06-10T09:26:12Z</time>
      </trkpt>
      <trkpt lat="48.62651" lon="-4.16778">
        <ele>70.5</ele>
        <time>2020-06-10T09:26:13Z</time>
      </trkpt>
      <trkpt lat="48.62648" lon="-4.16775">
        <ele>70.5</ele>
        <time>2020-06-10T09:26:14Z</time>
      </trkpt>
      <trkpt lat="48.62644" lon="-4.16772">
        <ele>70.5</ele>
        <time>2020-06-10T09:26:15Z</time>
      </trkpt>
      <trkpt lat="48.62639" lon="-4.16767">
        <ele>70.6</ele>
        <time>2020-06-10T09:26:16Z</time>
      </trkpt>
      <trkpt lat="48.62634" lon="-4.16763">
        <ele>70.7</ele>
        <time>2020-06-10T09:26:17Z</time>
      </trkpt>
      <trkpt lat="48.62629" lon="-4.16759">
        <ele>70.8</ele>
        <time>2020-06-10T09:26:18Z</time>
      </trkpt>
      <trkpt lat="48.62624" lon="-4.16754">
        <ele>70.9</ele>
        <time>2020-06-10T09:26:19Z</time>
      </trkpt>
      <trkpt lat="48.62619" lon="-4.1675">
        <ele>71.1</ele>
        <time>2020-06-10T09:26:20Z</time>
      </trkpt>
      <trkpt lat="48.62614" lon="-4.16745">
        <ele>71.2</ele>
        <time>2020-06-10T09:26:21Z</time>
      </trkpt>
      <trkpt lat="48.6261" lon="-4.16743">
        <ele>71.2</ele>
        <time>2020-06-10T09:26:22Z</time>
      </trkpt>
      <trkpt lat="48.62606" lon="-4.16739">
        <ele>71.3</ele>
        <time>2020-06-10T09:26:23Z</time>
      </trkpt>
      <trkpt lat="48.62601" lon="-4.16735">
        <ele>71.3</ele>
        <time>2020-06-10T09:26:24Z</time>
      </trkpt>
      <trkpt lat="48.62597" lon="-4.16732">
        <ele>71.3</ele>
        <time>2020-06-10T09:26:25Z</time>
      </trkpt>
      <trkpt lat="48.62592" lon="-4.16728">
        <ele>71.4</ele>
        <time>2020-06-10T09:26:26Z</time>
      </trkpt>
      <trkpt lat="48.62588" lon="-4.16724">
        <ele>71.4</ele>
        <time>2020-06-10T09:26:27Z</time>
      </trkpt>
      <trkpt lat="48.62582" lon="-4.16721">
        <ele>71.4</ele>
        <time>2020-06-10T09:26:28Z</time>
      </trkpt>
      <trkpt lat="48.62576" lon="-4.16717">
        <ele>71.4</ele>
        <time>2020-06-10T09:26:29Z</time>
      </trkpt>
      <trkpt lat="48.62571" lon="-4.16713">
        <ele>71.4</ele>
        <time>2020-06-10T09:26:30Z</time>
      </trkpt>
      <trkpt lat="48.62566" lon="-4.1671">
        <ele>71.5</ele>
        <time>2020-06-10T09:26:31Z</time>
      </trkpt>
      <trkpt lat="48.62562" lon="-4.16707">
        <ele>71.5</ele>
        <time>2020-06-10T09:26:32Z</time>
      </trkpt>
      <trkpt lat="48.62557" lon="-4.16703">
        <ele>71.5</ele>
        <time>2020-06-10T09:26:33Z</time>
      </trkpt>
      <trkpt lat="48.62553" lon="-4.16699">
        <ele>71.5</ele>
        <time>2020-06-10T09:26:34Z</time>
      </trkpt>
      <trkpt lat="48.62549" lon="-4.16695">
        <ele>71.5</ele>
        <time>2020-06-10T09:26:35Z</time>
      </trkpt>
      <trkpt lat="48.62545" lon="-4.16691">
        <ele>71.6</ele>
        <time>2020-06-10T09:26:36Z</time>
      </trkpt>
      <trkpt lat="48.6254" lon="-4.16687">
        <ele>71.6</ele>
        <time>2020-06-10T09:26:37Z</time>
      </trkpt>
      <trkpt lat="48.62535" lon="-4.16683">
        <ele>71.6</ele>
        <time>2020-06-10T09:26:38Z</time>
      </trkpt>
      <trkpt lat="48.6253" lon="-4.1668">
        <ele>71.6</ele>
        <time>2020-06-10T09:26:39Z</time>
      </trkpt>
      <trkpt lat="48.62525" lon="-4.16677">
        <ele>71.6</ele>
        <time>2020-06-10T09:26:40Z</time>
      </trkpt>
      <trkpt lat="48.6252" lon="-4.16672">
        <ele>71.6</ele>
        <time>2020-06-10T09:26:41Z</time>
      </trkpt>
      <trkpt lat="48.62516" lon="-4.16668">
        <ele>71.7</ele>
        <time>2020-06-10T09:26:42Z</time>
      </trkpt>
      <trkpt lat="48.62511" lon="-4.16663">
        <ele>71.7</ele>
        <time>2020-06-10T09:26:43Z</time>
      </trkpt>
      <trkpt lat="48.62507" lon="-4.1666">
        <ele>71.8</ele>
        <time>2020-06-10T09:26:44Z</time>
      </trkpt>
      <trkpt lat="48.62503" lon="-4.16656">
        <ele>71.8</ele>
        <time>2020-06-10T09:26:45Z</time>
      </trkpt>
      <trkpt lat="48.62498" lon="-4.16653">
        <ele>71.8</ele>
        <time>2020-06-10T09:26:46Z</time>
      </trkpt>
      <trkpt lat="48.62494" lon="-4.16648">
        <ele>71.9</ele>
        <time>2020-06-10T09:26:47Z</time>
      </trkpt>
      <trkpt lat="48.6249" lon="-4.16644">
        <ele>71.9</ele>
        <time>2020-06-10T09:26:48Z</time>
      </trkpt>
      <trkpt lat="48.62486" lon="-4.16638">
        <ele>71.9</ele>
        <time>2020-06-10T09:26:49Z</time>
      </trkpt>
      <trkpt lat="48.62482" lon="-4.16633">
        <ele>71.9</ele>
        <time>2020-06-10T09:26:50Z</time>
      </trkpt>
      <trkpt lat="48.62478" lon="-4.1663">
        <ele>71.9</ele>
        <time>2020-06-10T09:26:51Z</time>
      </trkpt>
      <trkpt lat="48.62473" lon="-4.16625">
        <ele>72</ele>
        <time>2020-06-10T09:26:52Z</time>
      </trkpt>
      <trkpt lat="48.6247" lon="-4.16622">
        <ele>72</ele>
        <time>2020-06-10T09:26:53Z</time>
      </trkpt>
      <trkpt lat="48.62465" lon="-4.16617">
        <ele>72</ele>
        <time>2020-06-10T09:26:54Z</time>
      </trkpt>
      <trkpt lat="48.62461" lon="-4.16613">
        <ele>72.1</ele>
        <time>2020-06-10T09:26:55Z</time>
      </trkpt>
      <trkpt lat="48.62457" lon="-4.16609">
        <ele>72.1</ele>
        <time>2020-06-10T09:26:56Z</time>
      </trkpt>
      <trkpt lat="48.62453" lon="-4.16604">
        <ele>72.2</ele>
        <time>2020-06-10T09:26:57Z</time>
      </trkpt>
      <trkpt lat="48.6245" lon="-4.16602">
        <ele>72.2</ele>
        <time>2020-06-10T09:26:58Z</time>
      </trkpt>
      <trkpt lat="48.62446" lon="-4.16598">
        <ele>72.3</ele>
        <time>2020-06-10T09:26:59Z</time>
      </trkpt>
      <trkpt lat="48.62442" lon="-4.1659">
        <ele>72.5</ele>
        <time>2020-06-10T09:27:00Z</time>
      </trkpt>
      <trkpt lat="48.62437" lon="-4.16585">
        <ele>72.7</ele>
        <time>2020-06-10T09:27:01Z</time>
      </trkpt>
      <trkpt lat="48.62432" lon="-4.16579">
        <ele>72.9</ele>
        <time>2020-06-10T09:27:02Z</time>
      </trkpt>
      <trkpt lat="48.62429" lon="-4.16574">
        <ele>73</ele>
        <time>2020-06-10T09:27:03Z</time>
      </trkpt>
      <trkpt lat="48.62425" lon="-4.1657">
        <ele>73.1</ele>
        <time>2020-06-10T09:27:04Z</time>
      </trkpt>
      <trkpt lat="48.62421" lon="-4.16565">
        <ele>73.2</ele>
        <time>2020-06-10T09:27:05Z</time>
      </trkpt>
      <trkpt lat="48.62417" lon="-4.1656">
        <ele>73.3</ele>
        <time>2020-06-10T09:27:06Z</time>
      </trkpt>
      <trkpt lat="48.62413" lon="-4.16556">
        <ele>73.4</ele>
        <time>2020-06-10T09:27:07Z</time>
      </trkpt>
      <trkpt lat="48.6241" lon="-4.16551">
        <ele>73.5</ele>
        <time>2020-06-10T09:27:08Z</time>
      </trkpt>
      <trkpt lat="48.62405" lon="-4.16547">
        <ele>73.6</ele>
        <time>2020-06-10T09:27:09Z</time>
      </trkpt>
      <trkpt lat="48.624" lon="-4.16543">
        <ele>73.7</ele>
        <time>2020-06-10T09:27:10Z</time>
      </trkpt>
      <trkpt lat="48.62396" lon="-4.16537">
        <ele>73.9</ele>
        <time>2020-06-10T09:27:11Z</time>
      </trkpt>
      <trkpt lat="48.62392" lon="-4.16533">
        <ele>74</ele>
        <time>2020-06-10T09:27:12Z</time>
      </trkpt>
      <trkpt lat="48.62387" lon="-4.16526">
        <ele>74.1</ele>
        <time>2020-06-10T09:27:13Z</time>
      </trkpt>
      <trkpt lat="48.62383" lon="-4.16522">
        <ele>74.2</ele>
        <time>2020-06-10T09:27:14Z</time>
      </trkpt>
      <trkpt lat="48.62379" lon="-4.16516">
        <ele>74.3</ele>
        <time>2020-06-10T09:27:15Z</time>
      </trkpt>
      <trkpt lat="48.62375" lon="-4.16513">
        <ele>74.4</ele>
        <time>2020-06-10T09:27:16Z</time>
      </trkpt>
      <trkpt lat="48.62371" lon="-4.16507">
        <ele>74.5</ele>
        <time>2020-06-10T09:27:17Z</time>
      </trkpt>
      <trkpt lat="48.62367" lon="-4.16503">
        <ele>74.6</ele>
        <time>2020-06-10T09:27:18Z</time>
      </trkpt>
      <trkpt lat="48.62364" lon="-4.16498">
        <ele>74.7</ele>
        <time>2020-06-10T09:27:19Z</time>
      </trkpt>
      <trkpt lat="48.6236" lon="-4.16493">
        <ele>74.8</ele>
        <time>2020-06-10T09:27:20Z</time>
      </trkpt>
      <trkpt lat="48.62357" lon="-4.16488">
        <ele>74.9</ele>
        <time>2020-06-10T09:27:21Z</time>
      </trkpt>
      <trkpt lat="48.62353" lon="-4.16485">
        <ele>75</ele>
        <time>2020-06-10T09:27:22Z</time>
      </trkpt>
      <trkpt lat="48.6235" lon="-4.16481">
        <ele>75.1</ele>
        <time>2020-06-10T09:27:23Z</time>
      </trkpt>
      <trkpt lat="48.62346" lon="-4.16476">
        <ele>75.2</ele>
        <time>2020-06-10T09:27:24Z</time>
      </trkpt>
      <trkpt lat="48.62342" lon="-4.16472">
        <ele>75.3</ele>
        <time>2020-06-10T09:27:25Z</time>
      </trkpt>
      <trkpt lat="48.62337" lon="-4.16467">
        <ele>75.4</ele>
        <time>2020-06-10T09:27:26Z</time>
      </trkpt>
      <trkpt lat="48.62333" lon="-4.16463">
        <ele>75.5</ele>
        <time>2020-06-10T09:27:27Z</time>
      </trkpt>
      <trkpt lat="48.62329" lon="-4.16459">
        <ele>75.6</ele>
        <time>2020-06-10T09:27:28Z</time>
      </trkpt>
      <trkpt lat="48.62325" lon="-4.16454">
        <ele>75.7</ele>
        <time>2020-06-10T09:27:29Z</time>
      </trkpt>
      <trkpt lat="48.62321" lon="-4.1645">
        <ele>75.8</ele>
        <time>2020-06-10T09:27:30Z</time>
      </trkpt>
      <trkpt lat="48.62317" lon="-4.16444">
        <ele>75.9</ele>
        <time>2020-06-10T09:27:31Z</time>
      </trkpt>
      <trkpt lat="48.62314" lon="-4.1644">
        <ele>76</ele>
        <time>2020-06-10T09:27:32Z</time>
      </trkpt>
      <trkpt lat="48.62311" lon="-4.16437">
        <ele>76.1</ele>
        <time>2020-06-10T09:27:33Z</time>
      </trkpt>
      <trkpt lat="48.62308" lon="-4.16433">
        <ele>76.1</ele>
        <time>2020-06-10T09:27:34Z</time>
      </trkpt>
      <trkpt lat="48.62306" lon="-4.1643">
        <ele>76.2</ele>
        <time>2020-06-10T09:27:35Z</time>
      </trkpt>
      <trkpt lat="48.62304" lon="-4.16427">
        <ele>76.3</ele>
        <time>2020-06-10T09:27:36Z</time>
      </trkpt>
      <trkpt lat="48.62303" lon="-4.16427">
        <ele>76.3</ele>
        <time>2020-06-10T09:27:37Z</time>
      </trkpt>
      <trkpt lat="48.62303" lon="-4.16427">
        <ele>76.3</ele>
        <time>2020-06-10T09:27:38Z</time>
      </trkpt>
      <trkpt lat="48.62303" lon="-4.16426">
        <ele>76.3</ele>
        <time>2020-06-10T09:27:39Z</time>
      </trkpt>
      <trkpt lat="48.62301" lon="-4.16424">
        <ele>76.3</ele>
        <time>2020-06-10T09:27:40Z</time>
      </trkpt>
      <trkpt lat="48.62301" lon="-4.16424">
        <ele>76.4</ele>
        <time>2020-06-10T09:27:41Z</time>
      </trkpt>
      <trkpt lat="48.623" lon="-4.16424">
        <ele>76.4</ele>
        <time>2020-06-10T09:27:42Z</time>
      </trkpt>
      <trkpt lat="48.623" lon="-4.16423">
        <ele>76.4</ele>
        <time>2020-06-10T09:27:43Z</time>
      </trkpt>
      <trkpt lat="48.62297" lon="-4.16421">
        <ele>76.5</ele>
        <time>2020-06-10T09:27:44Z</time>
      </trkpt>
      <trkpt lat="48.62296" lon="-4.16421">
        <ele>76.5</ele>
        <time>2020-06-10T09:27:45Z</time>
      </trkpt>
      <trkpt lat="48.62292" lon="-4.16418">
        <ele>76.6</ele>
        <time>2020-06-10T09:27:46Z</time>
      </trkpt>
      <trkpt lat="48.6229" lon="-4.16417">
        <ele>76.6</ele>
        <time>2020-06-10T09:27:47Z</time>
      </trkpt>
      <trkpt lat="48.62287" lon="-4.16414">
        <ele>76.7</ele>
        <time>2020-06-10T09:27:48Z</time>
      </trkpt>
      <trkpt lat="48.62284" lon="-4.16412">
        <ele>76.8</ele>
        <time>2020-06-10T09:27:49Z</time>
      </trkpt>
      <trkpt lat="48.6228" lon="-4.1641">
        <ele>76.9</ele>
        <time>2020-06-10T09:27:50Z</time>
      </trkpt>
      <trkpt lat="48.62279" lon="-4.1641">
        <ele>76.9</ele>
        <time>2020-06-10T09:27:51Z</time>
      </trkpt>
      <trkpt lat="48.62276" lon="-4.16408">
        <ele>77</ele>
        <time>2020-06-10T09:27:52Z</time>
      </trkpt>
      <trkpt lat="48.62273" lon="-4.16405">
        <ele>77</ele>
        <time>2020-06-10T09:27:53Z</time>
      </trkpt>
      <trkpt lat="48.6227" lon="-4.16401">
        <ele>77.1</ele>
        <time>2020-06-10T09:27:54Z</time>
      </trkpt>
      <trkpt lat="48.62266" lon="-4.16397">
        <ele>77.1</ele>
        <time>2020-06-10T09:27:55Z</time>
      </trkpt>
      <trkpt lat="48.62263" lon="-4.16394">
        <ele>77.1</ele>
        <time>2020-06-10T09:27:56Z</time>
      </trkpt>
      <trkpt lat="48.62259" lon="-4.1639">
        <ele>77.1</ele>
        <time>2020-06-10T09:27:57Z</time>
      </trkpt>
      <trkpt lat="48.62256" lon="-4.16386">
        <ele>77.2</ele>
        <time>2020-06-10T09:27:58Z</time>
      </trkpt>
      <trkpt lat="48.62252" lon="-4.16383">
        <ele>77.2</ele>
        <time>2020-06-10T09:27:59Z</time>
      </trkpt>
      <trkpt lat="48.62249" lon="-4.1638">
        <ele>77.2</ele>
        <time>2020-06-10T09:28:00Z</time>
      </trkpt>
      <trkpt lat="48.62246" lon="-4.16376">
        <ele>77.2</ele>
        <time>2020-06-10T09:28:01Z</time>
      </trkpt>
      <trkpt lat="48.62243" lon="-4.16372">
        <ele>77.3</ele>
        <time>2020-06-10T09:28:02Z</time>
      </trkpt>
      <trkpt lat="48.62239" lon="-4.1637">
        <ele>77.3</ele>
        <time>2020-06-10T09:28:03Z</time>
      </trkpt>
      <trkpt lat="48.62236" lon="-4.16367">
        <ele>77.3</ele>
        <time>2020-06-10T09:28:04Z</time>
      </trkpt>
      <trkpt lat="48.62233" lon="-4.16365">
        <ele>77.4</ele>
        <time>2020-06-10T09:28:05Z</time>
      </trkpt>
      <trkpt lat="48.62229" lon="-4.16362">
        <ele>77.4</ele>
        <time>2020-06-10T09:28:06Z</time>
      </trkpt>
      <trkpt lat="48.62226" lon="-4.16359">
        <ele>77.4</ele>
        <time>2020-06-10T09:28:07Z</time>
      </trkpt>
      <trkpt lat="48.62223" lon="-4.16356">
        <ele>77.4</ele>
        <time>2020-06-10T09:28:08Z</time>
      </trkpt>
      <trkpt lat="48.62219" lon="-4.16351">
        <ele>77.5</ele>
        <time>2020-06-10T09:28:09Z</time>
      </trkpt>
      <trkpt lat="48.62216" lon="-4.16349">
        <ele>77.5</ele>
        <time>2020-06-10T09:28:10Z</time>
      </trkpt>
      <trkpt lat="48.62213" lon="-4.16347">
        <ele>77.5</ele>
        <time>2020-06-10T09:28:11Z</time>
      </trkpt>
      <trkpt lat="48.62209" lon="-4.16344">
        <ele>77.5</ele>
        <time>2020-06-10T09:28:12Z</time>
      </trkpt>
      <trkpt lat="48.62206" lon="-4.16341">
        <ele>77.5</ele>
        <time>2020-06-10T09:28:13Z</time>
      </trkpt>
      <trkpt lat="48.62203" lon="-4.16339">
        <ele>77.5</ele>
        <time>2020-06-10T09:28:14Z</time>
      </trkpt>
      <trkpt lat="48.62199" lon="-4.16336">
        <ele>77.5</ele>
        <time>2020-06-10T09:28:15Z</time>
      </trkpt>
      <trkpt lat="48.62196" lon="-4.16333">
        <ele>77.5</ele>
        <time>2020-06-10T09:28:16Z</time>
      </trkpt>
      <trkpt lat="48.62192" lon="-4.1633">
        <ele>77.5</ele>
        <time>2020-06-10T09:28:17Z</time>
      </trkpt>
      <trkpt lat="48.62188" lon="-4.16328">
        <ele>77.5</ele>
        <time>2020-06-10T09:28:18Z</time>
      </trkpt>
      <trkpt lat="48.62184" lon="-4.16325">
        <ele>77.5</ele>
        <time>2020-06-10T09:28:19Z</time>
      </trkpt>
      <trkpt lat="48.6218" lon="-4.16322">
        <ele>77.5</ele>
        <time>2020-06-10T09:28:20Z</time>
      </trkpt>
      <trkpt lat="48.62177" lon="-4.16319">
        <ele>77.5</ele>
        <time>2020-06-10T09:28:21Z</time>
      </trkpt>
      <trkpt lat="48.62173" lon="-4.16316">
        <ele>77.5</ele>
        <time>2020-06-10T09:28:22Z</time>
      </trkpt>
      <trkpt lat="48.62169" lon="-4.16313">
        <ele>77.5</ele>
        <time>2020-06-10T09:28:23Z</time>
      </trkpt>
      <trkpt lat="48.62166" lon="-4.1631">
        <ele>77.5</ele>
        <time>2020-06-10T09:28:24Z</time>
      </trkpt>
      <trkpt lat="48.62162" lon="-4.16307">
        <ele>77.4</ele>
        <time>2020-06-10T09:28:25Z</time>
      </trkpt>
      <trkpt lat="48.62159" lon="-4.16305">
        <ele>77.4</ele>
        <time>2020-06-10T09:28:26Z</time>
      </trkpt>
      <trkpt lat="48.62155" lon="-4.16303">
        <ele>77.4</ele>
        <time>2020-06-10T09:28:27Z</time>
      </trkpt>
      <trkpt lat="48.62151" lon="-4.163">
        <ele>77.3</ele>
        <time>2020-06-10T09:28:28Z</time>
      </trkpt>
      <trkpt lat="48.62147" lon="-4.16297">
        <ele>77.3</ele>
        <time>2020-06-10T09:28:29Z</time>
      </trkpt>
      <trkpt lat="48.62143" lon="-4.16295">
        <ele>77.3</ele>
        <time>2020-06-10T09:28:30Z</time>
      </trkpt>
      <trkpt lat="48.62139" lon="-4.16293">
        <ele>77.3</ele>
        <time>2020-06-10T09:28:31Z</time>
      </trkpt>
      <trkpt lat="48.62135" lon="-4.16292">
        <ele>77.3</ele>
        <time>2020-06-10T09:28:32Z</time>
      </trkpt>
      <trkpt lat="48.62131" lon="-4.16289">
        <ele>77.2</ele>
        <time>2020-06-10T09:28:33Z</time>
      </trkpt>
      <trkpt lat="48.62128" lon="-4.16286">
        <ele>77.2</ele>
        <time>2020-06-10T09:28:34Z</time>
      </trkpt>
      <trkpt lat="48.62124" lon="-4.16284">
        <ele>77.2</ele>
        <time>2020-06-10T09:28:35Z</time>
      </trkpt>
      <trkpt lat="48.6212" lon="-4.16282">
        <ele>77.2</ele>
        <time>2020-06-10T09:28:36Z</time>
      </trkpt>
      <trkpt lat="48.62117" lon="-4.1628">
        <ele>77.1</ele>
        <time>2020-06-10T09:28:37Z</time>
      </trkpt>
      <trkpt lat="48.62113" lon="-4.16277">
        <ele>77.1</ele>
        <time>2020-06-10T09:28:38Z</time>
      </trkpt>
      <trkpt lat="48.62109" lon="-4.16274">
        <ele>77</ele>
        <time>2020-06-10T09:28:39Z</time>
      </trkpt>
      <trkpt lat="48.62105" lon="-4.16271">
        <ele>77</ele>
        <time>2020-06-10T09:28:40Z</time>
      </trkpt>
      <trkpt lat="48.62101" lon="-4.16268">
        <ele>76.9</ele>
        <time>2020-06-10T09:28:41Z</time>
      </trkpt>
      <trkpt lat="48.62097" lon="-4.16266">
        <ele>76.8</ele>
        <time>2020-06-10T09:28:42Z</time>
      </trkpt>
      <trkpt lat="48.62093" lon="-4.16262">
        <ele>76.8</ele>
        <time>2020-06-10T09:28:43Z</time>
      </trkpt>
      <trkpt lat="48.62089" lon="-4.16259">
        <ele>76.7</ele>
        <time>2020-06-10T09:28:44Z</time>
      </trkpt>
      <trkpt lat="48.62086" lon="-4.16257">
        <ele>76.6</ele>
        <time>2020-06-10T09:28:45Z</time>
      </trkpt>
      <trkpt lat="48.62081" lon="-4.16255">
        <ele>76.6</ele>
        <time>2020-06-10T09:28:46Z</time>
      </trkpt>
      <trkpt lat="48.62077" lon="-4.16254">
        <ele>76.5</ele>
        <time>2020-06-10T09:28:47Z</time>
      </trkpt>
      <trkpt lat="48.62073" lon="-4.16252">
        <ele>76.4</ele>
        <time>2020-06-10T09:28:48Z</time>
      </trkpt>
      <trkpt lat="48.62069" lon="-4.16249">
        <ele>76.3</ele>
        <time>2020-06-10T09:28:49Z</time>
      </trkpt>
      <trkpt lat="48.62065" lon="-4.16247">
        <ele>76.3</ele>
        <time>2020-06-10T09:28:50Z</time>
      </trkpt>
      <trkpt lat="48.62061" lon="-4.16243">
        <ele>76.2</ele>
        <time>2020-06-10T09:28:51Z</time>
      </trkpt>
      <trkpt lat="48.62057" lon="-4.16241">
        <ele>76.1</ele>
        <time>2020-06-10T09:28:52Z</time>
      </trkpt>
      <trkpt lat="48.62053" lon="-4.16238">
        <ele>76</ele>
        <time>2020-06-10T09:28:53Z</time>
      </trkpt>
      <trkpt lat="48.62048" lon="-4.16234">
        <ele>75.9</ele>
        <time>2020-06-10T09:28:54Z</time>
      </trkpt>
      <trkpt lat="48.62044" lon="-4.1623">
        <ele>75.7</ele>
        <time>2020-06-10T09:28:55Z</time>
      </trkpt>
      <trkpt lat="48.62039" lon="-4.16228">
        <ele>75.6</ele>
        <time>2020-06-10T09:28:56Z</time>
      </trkpt>
      <trkpt lat="48.62035" lon="-4.16225">
        <ele>75.5</ele>
        <time>2020-06-10T09:28:57Z</time>
      </trkpt>
      <trkpt lat="48.6203" lon="-4.16222">
        <ele>75.4</ele>
        <time>2020-06-10T09:28:58Z</time>
      </trkpt>
      <trkpt lat="48.62025" lon="-4.1622">
        <ele>75.2</ele>
        <time>2020-06-10T09:28:59Z</time>
      </trkpt>
      <trkpt lat="48.62021" lon="-4.16217">
        <ele>75.1</ele>
        <time>2020-06-10T09:29:00Z</time>
      </trkpt>
      <trkpt lat="48.62016" lon="-4.16215">
        <ele>75</ele>
        <time>2020-06-10T09:29:01Z</time>
      </trkpt>
      <trkpt lat="48.62012" lon="-4.16212">
        <ele>74.9</ele>
        <time>2020-06-10T09:29:02Z</time>
      </trkpt>
      <trkpt lat="48.62007" lon="-4.1621">
        <ele>74.7</ele>
        <time>2020-06-10T09:29:03Z</time>
      </trkpt>
      <trkpt lat="48.62002" lon="-4.16207">
        <ele>74.6</ele>
        <time>2020-06-10T09:29:04Z</time>
      </trkpt>
      <trkpt lat="48.61998" lon="-4.16205">
        <ele>74.5</ele>
        <time>2020-06-10T09:29:05Z</time>
      </trkpt>
      <trkpt lat="48.61993" lon="-4.16202">
        <ele>74.3</ele>
        <time>2020-06-10T09:29:06Z</time>
      </trkpt>
      <trkpt lat="48.61988" lon="-4.16199">
        <ele>74.2</ele>
        <time>2020-06-10T09:29:07Z</time>
      </trkpt>
      <trkpt lat="48.61983" lon="-4.16196">
        <ele>74.1</ele>
        <time>2020-06-10T09:29:08Z</time>
      </trkpt>
      <trkpt lat="48.61978" lon="-4.16193">
        <ele>73.9</ele>
        <time>2020-06-10T09:29:09Z</time>
      </trkpt>
      <trkpt lat="48.61972" lon="-4.16189">
        <ele>73.8</ele>
        <time>2020-06-10T09:29:10Z</time>
      </trkpt>
      <trkpt lat="48.61967" lon="-4.16186">
        <ele>73.7</ele>
        <time>2020-06-10T09:29:11Z</time>
      </trkpt>
      <trkpt lat="48.61961" lon="-4.16184">
        <ele>73.6</ele>
        <time>2020-06-10T09:29:12Z</time>
      </trkpt>
      <trkpt lat="48.61956" lon="-4.16181">
        <ele>73.5</ele>
        <time>2020-06-10T09:29:13Z</time>
      </trkpt>
      <trkpt lat="48.6195" lon="-4.16178">
        <ele>73.4</ele>
        <time>2020-06-10T09:29:14Z</time>
      </trkpt>
      <trkpt lat="48.61944" lon="-4.16175">
        <ele>73.4</ele>
        <time>2020-06-10T09:29:15Z</time>
      </trkpt>
      <trkpt lat="48.61939" lon="-4.16172">
        <ele>73.3</ele>
        <time>2020-06-10T09:29:16Z</time>
      </trkpt>
      <trkpt lat="48.61934" lon="-4.16168">
        <ele>73.1</ele>
        <time>2020-06-10T09:29:17Z</time>
      </trkpt>
      <trkpt lat="48.61929" lon="-4.16165">
        <ele>73</ele>
        <time>2020-06-10T09:29:18Z</time>
      </trkpt>
      <trkpt lat="48.61923" lon="-4.16163">
        <ele>72.8</ele>
        <time>2020-06-10T09:29:19Z</time>
      </trkpt>
      <trkpt lat="48.61917" lon="-4.16159">
        <ele>72.5</ele>
        <time>2020-06-10T09:29:20Z</time>
      </trkpt>
      <trkpt lat="48.61912" lon="-4.16155">
        <ele>72.3</ele>
        <time>2020-06-10T09:29:21Z</time>
      </trkpt>
      <trkpt lat="48.61906" lon="-4.16152">
        <ele>72.1</ele>
        <time>2020-06-10T09:29:22Z</time>
      </trkpt>
      <trkpt lat="48.619" lon="-4.16148">
        <ele>71.9</ele>
        <time>2020-06-10T09:29:23Z</time>
      </trkpt>
      <trkpt lat="48.61895" lon="-4.16145">
        <ele>71.6</ele>
        <time>2020-06-10T09:29:24Z</time>
      </trkpt>
      <trkpt lat="48.61889" lon="-4.16141">
        <ele>71.3</ele>
        <time>2020-06-10T09:29:25Z</time>
      </trkpt>
      <trkpt lat="48.61883" lon="-4.16136">
        <ele>70.9</ele>
        <time>2020-06-10T09:29:26Z</time>
      </trkpt>
      <trkpt lat="48.61877" lon="-4.16132">
        <ele>70.6</ele>
        <time>2020-06-10T09:29:27Z</time>
      </trkpt>
      <trkpt lat="48.61871" lon="-4.16127">
        <ele>70.3</ele>
        <time>2020-06-10T09:29:28Z</time>
      </trkpt>
      <trkpt lat="48.61864" lon="-4.16122">
        <ele>70</ele>
        <time>2020-06-10T09:29:29Z</time>
      </trkpt>
      <trkpt lat="48.61858" lon="-4.16116">
        <ele>69.7</ele>
        <time>2020-06-10T09:29:30Z</time>
      </trkpt>
      <trkpt lat="48.61852" lon="-4.16111">
        <ele>69.5</ele>
        <time>2020-06-10T09:29:31Z</time>
      </trkpt>
      <trkpt lat="48.61847" lon="-4.16105">
        <ele>69.3</ele>
        <time>2020-06-10T09:29:32Z</time>
      </trkpt>
      <trkpt lat="48.61841" lon="-4.16099">
        <ele>69.1</ele>
        <time>2020-06-10T09:29:33Z</time>
      </trkpt>
      <trkpt lat="48.61836" lon="-4.16093">
        <ele>68.9</ele>
        <time>2020-06-10T09:29:34Z</time>
      </trkpt>
      <trkpt lat="48.6183" lon="-4.16087">
        <ele>68.7</ele>
        <time>2020-06-10T09:29:35Z</time>
      </trkpt>
      <trkpt lat="48.61825" lon="-4.16081">
        <ele>68.5</ele>
        <time>2020-06-10T09:29:36Z</time>
      </trkpt>
      <trkpt lat="48.6182" lon="-4.16075">
        <ele>68.3</ele>
        <time>2020-06-10T09:29:37Z</time>
      </trkpt>
      <trkpt lat="48.61815" lon="-4.1607">
        <ele>68.2</ele>
        <time>2020-06-10T09:29:38Z</time>
      </trkpt>
      <trkpt lat="48.61811" lon="-4.16064">
        <ele>68.2</ele>
        <time>2020-06-10T09:29:39Z</time>
      </trkpt>
      <trkpt lat="48.61806" lon="-4.16058">
        <ele>68.1</ele>
        <time>2020-06-10T09:29:40Z</time>
      </trkpt>
      <trkpt lat="48.61802" lon="-4.16052">
        <ele>68.2</ele>
        <time>2020-06-10T09:29:41Z</time>
      </trkpt>
      <trkpt lat="48.61798" lon="-4.16046">
        <ele>68.2</ele>
        <time>2020-06-10T09:29:42Z</time>
      </trkpt>
      <trkpt lat="48.61793" lon="-4.16041">
        <ele>68.3</ele>
        <time>2020-06-10T09:29:43Z</time>
      </trkpt>
      <trkpt lat="48.61789" lon="-4.16035">
        <ele>68.4</ele>
        <time>2020-06-10T09:29:44Z</time>
      </trkpt>
      <trkpt lat="48.61785" lon="-4.1603">
        <ele>68.5</ele>
        <time>2020-06-10T09:29:45Z</time>
      </trkpt>
      <trkpt lat="48.61782" lon="-4.16024">
        <ele>68.6</ele>
        <time>2020-06-10T09:29:46Z</time>
      </trkpt>
      <trkpt lat="48.61778" lon="-4.16019">
        <ele>68.7</ele>
        <time>2020-06-10T09:29:47Z</time>
      </trkpt>
      <trkpt lat="48.61774" lon="-4.16014">
        <ele>68.8</ele>
        <time>2020-06-10T09:29:48Z</time>
      </trkpt>
      <trkpt lat="48.6177" lon="-4.16008">
        <ele>68.9</ele>
        <time>2020-06-10T09:29:49Z</time>
      </trkpt>
      <trkpt lat="48.61767" lon="-4.16003">
        <ele>69.1</ele>
        <time>2020-06-10T09:29:50Z</time>
      </trkpt>
      <trkpt lat="48.61764" lon="-4.15997">
        <ele>69.2</ele>
        <time>2020-06-10T09:29:51Z</time>
      </trkpt>
      <trkpt lat="48.61761" lon="-4.15991">
        <ele>69.4</ele>
        <time>2020-06-10T09:29:52Z</time>
      </trkpt>
      <trkpt lat="48.61758" lon="-4.15986">
        <ele>69.5</ele>
        <time>2020-06-10T09:29:53Z</time>
      </trkpt>
      <trkpt lat="48.61754" lon="-4.1598">
        <ele>69.6</ele>
        <time>2020-06-10T09:29:54Z</time>
      </trkpt>
      <trkpt lat="48.61751" lon="-4.15976">
        <ele>69.8</ele>
        <time>2020-06-10T09:29:55Z</time>
      </trkpt>
      <trkpt lat="48.61748" lon="-4.1597">
        <ele>69.9</ele>
        <time>2020-06-10T09:29:56Z</time>
      </trkpt>
      <trkpt lat="48.61745" lon="-4.15965">
        <ele>70</ele>
        <time>2020-06-10T09:29:57Z</time>
      </trkpt>
      <trkpt lat="48.61742" lon="-4.1596">
        <ele>70.2</ele>
        <time>2020-06-10T09:29:58Z</time>
      </trkpt>
      <trkpt lat="48.61739" lon="-4.15955">
        <ele>70.3</ele>
        <time>2020-06-10T09:29:59Z</time>
      </trkpt>
      <trkpt lat="48.61736" lon="-4.1595">
        <ele>70.5</ele>
        <time>2020-06-10T09:30:00Z</time>
      </trkpt>
      <trkpt lat="48.61733" lon="-4.15945">
        <ele>70.7</ele>
        <time>2020-06-10T09:30:01Z</time>
      </trkpt>
      <trkpt lat="48.61731" lon="-4.15941">
        <ele>70.8</ele>
        <time>2020-06-10T09:30:02Z</time>
      </trkpt>
      <trkpt lat="48.61728" lon="-4.15936">
        <ele>71</ele>
        <time>2020-06-10T09:30:03Z</time>
      </trkpt>
      <trkpt lat="48.61726" lon="-4.15931">
        <ele>71.2</ele>
        <time>2020-06-10T09:30:04Z</time>
      </trkpt>
      <trkpt lat="48.61724" lon="-4.15925">
        <ele>71.4</ele>
        <time>2020-06-10T09:30:05Z</time>
      </trkpt>
      <trkpt lat="48.61721" lon="-4.1592">
        <ele>71.5</ele>
        <time>2020-06-10T09:30:06Z</time>
      </trkpt>
      <trkpt lat="48.61719" lon="-4.15914">
        <ele>71.7</ele>
        <time>2020-06-10T09:30:07Z</time>
      </trkpt>
      <trkpt lat="48.61716" lon="-4.15909">
        <ele>71.9</ele>
        <time>2020-06-10T09:30:08Z</time>
      </trkpt>
      <trkpt lat="48.61714" lon="-4.15904">
        <ele>72.1</ele>
        <time>2020-06-10T09:30:09Z</time>
      </trkpt>
      <trkpt lat="48.61711" lon="-4.15899">
        <ele>72.2</ele>
        <time>2020-06-10T09:30:10Z</time>
      </trkpt>
      <trkpt lat="48.61708" lon="-4.15894">
        <ele>72.4</ele>
        <time>2020-06-10T09:30:11Z</time>
      </trkpt>
      <trkpt lat="48.61706" lon="-4.15889">
        <ele>72.6</ele>
        <time>2020-06-10T09:30:12Z</time>
      </trkpt>
      <trkpt lat="48.61704" lon="-4.15884">
        <ele>72.7</ele>
        <time>2020-06-10T09:30:13Z</time>
      </trkpt>
      <trkpt lat="48.61701" lon="-4.15879">
        <ele>72.9</ele>
        <time>2020-06-10T09:30:14Z</time>
      </trkpt>
      <trkpt lat="48.61699" lon="-4.15874">
        <ele>73</ele>
        <time>2020-06-10T09:30:15Z</time>
      </trkpt>
      <trkpt lat="48.61696" lon="-4.15869">
        <ele>73.2</ele>
        <time>2020-06-10T09:30:16Z</time>
      </trkpt>
      <trkpt lat="48.61694" lon="-4.15864">
        <ele>73.3</ele>
        <time>2020-06-10T09:30:17Z</time>
      </trkpt>
      <trkpt lat="48.61692" lon="-4.15859">
        <ele>73.4</ele>
        <time>2020-06-10T09:30:18Z</time>
      </trkpt>
      <trkpt lat="48.6169" lon="-4.15854">
        <ele>73.6</ele>
        <time>2020-06-10T09:30:19Z</time>
      </trkpt>
      <trkpt lat="48.61687" lon="-4.1585">
        <ele>73.7</ele>
        <time>2020-06-10T09:30:20Z</time>
      </trkpt>
      <trkpt lat="48.61685" lon="-4.15846">
        <ele>73.8</ele>
        <time>2020-06-10T09:30:21Z</time>
      </trkpt>
      <trkpt lat="48.61682" lon="-4.15841">
        <ele>74</ele>
        <time>2020-06-10T09:30:22Z</time>
      </trkpt>
      <trkpt lat="48.6168" lon="-4.15836">
        <ele>74.1</ele>
        <time>2020-06-10T09:30:23Z</time>
      </trkpt>
      <trkpt lat="48.61678" lon="-4.15831">
        <ele>74.2</ele>
        <time>2020-06-10T09:30:24Z</time>
      </trkpt>
      <trkpt lat="48.61675" lon="-4.15826">
        <ele>74.4</ele>
        <time>2020-06-10T09:30:25Z</time>
      </trkpt>
      <trkpt lat="48.61673" lon="-4.15822">
        <ele>74.5</ele>
        <time>2020-06-10T09:30:26Z</time>
      </trkpt>
      <trkpt lat="48.6167" lon="-4.15818">
        <ele>74.6</ele>
        <time>2020-06-10T09:30:27Z</time>
      </trkpt>
      <trkpt lat="48.61668" lon="-4.15812">
        <ele>74.8</ele>
        <time>2020-06-10T09:30:28Z</time>
      </trkpt>
      <trkpt lat="48.61665" lon="-4.15808">
        <ele>74.9</ele>
        <time>2020-06-10T09:30:29Z</time>
      </trkpt>
      <trkpt lat="48.61663" lon="-4.15802">
        <ele>75</ele>
        <time>2020-06-10T09:30:30Z</time>
      </trkpt>
      <trkpt lat="48.6166" lon="-4.15797">
        <ele>75.2</ele>
        <time>2020-06-10T09:30:31Z</time>
      </trkpt>
      <trkpt lat="48.61657" lon="-4.15792">
        <ele>75.3</ele>
        <time>2020-06-10T09:30:32Z</time>
      </trkpt>
      <trkpt lat="48.61655" lon="-4.15787">
        <ele>75.5</ele>
        <time>2020-06-10T09:30:33Z</time>
      </trkpt>
      <trkpt lat="48.61652" lon="-4.15782">
        <ele>75.7</ele>
        <time>2020-06-10T09:30:34Z</time>
      </trkpt>
      <trkpt lat="48.6165" lon="-4.15778">
        <ele>75.8</ele>
        <time>2020-06-10T09:30:35Z</time>
      </trkpt>
      <trkpt lat="48.61647" lon="-4.15773">
        <ele>75.9</ele>
        <time>2020-06-10T09:30:36Z</time>
      </trkpt>
      <trkpt lat="48.61645" lon="-4.15769">
        <ele>76.1</ele>
        <time>2020-06-10T09:30:37Z</time>
      </trkpt>
      <trkpt lat="48.61643" lon="-4.15764">
        <ele>76.2</ele>
        <time>2020-06-10T09:30:38Z</time>
      </trkpt>
      <trkpt lat="48.6164" lon="-4.15758">
        <ele>76.4</ele>
        <time>2020-06-10T09:30:39Z</time>
      </trkpt>
      <trkpt lat="48.61639" lon="-4.15754">
        <ele>76.5</ele>
        <time>2020-06-10T09:30:40Z</time>
      </trkpt>
      <trkpt lat="48.61636" lon="-4.15748">
        <ele>76.7</ele>
        <time>2020-06-10T09:30:41Z</time>
      </trkpt>
      <trkpt lat="48.61634" lon="-4.15743">
        <ele>76.8</ele>
        <time>2020-06-10T09:30:42Z</time>
      </trkpt>
      <trkpt lat="48.61632" lon="-4.15737">
        <ele>76.9</ele>
        <time>2020-06-10T09:30:43Z</time>
      </trkpt>
      <trkpt lat="48.61629" lon="-4.15732">
        <ele>77</ele>
        <time>2020-06-10T09:30:44Z</time>
      </trkpt>
      <trkpt lat="48.61627" lon="-4.15727">
        <ele>77.2</ele>
        <time>2020-06-10T09:30:45Z</time>
      </trkpt>
      <trkpt lat="48.61625" lon="-4.15722">
        <ele>77.3</ele>
        <time>2020-06-10T09:30:46Z</time>
      </trkpt>
      <trkpt lat="48.61622" lon="-4.15717">
        <ele>77.4</ele>
        <time>2020-06-10T09:30:47Z</time>
      </trkpt>
      <trkpt lat="48.6162" lon="-4.15712">
        <ele>77.6</ele>
        <time>2020-06-10T09:30:48Z</time>
      </trkpt>
      <trkpt lat="48.61618" lon="-4.15707">
        <ele>77.7</ele>
        <time>2020-06-10T09:30:49Z</time>
      </trkpt>
      <trkpt lat="48.61616" lon="-4.15703">
        <ele>77.8</ele>
        <time>2020-06-10T09:30:50Z</time>
      </trkpt>
      <trkpt lat="48.61614" lon="-4.15699">
        <ele>77.9</ele>
        <time>2020-06-10T09:30:51Z</time>
      </trkpt>
      <trkpt lat="48.61612" lon="-4.15694">
        <ele>78</ele>
        <time>2020-06-10T09:30:52Z</time>
      </trkpt>
      <trkpt lat="48.61609" lon="-4.15688">
        <ele>78.1</ele>
        <time>2020-06-10T09:30:53Z</time>
      </trkpt>
      <trkpt lat="48.61607" lon="-4.15682">
        <ele>78.2</ele>
        <time>2020-06-10T09:30:54Z</time>
      </trkpt>
      <trkpt lat="48.61604" lon="-4.15678">
        <ele>78.3</ele>
        <time>2020-06-10T09:30:55Z</time>
      </trkpt>
      <trkpt lat="48.61602" lon="-4.15673">
        <ele>78.3</ele>
        <time>2020-06-10T09:30:56Z</time>
      </trkpt>
      <trkpt lat="48.616" lon="-4.15667">
        <ele>78.4</ele>
        <time>2020-06-10T09:30:57Z</time>
      </trkpt>
      <trkpt lat="48.61597" lon="-4.15662">
        <ele>78.5</ele>
        <time>2020-06-10T09:30:58Z</time>
      </trkpt>
      <trkpt lat="48.61595" lon="-4.15658">
        <ele>78.6</ele>
        <time>2020-06-10T09:30:59Z</time>
      </trkpt>
      <trkpt lat="48.61593" lon="-4.15653">
        <ele>78.6</ele>
        <time>2020-06-10T09:31:00Z</time>
      </trkpt>
      <trkpt lat="48.6159" lon="-4.15649">
        <ele>78.7</ele>
        <time>2020-06-10T09:31:01Z</time>
      </trkpt>
      <trkpt lat="48.61588" lon="-4.15643">
        <ele>78.8</ele>
        <time>2020-06-10T09:31:02Z</time>
      </trkpt>
      <trkpt lat="48.61585" lon="-4.15639">
        <ele>78.8</ele>
        <time>2020-06-10T09:31:03Z</time>
      </trkpt>
      <trkpt lat="48.61583" lon="-4.15634">
        <ele>78.9</ele>
        <time>2020-06-10T09:31:04Z</time>
      </trkpt>
      <trkpt lat="48.6158" lon="-4.15629">
        <ele>78.9</ele>
        <time>2020-06-10T09:31:05Z</time>
      </trkpt>
      <trkpt lat="48.61577" lon="-4.15624">
        <ele>78.9</ele>
        <time>2020-06-10T09:31:06Z</time>
      </trkpt>
      <trkpt lat="48.61574" lon="-4.1562">
        <ele>79</ele>
        <time>2020-06-10T09:31:07Z</time>
      </trkpt>
      <trkpt lat="48.61572" lon="-4.15617">
        <ele>79</ele>
        <time>2020-06-10T09:31:08Z</time>
      </trkpt>
      <trkpt lat="48.6157" lon="-4.15613">
        <ele>79</ele>
        <time>2020-06-10T09:31:09Z</time>
      </trkpt>
      <trkpt lat="48.61569" lon="-4.15611">
        <ele>79</ele>
        <time>2020-06-10T09:31:10Z</time>
      </trkpt>
      <trkpt lat="48.61568" lon="-4.15607">
        <ele>79</ele>
        <time>2020-06-10T09:31:11Z</time>
      </trkpt>
      <trkpt lat="48.61565" lon="-4.15603">
        <ele>79</ele>
        <time>2020-06-10T09:31:12Z</time>
      </trkpt>
      <trkpt lat="48.61563" lon="-4.15598">
        <ele>79</ele>
        <time>2020-06-10T09:31:13Z</time>
      </trkpt>
      <trkpt lat="48.61561" lon="-4.15593">
        <ele>78.9</ele>
        <time>2020-06-10T09:31:14Z</time>
      </trkpt>
      <trkpt lat="48.61558" lon="-4.15587">
        <ele>78.9</ele>
        <time>2020-06-10T09:31:15Z</time>
      </trkpt>
      <trkpt lat="48.61555" lon="-4.15582">
        <ele>78.8</ele>
        <time>2020-06-10T09:31:16Z</time>
      </trkpt>
      <trkpt lat="48.61553" lon="-4.15576">
        <ele>78.8</ele>
        <time>2020-06-10T09:31:17Z</time>
      </trkpt>
      <trkpt lat="48.6155" lon="-4.1557">
        <ele>78.7</ele>
        <time>2020-06-10T09:31:18Z</time>
      </trkpt>
      <trkpt lat="48.61548" lon="-4.15565">
        <ele>78.7</ele>
        <time>2020-06-10T09:31:19Z</time>
      </trkpt>
      <trkpt lat="48.61545" lon="-4.15559">
        <ele>78.6</ele>
        <time>2020-06-10T09:31:20Z</time>
      </trkpt>
      <trkpt lat="48.61542" lon="-4.15554">
        <ele>78.5</ele>
        <time>2020-06-10T09:31:21Z</time>
      </trkpt>
      <trkpt lat="48.61539" lon="-4.15548">
        <ele>78.5</ele>
        <time>2020-06-10T09:31:22Z</time>
      </trkpt>
      <trkpt lat="48.61536" lon="-4.15542">
        <ele>78.4</ele>
        <time>2020-06-10T09:31:23Z</time>
      </trkpt>
      <trkpt lat="48.61534" lon="-4.15535">
        <ele>78.3</ele>
        <time>2020-06-10T09:31:24Z</time>
      </trkpt>
      <trkpt lat="48.6153" lon="-4.15529">
        <ele>78.2</ele>
        <time>2020-06-10T09:31:25Z</time>
      </trkpt>
      <trkpt lat="48.61527" lon="-4.15524">
        <ele>78.2</ele>
        <time>2020-06-10T09:31:26Z</time>
      </trkpt>
      <trkpt lat="48.61524" lon="-4.15517">
        <ele>78.1</ele>
        <time>2020-06-10T09:31:27Z</time>
      </trkpt>
      <trkpt lat="48.61521" lon="-4.1551">
        <ele>78</ele>
        <time>2020-06-10T09:31:28Z</time>
      </trkpt>
      <trkpt lat="48.61518" lon="-4.15503">
        <ele>77.8</ele>
        <time>2020-06-10T09:31:29Z</time>
      </trkpt>
      <trkpt lat="48.61514" lon="-4.15496">
        <ele>77.7</ele>
        <time>2020-06-10T09:31:30Z</time>
      </trkpt>
      <trkpt lat="48.61511" lon="-4.15489">
        <ele>77.6</ele>
        <time>2020-06-10T09:31:31Z</time>
      </trkpt>
      <trkpt lat="48.61508" lon="-4.15482">
        <ele>77.4</ele>
        <time>2020-06-10T09:31:32Z</time>
      </trkpt>
      <trkpt lat="48.61505" lon="-4.15474">
        <ele>77.2</ele>
        <time>2020-06-10T09:31:33Z</time>
      </trkpt>
      <trkpt lat="48.61502" lon="-4.15466">
        <ele>77</ele>
        <time>2020-06-10T09:31:34Z</time>
      </trkpt>
      <trkpt lat="48.615" lon="-4.15459">
        <ele>76.8</ele>
        <time>2020-06-10T09:31:35Z</time>
      </trkpt>
      <trkpt lat="48.61497" lon="-4.15452">
        <ele>76.6</ele>
        <time>2020-06-10T09:31:36Z</time>
      </trkpt>
      <trkpt lat="48.61494" lon="-4.15443">
        <ele>76.4</ele>
        <time>2020-06-10T09:31:37Z</time>
      </trkpt>
      <trkpt lat="48.61491" lon="-4.15435">
        <ele>76.1</ele>
        <time>2020-06-10T09:31:38Z</time>
      </trkpt>
      <trkpt lat="48.61488" lon="-4.15426">
        <ele>75.9</ele>
        <time>2020-06-10T09:31:39Z</time>
      </trkpt>
      <trkpt lat="48.61485" lon="-4.15418">
        <ele>75.6</ele>
        <time>2020-06-10T09:31:40Z</time>
      </trkpt>
      <trkpt lat="48.61482" lon="-4.15409">
        <ele>75.4</ele>
        <time>2020-06-10T09:31:41Z</time>
      </trkpt>
      <trkpt lat="48.6148" lon="-4.154">
        <ele>75.1</ele>
        <time>2020-06-10T09:31:42Z</time>
      </trkpt>
      <trkpt lat="48.61478" lon="-4.15391">
        <ele>74.7</ele>
        <time>2020-06-10T09:31:43Z</time>
      </trkpt>
      <trkpt lat="48.61475" lon="-4.15382">
        <ele>74.4</ele>
        <time>2020-06-10T09:31:44Z</time>
      </trkpt>
      <trkpt lat="48.61473" lon="-4.1537">
        <ele>73.9</ele>
        <time>2020-06-10T09:31:45Z</time>
      </trkpt>
      <trkpt lat="48.61471" lon="-4.15359">
        <ele>73.5</ele>
        <time>2020-06-10T09:31:46Z</time>
      </trkpt>
      <trkpt lat="48.61469" lon="-4.15348">
        <ele>73.1</ele>
        <time>2020-06-10T09:31:47Z</time>
      </trkpt>
      <trkpt lat="48.61466" lon="-4.15337">
        <ele>72.7</ele>
        <time>2020-06-10T09:31:48Z</time>
      </trkpt>
      <trkpt lat="48.61464" lon="-4.15325">
        <ele>72.2</ele>
        <time>2020-06-10T09:31:49Z</time>
      </trkpt>
      <trkpt lat="48.61462" lon="-4.15313">
        <ele>71.8</ele>
        <time>2020-06-10T09:31:50Z</time>
      </trkpt>
      <trkpt lat="48.61459" lon="-4.15301">
        <ele>71.3</ele>
        <time>2020-06-10T09:31:51Z</time>
      </trkpt>
      <trkpt lat="48.61457" lon="-4.15289">
        <ele>70.9</ele>
        <time>2020-06-10T09:31:52Z</time>
      </trkpt>
      <trkpt lat="48.61455" lon="-4.15276">
        <ele>70.5</ele>
        <time>2020-06-10T09:31:53Z</time>
      </trkpt>
      <trkpt lat="48.61453" lon="-4.15263">
        <ele>69.8</ele>
        <time>2020-06-10T09:31:54Z</time>
      </trkpt>
      <trkpt lat="48.61451" lon="-4.1525">
        <ele>69.4</ele>
        <time>2020-06-10T09:31:55Z</time>
      </trkpt>
      <trkpt lat="48.61448" lon="-4.15237">
        <ele>69</ele>
        <time>2020-06-10T09:31:56Z</time>
      </trkpt>
      <trkpt lat="48.61446" lon="-4.15224">
        <ele>68.7</ele>
        <time>2020-06-10T09:31:57Z</time>
      </trkpt>
      <trkpt lat="48.61444" lon="-4.1521">
        <ele>68.4</ele>
        <time>2020-06-10T09:31:58Z</time>
      </trkpt>
      <trkpt lat="48.61441" lon="-4.15197">
        <ele>68.2</ele>
        <time>2020-06-10T09:31:59Z</time>
      </trkpt>
      <trkpt lat="48.61439" lon="-4.15184">
        <ele>67.9</ele>
        <time>2020-06-10T09:32:00Z</time>
      </trkpt>
      <trkpt lat="48.61437" lon="-4.15171">
        <ele>67.7</ele>
        <time>2020-06-10T09:32:01Z</time>
      </trkpt>
      <trkpt lat="48.61435" lon="-4.15158">
        <ele>67.6</ele>
        <time>2020-06-10T09:32:02Z</time>
      </trkpt>
      <trkpt lat="48.61432" lon="-4.15145">
        <ele>67.5</ele>
        <time>2020-06-10T09:32:03Z</time>
      </trkpt>
      <trkpt lat="48.61429" lon="-4.15133">
        <ele>67.5</ele>
        <time>2020-06-10T09:32:04Z</time>
      </trkpt>
      <trkpt lat="48.61427" lon="-4.1512">
        <ele>67.5</ele>
        <time>2020-06-10T09:32:05Z</time>
      </trkpt>
      <trkpt lat="48.61425" lon="-4.15109">
        <ele>67.6</ele>
        <time>2020-06-10T09:32:06Z</time>
      </trkpt>
      <trkpt lat="48.61423" lon="-4.15097">
        <ele>67.7</ele>
        <time>2020-06-10T09:32:07Z</time>
      </trkpt>
      <trkpt lat="48.6142" lon="-4.15086">
        <ele>67.9</ele>
        <time>2020-06-10T09:32:08Z</time>
      </trkpt>
      <trkpt lat="48.61418" lon="-4.15075">
        <ele>68.1</ele>
        <time>2020-06-10T09:32:09Z</time>
      </trkpt>
      <trkpt lat="48.61415" lon="-4.15065">
        <ele>68.2</ele>
        <time>2020-06-10T09:32:10Z</time>
      </trkpt>
      <trkpt lat="48.61413" lon="-4.15055">
        <ele>68.2</ele>
        <time>2020-06-10T09:32:11Z</time>
      </trkpt>
      <trkpt lat="48.6141" lon="-4.15047">
        <ele>68.2</ele>
        <time>2020-06-10T09:32:12Z</time>
      </trkpt>
      <trkpt lat="48.61407" lon="-4.15038">
        <ele>68.2</ele>
        <time>2020-06-10T09:32:13Z</time>
      </trkpt>
      <trkpt lat="48.61403" lon="-4.1503">
        <ele>68.3</ele>
        <time>2020-06-10T09:32:14Z</time>
      </trkpt>
      <trkpt lat="48.614" lon="-4.15022">
        <ele>68.4</ele>
        <time>2020-06-10T09:32:15Z</time>
      </trkpt>
      <trkpt lat="48.61398" lon="-4.15015">
        <ele>68.5</ele>
        <time>2020-06-10T09:32:16Z</time>
      </trkpt>
      <trkpt lat="48.61396" lon="-4.15007">
        <ele>68.6</ele>
        <time>2020-06-10T09:32:17Z</time>
      </trkpt>
      <trkpt lat="48.61393" lon="-4.15">
        <ele>68.8</ele>
        <time>2020-06-10T09:32:18Z</time>
      </trkpt>
      <trkpt lat="48.61391" lon="-4.14993">
        <ele>68.9</ele>
        <time>2020-06-10T09:32:19Z</time>
      </trkpt>
      <trkpt lat="48.61389" lon="-4.14986">
        <ele>69.1</ele>
        <time>2020-06-10T09:32:20Z</time>
      </trkpt>
      <trkpt lat="48.61386" lon="-4.14979">
        <ele>69.2</ele>
        <time>2020-06-10T09:32:21Z</time>
      </trkpt>
      <trkpt lat="48.61384" lon="-4.14972">
        <ele>69.5</ele>
        <time>2020-06-10T09:32:22Z</time>
      </trkpt>
      <trkpt lat="48.61382" lon="-4.14966">
        <ele>69.6</ele>
        <time>2020-06-10T09:32:23Z</time>
      </trkpt>
      <trkpt lat="48.6138" lon="-4.14959">
        <ele>69.8</ele>
        <time>2020-06-10T09:32:24Z</time>
      </trkpt>
      <trkpt lat="48.61377" lon="-4.14953">
        <ele>69.9</ele>
        <time>2020-06-10T09:32:25Z</time>
      </trkpt>
      <trkpt lat="48.61375" lon="-4.14947">
        <ele>70</ele>
        <time>2020-06-10T09:32:26Z</time>
      </trkpt>
      <trkpt lat="48.61372" lon="-4.1494">
        <ele>70.2</ele>
        <time>2020-06-10T09:32:27Z</time>
      </trkpt>
      <trkpt lat="48.6137" lon="-4.14934">
        <ele>70.3</ele>
        <time>2020-06-10T09:32:28Z</time>
      </trkpt>
      <trkpt lat="48.61368" lon="-4.14928">
        <ele>70.5</ele>
        <time>2020-06-10T09:32:29Z</time>
      </trkpt>
      <trkpt lat="48.61365" lon="-4.14922">
        <ele>70.7</ele>
        <time>2020-06-10T09:32:30Z</time>
      </trkpt>
      <trkpt lat="48.61363" lon="-4.14916">
        <ele>70.9</ele>
        <time>2020-06-10T09:32:31Z</time>
      </trkpt>
      <trkpt lat="48.61361" lon="-4.14909">
        <ele>71.1</ele>
        <time>2020-06-10T09:32:32Z</time>
      </trkpt>
      <trkpt lat="48.61358" lon="-4.14903">
        <ele>71.3</ele>
        <time>2020-06-10T09:32:33Z</time>
      </trkpt>
      <trkpt lat="48.61356" lon="-4.14898">
        <ele>71.5</ele>
        <time>2020-06-10T09:32:34Z</time>
      </trkpt>
      <trkpt lat="48.61353" lon="-4.14892">
        <ele>71.7</ele>
        <time>2020-06-10T09:32:35Z</time>
      </trkpt>
      <trkpt lat="48.6135" lon="-4.14886">
        <ele>71.8</ele>
        <time>2020-06-10T09:32:36Z</time>
      </trkpt>
      <trkpt lat="48.61348" lon="-4.1488">
        <ele>72</ele>
        <time>2020-06-10T09:32:37Z</time>
      </trkpt>
      <trkpt lat="48.61345" lon="-4.14875">
        <ele>72.2</ele>
        <time>2020-06-10T09:32:38Z</time>
      </trkpt>
      <trkpt lat="48.61342" lon="-4.14869">
        <ele>72.3</ele>
        <time>2020-06-10T09:32:39Z</time>
      </trkpt>
      <trkpt lat="48.6134" lon="-4.14864">
        <ele>72.4</ele>
        <time>2020-06-10T09:32:40Z</time>
      </trkpt>
      <trkpt lat="48.61338" lon="-4.14859">
        <ele>72.6</ele>
        <time>2020-06-10T09:32:41Z</time>
      </trkpt>
      <trkpt lat="48.61335" lon="-4.14854">
        <ele>72.7</ele>
        <time>2020-06-10T09:32:42Z</time>
      </trkpt>
      <trkpt lat="48.61333" lon="-4.14848">
        <ele>72.8</ele>
        <time>2020-06-10T09:32:43Z</time>
      </trkpt>
      <trkpt lat="48.61331" lon="-4.14843">
        <ele>72.9</ele>
        <time>2020-06-10T09:32:44Z</time>
      </trkpt>
      <trkpt lat="48.61328" lon="-4.14838">
        <ele>73</ele>
        <time>2020-06-10T09:32:45Z</time>
      </trkpt>
      <trkpt lat="48.61326" lon="-4.14832">
        <ele>73.1</ele>
        <time>2020-06-10T09:32:46Z</time>
      </trkpt>
      <trkpt lat="48.61323" lon="-4.14828">
        <ele>73.2</ele>
        <time>2020-06-10T09:32:47Z</time>
      </trkpt>
      <trkpt lat="48.6132" lon="-4.14823">
        <ele>73.4</ele>
        <time>2020-06-10T09:32:48Z</time>
      </trkpt>
      <trkpt lat="48.61318" lon="-4.14818">
        <ele>73.5</ele>
        <time>2020-06-10T09:32:49Z</time>
      </trkpt>
      <trkpt lat="48.61315" lon="-4.14813">
        <ele>73.6</ele>
        <time>2020-06-10T09:32:50Z</time>
      </trkpt>
      <trkpt lat="48.61313" lon="-4.14809">
        <ele>73.8</ele>
        <time>2020-06-10T09:32:51Z</time>
      </trkpt>
      <trkpt lat="48.6131" lon="-4.14804">
        <ele>73.9</ele>
        <time>2020-06-10T09:32:52Z</time>
      </trkpt>
      <trkpt lat="48.61308" lon="-4.148">
        <ele>74</ele>
        <time>2020-06-10T09:32:53Z</time>
      </trkpt>
      <trkpt lat="48.61305" lon="-4.14795">
        <ele>74.1</ele>
        <time>2020-06-10T09:32:54Z</time>
      </trkpt>
      <trkpt lat="48.61302" lon="-4.14791">
        <ele>74.3</ele>
        <time>2020-06-10T09:32:55Z</time>
      </trkpt>
      <trkpt lat="48.61299" lon="-4.14787">
        <ele>74.4</ele>
        <time>2020-06-10T09:32:56Z</time>
      </trkpt>
      <trkpt lat="48.61296" lon="-4.14783">
        <ele>74.5</ele>
        <time>2020-06-10T09:32:57Z</time>
      </trkpt>
      <trkpt lat="48.61293" lon="-4.1478">
        <ele>74.6</ele>
        <time>2020-06-10T09:32:58Z</time>
      </trkpt>
      <trkpt lat="48.6129" lon="-4.14776">
        <ele>74.8</ele>
        <time>2020-06-10T09:32:59Z</time>
      </trkpt>
      <trkpt lat="48.61287" lon="-4.14771">
        <ele>74.9</ele>
        <time>2020-06-10T09:33:00Z</time>
      </trkpt>
      <trkpt lat="48.61285" lon="-4.14767">
        <ele>75</ele>
        <time>2020-06-10T09:33:01Z</time>
      </trkpt>
      <trkpt lat="48.61281" lon="-4.14764">
        <ele>75.1</ele>
        <time>2020-06-10T09:33:02Z</time>
      </trkpt>
      <trkpt lat="48.61279" lon="-4.1476">
        <ele>75.3</ele>
        <time>2020-06-10T09:33:03Z</time>
      </trkpt>
      <trkpt lat="48.61275" lon="-4.14756">
        <ele>75.4</ele>
        <time>2020-06-10T09:33:04Z</time>
      </trkpt>
      <trkpt lat="48.61272" lon="-4.14753">
        <ele>75.5</ele>
        <time>2020-06-10T09:33:05Z</time>
      </trkpt>
      <trkpt lat="48.61269" lon="-4.14748">
        <ele>75.7</ele>
        <time>2020-06-10T09:33:06Z</time>
      </trkpt>
      <trkpt lat="48.61266" lon="-4.14744">
        <ele>75.8</ele>
        <time>2020-06-10T09:33:07Z</time>
      </trkpt>
      <trkpt lat="48.61263" lon="-4.1474">
        <ele>75.9</ele>
        <time>2020-06-10T09:33:08Z</time>
      </trkpt>
      <trkpt lat="48.61259" lon="-4.14736">
        <ele>76.1</ele>
        <time>2020-06-10T09:33:09Z</time>
      </trkpt>
      <trkpt lat="48.61255" lon="-4.14733">
        <ele>76.2</ele>
        <time>2020-06-10T09:33:10Z</time>
      </trkpt>
      <trkpt lat="48.61252" lon="-4.14729">
        <ele>76.3</ele>
        <time>2020-06-10T09:33:11Z</time>
      </trkpt>
      <trkpt lat="48.61248" lon="-4.14726">
        <ele>76.5</ele>
        <time>2020-06-10T09:33:12Z</time>
      </trkpt>
      <trkpt lat="48.61245" lon="-4.14722">
        <ele>76.7</ele>
        <time>2020-06-10T09:33:13Z</time>
      </trkpt>
      <trkpt lat="48.61241" lon="-4.14719">
        <ele>76.8</ele>
        <time>2020-06-10T09:33:14Z</time>
      </trkpt>
      <trkpt lat="48.61238" lon="-4.14715">
        <ele>77</ele>
        <time>2020-06-10T09:33:15Z</time>
      </trkpt>
      <trkpt lat="48.61234" lon="-4.14712">
        <ele>77.1</ele>
        <time>2020-06-10T09:33:16Z</time>
      </trkpt>
      <trkpt lat="48.6123" lon="-4.14708">
        <ele>77.3</ele>
        <time>2020-06-10T09:33:17Z</time>
      </trkpt>
      <trkpt lat="48.61226" lon="-4.14705">
        <ele>77.4</ele>
        <time>2020-06-10T09:33:18Z</time>
      </trkpt>
      <trkpt lat="48.61223" lon="-4.14701">
        <ele>77.5</ele>
        <time>2020-06-10T09:33:19Z</time>
      </trkpt>
      <trkpt lat="48.61219" lon="-4.14697">
        <ele>77.7</ele>
        <time>2020-06-10T09:33:20Z</time>
      </trkpt>
      <trkpt lat="48.61215" lon="-4.14694">
        <ele>77.8</ele>
        <time>2020-06-10T09:33:21Z</time>
      </trkpt>
      <trkpt lat="48.61211" lon="-4.1469">
        <ele>77.9</ele>
        <time>2020-06-10T09:33:22Z</time>
      </trkpt>
      <trkpt lat="48.61207" lon="-4.14686">
        <ele>78.1</ele>
        <time>2020-06-10T09:33:23Z</time>
      </trkpt>
      <trkpt lat="48.61202" lon="-4.14683">
        <ele>78.3</ele>
        <time>2020-06-10T09:33:24Z</time>
      </trkpt>
      <trkpt lat="48.61199" lon="-4.1468">
        <ele>78.4</ele>
        <time>2020-06-10T09:33:25Z</time>
      </trkpt>
      <trkpt lat="48.61195" lon="-4.14677">
        <ele>78.5</ele>
        <time>2020-06-10T09:33:26Z</time>
      </trkpt>
      <trkpt lat="48.61192" lon="-4.14674">
        <ele>78.7</ele>
        <time>2020-06-10T09:33:27Z</time>
      </trkpt>
      <trkpt lat="48.61188" lon="-4.1467">
        <ele>78.8</ele>
        <time>2020-06-10T09:33:28Z</time>
      </trkpt>
      <trkpt lat="48.61184" lon="-4.14666">
        <ele>78.9</ele>
        <time>2020-06-10T09:33:29Z</time>
      </trkpt>
      <trkpt lat="48.61181" lon="-4.14663">
        <ele>79</ele>
        <time>2020-06-10T09:33:30Z</time>
      </trkpt>
      <trkpt lat="48.61177" lon="-4.14658">
        <ele>79.2</ele>
        <time>2020-06-10T09:33:31Z</time>
      </trkpt>
      <trkpt lat="48.61173" lon="-4.14654">
        <ele>79.3</ele>
        <time>2020-06-10T09:33:32Z</time>
      </trkpt>
      <trkpt lat="48.6117" lon="-4.1465">
        <ele>79.5</ele>
        <time>2020-06-10T09:33:33Z</time>
      </trkpt>
      <trkpt lat="48.61166" lon="-4.14646">
        <ele>79.6</ele>
        <time>2020-06-10T09:33:34Z</time>
      </trkpt>
      <trkpt lat="48.61162" lon="-4.14643">
        <ele>79.7</ele>
        <time>2020-06-10T09:33:35Z</time>
      </trkpt>
      <trkpt lat="48.61159" lon="-4.1464">
        <ele>79.8</ele>
        <time>2020-06-10T09:33:36Z</time>
      </trkpt>
      <trkpt lat="48.61155" lon="-4.14637">
        <ele>79.9</ele>
        <time>2020-06-10T09:33:37Z</time>
      </trkpt>
      <trkpt lat="48.61152" lon="-4.14634">
        <ele>80.1</ele>
        <time>2020-06-10T09:33:38Z</time>
      </trkpt>
      <trkpt lat="48.61148" lon="-4.1463">
        <ele>80.2</ele>
        <time>2020-06-10T09:33:39Z</time>
      </trkpt>
      <trkpt lat="48.61145" lon="-4.14626">
        <ele>80.3</ele>
        <time>2020-06-10T09:33:40Z</time>
      </trkpt>
      <trkpt lat="48.61141" lon="-4.14622">
        <ele>80.3</ele>
        <time>2020-06-10T09:33:41Z</time>
      </trkpt>
      <trkpt lat="48.61137" lon="-4.14618">
        <ele>80.4</ele>
        <time>2020-06-10T09:33:42Z</time>
      </trkpt>
      <trkpt lat="48.61134" lon="-4.14615">
        <ele>80.5</ele>
        <time>2020-06-10T09:33:43Z</time>
      </trkpt>
      <trkpt lat="48.6113" lon="-4.1461">
        <ele>80.5</ele>
        <time>2020-06-10T09:33:44Z</time>
      </trkpt>
      <trkpt lat="48.61127" lon="-4.14606">
        <ele>80.6</ele>
        <time>2020-06-10T09:33:45Z</time>
      </trkpt>
      <trkpt lat="48.61123" lon="-4.14602">
        <ele>80.7</ele>
        <time>2020-06-10T09:33:46Z</time>
      </trkpt>
      <trkpt lat="48.6112" lon="-4.14599">
        <ele>80.7</ele>
        <time>2020-06-10T09:33:47Z</time>
      </trkpt>
      <trkpt lat="48.61116" lon="-4.14594">
        <ele>80.8</ele>
        <time>2020-06-10T09:33:48Z</time>
      </trkpt>
      <trkpt lat="48.61113" lon="-4.14591">
        <ele>80.9</ele>
        <time>2020-06-10T09:33:49Z</time>
      </trkpt>
      <trkpt lat="48.61109" lon="-4.14586">
        <ele>81</ele>
        <time>2020-06-10T09:33:50Z</time>
      </trkpt>
      <trkpt lat="48.61106" lon="-4.14582">
        <ele>81.2</ele>
        <time>2020-06-10T09:33:51Z</time>
      </trkpt>
      <trkpt lat="48.61102" lon="-4.14578">
        <ele>81.3</ele>
        <time>2020-06-10T09:33:52Z</time>
      </trkpt>
      <trkpt lat="48.61098" lon="-4.14574">
        <ele>81.4</ele>
        <time>2020-06-10T09:33:53Z</time>
      </trkpt>
      <trkpt lat="48.61095" lon="-4.1457">
        <ele>81.5</ele>
        <time>2020-06-10T09:33:54Z</time>
      </trkpt>
      <trkpt lat="48.61091" lon="-4.14565">
        <ele>81.5</ele>
        <time>2020-06-10T09:33:55Z</time>
      </trkpt>
      <trkpt lat="48.61088" lon="-4.14562">
        <ele>81.6</ele>
        <time>2020-06-10T09:33:56Z</time>
      </trkpt>
      <trkpt lat="48.61085" lon="-4.14558">
        <ele>81.6</ele>
        <time>2020-06-10T09:33:57Z</time>
      </trkpt>
      <trkpt lat="48.6108" lon="-4.14553">
        <ele>81.5</ele>
        <time>2020-06-10T09:33:58Z</time>
      </trkpt>
      <trkpt lat="48.61077" lon="-4.14549">
        <ele>81.5</ele>
        <time>2020-06-10T09:33:59Z</time>
      </trkpt>
      <trkpt lat="48.61073" lon="-4.14545">
        <ele>81.5</ele>
        <time>2020-06-10T09:34:00Z</time>
      </trkpt>
      <trkpt lat="48.61069" lon="-4.14541">
        <ele>81.5</ele>
        <time>2020-06-10T09:34:01Z</time>
      </trkpt>
      <trkpt lat="48.61065" lon="-4.14537">
        <ele>81.5</ele>
        <time>2020-06-10T09:34:02Z</time>
      </trkpt>
      <trkpt lat="48.61061" lon="-4.14533">
        <ele>81.6</ele>
        <time>2020-06-10T09:34:03Z</time>
      </trkpt>
      <trkpt lat="48.61057" lon="-4.14528">
        <ele>81.6</ele>
        <time>2020-06-10T09:34:04Z</time>
      </trkpt>
      <trkpt lat="48.61054" lon="-4.14524">
        <ele>81.6</ele>
        <time>2020-06-10T09:34:05Z</time>
      </trkpt>
      <trkpt lat="48.6105" lon="-4.1452">
        <ele>81.7</ele>
        <time>2020-06-10T09:34:06Z</time>
      </trkpt>
      <trkpt lat="48.61046" lon="-4.14516">
        <ele>81.7</ele>
        <time>2020-06-10T09:34:07Z</time>
      </trkpt>
      <trkpt lat="48.61043" lon="-4.14511">
        <ele>81.8</ele>
        <time>2020-06-10T09:34:08Z</time>
      </trkpt>
      <trkpt lat="48.61037" lon="-4.14505">
        <ele>81.8</ele>
        <time>2020-06-10T09:34:09Z</time>
      </trkpt>
      <trkpt lat="48.61033" lon="-4.14501">
        <ele>81.9</ele>
        <time>2020-06-10T09:34:10Z</time>
      </trkpt>
      <trkpt lat="48.61029" lon="-4.14496">
        <ele>82</ele>
        <time>2020-06-10T09:34:11Z</time>
      </trkpt>
      <trkpt lat="48.61026" lon="-4.14493">
        <ele>82</ele>
        <time>2020-06-10T09:34:12Z</time>
      </trkpt>
      <trkpt lat="48.61022" lon="-4.14488">
        <ele>82</ele>
        <time>2020-06-10T09:34:13Z</time>
      </trkpt>
      <trkpt lat="48.61018" lon="-4.14484">
        <ele>82.1</ele>
        <time>2020-06-10T09:34:14Z</time>
      </trkpt>
      <trkpt lat="48.61013" lon="-4.14478">
        <ele>82.1</ele>
        <time>2020-06-10T09:34:15Z</time>
      </trkpt>
      <trkpt lat="48.6101" lon="-4.14474">
        <ele>82.1</ele>
        <time>2020-06-10T09:34:16Z</time>
      </trkpt>
      <trkpt lat="48.61006" lon="-4.1447">
        <ele>82.1</ele>
        <time>2020-06-10T09:34:17Z</time>
      </trkpt>
      <trkpt lat="48.61002" lon="-4.14465">
        <ele>82.1</ele>
        <time>2020-06-10T09:34:18Z</time>
      </trkpt>
      <trkpt lat="48.60998" lon="-4.1446">
        <ele>82.2</ele>
        <time>2020-06-10T09:34:19Z</time>
      </trkpt>
      <trkpt lat="48.60994" lon="-4.14455">
        <ele>82.2</ele>
        <time>2020-06-10T09:34:20Z</time>
      </trkpt>
      <trkpt lat="48.6099" lon="-4.1445">
        <ele>82.2</ele>
        <time>2020-06-10T09:34:21Z</time>
      </trkpt>
      <trkpt lat="48.60987" lon="-4.14446">
        <ele>82.3</ele>
        <time>2020-06-10T09:34:22Z</time>
      </trkpt>
      <trkpt lat="48.60982" lon="-4.14441">
        <ele>82.3</ele>
        <time>2020-06-10T09:34:23Z</time>
      </trkpt>
      <trkpt lat="48.60978" lon="-4.14437">
        <ele>82.4</ele>
        <time>2020-06-10T09:34:24Z</time>
      </trkpt>
      <trkpt lat="48.60974" lon="-4.14432">
        <ele>82.4</ele>
        <time>2020-06-10T09:34:25Z</time>
      </trkpt>
      <trkpt lat="48.60969" lon="-4.14427">
        <ele>82.5</ele>
        <time>2020-06-10T09:34:26Z</time>
      </trkpt>
      <trkpt lat="48.60965" lon="-4.14423">
        <ele>82.5</ele>
        <time>2020-06-10T09:34:27Z</time>
      </trkpt>
      <trkpt lat="48.60962" lon="-4.14419">
        <ele>82.6</ele>
        <time>2020-06-10T09:34:28Z</time>
      </trkpt>
      <trkpt lat="48.60958" lon="-4.14415">
        <ele>82.7</ele>
        <time>2020-06-10T09:34:29Z</time>
      </trkpt>
      <trkpt lat="48.60954" lon="-4.1441">
        <ele>82.8</ele>
        <time>2020-06-10T09:34:30Z</time>
      </trkpt>
      <trkpt lat="48.6095" lon="-4.14404">
        <ele>82.9</ele>
        <time>2020-06-10T09:34:31Z</time>
      </trkpt>
      <trkpt lat="48.60945" lon="-4.14399">
        <ele>82.9</ele>
        <time>2020-06-10T09:34:32Z</time>
      </trkpt>
      <trkpt lat="48.60941" lon="-4.14395">
        <ele>83</ele>
        <time>2020-06-10T09:34:33Z</time>
      </trkpt>
      <trkpt lat="48.60938" lon="-4.1439">
        <ele>83.1</ele>
        <time>2020-06-10T09:34:34Z</time>
      </trkpt>
      <trkpt lat="48.60935" lon="-4.14388">
        <ele>83.1</ele>
        <time>2020-06-10T09:34:35Z</time>
      </trkpt>
      <trkpt lat="48.6093" lon="-4.14383">
        <ele>83.2</ele>
        <time>2020-06-10T09:34:36Z</time>
      </trkpt>
      <trkpt lat="48.60926" lon="-4.14379">
        <ele>83.3</ele>
        <time>2020-06-10T09:34:37Z</time>
      </trkpt>
      <trkpt lat="48.60923" lon="-4.14374">
        <ele>83.4</ele>
        <time>2020-06-10T09:34:38Z</time>
      </trkpt>
      <trkpt lat="48.60918" lon="-4.14369">
        <ele>83.4</ele>
        <time>2020-06-10T09:34:39Z</time>
      </trkpt>
      <trkpt lat="48.60914" lon="-4.14364">
        <ele>83.5</ele>
        <time>2020-06-10T09:34:40Z</time>
      </trkpt>
      <trkpt lat="48.6091" lon="-4.1436">
        <ele>83.6</ele>
        <time>2020-06-10T09:34:41Z</time>
      </trkpt>
      <trkpt lat="48.60906" lon="-4.14355">
        <ele>83.7</ele>
        <time>2020-06-10T09:34:42Z</time>
      </trkpt>
      <trkpt lat="48.60902" lon="-4.14351">
        <ele>83.8</ele>
        <time>2020-06-10T09:34:43Z</time>
      </trkpt>
      <trkpt lat="48.60899" lon="-4.14347">
        <ele>83.9</ele>
        <time>2020-06-10T09:34:44Z</time>
      </trkpt>
      <trkpt lat="48.60895" lon="-4.14342">
        <ele>84</ele>
        <time>2020-06-10T09:34:45Z</time>
      </trkpt>
      <trkpt lat="48.60892" lon="-4.14338">
        <ele>84</ele>
        <time>2020-06-10T09:34:46Z</time>
      </trkpt>
      <trkpt lat="48.60889" lon="-4.14334">
        <ele>84.1</ele>
        <time>2020-06-10T09:34:47Z</time>
      </trkpt>
      <trkpt lat="48.60884" lon="-4.14328">
        <ele>84.2</ele>
        <time>2020-06-10T09:34:48Z</time>
      </trkpt>
      <trkpt lat="48.60881" lon="-4.14323">
        <ele>84.3</ele>
        <time>2020-06-10T09:34:49Z</time>
      </trkpt>
      <trkpt lat="48.60878" lon="-4.14319">
        <ele>84.4</ele>
        <time>2020-06-10T09:34:50Z</time>
      </trkpt>
      <trkpt lat="48.60874" lon="-4.14314">
        <ele>84.5</ele>
        <time>2020-06-10T09:34:51Z</time>
      </trkpt>
      <trkpt lat="48.60871" lon="-4.14311">
        <ele>84.6</ele>
        <time>2020-06-10T09:34:52Z</time>
      </trkpt>
      <trkpt lat="48.60868" lon="-4.14306">
        <ele>84.8</ele>
        <time>2020-06-10T09:34:53Z</time>
      </trkpt>
      <trkpt lat="48.60865" lon="-4.14302">
        <ele>84.9</ele>
        <time>2020-06-10T09:34:54Z</time>
      </trkpt>
      <trkpt lat="48.60862" lon="-4.143">
        <ele>85</ele>
        <time>2020-06-10T09:34:55Z</time>
      </trkpt>
      <trkpt lat="48.60859" lon="-4.14297">
        <ele>85.1</ele>
        <time>2020-06-10T09:34:56Z</time>
      </trkpt>
      <trkpt lat="48.60855" lon="-4.14293">
        <ele>85.3</ele>
        <time>2020-06-10T09:34:57Z</time>
      </trkpt>
      <trkpt lat="48.6085" lon="-4.14288">
        <ele>85.5</ele>
        <time>2020-06-10T09:34:58Z</time>
      </trkpt>
      <trkpt lat="48.60846" lon="-4.14283">
        <ele>85.7</ele>
        <time>2020-06-10T09:34:59Z</time>
      </trkpt>
      <trkpt lat="48.60842" lon="-4.14278">
        <ele>85.9</ele>
        <time>2020-06-10T09:35:00Z</time>
      </trkpt>
      <trkpt lat="48.60838" lon="-4.14273">
        <ele>86.1</ele>
        <time>2020-06-10T09:35:01Z</time>
      </trkpt>
      <trkpt lat="48.60834" lon="-4.14268">
        <ele>86.3</ele>
        <time>2020-06-10T09:35:02Z</time>
      </trkpt>
      <trkpt lat="48.6083" lon="-4.14263">
        <ele>86.6</ele>
        <time>2020-06-10T09:35:03Z</time>
      </trkpt>
      <trkpt lat="48.60826" lon="-4.14259">
        <ele>86.8</ele>
        <time>2020-06-10T09:35:04Z</time>
      </trkpt>
      <trkpt lat="48.60823" lon="-4.14256">
        <ele>87.1</ele>
        <time>2020-06-10T09:35:05Z</time>
      </trkpt>
      <trkpt lat="48.60819" lon="-4.14252">
        <ele>87.3</ele>
        <time>2020-06-10T09:35:06Z</time>
      </trkpt>
      <trkpt lat="48.60816" lon="-4.14248">
        <ele>87.4</ele>
        <time>2020-06-10T09:35:07Z</time>
      </trkpt>
      <trkpt lat="48.60813" lon="-4.14244">
        <ele>87.5</ele>
        <time>2020-06-10T09:35:08Z</time>
      </trkpt>
      <trkpt lat="48.6081" lon="-4.14241">
        <ele>87.6</ele>
        <time>2020-06-10T09:35:09Z</time>
      </trkpt>
      <trkpt lat="48.60809" lon="-4.1424">
        <ele>87.6</ele>
        <time>2020-06-10T09:35:10Z</time>
      </trkpt>
      <trkpt lat="48.60806" lon="-4.14237">
        <ele>87.8</ele>
        <time>2020-06-10T09:35:11Z</time>
      </trkpt>
      <trkpt lat="48.60804" lon="-4.14233">
        <ele>87.9</ele>
        <time>2020-06-10T09:35:12Z</time>
      </trkpt>
      <trkpt lat="48.608" lon="-4.14228">
        <ele>88</ele>
        <time>2020-06-10T09:35:13Z</time>
      </trkpt>
      <trkpt lat="48.60797" lon="-4.14225">
        <ele>88.1</ele>
        <time>2020-06-10T09:35:14Z</time>
      </trkpt>
      <trkpt lat="48.60793" lon="-4.14219">
        <ele>88.2</ele>
        <time>2020-06-10T09:35:15Z</time>
      </trkpt>
      <trkpt lat="48.60789" lon="-4.14216">
        <ele>88.3</ele>
        <time>2020-06-10T09:35:16Z</time>
      </trkpt>
      <trkpt lat="48.60786" lon="-4.14212">
        <ele>88.4</ele>
        <time>2020-06-10T09:35:17Z</time>
      </trkpt>
      <trkpt lat="48.60782" lon="-4.14208">
        <ele>88.5</ele>
        <time>2020-06-10T09:35:18Z</time>
      </trkpt>
      <trkpt lat="48.60778" lon="-4.14203">
        <ele>88.6</ele>
        <time>2020-06-10T09:35:19Z</time>
      </trkpt>
      <trkpt lat="48.60774" lon="-4.14198">
        <ele>88.8</ele>
        <time>2020-06-10T09:35:20Z</time>
      </trkpt>
      <trkpt lat="48.60771" lon="-4.14196">
        <ele>88.8</ele>
        <time>2020-06-10T09:35:21Z</time>
      </trkpt>
      <trkpt lat="48.60767" lon="-4.1419">
        <ele>89</ele>
        <time>2020-06-10T09:35:22Z</time>
      </trkpt>
      <trkpt lat="48.60764" lon="-4.14186">
        <ele>89.1</ele>
        <time>2020-06-10T09:35:23Z</time>
      </trkpt>
      <trkpt lat="48.6076" lon="-4.14181">
        <ele>89.2</ele>
        <time>2020-06-10T09:35:24Z</time>
      </trkpt>
      <trkpt lat="48.60756" lon="-4.14176">
        <ele>89.3</ele>
        <time>2020-06-10T09:35:25Z</time>
      </trkpt>
      <trkpt lat="48.60753" lon="-4.14172">
        <ele>89.4</ele>
        <time>2020-06-10T09:35:26Z</time>
      </trkpt>
      <trkpt lat="48.60749" lon="-4.14167">
        <ele>89.5</ele>
        <time>2020-06-10T09:35:27Z</time>
      </trkpt>
      <trkpt lat="48.60746" lon="-4.14163">
        <ele>89.6</ele>
        <time>2020-06-10T09:35:28Z</time>
      </trkpt>
      <trkpt lat="48.60743" lon="-4.14159">
        <ele>89.7</ele>
        <time>2020-06-10T09:35:29Z</time>
      </trkpt>
      <trkpt lat="48.60739" lon="-4.14156">
        <ele>89.7</ele>
        <time>2020-06-10T09:35:30Z</time>
      </trkpt>
      <trkpt lat="48.60737" lon="-4.14152">
        <ele>89.8</ele>
        <time>2020-06-10T09:35:31Z</time>
      </trkpt>
      <trkpt lat="48.60734" lon="-4.14149">
        <ele>89.9</ele>
        <time>2020-06-10T09:35:32Z</time>
      </trkpt>
      <trkpt lat="48.60731" lon="-4.14145">
        <ele>90</ele>
        <time>2020-06-10T09:35:33Z</time>
      </trkpt>
      <trkpt lat="48.60727" lon="-4.14142">
        <ele>90.1</ele>
        <time>2020-06-10T09:35:34Z</time>
      </trkpt>
      <trkpt lat="48.60724" lon="-4.14137">
        <ele>90.2</ele>
        <time>2020-06-10T09:35:35Z</time>
      </trkpt>
      <trkpt lat="48.6072" lon="-4.14131">
        <ele>90.3</ele>
        <time>2020-06-10T09:35:36Z</time>
      </trkpt>
      <trkpt lat="48.60717" lon="-4.14127">
        <ele>90.4</ele>
        <time>2020-06-10T09:35:37Z</time>
      </trkpt>
      <trkpt lat="48.60715" lon="-4.14122">
        <ele>90.4</ele>
        <time>2020-06-10T09:35:38Z</time>
      </trkpt>
      <trkpt lat="48.60712" lon="-4.14117">
        <ele>90.5</ele>
        <time>2020-06-10T09:35:39Z</time>
      </trkpt>
      <trkpt lat="48.6071" lon="-4.14114">
        <ele>90.5</ele>
        <time>2020-06-10T09:35:40Z</time>
      </trkpt>
      <trkpt lat="48.60707" lon="-4.1411">
        <ele>90.6</ele>
        <time>2020-06-10T09:35:41Z</time>
      </trkpt>
      <trkpt lat="48.60704" lon="-4.14105">
        <ele>90.7</ele>
        <time>2020-06-10T09:35:42Z</time>
      </trkpt>
      <trkpt lat="48.60701" lon="-4.14101">
        <ele>90.7</ele>
        <time>2020-06-10T09:35:43Z</time>
      </trkpt>
      <trkpt lat="48.60698" lon="-4.14097">
        <ele>90.8</ele>
        <time>2020-06-10T09:35:44Z</time>
      </trkpt>
      <trkpt lat="48.60694" lon="-4.14094">
        <ele>90.8</ele>
        <time>2020-06-10T09:35:45Z</time>
      </trkpt>
      <trkpt lat="48.60689" lon="-4.14089">
        <ele>90.9</ele>
        <time>2020-06-10T09:35:46Z</time>
      </trkpt>
      <trkpt lat="48.60686" lon="-4.14086">
        <ele>91</ele>
        <time>2020-06-10T09:35:47Z</time>
      </trkpt>
      <trkpt lat="48.60682" lon="-4.1408">
        <ele>91</ele>
        <time>2020-06-10T09:35:48Z</time>
      </trkpt>
      <trkpt lat="48.60678" lon="-4.14075">
        <ele>91</ele>
        <time>2020-06-10T09:35:49Z</time>
      </trkpt>
      <trkpt lat="48.60675" lon="-4.14071">
        <ele>91.1</ele>
        <time>2020-06-10T09:35:50Z</time>
      </trkpt>
      <trkpt lat="48.60671" lon="-4.14067">
        <ele>91.1</ele>
        <time>2020-06-10T09:35:51Z</time>
      </trkpt>
      <trkpt lat="48.60668" lon="-4.14063">
        <ele>91.1</ele>
        <time>2020-06-10T09:35:52Z</time>
      </trkpt>
      <trkpt lat="48.60663" lon="-4.14059">
        <ele>91.2</ele>
        <time>2020-06-10T09:35:53Z</time>
      </trkpt>
      <trkpt lat="48.60659" lon="-4.14056">
        <ele>91.3</ele>
        <time>2020-06-10T09:35:54Z</time>
      </trkpt>
      <trkpt lat="48.60656" lon="-4.14052">
        <ele>91.3</ele>
        <time>2020-06-10T09:35:55Z</time>
      </trkpt>
      <trkpt lat="48.60653" lon="-4.14049">
        <ele>91.4</ele>
        <time>2020-06-10T09:35:56Z</time>
      </trkpt>
      <trkpt lat="48.60649" lon="-4.14046">
        <ele>91.4</ele>
        <time>2020-06-10T09:35:57Z</time>
      </trkpt>
      <trkpt lat="48.60646" lon="-4.14042">
        <ele>91.5</ele>
        <time>2020-06-10T09:35:58Z</time>
      </trkpt>
      <trkpt lat="48.60643" lon="-4.14039">
        <ele>91.5</ele>
        <time>2020-06-10T09:35:59Z</time>
      </trkpt>
      <trkpt lat="48.60641" lon="-4.14037">
        <ele>91.5</ele>
        <time>2020-06-10T09:36:00Z</time>
      </trkpt>
      <trkpt lat="48.60638" lon="-4.14035">
        <ele>91.6</ele>
        <time>2020-06-10T09:36:01Z</time>
      </trkpt>
      <trkpt lat="48.60637" lon="-4.14035">
        <ele>91.6</ele>
        <time>2020-06-10T09:36:02Z</time>
      </trkpt>
      <trkpt lat="48.60636" lon="-4.14035">
        <ele>91.6</ele>
        <time>2020-06-10T09:36:03Z</time>
      </trkpt>
      <trkpt lat="48.60636" lon="-4.14034">
        <ele>91.6</ele>
        <time>2020-06-10T09:36:04Z</time>
      </trkpt>
      <trkpt lat="48.60635" lon="-4.14034">
        <ele>91.6</ele>
        <time>2020-06-10T09:36:05Z</time>
      </trkpt>
      <trkpt lat="48.60635" lon="-4.14034">
        <ele>91.6</ele>
        <time>2020-06-10T09:36:06Z</time>
      </trkpt>
      <trkpt lat="48.60634" lon="-4.14033">
        <ele>91.6</ele>
        <time>2020-06-10T09:36:07Z</time>
      </trkpt>
      <trkpt lat="48.60634" lon="-4.14033">
        <ele>91.6</ele>
        <time>2020-06-10T09:36:08Z</time>
      </trkpt>
      <trkpt lat="48.60634" lon="-4.14033">
        <ele>91.6</ele>
        <time>2020-06-10T09:36:09Z</time>
      </trkpt>
      <trkpt lat="48.60633" lon="-4.14032">
        <ele>91.6</ele>
        <time>2020-06-10T09:36:10Z</time>
      </trkpt>
      <trkpt lat="48.60633" lon="-4.14032">
        <ele>91.6</ele>
        <time>2020-06-10T09:36:11Z</time>
      </trkpt>
      <trkpt lat="48.60633" lon="-4.14032">
        <ele>91.6</ele>
        <time>2020-06-10T09:36:12Z</time>
      </trkpt>
      <trkpt lat="48.60632" lon="-4.14031">
        <ele>91.6</ele>
        <time>2020-06-10T09:36:13Z</time>
      </trkpt>
      <trkpt lat="48.60632" lon="-4.14031">
        <ele>91.6</ele>
        <time>2020-06-10T09:36:14Z</time>
      </trkpt>
      <trkpt lat="48.60631" lon="-4.14031">
        <ele>91.6</ele>
        <time>2020-06-10T09:36:15Z</time>
      </trkpt>
      <trkpt lat="48.60631" lon="-4.1403">
        <ele>91.6</ele>
        <time>2020-06-10T09:36:16Z</time>
      </trkpt>
      <trkpt lat="48.60631" lon="-4.1403">
        <ele>91.6</ele>
        <time>2020-06-10T09:36:17Z</time>
      </trkpt>
      <trkpt lat="48.6063" lon="-4.1403">
        <ele>91.6</ele>
        <time>2020-06-10T09:36:18Z</time>
      </trkpt>
      <trkpt lat="48.6063" lon="-4.14029">
        <ele>91.6</ele>
        <time>2020-06-10T09:36:19Z</time>
      </trkpt>
      <trkpt lat="48.6063" lon="-4.14029">
        <ele>91.6</ele>
        <time>2020-06-10T09:36:20Z</time>
      </trkpt>
      <trkpt lat="48.60629" lon="-4.14028">
        <ele>91.6</ele>
        <time>2020-06-10T09:37:26Z</time>
      </trkpt>
      <trkpt lat="48.60629" lon="-4.14028">
        <ele>91.6</ele>
        <time>2020-06-10T09:37:27Z</time>
      </trkpt>
      <trkpt lat="48.60626" lon="-4.14024">
        <ele>91.6</ele>
        <time>2020-06-10T09:37:28Z</time>
      </trkpt>
      <trkpt lat="48.60625" lon="-4.14022">
        <ele>91.6</ele>
        <time>2020-06-10T09:37:29Z</time>
      </trkpt>
      <trkpt lat="48.60623" lon="-4.1402">
        <ele>91.6</ele>
        <time>2020-06-10T09:37:30Z</time>
      </trkpt>
      <trkpt lat="48.60621" lon="-4.14017">
        <ele>91.6</ele>
        <time>2020-06-10T09:37:31Z</time>
      </trkpt>
      <trkpt lat="48.60618" lon="-4.14014">
        <ele>91.6</ele>
        <time>2020-06-10T09:37:32Z</time>
      </trkpt>
      <trkpt lat="48.60615" lon="-4.14012">
        <ele>91.6</ele>
        <time>2020-06-10T09:37:33Z</time>
      </trkpt>
      <trkpt lat="48.60612" lon="-4.1401">
        <ele>91.6</ele>
        <time>2020-06-10T09:37:34Z</time>
      </trkpt>
      <trkpt lat="48.60609" lon="-4.14006">
        <ele>91.6</ele>
        <time>2020-06-10T09:37:35Z</time>
      </trkpt>
      <trkpt lat="48.60605" lon="-4.14003">
        <ele>91.6</ele>
        <time>2020-06-10T09:37:36Z</time>
      </trkpt>
      <trkpt lat="48.60601" lon="-4.14">
        <ele>91.6</ele>
        <time>2020-06-10T09:37:37Z</time>
      </trkpt>
      <trkpt lat="48.60598" lon="-4.13997">
        <ele>91.5</ele>
        <time>2020-06-10T09:37:38Z</time>
      </trkpt>
      <trkpt lat="48.60594" lon="-4.13994">
        <ele>91.5</ele>
        <time>2020-06-10T09:37:39Z</time>
      </trkpt>
      <trkpt lat="48.6059" lon="-4.1399">
        <ele>91.4</ele>
        <time>2020-06-10T09:37:40Z</time>
      </trkpt>
      <trkpt lat="48.60586" lon="-4.13987">
        <ele>91.4</ele>
        <time>2020-06-10T09:37:41Z</time>
      </trkpt>
      <trkpt lat="48.60581" lon="-4.13985">
        <ele>91.3</ele>
        <time>2020-06-10T09:37:42Z</time>
      </trkpt>
      <trkpt lat="48.60574" lon="-4.13984">
        <ele>91.1</ele>
        <time>2020-06-10T09:37:43Z</time>
      </trkpt>
      <trkpt lat="48.60569" lon="-4.13982">
        <ele>91</ele>
        <time>2020-06-10T09:37:44Z</time>
      </trkpt>
      <trkpt lat="48.60563" lon="-4.13982">
        <ele>90.8</ele>
        <time>2020-06-10T09:37:45Z</time>
      </trkpt>
      <trkpt lat="48.60557" lon="-4.13982">
        <ele>90.7</ele>
        <time>2020-06-10T09:37:46Z</time>
      </trkpt>
      <trkpt lat="48.60552" lon="-4.13981">
        <ele>90.5</ele>
        <time>2020-06-10T09:37:47Z</time>
      </trkpt>
      <trkpt lat="48.60546" lon="-4.13981">
        <ele>90.4</ele>
        <time>2020-06-10T09:37:48Z</time>
      </trkpt>
      <trkpt lat="48.6054" lon="-4.13982">
        <ele>90.3</ele>
        <time>2020-06-10T09:37:49Z</time>
      </trkpt>
      <trkpt lat="48.60533" lon="-4.13984">
        <ele>90.1</ele>
        <time>2020-06-10T09:37:50Z</time>
      </trkpt>
      <trkpt lat="48.60527" lon="-4.13986">
        <ele>89.9</ele>
        <time>2020-06-10T09:37:51Z</time>
      </trkpt>
      <trkpt lat="48.60521" lon="-4.13988">
        <ele>89.7</ele>
        <time>2020-06-10T09:37:52Z</time>
      </trkpt>
      <trkpt lat="48.60517" lon="-4.13989">
        <ele>89.5</ele>
        <time>2020-06-10T09:37:53Z</time>
      </trkpt>
      <trkpt lat="48.60511" lon="-4.13991">
        <ele>89.3</ele>
        <time>2020-06-10T09:37:54Z</time>
      </trkpt>
      <trkpt lat="48.60505" lon="-4.13992">
        <ele>89.1</ele>
        <time>2020-06-10T09:37:55Z</time>
      </trkpt>
      <trkpt lat="48.605" lon="-4.13994">
        <ele>89</ele>
        <time>2020-06-10T09:37:56Z</time>
      </trkpt>
      <trkpt lat="48.60493" lon="-4.13996">
        <ele>88.8</ele>
        <time>2020-06-10T09:37:57Z</time>
      </trkpt>
      <trkpt lat="48.60487" lon="-4.13997">
        <ele>88.6</ele>
        <time>2020-06-10T09:37:58Z</time>
      </trkpt>
      <trkpt lat="48.60481" lon="-4.13999">
        <ele>88.4</ele>
        <time>2020-06-10T09:37:59Z</time>
      </trkpt>
      <trkpt lat="48.60475" lon="-4.14002">
        <ele>88.2</ele>
        <time>2020-06-10T09:38:00Z</time>
      </trkpt>
      <trkpt lat="48.60469" lon="-4.14004">
        <ele>88.1</ele>
        <time>2020-06-10T09:38:01Z</time>
      </trkpt>
      <trkpt lat="48.60464" lon="-4.14006">
        <ele>87.9</ele>
        <time>2020-06-10T09:38:02Z</time>
      </trkpt>
      <trkpt lat="48.60458" lon="-4.14009">
        <ele>87.8</ele>
        <time>2020-06-10T09:38:03Z</time>
      </trkpt>
      <trkpt lat="48.60452" lon="-4.14011">
        <ele>87.6</ele>
        <time>2020-06-10T09:38:04Z</time>
      </trkpt>
      <trkpt lat="48.60447" lon="-4.14014">
        <ele>87.5</ele>
        <time>2020-06-10T09:38:05Z</time>
      </trkpt>
      <trkpt lat="48.60441" lon="-4.14016">
        <ele>87.4</ele>
        <time>2020-06-10T09:38:06Z</time>
      </trkpt>
      <trkpt lat="48.60435" lon="-4.14019">
        <ele>87.3</ele>
        <time>2020-06-10T09:38:07Z</time>
      </trkpt>
      <trkpt lat="48.60429" lon="-4.14021">
        <ele>87.2</ele>
        <time>2020-06-10T09:38:08Z</time>
      </trkpt>
      <trkpt lat="48.60423" lon="-4.14024">
        <ele>87.1</ele>
        <time>2020-06-10T09:38:09Z</time>
      </trkpt>
      <trkpt lat="48.60417" lon="-4.14026">
        <ele>87</ele>
        <time>2020-06-10T09:38:10Z</time>
      </trkpt>
      <trkpt lat="48.60411" lon="-4.14028">
        <ele>86.9</ele>
        <time>2020-06-10T09:38:11Z</time>
      </trkpt>
      <trkpt lat="48.60405" lon="-4.14031">
        <ele>86.8</ele>
        <time>2020-06-10T09:38:12Z</time>
      </trkpt>
      <trkpt lat="48.60398" lon="-4.14033">
        <ele>86.8</ele>
        <time>2020-06-10T09:38:13Z</time>
      </trkpt>
      <trkpt lat="48.60393" lon="-4.14035">
        <ele>86.8</ele>
        <time>2020-06-10T09:38:14Z</time>
      </trkpt>
      <trkpt lat="48.60389" lon="-4.14037">
        <ele>86.9</ele>
        <time>2020-06-10T09:38:15Z</time>
      </trkpt>
      <trkpt lat="48.60383" lon="-4.14039">
        <ele>86.9</ele>
        <time>2020-06-10T09:38:16Z</time>
      </trkpt>
      <trkpt lat="48.60378" lon="-4.14041">
        <ele>87</ele>
        <time>2020-06-10T09:38:17Z</time>
      </trkpt>
      <trkpt lat="48.60373" lon="-4.14041">
        <ele>87</ele>
        <time>2020-06-10T09:38:18Z</time>
      </trkpt>
      <trkpt lat="48.60368" lon="-4.14042">
        <ele>87</ele>
        <time>2020-06-10T09:38:19Z</time>
      </trkpt>
      <trkpt lat="48.60364" lon="-4.14042">
        <ele>87</ele>
        <time>2020-06-10T09:38:20Z</time>
      </trkpt>
      <trkpt lat="48.6036" lon="-4.14042">
        <ele>87</ele>
        <time>2020-06-10T09:38:21Z</time>
      </trkpt>
      <trkpt lat="48.60356" lon="-4.14042">
        <ele>86.9</ele>
        <time>2020-06-10T09:38:22Z</time>
      </trkpt>
      <trkpt lat="48.60353" lon="-4.14042">
        <ele>86.7</ele>
        <time>2020-06-10T09:38:23Z</time>
      </trkpt>
      <trkpt lat="48.60348" lon="-4.14042">
        <ele>86.5</ele>
        <time>2020-06-10T09:38:24Z</time>
      </trkpt>
      <trkpt lat="48.60343" lon="-4.14041">
        <ele>86.2</ele>
        <time>2020-06-10T09:38:25Z</time>
      </trkpt>
      <trkpt lat="48.60339" lon="-4.14039">
        <ele>86</ele>
        <time>2020-06-10T09:38:26Z</time>
      </trkpt>
      <trkpt lat="48.60334" lon="-4.14036">
        <ele>85.7</ele>
        <time>2020-06-10T09:38:27Z</time>
      </trkpt>
      <trkpt lat="48.60328" lon="-4.14033">
        <ele>85.5</ele>
        <time>2020-06-10T09:38:28Z</time>
      </trkpt>
      <trkpt lat="48.60323" lon="-4.1403">
        <ele>85.2</ele>
        <time>2020-06-10T09:38:29Z</time>
      </trkpt>
      <trkpt lat="48.60318" lon="-4.14028">
        <ele>85</ele>
        <time>2020-06-10T09:38:30Z</time>
      </trkpt>
      <trkpt lat="48.60313" lon="-4.14025">
        <ele>84.7</ele>
        <time>2020-06-10T09:38:31Z</time>
      </trkpt>
      <trkpt lat="48.60308" lon="-4.14023">
        <ele>84.5</ele>
        <time>2020-06-10T09:38:32Z</time>
      </trkpt>
      <trkpt lat="48.60302" lon="-4.1402">
        <ele>84.4</ele>
        <time>2020-06-10T09:38:33Z</time>
      </trkpt>
      <trkpt lat="48.60298" lon="-4.14019">
        <ele>84.2</ele>
        <time>2020-06-10T09:38:34Z</time>
      </trkpt>
      <trkpt lat="48.60293" lon="-4.14017">
        <ele>84.1</ele>
        <time>2020-06-10T09:38:35Z</time>
      </trkpt>
      <trkpt lat="48.60287" lon="-4.14017">
        <ele>83.9</ele>
        <time>2020-06-10T09:38:36Z</time>
      </trkpt>
      <trkpt lat="48.60282" lon="-4.14016">
        <ele>83.8</ele>
        <time>2020-06-10T09:38:37Z</time>
      </trkpt>
      <trkpt lat="48.60277" lon="-4.14015">
        <ele>83.7</ele>
        <time>2020-06-10T09:38:38Z</time>
      </trkpt>
      <trkpt lat="48.60272" lon="-4.14015">
        <ele>83.6</ele>
        <time>2020-06-10T09:38:39Z</time>
      </trkpt>
      <trkpt lat="48.60267" lon="-4.14014">
        <ele>83.5</ele>
        <time>2020-06-10T09:38:40Z</time>
      </trkpt>
      <trkpt lat="48.60262" lon="-4.14013">
        <ele>83.4</ele>
        <time>2020-06-10T09:38:41Z</time>
      </trkpt>
      <trkpt lat="48.60256" lon="-4.14013">
        <ele>83.4</ele>
        <time>2020-06-10T09:38:42Z</time>
      </trkpt>
      <trkpt lat="48.60251" lon="-4.14013">
        <ele>83.3</ele>
        <time>2020-06-10T09:38:43Z</time>
      </trkpt>
      <trkpt lat="48.60247" lon="-4.14013">
        <ele>83.2</ele>
        <time>2020-06-10T09:38:44Z</time>
      </trkpt>
      <trkpt lat="48.60243" lon="-4.14012">
        <ele>83.2</ele>
        <time>2020-06-10T09:38:45Z</time>
      </trkpt>
      <trkpt lat="48.6024" lon="-4.14011">
        <ele>83.2</ele>
        <time>2020-06-10T09:38:46Z</time>
      </trkpt>
      <trkpt lat="48.60239" lon="-4.1401">
        <ele>83.1</ele>
        <time>2020-06-10T09:38:47Z</time>
      </trkpt>
      <trkpt lat="48.6024" lon="-4.1401">
        <ele>83.1</ele>
        <time>2020-06-10T09:38:48Z</time>
      </trkpt>
      <trkpt lat="48.60241" lon="-4.1401">
        <ele>83.1</ele>
        <time>2020-06-10T09:38:49Z</time>
      </trkpt>
      <trkpt lat="48.60242" lon="-4.1401">
        <ele>83.1</ele>
        <time>2020-06-10T09:38:50Z</time>
      </trkpt>
      <trkpt lat="48.60243" lon="-4.1401">
        <ele>83.1</ele>
        <time>2020-06-10T09:38:51Z</time>
      </trkpt>
      <trkpt lat="48.60244" lon="-4.1401">
        <ele>83.1</ele>
        <time>2020-06-10T09:38:52Z</time>
      </trkpt>
      <trkpt lat="48.60249" lon="-4.1401">
        <ele>83.2</ele>
        <time>2020-06-10T09:38:53Z</time>
      </trkpt>
      <trkpt lat="48.60252" lon="-4.14011">
        <ele>83.2</ele>
        <time>2020-06-10T09:38:54Z</time>
      </trkpt>
      <trkpt lat="48.60257" lon="-4.14013">
        <ele>83.3</ele>
        <time>2020-06-10T09:38:55Z</time>
      </trkpt>
      <trkpt lat="48.60261" lon="-4.14014">
        <ele>83.3</ele>
        <time>2020-06-10T09:38:56Z</time>
      </trkpt>
      <trkpt lat="48.60265" lon="-4.14014">
        <ele>83.4</ele>
        <time>2020-06-10T09:38:57Z</time>
      </trkpt>
      <trkpt lat="48.60269" lon="-4.14012">
        <ele>83.4</ele>
        <time>2020-06-10T09:38:58Z</time>
      </trkpt>
      <trkpt lat="48.60274" lon="-4.14012">
        <ele>83.5</ele>
        <time>2020-06-10T09:38:59Z</time>
      </trkpt>
      <trkpt lat="48.60277" lon="-4.14011">
        <ele>83.6</ele>
        <time>2020-06-10T09:39:00Z</time>
      </trkpt>
      <trkpt lat="48.60281" lon="-4.14012">
        <ele>83.6</ele>
        <time>2020-06-10T09:39:01Z</time>
      </trkpt>
      <trkpt lat="48.60286" lon="-4.14011">
        <ele>83.7</ele>
        <time>2020-06-10T09:39:02Z</time>
      </trkpt>
      <trkpt lat="48.60292" lon="-4.14012">
        <ele>83.9</ele>
        <time>2020-06-10T09:39:03Z</time>
      </trkpt>
      <trkpt lat="48.60298" lon="-4.14012">
        <ele>84.1</ele>
        <time>2020-06-10T09:39:04Z</time>
      </trkpt>
      <trkpt lat="48.60301" lon="-4.14012">
        <ele>84.2</ele>
        <time>2020-06-10T09:39:05Z</time>
      </trkpt>
      <trkpt lat="48.60307" lon="-4.14011">
        <ele>84.3</ele>
        <time>2020-06-10T09:39:06Z</time>
      </trkpt>
      <trkpt lat="48.6031" lon="-4.14012">
        <ele>84.5</ele>
        <time>2020-06-10T09:39:07Z</time>
      </trkpt>
      <trkpt lat="48.60315" lon="-4.14013">
        <ele>84.6</ele>
        <time>2020-06-10T09:39:08Z</time>
      </trkpt>
      <trkpt lat="48.60319" lon="-4.14014">
        <ele>84.8</ele>
        <time>2020-06-10T09:39:09Z</time>
      </trkpt>
      <trkpt lat="48.60323" lon="-4.14014">
        <ele>85</ele>
        <time>2020-06-10T09:39:10Z</time>
      </trkpt>
      <trkpt lat="48.60327" lon="-4.14015">
        <ele>85.2</ele>
        <time>2020-06-10T09:39:11Z</time>
      </trkpt>
      <trkpt lat="48.6033" lon="-4.14016">
        <ele>85.3</ele>
        <time>2020-06-10T09:39:12Z</time>
      </trkpt>
      <trkpt lat="48.60335" lon="-4.14016">
        <ele>85.6</ele>
        <time>2020-06-10T09:39:13Z</time>
      </trkpt>
      <trkpt lat="48.60338" lon="-4.14018">
        <ele>85.8</ele>
        <time>2020-06-10T09:39:14Z</time>
      </trkpt>
      <trkpt lat="48.60342" lon="-4.1402">
        <ele>86</ele>
        <time>2020-06-10T09:39:15Z</time>
      </trkpt>
      <trkpt lat="48.60345" lon="-4.14021">
        <ele>86.2</ele>
        <time>2020-06-10T09:39:16Z</time>
      </trkpt>
      <trkpt lat="48.6035" lon="-4.14022">
        <ele>86.4</ele>
        <time>2020-06-10T09:39:17Z</time>
      </trkpt>
      <trkpt lat="48.60353" lon="-4.14022">
        <ele>86.6</ele>
        <time>2020-06-10T09:39:18Z</time>
      </trkpt>
      <trkpt lat="48.60356" lon="-4.14022">
        <ele>86.7</ele>
        <time>2020-06-10T09:39:19Z</time>
      </trkpt>
      <trkpt lat="48.60359" lon="-4.14021">
        <ele>87</ele>
        <time>2020-06-10T09:39:20Z</time>
      </trkpt>
      <trkpt lat="48.60362" lon="-4.14021">
        <ele>87</ele>
        <time>2020-06-10T09:39:21Z</time>
      </trkpt>
      <trkpt lat="48.60364" lon="-4.14016">
        <ele>87</ele>
        <time>2020-06-10T09:39:22Z</time>
      </trkpt>
      <trkpt lat="48.60364" lon="-4.14012">
        <ele>87</ele>
        <time>2020-06-10T09:39:23Z</time>
      </trkpt>
      <trkpt lat="48.60364" lon="-4.14007">
        <ele>87</ele>
        <time>2020-06-10T09:39:24Z</time>
      </trkpt>
      <trkpt lat="48.60364" lon="-4.14001">
        <ele>87</ele>
        <time>2020-06-10T09:39:25Z</time>
      </trkpt>
      <trkpt lat="48.60365" lon="-4.13996">
        <ele>87</ele>
        <time>2020-06-10T09:39:26Z</time>
      </trkpt>
      <trkpt lat="48.60366" lon="-4.13991">
        <ele>87</ele>
        <time>2020-06-10T09:39:27Z</time>
      </trkpt>
      <trkpt lat="48.60366" lon="-4.13986">
        <ele>87</ele>
        <time>2020-06-10T09:39:28Z</time>
      </trkpt>
      <trkpt lat="48.60366" lon="-4.1398">
        <ele>87.1</ele>
        <time>2020-06-10T09:39:29Z</time>
      </trkpt>
      <trkpt lat="48.60367" lon="-4.13975">
        <ele>87.1</ele>
        <time>2020-06-10T09:39:30Z</time>
      </trkpt>
      <trkpt lat="48.60368" lon="-4.13968">
        <ele>87.1</ele>
        <time>2020-06-10T09:39:31Z</time>
      </trkpt>
      <trkpt lat="48.60368" lon="-4.13963">
        <ele>87.2</ele>
        <time>2020-06-10T09:39:32Z</time>
      </trkpt>
      <trkpt lat="48.60368" lon="-4.13956">
        <ele>87.2</ele>
        <time>2020-06-10T09:39:33Z</time>
      </trkpt>
      <trkpt lat="48.60369" lon="-4.13949">
        <ele>87.2</ele>
        <time>2020-06-10T09:39:34Z</time>
      </trkpt>
      <trkpt lat="48.6037" lon="-4.13941">
        <ele>87.3</ele>
        <time>2020-06-10T09:39:35Z</time>
      </trkpt>
      <trkpt lat="48.6037" lon="-4.13934">
        <ele>87.3</ele>
        <time>2020-06-10T09:39:36Z</time>
      </trkpt>
      <trkpt lat="48.60371" lon="-4.13928">
        <ele>87.4</ele>
        <time>2020-06-10T09:39:37Z</time>
      </trkpt>
      <trkpt lat="48.60372" lon="-4.1392">
        <ele>87.5</ele>
        <time>2020-06-10T09:39:38Z</time>
      </trkpt>
      <trkpt lat="48.60373" lon="-4.13913">
        <ele>87.6</ele>
        <time>2020-06-10T09:39:39Z</time>
      </trkpt>
      <trkpt lat="48.60375" lon="-4.13905">
        <ele>87.8</ele>
        <time>2020-06-10T09:39:40Z</time>
      </trkpt>
      <trkpt lat="48.60377" lon="-4.13899">
        <ele>87.8</ele>
        <time>2020-06-10T09:39:41Z</time>
      </trkpt>
      <trkpt lat="48.60378" lon="-4.13894">
        <ele>87.9</ele>
        <time>2020-06-10T09:39:42Z</time>
      </trkpt>
      <trkpt lat="48.6038" lon="-4.13888">
        <ele>88</ele>
        <time>2020-06-10T09:39:43Z</time>
      </trkpt>
      <trkpt lat="48.60381" lon="-4.13881">
        <ele>88.1</ele>
        <time>2020-06-10T09:39:44Z</time>
      </trkpt>
      <trkpt lat="48.60381" lon="-4.13875">
        <ele>88.3</ele>
        <time>2020-06-10T09:39:45Z</time>
      </trkpt>
      <trkpt lat="48.60382" lon="-4.13868">
        <ele>88.4</ele>
        <time>2020-06-10T09:39:46Z</time>
      </trkpt>
      <trkpt lat="48.60383" lon="-4.13861">
        <ele>88.5</ele>
        <time>2020-06-10T09:39:47Z</time>
      </trkpt>
      <trkpt lat="48.60384" lon="-4.13853">
        <ele>88.6</ele>
        <time>2020-06-10T09:39:48Z</time>
      </trkpt>
      <trkpt lat="48.60385" lon="-4.13847">
        <ele>88.7</ele>
        <time>2020-06-10T09:39:49Z</time>
      </trkpt>
      <trkpt lat="48.60387" lon="-4.1384">
        <ele>88.8</ele>
        <time>2020-06-10T09:39:50Z</time>
      </trkpt>
      <trkpt lat="48.60388" lon="-4.13834">
        <ele>88.9</ele>
        <time>2020-06-10T09:39:51Z</time>
      </trkpt>
      <trkpt lat="48.6039" lon="-4.13826">
        <ele>88.9</ele>
        <time>2020-06-10T09:39:52Z</time>
      </trkpt>
      <trkpt lat="48.60391" lon="-4.13819">
        <ele>89</ele>
        <time>2020-06-10T09:39:53Z</time>
      </trkpt>
      <trkpt lat="48.60391" lon="-4.13812">
        <ele>89</ele>
        <time>2020-06-10T09:39:54Z</time>
      </trkpt>
      <trkpt lat="48.60392" lon="-4.13806">
        <ele>89</ele>
        <time>2020-06-10T09:39:55Z</time>
      </trkpt>
      <trkpt lat="48.60392" lon="-4.13802">
        <ele>89.1</ele>
        <time>2020-06-10T09:39:56Z</time>
      </trkpt>
      <trkpt lat="48.60392" lon="-4.13795">
        <ele>89.1</ele>
        <time>2020-06-10T09:39:57Z</time>
      </trkpt>
      <trkpt lat="48.60393" lon="-4.13789">
        <ele>89.2</ele>
        <time>2020-06-10T09:39:58Z</time>
      </trkpt>
      <trkpt lat="48.60394" lon="-4.13782">
        <ele>89.2</ele>
        <time>2020-06-10T09:39:59Z</time>
      </trkpt>
      <trkpt lat="48.60395" lon="-4.13775">
        <ele>89.3</ele>
        <time>2020-06-10T09:40:00Z</time>
      </trkpt>
      <trkpt lat="48.60396" lon="-4.13768">
        <ele>89.3</ele>
        <time>2020-06-10T09:40:01Z</time>
      </trkpt>
      <trkpt lat="48.60397" lon="-4.1376">
        <ele>89.4</ele>
        <time>2020-06-10T09:40:02Z</time>
      </trkpt>
      <trkpt lat="48.60398" lon="-4.13752">
        <ele>89.4</ele>
        <time>2020-06-10T09:40:03Z</time>
      </trkpt>
      <trkpt lat="48.60398" lon="-4.13745">
        <ele>89.5</ele>
        <time>2020-06-10T09:40:04Z</time>
      </trkpt>
      <trkpt lat="48.60399" lon="-4.13738">
        <ele>89.5</ele>
        <time>2020-06-10T09:40:05Z</time>
      </trkpt>
      <trkpt lat="48.604" lon="-4.1373">
        <ele>89.6</ele>
        <time>2020-06-10T09:40:06Z</time>
      </trkpt>
      <trkpt lat="48.60401" lon="-4.13723">
        <ele>89.6</ele>
        <time>2020-06-10T09:40:07Z</time>
      </trkpt>
      <trkpt lat="48.60402" lon="-4.13717">
        <ele>89.6</ele>
        <time>2020-06-10T09:40:08Z</time>
      </trkpt>
      <trkpt lat="48.60403" lon="-4.13709">
        <ele>89.6</ele>
        <time>2020-06-10T09:40:09Z</time>
      </trkpt>
      <trkpt lat="48.60404" lon="-4.13703">
        <ele>89.7</ele>
        <time>2020-06-10T09:40:10Z</time>
      </trkpt>
      <trkpt lat="48.60405" lon="-4.13695">
        <ele>89.7</ele>
        <time>2020-06-10T09:40:11Z</time>
      </trkpt>
      <trkpt lat="48.60406" lon="-4.13687">
        <ele>89.8</ele>
        <time>2020-06-10T09:40:12Z</time>
      </trkpt>
      <trkpt lat="48.60407" lon="-4.13679">
        <ele>89.8</ele>
        <time>2020-06-10T09:40:13Z</time>
      </trkpt>
      <trkpt lat="48.60408" lon="-4.13671">
        <ele>89.8</ele>
        <time>2020-06-10T09:40:14Z</time>
      </trkpt>
      <trkpt lat="48.60409" lon="-4.13663">
        <ele>89.8</ele>
        <time>2020-06-10T09:40:15Z</time>
      </trkpt>
      <trkpt lat="48.6041" lon="-4.13655">
        <ele>89.8</ele>
        <time>2020-06-10T09:40:16Z</time>
      </trkpt>
      <trkpt lat="48.60412" lon="-4.13648">
        <ele>89.8</ele>
        <time>2020-06-10T09:40:17Z</time>
      </trkpt>
      <trkpt lat="48.60411" lon="-4.1364">
        <ele>89.7</ele>
        <time>2020-06-10T09:40:18Z</time>
      </trkpt>
      <trkpt lat="48.60412" lon="-4.13631">
        <ele>89.7</ele>
        <time>2020-06-10T09:40:19Z</time>
      </trkpt>
      <trkpt lat="48.60413" lon="-4.13623">
        <ele>89.6</ele>
        <time>2020-06-10T09:40:20Z</time>
      </trkpt>
      <trkpt lat="48.60414" lon="-4.13614">
        <ele>89.6</ele>
        <time>2020-06-10T09:40:21Z</time>
      </trkpt>
      <trkpt lat="48.60415" lon="-4.13606">
        <ele>89.5</ele>
        <time>2020-06-10T09:40:22Z</time>
      </trkpt>
      <trkpt lat="48.60417" lon="-4.13597">
        <ele>89.5</ele>
        <time>2020-06-10T09:40:23Z</time>
      </trkpt>
      <trkpt lat="48.60418" lon="-4.13587">
        <ele>89.4</ele>
        <time>2020-06-10T09:40:24Z</time>
      </trkpt>
      <trkpt lat="48.60419" lon="-4.13578">
        <ele>89.4</ele>
        <time>2020-06-10T09:40:25Z</time>
      </trkpt>
      <trkpt lat="48.6042" lon="-4.13568">
        <ele>89.3</ele>
        <time>2020-06-10T09:40:26Z</time>
      </trkpt>
      <trkpt lat="48.60421" lon="-4.13558">
        <ele>89.2</ele>
        <time>2020-06-10T09:40:27Z</time>
      </trkpt>
      <trkpt lat="48.60422" lon="-4.13548">
        <ele>89.2</ele>
        <time>2020-06-10T09:40:28Z</time>
      </trkpt>
      <trkpt lat="48.60422" lon="-4.13539">
        <ele>89.1</ele>
        <time>2020-06-10T09:40:29Z</time>
      </trkpt>
      <trkpt lat="48.60422" lon="-4.13529">
        <ele>89</ele>
        <time>2020-06-10T09:40:30Z</time>
      </trkpt>
      <trkpt lat="48.60423" lon="-4.1352">
        <ele>89</ele>
        <time>2020-06-10T09:40:31Z</time>
      </trkpt>
      <trkpt lat="48.60423" lon="-4.13512">
        <ele>89</ele>
        <time>2020-06-10T09:40:32Z</time>
      </trkpt>
      <trkpt lat="48.60423" lon="-4.13503">
        <ele>88.9</ele>
        <time>2020-06-10T09:40:33Z</time>
      </trkpt>
      <trkpt lat="48.60423" lon="-4.13494">
        <ele>88.9</ele>
        <time>2020-06-10T09:40:34Z</time>
      </trkpt>
      <trkpt lat="48.60423" lon="-4.13484">
        <ele>88.9</ele>
        <time>2020-06-10T09:40:35Z</time>
      </trkpt>
      <trkpt lat="48.60424" lon="-4.13474">
        <ele>88.8</ele>
        <time>2020-06-10T09:40:36Z</time>
      </trkpt>
      <trkpt lat="48.60424" lon="-4.13464">
        <ele>88.8</ele>
        <time>2020-06-10T09:40:37Z</time>
      </trkpt>
      <trkpt lat="48.60424" lon="-4.13454">
        <ele>88.8</ele>
        <time>2020-06-10T09:40:38Z</time>
      </trkpt>
      <trkpt lat="48.60425" lon="-4.13443">
        <ele>88.8</ele>
        <time>2020-06-10T09:40:39Z</time>
      </trkpt>
      <trkpt lat="48.60425" lon="-4.13434">
        <ele>88.8</ele>
        <time>2020-06-10T09:40:40Z</time>
      </trkpt>
      <trkpt lat="48.60425" lon="-4.13424">
        <ele>88.9</ele>
        <time>2020-06-10T09:40:41Z</time>
      </trkpt>
      <trkpt lat="48.60426" lon="-4.13415">
        <ele>88.9</ele>
        <time>2020-06-10T09:40:42Z</time>
      </trkpt>
      <trkpt lat="48.60426" lon="-4.13406">
        <ele>88.8</ele>
        <time>2020-06-10T09:40:43Z</time>
      </trkpt>
      <trkpt lat="48.60427" lon="-4.13396">
        <ele>88.8</ele>
        <time>2020-06-10T09:40:44Z</time>
      </trkpt>
      <trkpt lat="48.60427" lon="-4.13386">
        <ele>88.8</ele>
        <time>2020-06-10T09:40:45Z</time>
      </trkpt>
      <trkpt lat="48.60428" lon="-4.13377">
        <ele>88.8</ele>
        <time>2020-06-10T09:40:46Z</time>
      </trkpt>
      <trkpt lat="48.60428" lon="-4.13368">
        <ele>88.9</ele>
        <time>2020-06-10T09:40:47Z</time>
      </trkpt>
      <trkpt lat="48.60429" lon="-4.13359">
        <ele>88.9</ele>
        <time>2020-06-10T09:40:48Z</time>
      </trkpt>
      <trkpt lat="48.60429" lon="-4.13349">
        <ele>88.9</ele>
        <time>2020-06-10T09:40:49Z</time>
      </trkpt>
      <trkpt lat="48.60429" lon="-4.1334">
        <ele>88.9</ele>
        <time>2020-06-10T09:40:50Z</time>
      </trkpt>
      <trkpt lat="48.60429" lon="-4.1333">
        <ele>89</ele>
        <time>2020-06-10T09:40:51Z</time>
      </trkpt>
      <trkpt lat="48.6043" lon="-4.13321">
        <ele>89</ele>
        <time>2020-06-10T09:40:52Z</time>
      </trkpt>
      <trkpt lat="48.6043" lon="-4.13312">
        <ele>89</ele>
        <time>2020-06-10T09:40:53Z</time>
      </trkpt>
      <trkpt lat="48.6043" lon="-4.13303">
        <ele>89</ele>
        <time>2020-06-10T09:40:54Z</time>
      </trkpt>
      <trkpt lat="48.60431" lon="-4.13294">
        <ele>89</ele>
        <time>2020-06-10T09:40:55Z</time>
      </trkpt>
      <trkpt lat="48.60431" lon="-4.13285">
        <ele>89</ele>
        <time>2020-06-10T09:40:56Z</time>
      </trkpt>
      <trkpt lat="48.60432" lon="-4.13276">
        <ele>89</ele>
        <time>2020-06-10T09:40:57Z</time>
      </trkpt>
      <trkpt lat="48.60433" lon="-4.13268">
        <ele>89.1</ele>
        <time>2020-06-10T09:40:58Z</time>
      </trkpt>
      <trkpt lat="48.60434" lon="-4.13259">
        <ele>89.1</ele>
        <time>2020-06-10T09:40:59Z</time>
      </trkpt>
      <trkpt lat="48.60435" lon="-4.13251">
        <ele>89.1</ele>
        <time>2020-06-10T09:41:00Z</time>
      </trkpt>
      <trkpt lat="48.60435" lon="-4.13241">
        <ele>89.2</ele>
        <time>2020-06-10T09:41:01Z</time>
      </trkpt>
      <trkpt lat="48.60437" lon="-4.13232">
        <ele>89.3</ele>
        <time>2020-06-10T09:41:02Z</time>
      </trkpt>
      <trkpt lat="48.60438" lon="-4.13224">
        <ele>89.2</ele>
        <time>2020-06-10T09:41:03Z</time>
      </trkpt>
      <trkpt lat="48.60439" lon="-4.13215">
        <ele>89.2</ele>
        <time>2020-06-10T09:41:04Z</time>
      </trkpt>
      <trkpt lat="48.60439" lon="-4.13205">
        <ele>89.2</ele>
        <time>2020-06-10T09:41:05Z</time>
      </trkpt>
      <trkpt lat="48.6044" lon="-4.13196">
        <ele>89.2</ele>
        <time>2020-06-10T09:41:06Z</time>
      </trkpt>
      <trkpt lat="48.60441" lon="-4.13188">
        <ele>89.3</ele>
        <time>2020-06-10T09:41:07Z</time>
      </trkpt>
      <trkpt lat="48.60442" lon="-4.13179">
        <ele>89.3</ele>
        <time>2020-06-10T09:41:08Z</time>
      </trkpt>
      <trkpt lat="48.60442" lon="-4.13171">
        <ele>89.4</ele>
        <time>2020-06-10T09:41:09Z</time>
      </trkpt>
      <trkpt lat="48.60443" lon="-4.13162">
        <ele>89.4</ele>
        <time>2020-06-10T09:41:10Z</time>
      </trkpt>
      <trkpt lat="48.60445" lon="-4.13153">
        <ele>89.5</ele>
        <time>2020-06-10T09:41:11Z</time>
      </trkpt>
      <trkpt lat="48.60446" lon="-4.13146">
        <ele>89.6</ele>
        <time>2020-06-10T09:41:12Z</time>
      </trkpt>
      <trkpt lat="48.60447" lon="-4.13138">
        <ele>89.6</ele>
        <time>2020-06-10T09:41:13Z</time>
      </trkpt>
      <trkpt lat="48.60449" lon="-4.1313">
        <ele>89.7</ele>
        <time>2020-06-10T09:41:14Z</time>
      </trkpt>
      <trkpt lat="48.60449" lon="-4.13124">
        <ele>89.7</ele>
        <time>2020-06-10T09:41:15Z</time>
      </trkpt>
      <trkpt lat="48.6045" lon="-4.13117">
        <ele>89.7</ele>
        <time>2020-06-10T09:41:16Z</time>
      </trkpt>
      <trkpt lat="48.60451" lon="-4.13111">
        <ele>89.7</ele>
        <time>2020-06-10T09:41:17Z</time>
      </trkpt>
      <trkpt lat="48.60452" lon="-4.13102">
        <ele>89.8</ele>
        <time>2020-06-10T09:41:18Z</time>
      </trkpt>
      <trkpt lat="48.60452" lon="-4.13094">
        <ele>89.8</ele>
        <time>2020-06-10T09:41:19Z</time>
      </trkpt>
      <trkpt lat="48.60453" lon="-4.13086">
        <ele>89.8</ele>
        <time>2020-06-10T09:41:20Z</time>
      </trkpt>
      <trkpt lat="48.60454" lon="-4.1308">
        <ele>89.9</ele>
        <time>2020-06-10T09:41:21Z</time>
      </trkpt>
      <trkpt lat="48.60455" lon="-4.13073">
        <ele>89.9</ele>
        <time>2020-06-10T09:41:22Z</time>
      </trkpt>
      <trkpt lat="48.60456" lon="-4.13066">
        <ele>89.9</ele>
        <time>2020-06-10T09:41:23Z</time>
      </trkpt>
      <trkpt lat="48.60457" lon="-4.13059">
        <ele>90</ele>
        <time>2020-06-10T09:41:24Z</time>
      </trkpt>
      <trkpt lat="48.60458" lon="-4.13049">
        <ele>90</ele>
        <time>2020-06-10T09:41:25Z</time>
      </trkpt>
      <trkpt lat="48.60458" lon="-4.1304">
        <ele>90</ele>
        <time>2020-06-10T09:41:26Z</time>
      </trkpt>
      <trkpt lat="48.60458" lon="-4.13032">
        <ele>90</ele>
        <time>2020-06-10T09:41:27Z</time>
      </trkpt>
      <trkpt lat="48.60459" lon="-4.13023">
        <ele>90</ele>
        <time>2020-06-10T09:41:28Z</time>
      </trkpt>
      <trkpt lat="48.6046" lon="-4.13014">
        <ele>90</ele>
        <time>2020-06-10T09:41:29Z</time>
      </trkpt>
      <trkpt lat="48.6046" lon="-4.13005">
        <ele>89.9</ele>
        <time>2020-06-10T09:41:30Z</time>
      </trkpt>
      <trkpt lat="48.60461" lon="-4.12996">
        <ele>89.9</ele>
        <time>2020-06-10T09:41:31Z</time>
      </trkpt>
      <trkpt lat="48.60462" lon="-4.12988">
        <ele>89.8</ele>
        <time>2020-06-10T09:41:32Z</time>
      </trkpt>
      <trkpt lat="48.60463" lon="-4.12981">
        <ele>89.8</ele>
        <time>2020-06-10T09:41:33Z</time>
      </trkpt>
      <trkpt lat="48.60463" lon="-4.12972">
        <ele>89.8</ele>
        <time>2020-06-10T09:41:34Z</time>
      </trkpt>
      <trkpt lat="48.60464" lon="-4.12964">
        <ele>89.8</ele>
        <time>2020-06-10T09:41:35Z</time>
      </trkpt>
      <trkpt lat="48.60465" lon="-4.12955">
        <ele>89.7</ele>
        <time>2020-06-10T09:41:36Z</time>
      </trkpt>
      <trkpt lat="48.60465" lon="-4.12945">
        <ele>89.7</ele>
        <time>2020-06-10T09:41:37Z</time>
      </trkpt>
      <trkpt lat="48.60466" lon="-4.12936">
        <ele>89.6</ele>
        <time>2020-06-10T09:41:38Z</time>
      </trkpt>
      <trkpt lat="48.60467" lon="-4.12928">
        <ele>89.5</ele>
        <time>2020-06-10T09:41:39Z</time>
      </trkpt>
      <trkpt lat="48.60467" lon="-4.12919">
        <ele>89.3</ele>
        <time>2020-06-10T09:41:40Z</time>
      </trkpt>
      <trkpt lat="48.60468" lon="-4.12909">
        <ele>89.2</ele>
        <time>2020-06-10T09:41:41Z</time>
      </trkpt>
      <trkpt lat="48.60468" lon="-4.129">
        <ele>89.2</ele>
        <time>2020-06-10T09:41:42Z</time>
      </trkpt>
      <trkpt lat="48.6047" lon="-4.12891">
        <ele>89.1</ele>
        <time>2020-06-10T09:41:43Z</time>
      </trkpt>
      <trkpt lat="48.60471" lon="-4.12881">
        <ele>89.1</ele>
        <time>2020-06-10T09:41:44Z</time>
      </trkpt>
      <trkpt lat="48.60471" lon="-4.12872">
        <ele>89.1</ele>
        <time>2020-06-10T09:41:45Z</time>
      </trkpt>
      <trkpt lat="48.60472" lon="-4.12861">
        <ele>89</ele>
        <time>2020-06-10T09:41:46Z</time>
      </trkpt>
      <trkpt lat="48.60473" lon="-4.12852">
        <ele>88.9</ele>
        <time>2020-06-10T09:41:47Z</time>
      </trkpt>
      <trkpt lat="48.60473" lon="-4.12842">
        <ele>88.9</ele>
        <time>2020-06-10T09:41:48Z</time>
      </trkpt>
      <trkpt lat="48.60474" lon="-4.12831">
        <ele>88.8</ele>
        <time>2020-06-10T09:41:49Z</time>
      </trkpt>
      <trkpt lat="48.60475" lon="-4.12822">
        <ele>88.8</ele>
        <time>2020-06-10T09:41:50Z</time>
      </trkpt>
      <trkpt lat="48.60476" lon="-4.12811">
        <ele>88.8</ele>
        <time>2020-06-10T09:41:51Z</time>
      </trkpt>
      <trkpt lat="48.60476" lon="-4.12802">
        <ele>88.8</ele>
        <time>2020-06-10T09:41:52Z</time>
      </trkpt>
      <trkpt lat="48.60477" lon="-4.12793">
        <ele>88.8</ele>
        <time>2020-06-10T09:41:53Z</time>
      </trkpt>
      <trkpt lat="48.60477" lon="-4.12784">
        <ele>88.8</ele>
        <time>2020-06-10T09:41:54Z</time>
      </trkpt>
      <trkpt lat="48.60478" lon="-4.12775">
        <ele>88.8</ele>
        <time>2020-06-10T09:41:55Z</time>
      </trkpt>
      <trkpt lat="48.60479" lon="-4.12767">
        <ele>88.8</ele>
        <time>2020-06-10T09:41:56Z</time>
      </trkpt>
      <trkpt lat="48.6048" lon="-4.12759">
        <ele>88.8</ele>
        <time>2020-06-10T09:41:57Z</time>
      </trkpt>
      <trkpt lat="48.6048" lon="-4.12749">
        <ele>88.8</ele>
        <time>2020-06-10T09:41:58Z</time>
      </trkpt>
      <trkpt lat="48.60481" lon="-4.12739">
        <ele>88.8</ele>
        <time>2020-06-10T09:41:59Z</time>
      </trkpt>
      <trkpt lat="48.60481" lon="-4.12729">
        <ele>88.8</ele>
        <time>2020-06-10T09:42:00Z</time>
      </trkpt>
      <trkpt lat="48.60481" lon="-4.1272">
        <ele>88.8</ele>
        <time>2020-06-10T09:42:01Z</time>
      </trkpt>
      <trkpt lat="48.60481" lon="-4.12712">
        <ele>88.8</ele>
        <time>2020-06-10T09:42:02Z</time>
      </trkpt>
      <trkpt lat="48.60481" lon="-4.12702">
        <ele>88.8</ele>
        <time>2020-06-10T09:42:03Z</time>
      </trkpt>
      <trkpt lat="48.60481" lon="-4.12694">
        <ele>88.9</ele>
        <time>2020-06-10T09:42:04Z</time>
      </trkpt>
      <trkpt lat="48.60482" lon="-4.12686">
        <ele>88.9</ele>
        <time>2020-06-10T09:42:05Z</time>
      </trkpt>
      <trkpt lat="48.60482" lon="-4.12678">
        <ele>88.9</ele>
        <time>2020-06-10T09:42:06Z</time>
      </trkpt>
      <trkpt lat="48.60482" lon="-4.12671">
        <ele>88.9</ele>
        <time>2020-06-10T09:42:07Z</time>
      </trkpt>
      <trkpt lat="48.60482" lon="-4.12663">
        <ele>89</ele>
        <time>2020-06-10T09:42:08Z</time>
      </trkpt>
      <trkpt lat="48.60483" lon="-4.12655">
        <ele>89</ele>
        <time>2020-06-10T09:42:09Z</time>
      </trkpt>
      <trkpt lat="48.60483" lon="-4.12646">
        <ele>89</ele>
        <time>2020-06-10T09:42:10Z</time>
      </trkpt>
      <trkpt lat="48.60484" lon="-4.12637">
        <ele>89.1</ele>
        <time>2020-06-10T09:42:11Z</time>
      </trkpt>
      <trkpt lat="48.60485" lon="-4.12629">
        <ele>89.1</ele>
        <time>2020-06-10T09:42:12Z</time>
      </trkpt>
      <trkpt lat="48.60485" lon="-4.1262">
        <ele>89.1</ele>
        <time>2020-06-10T09:42:13Z</time>
      </trkpt>
      <trkpt lat="48.60485" lon="-4.12612">
        <ele>89.2</ele>
        <time>2020-06-10T09:42:14Z</time>
      </trkpt>
      <trkpt lat="48.60485" lon="-4.12603">
        <ele>89.2</ele>
        <time>2020-06-10T09:42:15Z</time>
      </trkpt>
      <trkpt lat="48.60485" lon="-4.12596">
        <ele>89.3</ele>
        <time>2020-06-10T09:42:16Z</time>
      </trkpt>
      <trkpt lat="48.60485" lon="-4.12588">
        <ele>89.3</ele>
        <time>2020-06-10T09:42:17Z</time>
      </trkpt>
      <trkpt lat="48.60486" lon="-4.12581">
        <ele>89.3</ele>
        <time>2020-06-10T09:42:18Z</time>
      </trkpt>
      <trkpt lat="48.60486" lon="-4.12573">
        <ele>89.4</ele>
        <time>2020-06-10T09:42:19Z</time>
      </trkpt>
      <trkpt lat="48.60486" lon="-4.12566">
        <ele>89.4</ele>
        <time>2020-06-10T09:42:20Z</time>
      </trkpt>
      <trkpt lat="48.60486" lon="-4.12559">
        <ele>89.5</ele>
        <time>2020-06-10T09:42:21Z</time>
      </trkpt>
      <trkpt lat="48.60486" lon="-4.12551">
        <ele>89.6</ele>
        <time>2020-06-10T09:42:22Z</time>
      </trkpt>
      <trkpt lat="48.60487" lon="-4.12543">
        <ele>89.6</ele>
        <time>2020-06-10T09:42:23Z</time>
      </trkpt>
      <trkpt lat="48.60487" lon="-4.12535">
        <ele>89.7</ele>
        <time>2020-06-10T09:42:24Z</time>
      </trkpt>
      <trkpt lat="48.60487" lon="-4.12526">
        <ele>89.8</ele>
        <time>2020-06-10T09:42:25Z</time>
      </trkpt>
      <trkpt lat="48.60488" lon="-4.12518">
        <ele>89.9</ele>
        <time>2020-06-10T09:42:26Z</time>
      </trkpt>
      <trkpt lat="48.60487" lon="-4.12509">
        <ele>90</ele>
        <time>2020-06-10T09:42:27Z</time>
      </trkpt>
      <trkpt lat="48.60487" lon="-4.12502">
        <ele>90</ele>
        <time>2020-06-10T09:42:28Z</time>
      </trkpt>
      <trkpt lat="48.60487" lon="-4.12494">
        <ele>90.1</ele>
        <time>2020-06-10T09:42:29Z</time>
      </trkpt>
      <trkpt lat="48.60488" lon="-4.12486">
        <ele>90.2</ele>
        <time>2020-06-10T09:42:30Z</time>
      </trkpt>
      <trkpt lat="48.60489" lon="-4.12479">
        <ele>90.4</ele>
        <time>2020-06-10T09:42:31Z</time>
      </trkpt>
      <trkpt lat="48.60491" lon="-4.12471">
        <ele>90.5</ele>
        <time>2020-06-10T09:42:32Z</time>
      </trkpt>
      <trkpt lat="48.60492" lon="-4.12462">
        <ele>90.7</ele>
        <time>2020-06-10T09:42:33Z</time>
      </trkpt>
      <trkpt lat="48.60494" lon="-4.12455">
        <ele>90.8</ele>
        <time>2020-06-10T09:42:34Z</time>
      </trkpt>
      <trkpt lat="48.60495" lon="-4.12448">
        <ele>90.8</ele>
        <time>2020-06-10T09:42:35Z</time>
      </trkpt>
      <trkpt lat="48.60496" lon="-4.12442">
        <ele>90.9</ele>
        <time>2020-06-10T09:42:36Z</time>
      </trkpt>
      <trkpt lat="48.60497" lon="-4.12435">
        <ele>91</ele>
        <time>2020-06-10T09:42:37Z</time>
      </trkpt>
      <trkpt lat="48.60498" lon="-4.12428">
        <ele>91.1</ele>
        <time>2020-06-10T09:42:38Z</time>
      </trkpt>
      <trkpt lat="48.605" lon="-4.12423">
        <ele>91.2</ele>
        <time>2020-06-10T09:42:39Z</time>
      </trkpt>
      <trkpt lat="48.60501" lon="-4.12416">
        <ele>91.3</ele>
        <time>2020-06-10T09:42:40Z</time>
      </trkpt>
      <trkpt lat="48.60502" lon="-4.12409">
        <ele>91.5</ele>
        <time>2020-06-10T09:42:41Z</time>
      </trkpt>
      <trkpt lat="48.60504" lon="-4.12401">
        <ele>91.6</ele>
        <time>2020-06-10T09:42:42Z</time>
      </trkpt>
      <trkpt lat="48.60504" lon="-4.12394">
        <ele>91.7</ele>
        <time>2020-06-10T09:42:43Z</time>
      </trkpt>
      <trkpt lat="48.60505" lon="-4.12387">
        <ele>91.8</ele>
        <time>2020-06-10T09:42:44Z</time>
      </trkpt>
      <trkpt lat="48.60506" lon="-4.12377">
        <ele>91.9</ele>
        <time>2020-06-10T09:42:45Z</time>
      </trkpt>
      <trkpt lat="48.60505" lon="-4.12371">
        <ele>92</ele>
        <time>2020-06-10T09:42:46Z</time>
      </trkpt>
      <trkpt lat="48.60504" lon="-4.12364">
        <ele>92.1</ele>
        <time>2020-06-10T09:42:47Z</time>
      </trkpt>
      <trkpt lat="48.60504" lon="-4.12359">
        <ele>92.7</ele>
        <time>2020-06-10T09:42:48Z</time>
      </trkpt>
      <trkpt lat="48.60503" lon="-4.12354">
        <ele>92.7</ele>
        <time>2020-06-10T09:42:49Z</time>
      </trkpt>
      <trkpt lat="48.60502" lon="-4.12348">
        <ele>92.8</ele>
        <time>2020-06-10T09:42:50Z</time>
      </trkpt>
      <trkpt lat="48.60503" lon="-4.12341">
        <ele>92.4</ele>
        <time>2020-06-10T09:42:51Z</time>
      </trkpt>
      <trkpt lat="48.60505" lon="-4.12335">
        <ele>92.4</ele>
        <time>2020-06-10T09:42:52Z</time>
      </trkpt>
      <trkpt lat="48.60507" lon="-4.1233">
        <ele>92.3</ele>
        <time>2020-06-10T09:42:53Z</time>
      </trkpt>
      <trkpt lat="48.6051" lon="-4.12325">
        <ele>92.3</ele>
        <time>2020-06-10T09:42:54Z</time>
      </trkpt>
      <trkpt lat="48.60513" lon="-4.12321">
        <ele>92.2</ele>
        <time>2020-06-10T09:42:55Z</time>
      </trkpt>
      <trkpt lat="48.60517" lon="-4.12318">
        <ele>92.1</ele>
        <time>2020-06-10T09:42:56Z</time>
      </trkpt>
      <trkpt lat="48.60521" lon="-4.12312">
        <ele>92</ele>
        <time>2020-06-10T09:42:57Z</time>
      </trkpt>
      <trkpt lat="48.60524" lon="-4.12306">
        <ele>91.9</ele>
        <time>2020-06-10T09:42:58Z</time>
      </trkpt>
      <trkpt lat="48.60527" lon="-4.123">
        <ele>91.7</ele>
        <time>2020-06-10T09:42:59Z</time>
      </trkpt>
      <trkpt lat="48.60531" lon="-4.12291">
        <ele>91.6</ele>
        <time>2020-06-10T09:43:00Z</time>
      </trkpt>
      <trkpt lat="48.60534" lon="-4.12283">
        <ele>91.5</ele>
        <time>2020-06-10T09:43:01Z</time>
      </trkpt>
      <trkpt lat="48.60536" lon="-4.12276">
        <ele>91.4</ele>
        <time>2020-06-10T09:43:02Z</time>
      </trkpt>
      <trkpt lat="48.60537" lon="-4.12269">
        <ele>91.3</ele>
        <time>2020-06-10T09:43:03Z</time>
      </trkpt>
      <trkpt lat="48.60538" lon="-4.12262">
        <ele>91.3</ele>
        <time>2020-06-10T09:43:04Z</time>
      </trkpt>
      <trkpt lat="48.60539" lon="-4.12254">
        <ele>91.2</ele>
        <time>2020-06-10T09:43:05Z</time>
      </trkpt>
      <trkpt lat="48.6054" lon="-4.12246">
        <ele>91.1</ele>
        <time>2020-06-10T09:43:06Z</time>
      </trkpt>
      <trkpt lat="48.60542" lon="-4.12239">
        <ele>91</ele>
        <time>2020-06-10T09:43:07Z</time>
      </trkpt>
      <trkpt lat="48.60543" lon="-4.12231">
        <ele>90.9</ele>
        <time>2020-06-10T09:43:08Z</time>
      </trkpt>
      <trkpt lat="48.60545" lon="-4.12222">
        <ele>90.8</ele>
        <time>2020-06-10T09:43:09Z</time>
      </trkpt>
      <trkpt lat="48.60546" lon="-4.12214">
        <ele>90.6</ele>
        <time>2020-06-10T09:43:10Z</time>
      </trkpt>
      <trkpt lat="48.60548" lon="-4.12205">
        <ele>90.5</ele>
        <time>2020-06-10T09:43:11Z</time>
      </trkpt>
      <trkpt lat="48.60549" lon="-4.12196">
        <ele>90.4</ele>
        <time>2020-06-10T09:43:12Z</time>
      </trkpt>
      <trkpt lat="48.60551" lon="-4.12188">
        <ele>90.3</ele>
        <time>2020-06-10T09:43:13Z</time>
      </trkpt>
      <trkpt lat="48.60553" lon="-4.12179">
        <ele>90.2</ele>
        <time>2020-06-10T09:43:14Z</time>
      </trkpt>
      <trkpt lat="48.60555" lon="-4.1217">
        <ele>90</ele>
        <time>2020-06-10T09:43:15Z</time>
      </trkpt>
      <trkpt lat="48.60557" lon="-4.1216">
        <ele>89.9</ele>
        <time>2020-06-10T09:43:16Z</time>
      </trkpt>
      <trkpt lat="48.60559" lon="-4.12151">
        <ele>89.7</ele>
        <time>2020-06-10T09:43:17Z</time>
      </trkpt>
      <trkpt lat="48.60561" lon="-4.12143">
        <ele>89.6</ele>
        <time>2020-06-10T09:43:18Z</time>
      </trkpt>
      <trkpt lat="48.60562" lon="-4.12135">
        <ele>89.5</ele>
        <time>2020-06-10T09:43:19Z</time>
      </trkpt>
      <trkpt lat="48.60564" lon="-4.12125">
        <ele>89.5</ele>
        <time>2020-06-10T09:43:20Z</time>
      </trkpt>
      <trkpt lat="48.60566" lon="-4.12116">
        <ele>89.3</ele>
        <time>2020-06-10T09:43:21Z</time>
      </trkpt>
      <trkpt lat="48.60567" lon="-4.12106">
        <ele>89.1</ele>
        <time>2020-06-10T09:43:22Z</time>
      </trkpt>
      <trkpt lat="48.60569" lon="-4.12096">
        <ele>89</ele>
        <time>2020-06-10T09:43:23Z</time>
      </trkpt>
      <trkpt lat="48.60571" lon="-4.12086">
        <ele>88.8</ele>
        <time>2020-06-10T09:43:24Z</time>
      </trkpt>
      <trkpt lat="48.60573" lon="-4.12076">
        <ele>88.6</ele>
        <time>2020-06-10T09:43:25Z</time>
      </trkpt>
      <trkpt lat="48.60574" lon="-4.12065">
        <ele>88.4</ele>
        <time>2020-06-10T09:43:26Z</time>
      </trkpt>
      <trkpt lat="48.60576" lon="-4.12055">
        <ele>88.2</ele>
        <time>2020-06-10T09:43:27Z</time>
      </trkpt>
      <trkpt lat="48.60577" lon="-4.12044">
        <ele>88.1</ele>
        <time>2020-06-10T09:43:28Z</time>
      </trkpt>
      <trkpt lat="48.60579" lon="-4.12034">
        <ele>87.9</ele>
        <time>2020-06-10T09:43:29Z</time>
      </trkpt>
      <trkpt lat="48.6058" lon="-4.12024">
        <ele>87.8</ele>
        <time>2020-06-10T09:43:30Z</time>
      </trkpt>
      <trkpt lat="48.60581" lon="-4.12013">
        <ele>87.7</ele>
        <time>2020-06-10T09:43:31Z</time>
      </trkpt>
      <trkpt lat="48.60583" lon="-4.12003">
        <ele>87.6</ele>
        <time>2020-06-10T09:43:32Z</time>
      </trkpt>
      <trkpt lat="48.60584" lon="-4.11993">
        <ele>87.5</ele>
        <time>2020-06-10T09:43:33Z</time>
      </trkpt>
      <trkpt lat="48.60585" lon="-4.11983">
        <ele>87.4</ele>
        <time>2020-06-10T09:43:34Z</time>
      </trkpt>
      <trkpt lat="48.60587" lon="-4.11972">
        <ele>87.2</ele>
        <time>2020-06-10T09:43:35Z</time>
      </trkpt>
      <trkpt lat="48.60588" lon="-4.11962">
        <ele>87.1</ele>
        <time>2020-06-10T09:43:36Z</time>
      </trkpt>
      <trkpt lat="48.60589" lon="-4.11953">
        <ele>87</ele>
        <time>2020-06-10T09:43:37Z</time>
      </trkpt>
      <trkpt lat="48.6059" lon="-4.11942">
        <ele>86.9</ele>
        <time>2020-06-10T09:43:38Z</time>
      </trkpt>
      <trkpt lat="48.60591" lon="-4.11932">
        <ele>86.7</ele>
        <time>2020-06-10T09:43:39Z</time>
      </trkpt>
      <trkpt lat="48.60592" lon="-4.11921">
        <ele>86.6</ele>
        <time>2020-06-10T09:43:40Z</time>
      </trkpt>
      <trkpt lat="48.60593" lon="-4.11911">
        <ele>86.5</ele>
        <time>2020-06-10T09:43:41Z</time>
      </trkpt>
      <trkpt lat="48.60594" lon="-4.119">
        <ele>86.4</ele>
        <time>2020-06-10T09:43:42Z</time>
      </trkpt>
      <trkpt lat="48.60595" lon="-4.1189">
        <ele>86.5</ele>
        <time>2020-06-10T09:43:43Z</time>
      </trkpt>
      <trkpt lat="48.60595" lon="-4.1188">
        <ele>86.5</ele>
        <time>2020-06-10T09:43:44Z</time>
      </trkpt>
      <trkpt lat="48.60594" lon="-4.1187">
        <ele>86.4</ele>
        <time>2020-06-10T09:43:45Z</time>
      </trkpt>
      <trkpt lat="48.60594" lon="-4.11861">
        <ele>86.4</ele>
        <time>2020-06-10T09:43:46Z</time>
      </trkpt>
      <trkpt lat="48.60594" lon="-4.11852">
        <ele>86.4</ele>
        <time>2020-06-10T09:43:47Z</time>
      </trkpt>
      <trkpt lat="48.60594" lon="-4.11843">
        <ele>86.4</ele>
        <time>2020-06-10T09:43:48Z</time>
      </trkpt>
      <trkpt lat="48.60594" lon="-4.11833">
        <ele>86.3</ele>
        <time>2020-06-10T09:43:49Z</time>
      </trkpt>
      <trkpt lat="48.60594" lon="-4.11824">
        <ele>86.3</ele>
        <time>2020-06-10T09:43:50Z</time>
      </trkpt>
      <trkpt lat="48.60594" lon="-4.11816">
        <ele>86.3</ele>
        <time>2020-06-10T09:43:51Z</time>
      </trkpt>
      <trkpt lat="48.60593" lon="-4.11807">
        <ele>86.3</ele>
        <time>2020-06-10T09:43:52Z</time>
      </trkpt>
      <trkpt lat="48.60594" lon="-4.11799">
        <ele>86.3</ele>
        <time>2020-06-10T09:43:53Z</time>
      </trkpt>
      <trkpt lat="48.60595" lon="-4.1179">
        <ele>86.3</ele>
        <time>2020-06-10T09:43:54Z</time>
      </trkpt>
      <trkpt lat="48.60594" lon="-4.11783">
        <ele>86.3</ele>
        <time>2020-06-10T09:43:55Z</time>
      </trkpt>
      <trkpt lat="48.60594" lon="-4.11774">
        <ele>86.3</ele>
        <time>2020-06-10T09:43:56Z</time>
      </trkpt>
      <trkpt lat="48.60593" lon="-4.11766">
        <ele>86.3</ele>
        <time>2020-06-10T09:43:57Z</time>
      </trkpt>
      <trkpt lat="48.60592" lon="-4.11758">
        <ele>86.3</ele>
        <time>2020-06-10T09:43:58Z</time>
      </trkpt>
      <trkpt lat="48.60592" lon="-4.1175">
        <ele>86.3</ele>
        <time>2020-06-10T09:43:59Z</time>
      </trkpt>
      <trkpt lat="48.60593" lon="-4.11742">
        <ele>86.4</ele>
        <time>2020-06-10T09:44:00Z</time>
      </trkpt>
      <trkpt lat="48.60594" lon="-4.11734">
        <ele>86.4</ele>
        <time>2020-06-10T09:44:01Z</time>
      </trkpt>
      <trkpt lat="48.60595" lon="-4.11726">
        <ele>86.4</ele>
        <time>2020-06-10T09:44:02Z</time>
      </trkpt>
      <trkpt lat="48.60595" lon="-4.11717">
        <ele>86.4</ele>
        <time>2020-06-10T09:44:03Z</time>
      </trkpt>
      <trkpt lat="48.60594" lon="-4.11709">
        <ele>86.4</ele>
        <time>2020-06-10T09:44:04Z</time>
      </trkpt>
      <trkpt lat="48.60594" lon="-4.117">
        <ele>86.4</ele>
        <time>2020-06-10T09:44:05Z</time>
      </trkpt>
      <trkpt lat="48.60593" lon="-4.11691">
        <ele>86.4</ele>
        <time>2020-06-10T09:44:06Z</time>
      </trkpt>
      <trkpt lat="48.60593" lon="-4.11683">
        <ele>86.4</ele>
        <time>2020-06-10T09:44:07Z</time>
      </trkpt>
      <trkpt lat="48.60592" lon="-4.11674">
        <ele>86.4</ele>
        <time>2020-06-10T09:44:08Z</time>
      </trkpt>
      <trkpt lat="48.60592" lon="-4.11666">
        <ele>86.4</ele>
        <time>2020-06-10T09:44:09Z</time>
      </trkpt>
      <trkpt lat="48.60592" lon="-4.11658">
        <ele>86.4</ele>
        <time>2020-06-10T09:44:10Z</time>
      </trkpt>
      <trkpt lat="48.60592" lon="-4.11649">
        <ele>86.4</ele>
        <time>2020-06-10T09:44:11Z</time>
      </trkpt>
      <trkpt lat="48.60592" lon="-4.11641">
        <ele>86.4</ele>
        <time>2020-06-10T09:44:12Z</time>
      </trkpt>
      <trkpt lat="48.60592" lon="-4.11633">
        <ele>86.5</ele>
        <time>2020-06-10T09:44:13Z</time>
      </trkpt>
      <trkpt lat="48.60592" lon="-4.11625">
        <ele>86.5</ele>
        <time>2020-06-10T09:44:14Z</time>
      </trkpt>
      <trkpt lat="48.60592" lon="-4.11617">
        <ele>86.5</ele>
        <time>2020-06-10T09:44:15Z</time>
      </trkpt>
      <trkpt lat="48.60592" lon="-4.11609">
        <ele>86.5</ele>
        <time>2020-06-10T09:44:16Z</time>
      </trkpt>
      <trkpt lat="48.60592" lon="-4.11601">
        <ele>86.5</ele>
        <time>2020-06-10T09:44:17Z</time>
      </trkpt>
      <trkpt lat="48.60593" lon="-4.11592">
        <ele>86.6</ele>
        <time>2020-06-10T09:44:18Z</time>
      </trkpt>
      <trkpt lat="48.60593" lon="-4.11584">
        <ele>86.6</ele>
        <time>2020-06-10T09:44:19Z</time>
      </trkpt>
      <trkpt lat="48.60592" lon="-4.11576">
        <ele>86.6</ele>
        <time>2020-06-10T09:44:20Z</time>
      </trkpt>
      <trkpt lat="48.60592" lon="-4.11568">
        <ele>86.6</ele>
        <time>2020-06-10T09:44:21Z</time>
      </trkpt>
      <trkpt lat="48.60593" lon="-4.1156">
        <ele>86.7</ele>
        <time>2020-06-10T09:44:22Z</time>
      </trkpt>
      <trkpt lat="48.60593" lon="-4.11552">
        <ele>86.7</ele>
        <time>2020-06-10T09:44:23Z</time>
      </trkpt>
      <trkpt lat="48.60593" lon="-4.11543">
        <ele>86.7</ele>
        <time>2020-06-10T09:44:24Z</time>
      </trkpt>
      <trkpt lat="48.60593" lon="-4.11535">
        <ele>86.8</ele>
        <time>2020-06-10T09:44:25Z</time>
      </trkpt>
      <trkpt lat="48.60595" lon="-4.11526">
        <ele>86.8</ele>
        <time>2020-06-10T09:44:26Z</time>
      </trkpt>
      <trkpt lat="48.60595" lon="-4.11518">
        <ele>86.8</ele>
        <time>2020-06-10T09:44:27Z</time>
      </trkpt>
      <trkpt lat="48.60595" lon="-4.11509">
        <ele>86.8</ele>
        <time>2020-06-10T09:44:28Z</time>
      </trkpt>
      <trkpt lat="48.60596" lon="-4.11502">
        <ele>86.8</ele>
        <time>2020-06-10T09:44:29Z</time>
      </trkpt>
      <trkpt lat="48.60596" lon="-4.11494">
        <ele>86.8</ele>
        <time>2020-06-10T09:44:30Z</time>
      </trkpt>
      <trkpt lat="48.60597" lon="-4.11486">
        <ele>86.8</ele>
        <time>2020-06-10T09:44:31Z</time>
      </trkpt>
      <trkpt lat="48.60597" lon="-4.11479">
        <ele>86.7</ele>
        <time>2020-06-10T09:44:32Z</time>
      </trkpt>
      <trkpt lat="48.60597" lon="-4.11471">
        <ele>86.7</ele>
        <time>2020-06-10T09:44:33Z</time>
      </trkpt>
      <trkpt lat="48.60598" lon="-4.11464">
        <ele>86.7</ele>
        <time>2020-06-10T09:44:34Z</time>
      </trkpt>
      <trkpt lat="48.60599" lon="-4.11456">
        <ele>86.7</ele>
        <time>2020-06-10T09:44:35Z</time>
      </trkpt>
      <trkpt lat="48.60601" lon="-4.11449">
        <ele>86.7</ele>
        <time>2020-06-10T09:44:36Z</time>
      </trkpt>
      <trkpt lat="48.60602" lon="-4.11443">
        <ele>86.6</ele>
        <time>2020-06-10T09:44:37Z</time>
      </trkpt>
      <trkpt lat="48.60603" lon="-4.11435">
        <ele>86.6</ele>
        <time>2020-06-10T09:44:38Z</time>
      </trkpt>
      <trkpt lat="48.60603" lon="-4.11427">
        <ele>86.6</ele>
        <time>2020-06-10T09:44:39Z</time>
      </trkpt>
      <trkpt lat="48.60605" lon="-4.1142">
        <ele>86.6</ele>
        <time>2020-06-10T09:44:40Z</time>
      </trkpt>
      <trkpt lat="48.60605" lon="-4.11412">
        <ele>86.6</ele>
        <time>2020-06-10T09:44:41Z</time>
      </trkpt>
      <trkpt lat="48.60606" lon="-4.11404">
        <ele>86.6</ele>
        <time>2020-06-10T09:44:42Z</time>
      </trkpt>
      <trkpt lat="48.60607" lon="-4.11396">
        <ele>86.7</ele>
        <time>2020-06-10T09:44:43Z</time>
      </trkpt>
      <trkpt lat="48.60609" lon="-4.11388">
        <ele>86.8</ele>
        <time>2020-06-10T09:44:44Z</time>
      </trkpt>
      <trkpt lat="48.60609" lon="-4.1138">
        <ele>86.9</ele>
        <time>2020-06-10T09:44:45Z</time>
      </trkpt>
      <trkpt lat="48.60609" lon="-4.11372">
        <ele>87</ele>
        <time>2020-06-10T09:44:46Z</time>
      </trkpt>
      <trkpt lat="48.60608" lon="-4.11365">
        <ele>87.1</ele>
        <time>2020-06-10T09:44:47Z</time>
      </trkpt>
      <trkpt lat="48.60608" lon="-4.11358">
        <ele>87.1</ele>
        <time>2020-06-10T09:44:48Z</time>
      </trkpt>
      <trkpt lat="48.60606" lon="-4.11352">
        <ele>87.2</ele>
        <time>2020-06-10T09:44:49Z</time>
      </trkpt>
      <trkpt lat="48.60604" lon="-4.11346">
        <ele>87.3</ele>
        <time>2020-06-10T09:44:50Z</time>
      </trkpt>
      <trkpt lat="48.60603" lon="-4.1134">
        <ele>87.3</ele>
        <time>2020-06-10T09:44:51Z</time>
      </trkpt>
      <trkpt lat="48.60602" lon="-4.11335">
        <ele>87.3</ele>
        <time>2020-06-10T09:44:52Z</time>
      </trkpt>
      <trkpt lat="48.60601" lon="-4.11329">
        <ele>87.3</ele>
        <time>2020-06-10T09:44:53Z</time>
      </trkpt>
      <trkpt lat="48.606" lon="-4.11324">
        <ele>87.3</ele>
        <time>2020-06-10T09:44:54Z</time>
      </trkpt>
      <trkpt lat="48.60601" lon="-4.11318">
        <ele>87.3</ele>
        <time>2020-06-10T09:44:55Z</time>
      </trkpt>
      <trkpt lat="48.60601" lon="-4.11312">
        <ele>87.3</ele>
        <time>2020-06-10T09:44:56Z</time>
      </trkpt>
      <trkpt lat="48.606" lon="-4.11307">
        <ele>87.3</ele>
        <time>2020-06-10T09:44:57Z</time>
      </trkpt>
      <trkpt lat="48.60601" lon="-4.11302">
        <ele>87.3</ele>
        <time>2020-06-10T09:44:58Z</time>
      </trkpt>
      <trkpt lat="48.60601" lon="-4.11297">
        <ele>87.3</ele>
        <time>2020-06-10T09:44:59Z</time>
      </trkpt>
      <trkpt lat="48.60601" lon="-4.11292">
        <ele>87.3</ele>
        <time>2020-06-10T09:45:00Z</time>
      </trkpt>
      <trkpt lat="48.60602" lon="-4.11287">
        <ele>87.4</ele>
        <time>2020-06-10T09:45:01Z</time>
      </trkpt>
      <trkpt lat="48.60602" lon="-4.11282">
        <ele>87.4</ele>
        <time>2020-06-10T09:45:02Z</time>
      </trkpt>
      <trkpt lat="48.60602" lon="-4.1128">
        <ele>87.4</ele>
        <time>2020-06-10T09:45:03Z</time>
      </trkpt>
      <trkpt lat="48.60602" lon="-4.11277">
        <ele>87.4</ele>
        <time>2020-06-10T09:45:04Z</time>
      </trkpt>
      <trkpt lat="48.60602" lon="-4.11276">
        <ele>87.4</ele>
        <time>2020-06-10T09:45:05Z</time>
      </trkpt>
      <trkpt lat="48.60602" lon="-4.11272">
        <ele>87.4</ele>
        <time>2020-06-10T09:45:06Z</time>
      </trkpt>
      <trkpt lat="48.60602" lon="-4.11269">
        <ele>87.4</ele>
        <time>2020-06-10T09:45:07Z</time>
      </trkpt>
      <trkpt lat="48.60602" lon="-4.11267">
        <ele>87.4</ele>
        <time>2020-06-10T09:45:08Z</time>
      </trkpt>
      <trkpt lat="48.60602" lon="-4.11264">
        <ele>87.5</ele>
        <time>2020-06-10T09:45:09Z</time>
      </trkpt>
      <trkpt lat="48.60602" lon="-4.11261">
        <ele>87.5</ele>
        <time>2020-06-10T09:45:10Z</time>
      </trkpt>
      <trkpt lat="48.60602" lon="-4.11258">
        <ele>87.5</ele>
        <time>2020-06-10T09:45:11Z</time>
      </trkpt>
      <trkpt lat="48.60602" lon="-4.11256">
        <ele>87.5</ele>
        <time>2020-06-10T09:45:12Z</time>
      </trkpt>
      <trkpt lat="48.60602" lon="-4.11253">
        <ele>87.5</ele>
        <time>2020-06-10T09:45:13Z</time>
      </trkpt>
      <trkpt lat="48.60602" lon="-4.1125">
        <ele>87.5</ele>
        <time>2020-06-10T09:45:14Z</time>
      </trkpt>
      <trkpt lat="48.60602" lon="-4.11247">
        <ele>87.5</ele>
        <time>2020-06-10T09:45:15Z</time>
      </trkpt>
      <trkpt lat="48.60602" lon="-4.11245">
        <ele>87.5</ele>
        <time>2020-06-10T09:45:16Z</time>
      </trkpt>
      <trkpt lat="48.60601" lon="-4.11242">
        <ele>87.6</ele>
        <time>2020-06-10T09:57:55Z</time>
      </trkpt>
      <trkpt lat="48.60601" lon="-4.11239">
        <ele>87.6</ele>
        <time>2020-06-10T09:57:56Z</time>
      </trkpt>
      <trkpt lat="48.60601" lon="-4.11233">
        <ele>87.6</ele>
        <time>2020-06-10T09:57:57Z</time>
      </trkpt>
      <trkpt lat="48.60601" lon="-4.11225">
        <ele>87.6</ele>
        <time>2020-06-10T09:57:58Z</time>
      </trkpt>
      <trkpt lat="48.606" lon="-4.11219">
        <ele>87.6</ele>
        <time>2020-06-10T09:57:59Z</time>
      </trkpt>
      <trkpt lat="48.60598" lon="-4.11213">
        <ele>87.6</ele>
        <time>2020-06-10T09:58:00Z</time>
      </trkpt>
      <trkpt lat="48.60597" lon="-4.11208">
        <ele>87.6</ele>
        <time>2020-06-10T09:58:01Z</time>
      </trkpt>
      <trkpt lat="48.60596" lon="-4.11202">
        <ele>87.6</ele>
        <time>2020-06-10T09:58:02Z</time>
      </trkpt>
      <trkpt lat="48.60596" lon="-4.11196">
        <ele>87.6</ele>
        <time>2020-06-10T09:58:03Z</time>
      </trkpt>
      <trkpt lat="48.60596" lon="-4.11192">
        <ele>87.6</ele>
        <time>2020-06-10T09:58:04Z</time>
      </trkpt>
      <trkpt lat="48.60596" lon="-4.11186">
        <ele>87.6</ele>
        <time>2020-06-10T09:58:05Z</time>
      </trkpt>
      <trkpt lat="48.60596" lon="-4.1118">
        <ele>87.6</ele>
        <time>2020-06-10T09:58:06Z</time>
      </trkpt>
      <trkpt lat="48.60596" lon="-4.11173">
        <ele>87.5</ele>
        <time>2020-06-10T09:58:07Z</time>
      </trkpt>
      <trkpt lat="48.60597" lon="-4.11167">
        <ele>87.5</ele>
        <time>2020-06-10T09:58:08Z</time>
      </trkpt>
      <trkpt lat="48.60596" lon="-4.1116">
        <ele>87.5</ele>
        <time>2020-06-10T09:58:09Z</time>
      </trkpt>
      <trkpt lat="48.60596" lon="-4.11153">
        <ele>87.5</ele>
        <time>2020-06-10T09:58:10Z</time>
      </trkpt>
      <trkpt lat="48.60596" lon="-4.11146">
        <ele>87.5</ele>
        <time>2020-06-10T09:58:11Z</time>
      </trkpt>
      <trkpt lat="48.60595" lon="-4.11139">
        <ele>87.4</ele>
        <time>2020-06-10T09:58:12Z</time>
      </trkpt>
      <trkpt lat="48.60595" lon="-4.11133">
        <ele>87.4</ele>
        <time>2020-06-10T09:58:13Z</time>
      </trkpt>
      <trkpt lat="48.60593" lon="-4.11127">
        <ele>87.4</ele>
        <time>2020-06-10T09:58:14Z</time>
      </trkpt>
      <trkpt lat="48.60592" lon="-4.11121">
        <ele>87.4</ele>
        <time>2020-06-10T09:58:15Z</time>
      </trkpt>
      <trkpt lat="48.60592" lon="-4.11114">
        <ele>87.4</ele>
        <time>2020-06-10T09:58:16Z</time>
      </trkpt>
      <trkpt lat="48.60591" lon="-4.11107">
        <ele>87.4</ele>
        <time>2020-06-10T09:58:17Z</time>
      </trkpt>
      <trkpt lat="48.60591" lon="-4.11101">
        <ele>87.4</ele>
        <time>2020-06-10T09:58:18Z</time>
      </trkpt>
      <trkpt lat="48.6059" lon="-4.11095">
        <ele>87.4</ele>
        <time>2020-06-10T09:58:19Z</time>
      </trkpt>
      <trkpt lat="48.60589" lon="-4.11089">
        <ele>87.5</ele>
        <time>2020-06-10T09:58:20Z</time>
      </trkpt>
      <trkpt lat="48.60588" lon="-4.11083">
        <ele>87.4</ele>
        <time>2020-06-10T09:58:21Z</time>
      </trkpt>
      <trkpt lat="48.60588" lon="-4.11077">
        <ele>87.3</ele>
        <time>2020-06-10T09:58:22Z</time>
      </trkpt>
      <trkpt lat="48.60588" lon="-4.11071">
        <ele>87.2</ele>
        <time>2020-06-10T09:58:23Z</time>
      </trkpt>
      <trkpt lat="48.60588" lon="-4.11065">
        <ele>87.1</ele>
        <time>2020-06-10T09:58:24Z</time>
      </trkpt>
      <trkpt lat="48.60587" lon="-4.11058">
        <ele>87.1</ele>
        <time>2020-06-10T09:58:25Z</time>
      </trkpt>
      <trkpt lat="48.60587" lon="-4.11052">
        <ele>87</ele>
        <time>2020-06-10T09:58:26Z</time>
      </trkpt>
      <trkpt lat="48.60586" lon="-4.11044">
        <ele>86.9</ele>
        <time>2020-06-10T09:58:27Z</time>
      </trkpt>
      <trkpt lat="48.60586" lon="-4.11037">
        <ele>86.9</ele>
        <time>2020-06-10T09:58:28Z</time>
      </trkpt>
      <trkpt lat="48.60586" lon="-4.11031">
        <ele>86.8</ele>
        <time>2020-06-10T09:58:29Z</time>
      </trkpt>
      <trkpt lat="48.60586" lon="-4.11023">
        <ele>86.8</ele>
        <time>2020-06-10T09:58:30Z</time>
      </trkpt>
      <trkpt lat="48.60587" lon="-4.11016">
        <ele>86.7</ele>
        <time>2020-06-10T09:58:31Z</time>
      </trkpt>
      <trkpt lat="48.60586" lon="-4.11008">
        <ele>86.7</ele>
        <time>2020-06-10T09:58:32Z</time>
      </trkpt>
      <trkpt lat="48.60586" lon="-4.10997">
        <ele>86.6</ele>
        <time>2020-06-10T09:58:33Z</time>
      </trkpt>
      <trkpt lat="48.60585" lon="-4.10992">
        <ele>86.6</ele>
        <time>2020-06-10T09:58:34Z</time>
      </trkpt>
      <trkpt lat="48.60585" lon="-4.10986">
        <ele>86.5</ele>
        <time>2020-06-10T09:58:35Z</time>
      </trkpt>
      <trkpt lat="48.60584" lon="-4.10978">
        <ele>86.5</ele>
        <time>2020-06-10T09:58:36Z</time>
      </trkpt>
      <trkpt lat="48.60584" lon="-4.1097">
        <ele>86.5</ele>
        <time>2020-06-10T09:58:37Z</time>
      </trkpt>
      <trkpt lat="48.60583" lon="-4.10962">
        <ele>86.4</ele>
        <time>2020-06-10T09:58:38Z</time>
      </trkpt>
      <trkpt lat="48.60582" lon="-4.10956">
        <ele>86.4</ele>
        <time>2020-06-10T09:58:39Z</time>
      </trkpt>
      <trkpt lat="48.60582" lon="-4.10949">
        <ele>86.4</ele>
        <time>2020-06-10T09:58:40Z</time>
      </trkpt>
      <trkpt lat="48.60582" lon="-4.10941">
        <ele>86.3</ele>
        <time>2020-06-10T09:58:41Z</time>
      </trkpt>
      <trkpt lat="48.60581" lon="-4.10935">
        <ele>86.3</ele>
        <time>2020-06-10T09:58:42Z</time>
      </trkpt>
      <trkpt lat="48.60581" lon="-4.10928">
        <ele>86.3</ele>
        <time>2020-06-10T09:58:43Z</time>
      </trkpt>
      <trkpt lat="48.60579" lon="-4.10921">
        <ele>86.3</ele>
        <time>2020-06-10T09:58:44Z</time>
      </trkpt>
      <trkpt lat="48.60578" lon="-4.10915">
        <ele>86.3</ele>
        <time>2020-06-10T09:58:45Z</time>
      </trkpt>
      <trkpt lat="48.60578" lon="-4.10907">
        <ele>86.2</ele>
        <time>2020-06-10T09:58:46Z</time>
      </trkpt>
      <trkpt lat="48.60578" lon="-4.109">
        <ele>86.2</ele>
        <time>2020-06-10T09:58:47Z</time>
      </trkpt>
      <trkpt lat="48.60578" lon="-4.10893">
        <ele>86.2</ele>
        <time>2020-06-10T09:58:48Z</time>
      </trkpt>
      <trkpt lat="48.60577" lon="-4.10887">
        <ele>86.2</ele>
        <time>2020-06-10T09:58:49Z</time>
      </trkpt>
      <trkpt lat="48.60578" lon="-4.10878">
        <ele>86.1</ele>
        <time>2020-06-10T09:58:50Z</time>
      </trkpt>
      <trkpt lat="48.60578" lon="-4.10872">
        <ele>86.1</ele>
        <time>2020-06-10T09:58:51Z</time>
      </trkpt>
      <trkpt lat="48.60578" lon="-4.10865">
        <ele>86</ele>
        <time>2020-06-10T09:58:52Z</time>
      </trkpt>
      <trkpt lat="48.60578" lon="-4.10857">
        <ele>85.9</ele>
        <time>2020-06-10T09:58:53Z</time>
      </trkpt>
      <trkpt lat="48.60578" lon="-4.1085">
        <ele>85.9</ele>
        <time>2020-06-10T09:58:54Z</time>
      </trkpt>
      <trkpt lat="48.60578" lon="-4.10842">
        <ele>85.8</ele>
        <time>2020-06-10T09:58:55Z</time>
      </trkpt>
      <trkpt lat="48.60578" lon="-4.10834">
        <ele>85.7</ele>
        <time>2020-06-10T09:58:56Z</time>
      </trkpt>
      <trkpt lat="48.60578" lon="-4.10825">
        <ele>85.6</ele>
        <time>2020-06-10T09:58:57Z</time>
      </trkpt>
      <trkpt lat="48.60578" lon="-4.10817">
        <ele>85.5</ele>
        <time>2020-06-10T09:58:58Z</time>
      </trkpt>
      <trkpt lat="48.60578" lon="-4.1081">
        <ele>85.4</ele>
        <time>2020-06-10T09:58:59Z</time>
      </trkpt>
      <trkpt lat="48.60578" lon="-4.10802">
        <ele>85.4</ele>
        <time>2020-06-10T09:59:00Z</time>
      </trkpt>
      <trkpt lat="48.60578" lon="-4.10794">
        <ele>85.2</ele>
        <time>2020-06-10T09:59:01Z</time>
      </trkpt>
      <trkpt lat="48.60577" lon="-4.10786">
        <ele>85</ele>
        <time>2020-06-10T09:59:02Z</time>
      </trkpt>
      <trkpt lat="48.60578" lon="-4.10776">
        <ele>84.8</ele>
        <time>2020-06-10T09:59:03Z</time>
      </trkpt>
      <trkpt lat="48.60578" lon="-4.10767">
        <ele>84.7</ele>
        <time>2020-06-10T09:59:04Z</time>
      </trkpt>
      <trkpt lat="48.60577" lon="-4.10757">
        <ele>84.6</ele>
        <time>2020-06-10T09:59:05Z</time>
      </trkpt>
      <trkpt lat="48.60577" lon="-4.10748">
        <ele>84.4</ele>
        <time>2020-06-10T09:59:06Z</time>
      </trkpt>
      <trkpt lat="48.60577" lon="-4.10739">
        <ele>84.3</ele>
        <time>2020-06-10T09:59:07Z</time>
      </trkpt>
      <trkpt lat="48.60577" lon="-4.10731">
        <ele>84.2</ele>
        <time>2020-06-10T09:59:08Z</time>
      </trkpt>
      <trkpt lat="48.60576" lon="-4.10723">
        <ele>84.1</ele>
        <time>2020-06-10T09:59:09Z</time>
      </trkpt>
      <trkpt lat="48.60576" lon="-4.10714">
        <ele>84</ele>
        <time>2020-06-10T09:59:10Z</time>
      </trkpt>
      <trkpt lat="48.60575" lon="-4.10704">
        <ele>83.8</ele>
        <time>2020-06-10T09:59:11Z</time>
      </trkpt>
      <trkpt lat="48.60573" lon="-4.10696">
        <ele>83.7</ele>
        <time>2020-06-10T09:59:12Z</time>
      </trkpt>
      <trkpt lat="48.60572" lon="-4.10687">
        <ele>83.7</ele>
        <time>2020-06-10T09:59:13Z</time>
      </trkpt>
      <trkpt lat="48.60571" lon="-4.10678">
        <ele>83.6</ele>
        <time>2020-06-10T09:59:14Z</time>
      </trkpt>
      <trkpt lat="48.6057" lon="-4.1067">
        <ele>83.6</ele>
        <time>2020-06-10T09:59:15Z</time>
      </trkpt>
      <trkpt lat="48.60569" lon="-4.10662">
        <ele>83.6</ele>
        <time>2020-06-10T09:59:16Z</time>
      </trkpt>
      <trkpt lat="48.60568" lon="-4.10653">
        <ele>83.6</ele>
        <time>2020-06-10T09:59:17Z</time>
      </trkpt>
      <trkpt lat="48.60568" lon="-4.10644">
        <ele>83.6</ele>
        <time>2020-06-10T09:59:18Z</time>
      </trkpt>
      <trkpt lat="48.60569" lon="-4.10634">
        <ele>83.5</ele>
        <time>2020-06-10T09:59:19Z</time>
      </trkpt>
      <trkpt lat="48.6057" lon="-4.10625">
        <ele>83.5</ele>
        <time>2020-06-10T09:59:20Z</time>
      </trkpt>
      <trkpt lat="48.60571" lon="-4.10616">
        <ele>83.5</ele>
        <time>2020-06-10T09:59:21Z</time>
      </trkpt>
      <trkpt lat="48.60572" lon="-4.10607">
        <ele>83.5</ele>
        <time>2020-06-10T09:59:22Z</time>
      </trkpt>
      <trkpt lat="48.60572" lon="-4.10598">
        <ele>83.4</ele>
        <time>2020-06-10T09:59:23Z</time>
      </trkpt>
      <trkpt lat="48.60573" lon="-4.10588">
        <ele>83.4</ele>
        <time>2020-06-10T09:59:24Z</time>
      </trkpt>
      <trkpt lat="48.60572" lon="-4.10579">
        <ele>83.4</ele>
        <time>2020-06-10T09:59:25Z</time>
      </trkpt>
      <trkpt lat="48.60572" lon="-4.1057">
        <ele>83.5</ele>
        <time>2020-06-10T09:59:26Z</time>
      </trkpt>
      <trkpt lat="48.60572" lon="-4.10562">
        <ele>83.5</ele>
        <time>2020-06-10T09:59:27Z</time>
      </trkpt>
      <trkpt lat="48.60571" lon="-4.10551">
        <ele>83.4</ele>
        <time>2020-06-10T09:59:28Z</time>
      </trkpt>
      <trkpt lat="48.60571" lon="-4.10542">
        <ele>83.3</ele>
        <time>2020-06-10T09:59:29Z</time>
      </trkpt>
      <trkpt lat="48.60571" lon="-4.10532">
        <ele>83.3</ele>
        <time>2020-06-10T09:59:30Z</time>
      </trkpt>
      <trkpt lat="48.60571" lon="-4.10521">
        <ele>83.2</ele>
        <time>2020-06-10T09:59:31Z</time>
      </trkpt>
      <trkpt lat="48.60571" lon="-4.10512">
        <ele>83.2</ele>
        <time>2020-06-10T09:59:32Z</time>
      </trkpt>
      <trkpt lat="48.60572" lon="-4.10502">
        <ele>83.2</ele>
        <time>2020-06-10T09:59:33Z</time>
      </trkpt>
      <trkpt lat="48.60572" lon="-4.10493">
        <ele>83.2</ele>
        <time>2020-06-10T09:59:34Z</time>
      </trkpt>
      <trkpt lat="48.60572" lon="-4.10485">
        <ele>83.2</ele>
        <time>2020-06-10T09:59:35Z</time>
      </trkpt>
      <trkpt lat="48.60572" lon="-4.10475">
        <ele>83.2</ele>
        <time>2020-06-10T09:59:36Z</time>
      </trkpt>
      <trkpt lat="48.60572" lon="-4.10465">
        <ele>83.2</ele>
        <time>2020-06-10T09:59:37Z</time>
      </trkpt>
      <trkpt lat="48.60572" lon="-4.10457">
        <ele>83.3</ele>
        <time>2020-06-10T09:59:38Z</time>
      </trkpt>
      <trkpt lat="48.60572" lon="-4.10448">
        <ele>83.3</ele>
        <time>2020-06-10T09:59:39Z</time>
      </trkpt>
      <trkpt lat="48.60573" lon="-4.1044">
        <ele>83.3</ele>
        <time>2020-06-10T09:59:40Z</time>
      </trkpt>
      <trkpt lat="48.60572" lon="-4.10434">
        <ele>83.3</ele>
        <time>2020-06-10T09:59:41Z</time>
      </trkpt>
      <trkpt lat="48.60572" lon="-4.10426">
        <ele>83.4</ele>
        <time>2020-06-10T09:59:42Z</time>
      </trkpt>
      <trkpt lat="48.60573" lon="-4.10418">
        <ele>83.5</ele>
        <time>2020-06-10T09:59:43Z</time>
      </trkpt>
      <trkpt lat="48.60573" lon="-4.10407">
        <ele>83.5</ele>
        <time>2020-06-10T09:59:44Z</time>
      </trkpt>
      <trkpt lat="48.60573" lon="-4.10399">
        <ele>83.6</ele>
        <time>2020-06-10T09:59:45Z</time>
      </trkpt>
      <trkpt lat="48.60574" lon="-4.10392">
        <ele>83.6</ele>
        <time>2020-06-10T09:59:46Z</time>
      </trkpt>
      <trkpt lat="48.60574" lon="-4.10385">
        <ele>83.6</ele>
        <time>2020-06-10T09:59:47Z</time>
      </trkpt>
      <trkpt lat="48.60575" lon="-4.10376">
        <ele>83.6</ele>
        <time>2020-06-10T09:59:48Z</time>
      </trkpt>
      <trkpt lat="48.60576" lon="-4.10368">
        <ele>83.6</ele>
        <time>2020-06-10T09:59:49Z</time>
      </trkpt>
      <trkpt lat="48.60577" lon="-4.1036">
        <ele>83.6</ele>
        <time>2020-06-10T09:59:50Z</time>
      </trkpt>
      <trkpt lat="48.60577" lon="-4.10349">
        <ele>83.6</ele>
        <time>2020-06-10T09:59:51Z</time>
      </trkpt>
      <trkpt lat="48.60577" lon="-4.10341">
        <ele>83.7</ele>
        <time>2020-06-10T09:59:52Z</time>
      </trkpt>
      <trkpt lat="48.60578" lon="-4.10333">
        <ele>83.7</ele>
        <time>2020-06-10T09:59:53Z</time>
      </trkpt>
      <trkpt lat="48.60579" lon="-4.10324">
        <ele>83.8</ele>
        <time>2020-06-10T09:59:54Z</time>
      </trkpt>
      <trkpt lat="48.60579" lon="-4.10316">
        <ele>83.8</ele>
        <time>2020-06-10T09:59:55Z</time>
      </trkpt>
      <trkpt lat="48.6058" lon="-4.10308">
        <ele>83.9</ele>
        <time>2020-06-10T09:59:56Z</time>
      </trkpt>
      <trkpt lat="48.60581" lon="-4.10298">
        <ele>83.9</ele>
        <time>2020-06-10T09:59:57Z</time>
      </trkpt>
      <trkpt lat="48.60581" lon="-4.1029">
        <ele>84</ele>
        <time>2020-06-10T09:59:58Z</time>
      </trkpt>
      <trkpt lat="48.60581" lon="-4.10281">
        <ele>83.9</ele>
        <time>2020-06-10T09:59:59Z</time>
      </trkpt>
      <trkpt lat="48.60582" lon="-4.10273">
        <ele>83.9</ele>
        <time>2020-06-10T10:00:00Z</time>
      </trkpt>
      <trkpt lat="48.60582" lon="-4.10265">
        <ele>83.9</ele>
        <time>2020-06-10T10:00:01Z</time>
      </trkpt>
      <trkpt lat="48.60582" lon="-4.10257">
        <ele>83.9</ele>
        <time>2020-06-10T10:00:02Z</time>
      </trkpt>
      <trkpt lat="48.60582" lon="-4.10249">
        <ele>83.9</ele>
        <time>2020-06-10T10:00:03Z</time>
      </trkpt>
      <trkpt lat="48.60583" lon="-4.10241">
        <ele>83.9</ele>
        <time>2020-06-10T10:00:04Z</time>
      </trkpt>
      <trkpt lat="48.60583" lon="-4.10233">
        <ele>84</ele>
        <time>2020-06-10T10:00:05Z</time>
      </trkpt>
      <trkpt lat="48.60584" lon="-4.10225">
        <ele>84</ele>
        <time>2020-06-10T10:00:06Z</time>
      </trkpt>
      <trkpt lat="48.60584" lon="-4.10217">
        <ele>84.1</ele>
        <time>2020-06-10T10:00:07Z</time>
      </trkpt>
      <trkpt lat="48.60585" lon="-4.10208">
        <ele>84.2</ele>
        <time>2020-06-10T10:00:08Z</time>
      </trkpt>
      <trkpt lat="48.60586" lon="-4.102">
        <ele>84.2</ele>
        <time>2020-06-10T10:00:09Z</time>
      </trkpt>
      <trkpt lat="48.60586" lon="-4.10191">
        <ele>84.3</ele>
        <time>2020-06-10T10:00:10Z</time>
      </trkpt>
      <trkpt lat="48.60586" lon="-4.10182">
        <ele>84.3</ele>
        <time>2020-06-10T10:00:11Z</time>
      </trkpt>
      <trkpt lat="48.60587" lon="-4.10174">
        <ele>84.4</ele>
        <time>2020-06-10T10:00:12Z</time>
      </trkpt>
      <trkpt lat="48.60588" lon="-4.10166">
        <ele>84.5</ele>
        <time>2020-06-10T10:00:13Z</time>
      </trkpt>
      <trkpt lat="48.60588" lon="-4.10155">
        <ele>84.6</ele>
        <time>2020-06-10T10:00:14Z</time>
      </trkpt>
      <trkpt lat="48.60588" lon="-4.10147">
        <ele>84.7</ele>
        <time>2020-06-10T10:00:15Z</time>
      </trkpt>
      <trkpt lat="48.60589" lon="-4.10137">
        <ele>84.8</ele>
        <time>2020-06-10T10:00:16Z</time>
      </trkpt>
      <trkpt lat="48.6059" lon="-4.1013">
        <ele>84.8</ele>
        <time>2020-06-10T10:00:17Z</time>
      </trkpt>
      <trkpt lat="48.60591" lon="-4.10126">
        <ele>84.9</ele>
        <time>2020-06-10T10:00:18Z</time>
      </trkpt>
      <trkpt lat="48.60592" lon="-4.10117">
        <ele>85</ele>
        <time>2020-06-10T10:00:19Z</time>
      </trkpt>
      <trkpt lat="48.60592" lon="-4.1011">
        <ele>85.1</ele>
        <time>2020-06-10T10:00:20Z</time>
      </trkpt>
      <trkpt lat="48.60593" lon="-4.10102">
        <ele>85.2</ele>
        <time>2020-06-10T10:00:21Z</time>
      </trkpt>
      <trkpt lat="48.60594" lon="-4.10093">
        <ele>85.2</ele>
        <time>2020-06-10T10:00:22Z</time>
      </trkpt>
      <trkpt lat="48.60595" lon="-4.10084">
        <ele>85.2</ele>
        <time>2020-06-10T10:00:23Z</time>
      </trkpt>
      <trkpt lat="48.60595" lon="-4.10076">
        <ele>85.3</ele>
        <time>2020-06-10T10:00:24Z</time>
      </trkpt>
      <trkpt lat="48.60596" lon="-4.10068">
        <ele>85.3</ele>
        <time>2020-06-10T10:00:25Z</time>
      </trkpt>
      <trkpt lat="48.60597" lon="-4.10061">
        <ele>85.4</ele>
        <time>2020-06-10T10:00:26Z</time>
      </trkpt>
      <trkpt lat="48.60598" lon="-4.10052">
        <ele>85.4</ele>
        <time>2020-06-10T10:00:27Z</time>
      </trkpt>
      <trkpt lat="48.60598" lon="-4.10044">
        <ele>85.5</ele>
        <time>2020-06-10T10:00:28Z</time>
      </trkpt>
      <trkpt lat="48.60599" lon="-4.10035">
        <ele>85.5</ele>
        <time>2020-06-10T10:00:29Z</time>
      </trkpt>
      <trkpt lat="48.606" lon="-4.10028">
        <ele>85.6</ele>
        <time>2020-06-10T10:00:30Z</time>
      </trkpt>
      <trkpt lat="48.60601" lon="-4.10019">
        <ele>85.7</ele>
        <time>2020-06-10T10:00:31Z</time>
      </trkpt>
      <trkpt lat="48.60601" lon="-4.1001">
        <ele>85.7</ele>
        <time>2020-06-10T10:00:32Z</time>
      </trkpt>
      <trkpt lat="48.60602" lon="-4.10002">
        <ele>85.8</ele>
        <time>2020-06-10T10:00:33Z</time>
      </trkpt>
      <trkpt lat="48.60603" lon="-4.09994">
        <ele>86</ele>
        <time>2020-06-10T10:00:34Z</time>
      </trkpt>
      <trkpt lat="48.60603" lon="-4.09986">
        <ele>86.1</ele>
        <time>2020-06-10T10:00:35Z</time>
      </trkpt>
      <trkpt lat="48.60604" lon="-4.09978">
        <ele>86.2</ele>
        <time>2020-06-10T10:00:36Z</time>
      </trkpt>
      <trkpt lat="48.60605" lon="-4.0997">
        <ele>86.4</ele>
        <time>2020-06-10T10:00:37Z</time>
      </trkpt>
      <trkpt lat="48.60606" lon="-4.09963">
        <ele>86.5</ele>
        <time>2020-06-10T10:00:38Z</time>
      </trkpt>
      <trkpt lat="48.60606" lon="-4.09956">
        <ele>86.6</ele>
        <time>2020-06-10T10:00:39Z</time>
      </trkpt>
      <trkpt lat="48.60607" lon="-4.09948">
        <ele>86.7</ele>
        <time>2020-06-10T10:00:40Z</time>
      </trkpt>
      <trkpt lat="48.60608" lon="-4.0994">
        <ele>86.9</ele>
        <time>2020-06-10T10:00:41Z</time>
      </trkpt>
      <trkpt lat="48.60609" lon="-4.09932">
        <ele>87</ele>
        <time>2020-06-10T10:00:42Z</time>
      </trkpt>
      <trkpt lat="48.6061" lon="-4.09924">
        <ele>87.1</ele>
        <time>2020-06-10T10:00:43Z</time>
      </trkpt>
      <trkpt lat="48.6061" lon="-4.09916">
        <ele>87.2</ele>
        <time>2020-06-10T10:00:44Z</time>
      </trkpt>
      <trkpt lat="48.60611" lon="-4.09908">
        <ele>87.3</ele>
        <time>2020-06-10T10:00:45Z</time>
      </trkpt>
      <trkpt lat="48.60612" lon="-4.099">
        <ele>87.4</ele>
        <time>2020-06-10T10:00:46Z</time>
      </trkpt>
      <trkpt lat="48.60613" lon="-4.09892">
        <ele>87.6</ele>
        <time>2020-06-10T10:00:47Z</time>
      </trkpt>
      <trkpt lat="48.60614" lon="-4.09886">
        <ele>87.7</ele>
        <time>2020-06-10T10:00:48Z</time>
      </trkpt>
      <trkpt lat="48.60615" lon="-4.09879">
        <ele>87.9</ele>
        <time>2020-06-10T10:00:49Z</time>
      </trkpt>
      <trkpt lat="48.60617" lon="-4.09871">
        <ele>88.1</ele>
        <time>2020-06-10T10:00:50Z</time>
      </trkpt>
      <trkpt lat="48.60618" lon="-4.09865">
        <ele>88.2</ele>
        <time>2020-06-10T10:00:51Z</time>
      </trkpt>
      <trkpt lat="48.6062" lon="-4.0986">
        <ele>88.3</ele>
        <time>2020-06-10T10:00:52Z</time>
      </trkpt>
      <trkpt lat="48.60621" lon="-4.09854">
        <ele>88.4</ele>
        <time>2020-06-10T10:00:53Z</time>
      </trkpt>
      <trkpt lat="48.60623" lon="-4.09846">
        <ele>88.6</ele>
        <time>2020-06-10T10:00:54Z</time>
      </trkpt>
      <trkpt lat="48.60624" lon="-4.0984">
        <ele>88.6</ele>
        <time>2020-06-10T10:00:55Z</time>
      </trkpt>
      <trkpt lat="48.60625" lon="-4.09829">
        <ele>88.7</ele>
        <time>2020-06-10T10:00:56Z</time>
      </trkpt>
      <trkpt lat="48.60624" lon="-4.09824">
        <ele>88.8</ele>
        <time>2020-06-10T10:00:57Z</time>
      </trkpt>
      <trkpt lat="48.60623" lon="-4.09819">
        <ele>88.7</ele>
        <time>2020-06-10T10:00:58Z</time>
      </trkpt>
      <trkpt lat="48.60619" lon="-4.09813">
        <ele>88.7</ele>
        <time>2020-06-10T10:00:59Z</time>
      </trkpt>
      <trkpt lat="48.60614" lon="-4.09807">
        <ele>88.6</ele>
        <time>2020-06-10T10:01:00Z</time>
      </trkpt>
      <trkpt lat="48.6061" lon="-4.09804">
        <ele>88.5</ele>
        <time>2020-06-10T10:01:01Z</time>
      </trkpt>
      <trkpt lat="48.60605" lon="-4.09801">
        <ele>88.5</ele>
        <time>2020-06-10T10:01:02Z</time>
      </trkpt>
      <trkpt lat="48.606" lon="-4.09799">
        <ele>88.4</ele>
        <time>2020-06-10T10:01:03Z</time>
      </trkpt>
      <trkpt lat="48.60596" lon="-4.09798">
        <ele>88.3</ele>
        <time>2020-06-10T10:01:04Z</time>
      </trkpt>
      <trkpt lat="48.60592" lon="-4.09794">
        <ele>88.2</ele>
        <time>2020-06-10T10:01:05Z</time>
      </trkpt>
      <trkpt lat="48.60588" lon="-4.09792">
        <ele>88.2</ele>
        <time>2020-06-10T10:01:06Z</time>
      </trkpt>
      <trkpt lat="48.60584" lon="-4.09789">
        <ele>88.1</ele>
        <time>2020-06-10T10:01:07Z</time>
      </trkpt>
      <trkpt lat="48.6058" lon="-4.09787">
        <ele>88</ele>
        <time>2020-06-10T10:01:08Z</time>
      </trkpt>
      <trkpt lat="48.60576" lon="-4.09784">
        <ele>87.9</ele>
        <time>2020-06-10T10:01:09Z</time>
      </trkpt>
      <trkpt lat="48.60571" lon="-4.0978">
        <ele>87.9</ele>
        <time>2020-06-10T10:01:10Z</time>
      </trkpt>
      <trkpt lat="48.60568" lon="-4.09778">
        <ele>87.8</ele>
        <time>2020-06-10T10:01:11Z</time>
      </trkpt>
      <trkpt lat="48.60565" lon="-4.09776">
        <ele>87.8</ele>
        <time>2020-06-10T10:01:12Z</time>
      </trkpt>
      <trkpt lat="48.60561" lon="-4.09774">
        <ele>87.7</ele>
        <time>2020-06-10T10:01:13Z</time>
      </trkpt>
      <trkpt lat="48.6056" lon="-4.09774">
        <ele>87.7</ele>
        <time>2020-06-10T10:01:14Z</time>
      </trkpt>
      <trkpt lat="48.6056" lon="-4.09774">
        <ele>87.7</ele>
        <time>2020-06-10T10:01:15Z</time>
      </trkpt>
      <trkpt lat="48.6056" lon="-4.09775">
        <ele>87.7</ele>
        <time>2020-06-10T10:01:16Z</time>
      </trkpt>
      <trkpt lat="48.60561" lon="-4.09776">
        <ele>87.7</ele>
        <time>2020-06-10T10:01:17Z</time>
      </trkpt>
      <trkpt lat="48.6056" lon="-4.09776">
        <ele>87.7</ele>
        <time>2020-06-10T10:01:18Z</time>
      </trkpt>
      <trkpt lat="48.6056" lon="-4.09776">
        <ele>87.7</ele>
        <time>2020-06-10T10:01:19Z</time>
      </trkpt>
      <trkpt lat="48.6056" lon="-4.09776">
        <ele>87.7</ele>
        <time>2020-06-10T10:01:20Z</time>
      </trkpt>
      <trkpt lat="48.60561" lon="-4.09776">
        <ele>87.7</ele>
        <time>2020-06-10T10:01:21Z</time>
      </trkpt>
      <trkpt lat="48.60561" lon="-4.09777">
        <ele>87.7</ele>
        <time>2020-06-10T10:01:22Z</time>
      </trkpt>
      <trkpt lat="48.60562" lon="-4.09778">
        <ele>87.7</ele>
        <time>2020-06-10T10:01:23Z</time>
      </trkpt>
      <trkpt lat="48.60561" lon="-4.09777">
        <ele>87.7</ele>
        <time>2020-06-10T10:01:24Z</time>
      </trkpt>
      <trkpt lat="48.60559" lon="-4.09775">
        <ele>87.7</ele>
        <time>2020-06-10T10:01:25Z</time>
      </trkpt>
      <trkpt lat="48.60558" lon="-4.09774">
        <ele>87.7</ele>
        <time>2020-06-10T10:01:26Z</time>
      </trkpt>
      <trkpt lat="48.60557" lon="-4.09773">
        <ele>87.7</ele>
        <time>2020-06-10T10:02:18Z</time>
      </trkpt>
      <trkpt lat="48.60556" lon="-4.09771">
        <ele>87.7</ele>
        <time>2020-06-10T10:02:19Z</time>
      </trkpt>
      <trkpt lat="48.60554" lon="-4.09768">
        <ele>87.7</ele>
        <time>2020-06-10T10:02:20Z</time>
      </trkpt>
      <trkpt lat="48.60552" lon="-4.09765">
        <ele>87.7</ele>
        <time>2020-06-10T10:02:21Z</time>
      </trkpt>
      <trkpt lat="48.60552" lon="-4.09764">
        <ele>87.7</ele>
        <time>2020-06-10T10:02:22Z</time>
      </trkpt>
      <trkpt lat="48.60549" lon="-4.0976">
        <ele>87.7</ele>
        <time>2020-06-10T10:02:23Z</time>
      </trkpt>
      <trkpt lat="48.60548" lon="-4.09759">
        <ele>87.7</ele>
        <time>2020-06-10T10:02:24Z</time>
      </trkpt>
      <trkpt lat="48.60545" lon="-4.09755">
        <ele>87.7</ele>
        <time>2020-06-10T10:02:25Z</time>
      </trkpt>
      <trkpt lat="48.60544" lon="-4.09754">
        <ele>87.7</ele>
        <time>2020-06-10T10:02:26Z</time>
      </trkpt>
      <trkpt lat="48.60542" lon="-4.09751">
        <ele>87.7</ele>
        <time>2020-06-10T10:02:27Z</time>
      </trkpt>
      <trkpt lat="48.60541" lon="-4.09749">
        <ele>87.7</ele>
        <time>2020-06-10T10:02:28Z</time>
      </trkpt>
      <trkpt lat="48.60539" lon="-4.09746">
        <ele>87.7</ele>
        <time>2020-06-10T10:02:29Z</time>
      </trkpt>
      <trkpt lat="48.60538" lon="-4.09745">
        <ele>87.7</ele>
        <time>2020-06-10T10:02:30Z</time>
      </trkpt>
      <trkpt lat="48.60535" lon="-4.09743">
        <ele>87.7</ele>
        <time>2020-06-10T10:02:31Z</time>
      </trkpt>
      <trkpt lat="48.60534" lon="-4.09742">
        <ele>87.7</ele>
        <time>2020-06-10T10:02:32Z</time>
      </trkpt>
      <trkpt lat="48.60533" lon="-4.0974">
        <ele>87.7</ele>
        <time>2020-06-10T10:02:33Z</time>
      </trkpt>
      <trkpt lat="48.60532" lon="-4.09737">
        <ele>87.7</ele>
        <time>2020-06-10T10:02:34Z</time>
      </trkpt>
      <trkpt lat="48.60531" lon="-4.09734">
        <ele>87.7</ele>
        <time>2020-06-10T10:02:35Z</time>
      </trkpt>
      <trkpt lat="48.6053" lon="-4.09732">
        <ele>87.7</ele>
        <time>2020-06-10T10:02:36Z</time>
      </trkpt>
      <trkpt lat="48.60528" lon="-4.09727">
        <ele>87.7</ele>
        <time>2020-06-10T10:02:37Z</time>
      </trkpt>
      <trkpt lat="48.60527" lon="-4.09725">
        <ele>87.6</ele>
        <time>2020-06-10T10:02:38Z</time>
      </trkpt>
      <trkpt lat="48.60526" lon="-4.09719">
        <ele>87.6</ele>
        <time>2020-06-10T10:02:39Z</time>
      </trkpt>
      <trkpt lat="48.60524" lon="-4.09712">
        <ele>87.6</ele>
        <time>2020-06-10T10:02:40Z</time>
      </trkpt>
      <trkpt lat="48.60523" lon="-4.09707">
        <ele>87.5</ele>
        <time>2020-06-10T10:02:41Z</time>
      </trkpt>
      <trkpt lat="48.60521" lon="-4.097">
        <ele>87.4</ele>
        <time>2020-06-10T10:02:42Z</time>
      </trkpt>
      <trkpt lat="48.60518" lon="-4.09693">
        <ele>87.4</ele>
        <time>2020-06-10T10:02:43Z</time>
      </trkpt>
      <trkpt lat="48.60516" lon="-4.09687">
        <ele>87.3</ele>
        <time>2020-06-10T10:02:44Z</time>
      </trkpt>
      <trkpt lat="48.60514" lon="-4.09679">
        <ele>87.2</ele>
        <time>2020-06-10T10:02:45Z</time>
      </trkpt>
      <trkpt lat="48.60512" lon="-4.09669">
        <ele>87</ele>
        <time>2020-06-10T10:02:46Z</time>
      </trkpt>
      <trkpt lat="48.6051" lon="-4.09662">
        <ele>86.9</ele>
        <time>2020-06-10T10:02:47Z</time>
      </trkpt>
      <trkpt lat="48.60508" lon="-4.09655">
        <ele>86.7</ele>
        <time>2020-06-10T10:02:48Z</time>
      </trkpt>
      <trkpt lat="48.60505" lon="-4.09646">
        <ele>86.5</ele>
        <time>2020-06-10T10:02:49Z</time>
      </trkpt>
      <trkpt lat="48.60503" lon="-4.09636">
        <ele>86.2</ele>
        <time>2020-06-10T10:02:50Z</time>
      </trkpt>
      <trkpt lat="48.60501" lon="-4.09628">
        <ele>86</ele>
        <time>2020-06-10T10:02:51Z</time>
      </trkpt>
      <trkpt lat="48.60501" lon="-4.09618">
        <ele>85.7</ele>
        <time>2020-06-10T10:02:52Z</time>
      </trkpt>
      <trkpt lat="48.605" lon="-4.09609">
        <ele>85.5</ele>
        <time>2020-06-10T10:02:53Z</time>
      </trkpt>
      <trkpt lat="48.60499" lon="-4.09599">
        <ele>85.2</ele>
        <time>2020-06-10T10:02:54Z</time>
      </trkpt>
      <trkpt lat="48.60497" lon="-4.09588">
        <ele>84.9</ele>
        <time>2020-06-10T10:02:55Z</time>
      </trkpt>
      <trkpt lat="48.60495" lon="-4.09576">
        <ele>84.5</ele>
        <time>2020-06-10T10:02:56Z</time>
      </trkpt>
      <trkpt lat="48.60494" lon="-4.09565">
        <ele>84.2</ele>
        <time>2020-06-10T10:02:57Z</time>
      </trkpt>
      <trkpt lat="48.60492" lon="-4.09554">
        <ele>83.9</ele>
        <time>2020-06-10T10:02:58Z</time>
      </trkpt>
      <trkpt lat="48.6049" lon="-4.09542">
        <ele>83.6</ele>
        <time>2020-06-10T10:02:59Z</time>
      </trkpt>
      <trkpt lat="48.60487" lon="-4.09531">
        <ele>83.3</ele>
        <time>2020-06-10T10:03:00Z</time>
      </trkpt>
      <trkpt lat="48.60484" lon="-4.0952">
        <ele>83</ele>
        <time>2020-06-10T10:03:01Z</time>
      </trkpt>
      <trkpt lat="48.6048" lon="-4.09509">
        <ele>82.3</ele>
        <time>2020-06-10T10:03:02Z</time>
      </trkpt>
      <trkpt lat="48.60477" lon="-4.09498">
        <ele>81.9</ele>
        <time>2020-06-10T10:03:03Z</time>
      </trkpt>
      <trkpt lat="48.60473" lon="-4.09488">
        <ele>81.7</ele>
        <time>2020-06-10T10:03:04Z</time>
      </trkpt>
      <trkpt lat="48.6047" lon="-4.09476">
        <ele>81.5</ele>
        <time>2020-06-10T10:03:05Z</time>
      </trkpt>
      <trkpt lat="48.60466" lon="-4.09465">
        <ele>81.3</ele>
        <time>2020-06-10T10:03:06Z</time>
      </trkpt>
      <trkpt lat="48.60463" lon="-4.09454">
        <ele>81.2</ele>
        <time>2020-06-10T10:03:07Z</time>
      </trkpt>
      <trkpt lat="48.60459" lon="-4.09443">
        <ele>81.1</ele>
        <time>2020-06-10T10:03:08Z</time>
      </trkpt>
      <trkpt lat="48.60456" lon="-4.09432">
        <ele>81</ele>
        <time>2020-06-10T10:03:09Z</time>
      </trkpt>
      <trkpt lat="48.60453" lon="-4.09421">
        <ele>81</ele>
        <time>2020-06-10T10:03:10Z</time>
      </trkpt>
      <trkpt lat="48.6045" lon="-4.0941">
        <ele>81</ele>
        <time>2020-06-10T10:03:11Z</time>
      </trkpt>
      <trkpt lat="48.60447" lon="-4.094">
        <ele>80.9</ele>
        <time>2020-06-10T10:03:12Z</time>
      </trkpt>
      <trkpt lat="48.60444" lon="-4.09389">
        <ele>80.9</ele>
        <time>2020-06-10T10:03:13Z</time>
      </trkpt>
      <trkpt lat="48.60442" lon="-4.09379">
        <ele>80.8</ele>
        <time>2020-06-10T10:03:14Z</time>
      </trkpt>
      <trkpt lat="48.60439" lon="-4.09369">
        <ele>80.7</ele>
        <time>2020-06-10T10:03:15Z</time>
      </trkpt>
      <trkpt lat="48.60436" lon="-4.09358">
        <ele>80.6</ele>
        <time>2020-06-10T10:03:16Z</time>
      </trkpt>
      <trkpt lat="48.60433" lon="-4.09348">
        <ele>80.5</ele>
        <time>2020-06-10T10:03:17Z</time>
      </trkpt>
      <trkpt lat="48.6043" lon="-4.09338">
        <ele>80.4</ele>
        <time>2020-06-10T10:03:18Z</time>
      </trkpt>
      <trkpt lat="48.60427" lon="-4.09327">
        <ele>80.3</ele>
        <time>2020-06-10T10:03:19Z</time>
      </trkpt>
      <trkpt lat="48.60424" lon="-4.09317">
        <ele>80.2</ele>
        <time>2020-06-10T10:03:20Z</time>
      </trkpt>
      <trkpt lat="48.60422" lon="-4.09307">
        <ele>80.1</ele>
        <time>2020-06-10T10:03:21Z</time>
      </trkpt>
      <trkpt lat="48.60419" lon="-4.09297">
        <ele>80</ele>
        <time>2020-06-10T10:03:22Z</time>
      </trkpt>
      <trkpt lat="48.60416" lon="-4.09288">
        <ele>80</ele>
        <time>2020-06-10T10:03:23Z</time>
      </trkpt>
      <trkpt lat="48.60414" lon="-4.09278">
        <ele>79.9</ele>
        <time>2020-06-10T10:03:24Z</time>
      </trkpt>
      <trkpt lat="48.60411" lon="-4.09268">
        <ele>79.7</ele>
        <time>2020-06-10T10:03:25Z</time>
      </trkpt>
      <trkpt lat="48.60408" lon="-4.09259">
        <ele>79.5</ele>
        <time>2020-06-10T10:03:26Z</time>
      </trkpt>
      <trkpt lat="48.60406" lon="-4.09249">
        <ele>79.3</ele>
        <time>2020-06-10T10:03:27Z</time>
      </trkpt>
      <trkpt lat="48.60403" lon="-4.09239">
        <ele>79.1</ele>
        <time>2020-06-10T10:03:28Z</time>
      </trkpt>
      <trkpt lat="48.604" lon="-4.09229">
        <ele>78.9</ele>
        <time>2020-06-10T10:03:29Z</time>
      </trkpt>
      <trkpt lat="48.60398" lon="-4.09219">
        <ele>78.7</ele>
        <time>2020-06-10T10:03:30Z</time>
      </trkpt>
      <trkpt lat="48.60395" lon="-4.0921">
        <ele>78.5</ele>
        <time>2020-06-10T10:03:31Z</time>
      </trkpt>
      <trkpt lat="48.60392" lon="-4.092">
        <ele>78.3</ele>
        <time>2020-06-10T10:03:32Z</time>
      </trkpt>
      <trkpt lat="48.60389" lon="-4.09191">
        <ele>78</ele>
        <time>2020-06-10T10:03:33Z</time>
      </trkpt>
      <trkpt lat="48.60386" lon="-4.09182">
        <ele>77.7</ele>
        <time>2020-06-10T10:03:34Z</time>
      </trkpt>
      <trkpt lat="48.60383" lon="-4.09173">
        <ele>77.4</ele>
        <time>2020-06-10T10:03:35Z</time>
      </trkpt>
      <trkpt lat="48.6038" lon="-4.09163">
        <ele>77</ele>
        <time>2020-06-10T10:03:36Z</time>
      </trkpt>
      <trkpt lat="48.60376" lon="-4.09153">
        <ele>76.5</ele>
        <time>2020-06-10T10:03:37Z</time>
      </trkpt>
      <trkpt lat="48.60373" lon="-4.09143">
        <ele>76</ele>
        <time>2020-06-10T10:03:38Z</time>
      </trkpt>
      <trkpt lat="48.6037" lon="-4.09132">
        <ele>75.5</ele>
        <time>2020-06-10T10:03:39Z</time>
      </trkpt>
      <trkpt lat="48.60367" lon="-4.09121">
        <ele>74.9</ele>
        <time>2020-06-10T10:03:40Z</time>
      </trkpt>
      <trkpt lat="48.60363" lon="-4.0911">
        <ele>74.3</ele>
        <time>2020-06-10T10:03:41Z</time>
      </trkpt>
      <trkpt lat="48.6036" lon="-4.09098">
        <ele>73.7</ele>
        <time>2020-06-10T10:03:42Z</time>
      </trkpt>
      <trkpt lat="48.60356" lon="-4.09085">
        <ele>73.1</ele>
        <time>2020-06-10T10:03:43Z</time>
      </trkpt>
      <trkpt lat="48.60353" lon="-4.09072">
        <ele>72.4</ele>
        <time>2020-06-10T10:03:44Z</time>
      </trkpt>
      <trkpt lat="48.60351" lon="-4.09059">
        <ele>71.6</ele>
        <time>2020-06-10T10:03:45Z</time>
      </trkpt>
      <trkpt lat="48.60347" lon="-4.09045">
        <ele>70.8</ele>
        <time>2020-06-10T10:03:46Z</time>
      </trkpt>
      <trkpt lat="48.60344" lon="-4.09031">
        <ele>70.1</ele>
        <time>2020-06-10T10:03:47Z</time>
      </trkpt>
      <trkpt lat="48.60341" lon="-4.09017">
        <ele>69.3</ele>
        <time>2020-06-10T10:03:48Z</time>
      </trkpt>
      <trkpt lat="48.60338" lon="-4.09002">
        <ele>68.5</ele>
        <time>2020-06-10T10:03:49Z</time>
      </trkpt>
      <trkpt lat="48.60335" lon="-4.08987">
        <ele>67.7</ele>
        <time>2020-06-10T10:03:50Z</time>
      </trkpt>
      <trkpt lat="48.60332" lon="-4.08972">
        <ele>66.9</ele>
        <time>2020-06-10T10:03:51Z</time>
      </trkpt>
      <trkpt lat="48.60328" lon="-4.08957">
        <ele>66.2</ele>
        <time>2020-06-10T10:03:52Z</time>
      </trkpt>
      <trkpt lat="48.60325" lon="-4.08941">
        <ele>65.5</ele>
        <time>2020-06-10T10:03:53Z</time>
      </trkpt>
      <trkpt lat="48.60321" lon="-4.08925">
        <ele>65</ele>
        <time>2020-06-10T10:03:54Z</time>
      </trkpt>
      <trkpt lat="48.60317" lon="-4.08909">
        <ele>64.7</ele>
        <time>2020-06-10T10:03:55Z</time>
      </trkpt>
      <trkpt lat="48.60314" lon="-4.08892">
        <ele>64.6</ele>
        <time>2020-06-10T10:03:56Z</time>
      </trkpt>
      <trkpt lat="48.60311" lon="-4.08875">
        <ele>64.4</ele>
        <time>2020-06-10T10:03:57Z</time>
      </trkpt>
      <trkpt lat="48.60308" lon="-4.08859">
        <ele>63.8</ele>
        <time>2020-06-10T10:03:58Z</time>
      </trkpt>
      <trkpt lat="48.60305" lon="-4.08844">
        <ele>63.3</ele>
        <time>2020-06-10T10:03:59Z</time>
      </trkpt>
      <trkpt lat="48.60302" lon="-4.08828">
        <ele>63</ele>
        <time>2020-06-10T10:04:00Z</time>
      </trkpt>
      <trkpt lat="48.60299" lon="-4.08813">
        <ele>62.8</ele>
        <time>2020-06-10T10:04:01Z</time>
      </trkpt>
      <trkpt lat="48.60296" lon="-4.08799">
        <ele>62.7</ele>
        <time>2020-06-10T10:04:02Z</time>
      </trkpt>
      <trkpt lat="48.60293" lon="-4.08785">
        <ele>62.7</ele>
        <time>2020-06-10T10:04:03Z</time>
      </trkpt>
      <trkpt lat="48.6029" lon="-4.08771">
        <ele>62.8</ele>
        <time>2020-06-10T10:04:04Z</time>
      </trkpt>
      <trkpt lat="48.60287" lon="-4.08758">
        <ele>62.9</ele>
        <time>2020-06-10T10:04:05Z</time>
      </trkpt>
      <trkpt lat="48.60284" lon="-4.08745">
        <ele>63.1</ele>
        <time>2020-06-10T10:04:06Z</time>
      </trkpt>
      <trkpt lat="48.60281" lon="-4.08733">
        <ele>63.3</ele>
        <time>2020-06-10T10:04:07Z</time>
      </trkpt>
      <trkpt lat="48.60278" lon="-4.08721">
        <ele>63.6</ele>
        <time>2020-06-10T10:04:08Z</time>
      </trkpt>
      <trkpt lat="48.60275" lon="-4.0871">
        <ele>63.8</ele>
        <time>2020-06-10T10:04:09Z</time>
      </trkpt>
      <trkpt lat="48.60273" lon="-4.08699">
        <ele>64.1</ele>
        <time>2020-06-10T10:04:10Z</time>
      </trkpt>
      <trkpt lat="48.60271" lon="-4.08688">
        <ele>64.4</ele>
        <time>2020-06-10T10:04:11Z</time>
      </trkpt>
      <trkpt lat="48.60268" lon="-4.08678">
        <ele>64.6</ele>
        <time>2020-06-10T10:04:12Z</time>
      </trkpt>
      <trkpt lat="48.60266" lon="-4.08668">
        <ele>64.9</ele>
        <time>2020-06-10T10:04:13Z</time>
      </trkpt>
      <trkpt lat="48.60265" lon="-4.08658">
        <ele>65.2</ele>
        <time>2020-06-10T10:04:14Z</time>
      </trkpt>
      <trkpt lat="48.60263" lon="-4.08649">
        <ele>65.4</ele>
        <time>2020-06-10T10:04:15Z</time>
      </trkpt>
      <trkpt lat="48.60261" lon="-4.08639">
        <ele>65.6</ele>
        <time>2020-06-10T10:04:16Z</time>
      </trkpt>
      <trkpt lat="48.60259" lon="-4.0863">
        <ele>65.8</ele>
        <time>2020-06-10T10:04:17Z</time>
      </trkpt>
      <trkpt lat="48.60257" lon="-4.08621">
        <ele>66</ele>
        <time>2020-06-10T10:04:18Z</time>
      </trkpt>
      <trkpt lat="48.60255" lon="-4.08612">
        <ele>66.2</ele>
        <time>2020-06-10T10:04:19Z</time>
      </trkpt>
      <trkpt lat="48.60253" lon="-4.08603">
        <ele>66.4</ele>
        <time>2020-06-10T10:04:20Z</time>
      </trkpt>
      <trkpt lat="48.60252" lon="-4.08594">
        <ele>66.6</ele>
        <time>2020-06-10T10:04:21Z</time>
      </trkpt>
      <trkpt lat="48.60249" lon="-4.08585">
        <ele>66.7</ele>
        <time>2020-06-10T10:04:22Z</time>
      </trkpt>
      <trkpt lat="48.60247" lon="-4.08577">
        <ele>66.9</ele>
        <time>2020-06-10T10:04:23Z</time>
      </trkpt>
      <trkpt lat="48.60244" lon="-4.08569">
        <ele>67</ele>
        <time>2020-06-10T10:04:24Z</time>
      </trkpt>
      <trkpt lat="48.60242" lon="-4.0856">
        <ele>67.2</ele>
        <time>2020-06-10T10:04:25Z</time>
      </trkpt>
      <trkpt lat="48.60238" lon="-4.08552">
        <ele>67.4</ele>
        <time>2020-06-10T10:04:26Z</time>
      </trkpt>
      <trkpt lat="48.60235" lon="-4.08544">
        <ele>67.6</ele>
        <time>2020-06-10T10:04:27Z</time>
      </trkpt>
      <trkpt lat="48.60232" lon="-4.08537">
        <ele>67.8</ele>
        <time>2020-06-10T10:04:28Z</time>
      </trkpt>
      <trkpt lat="48.60228" lon="-4.0853">
        <ele>68</ele>
        <time>2020-06-10T10:04:29Z</time>
      </trkpt>
      <trkpt lat="48.60224" lon="-4.08524">
        <ele>68.2</ele>
        <time>2020-06-10T10:04:30Z</time>
      </trkpt>
      <trkpt lat="48.6022" lon="-4.08518">
        <ele>68.4</ele>
        <time>2020-06-10T10:04:31Z</time>
      </trkpt>
      <trkpt lat="48.60216" lon="-4.08512">
        <ele>68.7</ele>
        <time>2020-06-10T10:04:32Z</time>
      </trkpt>
      <trkpt lat="48.60213" lon="-4.08507">
        <ele>68.9</ele>
        <time>2020-06-10T10:04:33Z</time>
      </trkpt>
      <trkpt lat="48.60209" lon="-4.08502">
        <ele>69.1</ele>
        <time>2020-06-10T10:04:34Z</time>
      </trkpt>
      <trkpt lat="48.60205" lon="-4.08497">
        <ele>69.4</ele>
        <time>2020-06-10T10:04:35Z</time>
      </trkpt>
      <trkpt lat="48.60201" lon="-4.08494">
        <ele>69.6</ele>
        <time>2020-06-10T10:04:36Z</time>
      </trkpt>
      <trkpt lat="48.60197" lon="-4.0849">
        <ele>69.7</ele>
        <time>2020-06-10T10:04:37Z</time>
      </trkpt>
      <trkpt lat="48.60194" lon="-4.08487">
        <ele>69.8</ele>
        <time>2020-06-10T10:04:38Z</time>
      </trkpt>
      <trkpt lat="48.60191" lon="-4.08484">
        <ele>69.8</ele>
        <time>2020-06-10T10:04:39Z</time>
      </trkpt>
      <trkpt lat="48.60188" lon="-4.08481">
        <ele>69.9</ele>
        <time>2020-06-10T10:04:40Z</time>
      </trkpt>
      <trkpt lat="48.60184" lon="-4.08478">
        <ele>70</ele>
        <time>2020-06-10T10:04:41Z</time>
      </trkpt>
      <trkpt lat="48.6018" lon="-4.08475">
        <ele>70</ele>
        <time>2020-06-10T10:04:42Z</time>
      </trkpt>
      <trkpt lat="48.60176" lon="-4.08474">
        <ele>70</ele>
        <time>2020-06-10T10:04:43Z</time>
      </trkpt>
      <trkpt lat="48.60171" lon="-4.08471">
        <ele>70.1</ele>
        <time>2020-06-10T10:04:44Z</time>
      </trkpt>
      <trkpt lat="48.60167" lon="-4.08468">
        <ele>70.1</ele>
        <time>2020-06-10T10:04:45Z</time>
      </trkpt>
      <trkpt lat="48.60163" lon="-4.08465">
        <ele>70</ele>
        <time>2020-06-10T10:04:46Z</time>
      </trkpt>
      <trkpt lat="48.60158" lon="-4.08463">
        <ele>70</ele>
        <time>2020-06-10T10:04:47Z</time>
      </trkpt>
      <trkpt lat="48.60153" lon="-4.0846">
        <ele>69.9</ele>
        <time>2020-06-10T10:04:48Z</time>
      </trkpt>
      <trkpt lat="48.60148" lon="-4.08457">
        <ele>69.9</ele>
        <time>2020-06-10T10:04:49Z</time>
      </trkpt>
      <trkpt lat="48.60144" lon="-4.08455">
        <ele>69.8</ele>
        <time>2020-06-10T10:04:50Z</time>
      </trkpt>
      <trkpt lat="48.60139" lon="-4.08453">
        <ele>69.7</ele>
        <time>2020-06-10T10:04:51Z</time>
      </trkpt>
      <trkpt lat="48.60135" lon="-4.08451">
        <ele>69.7</ele>
        <time>2020-06-10T10:04:52Z</time>
      </trkpt>
      <trkpt lat="48.6013" lon="-4.08449">
        <ele>69.6</ele>
        <time>2020-06-10T10:04:53Z</time>
      </trkpt>
      <trkpt lat="48.60125" lon="-4.08446">
        <ele>69.4</ele>
        <time>2020-06-10T10:04:54Z</time>
      </trkpt>
      <trkpt lat="48.6012" lon="-4.08444">
        <ele>69.2</ele>
        <time>2020-06-10T10:04:55Z</time>
      </trkpt>
      <trkpt lat="48.60116" lon="-4.08441">
        <ele>68.9</ele>
        <time>2020-06-10T10:04:56Z</time>
      </trkpt>
      <trkpt lat="48.6011" lon="-4.08438">
        <ele>68.5</ele>
        <time>2020-06-10T10:04:57Z</time>
      </trkpt>
      <trkpt lat="48.60104" lon="-4.08434">
        <ele>68.1</ele>
        <time>2020-06-10T10:04:58Z</time>
      </trkpt>
      <trkpt lat="48.60097" lon="-4.0843">
        <ele>67.7</ele>
        <time>2020-06-10T10:04:59Z</time>
      </trkpt>
      <trkpt lat="48.60091" lon="-4.08425">
        <ele>67.2</ele>
        <time>2020-06-10T10:05:00Z</time>
      </trkpt>
      <trkpt lat="48.60084" lon="-4.0842">
        <ele>66.7</ele>
        <time>2020-06-10T10:05:01Z</time>
      </trkpt>
      <trkpt lat="48.60077" lon="-4.08414">
        <ele>66.2</ele>
        <time>2020-06-10T10:05:02Z</time>
      </trkpt>
      <trkpt lat="48.60071" lon="-4.08406">
        <ele>65.8</ele>
        <time>2020-06-10T10:05:03Z</time>
      </trkpt>
      <trkpt lat="48.60065" lon="-4.08399">
        <ele>65.3</ele>
        <time>2020-06-10T10:05:04Z</time>
      </trkpt>
      <trkpt lat="48.6006" lon="-4.0839">
        <ele>64.8</ele>
        <time>2020-06-10T10:05:05Z</time>
      </trkpt>
      <trkpt lat="48.60055" lon="-4.0838">
        <ele>64.3</ele>
        <time>2020-06-10T10:05:06Z</time>
      </trkpt>
      <trkpt lat="48.6005" lon="-4.0837">
        <ele>63.7</ele>
        <time>2020-06-10T10:05:07Z</time>
      </trkpt>
      <trkpt lat="48.60046" lon="-4.08359">
        <ele>63.1</ele>
        <time>2020-06-10T10:05:08Z</time>
      </trkpt>
      <trkpt lat="48.60041" lon="-4.08347">
        <ele>62.5</ele>
        <time>2020-06-10T10:05:09Z</time>
      </trkpt>
      <trkpt lat="48.60037" lon="-4.08335">
        <ele>61.9</ele>
        <time>2020-06-10T10:05:10Z</time>
      </trkpt>
      <trkpt lat="48.60033" lon="-4.08324">
        <ele>61.3</ele>
        <time>2020-06-10T10:05:11Z</time>
      </trkpt>
      <trkpt lat="48.60028" lon="-4.08312">
        <ele>60.9</ele>
        <time>2020-06-10T10:05:12Z</time>
      </trkpt>
      <trkpt lat="48.60024" lon="-4.083">
        <ele>60.5</ele>
        <time>2020-06-10T10:05:13Z</time>
      </trkpt>
      <trkpt lat="48.60019" lon="-4.08288">
        <ele>60.1</ele>
        <time>2020-06-10T10:05:14Z</time>
      </trkpt>
      <trkpt lat="48.60015" lon="-4.08276">
        <ele>59.7</ele>
        <time>2020-06-10T10:05:15Z</time>
      </trkpt>
      <trkpt lat="48.6001" lon="-4.08264">
        <ele>59.4</ele>
        <time>2020-06-10T10:05:16Z</time>
      </trkpt>
      <trkpt lat="48.60006" lon="-4.08253">
        <ele>59.2</ele>
        <time>2020-06-10T10:05:17Z</time>
      </trkpt>
      <trkpt lat="48.60002" lon="-4.08242">
        <ele>59</ele>
        <time>2020-06-10T10:05:18Z</time>
      </trkpt>
      <trkpt lat="48.59997" lon="-4.08231">
        <ele>58.8</ele>
        <time>2020-06-10T10:05:19Z</time>
      </trkpt>
      <trkpt lat="48.59993" lon="-4.0822">
        <ele>58.6</ele>
        <time>2020-06-10T10:05:20Z</time>
      </trkpt>
      <trkpt lat="48.5999" lon="-4.0821">
        <ele>58.4</ele>
        <time>2020-06-10T10:05:21Z</time>
      </trkpt>
      <trkpt lat="48.59986" lon="-4.08199">
        <ele>58.2</ele>
        <time>2020-06-10T10:05:22Z</time>
      </trkpt>
      <trkpt lat="48.59982" lon="-4.08189">
        <ele>58.1</ele>
        <time>2020-06-10T10:05:23Z</time>
      </trkpt>
      <trkpt lat="48.59978" lon="-4.08179">
        <ele>57.9</ele>
        <time>2020-06-10T10:05:24Z</time>
      </trkpt>
      <trkpt lat="48.59974" lon="-4.0817">
        <ele>57.8</ele>
        <time>2020-06-10T10:05:25Z</time>
      </trkpt>
      <trkpt lat="48.5997" lon="-4.0816">
        <ele>57.7</ele>
        <time>2020-06-10T10:05:26Z</time>
      </trkpt>
      <trkpt lat="48.59966" lon="-4.08149">
        <ele>57.6</ele>
        <time>2020-06-10T10:05:27Z</time>
      </trkpt>
      <trkpt lat="48.59961" lon="-4.0814">
        <ele>57.6</ele>
        <time>2020-06-10T10:05:28Z</time>
      </trkpt>
      <trkpt lat="48.59957" lon="-4.08131">
        <ele>57.7</ele>
        <time>2020-06-10T10:05:29Z</time>
      </trkpt>
      <trkpt lat="48.59952" lon="-4.08122">
        <ele>57.8</ele>
        <time>2020-06-10T10:05:30Z</time>
      </trkpt>
      <trkpt lat="48.59946" lon="-4.08113">
        <ele>57.9</ele>
        <time>2020-06-10T10:05:31Z</time>
      </trkpt>
      <trkpt lat="48.59941" lon="-4.08105">
        <ele>57.9</ele>
        <time>2020-06-10T10:05:32Z</time>
      </trkpt>
      <trkpt lat="48.59935" lon="-4.08097">
        <ele>57.9</ele>
        <time>2020-06-10T10:05:33Z</time>
      </trkpt>
      <trkpt lat="48.59929" lon="-4.08089">
        <ele>57.9</ele>
        <time>2020-06-10T10:05:34Z</time>
      </trkpt>
      <trkpt lat="48.59923" lon="-4.08082">
        <ele>58</ele>
        <time>2020-06-10T10:05:35Z</time>
      </trkpt>
      <trkpt lat="48.59918" lon="-4.08075">
        <ele>58.1</ele>
        <time>2020-06-10T10:05:36Z</time>
      </trkpt>
      <trkpt lat="48.59912" lon="-4.08067">
        <ele>58.2</ele>
        <time>2020-06-10T10:05:37Z</time>
      </trkpt>
      <trkpt lat="48.59907" lon="-4.0806">
        <ele>58.2</ele>
        <time>2020-06-10T10:05:38Z</time>
      </trkpt>
      <trkpt lat="48.59901" lon="-4.08053">
        <ele>58.3</ele>
        <time>2020-06-10T10:05:39Z</time>
      </trkpt>
      <trkpt lat="48.59896" lon="-4.08046">
        <ele>58.3</ele>
        <time>2020-06-10T10:05:40Z</time>
      </trkpt>
      <trkpt lat="48.59891" lon="-4.08039">
        <ele>58.4</ele>
        <time>2020-06-10T10:05:41Z</time>
      </trkpt>
      <trkpt lat="48.59886" lon="-4.08032">
        <ele>58.5</ele>
        <time>2020-06-10T10:05:42Z</time>
      </trkpt>
      <trkpt lat="48.59881" lon="-4.08026">
        <ele>58.7</ele>
        <time>2020-06-10T10:05:43Z</time>
      </trkpt>
      <trkpt lat="48.59876" lon="-4.0802">
        <ele>58.9</ele>
        <time>2020-06-10T10:05:44Z</time>
      </trkpt>
      <trkpt lat="48.59872" lon="-4.08013">
        <ele>59.1</ele>
        <time>2020-06-10T10:05:45Z</time>
      </trkpt>
      <trkpt lat="48.59867" lon="-4.08007">
        <ele>59.3</ele>
        <time>2020-06-10T10:05:46Z</time>
      </trkpt>
      <trkpt lat="48.59862" lon="-4.08001">
        <ele>59.6</ele>
        <time>2020-06-10T10:05:47Z</time>
      </trkpt>
      <trkpt lat="48.59858" lon="-4.07996">
        <ele>59.8</ele>
        <time>2020-06-10T10:05:48Z</time>
      </trkpt>
      <trkpt lat="48.59854" lon="-4.0799">
        <ele>60.1</ele>
        <time>2020-06-10T10:05:49Z</time>
      </trkpt>
      <trkpt lat="48.5985" lon="-4.07985">
        <ele>60.3</ele>
        <time>2020-06-10T10:05:50Z</time>
      </trkpt>
      <trkpt lat="48.59845" lon="-4.0798">
        <ele>60.6</ele>
        <time>2020-06-10T10:05:51Z</time>
      </trkpt>
      <trkpt lat="48.59841" lon="-4.07975">
        <ele>60.8</ele>
        <time>2020-06-10T10:05:52Z</time>
      </trkpt>
      <trkpt lat="48.59837" lon="-4.07971">
        <ele>61</ele>
        <time>2020-06-10T10:05:53Z</time>
      </trkpt>
      <trkpt lat="48.59832" lon="-4.07966">
        <ele>61.3</ele>
        <time>2020-06-10T10:05:54Z</time>
      </trkpt>
      <trkpt lat="48.59828" lon="-4.07962">
        <ele>61.5</ele>
        <time>2020-06-10T10:05:55Z</time>
      </trkpt>
      <trkpt lat="48.59824" lon="-4.07958">
        <ele>61.8</ele>
        <time>2020-06-10T10:05:56Z</time>
      </trkpt>
      <trkpt lat="48.5982" lon="-4.07955">
        <ele>62</ele>
        <time>2020-06-10T10:05:57Z</time>
      </trkpt>
      <trkpt lat="48.59816" lon="-4.07953">
        <ele>62.3</ele>
        <time>2020-06-10T10:05:58Z</time>
      </trkpt>
      <trkpt lat="48.59811" lon="-4.07952">
        <ele>62.5</ele>
        <time>2020-06-10T10:05:59Z</time>
      </trkpt>
      <trkpt lat="48.59807" lon="-4.0795">
        <ele>62.7</ele>
        <time>2020-06-10T10:06:00Z</time>
      </trkpt>
      <trkpt lat="48.59803" lon="-4.07949">
        <ele>62.9</ele>
        <time>2020-06-10T10:06:01Z</time>
      </trkpt>
      <trkpt lat="48.59799" lon="-4.07948">
        <ele>63</ele>
        <time>2020-06-10T10:06:02Z</time>
      </trkpt>
      <trkpt lat="48.59796" lon="-4.07948">
        <ele>63.2</ele>
        <time>2020-06-10T10:06:03Z</time>
      </trkpt>
      <trkpt lat="48.59792" lon="-4.07948">
        <ele>63.3</ele>
        <time>2020-06-10T10:06:04Z</time>
      </trkpt>
      <trkpt lat="48.59788" lon="-4.07949">
        <ele>63.4</ele>
        <time>2020-06-10T10:06:05Z</time>
      </trkpt>
      <trkpt lat="48.59784" lon="-4.0795">
        <ele>63.6</ele>
        <time>2020-06-10T10:06:06Z</time>
      </trkpt>
      <trkpt lat="48.59781" lon="-4.07952">
        <ele>63.7</ele>
        <time>2020-06-10T10:06:07Z</time>
      </trkpt>
      <trkpt lat="48.59777" lon="-4.07954">
        <ele>63.8</ele>
        <time>2020-06-10T10:06:08Z</time>
      </trkpt>
      <trkpt lat="48.59774" lon="-4.07955">
        <ele>63.9</ele>
        <time>2020-06-10T10:06:09Z</time>
      </trkpt>
      <trkpt lat="48.5977" lon="-4.07957">
        <ele>64.1</ele>
        <time>2020-06-10T10:06:10Z</time>
      </trkpt>
      <trkpt lat="48.59767" lon="-4.07958">
        <ele>64.2</ele>
        <time>2020-06-10T10:06:11Z</time>
      </trkpt>
      <trkpt lat="48.59763" lon="-4.0796">
        <ele>64.3</ele>
        <time>2020-06-10T10:06:12Z</time>
      </trkpt>
      <trkpt lat="48.59759" lon="-4.07962">
        <ele>64.4</ele>
        <time>2020-06-10T10:06:13Z</time>
      </trkpt>
      <trkpt lat="48.59754" lon="-4.07964">
        <ele>64.5</ele>
        <time>2020-06-10T10:06:14Z</time>
      </trkpt>
      <trkpt lat="48.5975" lon="-4.07965">
        <ele>64.6</ele>
        <time>2020-06-10T10:06:15Z</time>
      </trkpt>
      <trkpt lat="48.59747" lon="-4.07967">
        <ele>64.6</ele>
        <time>2020-06-10T10:06:16Z</time>
      </trkpt>
      <trkpt lat="48.59742" lon="-4.07968">
        <ele>64.6</ele>
        <time>2020-06-10T10:06:17Z</time>
      </trkpt>
      <trkpt lat="48.59738" lon="-4.07969">
        <ele>64.7</ele>
        <time>2020-06-10T10:06:18Z</time>
      </trkpt>
      <trkpt lat="48.59734" lon="-4.0797">
        <ele>64.7</ele>
        <time>2020-06-10T10:06:19Z</time>
      </trkpt>
      <trkpt lat="48.5973" lon="-4.0797">
        <ele>64.8</ele>
        <time>2020-06-10T10:06:20Z</time>
      </trkpt>
      <trkpt lat="48.59726" lon="-4.0797">
        <ele>64.8</ele>
        <time>2020-06-10T10:06:21Z</time>
      </trkpt>
      <trkpt lat="48.59723" lon="-4.0797">
        <ele>64.9</ele>
        <time>2020-06-10T10:06:22Z</time>
      </trkpt>
      <trkpt lat="48.59719" lon="-4.07969">
        <ele>64.9</ele>
        <time>2020-06-10T10:06:23Z</time>
      </trkpt>
      <trkpt lat="48.59715" lon="-4.0797">
        <ele>65</ele>
        <time>2020-06-10T10:06:24Z</time>
      </trkpt>
      <trkpt lat="48.5971" lon="-4.07968">
        <ele>65</ele>
        <time>2020-06-10T10:06:25Z</time>
      </trkpt>
      <trkpt lat="48.59705" lon="-4.07966">
        <ele>65</ele>
        <time>2020-06-10T10:06:26Z</time>
      </trkpt>
      <trkpt lat="48.597" lon="-4.07964">
        <ele>65</ele>
        <time>2020-06-10T10:06:27Z</time>
      </trkpt>
      <trkpt lat="48.59697" lon="-4.07963">
        <ele>65</ele>
        <time>2020-06-10T10:06:28Z</time>
      </trkpt>
      <trkpt lat="48.59692" lon="-4.07961">
        <ele>65</ele>
        <time>2020-06-10T10:06:29Z</time>
      </trkpt>
      <trkpt lat="48.59688" lon="-4.07958">
        <ele>64.9</ele>
        <time>2020-06-10T10:06:30Z</time>
      </trkpt>
      <trkpt lat="48.59684" lon="-4.07955">
        <ele>64.9</ele>
        <time>2020-06-10T10:06:31Z</time>
      </trkpt>
      <trkpt lat="48.59679" lon="-4.07952">
        <ele>64.8</ele>
        <time>2020-06-10T10:06:32Z</time>
      </trkpt>
      <trkpt lat="48.59675" lon="-4.07948">
        <ele>64.7</ele>
        <time>2020-06-10T10:06:33Z</time>
      </trkpt>
      <trkpt lat="48.5967" lon="-4.07944">
        <ele>64.7</ele>
        <time>2020-06-10T10:06:34Z</time>
      </trkpt>
      <trkpt lat="48.59666" lon="-4.07939">
        <ele>64.6</ele>
        <time>2020-06-10T10:06:35Z</time>
      </trkpt>
      <trkpt lat="48.59661" lon="-4.07934">
        <ele>64.4</ele>
        <time>2020-06-10T10:06:36Z</time>
      </trkpt>
      <trkpt lat="48.59657" lon="-4.07928">
        <ele>64.3</ele>
        <time>2020-06-10T10:06:37Z</time>
      </trkpt>
      <trkpt lat="48.59653" lon="-4.07922">
        <ele>64.1</ele>
        <time>2020-06-10T10:06:38Z</time>
      </trkpt>
      <trkpt lat="48.59649" lon="-4.07914">
        <ele>63.8</ele>
        <time>2020-06-10T10:06:39Z</time>
      </trkpt>
      <trkpt lat="48.59645" lon="-4.07905">
        <ele>63.4</ele>
        <time>2020-06-10T10:06:40Z</time>
      </trkpt>
      <trkpt lat="48.59641" lon="-4.07896">
        <ele>62.9</ele>
        <time>2020-06-10T10:06:41Z</time>
      </trkpt>
      <trkpt lat="48.59638" lon="-4.07886">
        <ele>62.4</ele>
        <time>2020-06-10T10:06:42Z</time>
      </trkpt>
      <trkpt lat="48.59635" lon="-4.07876">
        <ele>62</ele>
        <time>2020-06-10T10:06:43Z</time>
      </trkpt>
      <trkpt lat="48.59632" lon="-4.07864">
        <ele>61.5</ele>
        <time>2020-06-10T10:06:44Z</time>
      </trkpt>
      <trkpt lat="48.5963" lon="-4.07853">
        <ele>61</ele>
        <time>2020-06-10T10:06:45Z</time>
      </trkpt>
      <trkpt lat="48.59627" lon="-4.0784">
        <ele>60.4</ele>
        <time>2020-06-10T10:06:46Z</time>
      </trkpt>
      <trkpt lat="48.59626" lon="-4.07826">
        <ele>59.7</ele>
        <time>2020-06-10T10:06:47Z</time>
      </trkpt>
      <trkpt lat="48.59625" lon="-4.07812">
        <ele>59.2</ele>
        <time>2020-06-10T10:06:48Z</time>
      </trkpt>
      <trkpt lat="48.59625" lon="-4.07797">
        <ele>58.5</ele>
        <time>2020-06-10T10:06:49Z</time>
      </trkpt>
      <trkpt lat="48.59625" lon="-4.07782">
        <ele>57.8</ele>
        <time>2020-06-10T10:06:50Z</time>
      </trkpt>
      <trkpt lat="48.59626" lon="-4.07768">
        <ele>57.1</ele>
        <time>2020-06-10T10:06:51Z</time>
      </trkpt>
      <trkpt lat="48.59627" lon="-4.07753">
        <ele>56.3</ele>
        <time>2020-06-10T10:06:52Z</time>
      </trkpt>
      <trkpt lat="48.59629" lon="-4.07738">
        <ele>55.6</ele>
        <time>2020-06-10T10:06:53Z</time>
      </trkpt>
      <trkpt lat="48.5963" lon="-4.07723">
        <ele>54.8</ele>
        <time>2020-06-10T10:06:54Z</time>
      </trkpt>
      <trkpt lat="48.59632" lon="-4.07707">
        <ele>54</ele>
        <time>2020-06-10T10:06:55Z</time>
      </trkpt>
      <trkpt lat="48.59633" lon="-4.07692">
        <ele>53.2</ele>
        <time>2020-06-10T10:06:56Z</time>
      </trkpt>
      <trkpt lat="48.59635" lon="-4.07676">
        <ele>52.4</ele>
        <time>2020-06-10T10:06:57Z</time>
      </trkpt>
      <trkpt lat="48.59637" lon="-4.0766">
        <ele>51.5</ele>
        <time>2020-06-10T10:06:58Z</time>
      </trkpt>
      <trkpt lat="48.59639" lon="-4.07644">
        <ele>50.6</ele>
        <time>2020-06-10T10:06:59Z</time>
      </trkpt>
      <trkpt lat="48.5964" lon="-4.07628">
        <ele>49.7</ele>
        <time>2020-06-10T10:07:00Z</time>
      </trkpt>
      <trkpt lat="48.59642" lon="-4.07611">
        <ele>48.8</ele>
        <time>2020-06-10T10:07:01Z</time>
      </trkpt>
      <trkpt lat="48.59643" lon="-4.07595">
        <ele>47.9</ele>
        <time>2020-06-10T10:07:02Z</time>
      </trkpt>
      <trkpt lat="48.59644" lon="-4.07578">
        <ele>47.1</ele>
        <time>2020-06-10T10:07:03Z</time>
      </trkpt>
      <trkpt lat="48.59646" lon="-4.07561">
        <ele>46.4</ele>
        <time>2020-06-10T10:07:04Z</time>
      </trkpt>
      <trkpt lat="48.59647" lon="-4.07544">
        <ele>45.8</ele>
        <time>2020-06-10T10:07:05Z</time>
      </trkpt>
      <trkpt lat="48.59647" lon="-4.07527">
        <ele>45.2</ele>
        <time>2020-06-10T10:07:06Z</time>
      </trkpt>
      <trkpt lat="48.59647" lon="-4.07509">
        <ele>44.7</ele>
        <time>2020-06-10T10:07:07Z</time>
      </trkpt>
      <trkpt lat="48.59645" lon="-4.07492">
        <ele>44.4</ele>
        <time>2020-06-10T10:07:08Z</time>
      </trkpt>
      <trkpt lat="48.59642" lon="-4.07475">
        <ele>44.3</ele>
        <time>2020-06-10T10:07:09Z</time>
      </trkpt>
      <trkpt lat="48.59639" lon="-4.07459">
        <ele>44.5</ele>
        <time>2020-06-10T10:07:10Z</time>
      </trkpt>
      <trkpt lat="48.59635" lon="-4.07444">
        <ele>44.6</ele>
        <time>2020-06-10T10:07:11Z</time>
      </trkpt>
      <trkpt lat="48.59631" lon="-4.0743">
        <ele>44.6</ele>
        <time>2020-06-10T10:07:12Z</time>
      </trkpt>
      <trkpt lat="48.59627" lon="-4.07416">
        <ele>44.5</ele>
        <time>2020-06-10T10:07:13Z</time>
      </trkpt>
      <trkpt lat="48.59622" lon="-4.07404">
        <ele>44.6</ele>
        <time>2020-06-10T10:07:14Z</time>
      </trkpt>
      <trkpt lat="48.59615" lon="-4.07395">
        <ele>44.8</ele>
        <time>2020-06-10T10:07:15Z</time>
      </trkpt>
      <trkpt lat="48.59609" lon="-4.07387">
        <ele>45</ele>
        <time>2020-06-10T10:07:16Z</time>
      </trkpt>
      <trkpt lat="48.59602" lon="-4.07381">
        <ele>45.4</ele>
        <time>2020-06-10T10:07:17Z</time>
      </trkpt>
      <trkpt lat="48.59595" lon="-4.07377">
        <ele>45.9</ele>
        <time>2020-06-10T10:07:18Z</time>
      </trkpt>
      <trkpt lat="48.59588" lon="-4.07375">
        <ele>46.3</ele>
        <time>2020-06-10T10:07:19Z</time>
      </trkpt>
      <trkpt lat="48.59581" lon="-4.07371">
        <ele>46.8</ele>
        <time>2020-06-10T10:07:20Z</time>
      </trkpt>
      <trkpt lat="48.59575" lon="-4.07368">
        <ele>47.2</ele>
        <time>2020-06-10T10:07:21Z</time>
      </trkpt>
      <trkpt lat="48.59569" lon="-4.07366">
        <ele>47.6</ele>
        <time>2020-06-10T10:07:22Z</time>
      </trkpt>
      <trkpt lat="48.59563" lon="-4.07363">
        <ele>48.1</ele>
        <time>2020-06-10T10:07:23Z</time>
      </trkpt>
      <trkpt lat="48.59557" lon="-4.07361">
        <ele>48.5</ele>
        <time>2020-06-10T10:07:24Z</time>
      </trkpt>
      <trkpt lat="48.59552" lon="-4.07357">
        <ele>48.9</ele>
        <time>2020-06-10T10:07:25Z</time>
      </trkpt>
      <trkpt lat="48.59547" lon="-4.07354">
        <ele>49.2</ele>
        <time>2020-06-10T10:07:26Z</time>
      </trkpt>
      <trkpt lat="48.59542" lon="-4.07351">
        <ele>49.5</ele>
        <time>2020-06-10T10:07:27Z</time>
      </trkpt>
      <trkpt lat="48.59537" lon="-4.07347">
        <ele>49.9</ele>
        <time>2020-06-10T10:07:28Z</time>
      </trkpt>
      <trkpt lat="48.59533" lon="-4.07343">
        <ele>50.3</ele>
        <time>2020-06-10T10:07:29Z</time>
      </trkpt>
      <trkpt lat="48.59529" lon="-4.0734">
        <ele>50.6</ele>
        <time>2020-06-10T10:07:30Z</time>
      </trkpt>
      <trkpt lat="48.59524" lon="-4.07337">
        <ele>50.9</ele>
        <time>2020-06-10T10:07:31Z</time>
      </trkpt>
      <trkpt lat="48.59521" lon="-4.07334">
        <ele>51.1</ele>
        <time>2020-06-10T10:07:32Z</time>
      </trkpt>
      <trkpt lat="48.59518" lon="-4.0733">
        <ele>51.4</ele>
        <time>2020-06-10T10:07:33Z</time>
      </trkpt>
      <trkpt lat="48.59514" lon="-4.07328">
        <ele>51.6</ele>
        <time>2020-06-10T10:07:34Z</time>
      </trkpt>
      <trkpt lat="48.59512" lon="-4.07324">
        <ele>51.8</ele>
        <time>2020-06-10T10:07:35Z</time>
      </trkpt>
      <trkpt lat="48.59509" lon="-4.07322">
        <ele>52</ele>
        <time>2020-06-10T10:07:36Z</time>
      </trkpt>
      <trkpt lat="48.59506" lon="-4.07319">
        <ele>52.2</ele>
        <time>2020-06-10T10:07:37Z</time>
      </trkpt>
      <trkpt lat="48.59504" lon="-4.07316">
        <ele>52.4</ele>
        <time>2020-06-10T10:07:38Z</time>
      </trkpt>
      <trkpt lat="48.59501" lon="-4.07313">
        <ele>52.5</ele>
        <time>2020-06-10T10:07:39Z</time>
      </trkpt>
      <trkpt lat="48.59499" lon="-4.0731">
        <ele>52.7</ele>
        <time>2020-06-10T10:07:40Z</time>
      </trkpt>
      <trkpt lat="48.59496" lon="-4.07306">
        <ele>52.9</ele>
        <time>2020-06-10T10:07:41Z</time>
      </trkpt>
      <trkpt lat="48.59493" lon="-4.07302">
        <ele>53.1</ele>
        <time>2020-06-10T10:07:42Z</time>
      </trkpt>
      <trkpt lat="48.5949" lon="-4.07299">
        <ele>53.3</ele>
        <time>2020-06-10T10:07:43Z</time>
      </trkpt>
      <trkpt lat="48.59487" lon="-4.07296">
        <ele>53.5</ele>
        <time>2020-06-10T10:07:44Z</time>
      </trkpt>
      <trkpt lat="48.59484" lon="-4.07292">
        <ele>53.7</ele>
        <time>2020-06-10T10:07:45Z</time>
      </trkpt>
      <trkpt lat="48.5948" lon="-4.07289">
        <ele>53.9</ele>
        <time>2020-06-10T10:07:46Z</time>
      </trkpt>
      <trkpt lat="48.59477" lon="-4.07286">
        <ele>54.1</ele>
        <time>2020-06-10T10:07:47Z</time>
      </trkpt>
      <trkpt lat="48.59474" lon="-4.07282">
        <ele>54.3</ele>
        <time>2020-06-10T10:07:48Z</time>
      </trkpt>
      <trkpt lat="48.5947" lon="-4.07279">
        <ele>54.5</ele>
        <time>2020-06-10T10:07:49Z</time>
      </trkpt>
      <trkpt lat="48.59467" lon="-4.07275">
        <ele>54.7</ele>
        <time>2020-06-10T10:07:50Z</time>
      </trkpt>
      <trkpt lat="48.59464" lon="-4.07271">
        <ele>54.9</ele>
        <time>2020-06-10T10:07:51Z</time>
      </trkpt>
      <trkpt lat="48.59461" lon="-4.07267">
        <ele>55.1</ele>
        <time>2020-06-10T10:07:52Z</time>
      </trkpt>
      <trkpt lat="48.59458" lon="-4.07264">
        <ele>55.3</ele>
        <time>2020-06-10T10:07:53Z</time>
      </trkpt>
      <trkpt lat="48.59455" lon="-4.07259">
        <ele>55.4</ele>
        <time>2020-06-10T10:07:54Z</time>
      </trkpt>
      <trkpt lat="48.59452" lon="-4.07255">
        <ele>55.6</ele>
        <time>2020-06-10T10:07:55Z</time>
      </trkpt>
      <trkpt lat="48.59449" lon="-4.07251">
        <ele>55.7</ele>
        <time>2020-06-10T10:07:56Z</time>
      </trkpt>
      <trkpt lat="48.59446" lon="-4.07248">
        <ele>55.8</ele>
        <time>2020-06-10T10:07:57Z</time>
      </trkpt>
      <trkpt lat="48.59444" lon="-4.07245">
        <ele>55.9</ele>
        <time>2020-06-10T10:07:58Z</time>
      </trkpt>
      <trkpt lat="48.59441" lon="-4.07242">
        <ele>56</ele>
        <time>2020-06-10T10:07:59Z</time>
      </trkpt>
      <trkpt lat="48.59438" lon="-4.07238">
        <ele>56.1</ele>
        <time>2020-06-10T10:08:00Z</time>
      </trkpt>
      <trkpt lat="48.59436" lon="-4.07235">
        <ele>56.1</ele>
        <time>2020-06-10T10:08:01Z</time>
      </trkpt>
      <trkpt lat="48.59433" lon="-4.0723">
        <ele>56.2</ele>
        <time>2020-06-10T10:08:02Z</time>
      </trkpt>
      <trkpt lat="48.59432" lon="-4.07228">
        <ele>56.2</ele>
        <time>2020-06-10T10:08:03Z</time>
      </trkpt>
      <trkpt lat="48.5943" lon="-4.07223">
        <ele>56.3</ele>
        <time>2020-06-10T10:08:04Z</time>
      </trkpt>
      <trkpt lat="48.59429" lon="-4.07222">
        <ele>56.3</ele>
        <time>2020-06-10T10:08:05Z</time>
      </trkpt>
      <trkpt lat="48.59427" lon="-4.07216">
        <ele>56.3</ele>
        <time>2020-06-10T10:08:06Z</time>
      </trkpt>
      <trkpt lat="48.59425" lon="-4.07212">
        <ele>56.3</ele>
        <time>2020-06-10T10:08:07Z</time>
      </trkpt>
      <trkpt lat="48.59423" lon="-4.07207">
        <ele>56.3</ele>
        <time>2020-06-10T10:08:08Z</time>
      </trkpt>
      <trkpt lat="48.59421" lon="-4.07201">
        <ele>56.3</ele>
        <time>2020-06-10T10:08:09Z</time>
      </trkpt>
      <trkpt lat="48.59418" lon="-4.07195">
        <ele>56.3</ele>
        <time>2020-06-10T10:08:10Z</time>
      </trkpt>
      <trkpt lat="48.59416" lon="-4.0719">
        <ele>56.3</ele>
        <time>2020-06-10T10:08:11Z</time>
      </trkpt>
      <trkpt lat="48.59414" lon="-4.07184">
        <ele>56.3</ele>
        <time>2020-06-10T10:08:12Z</time>
      </trkpt>
      <trkpt lat="48.59412" lon="-4.0718">
        <ele>56.3</ele>
        <time>2020-06-10T10:08:13Z</time>
      </trkpt>
      <trkpt lat="48.5941" lon="-4.07174">
        <ele>56.2</ele>
        <time>2020-06-10T10:08:14Z</time>
      </trkpt>
      <trkpt lat="48.59408" lon="-4.0717">
        <ele>56.2</ele>
        <time>2020-06-10T10:08:15Z</time>
      </trkpt>
      <trkpt lat="48.59406" lon="-4.07165">
        <ele>56.2</ele>
        <time>2020-06-10T10:08:16Z</time>
      </trkpt>
      <trkpt lat="48.59404" lon="-4.07161">
        <ele>56.2</ele>
        <time>2020-06-10T10:08:17Z</time>
      </trkpt>
      <trkpt lat="48.59402" lon="-4.07155">
        <ele>56.2</ele>
        <time>2020-06-10T10:08:18Z</time>
      </trkpt>
      <trkpt lat="48.594" lon="-4.07148">
        <ele>56.2</ele>
        <time>2020-06-10T10:08:19Z</time>
      </trkpt>
      <trkpt lat="48.59398" lon="-4.07143">
        <ele>56.2</ele>
        <time>2020-06-10T10:08:20Z</time>
      </trkpt>
      <trkpt lat="48.59397" lon="-4.07138">
        <ele>56.3</ele>
        <time>2020-06-10T10:08:21Z</time>
      </trkpt>
      <trkpt lat="48.59394" lon="-4.07132">
        <ele>56.3</ele>
        <time>2020-06-10T10:08:22Z</time>
      </trkpt>
      <trkpt lat="48.59392" lon="-4.07124">
        <ele>56.3</ele>
        <time>2020-06-10T10:08:23Z</time>
      </trkpt>
      <trkpt lat="48.59389" lon="-4.07117">
        <ele>56.4</ele>
        <time>2020-06-10T10:08:24Z</time>
      </trkpt>
      <trkpt lat="48.59387" lon="-4.0711">
        <ele>56.5</ele>
        <time>2020-06-10T10:08:25Z</time>
      </trkpt>
      <trkpt lat="48.59384" lon="-4.07104">
        <ele>56.5</ele>
        <time>2020-06-10T10:08:26Z</time>
      </trkpt>
      <trkpt lat="48.59382" lon="-4.07098">
        <ele>56.6</ele>
        <time>2020-06-10T10:08:27Z</time>
      </trkpt>
      <trkpt lat="48.59379" lon="-4.07091">
        <ele>56.7</ele>
        <time>2020-06-10T10:08:28Z</time>
      </trkpt>
      <trkpt lat="48.59378" lon="-4.07086">
        <ele>56.8</ele>
        <time>2020-06-10T10:08:29Z</time>
      </trkpt>
      <trkpt lat="48.59376" lon="-4.07078">
        <ele>57</ele>
        <time>2020-06-10T10:08:30Z</time>
      </trkpt>
      <trkpt lat="48.59374" lon="-4.0707">
        <ele>57</ele>
        <time>2020-06-10T10:08:31Z</time>
      </trkpt>
      <trkpt lat="48.59371" lon="-4.07063">
        <ele>57</ele>
        <time>2020-06-10T10:08:32Z</time>
      </trkpt>
      <trkpt lat="48.59369" lon="-4.07057">
        <ele>57</ele>
        <time>2020-06-10T10:08:33Z</time>
      </trkpt>
      <trkpt lat="48.59367" lon="-4.07049">
        <ele>57.1</ele>
        <time>2020-06-10T10:08:34Z</time>
      </trkpt>
      <trkpt lat="48.59365" lon="-4.07041">
        <ele>57.2</ele>
        <time>2020-06-10T10:08:35Z</time>
      </trkpt>
      <trkpt lat="48.59362" lon="-4.07034">
        <ele>57.4</ele>
        <time>2020-06-10T10:08:36Z</time>
      </trkpt>
      <trkpt lat="48.59361" lon="-4.07029">
        <ele>57.5</ele>
        <time>2020-06-10T10:08:37Z</time>
      </trkpt>
      <trkpt lat="48.59359" lon="-4.07022">
        <ele>57.6</ele>
        <time>2020-06-10T10:08:38Z</time>
      </trkpt>
      <trkpt lat="48.59357" lon="-4.07013">
        <ele>57.9</ele>
        <time>2020-06-10T10:08:39Z</time>
      </trkpt>
      <trkpt lat="48.59356" lon="-4.07007">
        <ele>58</ele>
        <time>2020-06-10T10:08:40Z</time>
      </trkpt>
      <trkpt lat="48.59354" lon="-4.07001">
        <ele>58.3</ele>
        <time>2020-06-10T10:08:41Z</time>
      </trkpt>
      <trkpt lat="48.59351" lon="-4.06995">
        <ele>58.5</ele>
        <time>2020-06-10T10:08:42Z</time>
      </trkpt>
      <trkpt lat="48.59349" lon="-4.06988">
        <ele>58.7</ele>
        <time>2020-06-10T10:08:43Z</time>
      </trkpt>
      <trkpt lat="48.59346" lon="-4.06982">
        <ele>58.9</ele>
        <time>2020-06-10T10:08:44Z</time>
      </trkpt>
      <trkpt lat="48.59344" lon="-4.06976">
        <ele>59.2</ele>
        <time>2020-06-10T10:08:45Z</time>
      </trkpt>
      <trkpt lat="48.59341" lon="-4.0697">
        <ele>59.4</ele>
        <time>2020-06-10T10:08:46Z</time>
      </trkpt>
      <trkpt lat="48.59338" lon="-4.06962">
        <ele>59.8</ele>
        <time>2020-06-10T10:08:47Z</time>
      </trkpt>
      <trkpt lat="48.59336" lon="-4.06957">
        <ele>60</ele>
        <time>2020-06-10T10:08:48Z</time>
      </trkpt>
      <trkpt lat="48.59334" lon="-4.06951">
        <ele>60.2</ele>
        <time>2020-06-10T10:08:49Z</time>
      </trkpt>
      <trkpt lat="48.59331" lon="-4.06946">
        <ele>60.4</ele>
        <time>2020-06-10T10:08:50Z</time>
      </trkpt>
      <trkpt lat="48.5933" lon="-4.06938">
        <ele>60.7</ele>
        <time>2020-06-10T10:08:51Z</time>
      </trkpt>
      <trkpt lat="48.59328" lon="-4.0693">
        <ele>61</ele>
        <time>2020-06-10T10:08:52Z</time>
      </trkpt>
      <trkpt lat="48.59326" lon="-4.06925">
        <ele>61.2</ele>
        <time>2020-06-10T10:08:53Z</time>
      </trkpt>
      <trkpt lat="48.59324" lon="-4.06918">
        <ele>61.5</ele>
        <time>2020-06-10T10:08:54Z</time>
      </trkpt>
      <trkpt lat="48.59322" lon="-4.06912">
        <ele>61.8</ele>
        <time>2020-06-10T10:08:55Z</time>
      </trkpt>
      <trkpt lat="48.5932" lon="-4.06907">
        <ele>62</ele>
        <time>2020-06-10T10:08:56Z</time>
      </trkpt>
      <trkpt lat="48.59319" lon="-4.06902">
        <ele>62.3</ele>
        <time>2020-06-10T10:08:57Z</time>
      </trkpt>
      <trkpt lat="48.59317" lon="-4.06898">
        <ele>62.5</ele>
        <time>2020-06-10T10:08:58Z</time>
      </trkpt>
      <trkpt lat="48.59315" lon="-4.06893">
        <ele>62.7</ele>
        <time>2020-06-10T10:08:59Z</time>
      </trkpt>
      <trkpt lat="48.59313" lon="-4.06887">
        <ele>62.9</ele>
        <time>2020-06-10T10:09:00Z</time>
      </trkpt>
      <trkpt lat="48.59311" lon="-4.0688">
        <ele>63.2</ele>
        <time>2020-06-10T10:09:01Z</time>
      </trkpt>
      <trkpt lat="48.59309" lon="-4.06874">
        <ele>63.4</ele>
        <time>2020-06-10T10:09:02Z</time>
      </trkpt>
      <trkpt lat="48.59307" lon="-4.06868">
        <ele>63.7</ele>
        <time>2020-06-10T10:09:03Z</time>
      </trkpt>
      <trkpt lat="48.59306" lon="-4.06863">
        <ele>63.8</ele>
        <time>2020-06-10T10:09:04Z</time>
      </trkpt>
      <trkpt lat="48.59303" lon="-4.06855">
        <ele>64.1</ele>
        <time>2020-06-10T10:09:05Z</time>
      </trkpt>
      <trkpt lat="48.59302" lon="-4.06851">
        <ele>64.3</ele>
        <time>2020-06-10T10:09:06Z</time>
      </trkpt>
      <trkpt lat="48.593" lon="-4.06843">
        <ele>64.7</ele>
        <time>2020-06-10T10:09:07Z</time>
      </trkpt>
      <trkpt lat="48.59299" lon="-4.06838">
        <ele>64.9</ele>
        <time>2020-06-10T10:09:08Z</time>
      </trkpt>
      <trkpt lat="48.59297" lon="-4.06833">
        <ele>65.1</ele>
        <time>2020-06-10T10:09:09Z</time>
      </trkpt>
      <trkpt lat="48.59296" lon="-4.06827">
        <ele>65.4</ele>
        <time>2020-06-10T10:09:10Z</time>
      </trkpt>
      <trkpt lat="48.59294" lon="-4.06821">
        <ele>65.7</ele>
        <time>2020-06-10T10:09:11Z</time>
      </trkpt>
      <trkpt lat="48.59293" lon="-4.06816">
        <ele>65.9</ele>
        <time>2020-06-10T10:09:12Z</time>
      </trkpt>
      <trkpt lat="48.59291" lon="-4.06811">
        <ele>66.1</ele>
        <time>2020-06-10T10:09:13Z</time>
      </trkpt>
      <trkpt lat="48.59291" lon="-4.06809">
        <ele>66.2</ele>
        <time>2020-06-10T10:09:14Z</time>
      </trkpt>
      <trkpt lat="48.59289" lon="-4.06804">
        <ele>66.4</ele>
        <time>2020-06-10T10:09:15Z</time>
      </trkpt>
      <trkpt lat="48.59288" lon="-4.06797">
        <ele>66.6</ele>
        <time>2020-06-10T10:09:16Z</time>
      </trkpt>
      <trkpt lat="48.59287" lon="-4.06794">
        <ele>66.8</ele>
        <time>2020-06-10T10:09:17Z</time>
      </trkpt>
      <trkpt lat="48.59285" lon="-4.06789">
        <ele>67</ele>
        <time>2020-06-10T10:09:18Z</time>
      </trkpt>
      <trkpt lat="48.59284" lon="-4.06785">
        <ele>67.2</ele>
        <time>2020-06-10T10:09:19Z</time>
      </trkpt>
      <trkpt lat="48.59283" lon="-4.06782">
        <ele>67.3</ele>
        <time>2020-06-10T10:09:20Z</time>
      </trkpt>
      <trkpt lat="48.59283" lon="-4.0678">
        <ele>67.4</ele>
        <time>2020-06-10T10:09:21Z</time>
      </trkpt>
      <trkpt lat="48.59281" lon="-4.06777">
        <ele>67.5</ele>
        <time>2020-06-10T10:09:22Z</time>
      </trkpt>
      <trkpt lat="48.59281" lon="-4.06775">
        <ele>67.6</ele>
        <time>2020-06-10T10:09:23Z</time>
      </trkpt>
      <trkpt lat="48.5928" lon="-4.06771">
        <ele>67.8</ele>
        <time>2020-06-10T10:09:24Z</time>
      </trkpt>
      <trkpt lat="48.59278" lon="-4.06767">
        <ele>68</ele>
        <time>2020-06-10T10:09:25Z</time>
      </trkpt>
      <trkpt lat="48.59278" lon="-4.06764">
        <ele>68</ele>
        <time>2020-06-10T10:09:26Z</time>
      </trkpt>
      <trkpt lat="48.59277" lon="-4.06759">
        <ele>68.3</ele>
        <time>2020-06-10T10:09:27Z</time>
      </trkpt>
      <trkpt lat="48.59275" lon="-4.06754">
        <ele>68.5</ele>
        <time>2020-06-10T10:09:28Z</time>
      </trkpt>
      <trkpt lat="48.59274" lon="-4.06752">
        <ele>68.6</ele>
        <time>2020-06-10T10:09:29Z</time>
      </trkpt>
      <trkpt lat="48.59272" lon="-4.06748">
        <ele>68.8</ele>
        <time>2020-06-10T10:09:30Z</time>
      </trkpt>
      <trkpt lat="48.5927" lon="-4.06744">
        <ele>69</ele>
        <time>2020-06-10T10:09:31Z</time>
      </trkpt>
      <trkpt lat="48.59268" lon="-4.06737">
        <ele>69.3</ele>
        <time>2020-06-10T10:09:32Z</time>
      </trkpt>
      <trkpt lat="48.59266" lon="-4.06732">
        <ele>69.5</ele>
        <time>2020-06-10T10:09:33Z</time>
      </trkpt>
      <trkpt lat="48.59265" lon="-4.0673">
        <ele>69.6</ele>
        <time>2020-06-10T10:09:34Z</time>
      </trkpt>
      <trkpt lat="48.59263" lon="-4.06725">
        <ele>69.8</ele>
        <time>2020-06-10T10:09:35Z</time>
      </trkpt>
      <trkpt lat="48.59262" lon="-4.06719">
        <ele>70</ele>
        <time>2020-06-10T10:09:36Z</time>
      </trkpt>
      <trkpt lat="48.5926" lon="-4.06713">
        <ele>70.3</ele>
        <time>2020-06-10T10:09:37Z</time>
      </trkpt>
      <trkpt lat="48.59258" lon="-4.06706">
        <ele>70.6</ele>
        <time>2020-06-10T10:09:38Z</time>
      </trkpt>
      <trkpt lat="48.59256" lon="-4.06703">
        <ele>70.8</ele>
        <time>2020-06-10T10:09:39Z</time>
      </trkpt>
      <trkpt lat="48.59253" lon="-4.06697">
        <ele>71.1</ele>
        <time>2020-06-10T10:09:40Z</time>
      </trkpt>
      <trkpt lat="48.59251" lon="-4.06693">
        <ele>71.3</ele>
        <time>2020-06-10T10:09:41Z</time>
      </trkpt>
      <trkpt lat="48.5925" lon="-4.06689">
        <ele>71.5</ele>
        <time>2020-06-10T10:09:42Z</time>
      </trkpt>
      <trkpt lat="48.5925" lon="-4.06684">
        <ele>71.7</ele>
        <time>2020-06-10T10:09:43Z</time>
      </trkpt>
      <trkpt lat="48.59248" lon="-4.0668">
        <ele>71.9</ele>
        <time>2020-06-10T10:09:44Z</time>
      </trkpt>
      <trkpt lat="48.59247" lon="-4.06673">
        <ele>72.1</ele>
        <time>2020-06-10T10:09:45Z</time>
      </trkpt>
      <trkpt lat="48.59245" lon="-4.06668">
        <ele>72.4</ele>
        <time>2020-06-10T10:09:46Z</time>
      </trkpt>
      <trkpt lat="48.59241" lon="-4.06661">
        <ele>72.7</ele>
        <time>2020-06-10T10:09:47Z</time>
      </trkpt>
      <trkpt lat="48.59239" lon="-4.06656">
        <ele>72.9</ele>
        <time>2020-06-10T10:09:48Z</time>
      </trkpt>
      <trkpt lat="48.59237" lon="-4.06651">
        <ele>73.1</ele>
        <time>2020-06-10T10:09:49Z</time>
      </trkpt>
      <trkpt lat="48.59234" lon="-4.06648">
        <ele>73.4</ele>
        <time>2020-06-10T10:09:50Z</time>
      </trkpt>
      <trkpt lat="48.59231" lon="-4.06644">
        <ele>73.6</ele>
        <time>2020-06-10T10:09:51Z</time>
      </trkpt>
      <trkpt lat="48.59228" lon="-4.06637">
        <ele>73.9</ele>
        <time>2020-06-10T10:09:52Z</time>
      </trkpt>
      <trkpt lat="48.59225" lon="-4.06633">
        <ele>74.2</ele>
        <time>2020-06-10T10:09:53Z</time>
      </trkpt>
      <trkpt lat="48.59223" lon="-4.06629">
        <ele>74.4</ele>
        <time>2020-06-10T10:09:54Z</time>
      </trkpt>
      <trkpt lat="48.59221" lon="-4.06622">
        <ele>74.7</ele>
        <time>2020-06-10T10:09:55Z</time>
      </trkpt>
      <trkpt lat="48.59219" lon="-4.06618">
        <ele>74.9</ele>
        <time>2020-06-10T10:09:56Z</time>
      </trkpt>
      <trkpt lat="48.59215" lon="-4.06613">
        <ele>75.2</ele>
        <time>2020-06-10T10:09:57Z</time>
      </trkpt>
      <trkpt lat="48.59214" lon="-4.06611">
        <ele>75.3</ele>
        <time>2020-06-10T10:09:58Z</time>
      </trkpt>
      <trkpt lat="48.59212" lon="-4.06606">
        <ele>75.6</ele>
        <time>2020-06-10T10:09:59Z</time>
      </trkpt>
      <trkpt lat="48.59209" lon="-4.06602">
        <ele>75.8</ele>
        <time>2020-06-10T10:10:00Z</time>
      </trkpt>
      <trkpt lat="48.59207" lon="-4.06598">
        <ele>76</ele>
        <time>2020-06-10T10:10:01Z</time>
      </trkpt>
      <trkpt lat="48.59204" lon="-4.06595">
        <ele>76.2</ele>
        <time>2020-06-10T10:10:02Z</time>
      </trkpt>
      <trkpt lat="48.59201" lon="-4.06591">
        <ele>76.4</ele>
        <time>2020-06-10T10:10:03Z</time>
      </trkpt>
      <trkpt lat="48.59199" lon="-4.06587">
        <ele>76.6</ele>
        <time>2020-06-10T10:10:04Z</time>
      </trkpt>
      <trkpt lat="48.59197" lon="-4.06583">
        <ele>76.8</ele>
        <time>2020-06-10T10:10:05Z</time>
      </trkpt>
      <trkpt lat="48.59195" lon="-4.0658">
        <ele>77</ele>
        <time>2020-06-10T10:10:06Z</time>
      </trkpt>
      <trkpt lat="48.59192" lon="-4.06577">
        <ele>77.2</ele>
        <time>2020-06-10T10:10:07Z</time>
      </trkpt>
      <trkpt lat="48.59188" lon="-4.06569">
        <ele>77.5</ele>
        <time>2020-06-10T10:10:08Z</time>
      </trkpt>
      <trkpt lat="48.59185" lon="-4.06565">
        <ele>77.8</ele>
        <time>2020-06-10T10:10:09Z</time>
      </trkpt>
      <trkpt lat="48.59182" lon="-4.0656">
        <ele>78</ele>
        <time>2020-06-10T10:10:10Z</time>
      </trkpt>
      <trkpt lat="48.5918" lon="-4.06555">
        <ele>78.2</ele>
        <time>2020-06-10T10:10:11Z</time>
      </trkpt>
      <trkpt lat="48.59178" lon="-4.0655">
        <ele>78.4</ele>
        <time>2020-06-10T10:10:12Z</time>
      </trkpt>
      <trkpt lat="48.59176" lon="-4.06546">
        <ele>78.6</ele>
        <time>2020-06-10T10:10:13Z</time>
      </trkpt>
      <trkpt lat="48.59173" lon="-4.06542">
        <ele>78.8</ele>
        <time>2020-06-10T10:10:14Z</time>
      </trkpt>
      <trkpt lat="48.5917" lon="-4.06538">
        <ele>78.9</ele>
        <time>2020-06-10T10:10:15Z</time>
      </trkpt>
      <trkpt lat="48.59167" lon="-4.06534">
        <ele>79.1</ele>
        <time>2020-06-10T10:10:16Z</time>
      </trkpt>
      <trkpt lat="48.59166" lon="-4.0653">
        <ele>79.2</ele>
        <time>2020-06-10T10:10:17Z</time>
      </trkpt>
      <trkpt lat="48.59163" lon="-4.06527">
        <ele>79.3</ele>
        <time>2020-06-10T10:10:18Z</time>
      </trkpt>
      <trkpt lat="48.5916" lon="-4.06522">
        <ele>79.4</ele>
        <time>2020-06-10T10:10:19Z</time>
      </trkpt>
      <trkpt lat="48.59157" lon="-4.06519">
        <ele>79.6</ele>
        <time>2020-06-10T10:10:20Z</time>
      </trkpt>
      <trkpt lat="48.59154" lon="-4.06515">
        <ele>79.7</ele>
        <time>2020-06-10T10:10:21Z</time>
      </trkpt>
      <trkpt lat="48.59151" lon="-4.06511">
        <ele>79.9</ele>
        <time>2020-06-10T10:10:22Z</time>
      </trkpt>
      <trkpt lat="48.59148" lon="-4.06507">
        <ele>80.1</ele>
        <time>2020-06-10T10:10:23Z</time>
      </trkpt>
      <trkpt lat="48.59146" lon="-4.06502">
        <ele>80.3</ele>
        <time>2020-06-10T10:10:24Z</time>
      </trkpt>
      <trkpt lat="48.59143" lon="-4.06498">
        <ele>80.5</ele>
        <time>2020-06-10T10:10:25Z</time>
      </trkpt>
      <trkpt lat="48.59141" lon="-4.06494">
        <ele>80.6</ele>
        <time>2020-06-10T10:10:26Z</time>
      </trkpt>
      <trkpt lat="48.59139" lon="-4.0649">
        <ele>80.7</ele>
        <time>2020-06-10T10:10:27Z</time>
      </trkpt>
      <trkpt lat="48.59136" lon="-4.06486">
        <ele>80.9</ele>
        <time>2020-06-10T10:10:28Z</time>
      </trkpt>
      <trkpt lat="48.59135" lon="-4.06484">
        <ele>80.9</ele>
        <time>2020-06-10T10:10:29Z</time>
      </trkpt>
      <trkpt lat="48.59133" lon="-4.06481">
        <ele>81</ele>
        <time>2020-06-10T10:10:30Z</time>
      </trkpt>
      <trkpt lat="48.5913" lon="-4.06478">
        <ele>81.1</ele>
        <time>2020-06-10T10:10:31Z</time>
      </trkpt>
      <trkpt lat="48.59128" lon="-4.06473">
        <ele>81.2</ele>
        <time>2020-06-10T10:10:32Z</time>
      </trkpt>
      <trkpt lat="48.59126" lon="-4.06469">
        <ele>81.3</ele>
        <time>2020-06-10T10:10:33Z</time>
      </trkpt>
      <trkpt lat="48.59123" lon="-4.06464">
        <ele>81.5</ele>
        <time>2020-06-10T10:10:34Z</time>
      </trkpt>
      <trkpt lat="48.5912" lon="-4.06458">
        <ele>81.6</ele>
        <time>2020-06-10T10:10:35Z</time>
      </trkpt>
      <trkpt lat="48.59117" lon="-4.06454">
        <ele>81.7</ele>
        <time>2020-06-10T10:10:36Z</time>
      </trkpt>
      <trkpt lat="48.59115" lon="-4.0645">
        <ele>81.9</ele>
        <time>2020-06-10T10:10:37Z</time>
      </trkpt>
      <trkpt lat="48.59112" lon="-4.06444">
        <ele>82</ele>
        <time>2020-06-10T10:10:38Z</time>
      </trkpt>
      <trkpt lat="48.59109" lon="-4.06439">
        <ele>82.2</ele>
        <time>2020-06-10T10:10:39Z</time>
      </trkpt>
      <trkpt lat="48.59106" lon="-4.06434">
        <ele>82.3</ele>
        <time>2020-06-10T10:10:40Z</time>
      </trkpt>
      <trkpt lat="48.59104" lon="-4.0643">
        <ele>82.4</ele>
        <time>2020-06-10T10:10:41Z</time>
      </trkpt>
      <trkpt lat="48.59102" lon="-4.06426">
        <ele>82.5</ele>
        <time>2020-06-10T10:10:42Z</time>
      </trkpt>
      <trkpt lat="48.59099" lon="-4.06421">
        <ele>82.7</ele>
        <time>2020-06-10T10:10:43Z</time>
      </trkpt>
      <trkpt lat="48.59097" lon="-4.06417">
        <ele>82.8</ele>
        <time>2020-06-10T10:10:44Z</time>
      </trkpt>
      <trkpt lat="48.59095" lon="-4.06412">
        <ele>83</ele>
        <time>2020-06-10T10:10:45Z</time>
      </trkpt>
      <trkpt lat="48.59092" lon="-4.06408">
        <ele>83.1</ele>
        <time>2020-06-10T10:10:46Z</time>
      </trkpt>
      <trkpt lat="48.59089" lon="-4.06404">
        <ele>83.2</ele>
        <time>2020-06-10T10:10:47Z</time>
      </trkpt>
      <trkpt lat="48.59087" lon="-4.064">
        <ele>83.3</ele>
        <time>2020-06-10T10:10:48Z</time>
      </trkpt>
      <trkpt lat="48.59084" lon="-4.06395">
        <ele>83.4</ele>
        <time>2020-06-10T10:10:49Z</time>
      </trkpt>
      <trkpt lat="48.59083" lon="-4.06393">
        <ele>83.5</ele>
        <time>2020-06-10T10:10:50Z</time>
      </trkpt>
      <trkpt lat="48.5908" lon="-4.06387">
        <ele>83.7</ele>
        <time>2020-06-10T10:10:51Z</time>
      </trkpt>
      <trkpt lat="48.59077" lon="-4.06383">
        <ele>83.8</ele>
        <time>2020-06-10T10:10:52Z</time>
      </trkpt>
      <trkpt lat="48.59075" lon="-4.06378">
        <ele>83.9</ele>
        <time>2020-06-10T10:10:53Z</time>
      </trkpt>
      <trkpt lat="48.59072" lon="-4.06374">
        <ele>84.1</ele>
        <time>2020-06-10T10:10:54Z</time>
      </trkpt>
      <trkpt lat="48.5907" lon="-4.0637">
        <ele>84.2</ele>
        <time>2020-06-10T10:10:55Z</time>
      </trkpt>
      <trkpt lat="48.59067" lon="-4.06365">
        <ele>84.3</ele>
        <time>2020-06-10T10:10:56Z</time>
      </trkpt>
      <trkpt lat="48.59064" lon="-4.06358">
        <ele>84.5</ele>
        <time>2020-06-10T10:10:57Z</time>
      </trkpt>
      <trkpt lat="48.59062" lon="-4.06352">
        <ele>84.7</ele>
        <time>2020-06-10T10:10:58Z</time>
      </trkpt>
      <trkpt lat="48.5906" lon="-4.06349">
        <ele>84.8</ele>
        <time>2020-06-10T10:10:59Z</time>
      </trkpt>
      <trkpt lat="48.59058" lon="-4.06342">
        <ele>84.9</ele>
        <time>2020-06-10T10:11:00Z</time>
      </trkpt>
      <trkpt lat="48.59055" lon="-4.06338">
        <ele>85</ele>
        <time>2020-06-10T10:11:01Z</time>
      </trkpt>
      <trkpt lat="48.59053" lon="-4.06332">
        <ele>85.1</ele>
        <time>2020-06-10T10:11:02Z</time>
      </trkpt>
      <trkpt lat="48.5905" lon="-4.06325">
        <ele>85.2</ele>
        <time>2020-06-10T10:11:03Z</time>
      </trkpt>
      <trkpt lat="48.59049" lon="-4.06322">
        <ele>85.3</ele>
        <time>2020-06-10T10:11:04Z</time>
      </trkpt>
      <trkpt lat="48.59048" lon="-4.06316">
        <ele>85.4</ele>
        <time>2020-06-10T10:11:05Z</time>
      </trkpt>
      <trkpt lat="48.59046" lon="-4.06311">
        <ele>85.5</ele>
        <time>2020-06-10T10:11:06Z</time>
      </trkpt>
      <trkpt lat="48.59045" lon="-4.06307">
        <ele>85.5</ele>
        <time>2020-06-10T10:11:07Z</time>
      </trkpt>
      <trkpt lat="48.59042" lon="-4.06301">
        <ele>85.6</ele>
        <time>2020-06-10T10:11:08Z</time>
      </trkpt>
      <trkpt lat="48.5904" lon="-4.06295">
        <ele>85.7</ele>
        <time>2020-06-10T10:11:09Z</time>
      </trkpt>
      <trkpt lat="48.59039" lon="-4.06293">
        <ele>85.8</ele>
        <time>2020-06-10T10:11:10Z</time>
      </trkpt>
      <trkpt lat="48.59038" lon="-4.06287">
        <ele>85.9</ele>
        <time>2020-06-10T10:11:11Z</time>
      </trkpt>
      <trkpt lat="48.59036" lon="-4.06281">
        <ele>86</ele>
        <time>2020-06-10T10:11:12Z</time>
      </trkpt>
      <trkpt lat="48.59034" lon="-4.06272">
        <ele>86.2</ele>
        <time>2020-06-10T10:11:13Z</time>
      </trkpt>
      <trkpt lat="48.59031" lon="-4.06265">
        <ele>86.3</ele>
        <time>2020-06-10T10:11:14Z</time>
      </trkpt>
      <trkpt lat="48.5903" lon="-4.0626">
        <ele>86.4</ele>
        <time>2020-06-10T10:11:15Z</time>
      </trkpt>
      <trkpt lat="48.59028" lon="-4.06255">
        <ele>86.5</ele>
        <time>2020-06-10T10:11:16Z</time>
      </trkpt>
      <trkpt lat="48.59026" lon="-4.06248">
        <ele>86.7</ele>
        <time>2020-06-10T10:11:17Z</time>
      </trkpt>
      <trkpt lat="48.59025" lon="-4.06242">
        <ele>86.9</ele>
        <time>2020-06-10T10:11:18Z</time>
      </trkpt>
      <trkpt lat="48.59023" lon="-4.06237">
        <ele>87.1</ele>
        <time>2020-06-10T10:11:19Z</time>
      </trkpt>
      <trkpt lat="48.59021" lon="-4.06229">
        <ele>87.2</ele>
        <time>2020-06-10T10:11:20Z</time>
      </trkpt>
      <trkpt lat="48.59019" lon="-4.06221">
        <ele>87.4</ele>
        <time>2020-06-10T10:11:21Z</time>
      </trkpt>
      <trkpt lat="48.59017" lon="-4.06215">
        <ele>87.6</ele>
        <time>2020-06-10T10:11:22Z</time>
      </trkpt>
      <trkpt lat="48.59014" lon="-4.06208">
        <ele>87.8</ele>
        <time>2020-06-10T10:11:23Z</time>
      </trkpt>
      <trkpt lat="48.59012" lon="-4.06202">
        <ele>87.9</ele>
        <time>2020-06-10T10:11:24Z</time>
      </trkpt>
      <trkpt lat="48.5901" lon="-4.06197">
        <ele>88</ele>
        <time>2020-06-10T10:11:25Z</time>
      </trkpt>
      <trkpt lat="48.59008" lon="-4.06191">
        <ele>88.1</ele>
        <time>2020-06-10T10:11:26Z</time>
      </trkpt>
      <trkpt lat="48.59006" lon="-4.06186">
        <ele>88.3</ele>
        <time>2020-06-10T10:11:27Z</time>
      </trkpt>
      <trkpt lat="48.59004" lon="-4.0618">
        <ele>88.4</ele>
        <time>2020-06-10T10:11:28Z</time>
      </trkpt>
      <trkpt lat="48.59001" lon="-4.06174">
        <ele>88.5</ele>
        <time>2020-06-10T10:11:29Z</time>
      </trkpt>
      <trkpt lat="48.58999" lon="-4.06165">
        <ele>88.7</ele>
        <time>2020-06-10T10:11:30Z</time>
      </trkpt>
      <trkpt lat="48.58999" lon="-4.06161">
        <ele>88.9</ele>
        <time>2020-06-10T10:11:31Z</time>
      </trkpt>
      <trkpt lat="48.58997" lon="-4.06154">
        <ele>89</ele>
        <time>2020-06-10T10:11:32Z</time>
      </trkpt>
      <trkpt lat="48.58995" lon="-4.06148">
        <ele>89.2</ele>
        <time>2020-06-10T10:11:33Z</time>
      </trkpt>
      <trkpt lat="48.58994" lon="-4.06143">
        <ele>89.4</ele>
        <time>2020-06-10T10:11:34Z</time>
      </trkpt>
      <trkpt lat="48.58993" lon="-4.06137">
        <ele>89.5</ele>
        <time>2020-06-10T10:11:35Z</time>
      </trkpt>
      <trkpt lat="48.58991" lon="-4.06131">
        <ele>89.7</ele>
        <time>2020-06-10T10:11:36Z</time>
      </trkpt>
      <trkpt lat="48.58989" lon="-4.06126">
        <ele>89.9</ele>
        <time>2020-06-10T10:11:37Z</time>
      </trkpt>
      <trkpt lat="48.58988" lon="-4.06119">
        <ele>90.1</ele>
        <time>2020-06-10T10:11:38Z</time>
      </trkpt>
      <trkpt lat="48.58986" lon="-4.06114">
        <ele>90.3</ele>
        <time>2020-06-10T10:11:39Z</time>
      </trkpt>
      <trkpt lat="48.58985" lon="-4.06108">
        <ele>90.4</ele>
        <time>2020-06-10T10:11:40Z</time>
      </trkpt>
      <trkpt lat="48.58982" lon="-4.06104">
        <ele>90.6</ele>
        <time>2020-06-10T10:11:41Z</time>
      </trkpt>
      <trkpt lat="48.5898" lon="-4.06101">
        <ele>90.7</ele>
        <time>2020-06-10T10:11:42Z</time>
      </trkpt>
      <trkpt lat="48.58978" lon="-4.06094">
        <ele>90.9</ele>
        <time>2020-06-10T10:11:43Z</time>
      </trkpt>
      <trkpt lat="48.58977" lon="-4.06089">
        <ele>91.1</ele>
        <time>2020-06-10T10:11:44Z</time>
      </trkpt>
      <trkpt lat="48.58975" lon="-4.06081">
        <ele>91.3</ele>
        <time>2020-06-10T10:11:45Z</time>
      </trkpt>
      <trkpt lat="48.58974" lon="-4.06075">
        <ele>91.5</ele>
        <time>2020-06-10T10:11:46Z</time>
      </trkpt>
      <trkpt lat="48.58972" lon="-4.06068">
        <ele>91.7</ele>
        <time>2020-06-10T10:11:47Z</time>
      </trkpt>
      <trkpt lat="48.58971" lon="-4.06063">
        <ele>91.9</ele>
        <time>2020-06-10T10:11:48Z</time>
      </trkpt>
      <trkpt lat="48.5897" lon="-4.06057">
        <ele>92</ele>
        <time>2020-06-10T10:11:49Z</time>
      </trkpt>
      <trkpt lat="48.58968" lon="-4.0605">
        <ele>92.2</ele>
        <time>2020-06-10T10:11:50Z</time>
      </trkpt>
      <trkpt lat="48.58966" lon="-4.06045">
        <ele>92.4</ele>
        <time>2020-06-10T10:11:51Z</time>
      </trkpt>
      <trkpt lat="48.58965" lon="-4.0604">
        <ele>92.5</ele>
        <time>2020-06-10T10:11:52Z</time>
      </trkpt>
      <trkpt lat="48.58963" lon="-4.06035">
        <ele>92.7</ele>
        <time>2020-06-10T10:11:53Z</time>
      </trkpt>
      <trkpt lat="48.58962" lon="-4.06028">
        <ele>92.9</ele>
        <time>2020-06-10T10:11:54Z</time>
      </trkpt>
      <trkpt lat="48.5896" lon="-4.06022">
        <ele>93</ele>
        <time>2020-06-10T10:11:55Z</time>
      </trkpt>
      <trkpt lat="48.58958" lon="-4.06014">
        <ele>93.3</ele>
        <time>2020-06-10T10:11:56Z</time>
      </trkpt>
      <trkpt lat="48.58956" lon="-4.0601">
        <ele>93.4</ele>
        <time>2020-06-10T10:11:57Z</time>
      </trkpt>
      <trkpt lat="48.58954" lon="-4.06002">
        <ele>93.6</ele>
        <time>2020-06-10T10:11:58Z</time>
      </trkpt>
      <trkpt lat="48.58952" lon="-4.05998">
        <ele>93.7</ele>
        <time>2020-06-10T10:11:59Z</time>
      </trkpt>
      <trkpt lat="48.58951" lon="-4.05993">
        <ele>93.8</ele>
        <time>2020-06-10T10:12:00Z</time>
      </trkpt>
      <trkpt lat="48.58948" lon="-4.05987">
        <ele>94</ele>
        <time>2020-06-10T10:12:01Z</time>
      </trkpt>
      <trkpt lat="48.58946" lon="-4.05981">
        <ele>94.2</ele>
        <time>2020-06-10T10:12:02Z</time>
      </trkpt>
      <trkpt lat="48.58944" lon="-4.05973">
        <ele>94.4</ele>
        <time>2020-06-10T10:12:03Z</time>
      </trkpt>
      <trkpt lat="48.58942" lon="-4.05966">
        <ele>94.6</ele>
        <time>2020-06-10T10:12:04Z</time>
      </trkpt>
      <trkpt lat="48.5894" lon="-4.05959">
        <ele>94.8</ele>
        <time>2020-06-10T10:12:05Z</time>
      </trkpt>
      <trkpt lat="48.58938" lon="-4.05952">
        <ele>95</ele>
        <time>2020-06-10T10:12:06Z</time>
      </trkpt>
      <trkpt lat="48.58936" lon="-4.05945">
        <ele>95.2</ele>
        <time>2020-06-10T10:12:07Z</time>
      </trkpt>
      <trkpt lat="48.58935" lon="-4.0594">
        <ele>95.3</ele>
        <time>2020-06-10T10:12:08Z</time>
      </trkpt>
      <trkpt lat="48.58933" lon="-4.05935">
        <ele>95.4</ele>
        <time>2020-06-10T10:12:09Z</time>
      </trkpt>
      <trkpt lat="48.58932" lon="-4.0593">
        <ele>95.6</ele>
        <time>2020-06-10T10:12:10Z</time>
      </trkpt>
      <trkpt lat="48.5893" lon="-4.05925">
        <ele>95.7</ele>
        <time>2020-06-10T10:12:11Z</time>
      </trkpt>
      <trkpt lat="48.58928" lon="-4.05917">
        <ele>95.9</ele>
        <time>2020-06-10T10:12:12Z</time>
      </trkpt>
      <trkpt lat="48.58927" lon="-4.05911">
        <ele>96.1</ele>
        <time>2020-06-10T10:12:13Z</time>
      </trkpt>
      <trkpt lat="48.58925" lon="-4.05904">
        <ele>96.3</ele>
        <time>2020-06-10T10:12:14Z</time>
      </trkpt>
      <trkpt lat="48.58923" lon="-4.05899">
        <ele>96.5</ele>
        <time>2020-06-10T10:12:15Z</time>
      </trkpt>
      <trkpt lat="48.58922" lon="-4.05895">
        <ele>96.6</ele>
        <time>2020-06-10T10:12:16Z</time>
      </trkpt>
      <trkpt lat="48.5892" lon="-4.05889">
        <ele>96.8</ele>
        <time>2020-06-10T10:12:17Z</time>
      </trkpt>
      <trkpt lat="48.58918" lon="-4.05885">
        <ele>96.9</ele>
        <time>2020-06-10T10:12:18Z</time>
      </trkpt>
      <trkpt lat="48.58915" lon="-4.05879">
        <ele>97.1</ele>
        <time>2020-06-10T10:12:19Z</time>
      </trkpt>
      <trkpt lat="48.58913" lon="-4.05873">
        <ele>97.3</ele>
        <time>2020-06-10T10:12:20Z</time>
      </trkpt>
      <trkpt lat="48.58911" lon="-4.05867">
        <ele>97.4</ele>
        <time>2020-06-10T10:12:21Z</time>
      </trkpt>
      <trkpt lat="48.5891" lon="-4.05862">
        <ele>97.5</ele>
        <time>2020-06-10T10:12:22Z</time>
      </trkpt>
      <trkpt lat="48.58907" lon="-4.05857">
        <ele>97.7</ele>
        <time>2020-06-10T10:12:23Z</time>
      </trkpt>
      <trkpt lat="48.58905" lon="-4.05851">
        <ele>97.8</ele>
        <time>2020-06-10T10:12:24Z</time>
      </trkpt>
      <trkpt lat="48.58903" lon="-4.05843">
        <ele>98</ele>
        <time>2020-06-10T10:12:25Z</time>
      </trkpt>
      <trkpt lat="48.58901" lon="-4.05838">
        <ele>98.1</ele>
        <time>2020-06-10T10:12:26Z</time>
      </trkpt>
      <trkpt lat="48.58899" lon="-4.0583">
        <ele>98.3</ele>
        <time>2020-06-10T10:12:27Z</time>
      </trkpt>
      <trkpt lat="48.58897" lon="-4.05826">
        <ele>98.4</ele>
        <time>2020-06-10T10:12:28Z</time>
      </trkpt>
      <trkpt lat="48.58895" lon="-4.05821">
        <ele>98.4</ele>
        <time>2020-06-10T10:12:29Z</time>
      </trkpt>
      <trkpt lat="48.58892" lon="-4.05814">
        <ele>98.6</ele>
        <time>2020-06-10T10:12:30Z</time>
      </trkpt>
      <trkpt lat="48.5889" lon="-4.05806">
        <ele>98.7</ele>
        <time>2020-06-10T10:12:31Z</time>
      </trkpt>
      <trkpt lat="48.58887" lon="-4.05799">
        <ele>98.9</ele>
        <time>2020-06-10T10:12:32Z</time>
      </trkpt>
      <trkpt lat="48.58885" lon="-4.05793">
        <ele>99</ele>
        <time>2020-06-10T10:12:33Z</time>
      </trkpt>
      <trkpt lat="48.58883" lon="-4.05787">
        <ele>99.2</ele>
        <time>2020-06-10T10:12:34Z</time>
      </trkpt>
      <trkpt lat="48.58881" lon="-4.05782">
        <ele>99.3</ele>
        <time>2020-06-10T10:12:35Z</time>
      </trkpt>
      <trkpt lat="48.58879" lon="-4.05776">
        <ele>99.5</ele>
        <time>2020-06-10T10:12:36Z</time>
      </trkpt>
      <trkpt lat="48.58876" lon="-4.05768">
        <ele>99.6</ele>
        <time>2020-06-10T10:12:37Z</time>
      </trkpt>
      <trkpt lat="48.58874" lon="-4.05762">
        <ele>99.7</ele>
        <time>2020-06-10T10:12:38Z</time>
      </trkpt>
      <trkpt lat="48.58872" lon="-4.05758">
        <ele>99.8</ele>
        <time>2020-06-10T10:12:39Z</time>
      </trkpt>
      <trkpt lat="48.5887" lon="-4.05751">
        <ele>100</ele>
        <time>2020-06-10T10:12:40Z</time>
      </trkpt>
      <trkpt lat="48.58867" lon="-4.05745">
        <ele>100.1</ele>
        <time>2020-06-10T10:12:41Z</time>
      </trkpt>
      <trkpt lat="48.58866" lon="-4.0574">
        <ele>100.2</ele>
        <time>2020-06-10T10:12:42Z</time>
      </trkpt>
      <trkpt lat="48.58865" lon="-4.05734">
        <ele>100.3</ele>
        <time>2020-06-10T10:12:43Z</time>
      </trkpt>
      <trkpt lat="48.58863" lon="-4.05728">
        <ele>100.4</ele>
        <time>2020-06-10T10:12:44Z</time>
      </trkpt>
      <trkpt lat="48.58861" lon="-4.05722">
        <ele>100.5</ele>
        <time>2020-06-10T10:12:45Z</time>
      </trkpt>
      <trkpt lat="48.5886" lon="-4.05715">
        <ele>100.6</ele>
        <time>2020-06-10T10:12:46Z</time>
      </trkpt>
      <trkpt lat="48.58857" lon="-4.05708">
        <ele>100.8</ele>
        <time>2020-06-10T10:12:47Z</time>
      </trkpt>
      <trkpt lat="48.58855" lon="-4.057">
        <ele>100.9</ele>
        <time>2020-06-10T10:12:48Z</time>
      </trkpt>
      <trkpt lat="48.58853" lon="-4.05693">
        <ele>101</ele>
        <time>2020-06-10T10:12:49Z</time>
      </trkpt>
      <trkpt lat="48.5885" lon="-4.05686">
        <ele>101.1</ele>
        <time>2020-06-10T10:12:50Z</time>
      </trkpt>
      <trkpt lat="48.58848" lon="-4.0568">
        <ele>101.2</ele>
        <time>2020-06-10T10:12:51Z</time>
      </trkpt>
      <trkpt lat="48.58846" lon="-4.05674">
        <ele>101.3</ele>
        <time>2020-06-10T10:12:52Z</time>
      </trkpt>
      <trkpt lat="48.58843" lon="-4.05666">
        <ele>101.4</ele>
        <time>2020-06-10T10:12:53Z</time>
      </trkpt>
      <trkpt lat="48.5884" lon="-4.05659">
        <ele>101.5</ele>
        <time>2020-06-10T10:12:54Z</time>
      </trkpt>
      <trkpt lat="48.58838" lon="-4.05653">
        <ele>101.5</ele>
        <time>2020-06-10T10:12:55Z</time>
      </trkpt>
      <trkpt lat="48.58836" lon="-4.05648">
        <ele>101.6</ele>
        <time>2020-06-10T10:12:56Z</time>
      </trkpt>
      <trkpt lat="48.58834" lon="-4.05643">
        <ele>101.6</ele>
        <time>2020-06-10T10:12:57Z</time>
      </trkpt>
      <trkpt lat="48.58832" lon="-4.05638">
        <ele>101.7</ele>
        <time>2020-06-10T10:12:58Z</time>
      </trkpt>
      <trkpt lat="48.5883" lon="-4.05633">
        <ele>101.8</ele>
        <time>2020-06-10T10:12:59Z</time>
      </trkpt>
      <trkpt lat="48.58829" lon="-4.05628">
        <ele>101.9</ele>
        <time>2020-06-10T10:13:00Z</time>
      </trkpt>
      <trkpt lat="48.58827" lon="-4.05623">
        <ele>101.9</ele>
        <time>2020-06-10T10:13:01Z</time>
      </trkpt>
      <trkpt lat="48.58826" lon="-4.05622">
        <ele>102</ele>
        <time>2020-06-10T10:13:02Z</time>
      </trkpt>
      <trkpt lat="48.58825" lon="-4.05617">
        <ele>102.1</ele>
        <time>2020-06-10T10:13:03Z</time>
      </trkpt>
      <trkpt lat="48.58824" lon="-4.05616">
        <ele>102.1</ele>
        <time>2020-06-10T10:13:04Z</time>
      </trkpt>
      <trkpt lat="48.58823" lon="-4.05611">
        <ele>102.2</ele>
        <time>2020-06-10T10:13:05Z</time>
      </trkpt>
      <trkpt lat="48.58823" lon="-4.0561">
        <ele>102.2</ele>
        <time>2020-06-10T10:13:06Z</time>
      </trkpt>
      <trkpt lat="48.5882" lon="-4.05607">
        <ele>102.3</ele>
        <time>2020-06-10T10:13:07Z</time>
      </trkpt>
      <trkpt lat="48.58819" lon="-4.05606">
        <ele>102.3</ele>
        <time>2020-06-10T10:13:08Z</time>
      </trkpt>
      <trkpt lat="48.58817" lon="-4.05604">
        <ele>102.4</ele>
        <time>2020-06-10T10:13:09Z</time>
      </trkpt>
      <trkpt lat="48.58816" lon="-4.05603">
        <ele>102.4</ele>
        <time>2020-06-10T10:13:10Z</time>
      </trkpt>
      <trkpt lat="48.58815" lon="-4.056">
        <ele>102.5</ele>
        <time>2020-06-10T10:13:11Z</time>
      </trkpt>
      <trkpt lat="48.58815" lon="-4.05599">
        <ele>102.5</ele>
        <time>2020-06-10T10:13:12Z</time>
      </trkpt>
      <trkpt lat="48.58815" lon="-4.05598">
        <ele>102.6</ele>
        <time>2020-06-10T10:13:13Z</time>
      </trkpt>
      <trkpt lat="48.58814" lon="-4.05597">
        <ele>102.6</ele>
        <time>2020-06-10T10:13:14Z</time>
      </trkpt>
      <trkpt lat="48.58814" lon="-4.05596">
        <ele>102.6</ele>
        <time>2020-06-10T10:13:15Z</time>
      </trkpt>
      <trkpt lat="48.58814" lon="-4.05595">
        <ele>102.6</ele>
        <time>2020-06-10T10:13:16Z</time>
      </trkpt>
      <trkpt lat="48.58814" lon="-4.05594">
        <ele>102.6</ele>
        <time>2020-06-10T10:13:17Z</time>
      </trkpt>
      <trkpt lat="48.58813" lon="-4.05593">
        <ele>102.6</ele>
        <time>2020-06-10T10:13:18Z</time>
      </trkpt>
      <trkpt lat="48.58813" lon="-4.05592">
        <ele>102.6</ele>
        <time>2020-06-10T10:13:19Z</time>
      </trkpt>
      <trkpt lat="48.58813" lon="-4.05591">
        <ele>102.6</ele>
        <time>2020-06-10T10:13:20Z</time>
      </trkpt>
      <trkpt lat="48.58813" lon="-4.0559">
        <ele>102.6</ele>
        <time>2020-06-10T10:13:21Z</time>
      </trkpt>
      <trkpt lat="48.58813" lon="-4.05589">
        <ele>102.6</ele>
        <time>2020-06-10T10:13:22Z</time>
      </trkpt>
      <trkpt lat="48.58812" lon="-4.05588">
        <ele>102.6</ele>
        <time>2020-06-10T10:13:23Z</time>
      </trkpt>
      <trkpt lat="48.58812" lon="-4.05587">
        <ele>102.6</ele>
        <time>2020-06-10T10:13:24Z</time>
      </trkpt>
      <trkpt lat="48.58812" lon="-4.05586">
        <ele>102.6</ele>
        <time>2020-06-10T10:17:10Z</time>
      </trkpt>
      <trkpt lat="48.58812" lon="-4.05585">
        <ele>102.6</ele>
        <time>2020-06-10T10:17:11Z</time>
      </trkpt>
      <trkpt lat="48.5881" lon="-4.05582">
        <ele>102.6</ele>
        <time>2020-06-10T10:17:12Z</time>
      </trkpt>
      <trkpt lat="48.58809" lon="-4.05577">
        <ele>102.6</ele>
        <time>2020-06-10T10:17:13Z</time>
      </trkpt>
      <trkpt lat="48.58808" lon="-4.05573">
        <ele>102.6</ele>
        <time>2020-06-10T10:17:14Z</time>
      </trkpt>
      <trkpt lat="48.58807" lon="-4.05569">
        <ele>102.6</ele>
        <time>2020-06-10T10:17:15Z</time>
      </trkpt>
      <trkpt lat="48.58805" lon="-4.05565">
        <ele>102.6</ele>
        <time>2020-06-10T10:17:16Z</time>
      </trkpt>
      <trkpt lat="48.58804" lon="-4.05561">
        <ele>102.6</ele>
        <time>2020-06-10T10:17:17Z</time>
      </trkpt>
      <trkpt lat="48.58801" lon="-4.05557">
        <ele>102.6</ele>
        <time>2020-06-10T10:17:18Z</time>
      </trkpt>
      <trkpt lat="48.58799" lon="-4.05553">
        <ele>102.6</ele>
        <time>2020-06-10T10:17:19Z</time>
      </trkpt>
      <trkpt lat="48.58797" lon="-4.05548">
        <ele>102.6</ele>
        <time>2020-06-10T10:17:20Z</time>
      </trkpt>
      <trkpt lat="48.58796" lon="-4.05543">
        <ele>102.6</ele>
        <time>2020-06-10T10:17:21Z</time>
      </trkpt>
      <trkpt lat="48.58794" lon="-4.05537">
        <ele>102.7</ele>
        <time>2020-06-10T10:17:22Z</time>
      </trkpt>
      <trkpt lat="48.58792" lon="-4.05532">
        <ele>102.7</ele>
        <time>2020-06-10T10:17:23Z</time>
      </trkpt>
      <trkpt lat="48.58791" lon="-4.05527">
        <ele>102.7</ele>
        <time>2020-06-10T10:17:24Z</time>
      </trkpt>
      <trkpt lat="48.58789" lon="-4.05522">
        <ele>102.7</ele>
        <time>2020-06-10T10:17:25Z</time>
      </trkpt>
      <trkpt lat="48.58787" lon="-4.05517">
        <ele>102.7</ele>
        <time>2020-06-10T10:17:26Z</time>
      </trkpt>
      <trkpt lat="48.58786" lon="-4.05512">
        <ele>102.8</ele>
        <time>2020-06-10T10:17:27Z</time>
      </trkpt>
      <trkpt lat="48.58784" lon="-4.05506">
        <ele>102.8</ele>
        <time>2020-06-10T10:17:28Z</time>
      </trkpt>
      <trkpt lat="48.58782" lon="-4.05501">
        <ele>102.8</ele>
        <time>2020-06-10T10:17:29Z</time>
      </trkpt>
      <trkpt lat="48.58779" lon="-4.05495">
        <ele>102.9</ele>
        <time>2020-06-10T10:17:30Z</time>
      </trkpt>
      <trkpt lat="48.58777" lon="-4.05489">
        <ele>102.9</ele>
        <time>2020-06-10T10:17:31Z</time>
      </trkpt>
      <trkpt lat="48.58777" lon="-4.05482">
        <ele>102.9</ele>
        <time>2020-06-10T10:17:32Z</time>
      </trkpt>
      <trkpt lat="48.58775" lon="-4.05477">
        <ele>102.9</ele>
        <time>2020-06-10T10:17:33Z</time>
      </trkpt>
      <trkpt lat="48.58773" lon="-4.05471">
        <ele>102.9</ele>
        <time>2020-06-10T10:17:34Z</time>
      </trkpt>
      <trkpt lat="48.58771" lon="-4.05467">
        <ele>102.9</ele>
        <time>2020-06-10T10:17:35Z</time>
      </trkpt>
      <trkpt lat="48.58768" lon="-4.05462">
        <ele>102.9</ele>
        <time>2020-06-10T10:17:36Z</time>
      </trkpt>
      <trkpt lat="48.58766" lon="-4.05456">
        <ele>102.9</ele>
        <time>2020-06-10T10:17:37Z</time>
      </trkpt>
      <trkpt lat="48.58764" lon="-4.05449">
        <ele>102.9</ele>
        <time>2020-06-10T10:17:38Z</time>
      </trkpt>
      <trkpt lat="48.58762" lon="-4.05443">
        <ele>102.9</ele>
        <time>2020-06-10T10:17:39Z</time>
      </trkpt>
      <trkpt lat="48.5876" lon="-4.05436">
        <ele>102.9</ele>
        <time>2020-06-10T10:17:40Z</time>
      </trkpt>
      <trkpt lat="48.58757" lon="-4.0543">
        <ele>102.9</ele>
        <time>2020-06-10T10:17:41Z</time>
      </trkpt>
      <trkpt lat="48.58754" lon="-4.05423">
        <ele>102.9</ele>
        <time>2020-06-10T10:17:42Z</time>
      </trkpt>
      <trkpt lat="48.58752" lon="-4.05418">
        <ele>102.9</ele>
        <time>2020-06-10T10:17:43Z</time>
      </trkpt>
      <trkpt lat="48.5875" lon="-4.05412">
        <ele>102.9</ele>
        <time>2020-06-10T10:17:44Z</time>
      </trkpt>
      <trkpt lat="48.58749" lon="-4.05405">
        <ele>102.9</ele>
        <time>2020-06-10T10:17:45Z</time>
      </trkpt>
      <trkpt lat="48.58747" lon="-4.054">
        <ele>102.9</ele>
        <time>2020-06-10T10:17:46Z</time>
      </trkpt>
      <trkpt lat="48.58745" lon="-4.05395">
        <ele>102.9</ele>
        <time>2020-06-10T10:17:47Z</time>
      </trkpt>
      <trkpt lat="48.58743" lon="-4.0539">
        <ele>102.9</ele>
        <time>2020-06-10T10:17:48Z</time>
      </trkpt>
      <trkpt lat="48.58741" lon="-4.05384">
        <ele>102.9</ele>
        <time>2020-06-10T10:17:49Z</time>
      </trkpt>
      <trkpt lat="48.5874" lon="-4.05379">
        <ele>102.9</ele>
        <time>2020-06-10T10:17:50Z</time>
      </trkpt>
      <trkpt lat="48.58738" lon="-4.05373">
        <ele>102.9</ele>
        <time>2020-06-10T10:17:51Z</time>
      </trkpt>
      <trkpt lat="48.58737" lon="-4.05367">
        <ele>102.9</ele>
        <time>2020-06-10T10:17:52Z</time>
      </trkpt>
      <trkpt lat="48.58735" lon="-4.0536">
        <ele>102.9</ele>
        <time>2020-06-10T10:17:53Z</time>
      </trkpt>
      <trkpt lat="48.58734" lon="-4.05353">
        <ele>102.9</ele>
        <time>2020-06-10T10:17:54Z</time>
      </trkpt>
      <trkpt lat="48.58732" lon="-4.05347">
        <ele>102.8</ele>
        <time>2020-06-10T10:17:55Z</time>
      </trkpt>
      <trkpt lat="48.5873" lon="-4.05342">
        <ele>102.8</ele>
        <time>2020-06-10T10:17:56Z</time>
      </trkpt>
      <trkpt lat="48.58728" lon="-4.05337">
        <ele>102.8</ele>
        <time>2020-06-10T10:17:57Z</time>
      </trkpt>
      <trkpt lat="48.58726" lon="-4.05331">
        <ele>102.8</ele>
        <time>2020-06-10T10:17:58Z</time>
      </trkpt>
      <trkpt lat="48.58725" lon="-4.05324">
        <ele>102.8</ele>
        <time>2020-06-10T10:17:59Z</time>
      </trkpt>
      <trkpt lat="48.58723" lon="-4.05317">
        <ele>102.8</ele>
        <time>2020-06-10T10:18:00Z</time>
      </trkpt>
      <trkpt lat="48.5872" lon="-4.05311">
        <ele>102.8</ele>
        <time>2020-06-10T10:18:01Z</time>
      </trkpt>
      <trkpt lat="48.58718" lon="-4.05304">
        <ele>102.8</ele>
        <time>2020-06-10T10:18:02Z</time>
      </trkpt>
      <trkpt lat="48.58716" lon="-4.05297">
        <ele>102.8</ele>
        <time>2020-06-10T10:18:03Z</time>
      </trkpt>
      <trkpt lat="48.58714" lon="-4.05291">
        <ele>102.8</ele>
        <time>2020-06-10T10:18:04Z</time>
      </trkpt>
      <trkpt lat="48.58712" lon="-4.05286">
        <ele>102.8</ele>
        <time>2020-06-10T10:18:05Z</time>
      </trkpt>
      <trkpt lat="48.5871" lon="-4.0528">
        <ele>102.7</ele>
        <time>2020-06-10T10:18:06Z</time>
      </trkpt>
      <trkpt lat="48.58708" lon="-4.05273">
        <ele>102.7</ele>
        <time>2020-06-10T10:18:07Z</time>
      </trkpt>
      <trkpt lat="48.58706" lon="-4.05267">
        <ele>102.7</ele>
        <time>2020-06-10T10:18:08Z</time>
      </trkpt>
      <trkpt lat="48.58704" lon="-4.05261">
        <ele>102.7</ele>
        <time>2020-06-10T10:18:09Z</time>
      </trkpt>
      <trkpt lat="48.58702" lon="-4.05255">
        <ele>102.6</ele>
        <time>2020-06-10T10:18:10Z</time>
      </trkpt>
      <trkpt lat="48.58701" lon="-4.05248">
        <ele>102.6</ele>
        <time>2020-06-10T10:18:11Z</time>
      </trkpt>
      <trkpt lat="48.58699" lon="-4.05243">
        <ele>102.6</ele>
        <time>2020-06-10T10:18:12Z</time>
      </trkpt>
      <trkpt lat="48.58697" lon="-4.05236">
        <ele>102.6</ele>
        <time>2020-06-10T10:18:13Z</time>
      </trkpt>
      <trkpt lat="48.58696" lon="-4.05231">
        <ele>102.6</ele>
        <time>2020-06-10T10:18:14Z</time>
      </trkpt>
      <trkpt lat="48.58695" lon="-4.05225">
        <ele>102.7</ele>
        <time>2020-06-10T10:18:15Z</time>
      </trkpt>
      <trkpt lat="48.58694" lon="-4.0522">
        <ele>102.7</ele>
        <time>2020-06-10T10:18:16Z</time>
      </trkpt>
      <trkpt lat="48.58692" lon="-4.05215">
        <ele>102.7</ele>
        <time>2020-06-10T10:18:17Z</time>
      </trkpt>
      <trkpt lat="48.5869" lon="-4.0521">
        <ele>102.7</ele>
        <time>2020-06-10T10:18:18Z</time>
      </trkpt>
      <trkpt lat="48.58689" lon="-4.05204">
        <ele>102.7</ele>
        <time>2020-06-10T10:18:19Z</time>
      </trkpt>
      <trkpt lat="48.58687" lon="-4.05199">
        <ele>102.7</ele>
        <time>2020-06-10T10:18:20Z</time>
      </trkpt>
      <trkpt lat="48.58686" lon="-4.05195">
        <ele>102.7</ele>
        <time>2020-06-10T10:18:21Z</time>
      </trkpt>
      <trkpt lat="48.58685" lon="-4.05189">
        <ele>102.7</ele>
        <time>2020-06-10T10:18:22Z</time>
      </trkpt>
      <trkpt lat="48.58683" lon="-4.05184">
        <ele>102.7</ele>
        <time>2020-06-10T10:18:23Z</time>
      </trkpt>
      <trkpt lat="48.58682" lon="-4.05179">
        <ele>102.6</ele>
        <time>2020-06-10T10:18:24Z</time>
      </trkpt>
      <trkpt lat="48.58681" lon="-4.05173">
        <ele>102.6</ele>
        <time>2020-06-10T10:18:25Z</time>
      </trkpt>
      <trkpt lat="48.5868" lon="-4.05168">
        <ele>102.6</ele>
        <time>2020-06-10T10:18:26Z</time>
      </trkpt>
      <trkpt lat="48.58679" lon="-4.05162">
        <ele>102.6</ele>
        <time>2020-06-10T10:18:27Z</time>
      </trkpt>
      <trkpt lat="48.58678" lon="-4.05157">
        <ele>102.5</ele>
        <time>2020-06-10T10:18:28Z</time>
      </trkpt>
      <trkpt lat="48.58677" lon="-4.05151">
        <ele>102.5</ele>
        <time>2020-06-10T10:18:29Z</time>
      </trkpt>
      <trkpt lat="48.58676" lon="-4.05147">
        <ele>102.5</ele>
        <time>2020-06-10T10:18:30Z</time>
      </trkpt>
      <trkpt lat="48.58675" lon="-4.05143">
        <ele>102.4</ele>
        <time>2020-06-10T10:18:31Z</time>
      </trkpt>
      <trkpt lat="48.58674" lon="-4.05138">
        <ele>102.4</ele>
        <time>2020-06-10T10:18:32Z</time>
      </trkpt>
      <trkpt lat="48.58673" lon="-4.05133">
        <ele>102.3</ele>
        <time>2020-06-10T10:18:33Z</time>
      </trkpt>
      <trkpt lat="48.58671" lon="-4.05127">
        <ele>102.3</ele>
        <time>2020-06-10T10:18:34Z</time>
      </trkpt>
      <trkpt lat="48.5867" lon="-4.05121">
        <ele>102.2</ele>
        <time>2020-06-10T10:18:35Z</time>
      </trkpt>
      <trkpt lat="48.58669" lon="-4.05117">
        <ele>102.2</ele>
        <time>2020-06-10T10:18:36Z</time>
      </trkpt>
      <trkpt lat="48.58668" lon="-4.05111">
        <ele>102.1</ele>
        <time>2020-06-10T10:18:37Z</time>
      </trkpt>
      <trkpt lat="48.58667" lon="-4.05106">
        <ele>102</ele>
        <time>2020-06-10T10:18:38Z</time>
      </trkpt>
      <trkpt lat="48.58664" lon="-4.051">
        <ele>102</ele>
        <time>2020-06-10T10:18:39Z</time>
      </trkpt>
      <trkpt lat="48.58662" lon="-4.05094">
        <ele>101.9</ele>
        <time>2020-06-10T10:18:40Z</time>
      </trkpt>
      <trkpt lat="48.58661" lon="-4.05087">
        <ele>101.8</ele>
        <time>2020-06-10T10:18:41Z</time>
      </trkpt>
      <trkpt lat="48.58659" lon="-4.05082">
        <ele>101.7</ele>
        <time>2020-06-10T10:18:42Z</time>
      </trkpt>
      <trkpt lat="48.58656" lon="-4.05077">
        <ele>101.6</ele>
        <time>2020-06-10T10:18:43Z</time>
      </trkpt>
      <trkpt lat="48.58653" lon="-4.0507">
        <ele>101.5</ele>
        <time>2020-06-10T10:18:44Z</time>
      </trkpt>
      <trkpt lat="48.5865" lon="-4.05063">
        <ele>101.4</ele>
        <time>2020-06-10T10:18:45Z</time>
      </trkpt>
      <trkpt lat="48.58646" lon="-4.05056">
        <ele>101.2</ele>
        <time>2020-06-10T10:18:46Z</time>
      </trkpt>
      <trkpt lat="48.58642" lon="-4.05049">
        <ele>101.1</ele>
        <time>2020-06-10T10:18:47Z</time>
      </trkpt>
      <trkpt lat="48.58638" lon="-4.05041">
        <ele>101</ele>
        <time>2020-06-10T10:18:48Z</time>
      </trkpt>
      <trkpt lat="48.58634" lon="-4.05036">
        <ele>100.8</ele>
        <time>2020-06-10T10:18:49Z</time>
      </trkpt>
      <trkpt lat="48.58629" lon="-4.05033">
        <ele>100.7</ele>
        <time>2020-06-10T10:18:50Z</time>
      </trkpt>
      <trkpt lat="48.58623" lon="-4.0503">
        <ele>100.6</ele>
        <time>2020-06-10T10:18:51Z</time>
      </trkpt>
      <trkpt lat="48.58618" lon="-4.05027">
        <ele>100.5</ele>
        <time>2020-06-10T10:18:52Z</time>
      </trkpt>
      <trkpt lat="48.58613" lon="-4.05025">
        <ele>100.3</ele>
        <time>2020-06-10T10:18:53Z</time>
      </trkpt>
      <trkpt lat="48.58607" lon="-4.05023">
        <ele>100.2</ele>
        <time>2020-06-10T10:18:54Z</time>
      </trkpt>
      <trkpt lat="48.58601" lon="-4.05022">
        <ele>100</ele>
        <time>2020-06-10T10:18:55Z</time>
      </trkpt>
      <trkpt lat="48.58595" lon="-4.05021">
        <ele>99.8</ele>
        <time>2020-06-10T10:18:56Z</time>
      </trkpt>
      <trkpt lat="48.5859" lon="-4.0502">
        <ele>99.7</ele>
        <time>2020-06-10T10:18:57Z</time>
      </trkpt>
      <trkpt lat="48.58585" lon="-4.05018">
        <ele>99.5</ele>
        <time>2020-06-10T10:18:58Z</time>
      </trkpt>
      <trkpt lat="48.5858" lon="-4.05018">
        <ele>99.4</ele>
        <time>2020-06-10T10:18:59Z</time>
      </trkpt>
      <trkpt lat="48.58575" lon="-4.05016">
        <ele>99.2</ele>
        <time>2020-06-10T10:19:00Z</time>
      </trkpt>
      <trkpt lat="48.58569" lon="-4.05015">
        <ele>99</ele>
        <time>2020-06-10T10:19:01Z</time>
      </trkpt>
      <trkpt lat="48.58564" lon="-4.05014">
        <ele>98.9</ele>
        <time>2020-06-10T10:19:02Z</time>
      </trkpt>
      <trkpt lat="48.58559" lon="-4.05012">
        <ele>98.7</ele>
        <time>2020-06-10T10:19:03Z</time>
      </trkpt>
      <trkpt lat="48.58554" lon="-4.05011">
        <ele>98.6</ele>
        <time>2020-06-10T10:19:04Z</time>
      </trkpt>
      <trkpt lat="48.5855" lon="-4.05008">
        <ele>98.4</ele>
        <time>2020-06-10T10:19:05Z</time>
      </trkpt>
      <trkpt lat="48.58544" lon="-4.05006">
        <ele>98.3</ele>
        <time>2020-06-10T10:19:06Z</time>
      </trkpt>
      <trkpt lat="48.58538" lon="-4.05004">
        <ele>98.1</ele>
        <time>2020-06-10T10:19:07Z</time>
      </trkpt>
      <trkpt lat="48.58532" lon="-4.05002">
        <ele>98</ele>
        <time>2020-06-10T10:19:08Z</time>
      </trkpt>
      <trkpt lat="48.58527" lon="-4.05001">
        <ele>97.8</ele>
        <time>2020-06-10T10:19:09Z</time>
      </trkpt>
      <trkpt lat="48.58521" lon="-4.04999">
        <ele>97.7</ele>
        <time>2020-06-10T10:19:10Z</time>
      </trkpt>
      <trkpt lat="48.58515" lon="-4.04997">
        <ele>97.6</ele>
        <time>2020-06-10T10:19:11Z</time>
      </trkpt>
      <trkpt lat="48.58509" lon="-4.04995">
        <ele>97.5</ele>
        <time>2020-06-10T10:19:12Z</time>
      </trkpt>
      <trkpt lat="48.58503" lon="-4.04993">
        <ele>97.4</ele>
        <time>2020-06-10T10:19:13Z</time>
      </trkpt>
      <trkpt lat="48.58497" lon="-4.04991">
        <ele>97.3</ele>
        <time>2020-06-10T10:19:14Z</time>
      </trkpt>
      <trkpt lat="48.58492" lon="-4.04989">
        <ele>97.1</ele>
        <time>2020-06-10T10:19:15Z</time>
      </trkpt>
      <trkpt lat="48.58486" lon="-4.04987">
        <ele>97</ele>
        <time>2020-06-10T10:19:16Z</time>
      </trkpt>
      <trkpt lat="48.58481" lon="-4.04984">
        <ele>97</ele>
        <time>2020-06-10T10:19:17Z</time>
      </trkpt>
      <trkpt lat="48.58475" lon="-4.04981">
        <ele>96.9</ele>
        <time>2020-06-10T10:19:18Z</time>
      </trkpt>
      <trkpt lat="48.58469" lon="-4.04978">
        <ele>96.9</ele>
        <time>2020-06-10T10:19:19Z</time>
      </trkpt>
      <trkpt lat="48.58464" lon="-4.04976">
        <ele>96.9</ele>
        <time>2020-06-10T10:19:20Z</time>
      </trkpt>
      <trkpt lat="48.58458" lon="-4.04973">
        <ele>97</ele>
        <time>2020-06-10T10:19:21Z</time>
      </trkpt>
      <trkpt lat="48.58451" lon="-4.04969">
        <ele>97</ele>
        <time>2020-06-10T10:19:22Z</time>
      </trkpt>
      <trkpt lat="48.58445" lon="-4.04968">
        <ele>97</ele>
        <time>2020-06-10T10:19:23Z</time>
      </trkpt>
      <trkpt lat="48.58439" lon="-4.04968">
        <ele>97.1</ele>
        <time>2020-06-10T10:19:24Z</time>
      </trkpt>
      <trkpt lat="48.58433" lon="-4.04966">
        <ele>97.1</ele>
        <time>2020-06-10T10:19:25Z</time>
      </trkpt>
      <trkpt lat="48.58427" lon="-4.04966">
        <ele>97.2</ele>
        <time>2020-06-10T10:19:26Z</time>
      </trkpt>
      <trkpt lat="48.58421" lon="-4.04965">
        <ele>97.3</ele>
        <time>2020-06-10T10:19:27Z</time>
      </trkpt>
      <trkpt lat="48.58416" lon="-4.04963">
        <ele>97.4</ele>
        <time>2020-06-10T10:19:28Z</time>
      </trkpt>
      <trkpt lat="48.5841" lon="-4.04961">
        <ele>97.4</ele>
        <time>2020-06-10T10:19:29Z</time>
      </trkpt>
      <trkpt lat="48.58404" lon="-4.04959">
        <ele>97.5</ele>
        <time>2020-06-10T10:19:30Z</time>
      </trkpt>
      <trkpt lat="48.584" lon="-4.04958">
        <ele>97.6</ele>
        <time>2020-06-10T10:19:31Z</time>
      </trkpt>
      <trkpt lat="48.58395" lon="-4.04956">
        <ele>97.7</ele>
        <time>2020-06-10T10:19:32Z</time>
      </trkpt>
      <trkpt lat="48.5839" lon="-4.04954">
        <ele>97.8</ele>
        <time>2020-06-10T10:19:33Z</time>
      </trkpt>
      <trkpt lat="48.58385" lon="-4.04953">
        <ele>97.9</ele>
        <time>2020-06-10T10:19:34Z</time>
      </trkpt>
      <trkpt lat="48.5838" lon="-4.04952">
        <ele>97.9</ele>
        <time>2020-06-10T10:19:35Z</time>
      </trkpt>
      <trkpt lat="48.58376" lon="-4.0495">
        <ele>98</ele>
        <time>2020-06-10T10:19:36Z</time>
      </trkpt>
      <trkpt lat="48.58371" lon="-4.04948">
        <ele>98.1</ele>
        <time>2020-06-10T10:19:37Z</time>
      </trkpt>
      <trkpt lat="48.58366" lon="-4.04947">
        <ele>98.2</ele>
        <time>2020-06-10T10:19:38Z</time>
      </trkpt>
      <trkpt lat="48.58362" lon="-4.04945">
        <ele>98.2</ele>
        <time>2020-06-10T10:19:39Z</time>
      </trkpt>
      <trkpt lat="48.58357" lon="-4.04943">
        <ele>98.3</ele>
        <time>2020-06-10T10:19:40Z</time>
      </trkpt>
      <trkpt lat="48.58351" lon="-4.04941">
        <ele>98.5</ele>
        <time>2020-06-10T10:19:41Z</time>
      </trkpt>
      <trkpt lat="48.58346" lon="-4.0494">
        <ele>98.5</ele>
        <time>2020-06-10T10:19:42Z</time>
      </trkpt>
      <trkpt lat="48.58342" lon="-4.04938">
        <ele>98.6</ele>
        <time>2020-06-10T10:19:43Z</time>
      </trkpt>
      <trkpt lat="48.58337" lon="-4.04937">
        <ele>98.7</ele>
        <time>2020-06-10T10:19:44Z</time>
      </trkpt>
      <trkpt lat="48.58332" lon="-4.04935">
        <ele>98.7</ele>
        <time>2020-06-10T10:19:45Z</time>
      </trkpt>
      <trkpt lat="48.58328" lon="-4.04934">
        <ele>98.8</ele>
        <time>2020-06-10T10:19:46Z</time>
      </trkpt>
      <trkpt lat="48.58322" lon="-4.04932">
        <ele>98.9</ele>
        <time>2020-06-10T10:19:47Z</time>
      </trkpt>
      <trkpt lat="48.58318" lon="-4.04931">
        <ele>98.9</ele>
        <time>2020-06-10T10:19:48Z</time>
      </trkpt>
      <trkpt lat="48.58313" lon="-4.04929">
        <ele>98.9</ele>
        <time>2020-06-10T10:19:49Z</time>
      </trkpt>
      <trkpt lat="48.58308" lon="-4.04928">
        <ele>99</ele>
        <time>2020-06-10T10:19:50Z</time>
      </trkpt>
      <trkpt lat="48.58303" lon="-4.04926">
        <ele>99</ele>
        <time>2020-06-10T10:19:51Z</time>
      </trkpt>
      <trkpt lat="48.58296" lon="-4.04924">
        <ele>99</ele>
        <time>2020-06-10T10:19:52Z</time>
      </trkpt>
      <trkpt lat="48.58291" lon="-4.04922">
        <ele>99.1</ele>
        <time>2020-06-10T10:19:53Z</time>
      </trkpt>
      <trkpt lat="48.58285" lon="-4.0492">
        <ele>99.2</ele>
        <time>2020-06-10T10:19:54Z</time>
      </trkpt>
      <trkpt lat="48.5828" lon="-4.04919">
        <ele>99.2</ele>
        <time>2020-06-10T10:19:55Z</time>
      </trkpt>
      <trkpt lat="48.58274" lon="-4.04918">
        <ele>99.3</ele>
        <time>2020-06-10T10:19:56Z</time>
      </trkpt>
      <trkpt lat="48.5827" lon="-4.04917">
        <ele>99.3</ele>
        <time>2020-06-10T10:19:57Z</time>
      </trkpt>
      <trkpt lat="48.58265" lon="-4.04916">
        <ele>99.4</ele>
        <time>2020-06-10T10:19:58Z</time>
      </trkpt>
      <trkpt lat="48.5826" lon="-4.04915">
        <ele>99.4</ele>
        <time>2020-06-10T10:19:59Z</time>
      </trkpt>
      <trkpt lat="48.58255" lon="-4.04913">
        <ele>99.5</ele>
        <time>2020-06-10T10:20:00Z</time>
      </trkpt>
      <trkpt lat="48.58251" lon="-4.04912">
        <ele>99.5</ele>
        <time>2020-06-10T10:20:01Z</time>
      </trkpt>
      <trkpt lat="48.58247" lon="-4.0491">
        <ele>99.6</ele>
        <time>2020-06-10T10:20:02Z</time>
      </trkpt>
      <trkpt lat="48.58243" lon="-4.04907">
        <ele>99.6</ele>
        <time>2020-06-10T10:20:03Z</time>
      </trkpt>
      <trkpt lat="48.58239" lon="-4.04904">
        <ele>99.7</ele>
        <time>2020-06-10T10:20:04Z</time>
      </trkpt>
      <trkpt lat="48.58236" lon="-4.04902">
        <ele>99.7</ele>
        <time>2020-06-10T10:20:05Z</time>
      </trkpt>
      <trkpt lat="48.58233" lon="-4.04899">
        <ele>99.7</ele>
        <time>2020-06-10T10:20:06Z</time>
      </trkpt>
      <trkpt lat="48.58232" lon="-4.04894">
        <ele>99.7</ele>
        <time>2020-06-10T10:20:07Z</time>
      </trkpt>
      <trkpt lat="48.58233" lon="-4.04892">
        <ele>99.7</ele>
        <time>2020-06-10T10:20:08Z</time>
      </trkpt>
      <trkpt lat="48.58235" lon="-4.04888">
        <ele>99.7</ele>
        <time>2020-06-10T10:20:09Z</time>
      </trkpt>
      <trkpt lat="48.58237" lon="-4.04883">
        <ele>99.7</ele>
        <time>2020-06-10T10:20:10Z</time>
      </trkpt>
      <trkpt lat="48.58239" lon="-4.04878">
        <ele>99.7</ele>
        <time>2020-06-10T10:20:11Z</time>
      </trkpt>
      <trkpt lat="48.5824" lon="-4.04872">
        <ele>99.7</ele>
        <time>2020-06-10T10:20:12Z</time>
      </trkpt>
      <trkpt lat="48.58242" lon="-4.04866">
        <ele>99.7</ele>
        <time>2020-06-10T10:20:13Z</time>
      </trkpt>
      <trkpt lat="48.58244" lon="-4.04858">
        <ele>99.7</ele>
        <time>2020-06-10T10:20:14Z</time>
      </trkpt>
      <trkpt lat="48.58245" lon="-4.04851">
        <ele>99.7</ele>
        <time>2020-06-10T10:20:15Z</time>
      </trkpt>
      <trkpt lat="48.58247" lon="-4.04843">
        <ele>99.7</ele>
        <time>2020-06-10T10:20:16Z</time>
      </trkpt>
      <trkpt lat="48.58248" lon="-4.04837">
        <ele>99.7</ele>
        <time>2020-06-10T10:20:17Z</time>
      </trkpt>
      <trkpt lat="48.58249" lon="-4.0483">
        <ele>99.7</ele>
        <time>2020-06-10T10:20:18Z</time>
      </trkpt>
      <trkpt lat="48.5825" lon="-4.04823">
        <ele>99.7</ele>
        <time>2020-06-10T10:20:19Z</time>
      </trkpt>
      <trkpt lat="48.58252" lon="-4.04815">
        <ele>99.7</ele>
        <time>2020-06-10T10:20:20Z</time>
      </trkpt>
      <trkpt lat="48.58253" lon="-4.04807">
        <ele>99.7</ele>
        <time>2020-06-10T10:20:21Z</time>
      </trkpt>
      <trkpt lat="48.58254" lon="-4.04799">
        <ele>99.7</ele>
        <time>2020-06-10T10:20:22Z</time>
      </trkpt>
      <trkpt lat="48.58255" lon="-4.04791">
        <ele>99.7</ele>
        <time>2020-06-10T10:20:23Z</time>
      </trkpt>
      <trkpt lat="48.58256" lon="-4.04783">
        <ele>99.7</ele>
        <time>2020-06-10T10:20:24Z</time>
      </trkpt>
      <trkpt lat="48.58258" lon="-4.04776">
        <ele>99.7</ele>
        <time>2020-06-10T10:20:25Z</time>
      </trkpt>
      <trkpt lat="48.58259" lon="-4.04768">
        <ele>99.7</ele>
        <time>2020-06-10T10:20:26Z</time>
      </trkpt>
      <trkpt lat="48.5826" lon="-4.0476">
        <ele>99.7</ele>
        <time>2020-06-10T10:20:27Z</time>
      </trkpt>
      <trkpt lat="48.58261" lon="-4.04753">
        <ele>99.7</ele>
        <time>2020-06-10T10:20:28Z</time>
      </trkpt>
      <trkpt lat="48.58263" lon="-4.04745">
        <ele>99.7</ele>
        <time>2020-06-10T10:20:29Z</time>
      </trkpt>
      <trkpt lat="48.58265" lon="-4.04737">
        <ele>99.7</ele>
        <time>2020-06-10T10:20:30Z</time>
      </trkpt>
      <trkpt lat="48.58266" lon="-4.04729">
        <ele>99.7</ele>
        <time>2020-06-10T10:20:31Z</time>
      </trkpt>
      <trkpt lat="48.58268" lon="-4.04722">
        <ele>99.7</ele>
        <time>2020-06-10T10:20:32Z</time>
      </trkpt>
      <trkpt lat="48.5827" lon="-4.04715">
        <ele>99.7</ele>
        <time>2020-06-10T10:20:33Z</time>
      </trkpt>
      <trkpt lat="48.58272" lon="-4.04708">
        <ele>99.7</ele>
        <time>2020-06-10T10:20:34Z</time>
      </trkpt>
      <trkpt lat="48.58274" lon="-4.04701">
        <ele>99.7</ele>
        <time>2020-06-10T10:20:35Z</time>
      </trkpt>
      <trkpt lat="48.58275" lon="-4.04694">
        <ele>99.7</ele>
        <time>2020-06-10T10:20:36Z</time>
      </trkpt>
      <trkpt lat="48.58277" lon="-4.04687">
        <ele>99.7</ele>
        <time>2020-06-10T10:20:37Z</time>
      </trkpt>
      <trkpt lat="48.58278" lon="-4.0468">
        <ele>99.7</ele>
        <time>2020-06-10T10:20:38Z</time>
      </trkpt>
      <trkpt lat="48.5828" lon="-4.04673">
        <ele>99.7</ele>
        <time>2020-06-10T10:20:39Z</time>
      </trkpt>
      <trkpt lat="48.58281" lon="-4.04666">
        <ele>99.7</ele>
        <time>2020-06-10T10:20:40Z</time>
      </trkpt>
      <trkpt lat="48.58281" lon="-4.04658">
        <ele>99.7</ele>
        <time>2020-06-10T10:20:41Z</time>
      </trkpt>
      <trkpt lat="48.58281" lon="-4.0465">
        <ele>99.7</ele>
        <time>2020-06-10T10:20:42Z</time>
      </trkpt>
      <trkpt lat="48.58281" lon="-4.04641">
        <ele>99.5</ele>
        <time>2020-06-10T10:20:43Z</time>
      </trkpt>
      <trkpt lat="48.58281" lon="-4.04633">
        <ele>99.3</ele>
        <time>2020-06-10T10:20:44Z</time>
      </trkpt>
      <trkpt lat="48.5828" lon="-4.04625">
        <ele>99.1</ele>
        <time>2020-06-10T10:20:45Z</time>
      </trkpt>
      <trkpt lat="48.58279" lon="-4.04617">
        <ele>98.9</ele>
        <time>2020-06-10T10:20:46Z</time>
      </trkpt>
      <trkpt lat="48.58277" lon="-4.0461">
        <ele>98.7</ele>
        <time>2020-06-10T10:20:47Z</time>
      </trkpt>
      <trkpt lat="48.58275" lon="-4.04602">
        <ele>98.5</ele>
        <time>2020-06-10T10:20:48Z</time>
      </trkpt>
      <trkpt lat="48.58273" lon="-4.04594">
        <ele>98.2</ele>
        <time>2020-06-10T10:20:49Z</time>
      </trkpt>
      <trkpt lat="48.5827" lon="-4.04586">
        <ele>98.2</ele>
        <time>2020-06-10T10:20:50Z</time>
      </trkpt>
      <trkpt lat="48.58267" lon="-4.04579">
        <ele>98.1</ele>
        <time>2020-06-10T10:20:51Z</time>
      </trkpt>
      <trkpt lat="48.58264" lon="-4.04572">
        <ele>98</ele>
        <time>2020-06-10T10:20:52Z</time>
      </trkpt>
      <trkpt lat="48.5826" lon="-4.04565">
        <ele>97.9</ele>
        <time>2020-06-10T10:20:53Z</time>
      </trkpt>
      <trkpt lat="48.58256" lon="-4.04559">
        <ele>97.9</ele>
        <time>2020-06-10T10:20:54Z</time>
      </trkpt>
      <trkpt lat="48.58251" lon="-4.04553">
        <ele>97.8</ele>
        <time>2020-06-10T10:20:55Z</time>
      </trkpt>
      <trkpt lat="48.58247" lon="-4.04547">
        <ele>97.8</ele>
        <time>2020-06-10T10:20:56Z</time>
      </trkpt>
      <trkpt lat="48.58242" lon="-4.04542">
        <ele>97.8</ele>
        <time>2020-06-10T10:20:57Z</time>
      </trkpt>
      <trkpt lat="48.58237" lon="-4.04537">
        <ele>97.7</ele>
        <time>2020-06-10T10:20:58Z</time>
      </trkpt>
      <trkpt lat="48.58232" lon="-4.04533">
        <ele>97.7</ele>
        <time>2020-06-10T10:20:59Z</time>
      </trkpt>
      <trkpt lat="48.58227" lon="-4.04529">
        <ele>97.7</ele>
        <time>2020-06-10T10:21:00Z</time>
      </trkpt>
      <trkpt lat="48.58221" lon="-4.04526">
        <ele>97.7</ele>
        <time>2020-06-10T10:21:01Z</time>
      </trkpt>
      <trkpt lat="48.58216" lon="-4.04523">
        <ele>97.6</ele>
        <time>2020-06-10T10:21:02Z</time>
      </trkpt>
      <trkpt lat="48.5821" lon="-4.04521">
        <ele>97.6</ele>
        <time>2020-06-10T10:21:03Z</time>
      </trkpt>
      <trkpt lat="48.58204" lon="-4.0452">
        <ele>97.6</ele>
        <time>2020-06-10T10:21:04Z</time>
      </trkpt>
      <trkpt lat="48.58199" lon="-4.04519">
        <ele>97.5</ele>
        <time>2020-06-10T10:21:05Z</time>
      </trkpt>
      <trkpt lat="48.58193" lon="-4.04518">
        <ele>97.5</ele>
        <time>2020-06-10T10:21:06Z</time>
      </trkpt>
      <trkpt lat="48.58188" lon="-4.04519">
        <ele>97.5</ele>
        <time>2020-06-10T10:21:07Z</time>
      </trkpt>
      <trkpt lat="48.58183" lon="-4.04518">
        <ele>97.5</ele>
        <time>2020-06-10T10:21:08Z</time>
      </trkpt>
      <trkpt lat="48.58178" lon="-4.04519">
        <ele>97.5</ele>
        <time>2020-06-10T10:21:09Z</time>
      </trkpt>
      <trkpt lat="48.58174" lon="-4.04519">
        <ele>97.4</ele>
        <time>2020-06-10T10:21:10Z</time>
      </trkpt>
      <trkpt lat="48.5817" lon="-4.04519">
        <ele>97.4</ele>
        <time>2020-06-10T10:21:11Z</time>
      </trkpt>
      <trkpt lat="48.58166" lon="-4.04519">
        <ele>97.3</ele>
        <time>2020-06-10T10:21:12Z</time>
      </trkpt>
      <trkpt lat="48.58164" lon="-4.04519">
        <ele>97.3</ele>
        <time>2020-06-10T10:21:13Z</time>
      </trkpt>
      <trkpt lat="48.58163" lon="-4.04517">
        <ele>97.3</ele>
        <time>2020-06-10T10:21:14Z</time>
      </trkpt>
      <trkpt lat="48.58162" lon="-4.04512">
        <ele>97.2</ele>
        <time>2020-06-10T10:21:15Z</time>
      </trkpt>
      <trkpt lat="48.58162" lon="-4.0451">
        <ele>97.2</ele>
        <time>2020-06-10T10:21:16Z</time>
      </trkpt>
      <trkpt lat="48.58161" lon="-4.04506">
        <ele>97.2</ele>
        <time>2020-06-10T10:21:17Z</time>
      </trkpt>
      <trkpt lat="48.5816" lon="-4.04501">
        <ele>97.1</ele>
        <time>2020-06-10T10:21:18Z</time>
      </trkpt>
      <trkpt lat="48.5816" lon="-4.04495">
        <ele>97</ele>
        <time>2020-06-10T10:21:19Z</time>
      </trkpt>
      <trkpt lat="48.5816" lon="-4.04488">
        <ele>96.9</ele>
        <time>2020-06-10T10:21:20Z</time>
      </trkpt>
      <trkpt lat="48.58161" lon="-4.04481">
        <ele>96.8</ele>
        <time>2020-06-10T10:21:21Z</time>
      </trkpt>
      <trkpt lat="48.58162" lon="-4.04473">
        <ele>96.7</ele>
        <time>2020-06-10T10:21:22Z</time>
      </trkpt>
      <trkpt lat="48.58163" lon="-4.04465">
        <ele>96.6</ele>
        <time>2020-06-10T10:21:23Z</time>
      </trkpt>
      <trkpt lat="48.58163" lon="-4.04457">
        <ele>96.5</ele>
        <time>2020-06-10T10:21:24Z</time>
      </trkpt>
      <trkpt lat="48.58164" lon="-4.04448">
        <ele>96.3</ele>
        <time>2020-06-10T10:21:25Z</time>
      </trkpt>
      <trkpt lat="48.58164" lon="-4.0444">
        <ele>96.2</ele>
        <time>2020-06-10T10:21:26Z</time>
      </trkpt>
      <trkpt lat="48.58164" lon="-4.0443">
        <ele>96</ele>
        <time>2020-06-10T10:21:27Z</time>
      </trkpt>
      <trkpt lat="48.58163" lon="-4.04422">
        <ele>95.9</ele>
        <time>2020-06-10T10:21:28Z</time>
      </trkpt>
      <trkpt lat="48.58163" lon="-4.04413">
        <ele>95.7</ele>
        <time>2020-06-10T10:21:29Z</time>
      </trkpt>
      <trkpt lat="48.58162" lon="-4.04403">
        <ele>95.5</ele>
        <time>2020-06-10T10:21:30Z</time>
      </trkpt>
      <trkpt lat="48.58161" lon="-4.04394">
        <ele>95.4</ele>
        <time>2020-06-10T10:21:31Z</time>
      </trkpt>
      <trkpt lat="48.5816" lon="-4.04385">
        <ele>95.1</ele>
        <time>2020-06-10T10:21:32Z</time>
      </trkpt>
      <trkpt lat="48.58158" lon="-4.04375">
        <ele>94.9</ele>
        <time>2020-06-10T10:21:33Z</time>
      </trkpt>
      <trkpt lat="48.58157" lon="-4.04365">
        <ele>94.7</ele>
        <time>2020-06-10T10:21:34Z</time>
      </trkpt>
      <trkpt lat="48.58156" lon="-4.04355">
        <ele>94.4</ele>
        <time>2020-06-10T10:21:35Z</time>
      </trkpt>
      <trkpt lat="48.58155" lon="-4.04344">
        <ele>94.2</ele>
        <time>2020-06-10T10:21:36Z</time>
      </trkpt>
      <trkpt lat="48.58153" lon="-4.04334">
        <ele>94</ele>
        <time>2020-06-10T10:21:37Z</time>
      </trkpt>
      <trkpt lat="48.58151" lon="-4.04324">
        <ele>93.7</ele>
        <time>2020-06-10T10:21:38Z</time>
      </trkpt>
      <trkpt lat="48.58149" lon="-4.04313">
        <ele>93.5</ele>
        <time>2020-06-10T10:21:39Z</time>
      </trkpt>
      <trkpt lat="48.58147" lon="-4.04303">
        <ele>93.3</ele>
        <time>2020-06-10T10:21:40Z</time>
      </trkpt>
      <trkpt lat="48.58143" lon="-4.04293">
        <ele>93</ele>
        <time>2020-06-10T10:21:41Z</time>
      </trkpt>
      <trkpt lat="48.5814" lon="-4.04283">
        <ele>92.7</ele>
        <time>2020-06-10T10:21:42Z</time>
      </trkpt>
      <trkpt lat="48.58137" lon="-4.04273">
        <ele>92.5</ele>
        <time>2020-06-10T10:21:43Z</time>
      </trkpt>
      <trkpt lat="48.58134" lon="-4.04262">
        <ele>92.2</ele>
        <time>2020-06-10T10:21:44Z</time>
      </trkpt>
      <trkpt lat="48.5813" lon="-4.04252">
        <ele>91.9</ele>
        <time>2020-06-10T10:21:45Z</time>
      </trkpt>
      <trkpt lat="48.58127" lon="-4.04241">
        <ele>91.6</ele>
        <time>2020-06-10T10:21:46Z</time>
      </trkpt>
      <trkpt lat="48.58123" lon="-4.04231">
        <ele>91.2</ele>
        <time>2020-06-10T10:21:47Z</time>
      </trkpt>
      <trkpt lat="48.5812" lon="-4.0422">
        <ele>90.9</ele>
        <time>2020-06-10T10:21:48Z</time>
      </trkpt>
      <trkpt lat="48.58117" lon="-4.04209">
        <ele>90.6</ele>
        <time>2020-06-10T10:21:49Z</time>
      </trkpt>
      <trkpt lat="48.58114" lon="-4.04198">
        <ele>90.3</ele>
        <time>2020-06-10T10:21:50Z</time>
      </trkpt>
      <trkpt lat="48.58111" lon="-4.04188">
        <ele>90.1</ele>
        <time>2020-06-10T10:21:51Z</time>
      </trkpt>
      <trkpt lat="48.58109" lon="-4.04179">
        <ele>89.9</ele>
        <time>2020-06-10T10:21:52Z</time>
      </trkpt>
      <trkpt lat="48.58106" lon="-4.04171">
        <ele>89.8</ele>
        <time>2020-06-10T10:21:53Z</time>
      </trkpt>
      <trkpt lat="48.58104" lon="-4.04163">
        <ele>89.7</ele>
        <time>2020-06-10T10:21:54Z</time>
      </trkpt>
      <trkpt lat="48.58101" lon="-4.04156">
        <ele>89.5</ele>
        <time>2020-06-10T10:21:55Z</time>
      </trkpt>
      <trkpt lat="48.58098" lon="-4.0415">
        <ele>89.5</ele>
        <time>2020-06-10T10:21:56Z</time>
      </trkpt>
      <trkpt lat="48.58095" lon="-4.04145">
        <ele>89.5</ele>
        <time>2020-06-10T10:21:57Z</time>
      </trkpt>
      <trkpt lat="48.58091" lon="-4.04144">
        <ele>89.5</ele>
        <time>2020-06-10T10:21:58Z</time>
      </trkpt>
      <trkpt lat="48.58086" lon="-4.04144">
        <ele>89.4</ele>
        <time>2020-06-10T10:21:59Z</time>
      </trkpt>
      <trkpt lat="48.58082" lon="-4.0414">
        <ele>89.4</ele>
        <time>2020-06-10T10:22:00Z</time>
      </trkpt>
      <trkpt lat="48.58078" lon="-4.04135">
        <ele>89.3</ele>
        <time>2020-06-10T10:22:01Z</time>
      </trkpt>
      <trkpt lat="48.58074" lon="-4.0413">
        <ele>89.3</ele>
        <time>2020-06-10T10:22:02Z</time>
      </trkpt>
      <trkpt lat="48.58069" lon="-4.04125">
        <ele>89.2</ele>
        <time>2020-06-10T10:22:03Z</time>
      </trkpt>
      <trkpt lat="48.58064" lon="-4.0412">
        <ele>89.2</ele>
        <time>2020-06-10T10:22:04Z</time>
      </trkpt>
      <trkpt lat="48.58059" lon="-4.04116">
        <ele>89.1</ele>
        <time>2020-06-10T10:22:05Z</time>
      </trkpt>
      <trkpt lat="48.58054" lon="-4.0411">
        <ele>89.1</ele>
        <time>2020-06-10T10:22:06Z</time>
      </trkpt>
      <trkpt lat="48.58049" lon="-4.04105">
        <ele>89</ele>
        <time>2020-06-10T10:22:07Z</time>
      </trkpt>
      <trkpt lat="48.58045" lon="-4.04099">
        <ele>89</ele>
        <time>2020-06-10T10:22:08Z</time>
      </trkpt>
      <trkpt lat="48.5804" lon="-4.04093">
        <ele>89</ele>
        <time>2020-06-10T10:22:09Z</time>
      </trkpt>
      <trkpt lat="48.58035" lon="-4.04088">
        <ele>89</ele>
        <time>2020-06-10T10:22:10Z</time>
      </trkpt>
      <trkpt lat="48.58031" lon="-4.04082">
        <ele>89</ele>
        <time>2020-06-10T10:22:11Z</time>
      </trkpt>
      <trkpt lat="48.58026" lon="-4.04077">
        <ele>89</ele>
        <time>2020-06-10T10:22:12Z</time>
      </trkpt>
      <trkpt lat="48.58022" lon="-4.04071">
        <ele>89</ele>
        <time>2020-06-10T10:22:13Z</time>
      </trkpt>
      <trkpt lat="48.58018" lon="-4.04064">
        <ele>89</ele>
        <time>2020-06-10T10:22:14Z</time>
      </trkpt>
      <trkpt lat="48.58014" lon="-4.04058">
        <ele>89.1</ele>
        <time>2020-06-10T10:22:15Z</time>
      </trkpt>
      <trkpt lat="48.58011" lon="-4.04051">
        <ele>89.1</ele>
        <time>2020-06-10T10:22:16Z</time>
      </trkpt>
      <trkpt lat="48.58008" lon="-4.04045">
        <ele>89.2</ele>
        <time>2020-06-10T10:22:17Z</time>
      </trkpt>
      <trkpt lat="48.58004" lon="-4.04039">
        <ele>89.2</ele>
        <time>2020-06-10T10:22:18Z</time>
      </trkpt>
      <trkpt lat="48.58" lon="-4.04033">
        <ele>89.2</ele>
        <time>2020-06-10T10:22:19Z</time>
      </trkpt>
      <trkpt lat="48.57996" lon="-4.04027">
        <ele>89.1</ele>
        <time>2020-06-10T10:22:20Z</time>
      </trkpt>
      <trkpt lat="48.57992" lon="-4.04022">
        <ele>89.1</ele>
        <time>2020-06-10T10:22:21Z</time>
      </trkpt>
      <trkpt lat="48.57988" lon="-4.04016">
        <ele>89.1</ele>
        <time>2020-06-10T10:22:22Z</time>
      </trkpt>
      <trkpt lat="48.57985" lon="-4.0401">
        <ele>89.4</ele>
        <time>2020-06-10T10:22:23Z</time>
      </trkpt>
      <trkpt lat="48.5798" lon="-4.04005">
        <ele>89.5</ele>
        <time>2020-06-10T10:22:24Z</time>
      </trkpt>
      <trkpt lat="48.57977" lon="-4.04">
        <ele>89.5</ele>
        <time>2020-06-10T10:22:25Z</time>
      </trkpt>
      <trkpt lat="48.57973" lon="-4.03994">
        <ele>89.4</ele>
        <time>2020-06-10T10:22:26Z</time>
      </trkpt>
      <trkpt lat="48.57969" lon="-4.03989">
        <ele>89.4</ele>
        <time>2020-06-10T10:22:27Z</time>
      </trkpt>
      <trkpt lat="48.57965" lon="-4.03984">
        <ele>89.3</ele>
        <time>2020-06-10T10:22:28Z</time>
      </trkpt>
      <trkpt lat="48.57961" lon="-4.03978">
        <ele>89.2</ele>
        <time>2020-06-10T10:22:29Z</time>
      </trkpt>
      <trkpt lat="48.57958" lon="-4.03973">
        <ele>89.1</ele>
        <time>2020-06-10T10:22:30Z</time>
      </trkpt>
      <trkpt lat="48.57954" lon="-4.03967">
        <ele>89</ele>
        <time>2020-06-10T10:22:31Z</time>
      </trkpt>
      <trkpt lat="48.57951" lon="-4.03962">
        <ele>89</ele>
        <time>2020-06-10T10:22:32Z</time>
      </trkpt>
      <trkpt lat="48.57947" lon="-4.03957">
        <ele>88.9</ele>
        <time>2020-06-10T10:22:33Z</time>
      </trkpt>
      <trkpt lat="48.57943" lon="-4.03952">
        <ele>88.9</ele>
        <time>2020-06-10T10:22:34Z</time>
      </trkpt>
      <trkpt lat="48.5794" lon="-4.03947">
        <ele>88.9</ele>
        <time>2020-06-10T10:22:35Z</time>
      </trkpt>
      <trkpt lat="48.57936" lon="-4.03943">
        <ele>88.8</ele>
        <time>2020-06-10T10:22:36Z</time>
      </trkpt>
      <trkpt lat="48.57933" lon="-4.03937">
        <ele>88.8</ele>
        <time>2020-06-10T10:22:37Z</time>
      </trkpt>
      <trkpt lat="48.5793" lon="-4.03931">
        <ele>88.8</ele>
        <time>2020-06-10T10:22:38Z</time>
      </trkpt>
      <trkpt lat="48.57927" lon="-4.03925">
        <ele>88.7</ele>
        <time>2020-06-10T10:22:39Z</time>
      </trkpt>
      <trkpt lat="48.57923" lon="-4.0392">
        <ele>88.7</ele>
        <time>2020-06-10T10:22:40Z</time>
      </trkpt>
      <trkpt lat="48.57919" lon="-4.03917">
        <ele>88.7</ele>
        <time>2020-06-10T10:22:41Z</time>
      </trkpt>
      <trkpt lat="48.57916" lon="-4.03912">
        <ele>88.7</ele>
        <time>2020-06-10T10:22:42Z</time>
      </trkpt>
      <trkpt lat="48.57912" lon="-4.03907">
        <ele>88.7</ele>
        <time>2020-06-10T10:22:43Z</time>
      </trkpt>
      <trkpt lat="48.57909" lon="-4.03904">
        <ele>88.7</ele>
        <time>2020-06-10T10:22:44Z</time>
      </trkpt>
      <trkpt lat="48.57905" lon="-4.03901">
        <ele>88.7</ele>
        <time>2020-06-10T10:22:45Z</time>
      </trkpt>
      <trkpt lat="48.57901" lon="-4.039">
        <ele>88.7</ele>
        <time>2020-06-10T10:22:46Z</time>
      </trkpt>
      <trkpt lat="48.57898" lon="-4.03898">
        <ele>88.8</ele>
        <time>2020-06-10T10:22:47Z</time>
      </trkpt>
      <trkpt lat="48.57895" lon="-4.03898">
        <ele>88.8</ele>
        <time>2020-06-10T10:22:48Z</time>
      </trkpt>
      <trkpt lat="48.57894" lon="-4.03898">
        <ele>88.8</ele>
        <time>2020-06-10T10:22:49Z</time>
      </trkpt>
      <trkpt lat="48.57893" lon="-4.03897">
        <ele>88.8</ele>
        <time>2020-06-10T10:22:50Z</time>
      </trkpt>
      <trkpt lat="48.57894" lon="-4.03897">
        <ele>88.8</ele>
        <time>2020-06-10T10:22:51Z</time>
      </trkpt>
      <trkpt lat="48.57894" lon="-4.03897">
        <ele>88.8</ele>
        <time>2020-06-10T10:22:52Z</time>
      </trkpt>
      <trkpt lat="48.57894" lon="-4.03897">
        <ele>88.8</ele>
        <time>2020-06-10T10:22:53Z</time>
      </trkpt>
      <trkpt lat="48.57894" lon="-4.03898">
        <ele>88.8</ele>
        <time>2020-06-10T10:22:54Z</time>
      </trkpt>
      <trkpt lat="48.57893" lon="-4.03897">
        <ele>88.8</ele>
        <time>2020-06-10T10:22:55Z</time>
      </trkpt>
      <trkpt lat="48.57893" lon="-4.03896">
        <ele>88.8</ele>
        <time>2020-06-10T10:22:56Z</time>
      </trkpt>
      <trkpt lat="48.57892" lon="-4.03894">
        <ele>88.8</ele>
        <time>2020-06-10T10:22:57Z</time>
      </trkpt>
      <trkpt lat="48.57892" lon="-4.03889">
        <ele>88.8</ele>
        <time>2020-06-10T10:22:58Z</time>
      </trkpt>
      <trkpt lat="48.57892" lon="-4.03888">
        <ele>88.8</ele>
        <time>2020-06-10T10:22:59Z</time>
      </trkpt>
      <trkpt lat="48.57892" lon="-4.03883">
        <ele>88.8</ele>
        <time>2020-06-10T10:23:00Z</time>
      </trkpt>
      <trkpt lat="48.57892" lon="-4.03878">
        <ele>88.7</ele>
        <time>2020-06-10T10:23:01Z</time>
      </trkpt>
      <trkpt lat="48.57892" lon="-4.03873">
        <ele>88.7</ele>
        <time>2020-06-10T10:23:02Z</time>
      </trkpt>
      <trkpt lat="48.57892" lon="-4.03867">
        <ele>88.7</ele>
        <time>2020-06-10T10:23:03Z</time>
      </trkpt>
      <trkpt lat="48.57892" lon="-4.03861">
        <ele>88.7</ele>
        <time>2020-06-10T10:23:04Z</time>
      </trkpt>
      <trkpt lat="48.57892" lon="-4.03855">
        <ele>88.7</ele>
        <time>2020-06-10T10:23:05Z</time>
      </trkpt>
      <trkpt lat="48.57892" lon="-4.03849">
        <ele>88.7</ele>
        <time>2020-06-10T10:23:06Z</time>
      </trkpt>
      <trkpt lat="48.57892" lon="-4.03843">
        <ele>88.6</ele>
        <time>2020-06-10T10:23:07Z</time>
      </trkpt>
      <trkpt lat="48.57891" lon="-4.03836">
        <ele>88.6</ele>
        <time>2020-06-10T10:23:08Z</time>
      </trkpt>
      <trkpt lat="48.5789" lon="-4.0383">
        <ele>88.6</ele>
        <time>2020-06-10T10:23:09Z</time>
      </trkpt>
      <trkpt lat="48.5789" lon="-4.03823">
        <ele>88.6</ele>
        <time>2020-06-10T10:23:10Z</time>
      </trkpt>
      <trkpt lat="48.57889" lon="-4.03817">
        <ele>88.6</ele>
        <time>2020-06-10T10:23:11Z</time>
      </trkpt>
      <trkpt lat="48.57888" lon="-4.0381">
        <ele>88.6</ele>
        <time>2020-06-10T10:23:12Z</time>
      </trkpt>
      <trkpt lat="48.57887" lon="-4.03803">
        <ele>88.5</ele>
        <time>2020-06-10T10:23:13Z</time>
      </trkpt>
      <trkpt lat="48.57886" lon="-4.03797">
        <ele>88.5</ele>
        <time>2020-06-10T10:23:14Z</time>
      </trkpt>
      <trkpt lat="48.57886" lon="-4.0379">
        <ele>88.5</ele>
        <time>2020-06-10T10:23:15Z</time>
      </trkpt>
      <trkpt lat="48.57885" lon="-4.03784">
        <ele>88.4</ele>
        <time>2020-06-10T10:23:16Z</time>
      </trkpt>
      <trkpt lat="48.57884" lon="-4.03778">
        <ele>88.4</ele>
        <time>2020-06-10T10:23:17Z</time>
      </trkpt>
      <trkpt lat="48.57883" lon="-4.03772">
        <ele>88.3</ele>
        <time>2020-06-10T10:23:18Z</time>
      </trkpt>
      <trkpt lat="48.57883" lon="-4.03766">
        <ele>88.3</ele>
        <time>2020-06-10T10:23:19Z</time>
      </trkpt>
      <trkpt lat="48.57882" lon="-4.0376">
        <ele>88.2</ele>
        <time>2020-06-10T10:23:20Z</time>
      </trkpt>
      <trkpt lat="48.57881" lon="-4.03753">
        <ele>88.2</ele>
        <time>2020-06-10T10:23:21Z</time>
      </trkpt>
      <trkpt lat="48.5788" lon="-4.03747">
        <ele>88.2</ele>
        <time>2020-06-10T10:23:22Z</time>
      </trkpt>
      <trkpt lat="48.57879" lon="-4.03741">
        <ele>88.2</ele>
        <time>2020-06-10T10:23:23Z</time>
      </trkpt>
      <trkpt lat="48.57879" lon="-4.03734">
        <ele>88.1</ele>
        <time>2020-06-10T10:23:24Z</time>
      </trkpt>
      <trkpt lat="48.57878" lon="-4.03728">
        <ele>88</ele>
        <time>2020-06-10T10:23:25Z</time>
      </trkpt>
      <trkpt lat="48.57878" lon="-4.03721">
        <ele>87.9</ele>
        <time>2020-06-10T10:23:26Z</time>
      </trkpt>
      <trkpt lat="48.57877" lon="-4.03714">
        <ele>87.8</ele>
        <time>2020-06-10T10:23:27Z</time>
      </trkpt>
      <trkpt lat="48.57876" lon="-4.03707">
        <ele>87.7</ele>
        <time>2020-06-10T10:23:28Z</time>
      </trkpt>
      <trkpt lat="48.57875" lon="-4.037">
        <ele>87.6</ele>
        <time>2020-06-10T10:23:29Z</time>
      </trkpt>
      <trkpt lat="48.57874" lon="-4.03693">
        <ele>87.6</ele>
        <time>2020-06-10T10:23:30Z</time>
      </trkpt>
      <trkpt lat="48.57874" lon="-4.03687">
        <ele>87.5</ele>
        <time>2020-06-10T10:23:31Z</time>
      </trkpt>
      <trkpt lat="48.57874" lon="-4.03682">
        <ele>87.4</ele>
        <time>2020-06-10T10:23:32Z</time>
      </trkpt>
      <trkpt lat="48.57873" lon="-4.03677">
        <ele>87.4</ele>
        <time>2020-06-10T10:23:33Z</time>
      </trkpt>
      <trkpt lat="48.57872" lon="-4.03673">
        <ele>87.4</ele>
        <time>2020-06-10T10:23:34Z</time>
      </trkpt>
      <trkpt lat="48.57872" lon="-4.0367">
        <ele>87.3</ele>
        <time>2020-06-10T10:23:35Z</time>
      </trkpt>
      <trkpt lat="48.57872" lon="-4.03668">
        <ele>87.3</ele>
        <time>2020-06-10T10:23:36Z</time>
      </trkpt>
      <trkpt lat="48.57871" lon="-4.03667">
        <ele>87.3</ele>
        <time>2020-06-10T10:23:37Z</time>
      </trkpt>
      <trkpt lat="48.57872" lon="-4.03666">
        <ele>87.3</ele>
        <time>2020-06-10T10:23:38Z</time>
      </trkpt>
      <trkpt lat="48.57873" lon="-4.03665">
        <ele>87.3</ele>
        <time>2020-06-10T10:23:39Z</time>
      </trkpt>
      <trkpt lat="48.57873" lon="-4.03665">
        <ele>87.3</ele>
        <time>2020-06-10T10:23:40Z</time>
      </trkpt>
      <trkpt lat="48.57872" lon="-4.03665">
        <ele>87.3</ele>
        <time>2020-06-10T10:23:41Z</time>
      </trkpt>
      <trkpt lat="48.57872" lon="-4.03665">
        <ele>87.3</ele>
        <time>2020-06-10T10:23:42Z</time>
      </trkpt>
      <trkpt lat="48.57872" lon="-4.03665">
        <ele>87.3</ele>
        <time>2020-06-10T10:23:43Z</time>
      </trkpt>
      <trkpt lat="48.57872" lon="-4.03665">
        <ele>87.3</ele>
        <time>2020-06-10T10:23:44Z</time>
      </trkpt>
      <trkpt lat="48.57872" lon="-4.03664">
        <ele>87.2</ele>
        <time>2020-06-10T10:23:45Z</time>
      </trkpt>
      <trkpt lat="48.57872" lon="-4.03664">
        <ele>87.2</ele>
        <time>2020-06-10T10:23:46Z</time>
      </trkpt>
      <trkpt lat="48.57873" lon="-4.03664">
        <ele>87.2</ele>
        <time>2020-06-10T10:23:47Z</time>
      </trkpt>
      <trkpt lat="48.57872" lon="-4.03664">
        <ele>87.2</ele>
        <time>2020-06-10T10:23:48Z</time>
      </trkpt>
      <trkpt lat="48.57871" lon="-4.03665">
        <ele>87.2</ele>
        <time>2020-06-10T10:23:49Z</time>
      </trkpt>
      <trkpt lat="48.57871" lon="-4.03666">
        <ele>87.2</ele>
        <time>2020-06-10T10:23:50Z</time>
      </trkpt>
      <trkpt lat="48.57872" lon="-4.03665">
        <ele>87.2</ele>
        <time>2020-06-10T10:23:51Z</time>
      </trkpt>
      <trkpt lat="48.57872" lon="-4.03664">
        <ele>87.2</ele>
        <time>2020-06-10T10:23:52Z</time>
      </trkpt>
      <trkpt lat="48.57872" lon="-4.03665">
        <ele>87.2</ele>
        <time>2020-06-10T10:23:53Z</time>
      </trkpt>
      <trkpt lat="48.57871" lon="-4.03665">
        <ele>87.2</ele>
        <time>2020-06-10T10:23:54Z</time>
      </trkpt>
      <trkpt lat="48.57871" lon="-4.03665">
        <ele>87.2</ele>
        <time>2020-06-10T10:23:55Z</time>
      </trkpt>
      <trkpt lat="48.57871" lon="-4.03664">
        <ele>87.2</ele>
        <time>2020-06-10T10:23:56Z</time>
      </trkpt>
      <trkpt lat="48.57871" lon="-4.03663">
        <ele>87.1</ele>
        <time>2020-06-10T10:23:57Z</time>
      </trkpt>
      <trkpt lat="48.57872" lon="-4.03662">
        <ele>87.1</ele>
        <time>2020-06-10T10:23:58Z</time>
      </trkpt>
      <trkpt lat="48.57872" lon="-4.03661">
        <ele>87.1</ele>
        <time>2020-06-10T10:23:59Z</time>
      </trkpt>
      <trkpt lat="48.57873" lon="-4.0366">
        <ele>87.1</ele>
        <time>2020-06-10T10:24:00Z</time>
      </trkpt>
      <trkpt lat="48.57873" lon="-4.0366">
        <ele>87.1</ele>
        <time>2020-06-10T10:24:01Z</time>
      </trkpt>
      <trkpt lat="48.57874" lon="-4.0366">
        <ele>87.1</ele>
        <time>2020-06-10T10:24:02Z</time>
      </trkpt>
      <trkpt lat="48.57874" lon="-4.0366">
        <ele>87.1</ele>
        <time>2020-06-10T10:24:03Z</time>
      </trkpt>
      <trkpt lat="48.57874" lon="-4.03659">
        <ele>87</ele>
        <time>2020-06-10T10:24:04Z</time>
      </trkpt>
      <trkpt lat="48.57875" lon="-4.03659">
        <ele>87</ele>
        <time>2020-06-10T10:24:05Z</time>
      </trkpt>
      <trkpt lat="48.57875" lon="-4.03658">
        <ele>87</ele>
        <time>2020-06-10T10:24:06Z</time>
      </trkpt>
      <trkpt lat="48.57876" lon="-4.03658">
        <ele>87</ele>
        <time>2020-06-10T10:24:07Z</time>
      </trkpt>
      <trkpt lat="48.57873" lon="-4.03655">
        <ele>87</ele>
        <time>2020-06-10T10:24:08Z</time>
      </trkpt>
      <trkpt lat="48.57872" lon="-4.03653">
        <ele>87</ele>
        <time>2020-06-10T10:24:09Z</time>
      </trkpt>
      <trkpt lat="48.57871" lon="-4.0365">
        <ele>87</ele>
        <time>2020-06-10T10:24:10Z</time>
      </trkpt>
      <trkpt lat="48.57869" lon="-4.03647">
        <ele>87</ele>
        <time>2020-06-10T10:24:11Z</time>
      </trkpt>
      <trkpt lat="48.57868" lon="-4.03644">
        <ele>87</ele>
        <time>2020-06-10T10:24:12Z</time>
      </trkpt>
      <trkpt lat="48.57866" lon="-4.03641">
        <ele>87</ele>
        <time>2020-06-10T10:24:13Z</time>
      </trkpt>
      <trkpt lat="48.57865" lon="-4.03638">
        <ele>87</ele>
        <time>2020-06-10T10:37:32Z</time>
      </trkpt>
      <trkpt lat="48.57864" lon="-4.03635">
        <ele>86.9</ele>
        <time>2020-06-10T10:37:33Z</time>
      </trkpt>
      <trkpt lat="48.57865" lon="-4.0363">
        <ele>86.9</ele>
        <time>2020-06-10T10:37:34Z</time>
      </trkpt>
      <trkpt lat="48.57865" lon="-4.03626">
        <ele>86.9</ele>
        <time>2020-06-10T10:37:35Z</time>
      </trkpt>
      <trkpt lat="48.57865" lon="-4.03621">
        <ele>86.8</ele>
        <time>2020-06-10T10:37:36Z</time>
      </trkpt>
      <trkpt lat="48.57864" lon="-4.03617">
        <ele>86.8</ele>
        <time>2020-06-10T10:37:37Z</time>
      </trkpt>
      <trkpt lat="48.57864" lon="-4.03612">
        <ele>86.7</ele>
        <time>2020-06-10T10:37:38Z</time>
      </trkpt>
      <trkpt lat="48.57863" lon="-4.03607">
        <ele>86.7</ele>
        <time>2020-06-10T10:37:39Z</time>
      </trkpt>
      <trkpt lat="48.57864" lon="-4.03602">
        <ele>86.6</ele>
        <time>2020-06-10T10:37:40Z</time>
      </trkpt>
      <trkpt lat="48.57865" lon="-4.03597">
        <ele>86.5</ele>
        <time>2020-06-10T10:37:41Z</time>
      </trkpt>
      <trkpt lat="48.57865" lon="-4.03592">
        <ele>86.5</ele>
        <time>2020-06-10T10:37:42Z</time>
      </trkpt>
      <trkpt lat="48.57865" lon="-4.03588">
        <ele>86.4</ele>
        <time>2020-06-10T10:37:43Z</time>
      </trkpt>
      <trkpt lat="48.57865" lon="-4.03583">
        <ele>86.3</ele>
        <time>2020-06-10T10:37:44Z</time>
      </trkpt>
      <trkpt lat="48.57865" lon="-4.03578">
        <ele>86.3</ele>
        <time>2020-06-10T10:37:45Z</time>
      </trkpt>
      <trkpt lat="48.57866" lon="-4.03573">
        <ele>86.2</ele>
        <time>2020-06-10T10:37:46Z</time>
      </trkpt>
      <trkpt lat="48.57866" lon="-4.03568">
        <ele>86.1</ele>
        <time>2020-06-10T10:37:47Z</time>
      </trkpt>
      <trkpt lat="48.57867" lon="-4.03563">
        <ele>86.1</ele>
        <time>2020-06-10T10:37:48Z</time>
      </trkpt>
      <trkpt lat="48.57868" lon="-4.03557">
        <ele>86</ele>
        <time>2020-06-10T10:37:49Z</time>
      </trkpt>
      <trkpt lat="48.57868" lon="-4.03551">
        <ele>85.9</ele>
        <time>2020-06-10T10:37:50Z</time>
      </trkpt>
      <trkpt lat="48.57868" lon="-4.03545">
        <ele>85.9</ele>
        <time>2020-06-10T10:37:51Z</time>
      </trkpt>
      <trkpt lat="48.57869" lon="-4.03538">
        <ele>85.8</ele>
        <time>2020-06-10T10:37:52Z</time>
      </trkpt>
      <trkpt lat="48.57869" lon="-4.03532">
        <ele>85.7</ele>
        <time>2020-06-10T10:37:53Z</time>
      </trkpt>
      <trkpt lat="48.57869" lon="-4.03525">
        <ele>85.7</ele>
        <time>2020-06-10T10:37:54Z</time>
      </trkpt>
      <trkpt lat="48.57869" lon="-4.03518">
        <ele>85.6</ele>
        <time>2020-06-10T10:37:55Z</time>
      </trkpt>
      <trkpt lat="48.57869" lon="-4.03511">
        <ele>85.5</ele>
        <time>2020-06-10T10:37:56Z</time>
      </trkpt>
      <trkpt lat="48.57868" lon="-4.03503">
        <ele>85.4</ele>
        <time>2020-06-10T10:37:57Z</time>
      </trkpt>
      <trkpt lat="48.57868" lon="-4.03496">
        <ele>85.3</ele>
        <time>2020-06-10T10:37:58Z</time>
      </trkpt>
      <trkpt lat="48.57868" lon="-4.03489">
        <ele>85.2</ele>
        <time>2020-06-10T10:37:59Z</time>
      </trkpt>
      <trkpt lat="48.57868" lon="-4.03481">
        <ele>85.1</ele>
        <time>2020-06-10T10:38:00Z</time>
      </trkpt>
      <trkpt lat="48.57868" lon="-4.03474">
        <ele>84.9</ele>
        <time>2020-06-10T10:38:01Z</time>
      </trkpt>
      <trkpt lat="48.57868" lon="-4.03465">
        <ele>84.8</ele>
        <time>2020-06-10T10:38:02Z</time>
      </trkpt>
      <trkpt lat="48.57869" lon="-4.03459">
        <ele>84.7</ele>
        <time>2020-06-10T10:38:03Z</time>
      </trkpt>
      <trkpt lat="48.57869" lon="-4.0345">
        <ele>84.6</ele>
        <time>2020-06-10T10:38:04Z</time>
      </trkpt>
      <trkpt lat="48.5787" lon="-4.03441">
        <ele>84.5</ele>
        <time>2020-06-10T10:38:05Z</time>
      </trkpt>
      <trkpt lat="48.5787" lon="-4.03432">
        <ele>84.4</ele>
        <time>2020-06-10T10:38:06Z</time>
      </trkpt>
      <trkpt lat="48.57871" lon="-4.03421">
        <ele>84.3</ele>
        <time>2020-06-10T10:38:07Z</time>
      </trkpt>
      <trkpt lat="48.57872" lon="-4.03412">
        <ele>84.2</ele>
        <time>2020-06-10T10:38:08Z</time>
      </trkpt>
      <trkpt lat="48.57873" lon="-4.03406">
        <ele>84.1</ele>
        <time>2020-06-10T10:38:09Z</time>
      </trkpt>
      <trkpt lat="48.57874" lon="-4.03397">
        <ele>84</ele>
        <time>2020-06-10T10:38:10Z</time>
      </trkpt>
      <trkpt lat="48.57875" lon="-4.03388">
        <ele>84</ele>
        <time>2020-06-10T10:38:11Z</time>
      </trkpt>
      <trkpt lat="48.57876" lon="-4.03379">
        <ele>83.9</ele>
        <time>2020-06-10T10:38:12Z</time>
      </trkpt>
      <trkpt lat="48.57876" lon="-4.03371">
        <ele>83.8</ele>
        <time>2020-06-10T10:38:13Z</time>
      </trkpt>
      <trkpt lat="48.57877" lon="-4.03363">
        <ele>83.7</ele>
        <time>2020-06-10T10:38:14Z</time>
      </trkpt>
      <trkpt lat="48.57878" lon="-4.03355">
        <ele>83.6</ele>
        <time>2020-06-10T10:38:15Z</time>
      </trkpt>
      <trkpt lat="48.57878" lon="-4.03348">
        <ele>83.5</ele>
        <time>2020-06-10T10:38:16Z</time>
      </trkpt>
      <trkpt lat="48.57879" lon="-4.03341">
        <ele>83.3</ele>
        <time>2020-06-10T10:38:17Z</time>
      </trkpt>
      <trkpt lat="48.5788" lon="-4.03333">
        <ele>83.2</ele>
        <time>2020-06-10T10:38:18Z</time>
      </trkpt>
      <trkpt lat="48.57882" lon="-4.03323">
        <ele>83</ele>
        <time>2020-06-10T10:38:19Z</time>
      </trkpt>
      <trkpt lat="48.57883" lon="-4.03315">
        <ele>82.9</ele>
        <time>2020-06-10T10:38:20Z</time>
      </trkpt>
      <trkpt lat="48.57884" lon="-4.03305">
        <ele>82.7</ele>
        <time>2020-06-10T10:38:21Z</time>
      </trkpt>
      <trkpt lat="48.57886" lon="-4.03297">
        <ele>82.6</ele>
        <time>2020-06-10T10:38:22Z</time>
      </trkpt>
      <trkpt lat="48.57887" lon="-4.03289">
        <ele>82.4</ele>
        <time>2020-06-10T10:38:23Z</time>
      </trkpt>
      <trkpt lat="48.57889" lon="-4.03281">
        <ele>82.3</ele>
        <time>2020-06-10T10:38:24Z</time>
      </trkpt>
      <trkpt lat="48.57891" lon="-4.03272">
        <ele>82.1</ele>
        <time>2020-06-10T10:38:25Z</time>
      </trkpt>
      <trkpt lat="48.57893" lon="-4.03263">
        <ele>81.9</ele>
        <time>2020-06-10T10:38:26Z</time>
      </trkpt>
      <trkpt lat="48.57895" lon="-4.03254">
        <ele>81.7</ele>
        <time>2020-06-10T10:38:27Z</time>
      </trkpt>
      <trkpt lat="48.57898" lon="-4.03244">
        <ele>81.5</ele>
        <time>2020-06-10T10:38:28Z</time>
      </trkpt>
      <trkpt lat="48.579" lon="-4.03234">
        <ele>81.3</ele>
        <time>2020-06-10T10:38:29Z</time>
      </trkpt>
      <trkpt lat="48.57902" lon="-4.03224">
        <ele>81</ele>
        <time>2020-06-10T10:38:30Z</time>
      </trkpt>
      <trkpt lat="48.57905" lon="-4.03214">
        <ele>80.8</ele>
        <time>2020-06-10T10:38:31Z</time>
      </trkpt>
      <trkpt lat="48.57907" lon="-4.03205">
        <ele>80.6</ele>
        <time>2020-06-10T10:38:32Z</time>
      </trkpt>
      <trkpt lat="48.5791" lon="-4.03195">
        <ele>80.4</ele>
        <time>2020-06-10T10:38:33Z</time>
      </trkpt>
      <trkpt lat="48.57912" lon="-4.03185">
        <ele>80.2</ele>
        <time>2020-06-10T10:38:34Z</time>
      </trkpt>
      <trkpt lat="48.57914" lon="-4.03176">
        <ele>80</ele>
        <time>2020-06-10T10:38:35Z</time>
      </trkpt>
      <trkpt lat="48.57917" lon="-4.03165">
        <ele>79.7</ele>
        <time>2020-06-10T10:38:36Z</time>
      </trkpt>
      <trkpt lat="48.57919" lon="-4.03155">
        <ele>79.4</ele>
        <time>2020-06-10T10:38:37Z</time>
      </trkpt>
      <trkpt lat="48.57922" lon="-4.03144">
        <ele>79.2</ele>
        <time>2020-06-10T10:38:38Z</time>
      </trkpt>
      <trkpt lat="48.57925" lon="-4.03134">
        <ele>78.9</ele>
        <time>2020-06-10T10:38:39Z</time>
      </trkpt>
      <trkpt lat="48.57928" lon="-4.03124">
        <ele>78.7</ele>
        <time>2020-06-10T10:38:40Z</time>
      </trkpt>
      <trkpt lat="48.57931" lon="-4.03113">
        <ele>78.4</ele>
        <time>2020-06-10T10:38:41Z</time>
      </trkpt>
      <trkpt lat="48.57933" lon="-4.03102">
        <ele>78.1</ele>
        <time>2020-06-10T10:38:42Z</time>
      </trkpt>
      <trkpt lat="48.57937" lon="-4.03092">
        <ele>77.8</ele>
        <time>2020-06-10T10:38:43Z</time>
      </trkpt>
      <trkpt lat="48.5794" lon="-4.03081">
        <ele>77.6</ele>
        <time>2020-06-10T10:38:44Z</time>
      </trkpt>
      <trkpt lat="48.57943" lon="-4.0307">
        <ele>77.3</ele>
        <time>2020-06-10T10:38:45Z</time>
      </trkpt>
      <trkpt lat="48.57945" lon="-4.03059">
        <ele>77</ele>
        <time>2020-06-10T10:38:46Z</time>
      </trkpt>
      <trkpt lat="48.57948" lon="-4.03047">
        <ele>76.7</ele>
        <time>2020-06-10T10:38:47Z</time>
      </trkpt>
      <trkpt lat="48.57951" lon="-4.03036">
        <ele>76.4</ele>
        <time>2020-06-10T10:38:48Z</time>
      </trkpt>
      <trkpt lat="48.57954" lon="-4.03025">
        <ele>76.2</ele>
        <time>2020-06-10T10:38:49Z</time>
      </trkpt>
      <trkpt lat="48.57957" lon="-4.03013">
        <ele>76</ele>
        <time>2020-06-10T10:38:50Z</time>
      </trkpt>
      <trkpt lat="48.57959" lon="-4.03002">
        <ele>75.7</ele>
        <time>2020-06-10T10:38:51Z</time>
      </trkpt>
      <trkpt lat="48.57962" lon="-4.02991">
        <ele>75.5</ele>
        <time>2020-06-10T10:38:52Z</time>
      </trkpt>
      <trkpt lat="48.57965" lon="-4.02979">
        <ele>75.2</ele>
        <time>2020-06-10T10:38:53Z</time>
      </trkpt>
      <trkpt lat="48.57968" lon="-4.02968">
        <ele>75</ele>
        <time>2020-06-10T10:38:54Z</time>
      </trkpt>
      <trkpt lat="48.57971" lon="-4.02958">
        <ele>74.7</ele>
        <time>2020-06-10T10:38:55Z</time>
      </trkpt>
      <trkpt lat="48.57974" lon="-4.02947">
        <ele>74.5</ele>
        <time>2020-06-10T10:38:56Z</time>
      </trkpt>
      <trkpt lat="48.57976" lon="-4.02937">
        <ele>74.3</ele>
        <time>2020-06-10T10:38:57Z</time>
      </trkpt>
      <trkpt lat="48.57977" lon="-4.02928">
        <ele>74.2</ele>
        <time>2020-06-10T10:38:58Z</time>
      </trkpt>
      <trkpt lat="48.57979" lon="-4.02918">
        <ele>74.2</ele>
        <time>2020-06-10T10:38:59Z</time>
      </trkpt>
      <trkpt lat="48.57981" lon="-4.02909">
        <ele>74.5</ele>
        <time>2020-06-10T10:39:00Z</time>
      </trkpt>
      <trkpt lat="48.57983" lon="-4.029">
        <ele>74.2</ele>
        <time>2020-06-10T10:39:01Z</time>
      </trkpt>
      <trkpt lat="48.57987" lon="-4.02891">
        <ele>73.9</ele>
        <time>2020-06-10T10:39:02Z</time>
      </trkpt>
      <trkpt lat="48.57991" lon="-4.02882">
        <ele>73.6</ele>
        <time>2020-06-10T10:39:03Z</time>
      </trkpt>
      <trkpt lat="48.57995" lon="-4.02873">
        <ele>73.3</ele>
        <time>2020-06-10T10:39:04Z</time>
      </trkpt>
      <trkpt lat="48.57999" lon="-4.02863">
        <ele>73.1</ele>
        <time>2020-06-10T10:39:05Z</time>
      </trkpt>
      <trkpt lat="48.58002" lon="-4.02852">
        <ele>72.7</ele>
        <time>2020-06-10T10:39:06Z</time>
      </trkpt>
      <trkpt lat="48.58005" lon="-4.02842">
        <ele>72.4</ele>
        <time>2020-06-10T10:39:07Z</time>
      </trkpt>
      <trkpt lat="48.58009" lon="-4.02831">
        <ele>72.1</ele>
        <time>2020-06-10T10:39:08Z</time>
      </trkpt>
      <trkpt lat="48.58012" lon="-4.02821">
        <ele>71.8</ele>
        <time>2020-06-10T10:39:09Z</time>
      </trkpt>
      <trkpt lat="48.58015" lon="-4.0281">
        <ele>71.5</ele>
        <time>2020-06-10T10:39:10Z</time>
      </trkpt>
      <trkpt lat="48.58018" lon="-4.02799">
        <ele>71.2</ele>
        <time>2020-06-10T10:39:11Z</time>
      </trkpt>
      <trkpt lat="48.58021" lon="-4.02789">
        <ele>70.8</ele>
        <time>2020-06-10T10:39:12Z</time>
      </trkpt>
      <trkpt lat="48.58024" lon="-4.02778">
        <ele>70.5</ele>
        <time>2020-06-10T10:39:13Z</time>
      </trkpt>
      <trkpt lat="48.58027" lon="-4.02767">
        <ele>70.1</ele>
        <time>2020-06-10T10:39:14Z</time>
      </trkpt>
      <trkpt lat="48.58031" lon="-4.02756">
        <ele>69.6</ele>
        <time>2020-06-10T10:39:15Z</time>
      </trkpt>
      <trkpt lat="48.58034" lon="-4.02744">
        <ele>69.2</ele>
        <time>2020-06-10T10:39:16Z</time>
      </trkpt>
      <trkpt lat="48.58038" lon="-4.02732">
        <ele>68.7</ele>
        <time>2020-06-10T10:39:17Z</time>
      </trkpt>
      <trkpt lat="48.58041" lon="-4.0272">
        <ele>68.2</ele>
        <time>2020-06-10T10:39:18Z</time>
      </trkpt>
      <trkpt lat="48.58044" lon="-4.02708">
        <ele>67.7</ele>
        <time>2020-06-10T10:39:19Z</time>
      </trkpt>
      <trkpt lat="48.58048" lon="-4.02695">
        <ele>67.2</ele>
        <time>2020-06-10T10:39:20Z</time>
      </trkpt>
      <trkpt lat="48.58051" lon="-4.02681">
        <ele>66.7</ele>
        <time>2020-06-10T10:39:21Z</time>
      </trkpt>
      <trkpt lat="48.58054" lon="-4.02668">
        <ele>66.3</ele>
        <time>2020-06-10T10:39:22Z</time>
      </trkpt>
      <trkpt lat="48.58057" lon="-4.02653">
        <ele>65.7</ele>
        <time>2020-06-10T10:39:23Z</time>
      </trkpt>
      <trkpt lat="48.58059" lon="-4.02638">
        <ele>65.1</ele>
        <time>2020-06-10T10:39:24Z</time>
      </trkpt>
      <trkpt lat="48.58061" lon="-4.02623">
        <ele>64.5</ele>
        <time>2020-06-10T10:39:25Z</time>
      </trkpt>
      <trkpt lat="48.58063" lon="-4.02608">
        <ele>63.9</ele>
        <time>2020-06-10T10:39:26Z</time>
      </trkpt>
      <trkpt lat="48.58064" lon="-4.02593">
        <ele>63.5</ele>
        <time>2020-06-10T10:39:27Z</time>
      </trkpt>
      <trkpt lat="48.58065" lon="-4.02577">
        <ele>63.1</ele>
        <time>2020-06-10T10:39:28Z</time>
      </trkpt>
      <trkpt lat="48.58066" lon="-4.02561">
        <ele>62.7</ele>
        <time>2020-06-10T10:39:29Z</time>
      </trkpt>
      <trkpt lat="48.58068" lon="-4.02545">
        <ele>62.3</ele>
        <time>2020-06-10T10:39:30Z</time>
      </trkpt>
      <trkpt lat="48.58068" lon="-4.0253">
        <ele>61.8</ele>
        <time>2020-06-10T10:39:31Z</time>
      </trkpt>
      <trkpt lat="48.58069" lon="-4.02514">
        <ele>61.2</ele>
        <time>2020-06-10T10:39:32Z</time>
      </trkpt>
      <trkpt lat="48.58068" lon="-4.02498">
        <ele>60.6</ele>
        <time>2020-06-10T10:39:33Z</time>
      </trkpt>
      <trkpt lat="48.58068" lon="-4.02483">
        <ele>60</ele>
        <time>2020-06-10T10:39:34Z</time>
      </trkpt>
      <trkpt lat="48.58067" lon="-4.02467">
        <ele>59.3</ele>
        <time>2020-06-10T10:39:35Z</time>
      </trkpt>
      <trkpt lat="48.58066" lon="-4.02451">
        <ele>58.7</ele>
        <time>2020-06-10T10:39:36Z</time>
      </trkpt>
      <trkpt lat="48.58064" lon="-4.02434">
        <ele>58.1</ele>
        <time>2020-06-10T10:39:37Z</time>
      </trkpt>
      <trkpt lat="48.58061" lon="-4.02418">
        <ele>57.4</ele>
        <time>2020-06-10T10:39:38Z</time>
      </trkpt>
      <trkpt lat="48.58059" lon="-4.02402">
        <ele>56.8</ele>
        <time>2020-06-10T10:39:39Z</time>
      </trkpt>
      <trkpt lat="48.58056" lon="-4.02385">
        <ele>56.2</ele>
        <time>2020-06-10T10:39:40Z</time>
      </trkpt>
      <trkpt lat="48.58053" lon="-4.02368">
        <ele>55.6</ele>
        <time>2020-06-10T10:39:41Z</time>
      </trkpt>
      <trkpt lat="48.5805" lon="-4.02352">
        <ele>55.2</ele>
        <time>2020-06-10T10:39:42Z</time>
      </trkpt>
      <trkpt lat="48.58047" lon="-4.02335">
        <ele>54.8</ele>
        <time>2020-06-10T10:39:43Z</time>
      </trkpt>
      <trkpt lat="48.58044" lon="-4.02319">
        <ele>54.5</ele>
        <time>2020-06-10T10:39:44Z</time>
      </trkpt>
      <trkpt lat="48.58041" lon="-4.02303">
        <ele>54.5</ele>
        <time>2020-06-10T10:39:45Z</time>
      </trkpt>
      <trkpt lat="48.58039" lon="-4.02287">
        <ele>54.2</ele>
        <time>2020-06-10T10:39:46Z</time>
      </trkpt>
      <trkpt lat="48.58036" lon="-4.02273">
        <ele>54.1</ele>
        <time>2020-06-10T10:39:47Z</time>
      </trkpt>
      <trkpt lat="48.58033" lon="-4.02258">
        <ele>54</ele>
        <time>2020-06-10T10:39:48Z</time>
      </trkpt>
      <trkpt lat="48.5803" lon="-4.02244">
        <ele>54</ele>
        <time>2020-06-10T10:39:49Z</time>
      </trkpt>
      <trkpt lat="48.58028" lon="-4.0223">
        <ele>54.1</ele>
        <time>2020-06-10T10:39:50Z</time>
      </trkpt>
      <trkpt lat="48.58026" lon="-4.02218">
        <ele>54.2</ele>
        <time>2020-06-10T10:39:51Z</time>
      </trkpt>
      <trkpt lat="48.58024" lon="-4.02205">
        <ele>54.3</ele>
        <time>2020-06-10T10:39:52Z</time>
      </trkpt>
      <trkpt lat="48.58023" lon="-4.02193">
        <ele>54.5</ele>
        <time>2020-06-10T10:39:53Z</time>
      </trkpt>
      <trkpt lat="48.58022" lon="-4.02181">
        <ele>54.7</ele>
        <time>2020-06-10T10:39:54Z</time>
      </trkpt>
      <trkpt lat="48.58022" lon="-4.0217">
        <ele>55</ele>
        <time>2020-06-10T10:39:55Z</time>
      </trkpt>
      <trkpt lat="48.58021" lon="-4.02159">
        <ele>55.2</ele>
        <time>2020-06-10T10:39:56Z</time>
      </trkpt>
      <trkpt lat="48.5802" lon="-4.02149">
        <ele>55.4</ele>
        <time>2020-06-10T10:39:57Z</time>
      </trkpt>
      <trkpt lat="48.5802" lon="-4.02138">
        <ele>55.6</ele>
        <time>2020-06-10T10:39:58Z</time>
      </trkpt>
      <trkpt lat="48.5802" lon="-4.02129">
        <ele>55.9</ele>
        <time>2020-06-10T10:39:59Z</time>
      </trkpt>
      <trkpt lat="48.5802" lon="-4.02119">
        <ele>56.1</ele>
        <time>2020-06-10T10:40:00Z</time>
      </trkpt>
      <trkpt lat="48.58021" lon="-4.0211">
        <ele>56.4</ele>
        <time>2020-06-10T10:40:01Z</time>
      </trkpt>
      <trkpt lat="48.58021" lon="-4.02101">
        <ele>56.7</ele>
        <time>2020-06-10T10:40:02Z</time>
      </trkpt>
      <trkpt lat="48.58022" lon="-4.02093">
        <ele>57</ele>
        <time>2020-06-10T10:40:03Z</time>
      </trkpt>
      <trkpt lat="48.58022" lon="-4.02085">
        <ele>57.2</ele>
        <time>2020-06-10T10:40:04Z</time>
      </trkpt>
      <trkpt lat="48.58023" lon="-4.02078">
        <ele>57.5</ele>
        <time>2020-06-10T10:40:05Z</time>
      </trkpt>
      <trkpt lat="48.58024" lon="-4.0207">
        <ele>57.8</ele>
        <time>2020-06-10T10:40:06Z</time>
      </trkpt>
      <trkpt lat="48.58025" lon="-4.02063">
        <ele>58</ele>
        <time>2020-06-10T10:40:07Z</time>
      </trkpt>
      <trkpt lat="48.58025" lon="-4.02056">
        <ele>58.3</ele>
        <time>2020-06-10T10:40:08Z</time>
      </trkpt>
      <trkpt lat="48.58026" lon="-4.0205">
        <ele>58.5</ele>
        <time>2020-06-10T10:40:09Z</time>
      </trkpt>
      <trkpt lat="48.58026" lon="-4.02044">
        <ele>58.7</ele>
        <time>2020-06-10T10:40:10Z</time>
      </trkpt>
      <trkpt lat="48.58026" lon="-4.02038">
        <ele>59</ele>
        <time>2020-06-10T10:40:11Z</time>
      </trkpt>
      <trkpt lat="48.58026" lon="-4.02032">
        <ele>59.2</ele>
        <time>2020-06-10T10:40:12Z</time>
      </trkpt>
      <trkpt lat="48.58027" lon="-4.02026">
        <ele>59.4</ele>
        <time>2020-06-10T10:40:13Z</time>
      </trkpt>
      <trkpt lat="48.58026" lon="-4.02021">
        <ele>59.6</ele>
        <time>2020-06-10T10:40:14Z</time>
      </trkpt>
      <trkpt lat="48.58027" lon="-4.02016">
        <ele>59.8</ele>
        <time>2020-06-10T10:40:15Z</time>
      </trkpt>
      <trkpt lat="48.58027" lon="-4.02011">
        <ele>60</ele>
        <time>2020-06-10T10:40:16Z</time>
      </trkpt>
      <trkpt lat="48.58027" lon="-4.02006">
        <ele>60.2</ele>
        <time>2020-06-10T10:40:17Z</time>
      </trkpt>
      <trkpt lat="48.58027" lon="-4.02001">
        <ele>60.3</ele>
        <time>2020-06-10T10:40:18Z</time>
      </trkpt>
      <trkpt lat="48.58027" lon="-4.01997">
        <ele>60.5</ele>
        <time>2020-06-10T10:40:19Z</time>
      </trkpt>
      <trkpt lat="48.58027" lon="-4.01991">
        <ele>60.7</ele>
        <time>2020-06-10T10:40:20Z</time>
      </trkpt>
      <trkpt lat="48.58026" lon="-4.01985">
        <ele>61</ele>
        <time>2020-06-10T10:40:21Z</time>
      </trkpt>
      <trkpt lat="48.58026" lon="-4.0198">
        <ele>61.1</ele>
        <time>2020-06-10T10:40:22Z</time>
      </trkpt>
      <trkpt lat="48.58026" lon="-4.01975">
        <ele>61.3</ele>
        <time>2020-06-10T10:40:23Z</time>
      </trkpt>
      <trkpt lat="48.58026" lon="-4.0197">
        <ele>61.5</ele>
        <time>2020-06-10T10:40:24Z</time>
      </trkpt>
      <trkpt lat="48.58026" lon="-4.01969">
        <ele>61.5</ele>
        <time>2020-06-10T10:40:25Z</time>
      </trkpt>
      <trkpt lat="48.58026" lon="-4.01963">
        <ele>61.7</ele>
        <time>2020-06-10T10:40:26Z</time>
      </trkpt>
      <trkpt lat="48.58026" lon="-4.01961">
        <ele>61.8</ele>
        <time>2020-06-10T10:40:27Z</time>
      </trkpt>
      <trkpt lat="48.58026" lon="-4.01955">
        <ele>62</ele>
        <time>2020-06-10T10:40:28Z</time>
      </trkpt>
      <trkpt lat="48.58026" lon="-4.01951">
        <ele>62.1</ele>
        <time>2020-06-10T10:40:29Z</time>
      </trkpt>
      <trkpt lat="48.58026" lon="-4.01947">
        <ele>62.4</ele>
        <time>2020-06-10T10:40:30Z</time>
      </trkpt>
      <trkpt lat="48.58026" lon="-4.01942">
        <ele>62.6</ele>
        <time>2020-06-10T10:40:31Z</time>
      </trkpt>
      <trkpt lat="48.58027" lon="-4.01936">
        <ele>62.9</ele>
        <time>2020-06-10T10:40:32Z</time>
      </trkpt>
      <trkpt lat="48.58028" lon="-4.01932">
        <ele>63.1</ele>
        <time>2020-06-10T10:40:33Z</time>
      </trkpt>
      <trkpt lat="48.58029" lon="-4.01928">
        <ele>63.3</ele>
        <time>2020-06-10T10:40:34Z</time>
      </trkpt>
      <trkpt lat="48.58029" lon="-4.01926">
        <ele>63.4</ele>
        <time>2020-06-10T10:40:35Z</time>
      </trkpt>
      <trkpt lat="48.58029" lon="-4.0192">
        <ele>63.7</ele>
        <time>2020-06-10T10:40:36Z</time>
      </trkpt>
      <trkpt lat="48.58029" lon="-4.01918">
        <ele>63.8</ele>
        <time>2020-06-10T10:40:37Z</time>
      </trkpt>
      <trkpt lat="48.58029" lon="-4.01913">
        <ele>64</ele>
        <time>2020-06-10T10:40:38Z</time>
      </trkpt>
      <trkpt lat="48.5803" lon="-4.01907">
        <ele>64.2</ele>
        <time>2020-06-10T10:40:39Z</time>
      </trkpt>
      <trkpt lat="48.5803" lon="-4.01905">
        <ele>64.3</ele>
        <time>2020-06-10T10:40:40Z</time>
      </trkpt>
      <trkpt lat="48.5803" lon="-4.01901">
        <ele>64.5</ele>
        <time>2020-06-10T10:40:41Z</time>
      </trkpt>
      <trkpt lat="48.5803" lon="-4.01896">
        <ele>64.7</ele>
        <time>2020-06-10T10:40:42Z</time>
      </trkpt>
      <trkpt lat="48.5803" lon="-4.01893">
        <ele>64.8</ele>
        <time>2020-06-10T10:40:43Z</time>
      </trkpt>
      <trkpt lat="48.5803" lon="-4.01889">
        <ele>65</ele>
        <time>2020-06-10T10:40:44Z</time>
      </trkpt>
      <trkpt lat="48.5803" lon="-4.01884">
        <ele>65.2</ele>
        <time>2020-06-10T10:40:45Z</time>
      </trkpt>
      <trkpt lat="48.5803" lon="-4.01882">
        <ele>65.3</ele>
        <time>2020-06-10T10:40:46Z</time>
      </trkpt>
      <trkpt lat="48.5803" lon="-4.01876">
        <ele>65.5</ele>
        <time>2020-06-10T10:40:47Z</time>
      </trkpt>
      <trkpt lat="48.5803" lon="-4.01873">
        <ele>65.6</ele>
        <time>2020-06-10T10:40:48Z</time>
      </trkpt>
      <trkpt lat="48.58031" lon="-4.01868">
        <ele>65.8</ele>
        <time>2020-06-10T10:40:49Z</time>
      </trkpt>
      <trkpt lat="48.58031" lon="-4.01866">
        <ele>65.9</ele>
        <time>2020-06-10T10:40:50Z</time>
      </trkpt>
      <trkpt lat="48.58031" lon="-4.01862">
        <ele>66.1</ele>
        <time>2020-06-10T10:40:51Z</time>
      </trkpt>
      <trkpt lat="48.58031" lon="-4.0186">
        <ele>66.2</ele>
        <time>2020-06-10T10:40:52Z</time>
      </trkpt>
      <trkpt lat="48.58031" lon="-4.01855">
        <ele>66.4</ele>
        <time>2020-06-10T10:40:53Z</time>
      </trkpt>
      <trkpt lat="48.58031" lon="-4.01851">
        <ele>66.6</ele>
        <time>2020-06-10T10:40:54Z</time>
      </trkpt>
      <trkpt lat="48.58031" lon="-4.01849">
        <ele>66.7</ele>
        <time>2020-06-10T10:40:55Z</time>
      </trkpt>
      <trkpt lat="48.58031" lon="-4.01846">
        <ele>66.8</ele>
        <time>2020-06-10T10:40:56Z</time>
      </trkpt>
      <trkpt lat="48.5803" lon="-4.0184">
        <ele>67</ele>
        <time>2020-06-10T10:40:57Z</time>
      </trkpt>
      <trkpt lat="48.5803" lon="-4.01836">
        <ele>67.2</ele>
        <time>2020-06-10T10:40:58Z</time>
      </trkpt>
      <trkpt lat="48.58029" lon="-4.01831">
        <ele>67.4</ele>
        <time>2020-06-10T10:40:59Z</time>
      </trkpt>
      <trkpt lat="48.58029" lon="-4.01827">
        <ele>67.6</ele>
        <time>2020-06-10T10:41:00Z</time>
      </trkpt>
      <trkpt lat="48.58029" lon="-4.0182">
        <ele>67.8</ele>
        <time>2020-06-10T10:41:01Z</time>
      </trkpt>
      <trkpt lat="48.58029" lon="-4.01818">
        <ele>67.9</ele>
        <time>2020-06-10T10:41:02Z</time>
      </trkpt>
      <trkpt lat="48.58029" lon="-4.01812">
        <ele>68.1</ele>
        <time>2020-06-10T10:41:03Z</time>
      </trkpt>
      <trkpt lat="48.58029" lon="-4.0181">
        <ele>68.2</ele>
        <time>2020-06-10T10:41:04Z</time>
      </trkpt>
      <trkpt lat="48.58028" lon="-4.01806">
        <ele>68.4</ele>
        <time>2020-06-10T10:41:05Z</time>
      </trkpt>
      <trkpt lat="48.58028" lon="-4.018">
        <ele>68.6</ele>
        <time>2020-06-10T10:41:06Z</time>
      </trkpt>
      <trkpt lat="48.58028" lon="-4.01797">
        <ele>68.7</ele>
        <time>2020-06-10T10:41:07Z</time>
      </trkpt>
      <trkpt lat="48.58028" lon="-4.01792">
        <ele>68.9</ele>
        <time>2020-06-10T10:41:08Z</time>
      </trkpt>
      <trkpt lat="48.58028" lon="-4.0179">
        <ele>69</ele>
        <time>2020-06-10T10:41:09Z</time>
      </trkpt>
      <trkpt lat="48.58027" lon="-4.01785">
        <ele>69.2</ele>
        <time>2020-06-10T10:41:10Z</time>
      </trkpt>
      <trkpt lat="48.58027" lon="-4.01783">
        <ele>69.2</ele>
        <time>2020-06-10T10:41:11Z</time>
      </trkpt>
      <trkpt lat="48.58027" lon="-4.01777">
        <ele>69.4</ele>
        <time>2020-06-10T10:41:12Z</time>
      </trkpt>
      <trkpt lat="48.58027" lon="-4.01774">
        <ele>69.5</ele>
        <time>2020-06-10T10:41:13Z</time>
      </trkpt>
      <trkpt lat="48.58026" lon="-4.01769">
        <ele>69.7</ele>
        <time>2020-06-10T10:41:14Z</time>
      </trkpt>
      <trkpt lat="48.58026" lon="-4.01764">
        <ele>69.9</ele>
        <time>2020-06-10T10:41:15Z</time>
      </trkpt>
      <trkpt lat="48.58026" lon="-4.01758">
        <ele>70.1</ele>
        <time>2020-06-10T10:41:16Z</time>
      </trkpt>
      <trkpt lat="48.58025" lon="-4.01753">
        <ele>70.2</ele>
        <time>2020-06-10T10:41:17Z</time>
      </trkpt>
      <trkpt lat="48.58025" lon="-4.01747">
        <ele>70.4</ele>
        <time>2020-06-10T10:41:18Z</time>
      </trkpt>
      <trkpt lat="48.58024" lon="-4.01744">
        <ele>70.5</ele>
        <time>2020-06-10T10:41:19Z</time>
      </trkpt>
      <trkpt lat="48.58023" lon="-4.0174">
        <ele>70.6</ele>
        <time>2020-06-10T10:41:20Z</time>
      </trkpt>
      <trkpt lat="48.58022" lon="-4.01735">
        <ele>70.8</ele>
        <time>2020-06-10T10:41:21Z</time>
      </trkpt>
      <trkpt lat="48.58022" lon="-4.0173">
        <ele>71</ele>
        <time>2020-06-10T10:41:22Z</time>
      </trkpt>
      <trkpt lat="48.58021" lon="-4.01724">
        <ele>71.1</ele>
        <time>2020-06-10T10:41:23Z</time>
      </trkpt>
      <trkpt lat="48.58021" lon="-4.01719">
        <ele>71.3</ele>
        <time>2020-06-10T10:41:24Z</time>
      </trkpt>
      <trkpt lat="48.5802" lon="-4.01713">
        <ele>71.5</ele>
        <time>2020-06-10T10:41:25Z</time>
      </trkpt>
      <trkpt lat="48.5802" lon="-4.01708">
        <ele>71.6</ele>
        <time>2020-06-10T10:41:26Z</time>
      </trkpt>
      <trkpt lat="48.58019" lon="-4.01704">
        <ele>71.8</ele>
        <time>2020-06-10T10:41:27Z</time>
      </trkpt>
      <trkpt lat="48.58019" lon="-4.01699">
        <ele>71.9</ele>
        <time>2020-06-10T10:41:28Z</time>
      </trkpt>
      <trkpt lat="48.58018" lon="-4.01693">
        <ele>72.1</ele>
        <time>2020-06-10T10:41:29Z</time>
      </trkpt>
      <trkpt lat="48.58017" lon="-4.01688">
        <ele>72.3</ele>
        <time>2020-06-10T10:41:30Z</time>
      </trkpt>
      <trkpt lat="48.58017" lon="-4.01682">
        <ele>72.4</ele>
        <time>2020-06-10T10:41:31Z</time>
      </trkpt>
      <trkpt lat="48.58017" lon="-4.01677">
        <ele>72.6</ele>
        <time>2020-06-10T10:41:32Z</time>
      </trkpt>
      <trkpt lat="48.58016" lon="-4.01673">
        <ele>72.7</ele>
        <time>2020-06-10T10:41:33Z</time>
      </trkpt>
      <trkpt lat="48.58016" lon="-4.0167">
        <ele>72.8</ele>
        <time>2020-06-10T10:41:34Z</time>
      </trkpt>
      <trkpt lat="48.58015" lon="-4.01665">
        <ele>73</ele>
        <time>2020-06-10T10:41:35Z</time>
      </trkpt>
      <trkpt lat="48.58015" lon="-4.01659">
        <ele>73.1</ele>
        <time>2020-06-10T10:41:36Z</time>
      </trkpt>
      <trkpt lat="48.58014" lon="-4.01654">
        <ele>73.3</ele>
        <time>2020-06-10T10:41:37Z</time>
      </trkpt>
      <trkpt lat="48.58014" lon="-4.01648">
        <ele>73.5</ele>
        <time>2020-06-10T10:41:38Z</time>
      </trkpt>
      <trkpt lat="48.58014" lon="-4.01645">
        <ele>73.6</ele>
        <time>2020-06-10T10:41:39Z</time>
      </trkpt>
      <trkpt lat="48.58014" lon="-4.01639">
        <ele>73.7</ele>
        <time>2020-06-10T10:41:40Z</time>
      </trkpt>
      <trkpt lat="48.58014" lon="-4.01636">
        <ele>73.8</ele>
        <time>2020-06-10T10:41:41Z</time>
      </trkpt>
      <trkpt lat="48.58014" lon="-4.01633">
        <ele>73.9</ele>
        <time>2020-06-10T10:41:42Z</time>
      </trkpt>
      <trkpt lat="48.58013" lon="-4.01628">
        <ele>74</ele>
        <time>2020-06-10T10:41:43Z</time>
      </trkpt>
      <trkpt lat="48.58013" lon="-4.01622">
        <ele>74.2</ele>
        <time>2020-06-10T10:41:44Z</time>
      </trkpt>
      <trkpt lat="48.58013" lon="-4.01619">
        <ele>74.3</ele>
        <time>2020-06-10T10:41:45Z</time>
      </trkpt>
      <trkpt lat="48.58012" lon="-4.01613">
        <ele>74.4</ele>
        <time>2020-06-10T10:41:46Z</time>
      </trkpt>
      <trkpt lat="48.58012" lon="-4.01609">
        <ele>74.6</ele>
        <time>2020-06-10T10:41:47Z</time>
      </trkpt>
      <trkpt lat="48.58012" lon="-4.01603">
        <ele>74.7</ele>
        <time>2020-06-10T10:41:48Z</time>
      </trkpt>
      <trkpt lat="48.58012" lon="-4.01598">
        <ele>74.9</ele>
        <time>2020-06-10T10:41:49Z</time>
      </trkpt>
      <trkpt lat="48.58013" lon="-4.01596">
        <ele>74.9</ele>
        <time>2020-06-10T10:41:50Z</time>
      </trkpt>
      <trkpt lat="48.58012" lon="-4.01591">
        <ele>75.1</ele>
        <time>2020-06-10T10:41:51Z</time>
      </trkpt>
      <trkpt lat="48.58013" lon="-4.01587">
        <ele>75.2</ele>
        <time>2020-06-10T10:41:52Z</time>
      </trkpt>
      <trkpt lat="48.58013" lon="-4.01582">
        <ele>75.3</ele>
        <time>2020-06-10T10:41:53Z</time>
      </trkpt>
      <trkpt lat="48.58013" lon="-4.01578">
        <ele>75.5</ele>
        <time>2020-06-10T10:41:54Z</time>
      </trkpt>
      <trkpt lat="48.58012" lon="-4.01572">
        <ele>75.6</ele>
        <time>2020-06-10T10:41:55Z</time>
      </trkpt>
      <trkpt lat="48.58012" lon="-4.01569">
        <ele>75.7</ele>
        <time>2020-06-10T10:41:56Z</time>
      </trkpt>
      <trkpt lat="48.58012" lon="-4.01564">
        <ele>75.8</ele>
        <time>2020-06-10T10:41:57Z</time>
      </trkpt>
      <trkpt lat="48.58011" lon="-4.01558">
        <ele>76</ele>
        <time>2020-06-10T10:41:58Z</time>
      </trkpt>
      <trkpt lat="48.58011" lon="-4.01555">
        <ele>76.1</ele>
        <time>2020-06-10T10:41:59Z</time>
      </trkpt>
      <trkpt lat="48.58011" lon="-4.01546">
        <ele>76.3</ele>
        <time>2020-06-10T10:42:00Z</time>
      </trkpt>
      <trkpt lat="48.5801" lon="-4.0154">
        <ele>76.4</ele>
        <time>2020-06-10T10:42:01Z</time>
      </trkpt>
      <trkpt lat="48.5801" lon="-4.01534">
        <ele>76.5</ele>
        <time>2020-06-10T10:42:02Z</time>
      </trkpt>
      <trkpt lat="48.5801" lon="-4.01529">
        <ele>76.7</ele>
        <time>2020-06-10T10:42:03Z</time>
      </trkpt>
      <trkpt lat="48.58009" lon="-4.01523">
        <ele>76.8</ele>
        <time>2020-06-10T10:42:04Z</time>
      </trkpt>
      <trkpt lat="48.58009" lon="-4.01516">
        <ele>76.9</ele>
        <time>2020-06-10T10:42:05Z</time>
      </trkpt>
      <trkpt lat="48.58008" lon="-4.0151">
        <ele>77.1</ele>
        <time>2020-06-10T10:42:06Z</time>
      </trkpt>
      <trkpt lat="48.58008" lon="-4.01503">
        <ele>77.2</ele>
        <time>2020-06-10T10:42:07Z</time>
      </trkpt>
      <trkpt lat="48.58008" lon="-4.01498">
        <ele>77.3</ele>
        <time>2020-06-10T10:42:08Z</time>
      </trkpt>
      <trkpt lat="48.58008" lon="-4.01492">
        <ele>77.4</ele>
        <time>2020-06-10T10:42:09Z</time>
      </trkpt>
      <trkpt lat="48.58008" lon="-4.0149">
        <ele>77.4</ele>
        <time>2020-06-10T10:42:10Z</time>
      </trkpt>
      <trkpt lat="48.58008" lon="-4.01485">
        <ele>77.5</ele>
        <time>2020-06-10T10:42:11Z</time>
      </trkpt>
      <trkpt lat="48.58009" lon="-4.0148">
        <ele>77.6</ele>
        <time>2020-06-10T10:42:12Z</time>
      </trkpt>
      <trkpt lat="48.58008" lon="-4.01475">
        <ele>77.7</ele>
        <time>2020-06-10T10:42:13Z</time>
      </trkpt>
      <trkpt lat="48.58008" lon="-4.01468">
        <ele>77.8</ele>
        <time>2020-06-10T10:42:14Z</time>
      </trkpt>
      <trkpt lat="48.58008" lon="-4.01463">
        <ele>77.8</ele>
        <time>2020-06-10T10:42:15Z</time>
      </trkpt>
      <trkpt lat="48.58008" lon="-4.01458">
        <ele>77.9</ele>
        <time>2020-06-10T10:42:16Z</time>
      </trkpt>
      <trkpt lat="48.58007" lon="-4.01452">
        <ele>78</ele>
        <time>2020-06-10T10:42:17Z</time>
      </trkpt>
      <trkpt lat="48.58007" lon="-4.0145">
        <ele>78</ele>
        <time>2020-06-10T10:42:18Z</time>
      </trkpt>
      <trkpt lat="48.58006" lon="-4.01445">
        <ele>78.1</ele>
        <time>2020-06-10T10:42:19Z</time>
      </trkpt>
      <trkpt lat="48.58006" lon="-4.01439">
        <ele>78.2</ele>
        <time>2020-06-10T10:42:20Z</time>
      </trkpt>
      <trkpt lat="48.58005" lon="-4.01432">
        <ele>78.3</ele>
        <time>2020-06-10T10:42:21Z</time>
      </trkpt>
      <trkpt lat="48.58005" lon="-4.01425">
        <ele>78.4</ele>
        <time>2020-06-10T10:42:22Z</time>
      </trkpt>
      <trkpt lat="48.58004" lon="-4.01419">
        <ele>78.4</ele>
        <time>2020-06-10T10:42:23Z</time>
      </trkpt>
      <trkpt lat="48.58003" lon="-4.01413">
        <ele>78.5</ele>
        <time>2020-06-10T10:42:24Z</time>
      </trkpt>
      <trkpt lat="48.58003" lon="-4.01407">
        <ele>78.6</ele>
        <time>2020-06-10T10:42:25Z</time>
      </trkpt>
      <trkpt lat="48.58002" lon="-4.01401">
        <ele>78.7</ele>
        <time>2020-06-10T10:42:26Z</time>
      </trkpt>
      <trkpt lat="48.58002" lon="-4.01394">
        <ele>78.7</ele>
        <time>2020-06-10T10:42:27Z</time>
      </trkpt>
      <trkpt lat="48.58001" lon="-4.01388">
        <ele>78.8</ele>
        <time>2020-06-10T10:42:28Z</time>
      </trkpt>
      <trkpt lat="48.58001" lon="-4.0138">
        <ele>78.9</ele>
        <time>2020-06-10T10:42:29Z</time>
      </trkpt>
      <trkpt lat="48.58" lon="-4.01373">
        <ele>79</ele>
        <time>2020-06-10T10:42:30Z</time>
      </trkpt>
      <trkpt lat="48.57999" lon="-4.01366">
        <ele>79</ele>
        <time>2020-06-10T10:42:31Z</time>
      </trkpt>
      <trkpt lat="48.57999" lon="-4.0136">
        <ele>79.1</ele>
        <time>2020-06-10T10:42:32Z</time>
      </trkpt>
      <trkpt lat="48.57999" lon="-4.01354">
        <ele>79.2</ele>
        <time>2020-06-10T10:42:33Z</time>
      </trkpt>
      <trkpt lat="48.57999" lon="-4.01348">
        <ele>79.2</ele>
        <time>2020-06-10T10:42:34Z</time>
      </trkpt>
      <trkpt lat="48.57999" lon="-4.01342">
        <ele>79.3</ele>
        <time>2020-06-10T10:42:35Z</time>
      </trkpt>
      <trkpt lat="48.57998" lon="-4.01335">
        <ele>79.4</ele>
        <time>2020-06-10T10:42:36Z</time>
      </trkpt>
      <trkpt lat="48.57997" lon="-4.01327">
        <ele>79.6</ele>
        <time>2020-06-10T10:42:37Z</time>
      </trkpt>
      <trkpt lat="48.57997" lon="-4.01319">
        <ele>79.8</ele>
        <time>2020-06-10T10:42:38Z</time>
      </trkpt>
      <trkpt lat="48.57996" lon="-4.01313">
        <ele>79.9</ele>
        <time>2020-06-10T10:42:39Z</time>
      </trkpt>
      <trkpt lat="48.57994" lon="-4.01306">
        <ele>80</ele>
        <time>2020-06-10T10:42:40Z</time>
      </trkpt>
      <trkpt lat="48.57993" lon="-4.013">
        <ele>80.1</ele>
        <time>2020-06-10T10:42:41Z</time>
      </trkpt>
      <trkpt lat="48.57992" lon="-4.01293">
        <ele>80.2</ele>
        <time>2020-06-10T10:42:42Z</time>
      </trkpt>
      <trkpt lat="48.5799" lon="-4.01286">
        <ele>80.2</ele>
        <time>2020-06-10T10:42:43Z</time>
      </trkpt>
      <trkpt lat="48.57989" lon="-4.0128">
        <ele>80.3</ele>
        <time>2020-06-10T10:42:44Z</time>
      </trkpt>
      <trkpt lat="48.57988" lon="-4.01271">
        <ele>80.4</ele>
        <time>2020-06-10T10:42:45Z</time>
      </trkpt>
      <trkpt lat="48.57986" lon="-4.01264">
        <ele>80.5</ele>
        <time>2020-06-10T10:42:46Z</time>
      </trkpt>
      <trkpt lat="48.57985" lon="-4.01258">
        <ele>80.5</ele>
        <time>2020-06-10T10:42:47Z</time>
      </trkpt>
      <trkpt lat="48.57984" lon="-4.0125">
        <ele>80.6</ele>
        <time>2020-06-10T10:42:48Z</time>
      </trkpt>
      <trkpt lat="48.57983" lon="-4.01243">
        <ele>80.7</ele>
        <time>2020-06-10T10:42:49Z</time>
      </trkpt>
      <trkpt lat="48.57982" lon="-4.01237">
        <ele>80.8</ele>
        <time>2020-06-10T10:42:50Z</time>
      </trkpt>
      <trkpt lat="48.57981" lon="-4.01231">
        <ele>80.9</ele>
        <time>2020-06-10T10:42:51Z</time>
      </trkpt>
      <trkpt lat="48.5798" lon="-4.01225">
        <ele>81</ele>
        <time>2020-06-10T10:42:52Z</time>
      </trkpt>
      <trkpt lat="48.57979" lon="-4.01219">
        <ele>81.1</ele>
        <time>2020-06-10T10:42:53Z</time>
      </trkpt>
      <trkpt lat="48.57978" lon="-4.01212">
        <ele>81.2</ele>
        <time>2020-06-10T10:42:54Z</time>
      </trkpt>
      <trkpt lat="48.57976" lon="-4.01206">
        <ele>81.3</ele>
        <time>2020-06-10T10:42:55Z</time>
      </trkpt>
      <trkpt lat="48.57975" lon="-4.01201">
        <ele>81.4</ele>
        <time>2020-06-10T10:42:56Z</time>
      </trkpt>
      <trkpt lat="48.57973" lon="-4.01195">
        <ele>81.5</ele>
        <time>2020-06-10T10:42:57Z</time>
      </trkpt>
      <trkpt lat="48.57971" lon="-4.01189">
        <ele>81.6</ele>
        <time>2020-06-10T10:42:58Z</time>
      </trkpt>
      <trkpt lat="48.5797" lon="-4.01183">
        <ele>81.7</ele>
        <time>2020-06-10T10:42:59Z</time>
      </trkpt>
      <trkpt lat="48.57968" lon="-4.01177">
        <ele>81.8</ele>
        <time>2020-06-10T10:43:00Z</time>
      </trkpt>
      <trkpt lat="48.57967" lon="-4.01169">
        <ele>81.9</ele>
        <time>2020-06-10T10:43:01Z</time>
      </trkpt>
      <trkpt lat="48.57965" lon="-4.01162">
        <ele>82</ele>
        <time>2020-06-10T10:43:02Z</time>
      </trkpt>
      <trkpt lat="48.57964" lon="-4.01155">
        <ele>82.1</ele>
        <time>2020-06-10T10:43:03Z</time>
      </trkpt>
      <trkpt lat="48.57963" lon="-4.01149">
        <ele>82.2</ele>
        <time>2020-06-10T10:43:04Z</time>
      </trkpt>
      <trkpt lat="48.57962" lon="-4.01143">
        <ele>82.3</ele>
        <time>2020-06-10T10:43:05Z</time>
      </trkpt>
      <trkpt lat="48.57961" lon="-4.01138">
        <ele>82.4</ele>
        <time>2020-06-10T10:43:06Z</time>
      </trkpt>
      <trkpt lat="48.57959" lon="-4.01131">
        <ele>82.5</ele>
        <time>2020-06-10T10:43:07Z</time>
      </trkpt>
      <trkpt lat="48.57957" lon="-4.01124">
        <ele>82.6</ele>
        <time>2020-06-10T10:43:08Z</time>
      </trkpt>
      <trkpt lat="48.57955" lon="-4.01117">
        <ele>82.6</ele>
        <time>2020-06-10T10:43:09Z</time>
      </trkpt>
      <trkpt lat="48.57954" lon="-4.0111">
        <ele>82.7</ele>
        <time>2020-06-10T10:43:10Z</time>
      </trkpt>
      <trkpt lat="48.57952" lon="-4.01104">
        <ele>82.8</ele>
        <time>2020-06-10T10:43:11Z</time>
      </trkpt>
      <trkpt lat="48.57951" lon="-4.01097">
        <ele>82.9</ele>
        <time>2020-06-10T10:43:12Z</time>
      </trkpt>
      <trkpt lat="48.57948" lon="-4.01091">
        <ele>83</ele>
        <time>2020-06-10T10:43:13Z</time>
      </trkpt>
      <trkpt lat="48.57947" lon="-4.01086">
        <ele>83.1</ele>
        <time>2020-06-10T10:43:14Z</time>
      </trkpt>
      <trkpt lat="48.57945" lon="-4.0108">
        <ele>83.3</ele>
        <time>2020-06-10T10:43:15Z</time>
      </trkpt>
      <trkpt lat="48.57943" lon="-4.01074">
        <ele>83.4</ele>
        <time>2020-06-10T10:43:16Z</time>
      </trkpt>
      <trkpt lat="48.57942" lon="-4.01067">
        <ele>83.5</ele>
        <time>2020-06-10T10:43:17Z</time>
      </trkpt>
      <trkpt lat="48.5794" lon="-4.0106">
        <ele>83.6</ele>
        <time>2020-06-10T10:43:18Z</time>
      </trkpt>
      <trkpt lat="48.57939" lon="-4.01053">
        <ele>83.7</ele>
        <time>2020-06-10T10:43:19Z</time>
      </trkpt>
      <trkpt lat="48.57937" lon="-4.01047">
        <ele>83.8</ele>
        <time>2020-06-10T10:43:20Z</time>
      </trkpt>
      <trkpt lat="48.57935" lon="-4.01039">
        <ele>83.8</ele>
        <time>2020-06-10T10:43:21Z</time>
      </trkpt>
      <trkpt lat="48.57933" lon="-4.01034">
        <ele>83.9</ele>
        <time>2020-06-10T10:43:22Z</time>
      </trkpt>
      <trkpt lat="48.57931" lon="-4.01028">
        <ele>84</ele>
        <time>2020-06-10T10:43:23Z</time>
      </trkpt>
      <trkpt lat="48.57929" lon="-4.01023">
        <ele>84.1</ele>
        <time>2020-06-10T10:43:24Z</time>
      </trkpt>
      <trkpt lat="48.57927" lon="-4.01018">
        <ele>84.1</ele>
        <time>2020-06-10T10:43:25Z</time>
      </trkpt>
      <trkpt lat="48.57925" lon="-4.01012">
        <ele>84.2</ele>
        <time>2020-06-10T10:43:26Z</time>
      </trkpt>
      <trkpt lat="48.57924" lon="-4.01008">
        <ele>84.3</ele>
        <time>2020-06-10T10:43:27Z</time>
      </trkpt>
      <trkpt lat="48.57922" lon="-4.01003">
        <ele>84.4</ele>
        <time>2020-06-10T10:43:28Z</time>
      </trkpt>
      <trkpt lat="48.5792" lon="-4.00996">
        <ele>84.4</ele>
        <time>2020-06-10T10:43:29Z</time>
      </trkpt>
      <trkpt lat="48.57918" lon="-4.0099">
        <ele>84.5</ele>
        <time>2020-06-10T10:43:30Z</time>
      </trkpt>
      <trkpt lat="48.57916" lon="-4.00985">
        <ele>84.6</ele>
        <time>2020-06-10T10:43:31Z</time>
      </trkpt>
      <trkpt lat="48.57914" lon="-4.00979">
        <ele>84.8</ele>
        <time>2020-06-10T10:43:32Z</time>
      </trkpt>
      <trkpt lat="48.57913" lon="-4.00974">
        <ele>84.9</ele>
        <time>2020-06-10T10:43:33Z</time>
      </trkpt>
      <trkpt lat="48.57912" lon="-4.00967">
        <ele>85</ele>
        <time>2020-06-10T10:43:34Z</time>
      </trkpt>
      <trkpt lat="48.5791" lon="-4.00963">
        <ele>85.1</ele>
        <time>2020-06-10T10:43:35Z</time>
      </trkpt>
      <trkpt lat="48.57908" lon="-4.00957">
        <ele>85.2</ele>
        <time>2020-06-10T10:43:36Z</time>
      </trkpt>
      <trkpt lat="48.57907" lon="-4.00952">
        <ele>85.3</ele>
        <time>2020-06-10T10:43:37Z</time>
      </trkpt>
      <trkpt lat="48.57906" lon="-4.00946">
        <ele>85.4</ele>
        <time>2020-06-10T10:43:38Z</time>
      </trkpt>
      <trkpt lat="48.57904" lon="-4.0094">
        <ele>85.5</ele>
        <time>2020-06-10T10:43:39Z</time>
      </trkpt>
      <trkpt lat="48.57902" lon="-4.00934">
        <ele>85.6</ele>
        <time>2020-06-10T10:43:40Z</time>
      </trkpt>
      <trkpt lat="48.579" lon="-4.00928">
        <ele>85.7</ele>
        <time>2020-06-10T10:43:41Z</time>
      </trkpt>
      <trkpt lat="48.57899" lon="-4.00923">
        <ele>85.8</ele>
        <time>2020-06-10T10:43:42Z</time>
      </trkpt>
      <trkpt lat="48.57897" lon="-4.00917">
        <ele>85.9</ele>
        <time>2020-06-10T10:43:43Z</time>
      </trkpt>
      <trkpt lat="48.57895" lon="-4.0091">
        <ele>86</ele>
        <time>2020-06-10T10:43:44Z</time>
      </trkpt>
      <trkpt lat="48.57893" lon="-4.00903">
        <ele>86.2</ele>
        <time>2020-06-10T10:43:45Z</time>
      </trkpt>
      <trkpt lat="48.57892" lon="-4.00897">
        <ele>86.3</ele>
        <time>2020-06-10T10:43:46Z</time>
      </trkpt>
      <trkpt lat="48.57889" lon="-4.0089">
        <ele>86.4</ele>
        <time>2020-06-10T10:43:47Z</time>
      </trkpt>
      <trkpt lat="48.57888" lon="-4.00885">
        <ele>86.5</ele>
        <time>2020-06-10T10:43:48Z</time>
      </trkpt>
      <trkpt lat="48.57886" lon="-4.00879">
        <ele>86.5</ele>
        <time>2020-06-10T10:43:49Z</time>
      </trkpt>
      <trkpt lat="48.57885" lon="-4.00873">
        <ele>86.6</ele>
        <time>2020-06-10T10:43:50Z</time>
      </trkpt>
      <trkpt lat="48.57884" lon="-4.00867">
        <ele>86.7</ele>
        <time>2020-06-10T10:43:51Z</time>
      </trkpt>
      <trkpt lat="48.57882" lon="-4.00861">
        <ele>86.8</ele>
        <time>2020-06-10T10:43:52Z</time>
      </trkpt>
      <trkpt lat="48.57881" lon="-4.00857">
        <ele>86.8</ele>
        <time>2020-06-10T10:43:53Z</time>
      </trkpt>
      <trkpt lat="48.5788" lon="-4.0085">
        <ele>86.9</ele>
        <time>2020-06-10T10:43:54Z</time>
      </trkpt>
      <trkpt lat="48.57879" lon="-4.00844">
        <ele>86.9</ele>
        <time>2020-06-10T10:43:55Z</time>
      </trkpt>
      <trkpt lat="48.57877" lon="-4.00837">
        <ele>87</ele>
        <time>2020-06-10T10:43:56Z</time>
      </trkpt>
      <trkpt lat="48.57875" lon="-4.00831">
        <ele>87.1</ele>
        <time>2020-06-10T10:43:57Z</time>
      </trkpt>
      <trkpt lat="48.57873" lon="-4.00826">
        <ele>87.1</ele>
        <time>2020-06-10T10:43:58Z</time>
      </trkpt>
      <trkpt lat="48.57872" lon="-4.0082">
        <ele>87.3</ele>
        <time>2020-06-10T10:43:59Z</time>
      </trkpt>
      <trkpt lat="48.57871" lon="-4.00814">
        <ele>87.3</ele>
        <time>2020-06-10T10:44:00Z</time>
      </trkpt>
      <trkpt lat="48.5787" lon="-4.00809">
        <ele>87.4</ele>
        <time>2020-06-10T10:44:01Z</time>
      </trkpt>
      <trkpt lat="48.57869" lon="-4.00803">
        <ele>87.5</ele>
        <time>2020-06-10T10:44:02Z</time>
      </trkpt>
      <trkpt lat="48.57867" lon="-4.00798">
        <ele>87.6</ele>
        <time>2020-06-10T10:44:03Z</time>
      </trkpt>
      <trkpt lat="48.57866" lon="-4.00792">
        <ele>87.6</ele>
        <time>2020-06-10T10:44:04Z</time>
      </trkpt>
      <trkpt lat="48.57864" lon="-4.00785">
        <ele>87.7</ele>
        <time>2020-06-10T10:44:05Z</time>
      </trkpt>
      <trkpt lat="48.57863" lon="-4.00777">
        <ele>87.8</ele>
        <time>2020-06-10T10:44:06Z</time>
      </trkpt>
      <trkpt lat="48.57861" lon="-4.00771">
        <ele>87.9</ele>
        <time>2020-06-10T10:44:07Z</time>
      </trkpt>
      <trkpt lat="48.5786" lon="-4.00764">
        <ele>88</ele>
        <time>2020-06-10T10:44:08Z</time>
      </trkpt>
      <trkpt lat="48.57859" lon="-4.00757">
        <ele>88</ele>
        <time>2020-06-10T10:44:09Z</time>
      </trkpt>
      <trkpt lat="48.57858" lon="-4.00753">
        <ele>88.1</ele>
        <time>2020-06-10T10:44:10Z</time>
      </trkpt>
      <trkpt lat="48.57857" lon="-4.00747">
        <ele>88.1</ele>
        <time>2020-06-10T10:44:11Z</time>
      </trkpt>
      <trkpt lat="48.57856" lon="-4.0074">
        <ele>88.2</ele>
        <time>2020-06-10T10:44:12Z</time>
      </trkpt>
      <trkpt lat="48.57854" lon="-4.00735">
        <ele>88.2</ele>
        <time>2020-06-10T10:44:13Z</time>
      </trkpt>
      <trkpt lat="48.57853" lon="-4.0073">
        <ele>88.3</ele>
        <time>2020-06-10T10:44:14Z</time>
      </trkpt>
      <trkpt lat="48.57852" lon="-4.00724">
        <ele>88.3</ele>
        <time>2020-06-10T10:44:15Z</time>
      </trkpt>
      <trkpt lat="48.5785" lon="-4.00716">
        <ele>88.4</ele>
        <time>2020-06-10T10:44:16Z</time>
      </trkpt>
      <trkpt lat="48.57849" lon="-4.0071">
        <ele>88.5</ele>
        <time>2020-06-10T10:44:17Z</time>
      </trkpt>
      <trkpt lat="48.57848" lon="-4.00703">
        <ele>88.5</ele>
        <time>2020-06-10T10:44:18Z</time>
      </trkpt>
      <trkpt lat="48.57847" lon="-4.00695">
        <ele>88.6</ele>
        <time>2020-06-10T10:44:19Z</time>
      </trkpt>
      <trkpt lat="48.57845" lon="-4.00687">
        <ele>88.7</ele>
        <time>2020-06-10T10:44:20Z</time>
      </trkpt>
      <trkpt lat="48.57843" lon="-4.00679">
        <ele>88.7</ele>
        <time>2020-06-10T10:44:21Z</time>
      </trkpt>
      <trkpt lat="48.57842" lon="-4.0067">
        <ele>88.8</ele>
        <time>2020-06-10T10:44:22Z</time>
      </trkpt>
      <trkpt lat="48.5784" lon="-4.00661">
        <ele>88.9</ele>
        <time>2020-06-10T10:44:23Z</time>
      </trkpt>
      <trkpt lat="48.57838" lon="-4.00651">
        <ele>89</ele>
        <time>2020-06-10T10:44:24Z</time>
      </trkpt>
      <trkpt lat="48.57837" lon="-4.00643">
        <ele>89.1</ele>
        <time>2020-06-10T10:44:25Z</time>
      </trkpt>
      <trkpt lat="48.57836" lon="-4.00634">
        <ele>89.1</ele>
        <time>2020-06-10T10:44:26Z</time>
      </trkpt>
      <trkpt lat="48.57834" lon="-4.00624">
        <ele>89.1</ele>
        <time>2020-06-10T10:44:27Z</time>
      </trkpt>
      <trkpt lat="48.57833" lon="-4.00615">
        <ele>89.1</ele>
        <time>2020-06-10T10:44:28Z</time>
      </trkpt>
      <trkpt lat="48.57831" lon="-4.00606">
        <ele>89.1</ele>
        <time>2020-06-10T10:44:29Z</time>
      </trkpt>
      <trkpt lat="48.57829" lon="-4.00596">
        <ele>89.1</ele>
        <time>2020-06-10T10:44:30Z</time>
      </trkpt>
      <trkpt lat="48.57828" lon="-4.00587">
        <ele>89.1</ele>
        <time>2020-06-10T10:44:31Z</time>
      </trkpt>
      <trkpt lat="48.57827" lon="-4.00578">
        <ele>89.2</ele>
        <time>2020-06-10T10:44:32Z</time>
      </trkpt>
      <trkpt lat="48.57825" lon="-4.00569">
        <ele>89.2</ele>
        <time>2020-06-10T10:44:33Z</time>
      </trkpt>
      <trkpt lat="48.57824" lon="-4.00562">
        <ele>89.3</ele>
        <time>2020-06-10T10:44:34Z</time>
      </trkpt>
      <trkpt lat="48.57822" lon="-4.00554">
        <ele>89.3</ele>
        <time>2020-06-10T10:44:35Z</time>
      </trkpt>
      <trkpt lat="48.5782" lon="-4.00546">
        <ele>89.3</ele>
        <time>2020-06-10T10:44:36Z</time>
      </trkpt>
      <trkpt lat="48.57819" lon="-4.00538">
        <ele>89.4</ele>
        <time>2020-06-10T10:44:37Z</time>
      </trkpt>
      <trkpt lat="48.57818" lon="-4.00528">
        <ele>89.4</ele>
        <time>2020-06-10T10:44:38Z</time>
      </trkpt>
      <trkpt lat="48.57817" lon="-4.00518">
        <ele>89.5</ele>
        <time>2020-06-10T10:44:39Z</time>
      </trkpt>
      <trkpt lat="48.57815" lon="-4.0051">
        <ele>89.6</ele>
        <time>2020-06-10T10:44:40Z</time>
      </trkpt>
      <trkpt lat="48.57814" lon="-4.00501">
        <ele>89.6</ele>
        <time>2020-06-10T10:44:41Z</time>
      </trkpt>
      <trkpt lat="48.57813" lon="-4.00492">
        <ele>89.7</ele>
        <time>2020-06-10T10:44:42Z</time>
      </trkpt>
      <trkpt lat="48.57811" lon="-4.00485">
        <ele>89.8</ele>
        <time>2020-06-10T10:44:43Z</time>
      </trkpt>
      <trkpt lat="48.5781" lon="-4.00476">
        <ele>89.9</ele>
        <time>2020-06-10T10:44:44Z</time>
      </trkpt>
      <trkpt lat="48.57808" lon="-4.00467">
        <ele>90</ele>
        <time>2020-06-10T10:44:45Z</time>
      </trkpt>
      <trkpt lat="48.57807" lon="-4.00459">
        <ele>90</ele>
        <time>2020-06-10T10:44:46Z</time>
      </trkpt>
      <trkpt lat="48.57806" lon="-4.00451">
        <ele>90.1</ele>
        <time>2020-06-10T10:44:47Z</time>
      </trkpt>
      <trkpt lat="48.57804" lon="-4.00443">
        <ele>90.2</ele>
        <time>2020-06-10T10:44:48Z</time>
      </trkpt>
      <trkpt lat="48.57803" lon="-4.00435">
        <ele>90.2</ele>
        <time>2020-06-10T10:44:49Z</time>
      </trkpt>
      <trkpt lat="48.57801" lon="-4.00425">
        <ele>90.3</ele>
        <time>2020-06-10T10:44:50Z</time>
      </trkpt>
      <trkpt lat="48.578" lon="-4.00417">
        <ele>90.4</ele>
        <time>2020-06-10T10:44:51Z</time>
      </trkpt>
      <trkpt lat="48.57799" lon="-4.00409">
        <ele>90.4</ele>
        <time>2020-06-10T10:44:52Z</time>
      </trkpt>
      <trkpt lat="48.57797" lon="-4.00401">
        <ele>90.5</ele>
        <time>2020-06-10T10:44:53Z</time>
      </trkpt>
      <trkpt lat="48.57796" lon="-4.00392">
        <ele>90.6</ele>
        <time>2020-06-10T10:44:54Z</time>
      </trkpt>
      <trkpt lat="48.57794" lon="-4.00384">
        <ele>90.6</ele>
        <time>2020-06-10T10:44:55Z</time>
      </trkpt>
      <trkpt lat="48.57794" lon="-4.00374">
        <ele>90.7</ele>
        <time>2020-06-10T10:44:56Z</time>
      </trkpt>
      <trkpt lat="48.57793" lon="-4.00365">
        <ele>90.8</ele>
        <time>2020-06-10T10:44:57Z</time>
      </trkpt>
      <trkpt lat="48.57792" lon="-4.00355">
        <ele>90.9</ele>
        <time>2020-06-10T10:44:58Z</time>
      </trkpt>
      <trkpt lat="48.5779" lon="-4.00345">
        <ele>91</ele>
        <time>2020-06-10T10:44:59Z</time>
      </trkpt>
      <trkpt lat="48.57789" lon="-4.00337">
        <ele>91.1</ele>
        <time>2020-06-10T10:45:00Z</time>
      </trkpt>
      <trkpt lat="48.57787" lon="-4.00329">
        <ele>91.1</ele>
        <time>2020-06-10T10:45:01Z</time>
      </trkpt>
      <trkpt lat="48.57786" lon="-4.00319">
        <ele>91.2</ele>
        <time>2020-06-10T10:45:02Z</time>
      </trkpt>
      <trkpt lat="48.57784" lon="-4.00311">
        <ele>91.2</ele>
        <time>2020-06-10T10:45:03Z</time>
      </trkpt>
      <trkpt lat="48.57783" lon="-4.00302">
        <ele>91.2</ele>
        <time>2020-06-10T10:45:04Z</time>
      </trkpt>
      <trkpt lat="48.57782" lon="-4.00293">
        <ele>91.3</ele>
        <time>2020-06-10T10:45:05Z</time>
      </trkpt>
      <trkpt lat="48.5778" lon="-4.00284">
        <ele>91.4</ele>
        <time>2020-06-10T10:45:06Z</time>
      </trkpt>
      <trkpt lat="48.57779" lon="-4.00276">
        <ele>91.4</ele>
        <time>2020-06-10T10:45:07Z</time>
      </trkpt>
      <trkpt lat="48.57778" lon="-4.00268">
        <ele>91.5</ele>
        <time>2020-06-10T10:45:08Z</time>
      </trkpt>
      <trkpt lat="48.57777" lon="-4.00261">
        <ele>91.6</ele>
        <time>2020-06-10T10:45:09Z</time>
      </trkpt>
      <trkpt lat="48.57776" lon="-4.00253">
        <ele>91.7</ele>
        <time>2020-06-10T10:45:10Z</time>
      </trkpt>
      <trkpt lat="48.57775" lon="-4.00244">
        <ele>91.8</ele>
        <time>2020-06-10T10:45:11Z</time>
      </trkpt>
      <trkpt lat="48.57773" lon="-4.00235">
        <ele>91.9</ele>
        <time>2020-06-10T10:45:12Z</time>
      </trkpt>
      <trkpt lat="48.57773" lon="-4.00225">
        <ele>92</ele>
        <time>2020-06-10T10:45:13Z</time>
      </trkpt>
      <trkpt lat="48.57772" lon="-4.00216">
        <ele>92</ele>
        <time>2020-06-10T10:45:14Z</time>
      </trkpt>
      <trkpt lat="48.57771" lon="-4.00211">
        <ele>92.1</ele>
        <time>2020-06-10T10:45:15Z</time>
      </trkpt>
      <trkpt lat="48.5777" lon="-4.00203">
        <ele>92.1</ele>
        <time>2020-06-10T10:45:16Z</time>
      </trkpt>
      <trkpt lat="48.57769" lon="-4.00197">
        <ele>92.1</ele>
        <time>2020-06-10T10:45:17Z</time>
      </trkpt>
      <trkpt lat="48.57769" lon="-4.00189">
        <ele>92.2</ele>
        <time>2020-06-10T10:45:18Z</time>
      </trkpt>
      <trkpt lat="48.57768" lon="-4.00182">
        <ele>92.3</ele>
        <time>2020-06-10T10:45:19Z</time>
      </trkpt>
      <trkpt lat="48.57767" lon="-4.00175">
        <ele>92.3</ele>
        <time>2020-06-10T10:45:20Z</time>
      </trkpt>
      <trkpt lat="48.57766" lon="-4.0017">
        <ele>92.4</ele>
        <time>2020-06-10T10:45:21Z</time>
      </trkpt>
      <trkpt lat="48.57765" lon="-4.00164">
        <ele>92.4</ele>
        <time>2020-06-10T10:45:22Z</time>
      </trkpt>
      <trkpt lat="48.57764" lon="-4.00157">
        <ele>92.5</ele>
        <time>2020-06-10T10:45:23Z</time>
      </trkpt>
      <trkpt lat="48.57763" lon="-4.00151">
        <ele>92.5</ele>
        <time>2020-06-10T10:45:24Z</time>
      </trkpt>
      <trkpt lat="48.57762" lon="-4.00144">
        <ele>92.6</ele>
        <time>2020-06-10T10:45:25Z</time>
      </trkpt>
      <trkpt lat="48.57761" lon="-4.00138">
        <ele>92.6</ele>
        <time>2020-06-10T10:45:26Z</time>
      </trkpt>
      <trkpt lat="48.5776" lon="-4.00131">
        <ele>92.6</ele>
        <time>2020-06-10T10:45:27Z</time>
      </trkpt>
      <trkpt lat="48.57759" lon="-4.00124">
        <ele>92.7</ele>
        <time>2020-06-10T10:45:28Z</time>
      </trkpt>
      <trkpt lat="48.57758" lon="-4.00115">
        <ele>92.8</ele>
        <time>2020-06-10T10:45:29Z</time>
      </trkpt>
      <trkpt lat="48.57757" lon="-4.00108">
        <ele>92.8</ele>
        <time>2020-06-10T10:45:30Z</time>
      </trkpt>
      <trkpt lat="48.57756" lon="-4.00099">
        <ele>92.9</ele>
        <time>2020-06-10T10:45:31Z</time>
      </trkpt>
      <trkpt lat="48.57755" lon="-4.00092">
        <ele>92.9</ele>
        <time>2020-06-10T10:45:32Z</time>
      </trkpt>
      <trkpt lat="48.57754" lon="-4.00084">
        <ele>93</ele>
        <time>2020-06-10T10:45:33Z</time>
      </trkpt>
      <trkpt lat="48.57754" lon="-4.00077">
        <ele>93.1</ele>
        <time>2020-06-10T10:45:34Z</time>
      </trkpt>
      <trkpt lat="48.57753" lon="-4.0007">
        <ele>93.2</ele>
        <time>2020-06-10T10:45:35Z</time>
      </trkpt>
      <trkpt lat="48.57752" lon="-4.00062">
        <ele>93.2</ele>
        <time>2020-06-10T10:45:36Z</time>
      </trkpt>
      <trkpt lat="48.57752" lon="-4.00054">
        <ele>93.3</ele>
        <time>2020-06-10T10:45:37Z</time>
      </trkpt>
      <trkpt lat="48.57751" lon="-4.00047">
        <ele>93.3</ele>
        <time>2020-06-10T10:45:38Z</time>
      </trkpt>
      <trkpt lat="48.57751" lon="-4.0004">
        <ele>93.4</ele>
        <time>2020-06-10T10:45:39Z</time>
      </trkpt>
      <trkpt lat="48.5775" lon="-4.00033">
        <ele>93.4</ele>
        <time>2020-06-10T10:45:40Z</time>
      </trkpt>
      <trkpt lat="48.5775" lon="-4.00025">
        <ele>93.5</ele>
        <time>2020-06-10T10:45:41Z</time>
      </trkpt>
      <trkpt lat="48.5775" lon="-4.00016">
        <ele>93.6</ele>
        <time>2020-06-10T10:45:42Z</time>
      </trkpt>
      <trkpt lat="48.57749" lon="-4.00009">
        <ele>93.6</ele>
        <time>2020-06-10T10:45:43Z</time>
      </trkpt>
      <trkpt lat="48.57749" lon="-4.00001">
        <ele>93.7</ele>
        <time>2020-06-10T10:45:44Z</time>
      </trkpt>
      <trkpt lat="48.57749" lon="-3.99994">
        <ele>93.8</ele>
        <time>2020-06-10T10:45:45Z</time>
      </trkpt>
      <trkpt lat="48.57748" lon="-3.99988">
        <ele>93.8</ele>
        <time>2020-06-10T10:45:46Z</time>
      </trkpt>
      <trkpt lat="48.57748" lon="-3.99982">
        <ele>93.8</ele>
        <time>2020-06-10T10:45:47Z</time>
      </trkpt>
      <trkpt lat="48.57747" lon="-3.99975">
        <ele>93.7</ele>
        <time>2020-06-10T10:45:48Z</time>
      </trkpt>
      <trkpt lat="48.57747" lon="-3.99967">
        <ele>93.7</ele>
        <time>2020-06-10T10:45:49Z</time>
      </trkpt>
      <trkpt lat="48.57746" lon="-3.99959">
        <ele>93.7</ele>
        <time>2020-06-10T10:45:50Z</time>
      </trkpt>
      <trkpt lat="48.57745" lon="-3.99951">
        <ele>93.7</ele>
        <time>2020-06-10T10:45:51Z</time>
      </trkpt>
      <trkpt lat="48.57745" lon="-3.99944">
        <ele>93.7</ele>
        <time>2020-06-10T10:45:52Z</time>
      </trkpt>
      <trkpt lat="48.57744" lon="-3.99936">
        <ele>93.8</ele>
        <time>2020-06-10T10:45:53Z</time>
      </trkpt>
      <trkpt lat="48.57743" lon="-3.99928">
        <ele>93.8</ele>
        <time>2020-06-10T10:45:54Z</time>
      </trkpt>
      <trkpt lat="48.57742" lon="-3.9992">
        <ele>93.9</ele>
        <time>2020-06-10T10:45:55Z</time>
      </trkpt>
      <trkpt lat="48.57742" lon="-3.9991">
        <ele>94</ele>
        <time>2020-06-10T10:45:56Z</time>
      </trkpt>
      <trkpt lat="48.57743" lon="-3.99903">
        <ele>94</ele>
        <time>2020-06-10T10:45:57Z</time>
      </trkpt>
      <trkpt lat="48.57742" lon="-3.99895">
        <ele>94.1</ele>
        <time>2020-06-10T10:45:58Z</time>
      </trkpt>
      <trkpt lat="48.57742" lon="-3.99888">
        <ele>94.1</ele>
        <time>2020-06-10T10:45:59Z</time>
      </trkpt>
      <trkpt lat="48.57742" lon="-3.99881">
        <ele>94.2</ele>
        <time>2020-06-10T10:46:00Z</time>
      </trkpt>
      <trkpt lat="48.57741" lon="-3.99875">
        <ele>94.2</ele>
        <time>2020-06-10T10:46:01Z</time>
      </trkpt>
      <trkpt lat="48.57741" lon="-3.99868">
        <ele>94.2</ele>
        <time>2020-06-10T10:46:02Z</time>
      </trkpt>
      <trkpt lat="48.5774" lon="-3.99862">
        <ele>94.3</ele>
        <time>2020-06-10T10:46:03Z</time>
      </trkpt>
      <trkpt lat="48.5774" lon="-3.99854">
        <ele>94.3</ele>
        <time>2020-06-10T10:46:04Z</time>
      </trkpt>
      <trkpt lat="48.57739" lon="-3.99847">
        <ele>94.4</ele>
        <time>2020-06-10T10:46:05Z</time>
      </trkpt>
      <trkpt lat="48.57739" lon="-3.99839">
        <ele>94.4</ele>
        <time>2020-06-10T10:46:06Z</time>
      </trkpt>
      <trkpt lat="48.57739" lon="-3.99831">
        <ele>94.5</ele>
        <time>2020-06-10T10:46:07Z</time>
      </trkpt>
      <trkpt lat="48.57738" lon="-3.99824">
        <ele>94.5</ele>
        <time>2020-06-10T10:46:08Z</time>
      </trkpt>
      <trkpt lat="48.57738" lon="-3.99816">
        <ele>94.5</ele>
        <time>2020-06-10T10:46:09Z</time>
      </trkpt>
      <trkpt lat="48.57738" lon="-3.99808">
        <ele>94.5</ele>
        <time>2020-06-10T10:46:10Z</time>
      </trkpt>
      <trkpt lat="48.57738" lon="-3.99799">
        <ele>94.5</ele>
        <time>2020-06-10T10:46:11Z</time>
      </trkpt>
      <trkpt lat="48.57737" lon="-3.99792">
        <ele>94.5</ele>
        <time>2020-06-10T10:46:12Z</time>
      </trkpt>
      <trkpt lat="48.57738" lon="-3.99784">
        <ele>94.5</ele>
        <time>2020-06-10T10:46:13Z</time>
      </trkpt>
      <trkpt lat="48.57738" lon="-3.99776">
        <ele>94.5</ele>
        <time>2020-06-10T10:46:14Z</time>
      </trkpt>
      <trkpt lat="48.57738" lon="-3.99768">
        <ele>94.5</ele>
        <time>2020-06-10T10:46:15Z</time>
      </trkpt>
      <trkpt lat="48.57739" lon="-3.99761">
        <ele>94.5</ele>
        <time>2020-06-10T10:46:16Z</time>
      </trkpt>
      <trkpt lat="48.57739" lon="-3.99756">
        <ele>94.5</ele>
        <time>2020-06-10T10:46:17Z</time>
      </trkpt>
      <trkpt lat="48.57739" lon="-3.99747">
        <ele>94.5</ele>
        <time>2020-06-10T10:46:18Z</time>
      </trkpt>
      <trkpt lat="48.5774" lon="-3.9974">
        <ele>94.5</ele>
        <time>2020-06-10T10:46:19Z</time>
      </trkpt>
      <trkpt lat="48.5774" lon="-3.99733">
        <ele>94.5</ele>
        <time>2020-06-10T10:46:20Z</time>
      </trkpt>
      <trkpt lat="48.5774" lon="-3.99727">
        <ele>94.5</ele>
        <time>2020-06-10T10:46:21Z</time>
      </trkpt>
      <trkpt lat="48.57741" lon="-3.9972">
        <ele>94.5</ele>
        <time>2020-06-10T10:46:22Z</time>
      </trkpt>
      <trkpt lat="48.5774" lon="-3.99713">
        <ele>94.5</ele>
        <time>2020-06-10T10:46:23Z</time>
      </trkpt>
      <trkpt lat="48.57741" lon="-3.99705">
        <ele>94.5</ele>
        <time>2020-06-10T10:46:24Z</time>
      </trkpt>
      <trkpt lat="48.5774" lon="-3.99699">
        <ele>94.5</ele>
        <time>2020-06-10T10:46:25Z</time>
      </trkpt>
      <trkpt lat="48.5774" lon="-3.99692">
        <ele>94.5</ele>
        <time>2020-06-10T10:46:26Z</time>
      </trkpt>
      <trkpt lat="48.5774" lon="-3.99685">
        <ele>94.6</ele>
        <time>2020-06-10T10:46:27Z</time>
      </trkpt>
      <trkpt lat="48.57741" lon="-3.99678">
        <ele>94.6</ele>
        <time>2020-06-10T10:46:28Z</time>
      </trkpt>
      <trkpt lat="48.5774" lon="-3.99671">
        <ele>94.6</ele>
        <time>2020-06-10T10:46:29Z</time>
      </trkpt>
      <trkpt lat="48.57741" lon="-3.99664">
        <ele>94.5</ele>
        <time>2020-06-10T10:46:30Z</time>
      </trkpt>
      <trkpt lat="48.57742" lon="-3.99657">
        <ele>94.5</ele>
        <time>2020-06-10T10:46:31Z</time>
      </trkpt>
      <trkpt lat="48.57742" lon="-3.99651">
        <ele>94.5</ele>
        <time>2020-06-10T10:46:32Z</time>
      </trkpt>
      <trkpt lat="48.57742" lon="-3.99644">
        <ele>94.5</ele>
        <time>2020-06-10T10:46:33Z</time>
      </trkpt>
      <trkpt lat="48.57743" lon="-3.99638">
        <ele>94.4</ele>
        <time>2020-06-10T10:46:34Z</time>
      </trkpt>
      <trkpt lat="48.57742" lon="-3.99632">
        <ele>94.4</ele>
        <time>2020-06-10T10:46:35Z</time>
      </trkpt>
      <trkpt lat="48.57742" lon="-3.99626">
        <ele>94.4</ele>
        <time>2020-06-10T10:46:36Z</time>
      </trkpt>
      <trkpt lat="48.57742" lon="-3.9962">
        <ele>94.4</ele>
        <time>2020-06-10T10:46:37Z</time>
      </trkpt>
      <trkpt lat="48.57743" lon="-3.99613">
        <ele>94.3</ele>
        <time>2020-06-10T10:46:38Z</time>
      </trkpt>
      <trkpt lat="48.57743" lon="-3.99606">
        <ele>94.3</ele>
        <time>2020-06-10T10:46:39Z</time>
      </trkpt>
      <trkpt lat="48.57743" lon="-3.99598">
        <ele>94.3</ele>
        <time>2020-06-10T10:46:40Z</time>
      </trkpt>
      <trkpt lat="48.57744" lon="-3.9959">
        <ele>94.3</ele>
        <time>2020-06-10T10:46:41Z</time>
      </trkpt>
      <trkpt lat="48.57744" lon="-3.99582">
        <ele>94.3</ele>
        <time>2020-06-10T10:46:42Z</time>
      </trkpt>
      <trkpt lat="48.57744" lon="-3.99574">
        <ele>94.3</ele>
        <time>2020-06-10T10:46:43Z</time>
      </trkpt>
      <trkpt lat="48.57744" lon="-3.99566">
        <ele>94.3</ele>
        <time>2020-06-10T10:46:44Z</time>
      </trkpt>
      <trkpt lat="48.57744" lon="-3.99558">
        <ele>94.2</ele>
        <time>2020-06-10T10:46:45Z</time>
      </trkpt>
      <trkpt lat="48.57744" lon="-3.99551">
        <ele>94.2</ele>
        <time>2020-06-10T10:46:46Z</time>
      </trkpt>
      <trkpt lat="48.57745" lon="-3.99543">
        <ele>94.2</ele>
        <time>2020-06-10T10:46:47Z</time>
      </trkpt>
      <trkpt lat="48.57745" lon="-3.99535">
        <ele>94.1</ele>
        <time>2020-06-10T10:46:48Z</time>
      </trkpt>
      <trkpt lat="48.57745" lon="-3.99527">
        <ele>94.1</ele>
        <time>2020-06-10T10:46:49Z</time>
      </trkpt>
      <trkpt lat="48.57745" lon="-3.99519">
        <ele>94.1</ele>
        <time>2020-06-10T10:46:50Z</time>
      </trkpt>
      <trkpt lat="48.57745" lon="-3.99511">
        <ele>94</ele>
        <time>2020-06-10T10:46:51Z</time>
      </trkpt>
      <trkpt lat="48.57745" lon="-3.99504">
        <ele>94</ele>
        <time>2020-06-10T10:46:52Z</time>
      </trkpt>
      <trkpt lat="48.57746" lon="-3.99496">
        <ele>93.9</ele>
        <time>2020-06-10T10:46:53Z</time>
      </trkpt>
      <trkpt lat="48.57746" lon="-3.99489">
        <ele>93.9</ele>
        <time>2020-06-10T10:46:54Z</time>
      </trkpt>
      <trkpt lat="48.57747" lon="-3.99481">
        <ele>93.8</ele>
        <time>2020-06-10T10:46:55Z</time>
      </trkpt>
      <trkpt lat="48.57747" lon="-3.99473">
        <ele>93.8</ele>
        <time>2020-06-10T10:46:56Z</time>
      </trkpt>
      <trkpt lat="48.57747" lon="-3.99465">
        <ele>93.7</ele>
        <time>2020-06-10T10:46:57Z</time>
      </trkpt>
      <trkpt lat="48.57747" lon="-3.99457">
        <ele>93.5</ele>
        <time>2020-06-10T10:46:58Z</time>
      </trkpt>
      <trkpt lat="48.57747" lon="-3.99449">
        <ele>93.4</ele>
        <time>2020-06-10T10:46:59Z</time>
      </trkpt>
      <trkpt lat="48.57747" lon="-3.9944">
        <ele>93.3</ele>
        <time>2020-06-10T10:47:00Z</time>
      </trkpt>
      <trkpt lat="48.57747" lon="-3.99432">
        <ele>93.2</ele>
        <time>2020-06-10T10:47:01Z</time>
      </trkpt>
      <trkpt lat="48.57747" lon="-3.99424">
        <ele>93.2</ele>
        <time>2020-06-10T10:47:02Z</time>
      </trkpt>
      <trkpt lat="48.57748" lon="-3.99417">
        <ele>93.1</ele>
        <time>2020-06-10T10:47:03Z</time>
      </trkpt>
      <trkpt lat="48.57747" lon="-3.9941">
        <ele>93.1</ele>
        <time>2020-06-10T10:47:04Z</time>
      </trkpt>
      <trkpt lat="48.57746" lon="-3.99404">
        <ele>93</ele>
        <time>2020-06-10T10:47:05Z</time>
      </trkpt>
      <trkpt lat="48.57744" lon="-3.99399">
        <ele>93</ele>
        <time>2020-06-10T10:47:06Z</time>
      </trkpt>
      <trkpt lat="48.57742" lon="-3.99395">
        <ele>92.9</ele>
        <time>2020-06-10T10:47:07Z</time>
      </trkpt>
      <trkpt lat="48.57741" lon="-3.99391">
        <ele>92.8</ele>
        <time>2020-06-10T10:47:08Z</time>
      </trkpt>
      <trkpt lat="48.5774" lon="-3.99386">
        <ele>92.7</ele>
        <time>2020-06-10T10:47:09Z</time>
      </trkpt>
      <trkpt lat="48.5774" lon="-3.99381">
        <ele>92.6</ele>
        <time>2020-06-10T10:47:10Z</time>
      </trkpt>
      <trkpt lat="48.57741" lon="-3.99376">
        <ele>92.5</ele>
        <time>2020-06-10T10:47:11Z</time>
      </trkpt>
      <trkpt lat="48.57743" lon="-3.99371">
        <ele>92.4</ele>
        <time>2020-06-10T10:47:12Z</time>
      </trkpt>
      <trkpt lat="48.57743" lon="-3.9937">
        <ele>92.3</ele>
        <time>2020-06-10T10:47:13Z</time>
      </trkpt>
      <trkpt lat="48.57744" lon="-3.9937">
        <ele>92.3</ele>
        <time>2020-06-10T10:47:14Z</time>
      </trkpt>
      <trkpt lat="48.57744" lon="-3.9937">
        <ele>92.3</ele>
        <time>2020-06-10T10:47:15Z</time>
      </trkpt>
      <trkpt lat="48.57744" lon="-3.9937">
        <ele>92.3</ele>
        <time>2020-06-10T10:47:16Z</time>
      </trkpt>
      <trkpt lat="48.57743" lon="-3.9937">
        <ele>92.3</ele>
        <time>2020-06-10T10:47:17Z</time>
      </trkpt>
      <trkpt lat="48.57743" lon="-3.9937">
        <ele>92.2</ele>
        <time>2020-06-10T10:47:18Z</time>
      </trkpt>
      <trkpt lat="48.57742" lon="-3.99369">
        <ele>92.2</ele>
        <time>2020-06-10T10:47:19Z</time>
      </trkpt>
      <trkpt lat="48.57742" lon="-3.99369">
        <ele>92.2</ele>
        <time>2020-06-10T10:47:20Z</time>
      </trkpt>
      <trkpt lat="48.57741" lon="-3.99368">
        <ele>92.2</ele>
        <time>2020-06-10T10:47:21Z</time>
      </trkpt>
      <trkpt lat="48.57741" lon="-3.99369">
        <ele>92.2</ele>
        <time>2020-06-10T10:47:22Z</time>
      </trkpt>
      <trkpt lat="48.5774" lon="-3.99368">
        <ele>92.2</ele>
        <time>2020-06-10T10:47:23Z</time>
      </trkpt>
      <trkpt lat="48.57744" lon="-3.99364">
        <ele>92</ele>
        <time>2020-06-10T10:47:24Z</time>
      </trkpt>
      <trkpt lat="48.57746" lon="-3.99359">
        <ele>91.9</ele>
        <time>2020-06-10T10:48:16Z</time>
      </trkpt>
      <trkpt lat="48.57748" lon="-3.99354">
        <ele>91.8</ele>
        <time>2020-06-10T10:48:17Z</time>
      </trkpt>
      <trkpt lat="48.57748" lon="-3.99349">
        <ele>91.7</ele>
        <time>2020-06-10T10:48:18Z</time>
      </trkpt>
      <trkpt lat="48.57748" lon="-3.99344">
        <ele>91.6</ele>
        <time>2020-06-10T10:48:19Z</time>
      </trkpt>
      <trkpt lat="48.57747" lon="-3.99338">
        <ele>91.5</ele>
        <time>2020-06-10T10:48:20Z</time>
      </trkpt>
      <trkpt lat="48.57747" lon="-3.99331">
        <ele>91.4</ele>
        <time>2020-06-10T10:48:21Z</time>
      </trkpt>
      <trkpt lat="48.57747" lon="-3.99325">
        <ele>91.3</ele>
        <time>2020-06-10T10:48:22Z</time>
      </trkpt>
      <trkpt lat="48.57746" lon="-3.99318">
        <ele>91.1</ele>
        <time>2020-06-10T10:48:23Z</time>
      </trkpt>
      <trkpt lat="48.57746" lon="-3.9931">
        <ele>90.9</ele>
        <time>2020-06-10T10:48:24Z</time>
      </trkpt>
      <trkpt lat="48.57746" lon="-3.99302">
        <ele>90.7</ele>
        <time>2020-06-10T10:48:25Z</time>
      </trkpt>
      <trkpt lat="48.57746" lon="-3.99293">
        <ele>90.5</ele>
        <time>2020-06-10T10:48:26Z</time>
      </trkpt>
      <trkpt lat="48.57746" lon="-3.99285">
        <ele>90.3</ele>
        <time>2020-06-10T10:48:27Z</time>
      </trkpt>
      <trkpt lat="48.57747" lon="-3.99276">
        <ele>90.1</ele>
        <time>2020-06-10T10:48:28Z</time>
      </trkpt>
      <trkpt lat="48.57748" lon="-3.99267">
        <ele>89.9</ele>
        <time>2020-06-10T10:48:29Z</time>
      </trkpt>
      <trkpt lat="48.57748" lon="-3.99257">
        <ele>89.6</ele>
        <time>2020-06-10T10:48:30Z</time>
      </trkpt>
      <trkpt lat="48.57749" lon="-3.99248">
        <ele>89.4</ele>
        <time>2020-06-10T10:48:31Z</time>
      </trkpt>
      <trkpt lat="48.57749" lon="-3.99238">
        <ele>89.1</ele>
        <time>2020-06-10T10:48:32Z</time>
      </trkpt>
      <trkpt lat="48.5775" lon="-3.99228">
        <ele>88.9</ele>
        <time>2020-06-10T10:48:33Z</time>
      </trkpt>
      <trkpt lat="48.5775" lon="-3.99217">
        <ele>88.6</ele>
        <time>2020-06-10T10:48:34Z</time>
      </trkpt>
      <trkpt lat="48.57749" lon="-3.99206">
        <ele>88.3</ele>
        <time>2020-06-10T10:48:35Z</time>
      </trkpt>
      <trkpt lat="48.57749" lon="-3.99194">
        <ele>87.9</ele>
        <time>2020-06-10T10:48:36Z</time>
      </trkpt>
      <trkpt lat="48.57748" lon="-3.99183">
        <ele>87.6</ele>
        <time>2020-06-10T10:48:37Z</time>
      </trkpt>
      <trkpt lat="48.57748" lon="-3.99171">
        <ele>87.3</ele>
        <time>2020-06-10T10:48:38Z</time>
      </trkpt>
      <trkpt lat="48.57747" lon="-3.99159">
        <ele>86.9</ele>
        <time>2020-06-10T10:48:39Z</time>
      </trkpt>
      <trkpt lat="48.57746" lon="-3.99146">
        <ele>86.6</ele>
        <time>2020-06-10T10:48:40Z</time>
      </trkpt>
      <trkpt lat="48.57745" lon="-3.99134">
        <ele>86.2</ele>
        <time>2020-06-10T10:48:41Z</time>
      </trkpt>
      <trkpt lat="48.57744" lon="-3.99122">
        <ele>85.8</ele>
        <time>2020-06-10T10:48:42Z</time>
      </trkpt>
      <trkpt lat="48.57741" lon="-3.99109">
        <ele>85.3</ele>
        <time>2020-06-10T10:48:43Z</time>
      </trkpt>
      <trkpt lat="48.57739" lon="-3.99096">
        <ele>84.9</ele>
        <time>2020-06-10T10:48:44Z</time>
      </trkpt>
      <trkpt lat="48.57737" lon="-3.99083">
        <ele>84.4</ele>
        <time>2020-06-10T10:48:45Z</time>
      </trkpt>
      <trkpt lat="48.57733" lon="-3.9907">
        <ele>83.9</ele>
        <time>2020-06-10T10:48:46Z</time>
      </trkpt>
      <trkpt lat="48.5773" lon="-3.99057">
        <ele>83.4</ele>
        <time>2020-06-10T10:48:47Z</time>
      </trkpt>
      <trkpt lat="48.57727" lon="-3.99043">
        <ele>82.9</ele>
        <time>2020-06-10T10:48:48Z</time>
      </trkpt>
      <trkpt lat="48.57723" lon="-3.99029">
        <ele>82.3</ele>
        <time>2020-06-10T10:48:49Z</time>
      </trkpt>
      <trkpt lat="48.57719" lon="-3.99015">
        <ele>81.6</ele>
        <time>2020-06-10T10:48:50Z</time>
      </trkpt>
      <trkpt lat="48.57714" lon="-3.99">
        <ele>81</ele>
        <time>2020-06-10T10:48:51Z</time>
      </trkpt>
      <trkpt lat="48.5771" lon="-3.98984">
        <ele>80.4</ele>
        <time>2020-06-10T10:48:52Z</time>
      </trkpt>
      <trkpt lat="48.57706" lon="-3.98969">
        <ele>79.8</ele>
        <time>2020-06-10T10:48:53Z</time>
      </trkpt>
      <trkpt lat="48.57701" lon="-3.98953">
        <ele>79.2</ele>
        <time>2020-06-10T10:48:54Z</time>
      </trkpt>
      <trkpt lat="48.57697" lon="-3.98937">
        <ele>78.5</ele>
        <time>2020-06-10T10:48:55Z</time>
      </trkpt>
      <trkpt lat="48.57693" lon="-3.98921">
        <ele>77.8</ele>
        <time>2020-06-10T10:48:56Z</time>
      </trkpt>
      <trkpt lat="48.57688" lon="-3.98904">
        <ele>77.1</ele>
        <time>2020-06-10T10:48:57Z</time>
      </trkpt>
      <trkpt lat="48.57683" lon="-3.98888">
        <ele>76.4</ele>
        <time>2020-06-10T10:48:58Z</time>
      </trkpt>
      <trkpt lat="48.57679" lon="-3.98871">
        <ele>75.6</ele>
        <time>2020-06-10T10:48:59Z</time>
      </trkpt>
      <trkpt lat="48.57674" lon="-3.98854">
        <ele>74.8</ele>
        <time>2020-06-10T10:49:00Z</time>
      </trkpt>
      <trkpt lat="48.5767" lon="-3.98837">
        <ele>74</ele>
        <time>2020-06-10T10:49:01Z</time>
      </trkpt>
      <trkpt lat="48.57665" lon="-3.9882">
        <ele>73.3</ele>
        <time>2020-06-10T10:49:02Z</time>
      </trkpt>
      <trkpt lat="48.5766" lon="-3.98803">
        <ele>72.5</ele>
        <time>2020-06-10T10:49:03Z</time>
      </trkpt>
      <trkpt lat="48.57656" lon="-3.98785">
        <ele>71.7</ele>
        <time>2020-06-10T10:49:04Z</time>
      </trkpt>
      <trkpt lat="48.57651" lon="-3.98768">
        <ele>71</ele>
        <time>2020-06-10T10:49:05Z</time>
      </trkpt>
      <trkpt lat="48.57646" lon="-3.98751">
        <ele>70.2</ele>
        <time>2020-06-10T10:49:06Z</time>
      </trkpt>
      <trkpt lat="48.57641" lon="-3.98733">
        <ele>69.3</ele>
        <time>2020-06-10T10:49:07Z</time>
      </trkpt>
      <trkpt lat="48.57637" lon="-3.98715">
        <ele>68.3</ele>
        <time>2020-06-10T10:49:08Z</time>
      </trkpt>
      <trkpt lat="48.57632" lon="-3.98697">
        <ele>67.3</ele>
        <time>2020-06-10T10:49:09Z</time>
      </trkpt>
      <trkpt lat="48.57627" lon="-3.98678">
        <ele>66.3</ele>
        <time>2020-06-10T10:49:10Z</time>
      </trkpt>
      <trkpt lat="48.57622" lon="-3.9866">
        <ele>65.3</ele>
        <time>2020-06-10T10:49:11Z</time>
      </trkpt>
      <trkpt lat="48.57617" lon="-3.98641">
        <ele>64.2</ele>
        <time>2020-06-10T10:49:12Z</time>
      </trkpt>
      <trkpt lat="48.57612" lon="-3.98622">
        <ele>63.1</ele>
        <time>2020-06-10T10:49:13Z</time>
      </trkpt>
      <trkpt lat="48.57607" lon="-3.98602">
        <ele>62.1</ele>
        <time>2020-06-10T10:49:14Z</time>
      </trkpt>
      <trkpt lat="48.57602" lon="-3.98582">
        <ele>61.2</ele>
        <time>2020-06-10T10:49:15Z</time>
      </trkpt>
      <trkpt lat="48.57597" lon="-3.98563">
        <ele>60.3</ele>
        <time>2020-06-10T10:49:16Z</time>
      </trkpt>
      <trkpt lat="48.57592" lon="-3.98544">
        <ele>59.4</ele>
        <time>2020-06-10T10:49:17Z</time>
      </trkpt>
      <trkpt lat="48.57587" lon="-3.98525">
        <ele>58.6</ele>
        <time>2020-06-10T10:49:18Z</time>
      </trkpt>
      <trkpt lat="48.57582" lon="-3.98506">
        <ele>58.1</ele>
        <time>2020-06-10T10:49:19Z</time>
      </trkpt>
      <trkpt lat="48.57577" lon="-3.98488">
        <ele>57.6</ele>
        <time>2020-06-10T10:49:20Z</time>
      </trkpt>
      <trkpt lat="48.57572" lon="-3.98471">
        <ele>57.3</ele>
        <time>2020-06-10T10:49:21Z</time>
      </trkpt>
      <trkpt lat="48.57567" lon="-3.98453">
        <ele>57.2</ele>
        <time>2020-06-10T10:49:22Z</time>
      </trkpt>
      <trkpt lat="48.57563" lon="-3.98436">
        <ele>57.1</ele>
        <time>2020-06-10T10:49:23Z</time>
      </trkpt>
      <trkpt lat="48.57559" lon="-3.9842">
        <ele>57.1</ele>
        <time>2020-06-10T10:49:24Z</time>
      </trkpt>
      <trkpt lat="48.57555" lon="-3.98404">
        <ele>57.3</ele>
        <time>2020-06-10T10:49:25Z</time>
      </trkpt>
      <trkpt lat="48.57551" lon="-3.98389">
        <ele>57.6</ele>
        <time>2020-06-10T10:49:26Z</time>
      </trkpt>
      <trkpt lat="48.57547" lon="-3.98375">
        <ele>57.9</ele>
        <time>2020-06-10T10:49:27Z</time>
      </trkpt>
      <trkpt lat="48.57544" lon="-3.98361">
        <ele>58.3</ele>
        <time>2020-06-10T10:49:28Z</time>
      </trkpt>
      <trkpt lat="48.57541" lon="-3.98348">
        <ele>58.6</ele>
        <time>2020-06-10T10:49:29Z</time>
      </trkpt>
      <trkpt lat="48.57537" lon="-3.98336">
        <ele>59</ele>
        <time>2020-06-10T10:49:30Z</time>
      </trkpt>
      <trkpt lat="48.57535" lon="-3.98324">
        <ele>59.5</ele>
        <time>2020-06-10T10:49:31Z</time>
      </trkpt>
      <trkpt lat="48.57532" lon="-3.98313">
        <ele>60</ele>
        <time>2020-06-10T10:49:32Z</time>
      </trkpt>
      <trkpt lat="48.57531" lon="-3.98302">
        <ele>60.6</ele>
        <time>2020-06-10T10:49:33Z</time>
      </trkpt>
      <trkpt lat="48.5753" lon="-3.98292">
        <ele>61.2</ele>
        <time>2020-06-10T10:49:34Z</time>
      </trkpt>
      <trkpt lat="48.57528" lon="-3.98282">
        <ele>61.8</ele>
        <time>2020-06-10T10:49:35Z</time>
      </trkpt>
      <trkpt lat="48.57528" lon="-3.98273">
        <ele>62.4</ele>
        <time>2020-06-10T10:49:36Z</time>
      </trkpt>
      <trkpt lat="48.57527" lon="-3.98264">
        <ele>63</ele>
        <time>2020-06-10T10:49:37Z</time>
      </trkpt>
      <trkpt lat="48.57527" lon="-3.98256">
        <ele>63.5</ele>
        <time>2020-06-10T10:49:38Z</time>
      </trkpt>
      <trkpt lat="48.57526" lon="-3.98248">
        <ele>64</ele>
        <time>2020-06-10T10:49:39Z</time>
      </trkpt>
      <trkpt lat="48.57526" lon="-3.98241">
        <ele>64.4</ele>
        <time>2020-06-10T10:49:40Z</time>
      </trkpt>
      <trkpt lat="48.57526" lon="-3.98233">
        <ele>64.9</ele>
        <time>2020-06-10T10:49:41Z</time>
      </trkpt>
      <trkpt lat="48.57526" lon="-3.98226">
        <ele>65.3</ele>
        <time>2020-06-10T10:49:42Z</time>
      </trkpt>
      <trkpt lat="48.57526" lon="-3.98219">
        <ele>65.6</ele>
        <time>2020-06-10T10:49:43Z</time>
      </trkpt>
      <trkpt lat="48.57526" lon="-3.98213">
        <ele>66</ele>
        <time>2020-06-10T10:49:44Z</time>
      </trkpt>
      <trkpt lat="48.57527" lon="-3.98207">
        <ele>66.3</ele>
        <time>2020-06-10T10:49:45Z</time>
      </trkpt>
      <trkpt lat="48.57527" lon="-3.98201">
        <ele>66.7</ele>
        <time>2020-06-10T10:49:46Z</time>
      </trkpt>
      <trkpt lat="48.57528" lon="-3.98195">
        <ele>67</ele>
        <time>2020-06-10T10:49:47Z</time>
      </trkpt>
      <trkpt lat="48.57528" lon="-3.98189">
        <ele>67.3</ele>
        <time>2020-06-10T10:49:48Z</time>
      </trkpt>
      <trkpt lat="48.57529" lon="-3.98184">
        <ele>67.6</ele>
        <time>2020-06-10T10:49:49Z</time>
      </trkpt>
      <trkpt lat="48.5753" lon="-3.98178">
        <ele>67.9</ele>
        <time>2020-06-10T10:49:50Z</time>
      </trkpt>
      <trkpt lat="48.57531" lon="-3.98173">
        <ele>68.2</ele>
        <time>2020-06-10T10:49:51Z</time>
      </trkpt>
      <trkpt lat="48.57533" lon="-3.98168">
        <ele>68.5</ele>
        <time>2020-06-10T10:49:52Z</time>
      </trkpt>
      <trkpt lat="48.57534" lon="-3.98163">
        <ele>68.8</ele>
        <time>2020-06-10T10:49:53Z</time>
      </trkpt>
      <trkpt lat="48.57535" lon="-3.98157">
        <ele>69</ele>
        <time>2020-06-10T10:49:54Z</time>
      </trkpt>
      <trkpt lat="48.57536" lon="-3.98152">
        <ele>69.3</ele>
        <time>2020-06-10T10:49:55Z</time>
      </trkpt>
      <trkpt lat="48.57538" lon="-3.98147">
        <ele>69.6</ele>
        <time>2020-06-10T10:49:56Z</time>
      </trkpt>
      <trkpt lat="48.5754" lon="-3.9814">
        <ele>69.9</ele>
        <time>2020-06-10T10:49:57Z</time>
      </trkpt>
      <trkpt lat="48.5754" lon="-3.98137">
        <ele>70.1</ele>
        <time>2020-06-10T10:49:58Z</time>
      </trkpt>
      <trkpt lat="48.57541" lon="-3.98132">
        <ele>70.4</ele>
        <time>2020-06-10T10:49:59Z</time>
      </trkpt>
      <trkpt lat="48.57544" lon="-3.98126">
        <ele>70.7</ele>
        <time>2020-06-10T10:50:00Z</time>
      </trkpt>
      <trkpt lat="48.57545" lon="-3.98122">
        <ele>70.9</ele>
        <time>2020-06-10T10:50:01Z</time>
      </trkpt>
      <trkpt lat="48.57546" lon="-3.98117">
        <ele>71.1</ele>
        <time>2020-06-10T10:50:02Z</time>
      </trkpt>
      <trkpt lat="48.57547" lon="-3.98113">
        <ele>71.3</ele>
        <time>2020-06-10T10:50:03Z</time>
      </trkpt>
      <trkpt lat="48.57548" lon="-3.98107">
        <ele>71.6</ele>
        <time>2020-06-10T10:50:04Z</time>
      </trkpt>
      <trkpt lat="48.57548" lon="-3.98103">
        <ele>71.8</ele>
        <time>2020-06-10T10:50:05Z</time>
      </trkpt>
      <trkpt lat="48.57549" lon="-3.98097">
        <ele>72.1</ele>
        <time>2020-06-10T10:50:06Z</time>
      </trkpt>
      <trkpt lat="48.57549" lon="-3.98091">
        <ele>72.4</ele>
        <time>2020-06-10T10:50:07Z</time>
      </trkpt>
      <trkpt lat="48.5755" lon="-3.98086">
        <ele>72.6</ele>
        <time>2020-06-10T10:50:08Z</time>
      </trkpt>
      <trkpt lat="48.57552" lon="-3.98081">
        <ele>72.9</ele>
        <time>2020-06-10T10:50:09Z</time>
      </trkpt>
      <trkpt lat="48.57553" lon="-3.98075">
        <ele>73.2</ele>
        <time>2020-06-10T10:50:10Z</time>
      </trkpt>
      <trkpt lat="48.57554" lon="-3.98071">
        <ele>73.4</ele>
        <time>2020-06-10T10:50:11Z</time>
      </trkpt>
      <trkpt lat="48.57555" lon="-3.98067">
        <ele>73.6</ele>
        <time>2020-06-10T10:50:12Z</time>
      </trkpt>
      <trkpt lat="48.57558" lon="-3.9806">
        <ele>73.9</ele>
        <time>2020-06-10T10:50:13Z</time>
      </trkpt>
      <trkpt lat="48.57558" lon="-3.98055">
        <ele>74.1</ele>
        <time>2020-06-10T10:50:14Z</time>
      </trkpt>
      <trkpt lat="48.57559" lon="-3.98049">
        <ele>74.4</ele>
        <time>2020-06-10T10:50:15Z</time>
      </trkpt>
      <trkpt lat="48.57559" lon="-3.98047">
        <ele>74.5</ele>
        <time>2020-06-10T10:50:16Z</time>
      </trkpt>
      <trkpt lat="48.57561" lon="-3.98041">
        <ele>74.7</ele>
        <time>2020-06-10T10:50:17Z</time>
      </trkpt>
      <trkpt lat="48.57561" lon="-3.98039">
        <ele>74.8</ele>
        <time>2020-06-10T10:50:18Z</time>
      </trkpt>
      <trkpt lat="48.57562" lon="-3.98034">
        <ele>75</ele>
        <time>2020-06-10T10:50:19Z</time>
      </trkpt>
      <trkpt lat="48.57562" lon="-3.9803">
        <ele>75.1</ele>
        <time>2020-06-10T10:50:20Z</time>
      </trkpt>
      <trkpt lat="48.57563" lon="-3.98024">
        <ele>75.3</ele>
        <time>2020-06-10T10:50:21Z</time>
      </trkpt>
      <trkpt lat="48.57564" lon="-3.98018">
        <ele>75.5</ele>
        <time>2020-06-10T10:50:22Z</time>
      </trkpt>
      <trkpt lat="48.57565" lon="-3.98012">
        <ele>75.7</ele>
        <time>2020-06-10T10:50:23Z</time>
      </trkpt>
      <trkpt lat="48.57565" lon="-3.98006">
        <ele>75.9</ele>
        <time>2020-06-10T10:50:24Z</time>
      </trkpt>
      <trkpt lat="48.57566" lon="-3.98">
        <ele>76</ele>
        <time>2020-06-10T10:50:25Z</time>
      </trkpt>
      <trkpt lat="48.57567" lon="-3.97996">
        <ele>76.2</ele>
        <time>2020-06-10T10:50:26Z</time>
      </trkpt>
      <trkpt lat="48.57568" lon="-3.97988">
        <ele>76.3</ele>
        <time>2020-06-10T10:50:27Z</time>
      </trkpt>
      <trkpt lat="48.57568" lon="-3.97984">
        <ele>76.4</ele>
        <time>2020-06-10T10:50:28Z</time>
      </trkpt>
      <trkpt lat="48.57568" lon="-3.97979">
        <ele>76.5</ele>
        <time>2020-06-10T10:50:29Z</time>
      </trkpt>
      <trkpt lat="48.57569" lon="-3.97972">
        <ele>76.6</ele>
        <time>2020-06-10T10:50:30Z</time>
      </trkpt>
      <trkpt lat="48.57571" lon="-3.97966">
        <ele>76.8</ele>
        <time>2020-06-10T10:50:31Z</time>
      </trkpt>
      <trkpt lat="48.57572" lon="-3.9796">
        <ele>76.9</ele>
        <time>2020-06-10T10:50:32Z</time>
      </trkpt>
      <trkpt lat="48.57572" lon="-3.97953">
        <ele>77</ele>
        <time>2020-06-10T10:50:33Z</time>
      </trkpt>
      <trkpt lat="48.57573" lon="-3.97947">
        <ele>77.1</ele>
        <time>2020-06-10T10:50:34Z</time>
      </trkpt>
      <trkpt lat="48.57574" lon="-3.9794">
        <ele>77.2</ele>
        <time>2020-06-10T10:50:35Z</time>
      </trkpt>
      <trkpt lat="48.57574" lon="-3.97934">
        <ele>77.3</ele>
        <time>2020-06-10T10:50:36Z</time>
      </trkpt>
      <trkpt lat="48.57574" lon="-3.97926">
        <ele>77.3</ele>
        <time>2020-06-10T10:50:37Z</time>
      </trkpt>
      <trkpt lat="48.57576" lon="-3.97921">
        <ele>77.4</ele>
        <time>2020-06-10T10:50:38Z</time>
      </trkpt>
      <trkpt lat="48.57576" lon="-3.97916">
        <ele>77.4</ele>
        <time>2020-06-10T10:50:39Z</time>
      </trkpt>
      <trkpt lat="48.57577" lon="-3.97908">
        <ele>77.4</ele>
        <time>2020-06-10T10:50:40Z</time>
      </trkpt>
      <trkpt lat="48.57578" lon="-3.97901">
        <ele>77.4</ele>
        <time>2020-06-10T10:50:41Z</time>
      </trkpt>
      <trkpt lat="48.57578" lon="-3.97893">
        <ele>77.4</ele>
        <time>2020-06-10T10:50:42Z</time>
      </trkpt>
      <trkpt lat="48.57579" lon="-3.97887">
        <ele>77.4</ele>
        <time>2020-06-10T10:50:43Z</time>
      </trkpt>
      <trkpt lat="48.57579" lon="-3.97879">
        <ele>77.4</ele>
        <time>2020-06-10T10:50:44Z</time>
      </trkpt>
      <trkpt lat="48.5758" lon="-3.97871">
        <ele>77.4</ele>
        <time>2020-06-10T10:50:45Z</time>
      </trkpt>
      <trkpt lat="48.57581" lon="-3.97864">
        <ele>77.3</ele>
        <time>2020-06-10T10:50:46Z</time>
      </trkpt>
      <trkpt lat="48.57582" lon="-3.97857">
        <ele>77.3</ele>
        <time>2020-06-10T10:50:47Z</time>
      </trkpt>
      <trkpt lat="48.57584" lon="-3.97848">
        <ele>77.2</ele>
        <time>2020-06-10T10:50:48Z</time>
      </trkpt>
      <trkpt lat="48.57585" lon="-3.97841">
        <ele>77.1</ele>
        <time>2020-06-10T10:50:49Z</time>
      </trkpt>
      <trkpt lat="48.57588" lon="-3.97828">
        <ele>76.9</ele>
        <time>2020-06-10T10:50:50Z</time>
      </trkpt>
      <trkpt lat="48.5759" lon="-3.97817">
        <ele>76.6</ele>
        <time>2020-06-10T10:50:51Z</time>
      </trkpt>
      <trkpt lat="48.57591" lon="-3.97807">
        <ele>76.4</ele>
        <time>2020-06-10T10:50:52Z</time>
      </trkpt>
      <trkpt lat="48.57592" lon="-3.97799">
        <ele>76.2</ele>
        <time>2020-06-10T10:50:53Z</time>
      </trkpt>
      <trkpt lat="48.57594" lon="-3.97789">
        <ele>76</ele>
        <time>2020-06-10T10:50:54Z</time>
      </trkpt>
      <trkpt lat="48.57595" lon="-3.97779">
        <ele>75.7</ele>
        <time>2020-06-10T10:50:55Z</time>
      </trkpt>
      <trkpt lat="48.57596" lon="-3.9777">
        <ele>75.5</ele>
        <time>2020-06-10T10:50:56Z</time>
      </trkpt>
      <trkpt lat="48.57596" lon="-3.97761">
        <ele>75.3</ele>
        <time>2020-06-10T10:50:57Z</time>
      </trkpt>
      <trkpt lat="48.57595" lon="-3.97755">
        <ele>75.3</ele>
        <time>2020-06-10T10:50:58Z</time>
      </trkpt>
      <trkpt lat="48.57594" lon="-3.97751">
        <ele>75.3</ele>
        <time>2020-06-10T10:50:59Z</time>
      </trkpt>
      <trkpt lat="48.57594" lon="-3.97747">
        <ele>75.3</ele>
        <time>2020-06-10T10:51:00Z</time>
      </trkpt>
      <trkpt lat="48.57593" lon="-3.97746">
        <ele>75.3</ele>
        <time>2020-06-10T10:51:01Z</time>
      </trkpt>
      <trkpt lat="48.57593" lon="-3.97743">
        <ele>75.3</ele>
        <time>2020-06-10T10:51:02Z</time>
      </trkpt>
      <trkpt lat="48.57593" lon="-3.97745">
        <ele>75.3</ele>
        <time>2020-06-10T10:51:03Z</time>
      </trkpt>
      <trkpt lat="48.57593" lon="-3.97745">
        <ele>75.3</ele>
        <time>2020-06-10T10:51:04Z</time>
      </trkpt>
      <trkpt lat="48.57593" lon="-3.97745">
        <ele>75.3</ele>
        <time>2020-06-10T10:51:05Z</time>
      </trkpt>
      <trkpt lat="48.57592" lon="-3.97745">
        <ele>75.3</ele>
        <time>2020-06-10T10:51:06Z</time>
      </trkpt>
      <trkpt lat="48.57592" lon="-3.97747">
        <ele>75.3</ele>
        <time>2020-06-10T10:51:07Z</time>
      </trkpt>
      <trkpt lat="48.57592" lon="-3.97746">
        <ele>75.3</ele>
        <time>2020-06-10T10:51:08Z</time>
      </trkpt>
      <trkpt lat="48.57592" lon="-3.97746">
        <ele>75.3</ele>
        <time>2020-06-10T10:51:09Z</time>
      </trkpt>
      <trkpt lat="48.57592" lon="-3.97747">
        <ele>75.3</ele>
        <time>2020-06-10T10:51:10Z</time>
      </trkpt>
      <trkpt lat="48.57592" lon="-3.97747">
        <ele>75.3</ele>
        <time>2020-06-10T10:51:11Z</time>
      </trkpt>
      <trkpt lat="48.57593" lon="-3.97748">
        <ele>75.3</ele>
        <time>2020-06-10T10:51:12Z</time>
      </trkpt>
      <trkpt lat="48.57592" lon="-3.97748">
        <ele>75.3</ele>
        <time>2020-06-10T10:51:13Z</time>
      </trkpt>
      <trkpt lat="48.57592" lon="-3.97749">
        <ele>75.3</ele>
        <time>2020-06-10T10:51:14Z</time>
      </trkpt>
      <trkpt lat="48.57593" lon="-3.97749">
        <ele>75.3</ele>
        <time>2020-06-10T10:51:15Z</time>
      </trkpt>
      <trkpt lat="48.57593" lon="-3.97749">
        <ele>75.3</ele>
        <time>2020-06-10T10:51:16Z</time>
      </trkpt>
      <trkpt lat="48.57593" lon="-3.97748">
        <ele>75.3</ele>
        <time>2020-06-10T10:51:17Z</time>
      </trkpt>
      <trkpt lat="48.57593" lon="-3.97747">
        <ele>75.3</ele>
        <time>2020-06-10T10:51:18Z</time>
      </trkpt>
      <trkpt lat="48.57597" lon="-3.97739">
        <ele>75.2</ele>
        <time>2020-06-10T10:51:21Z</time>
      </trkpt>
      <trkpt lat="48.57598" lon="-3.97734">
        <ele>75</ele>
        <time>2020-06-10T10:51:22Z</time>
      </trkpt>
      <trkpt lat="48.57599" lon="-3.97731">
        <ele>74.9</ele>
        <time>2020-06-10T10:51:23Z</time>
      </trkpt>
      <trkpt lat="48.57601" lon="-3.97724">
        <ele>74.6</ele>
        <time>2020-06-10T10:51:24Z</time>
      </trkpt>
      <trkpt lat="48.57603" lon="-3.97717">
        <ele>74.2</ele>
        <time>2020-06-10T10:51:25Z</time>
      </trkpt>
      <trkpt lat="48.57604" lon="-3.97708">
        <ele>73.8</ele>
        <time>2020-06-10T10:51:26Z</time>
      </trkpt>
      <trkpt lat="48.57606" lon="-3.977">
        <ele>73.4</ele>
        <time>2020-06-10T10:51:27Z</time>
      </trkpt>
      <trkpt lat="48.57607" lon="-3.97692">
        <ele>73</ele>
        <time>2020-06-10T10:51:28Z</time>
      </trkpt>
      <trkpt lat="48.57608" lon="-3.97683">
        <ele>72.6</ele>
        <time>2020-06-10T10:51:29Z</time>
      </trkpt>
      <trkpt lat="48.57609" lon="-3.97671">
        <ele>72</ele>
        <time>2020-06-10T10:51:30Z</time>
      </trkpt>
      <trkpt lat="48.57611" lon="-3.9766">
        <ele>71.4</ele>
        <time>2020-06-10T10:51:31Z</time>
      </trkpt>
      <trkpt lat="48.57612" lon="-3.97647">
        <ele>70.9</ele>
        <time>2020-06-10T10:51:32Z</time>
      </trkpt>
      <trkpt lat="48.57613" lon="-3.97634">
        <ele>70.3</ele>
        <time>2020-06-10T10:51:33Z</time>
      </trkpt>
      <trkpt lat="48.57614" lon="-3.9762">
        <ele>69.6</ele>
        <time>2020-06-10T10:51:34Z</time>
      </trkpt>
      <trkpt lat="48.57615" lon="-3.97605">
        <ele>68.9</ele>
        <time>2020-06-10T10:51:35Z</time>
      </trkpt>
      <trkpt lat="48.57615" lon="-3.97592">
        <ele>68.2</ele>
        <time>2020-06-10T10:51:36Z</time>
      </trkpt>
      <trkpt lat="48.57616" lon="-3.97579">
        <ele>67.4</ele>
        <time>2020-06-10T10:51:37Z</time>
      </trkpt>
      <trkpt lat="48.57617" lon="-3.97564">
        <ele>66.6</ele>
        <time>2020-06-10T10:51:38Z</time>
      </trkpt>
      <trkpt lat="48.57616" lon="-3.9755">
        <ele>65.8</ele>
        <time>2020-06-10T10:51:39Z</time>
      </trkpt>
      <trkpt lat="48.57616" lon="-3.97534">
        <ele>65</ele>
        <time>2020-06-10T10:51:40Z</time>
      </trkpt>
      <trkpt lat="48.57615" lon="-3.97518">
        <ele>64.1</ele>
        <time>2020-06-10T10:51:41Z</time>
      </trkpt>
      <trkpt lat="48.57614" lon="-3.97502">
        <ele>63.3</ele>
        <time>2020-06-10T10:51:42Z</time>
      </trkpt>
      <trkpt lat="48.57614" lon="-3.97486">
        <ele>62.4</ele>
        <time>2020-06-10T10:51:43Z</time>
      </trkpt>
      <trkpt lat="48.57613" lon="-3.9747">
        <ele>61.5</ele>
        <time>2020-06-10T10:51:44Z</time>
      </trkpt>
      <trkpt lat="48.57612" lon="-3.97453">
        <ele>60.7</ele>
        <time>2020-06-10T10:51:45Z</time>
      </trkpt>
      <trkpt lat="48.57611" lon="-3.97435">
        <ele>60</ele>
        <time>2020-06-10T10:51:46Z</time>
      </trkpt>
      <trkpt lat="48.57611" lon="-3.97417">
        <ele>59.4</ele>
        <time>2020-06-10T10:51:47Z</time>
      </trkpt>
      <trkpt lat="48.57612" lon="-3.97399">
        <ele>58.8</ele>
        <time>2020-06-10T10:51:48Z</time>
      </trkpt>
      <trkpt lat="48.57614" lon="-3.97382">
        <ele>58.3</ele>
        <time>2020-06-10T10:51:49Z</time>
      </trkpt>
      <trkpt lat="48.57616" lon="-3.97364">
        <ele>57.9</ele>
        <time>2020-06-10T10:51:50Z</time>
      </trkpt>
      <trkpt lat="48.57619" lon="-3.97348">
        <ele>57.5</ele>
        <time>2020-06-10T10:51:51Z</time>
      </trkpt>
      <trkpt lat="48.57622" lon="-3.97332">
        <ele>57.2</ele>
        <time>2020-06-10T10:51:52Z</time>
      </trkpt>
      <trkpt lat="48.57626" lon="-3.97316">
        <ele>57.1</ele>
        <time>2020-06-10T10:51:53Z</time>
      </trkpt>
      <trkpt lat="48.57631" lon="-3.97301">
        <ele>57.1</ele>
        <time>2020-06-10T10:51:54Z</time>
      </trkpt>
      <trkpt lat="48.57636" lon="-3.97287">
        <ele>57.3</ele>
        <time>2020-06-10T10:51:55Z</time>
      </trkpt>
      <trkpt lat="48.57642" lon="-3.97274">
        <ele>57.5</ele>
        <time>2020-06-10T10:51:56Z</time>
      </trkpt>
      <trkpt lat="48.57647" lon="-3.97262">
        <ele>57.8</ele>
        <time>2020-06-10T10:51:57Z</time>
      </trkpt>
      <trkpt lat="48.57651" lon="-3.97249">
        <ele>58.1</ele>
        <time>2020-06-10T10:51:58Z</time>
      </trkpt>
      <trkpt lat="48.57656" lon="-3.97238">
        <ele>58.4</ele>
        <time>2020-06-10T10:51:59Z</time>
      </trkpt>
      <trkpt lat="48.57661" lon="-3.97227">
        <ele>58.8</ele>
        <time>2020-06-10T10:52:00Z</time>
      </trkpt>
      <trkpt lat="48.57666" lon="-3.97217">
        <ele>59.1</ele>
        <time>2020-06-10T10:52:01Z</time>
      </trkpt>
      <trkpt lat="48.57669" lon="-3.97208">
        <ele>59.5</ele>
        <time>2020-06-10T10:52:02Z</time>
      </trkpt>
      <trkpt lat="48.57673" lon="-3.97198">
        <ele>60</ele>
        <time>2020-06-10T10:52:03Z</time>
      </trkpt>
      <trkpt lat="48.57677" lon="-3.97189">
        <ele>60.5</ele>
        <time>2020-06-10T10:52:04Z</time>
      </trkpt>
      <trkpt lat="48.5768" lon="-3.9718">
        <ele>61.1</ele>
        <time>2020-06-10T10:52:05Z</time>
      </trkpt>
      <trkpt lat="48.57684" lon="-3.97172">
        <ele>61.8</ele>
        <time>2020-06-10T10:52:06Z</time>
      </trkpt>
      <trkpt lat="48.57688" lon="-3.97165">
        <ele>62.4</ele>
        <time>2020-06-10T10:52:07Z</time>
      </trkpt>
      <trkpt lat="48.57691" lon="-3.97158">
        <ele>63</ele>
        <time>2020-06-10T10:52:08Z</time>
      </trkpt>
      <trkpt lat="48.57694" lon="-3.97151">
        <ele>63.6</ele>
        <time>2020-06-10T10:52:09Z</time>
      </trkpt>
      <trkpt lat="48.57696" lon="-3.97144">
        <ele>64.1</ele>
        <time>2020-06-10T10:52:10Z</time>
      </trkpt>
      <trkpt lat="48.57699" lon="-3.97137">
        <ele>64.6</ele>
        <time>2020-06-10T10:52:11Z</time>
      </trkpt>
      <trkpt lat="48.57703" lon="-3.97132">
        <ele>65</ele>
        <time>2020-06-10T10:52:12Z</time>
      </trkpt>
      <trkpt lat="48.57706" lon="-3.97126">
        <ele>65.5</ele>
        <time>2020-06-10T10:52:13Z</time>
      </trkpt>
      <trkpt lat="48.57709" lon="-3.9712">
        <ele>65.9</ele>
        <time>2020-06-10T10:52:14Z</time>
      </trkpt>
      <trkpt lat="48.5771" lon="-3.97114">
        <ele>66.3</ele>
        <time>2020-06-10T10:52:15Z</time>
      </trkpt>
      <trkpt lat="48.57712" lon="-3.97108">
        <ele>66.6</ele>
        <time>2020-06-10T10:52:16Z</time>
      </trkpt>
      <trkpt lat="48.57715" lon="-3.97103">
        <ele>67</ele>
        <time>2020-06-10T10:52:17Z</time>
      </trkpt>
      <trkpt lat="48.57717" lon="-3.97098">
        <ele>67.3</ele>
        <time>2020-06-10T10:52:18Z</time>
      </trkpt>
      <trkpt lat="48.5772" lon="-3.97093">
        <ele>67.5</ele>
        <time>2020-06-10T10:52:19Z</time>
      </trkpt>
      <trkpt lat="48.57723" lon="-3.97089">
        <ele>67.8</ele>
        <time>2020-06-10T10:52:20Z</time>
      </trkpt>
      <trkpt lat="48.57725" lon="-3.97084">
        <ele>68</ele>
        <time>2020-06-10T10:52:21Z</time>
      </trkpt>
      <trkpt lat="48.57727" lon="-3.97079">
        <ele>68.2</ele>
        <time>2020-06-10T10:52:22Z</time>
      </trkpt>
      <trkpt lat="48.57729" lon="-3.97075">
        <ele>68.5</ele>
        <time>2020-06-10T10:52:23Z</time>
      </trkpt>
      <trkpt lat="48.57731" lon="-3.9707">
        <ele>68.7</ele>
        <time>2020-06-10T10:52:24Z</time>
      </trkpt>
      <trkpt lat="48.57734" lon="-3.97065">
        <ele>68.9</ele>
        <time>2020-06-10T10:52:25Z</time>
      </trkpt>
      <trkpt lat="48.57736" lon="-3.97059">
        <ele>69.1</ele>
        <time>2020-06-10T10:52:26Z</time>
      </trkpt>
      <trkpt lat="48.57739" lon="-3.97053">
        <ele>69.4</ele>
        <time>2020-06-10T10:52:27Z</time>
      </trkpt>
      <trkpt lat="48.57741" lon="-3.97047">
        <ele>69.6</ele>
        <time>2020-06-10T10:52:28Z</time>
      </trkpt>
      <trkpt lat="48.57743" lon="-3.9704">
        <ele>69.8</ele>
        <time>2020-06-10T10:52:29Z</time>
      </trkpt>
      <trkpt lat="48.57745" lon="-3.97034">
        <ele>70</ele>
        <time>2020-06-10T10:52:30Z</time>
      </trkpt>
      <trkpt lat="48.57748" lon="-3.97029">
        <ele>70.2</ele>
        <time>2020-06-10T10:52:31Z</time>
      </trkpt>
      <trkpt lat="48.57751" lon="-3.97021">
        <ele>70.5</ele>
        <time>2020-06-10T10:52:32Z</time>
      </trkpt>
      <trkpt lat="48.57753" lon="-3.97015">
        <ele>70.7</ele>
        <time>2020-06-10T10:52:33Z</time>
      </trkpt>
      <trkpt lat="48.57756" lon="-3.97008">
        <ele>70.9</ele>
        <time>2020-06-10T10:52:34Z</time>
      </trkpt>
      <trkpt lat="48.57758" lon="-3.97002">
        <ele>71.1</ele>
        <time>2020-06-10T10:52:35Z</time>
      </trkpt>
      <trkpt lat="48.5776" lon="-3.96996">
        <ele>71.3</ele>
        <time>2020-06-10T10:52:36Z</time>
      </trkpt>
      <trkpt lat="48.57762" lon="-3.96991">
        <ele>71.5</ele>
        <time>2020-06-10T10:52:37Z</time>
      </trkpt>
      <trkpt lat="48.57765" lon="-3.96984">
        <ele>71.7</ele>
        <time>2020-06-10T10:52:38Z</time>
      </trkpt>
      <trkpt lat="48.57767" lon="-3.9698">
        <ele>71.8</ele>
        <time>2020-06-10T10:52:39Z</time>
      </trkpt>
      <trkpt lat="48.57768" lon="-3.96975">
        <ele>72</ele>
        <time>2020-06-10T10:52:40Z</time>
      </trkpt>
      <trkpt lat="48.5777" lon="-3.96968">
        <ele>72.2</ele>
        <time>2020-06-10T10:52:41Z</time>
      </trkpt>
      <trkpt lat="48.57772" lon="-3.96963">
        <ele>72.4</ele>
        <time>2020-06-10T10:52:42Z</time>
      </trkpt>
      <trkpt lat="48.57774" lon="-3.96956">
        <ele>72.6</ele>
        <time>2020-06-10T10:52:43Z</time>
      </trkpt>
      <trkpt lat="48.57775" lon="-3.96951">
        <ele>72.7</ele>
        <time>2020-06-10T10:52:44Z</time>
      </trkpt>
      <trkpt lat="48.57776" lon="-3.96945">
        <ele>72.9</ele>
        <time>2020-06-10T10:52:45Z</time>
      </trkpt>
      <trkpt lat="48.57778" lon="-3.96938">
        <ele>73.1</ele>
        <time>2020-06-10T10:52:46Z</time>
      </trkpt>
      <trkpt lat="48.57779" lon="-3.96932">
        <ele>73.3</ele>
        <time>2020-06-10T10:52:47Z</time>
      </trkpt>
      <trkpt lat="48.57781" lon="-3.96925">
        <ele>73.5</ele>
        <time>2020-06-10T10:52:48Z</time>
      </trkpt>
      <trkpt lat="48.57782" lon="-3.96919">
        <ele>73.7</ele>
        <time>2020-06-10T10:52:49Z</time>
      </trkpt>
      <trkpt lat="48.57783" lon="-3.96912">
        <ele>73.9</ele>
        <time>2020-06-10T10:52:50Z</time>
      </trkpt>
      <trkpt lat="48.57783" lon="-3.96906">
        <ele>74.1</ele>
        <time>2020-06-10T10:52:51Z</time>
      </trkpt>
      <trkpt lat="48.57784" lon="-3.969">
        <ele>74.3</ele>
        <time>2020-06-10T10:52:52Z</time>
      </trkpt>
      <trkpt lat="48.57785" lon="-3.96894">
        <ele>74.6</ele>
        <time>2020-06-10T10:52:53Z</time>
      </trkpt>
      <trkpt lat="48.57785" lon="-3.96888">
        <ele>74.8</ele>
        <time>2020-06-10T10:52:54Z</time>
      </trkpt>
      <trkpt lat="48.57786" lon="-3.9688">
        <ele>75</ele>
        <time>2020-06-10T10:52:55Z</time>
      </trkpt>
      <trkpt lat="48.57787" lon="-3.96873">
        <ele>75.2</ele>
        <time>2020-06-10T10:52:56Z</time>
      </trkpt>
      <trkpt lat="48.57788" lon="-3.96864">
        <ele>75.4</ele>
        <time>2020-06-10T10:52:57Z</time>
      </trkpt>
      <trkpt lat="48.57789" lon="-3.96856">
        <ele>75.6</ele>
        <time>2020-06-10T10:52:58Z</time>
      </trkpt>
      <trkpt lat="48.5779" lon="-3.96848">
        <ele>75.8</ele>
        <time>2020-06-10T10:52:59Z</time>
      </trkpt>
      <trkpt lat="48.57791" lon="-3.9684">
        <ele>76</ele>
        <time>2020-06-10T10:53:00Z</time>
      </trkpt>
      <trkpt lat="48.57791" lon="-3.96834">
        <ele>76.2</ele>
        <time>2020-06-10T10:53:01Z</time>
      </trkpt>
      <trkpt lat="48.57792" lon="-3.96828">
        <ele>76.3</ele>
        <time>2020-06-10T10:53:02Z</time>
      </trkpt>
      <trkpt lat="48.57792" lon="-3.96823">
        <ele>76.5</ele>
        <time>2020-06-10T10:53:03Z</time>
      </trkpt>
      <trkpt lat="48.57792" lon="-3.96816">
        <ele>76.6</ele>
        <time>2020-06-10T10:53:04Z</time>
      </trkpt>
      <trkpt lat="48.57792" lon="-3.9681">
        <ele>76.8</ele>
        <time>2020-06-10T10:53:05Z</time>
      </trkpt>
      <trkpt lat="48.57793" lon="-3.96803">
        <ele>77</ele>
        <time>2020-06-10T10:53:06Z</time>
      </trkpt>
      <trkpt lat="48.57793" lon="-3.96798">
        <ele>77.1</ele>
        <time>2020-06-10T10:53:07Z</time>
      </trkpt>
      <trkpt lat="48.57793" lon="-3.96793">
        <ele>77.2</ele>
        <time>2020-06-10T10:53:08Z</time>
      </trkpt>
      <trkpt lat="48.57793" lon="-3.96788">
        <ele>77.4</ele>
        <time>2020-06-10T10:53:09Z</time>
      </trkpt>
      <trkpt lat="48.57794" lon="-3.96782">
        <ele>77.5</ele>
        <time>2020-06-10T10:53:10Z</time>
      </trkpt>
      <trkpt lat="48.57794" lon="-3.96776">
        <ele>77.7</ele>
        <time>2020-06-10T10:53:11Z</time>
      </trkpt>
      <trkpt lat="48.57794" lon="-3.9677">
        <ele>77.8</ele>
        <time>2020-06-10T10:53:12Z</time>
      </trkpt>
      <trkpt lat="48.57794" lon="-3.96765">
        <ele>78</ele>
        <time>2020-06-10T10:53:13Z</time>
      </trkpt>
      <trkpt lat="48.57794" lon="-3.96759">
        <ele>78.1</ele>
        <time>2020-06-10T10:53:14Z</time>
      </trkpt>
      <trkpt lat="48.57794" lon="-3.96754">
        <ele>78.3</ele>
        <time>2020-06-10T10:53:15Z</time>
      </trkpt>
      <trkpt lat="48.57794" lon="-3.96748">
        <ele>78.4</ele>
        <time>2020-06-10T10:53:16Z</time>
      </trkpt>
      <trkpt lat="48.57794" lon="-3.96742">
        <ele>78.5</ele>
        <time>2020-06-10T10:53:17Z</time>
      </trkpt>
      <trkpt lat="48.57794" lon="-3.96736">
        <ele>78.7</ele>
        <time>2020-06-10T10:53:18Z</time>
      </trkpt>
      <trkpt lat="48.57794" lon="-3.96729">
        <ele>78.8</ele>
        <time>2020-06-10T10:53:19Z</time>
      </trkpt>
      <trkpt lat="48.57794" lon="-3.96723">
        <ele>79</ele>
        <time>2020-06-10T10:53:20Z</time>
      </trkpt>
      <trkpt lat="48.57793" lon="-3.96716">
        <ele>79.1</ele>
        <time>2020-06-10T10:53:21Z</time>
      </trkpt>
      <trkpt lat="48.57793" lon="-3.96709">
        <ele>79.3</ele>
        <time>2020-06-10T10:53:22Z</time>
      </trkpt>
      <trkpt lat="48.57793" lon="-3.96701">
        <ele>79.4</ele>
        <time>2020-06-10T10:53:23Z</time>
      </trkpt>
      <trkpt lat="48.57793" lon="-3.96695">
        <ele>79.6</ele>
        <time>2020-06-10T10:53:24Z</time>
      </trkpt>
      <trkpt lat="48.57792" lon="-3.9669">
        <ele>79.6</ele>
        <time>2020-06-10T10:53:25Z</time>
      </trkpt>
      <trkpt lat="48.57792" lon="-3.96683">
        <ele>79.8</ele>
        <time>2020-06-10T10:53:26Z</time>
      </trkpt>
      <trkpt lat="48.57791" lon="-3.96677">
        <ele>79.8</ele>
        <time>2020-06-10T10:53:27Z</time>
      </trkpt>
      <trkpt lat="48.57791" lon="-3.96672">
        <ele>79.9</ele>
        <time>2020-06-10T10:53:28Z</time>
      </trkpt>
      <trkpt lat="48.57791" lon="-3.96666">
        <ele>80</ele>
        <time>2020-06-10T10:53:29Z</time>
      </trkpt>
      <trkpt lat="48.5779" lon="-3.9666">
        <ele>80.1</ele>
        <time>2020-06-10T10:53:30Z</time>
      </trkpt>
      <trkpt lat="48.5779" lon="-3.96655">
        <ele>80.2</ele>
        <time>2020-06-10T10:53:31Z</time>
      </trkpt>
      <trkpt lat="48.57789" lon="-3.96649">
        <ele>80.2</ele>
        <time>2020-06-10T10:53:32Z</time>
      </trkpt>
      <trkpt lat="48.57789" lon="-3.96644">
        <ele>80.3</ele>
        <time>2020-06-10T10:53:33Z</time>
      </trkpt>
      <trkpt lat="48.57788" lon="-3.9664">
        <ele>80.4</ele>
        <time>2020-06-10T10:53:34Z</time>
      </trkpt>
      <trkpt lat="48.57788" lon="-3.96635">
        <ele>80.4</ele>
        <time>2020-06-10T10:53:35Z</time>
      </trkpt>
      <trkpt lat="48.57788" lon="-3.96631">
        <ele>80.5</ele>
        <time>2020-06-10T10:53:36Z</time>
      </trkpt>
      <trkpt lat="48.57787" lon="-3.96627">
        <ele>80.5</ele>
        <time>2020-06-10T10:53:37Z</time>
      </trkpt>
      <trkpt lat="48.57787" lon="-3.96622">
        <ele>80.6</ele>
        <time>2020-06-10T10:53:38Z</time>
      </trkpt>
      <trkpt lat="48.57787" lon="-3.96618">
        <ele>80.6</ele>
        <time>2020-06-10T10:53:39Z</time>
      </trkpt>
      <trkpt lat="48.57786" lon="-3.96613">
        <ele>80.6</ele>
        <time>2020-06-10T10:53:40Z</time>
      </trkpt>
      <trkpt lat="48.57785" lon="-3.96611">
        <ele>80.6</ele>
        <time>2020-06-10T10:53:41Z</time>
      </trkpt>
      <trkpt lat="48.57784" lon="-3.96606">
        <ele>80.6</ele>
        <time>2020-06-10T10:53:42Z</time>
      </trkpt>
      <trkpt lat="48.57783" lon="-3.96604">
        <ele>80.6</ele>
        <time>2020-06-10T10:53:43Z</time>
      </trkpt>
      <trkpt lat="48.57782" lon="-3.96602">
        <ele>80.6</ele>
        <time>2020-06-10T10:53:44Z</time>
      </trkpt>
      <trkpt lat="48.57781" lon="-3.966">
        <ele>80.6</ele>
        <time>2020-06-10T10:53:45Z</time>
      </trkpt>
      <trkpt lat="48.57781" lon="-3.96598">
        <ele>80.6</ele>
        <time>2020-06-10T10:53:46Z</time>
      </trkpt>
      <trkpt lat="48.5778" lon="-3.96595">
        <ele>80.7</ele>
        <time>2020-06-10T10:53:47Z</time>
      </trkpt>
      <trkpt lat="48.57779" lon="-3.9659">
        <ele>80.8</ele>
        <time>2020-06-10T10:53:48Z</time>
      </trkpt>
      <trkpt lat="48.57779" lon="-3.96588">
        <ele>80.8</ele>
        <time>2020-06-10T10:53:49Z</time>
      </trkpt>
      <trkpt lat="48.57778" lon="-3.96585">
        <ele>80.8</ele>
        <time>2020-06-10T10:53:50Z</time>
      </trkpt>
      <trkpt lat="48.57778" lon="-3.96583">
        <ele>80.8</ele>
        <time>2020-06-10T10:53:51Z</time>
      </trkpt>
      <trkpt lat="48.57777" lon="-3.9658">
        <ele>80.8</ele>
        <time>2020-06-10T10:53:52Z</time>
      </trkpt>
      <trkpt lat="48.57778" lon="-3.96579">
        <ele>80.8</ele>
        <time>2020-06-10T10:53:53Z</time>
      </trkpt>
      <trkpt lat="48.57778" lon="-3.96578">
        <ele>80.8</ele>
        <time>2020-06-10T10:53:54Z</time>
      </trkpt>
      <trkpt lat="48.57778" lon="-3.96577">
        <ele>80.8</ele>
        <time>2020-06-10T10:53:55Z</time>
      </trkpt>
      <trkpt lat="48.57778" lon="-3.96576">
        <ele>80.7</ele>
        <time>2020-06-10T10:53:56Z</time>
      </trkpt>
      <trkpt lat="48.57778" lon="-3.96575">
        <ele>80.7</ele>
        <time>2020-06-10T10:53:57Z</time>
      </trkpt>
      <trkpt lat="48.57778" lon="-3.96574">
        <ele>80.7</ele>
        <time>2020-06-10T10:53:58Z</time>
      </trkpt>
      <trkpt lat="48.57779" lon="-3.96573">
        <ele>80.7</ele>
        <time>2020-06-10T10:53:59Z</time>
      </trkpt>
      <trkpt lat="48.57779" lon="-3.96572">
        <ele>80.7</ele>
        <time>2020-06-10T10:54:00Z</time>
      </trkpt>
      <trkpt lat="48.57779" lon="-3.96571">
        <ele>80.6</ele>
        <time>2020-06-10T10:54:01Z</time>
      </trkpt>
      <trkpt lat="48.57779" lon="-3.9657">
        <ele>80.6</ele>
        <time>2020-06-10T10:54:02Z</time>
      </trkpt>
      <trkpt lat="48.57779" lon="-3.96569">
        <ele>80.6</ele>
        <time>2020-06-10T10:54:03Z</time>
      </trkpt>
      <trkpt lat="48.5778" lon="-3.96567">
        <ele>80.6</ele>
        <time>2020-06-10T10:54:04Z</time>
      </trkpt>
      <trkpt lat="48.5778" lon="-3.96566">
        <ele>80.5</ele>
        <time>2020-06-10T10:55:24Z</time>
      </trkpt>
      <trkpt lat="48.5778" lon="-3.96565">
        <ele>80.5</ele>
        <time>2020-06-10T10:55:25Z</time>
      </trkpt>
      <trkpt lat="48.57779" lon="-3.96561">
        <ele>80.4</ele>
        <time>2020-06-10T10:55:26Z</time>
      </trkpt>
      <trkpt lat="48.57778" lon="-3.96556">
        <ele>80.3</ele>
        <time>2020-06-10T10:55:27Z</time>
      </trkpt>
      <trkpt lat="48.57778" lon="-3.96549">
        <ele>80.1</ele>
        <time>2020-06-10T10:55:28Z</time>
      </trkpt>
      <trkpt lat="48.57776" lon="-3.96543">
        <ele>79.9</ele>
        <time>2020-06-10T10:55:29Z</time>
      </trkpt>
      <trkpt lat="48.57775" lon="-3.96536">
        <ele>79.8</ele>
        <time>2020-06-10T10:55:30Z</time>
      </trkpt>
      <trkpt lat="48.57773" lon="-3.96529">
        <ele>79.6</ele>
        <time>2020-06-10T10:55:31Z</time>
      </trkpt>
      <trkpt lat="48.57771" lon="-3.96522">
        <ele>79.4</ele>
        <time>2020-06-10T10:55:32Z</time>
      </trkpt>
      <trkpt lat="48.5777" lon="-3.96513">
        <ele>79.2</ele>
        <time>2020-06-10T10:55:33Z</time>
      </trkpt>
      <trkpt lat="48.57768" lon="-3.96506">
        <ele>78.9</ele>
        <time>2020-06-10T10:55:34Z</time>
      </trkpt>
      <trkpt lat="48.57765" lon="-3.96498">
        <ele>78.6</ele>
        <time>2020-06-10T10:55:35Z</time>
      </trkpt>
      <trkpt lat="48.57764" lon="-3.96489">
        <ele>78.2</ele>
        <time>2020-06-10T10:55:36Z</time>
      </trkpt>
      <trkpt lat="48.57761" lon="-3.9648">
        <ele>77.8</ele>
        <time>2020-06-10T10:55:37Z</time>
      </trkpt>
      <trkpt lat="48.57759" lon="-3.96469">
        <ele>77.3</ele>
        <time>2020-06-10T10:55:38Z</time>
      </trkpt>
      <trkpt lat="48.57756" lon="-3.96459">
        <ele>76.7</ele>
        <time>2020-06-10T10:55:39Z</time>
      </trkpt>
      <trkpt lat="48.57753" lon="-3.96447">
        <ele>76.2</ele>
        <time>2020-06-10T10:55:40Z</time>
      </trkpt>
      <trkpt lat="48.5775" lon="-3.96435">
        <ele>75.5</ele>
        <time>2020-06-10T10:55:41Z</time>
      </trkpt>
      <trkpt lat="48.57748" lon="-3.96421">
        <ele>74.7</ele>
        <time>2020-06-10T10:55:42Z</time>
      </trkpt>
      <trkpt lat="48.57745" lon="-3.96407">
        <ele>73.9</ele>
        <time>2020-06-10T10:55:43Z</time>
      </trkpt>
      <trkpt lat="48.57742" lon="-3.96392">
        <ele>73</ele>
        <time>2020-06-10T10:55:44Z</time>
      </trkpt>
      <trkpt lat="48.5774" lon="-3.96376">
        <ele>72.1</ele>
        <time>2020-06-10T10:55:45Z</time>
      </trkpt>
      <trkpt lat="48.57737" lon="-3.9636">
        <ele>71.2</ele>
        <time>2020-06-10T10:55:46Z</time>
      </trkpt>
      <trkpt lat="48.57734" lon="-3.96343">
        <ele>70.2</ele>
        <time>2020-06-10T10:55:47Z</time>
      </trkpt>
      <trkpt lat="48.57732" lon="-3.96325">
        <ele>69.2</ele>
        <time>2020-06-10T10:55:48Z</time>
      </trkpt>
      <trkpt lat="48.5773" lon="-3.96307">
        <ele>68.3</ele>
        <time>2020-06-10T10:55:49Z</time>
      </trkpt>
      <trkpt lat="48.57729" lon="-3.96288">
        <ele>67.5</ele>
        <time>2020-06-10T10:55:50Z</time>
      </trkpt>
      <trkpt lat="48.57729" lon="-3.96269">
        <ele>66.6</ele>
        <time>2020-06-10T10:55:51Z</time>
      </trkpt>
      <trkpt lat="48.57729" lon="-3.9625">
        <ele>65.9</ele>
        <time>2020-06-10T10:55:52Z</time>
      </trkpt>
      <trkpt lat="48.57729" lon="-3.96232">
        <ele>65.3</ele>
        <time>2020-06-10T10:55:53Z</time>
      </trkpt>
      <trkpt lat="48.57729" lon="-3.96213">
        <ele>65</ele>
        <time>2020-06-10T10:55:54Z</time>
      </trkpt>
      <trkpt lat="48.57729" lon="-3.96195">
        <ele>64.8</ele>
        <time>2020-06-10T10:55:55Z</time>
      </trkpt>
      <trkpt lat="48.5773" lon="-3.96177">
        <ele>64.8</ele>
        <time>2020-06-10T10:55:56Z</time>
      </trkpt>
      <trkpt lat="48.57731" lon="-3.96159">
        <ele>64.9</ele>
        <time>2020-06-10T10:55:57Z</time>
      </trkpt>
      <trkpt lat="48.57732" lon="-3.96142">
        <ele>65</ele>
        <time>2020-06-10T10:55:58Z</time>
      </trkpt>
      <trkpt lat="48.57734" lon="-3.96125">
        <ele>65.2</ele>
        <time>2020-06-10T10:55:59Z</time>
      </trkpt>
      <trkpt lat="48.57736" lon="-3.96109">
        <ele>65.6</ele>
        <time>2020-06-10T10:56:00Z</time>
      </trkpt>
      <trkpt lat="48.57738" lon="-3.96094">
        <ele>66</ele>
        <time>2020-06-10T10:56:01Z</time>
      </trkpt>
      <trkpt lat="48.57739" lon="-3.96079">
        <ele>66.6</ele>
        <time>2020-06-10T10:56:02Z</time>
      </trkpt>
      <trkpt lat="48.57741" lon="-3.96065">
        <ele>67.2</ele>
        <time>2020-06-10T10:56:03Z</time>
      </trkpt>
      <trkpt lat="48.57743" lon="-3.96052">
        <ele>67.9</ele>
        <time>2020-06-10T10:56:04Z</time>
      </trkpt>
      <trkpt lat="48.57745" lon="-3.9604">
        <ele>68.6</ele>
        <time>2020-06-10T10:56:05Z</time>
      </trkpt>
      <trkpt lat="48.57747" lon="-3.96028">
        <ele>69.2</ele>
        <time>2020-06-10T10:56:06Z</time>
      </trkpt>
      <trkpt lat="48.57749" lon="-3.96017">
        <ele>69.9</ele>
        <time>2020-06-10T10:56:07Z</time>
      </trkpt>
      <trkpt lat="48.57751" lon="-3.96007">
        <ele>70.5</ele>
        <time>2020-06-10T10:56:08Z</time>
      </trkpt>
      <trkpt lat="48.57753" lon="-3.95997">
        <ele>71</ele>
        <time>2020-06-10T10:56:09Z</time>
      </trkpt>
      <trkpt lat="48.57753" lon="-3.95987">
        <ele>71.5</ele>
        <time>2020-06-10T10:56:10Z</time>
      </trkpt>
      <trkpt lat="48.57754" lon="-3.95978">
        <ele>72</ele>
        <time>2020-06-10T10:56:11Z</time>
      </trkpt>
      <trkpt lat="48.57756" lon="-3.9597">
        <ele>72.5</ele>
        <time>2020-06-10T10:56:12Z</time>
      </trkpt>
      <trkpt lat="48.57757" lon="-3.95962">
        <ele>73</ele>
        <time>2020-06-10T10:56:13Z</time>
      </trkpt>
      <trkpt lat="48.57758" lon="-3.95954">
        <ele>73.4</ele>
        <time>2020-06-10T10:56:14Z</time>
      </trkpt>
      <trkpt lat="48.5776" lon="-3.95947">
        <ele>73.8</ele>
        <time>2020-06-10T10:56:15Z</time>
      </trkpt>
      <trkpt lat="48.57762" lon="-3.9594">
        <ele>74.2</ele>
        <time>2020-06-10T10:56:16Z</time>
      </trkpt>
      <trkpt lat="48.57765" lon="-3.95934">
        <ele>74.6</ele>
        <time>2020-06-10T10:56:17Z</time>
      </trkpt>
      <trkpt lat="48.57766" lon="-3.95927">
        <ele>74.9</ele>
        <time>2020-06-10T10:56:18Z</time>
      </trkpt>
      <trkpt lat="48.57769" lon="-3.95921">
        <ele>75.2</ele>
        <time>2020-06-10T10:56:19Z</time>
      </trkpt>
      <trkpt lat="48.57771" lon="-3.95915">
        <ele>75.5</ele>
        <time>2020-06-10T10:56:20Z</time>
      </trkpt>
      <trkpt lat="48.57773" lon="-3.95908">
        <ele>75.8</ele>
        <time>2020-06-10T10:56:21Z</time>
      </trkpt>
      <trkpt lat="48.57775" lon="-3.95902">
        <ele>76.1</ele>
        <time>2020-06-10T10:56:22Z</time>
      </trkpt>
      <trkpt lat="48.57778" lon="-3.95896">
        <ele>76.4</ele>
        <time>2020-06-10T10:56:23Z</time>
      </trkpt>
      <trkpt lat="48.5778" lon="-3.9589">
        <ele>76.6</ele>
        <time>2020-06-10T10:56:24Z</time>
      </trkpt>
      <trkpt lat="48.57782" lon="-3.95882">
        <ele>76.9</ele>
        <time>2020-06-10T10:56:25Z</time>
      </trkpt>
      <trkpt lat="48.57783" lon="-3.95878">
        <ele>77</ele>
        <time>2020-06-10T10:56:26Z</time>
      </trkpt>
      <trkpt lat="48.57785" lon="-3.95872">
        <ele>77.3</ele>
        <time>2020-06-10T10:56:27Z</time>
      </trkpt>
      <trkpt lat="48.57787" lon="-3.95866">
        <ele>77.5</ele>
        <time>2020-06-10T10:56:28Z</time>
      </trkpt>
      <trkpt lat="48.57789" lon="-3.95859">
        <ele>77.7</ele>
        <time>2020-06-10T10:56:29Z</time>
      </trkpt>
      <trkpt lat="48.57791" lon="-3.95853">
        <ele>77.9</ele>
        <time>2020-06-10T10:56:30Z</time>
      </trkpt>
      <trkpt lat="48.57793" lon="-3.95847">
        <ele>78.1</ele>
        <time>2020-06-10T10:56:31Z</time>
      </trkpt>
      <trkpt lat="48.57794" lon="-3.95841">
        <ele>78.3</ele>
        <time>2020-06-10T10:56:32Z</time>
      </trkpt>
      <trkpt lat="48.57796" lon="-3.95836">
        <ele>78.5</ele>
        <time>2020-06-10T10:56:33Z</time>
      </trkpt>
      <trkpt lat="48.57798" lon="-3.9583">
        <ele>78.7</ele>
        <time>2020-06-10T10:56:34Z</time>
      </trkpt>
      <trkpt lat="48.578" lon="-3.95824">
        <ele>78.8</ele>
        <time>2020-06-10T10:56:35Z</time>
      </trkpt>
      <trkpt lat="48.57802" lon="-3.95817">
        <ele>79</ele>
        <time>2020-06-10T10:56:36Z</time>
      </trkpt>
      <trkpt lat="48.57805" lon="-3.95809">
        <ele>79.2</ele>
        <time>2020-06-10T10:56:37Z</time>
      </trkpt>
      <trkpt lat="48.57807" lon="-3.95804">
        <ele>79.4</ele>
        <time>2020-06-10T10:56:38Z</time>
      </trkpt>
      <trkpt lat="48.57809" lon="-3.95796">
        <ele>79.5</ele>
        <time>2020-06-10T10:56:39Z</time>
      </trkpt>
      <trkpt lat="48.57811" lon="-3.9579">
        <ele>79.7</ele>
        <time>2020-06-10T10:56:40Z</time>
      </trkpt>
      <trkpt lat="48.57814" lon="-3.95783">
        <ele>79.9</ele>
        <time>2020-06-10T10:56:41Z</time>
      </trkpt>
      <trkpt lat="48.57816" lon="-3.95777">
        <ele>80</ele>
        <time>2020-06-10T10:56:42Z</time>
      </trkpt>
      <trkpt lat="48.57818" lon="-3.9577">
        <ele>80.1</ele>
        <time>2020-06-10T10:56:43Z</time>
      </trkpt>
      <trkpt lat="48.57821" lon="-3.95764">
        <ele>80.3</ele>
        <time>2020-06-10T10:56:44Z</time>
      </trkpt>
      <trkpt lat="48.57823" lon="-3.95759">
        <ele>80.4</ele>
        <time>2020-06-10T10:56:45Z</time>
      </trkpt>
      <trkpt lat="48.57825" lon="-3.95753">
        <ele>80.5</ele>
        <time>2020-06-10T10:56:46Z</time>
      </trkpt>
      <trkpt lat="48.57827" lon="-3.95746">
        <ele>80.6</ele>
        <time>2020-06-10T10:56:47Z</time>
      </trkpt>
      <trkpt lat="48.57829" lon="-3.95739">
        <ele>80.7</ele>
        <time>2020-06-10T10:56:48Z</time>
      </trkpt>
      <trkpt lat="48.57831" lon="-3.95733">
        <ele>80.8</ele>
        <time>2020-06-10T10:56:49Z</time>
      </trkpt>
      <trkpt lat="48.57833" lon="-3.95727">
        <ele>80.9</ele>
        <time>2020-06-10T10:56:50Z</time>
      </trkpt>
      <trkpt lat="48.57836" lon="-3.95722">
        <ele>81</ele>
        <time>2020-06-10T10:56:51Z</time>
      </trkpt>
      <trkpt lat="48.57839" lon="-3.95714">
        <ele>81.1</ele>
        <time>2020-06-10T10:56:52Z</time>
      </trkpt>
      <trkpt lat="48.57842" lon="-3.95709">
        <ele>81.1</ele>
        <time>2020-06-10T10:56:53Z</time>
      </trkpt>
      <trkpt lat="48.57845" lon="-3.95703">
        <ele>81.2</ele>
        <time>2020-06-10T10:56:54Z</time>
      </trkpt>
      <trkpt lat="48.57848" lon="-3.95699">
        <ele>81.2</ele>
        <time>2020-06-10T10:56:55Z</time>
      </trkpt>
      <trkpt lat="48.5785" lon="-3.95694">
        <ele>81.2</ele>
        <time>2020-06-10T10:56:56Z</time>
      </trkpt>
      <trkpt lat="48.57852" lon="-3.9569">
        <ele>81.3</ele>
        <time>2020-06-10T10:56:57Z</time>
      </trkpt>
      <trkpt lat="48.57855" lon="-3.95684">
        <ele>81.3</ele>
        <time>2020-06-10T10:56:58Z</time>
      </trkpt>
      <trkpt lat="48.57858" lon="-3.95679">
        <ele>81.3</ele>
        <time>2020-06-10T10:56:59Z</time>
      </trkpt>
      <trkpt lat="48.5786" lon="-3.95673">
        <ele>81.3</ele>
        <time>2020-06-10T10:57:00Z</time>
      </trkpt>
      <trkpt lat="48.57862" lon="-3.95668">
        <ele>81.3</ele>
        <time>2020-06-10T10:57:01Z</time>
      </trkpt>
      <trkpt lat="48.57864" lon="-3.95663">
        <ele>81.3</ele>
        <time>2020-06-10T10:57:02Z</time>
      </trkpt>
      <trkpt lat="48.57867" lon="-3.95656">
        <ele>81.3</ele>
        <time>2020-06-10T10:57:03Z</time>
      </trkpt>
      <trkpt lat="48.5787" lon="-3.9565">
        <ele>81.3</ele>
        <time>2020-06-10T10:57:04Z</time>
      </trkpt>
      <trkpt lat="48.57872" lon="-3.95644">
        <ele>81.2</ele>
        <time>2020-06-10T10:57:05Z</time>
      </trkpt>
      <trkpt lat="48.57874" lon="-3.95639">
        <ele>81.2</ele>
        <time>2020-06-10T10:57:06Z</time>
      </trkpt>
      <trkpt lat="48.57877" lon="-3.95632">
        <ele>81.1</ele>
        <time>2020-06-10T10:57:07Z</time>
      </trkpt>
      <trkpt lat="48.5788" lon="-3.95627">
        <ele>81</ele>
        <time>2020-06-10T10:57:08Z</time>
      </trkpt>
      <trkpt lat="48.57884" lon="-3.95621">
        <ele>80.9</ele>
        <time>2020-06-10T10:57:09Z</time>
      </trkpt>
      <trkpt lat="48.57887" lon="-3.95615">
        <ele>80.9</ele>
        <time>2020-06-10T10:57:10Z</time>
      </trkpt>
      <trkpt lat="48.57891" lon="-3.95608">
        <ele>80.8</ele>
        <time>2020-06-10T10:57:11Z</time>
      </trkpt>
      <trkpt lat="48.57894" lon="-3.95602">
        <ele>80.7</ele>
        <time>2020-06-10T10:57:12Z</time>
      </trkpt>
      <trkpt lat="48.57897" lon="-3.95595">
        <ele>80.5</ele>
        <time>2020-06-10T10:57:13Z</time>
      </trkpt>
      <trkpt lat="48.579" lon="-3.95588">
        <ele>80.4</ele>
        <time>2020-06-10T10:57:14Z</time>
      </trkpt>
      <trkpt lat="48.57903" lon="-3.95581">
        <ele>80.3</ele>
        <time>2020-06-10T10:57:15Z</time>
      </trkpt>
      <trkpt lat="48.57907" lon="-3.95572">
        <ele>80.2</ele>
        <time>2020-06-10T10:57:16Z</time>
      </trkpt>
      <trkpt lat="48.5791" lon="-3.95565">
        <ele>80.1</ele>
        <time>2020-06-10T10:57:17Z</time>
      </trkpt>
      <trkpt lat="48.57914" lon="-3.95557">
        <ele>80</ele>
        <time>2020-06-10T10:57:18Z</time>
      </trkpt>
      <trkpt lat="48.57918" lon="-3.95548">
        <ele>80</ele>
        <time>2020-06-10T10:57:19Z</time>
      </trkpt>
      <trkpt lat="48.57922" lon="-3.9554">
        <ele>79.8</ele>
        <time>2020-06-10T10:57:20Z</time>
      </trkpt>
      <trkpt lat="48.57926" lon="-3.95532">
        <ele>79.7</ele>
        <time>2020-06-10T10:57:21Z</time>
      </trkpt>
      <trkpt lat="48.5793" lon="-3.95525">
        <ele>79.4</ele>
        <time>2020-06-10T10:57:22Z</time>
      </trkpt>
      <trkpt lat="48.57934" lon="-3.95517">
        <ele>79.2</ele>
        <time>2020-06-10T10:57:23Z</time>
      </trkpt>
      <trkpt lat="48.57938" lon="-3.95508">
        <ele>78.9</ele>
        <time>2020-06-10T10:57:24Z</time>
      </trkpt>
      <trkpt lat="48.57942" lon="-3.95499">
        <ele>78.7</ele>
        <time>2020-06-10T10:57:25Z</time>
      </trkpt>
      <trkpt lat="48.57946" lon="-3.9549">
        <ele>78.4</ele>
        <time>2020-06-10T10:57:26Z</time>
      </trkpt>
      <trkpt lat="48.5795" lon="-3.95481">
        <ele>78</ele>
        <time>2020-06-10T10:57:27Z</time>
      </trkpt>
      <trkpt lat="48.57953" lon="-3.9547">
        <ele>77.8</ele>
        <time>2020-06-10T10:57:28Z</time>
      </trkpt>
      <trkpt lat="48.57957" lon="-3.9546">
        <ele>77.5</ele>
        <time>2020-06-10T10:57:29Z</time>
      </trkpt>
      <trkpt lat="48.57961" lon="-3.95449">
        <ele>77.2</ele>
        <time>2020-06-10T10:57:30Z</time>
      </trkpt>
      <trkpt lat="48.57964" lon="-3.95438">
        <ele>76.9</ele>
        <time>2020-06-10T10:57:31Z</time>
      </trkpt>
      <trkpt lat="48.57966" lon="-3.95426">
        <ele>76.5</ele>
        <time>2020-06-10T10:57:32Z</time>
      </trkpt>
      <trkpt lat="48.57969" lon="-3.95414">
        <ele>76.2</ele>
        <time>2020-06-10T10:57:33Z</time>
      </trkpt>
      <trkpt lat="48.57972" lon="-3.95402">
        <ele>75.8</ele>
        <time>2020-06-10T10:57:34Z</time>
      </trkpt>
      <trkpt lat="48.57975" lon="-3.9539">
        <ele>75.4</ele>
        <time>2020-06-10T10:57:35Z</time>
      </trkpt>
      <trkpt lat="48.57978" lon="-3.95377">
        <ele>75</ele>
        <time>2020-06-10T10:57:36Z</time>
      </trkpt>
      <trkpt lat="48.57979" lon="-3.95363">
        <ele>74.6</ele>
        <time>2020-06-10T10:57:37Z</time>
      </trkpt>
      <trkpt lat="48.5798" lon="-3.9535">
        <ele>74.2</ele>
        <time>2020-06-10T10:57:38Z</time>
      </trkpt>
      <trkpt lat="48.5798" lon="-3.95335">
        <ele>73.8</ele>
        <time>2020-06-10T10:57:39Z</time>
      </trkpt>
      <trkpt lat="48.5798" lon="-3.95321">
        <ele>73.4</ele>
        <time>2020-06-10T10:57:40Z</time>
      </trkpt>
      <trkpt lat="48.5798" lon="-3.95307">
        <ele>73</ele>
        <time>2020-06-10T10:57:41Z</time>
      </trkpt>
      <trkpt lat="48.5798" lon="-3.95292">
        <ele>72.6</ele>
        <time>2020-06-10T10:57:42Z</time>
      </trkpt>
      <trkpt lat="48.57978" lon="-3.95278">
        <ele>72.2</ele>
        <time>2020-06-10T10:57:43Z</time>
      </trkpt>
      <trkpt lat="48.57977" lon="-3.95263">
        <ele>71.7</ele>
        <time>2020-06-10T10:57:44Z</time>
      </trkpt>
      <trkpt lat="48.57976" lon="-3.95247">
        <ele>71.1</ele>
        <time>2020-06-10T10:57:45Z</time>
      </trkpt>
      <trkpt lat="48.57975" lon="-3.95232">
        <ele>70.7</ele>
        <time>2020-06-10T10:57:46Z</time>
      </trkpt>
      <trkpt lat="48.57975" lon="-3.95216">
        <ele>70.3</ele>
        <time>2020-06-10T10:57:47Z</time>
      </trkpt>
      <trkpt lat="48.57974" lon="-3.952">
        <ele>70</ele>
        <time>2020-06-10T10:57:48Z</time>
      </trkpt>
      <trkpt lat="48.57973" lon="-3.95184">
        <ele>69.7</ele>
        <time>2020-06-10T10:57:49Z</time>
      </trkpt>
      <trkpt lat="48.57973" lon="-3.95168">
        <ele>69.5</ele>
        <time>2020-06-10T10:57:50Z</time>
      </trkpt>
      <trkpt lat="48.57972" lon="-3.95152">
        <ele>69.4</ele>
        <time>2020-06-10T10:57:51Z</time>
      </trkpt>
      <trkpt lat="48.57971" lon="-3.95136">
        <ele>69.3</ele>
        <time>2020-06-10T10:57:52Z</time>
      </trkpt>
      <trkpt lat="48.57971" lon="-3.95121">
        <ele>69.3</ele>
        <time>2020-06-10T10:57:53Z</time>
      </trkpt>
      <trkpt lat="48.5797" lon="-3.95106">
        <ele>69.3</ele>
        <time>2020-06-10T10:57:54Z</time>
      </trkpt>
      <trkpt lat="48.57969" lon="-3.95091">
        <ele>69.4</ele>
        <time>2020-06-10T10:57:55Z</time>
      </trkpt>
      <trkpt lat="48.57967" lon="-3.95076">
        <ele>69.5</ele>
        <time>2020-06-10T10:57:56Z</time>
      </trkpt>
      <trkpt lat="48.57966" lon="-3.95062">
        <ele>69.8</ele>
        <time>2020-06-10T10:57:57Z</time>
      </trkpt>
      <trkpt lat="48.57966" lon="-3.95048">
        <ele>70</ele>
        <time>2020-06-10T10:57:58Z</time>
      </trkpt>
      <trkpt lat="48.57965" lon="-3.95034">
        <ele>70.1</ele>
        <time>2020-06-10T10:57:59Z</time>
      </trkpt>
      <trkpt lat="48.57964" lon="-3.9502">
        <ele>70.2</ele>
        <time>2020-06-10T10:58:00Z</time>
      </trkpt>
      <trkpt lat="48.57963" lon="-3.95007">
        <ele>70.4</ele>
        <time>2020-06-10T10:58:01Z</time>
      </trkpt>
      <trkpt lat="48.57962" lon="-3.94994">
        <ele>70.8</ele>
        <time>2020-06-10T10:58:02Z</time>
      </trkpt>
      <trkpt lat="48.57962" lon="-3.94981">
        <ele>71.4</ele>
        <time>2020-06-10T10:58:03Z</time>
      </trkpt>
      <trkpt lat="48.57961" lon="-3.94969">
        <ele>71.9</ele>
        <time>2020-06-10T10:58:04Z</time>
      </trkpt>
      <trkpt lat="48.5796" lon="-3.94958">
        <ele>72.4</ele>
        <time>2020-06-10T10:58:05Z</time>
      </trkpt>
      <trkpt lat="48.57959" lon="-3.94947">
        <ele>72.9</ele>
        <time>2020-06-10T10:58:06Z</time>
      </trkpt>
      <trkpt lat="48.57957" lon="-3.94936">
        <ele>73.5</ele>
        <time>2020-06-10T10:58:07Z</time>
      </trkpt>
      <trkpt lat="48.57957" lon="-3.94927">
        <ele>74</ele>
        <time>2020-06-10T10:58:08Z</time>
      </trkpt>
      <trkpt lat="48.57956" lon="-3.94917">
        <ele>74.6</ele>
        <time>2020-06-10T10:58:09Z</time>
      </trkpt>
      <trkpt lat="48.57956" lon="-3.94908">
        <ele>75.1</ele>
        <time>2020-06-10T10:58:10Z</time>
      </trkpt>
      <trkpt lat="48.57956" lon="-3.94899">
        <ele>75.6</ele>
        <time>2020-06-10T10:58:11Z</time>
      </trkpt>
      <trkpt lat="48.57956" lon="-3.94891">
        <ele>76.1</ele>
        <time>2020-06-10T10:58:12Z</time>
      </trkpt>
      <trkpt lat="48.57955" lon="-3.94883">
        <ele>76.6</ele>
        <time>2020-06-10T10:58:13Z</time>
      </trkpt>
      <trkpt lat="48.57954" lon="-3.94876">
        <ele>77</ele>
        <time>2020-06-10T10:58:14Z</time>
      </trkpt>
      <trkpt lat="48.57954" lon="-3.94868">
        <ele>77.4</ele>
        <time>2020-06-10T10:58:15Z</time>
      </trkpt>
      <trkpt lat="48.57953" lon="-3.94861">
        <ele>77.7</ele>
        <time>2020-06-10T10:58:16Z</time>
      </trkpt>
      <trkpt lat="48.57952" lon="-3.94853">
        <ele>78.1</ele>
        <time>2020-06-10T10:58:17Z</time>
      </trkpt>
      <trkpt lat="48.57953" lon="-3.94846">
        <ele>78.5</ele>
        <time>2020-06-10T10:58:18Z</time>
      </trkpt>
      <trkpt lat="48.57953" lon="-3.94839">
        <ele>78.8</ele>
        <time>2020-06-10T10:58:19Z</time>
      </trkpt>
      <trkpt lat="48.57953" lon="-3.94832">
        <ele>79.2</ele>
        <time>2020-06-10T10:58:20Z</time>
      </trkpt>
      <trkpt lat="48.57952" lon="-3.94825">
        <ele>79.5</ele>
        <time>2020-06-10T10:58:21Z</time>
      </trkpt>
      <trkpt lat="48.57952" lon="-3.94818">
        <ele>79.9</ele>
        <time>2020-06-10T10:58:22Z</time>
      </trkpt>
      <trkpt lat="48.57952" lon="-3.94811">
        <ele>80.2</ele>
        <time>2020-06-10T10:58:23Z</time>
      </trkpt>
      <trkpt lat="48.57952" lon="-3.94805">
        <ele>80.5</ele>
        <time>2020-06-10T10:58:24Z</time>
      </trkpt>
      <trkpt lat="48.57952" lon="-3.94801">
        <ele>80.7</ele>
        <time>2020-06-10T10:58:25Z</time>
      </trkpt>
      <trkpt lat="48.57952" lon="-3.94795">
        <ele>80.9</ele>
        <time>2020-06-10T10:58:26Z</time>
      </trkpt>
      <trkpt lat="48.57952" lon="-3.94788">
        <ele>81.2</ele>
        <time>2020-06-10T10:58:27Z</time>
      </trkpt>
      <trkpt lat="48.57952" lon="-3.9478">
        <ele>81.5</ele>
        <time>2020-06-10T10:58:28Z</time>
      </trkpt>
      <trkpt lat="48.57953" lon="-3.94773">
        <ele>81.7</ele>
        <time>2020-06-10T10:58:29Z</time>
      </trkpt>
      <trkpt lat="48.57953" lon="-3.94767">
        <ele>82</ele>
        <time>2020-06-10T10:58:30Z</time>
      </trkpt>
      <trkpt lat="48.57953" lon="-3.94758">
        <ele>82.3</ele>
        <time>2020-06-10T10:58:31Z</time>
      </trkpt>
      <trkpt lat="48.57953" lon="-3.94751">
        <ele>82.5</ele>
        <time>2020-06-10T10:58:32Z</time>
      </trkpt>
      <trkpt lat="48.57953" lon="-3.94744">
        <ele>82.7</ele>
        <time>2020-06-10T10:58:33Z</time>
      </trkpt>
      <trkpt lat="48.57953" lon="-3.94737">
        <ele>83</ele>
        <time>2020-06-10T10:58:34Z</time>
      </trkpt>
      <trkpt lat="48.57954" lon="-3.94731">
        <ele>83.2</ele>
        <time>2020-06-10T10:58:35Z</time>
      </trkpt>
      <trkpt lat="48.57954" lon="-3.94724">
        <ele>83.4</ele>
        <time>2020-06-10T10:58:36Z</time>
      </trkpt>
      <trkpt lat="48.57954" lon="-3.94718">
        <ele>83.6</ele>
        <time>2020-06-10T10:58:37Z</time>
      </trkpt>
      <trkpt lat="48.57954" lon="-3.9471">
        <ele>83.9</ele>
        <time>2020-06-10T10:58:38Z</time>
      </trkpt>
      <trkpt lat="48.57955" lon="-3.94703">
        <ele>84.1</ele>
        <time>2020-06-10T10:58:39Z</time>
      </trkpt>
      <trkpt lat="48.57955" lon="-3.94697">
        <ele>84.3</ele>
        <time>2020-06-10T10:58:40Z</time>
      </trkpt>
      <trkpt lat="48.57955" lon="-3.94692">
        <ele>84.4</ele>
        <time>2020-06-10T10:58:41Z</time>
      </trkpt>
      <trkpt lat="48.57955" lon="-3.94686">
        <ele>84.6</ele>
        <time>2020-06-10T10:58:42Z</time>
      </trkpt>
      <trkpt lat="48.57956" lon="-3.9468">
        <ele>84.8</ele>
        <time>2020-06-10T10:58:43Z</time>
      </trkpt>
      <trkpt lat="48.57956" lon="-3.94674">
        <ele>85</ele>
        <time>2020-06-10T10:58:44Z</time>
      </trkpt>
      <trkpt lat="48.57956" lon="-3.94668">
        <ele>85.2</ele>
        <time>2020-06-10T10:58:45Z</time>
      </trkpt>
      <trkpt lat="48.57956" lon="-3.94661">
        <ele>85.3</ele>
        <time>2020-06-10T10:58:46Z</time>
      </trkpt>
      <trkpt lat="48.57957" lon="-3.94655">
        <ele>85.5</ele>
        <time>2020-06-10T10:58:47Z</time>
      </trkpt>
      <trkpt lat="48.57958" lon="-3.94649">
        <ele>85.6</ele>
        <time>2020-06-10T10:58:48Z</time>
      </trkpt>
      <trkpt lat="48.57959" lon="-3.94642">
        <ele>85.8</ele>
        <time>2020-06-10T10:58:49Z</time>
      </trkpt>
      <trkpt lat="48.57959" lon="-3.94635">
        <ele>85.9</ele>
        <time>2020-06-10T10:58:50Z</time>
      </trkpt>
      <trkpt lat="48.5796" lon="-3.94627">
        <ele>86.1</ele>
        <time>2020-06-10T10:58:51Z</time>
      </trkpt>
      <trkpt lat="48.5796" lon="-3.9462">
        <ele>86.2</ele>
        <time>2020-06-10T10:58:52Z</time>
      </trkpt>
      <trkpt lat="48.5796" lon="-3.94614">
        <ele>86.3</ele>
        <time>2020-06-10T10:58:53Z</time>
      </trkpt>
      <trkpt lat="48.5796" lon="-3.94607">
        <ele>86.5</ele>
        <time>2020-06-10T10:58:54Z</time>
      </trkpt>
      <trkpt lat="48.57961" lon="-3.94599">
        <ele>86.6</ele>
        <time>2020-06-10T10:58:55Z</time>
      </trkpt>
      <trkpt lat="48.57961" lon="-3.94593">
        <ele>86.6</ele>
        <time>2020-06-10T10:58:56Z</time>
      </trkpt>
      <trkpt lat="48.57962" lon="-3.94587">
        <ele>86.7</ele>
        <time>2020-06-10T10:58:57Z</time>
      </trkpt>
      <trkpt lat="48.57963" lon="-3.94579">
        <ele>86.8</ele>
        <time>2020-06-10T10:58:58Z</time>
      </trkpt>
      <trkpt lat="48.57963" lon="-3.94571">
        <ele>86.9</ele>
        <time>2020-06-10T10:58:59Z</time>
      </trkpt>
      <trkpt lat="48.57964" lon="-3.94564">
        <ele>87</ele>
        <time>2020-06-10T10:59:00Z</time>
      </trkpt>
      <trkpt lat="48.57965" lon="-3.94556">
        <ele>87.1</ele>
        <time>2020-06-10T10:59:01Z</time>
      </trkpt>
      <trkpt lat="48.57966" lon="-3.94549">
        <ele>87.1</ele>
        <time>2020-06-10T10:59:02Z</time>
      </trkpt>
      <trkpt lat="48.57966" lon="-3.94542">
        <ele>87.2</ele>
        <time>2020-06-10T10:59:03Z</time>
      </trkpt>
      <trkpt lat="48.57967" lon="-3.94535">
        <ele>87.2</ele>
        <time>2020-06-10T10:59:04Z</time>
      </trkpt>
      <trkpt lat="48.57968" lon="-3.94527">
        <ele>87.3</ele>
        <time>2020-06-10T10:59:05Z</time>
      </trkpt>
      <trkpt lat="48.57969" lon="-3.94519">
        <ele>87.3</ele>
        <time>2020-06-10T10:59:06Z</time>
      </trkpt>
      <trkpt lat="48.57969" lon="-3.94514">
        <ele>87.3</ele>
        <time>2020-06-10T10:59:07Z</time>
      </trkpt>
      <trkpt lat="48.5797" lon="-3.94507">
        <ele>87.3</ele>
        <time>2020-06-10T10:59:08Z</time>
      </trkpt>
      <trkpt lat="48.57971" lon="-3.94499">
        <ele>87.3</ele>
        <time>2020-06-10T10:59:09Z</time>
      </trkpt>
      <trkpt lat="48.57972" lon="-3.9449">
        <ele>87.4</ele>
        <time>2020-06-10T10:59:10Z</time>
      </trkpt>
      <trkpt lat="48.57973" lon="-3.94484">
        <ele>87.4</ele>
        <time>2020-06-10T10:59:11Z</time>
      </trkpt>
      <trkpt lat="48.57974" lon="-3.94475">
        <ele>87.4</ele>
        <time>2020-06-10T10:59:12Z</time>
      </trkpt>
      <trkpt lat="48.57974" lon="-3.94467">
        <ele>87.4</ele>
        <time>2020-06-10T10:59:13Z</time>
      </trkpt>
      <trkpt lat="48.57974" lon="-3.9446">
        <ele>87.4</ele>
        <time>2020-06-10T10:59:14Z</time>
      </trkpt>
      <trkpt lat="48.57973" lon="-3.94452">
        <ele>87.4</ele>
        <time>2020-06-10T10:59:15Z</time>
      </trkpt>
      <trkpt lat="48.57974" lon="-3.94443">
        <ele>87.4</ele>
        <time>2020-06-10T10:59:16Z</time>
      </trkpt>
      <trkpt lat="48.57974" lon="-3.94438">
        <ele>87.4</ele>
        <time>2020-06-10T10:59:17Z</time>
      </trkpt>
      <trkpt lat="48.57974" lon="-3.9443">
        <ele>87.5</ele>
        <time>2020-06-10T10:59:18Z</time>
      </trkpt>
      <trkpt lat="48.57974" lon="-3.94422">
        <ele>87.5</ele>
        <time>2020-06-10T10:59:19Z</time>
      </trkpt>
      <trkpt lat="48.57974" lon="-3.94415">
        <ele>87.5</ele>
        <time>2020-06-10T10:59:20Z</time>
      </trkpt>
      <trkpt lat="48.57974" lon="-3.94407">
        <ele>87.6</ele>
        <time>2020-06-10T10:59:21Z</time>
      </trkpt>
      <trkpt lat="48.57974" lon="-3.94401">
        <ele>87.6</ele>
        <time>2020-06-10T10:59:22Z</time>
      </trkpt>
      <trkpt lat="48.57974" lon="-3.94395">
        <ele>87.6</ele>
        <time>2020-06-10T10:59:23Z</time>
      </trkpt>
      <trkpt lat="48.57973" lon="-3.94389">
        <ele>87.6</ele>
        <time>2020-06-10T10:59:24Z</time>
      </trkpt>
      <trkpt lat="48.57973" lon="-3.94383">
        <ele>87.6</ele>
        <time>2020-06-10T10:59:25Z</time>
      </trkpt>
      <trkpt lat="48.57973" lon="-3.94378">
        <ele>87.5</ele>
        <time>2020-06-10T10:59:26Z</time>
      </trkpt>
      <trkpt lat="48.57973" lon="-3.94369">
        <ele>87.5</ele>
        <time>2020-06-10T10:59:27Z</time>
      </trkpt>
      <trkpt lat="48.57973" lon="-3.94362">
        <ele>87.5</ele>
        <time>2020-06-10T10:59:28Z</time>
      </trkpt>
      <trkpt lat="48.57973" lon="-3.94354">
        <ele>87.5</ele>
        <time>2020-06-10T10:59:29Z</time>
      </trkpt>
      <trkpt lat="48.57973" lon="-3.94347">
        <ele>87.5</ele>
        <time>2020-06-10T10:59:30Z</time>
      </trkpt>
      <trkpt lat="48.57972" lon="-3.94342">
        <ele>87.4</ele>
        <time>2020-06-10T10:59:31Z</time>
      </trkpt>
      <trkpt lat="48.57972" lon="-3.94336">
        <ele>87.4</ele>
        <time>2020-06-10T10:59:32Z</time>
      </trkpt>
      <trkpt lat="48.57971" lon="-3.9433">
        <ele>87.4</ele>
        <time>2020-06-10T10:59:33Z</time>
      </trkpt>
      <trkpt lat="48.57971" lon="-3.94324">
        <ele>87.4</ele>
        <time>2020-06-10T10:59:34Z</time>
      </trkpt>
      <trkpt lat="48.57971" lon="-3.94316">
        <ele>87.4</ele>
        <time>2020-06-10T10:59:35Z</time>
      </trkpt>
      <trkpt lat="48.57971" lon="-3.9431">
        <ele>87.4</ele>
        <time>2020-06-10T10:59:36Z</time>
      </trkpt>
      <trkpt lat="48.57971" lon="-3.94304">
        <ele>87.3</ele>
        <time>2020-06-10T10:59:37Z</time>
      </trkpt>
      <trkpt lat="48.57971" lon="-3.94298">
        <ele>87.3</ele>
        <time>2020-06-10T10:59:38Z</time>
      </trkpt>
      <trkpt lat="48.57971" lon="-3.94291">
        <ele>87.3</ele>
        <time>2020-06-10T10:59:39Z</time>
      </trkpt>
      <trkpt lat="48.5797" lon="-3.94286">
        <ele>87.3</ele>
        <time>2020-06-10T10:59:40Z</time>
      </trkpt>
      <trkpt lat="48.5797" lon="-3.94279">
        <ele>87.3</ele>
        <time>2020-06-10T10:59:41Z</time>
      </trkpt>
      <trkpt lat="48.57969" lon="-3.94272">
        <ele>87.3</ele>
        <time>2020-06-10T10:59:42Z</time>
      </trkpt>
      <trkpt lat="48.57969" lon="-3.94262">
        <ele>87.3</ele>
        <time>2020-06-10T10:59:43Z</time>
      </trkpt>
      <trkpt lat="48.57969" lon="-3.94256">
        <ele>87.3</ele>
        <time>2020-06-10T10:59:44Z</time>
      </trkpt>
      <trkpt lat="48.57969" lon="-3.94249">
        <ele>87.3</ele>
        <time>2020-06-10T10:59:45Z</time>
      </trkpt>
      <trkpt lat="48.5797" lon="-3.94243">
        <ele>87.3</ele>
        <time>2020-06-10T10:59:46Z</time>
      </trkpt>
      <trkpt lat="48.57969" lon="-3.94236">
        <ele>87.3</ele>
        <time>2020-06-10T10:59:47Z</time>
      </trkpt>
      <trkpt lat="48.57969" lon="-3.94231">
        <ele>87.3</ele>
        <time>2020-06-10T10:59:48Z</time>
      </trkpt>
      <trkpt lat="48.57969" lon="-3.94224">
        <ele>87.4</ele>
        <time>2020-06-10T10:59:49Z</time>
      </trkpt>
      <trkpt lat="48.57969" lon="-3.94218">
        <ele>87.4</ele>
        <time>2020-06-10T10:59:50Z</time>
      </trkpt>
      <trkpt lat="48.57969" lon="-3.94212">
        <ele>87.4</ele>
        <time>2020-06-10T10:59:51Z</time>
      </trkpt>
      <trkpt lat="48.57968" lon="-3.94207">
        <ele>87.4</ele>
        <time>2020-06-10T10:59:52Z</time>
      </trkpt>
      <trkpt lat="48.57969" lon="-3.94202">
        <ele>87.4</ele>
        <time>2020-06-10T10:59:53Z</time>
      </trkpt>
      <trkpt lat="48.57969" lon="-3.94196">
        <ele>87.4</ele>
        <time>2020-06-10T10:59:54Z</time>
      </trkpt>
      <trkpt lat="48.57968" lon="-3.94192">
        <ele>87.4</ele>
        <time>2020-06-10T10:59:55Z</time>
      </trkpt>
      <trkpt lat="48.57969" lon="-3.94186">
        <ele>87.4</ele>
        <time>2020-06-10T10:59:56Z</time>
      </trkpt>
      <trkpt lat="48.57969" lon="-3.94182">
        <ele>87.3</ele>
        <time>2020-06-10T10:59:57Z</time>
      </trkpt>
      <trkpt lat="48.57969" lon="-3.94178">
        <ele>87.3</ele>
        <time>2020-06-10T10:59:58Z</time>
      </trkpt>
      <trkpt lat="48.57969" lon="-3.94177">
        <ele>87.2</ele>
        <time>2020-06-10T10:59:59Z</time>
      </trkpt>
      <trkpt lat="48.57969" lon="-3.94175">
        <ele>87.2</ele>
        <time>2020-06-10T11:00:00Z</time>
      </trkpt>
      <trkpt lat="48.57968" lon="-3.94174">
        <ele>87.2</ele>
        <time>2020-06-10T11:00:01Z</time>
      </trkpt>
      <trkpt lat="48.57968" lon="-3.94173">
        <ele>87.2</ele>
        <time>2020-06-10T11:00:02Z</time>
      </trkpt>
      <trkpt lat="48.57969" lon="-3.94173">
        <ele>87.2</ele>
        <time>2020-06-10T11:00:03Z</time>
      </trkpt>
      <trkpt lat="48.57969" lon="-3.94173">
        <ele>87.2</ele>
        <time>2020-06-10T11:00:04Z</time>
      </trkpt>
      <trkpt lat="48.57969" lon="-3.94173">
        <ele>87.1</ele>
        <time>2020-06-10T11:00:05Z</time>
      </trkpt>
      <trkpt lat="48.57969" lon="-3.94172">
        <ele>87.1</ele>
        <time>2020-06-10T11:00:06Z</time>
      </trkpt>
      <trkpt lat="48.57969" lon="-3.94172">
        <ele>87.1</ele>
        <time>2020-06-10T11:00:07Z</time>
      </trkpt>
      <trkpt lat="48.57969" lon="-3.94172">
        <ele>87.1</ele>
        <time>2020-06-10T11:00:08Z</time>
      </trkpt>
      <trkpt lat="48.57969" lon="-3.94171">
        <ele>87.1</ele>
        <time>2020-06-10T11:00:09Z</time>
      </trkpt>
      <trkpt lat="48.57969" lon="-3.94171">
        <ele>87.1</ele>
        <time>2020-06-10T11:00:10Z</time>
      </trkpt>
      <trkpt lat="48.57969" lon="-3.94171">
        <ele>87.1</ele>
        <time>2020-06-10T11:00:11Z</time>
      </trkpt>
      <trkpt lat="48.57969" lon="-3.9417">
        <ele>87.1</ele>
        <time>2020-06-10T11:00:12Z</time>
      </trkpt>
      <trkpt lat="48.5797" lon="-3.9417">
        <ele>87.1</ele>
        <time>2020-06-10T11:00:13Z</time>
      </trkpt>
      <trkpt lat="48.5797" lon="-3.9417">
        <ele>87.1</ele>
        <time>2020-06-10T11:00:14Z</time>
      </trkpt>
      <trkpt lat="48.5797" lon="-3.94169">
        <ele>87.1</ele>
        <time>2020-06-10T11:00:15Z</time>
      </trkpt>
      <trkpt lat="48.5797" lon="-3.94169">
        <ele>87.1</ele>
        <time>2020-06-10T11:00:16Z</time>
      </trkpt>
      <trkpt lat="48.5797" lon="-3.94169">
        <ele>87.1</ele>
        <time>2020-06-10T11:04:07Z</time>
      </trkpt>
      <trkpt lat="48.5797" lon="-3.94169">
        <ele>87.1</ele>
        <time>2020-06-10T11:04:08Z</time>
      </trkpt>
      <trkpt lat="48.5797" lon="-3.94168">
        <ele>87.1</ele>
        <time>2020-06-10T11:04:09Z</time>
      </trkpt>
      <trkpt lat="48.57971" lon="-3.94166">
        <ele>87</ele>
        <time>2020-06-10T11:04:10Z</time>
      </trkpt>
      <trkpt lat="48.57971" lon="-3.94165">
        <ele>87</ele>
        <time>2020-06-10T11:04:11Z</time>
      </trkpt>
      <trkpt lat="48.57971" lon="-3.94164">
        <ele>87</ele>
        <time>2020-06-10T11:04:12Z</time>
      </trkpt>
      <trkpt lat="48.57971" lon="-3.94164">
        <ele>87</ele>
        <time>2020-06-10T11:04:13Z</time>
      </trkpt>
      <trkpt lat="48.57971" lon="-3.94164">
        <ele>87</ele>
        <time>2020-06-10T11:04:14Z</time>
      </trkpt>
      <trkpt lat="48.57971" lon="-3.94164">
        <ele>87</ele>
        <time>2020-06-10T11:04:15Z</time>
      </trkpt>
      <trkpt lat="48.57972" lon="-3.94164">
        <ele>87</ele>
        <time>2020-06-10T11:04:16Z</time>
      </trkpt>
      <trkpt lat="48.57972" lon="-3.94164">
        <ele>87</ele>
        <time>2020-06-10T11:04:17Z</time>
      </trkpt>
      <trkpt lat="48.57972" lon="-3.94164">
        <ele>87</ele>
        <time>2020-06-10T11:04:18Z</time>
      </trkpt>
      <trkpt lat="48.57972" lon="-3.94164">
        <ele>87</ele>
        <time>2020-06-10T11:04:19Z</time>
      </trkpt>
      <trkpt lat="48.57971" lon="-3.94163">
        <ele>86.9</ele>
        <time>2020-06-10T11:04:20Z</time>
      </trkpt>
      <trkpt lat="48.57971" lon="-3.94163">
        <ele>86.9</ele>
        <time>2020-06-10T11:04:21Z</time>
      </trkpt>
      <trkpt lat="48.57971" lon="-3.94163">
        <ele>86.9</ele>
        <time>2020-06-10T11:04:22Z</time>
      </trkpt>
      <trkpt lat="48.57971" lon="-3.94163">
        <ele>86.9</ele>
        <time>2020-06-10T11:04:23Z</time>
      </trkpt>
      <trkpt lat="48.57971" lon="-3.94162">
        <ele>86.9</ele>
        <time>2020-06-10T11:04:24Z</time>
      </trkpt>
      <trkpt lat="48.57971" lon="-3.94162">
        <ele>86.9</ele>
        <time>2020-06-10T11:04:25Z</time>
      </trkpt>
      <trkpt lat="48.5797" lon="-3.94163">
        <ele>86.9</ele>
        <time>2020-06-10T11:04:26Z</time>
      </trkpt>
      <trkpt lat="48.5797" lon="-3.94163">
        <ele>86.9</ele>
        <time>2020-06-10T11:04:27Z</time>
      </trkpt>
      <trkpt lat="48.57969" lon="-3.94164">
        <ele>86.9</ele>
        <time>2020-06-10T11:04:28Z</time>
      </trkpt>
      <trkpt lat="48.57969" lon="-3.94164">
        <ele>86.9</ele>
        <time>2020-06-10T11:04:29Z</time>
      </trkpt>
      <trkpt lat="48.57968" lon="-3.94164">
        <ele>86.8</ele>
        <time>2020-06-10T11:04:30Z</time>
      </trkpt>
      <trkpt lat="48.57969" lon="-3.94164">
        <ele>86.8</ele>
        <time>2020-06-10T11:04:31Z</time>
      </trkpt>
      <trkpt lat="48.57969" lon="-3.94164">
        <ele>86.8</ele>
        <time>2020-06-10T11:04:32Z</time>
      </trkpt>
      <trkpt lat="48.57967" lon="-3.94156">
        <ele>86.7</ele>
        <time>2020-06-10T11:04:51Z</time>
      </trkpt>
      <trkpt lat="48.57968" lon="-3.94153">
        <ele>86.7</ele>
        <time>2020-06-10T11:04:52Z</time>
      </trkpt>
      <trkpt lat="48.57969" lon="-3.94148">
        <ele>86.6</ele>
        <time>2020-06-10T11:04:53Z</time>
      </trkpt>
      <trkpt lat="48.57969" lon="-3.94146">
        <ele>86.6</ele>
        <time>2020-06-10T11:04:54Z</time>
      </trkpt>
      <trkpt lat="48.57969" lon="-3.94141">
        <ele>86.5</ele>
        <time>2020-06-10T11:04:55Z</time>
      </trkpt>
      <trkpt lat="48.57969" lon="-3.94136">
        <ele>86.4</ele>
        <time>2020-06-10T11:04:56Z</time>
      </trkpt>
      <trkpt lat="48.57969" lon="-3.94131">
        <ele>86.3</ele>
        <time>2020-06-10T11:04:57Z</time>
      </trkpt>
      <trkpt lat="48.57969" lon="-3.94126">
        <ele>86.3</ele>
        <time>2020-06-10T11:04:58Z</time>
      </trkpt>
      <trkpt lat="48.5797" lon="-3.9412">
        <ele>86.2</ele>
        <time>2020-06-10T11:04:59Z</time>
      </trkpt>
      <trkpt lat="48.57971" lon="-3.94115">
        <ele>86.1</ele>
        <time>2020-06-10T11:05:00Z</time>
      </trkpt>
      <trkpt lat="48.57971" lon="-3.94108">
        <ele>86</ele>
        <time>2020-06-10T11:05:01Z</time>
      </trkpt>
      <trkpt lat="48.57972" lon="-3.94102">
        <ele>86</ele>
        <time>2020-06-10T11:05:02Z</time>
      </trkpt>
      <trkpt lat="48.57972" lon="-3.94096">
        <ele>85.9</ele>
        <time>2020-06-10T11:05:03Z</time>
      </trkpt>
      <trkpt lat="48.57973" lon="-3.9409">
        <ele>85.8</ele>
        <time>2020-06-10T11:05:04Z</time>
      </trkpt>
      <trkpt lat="48.57973" lon="-3.94084">
        <ele>85.7</ele>
        <time>2020-06-10T11:05:05Z</time>
      </trkpt>
      <trkpt lat="48.57973" lon="-3.94078">
        <ele>85.7</ele>
        <time>2020-06-10T11:05:06Z</time>
      </trkpt>
      <trkpt lat="48.57973" lon="-3.94071">
        <ele>85.6</ele>
        <time>2020-06-10T11:05:07Z</time>
      </trkpt>
      <trkpt lat="48.57972" lon="-3.94065">
        <ele>85.5</ele>
        <time>2020-06-10T11:05:08Z</time>
      </trkpt>
      <trkpt lat="48.57973" lon="-3.94058">
        <ele>85.4</ele>
        <time>2020-06-10T11:05:09Z</time>
      </trkpt>
      <trkpt lat="48.57973" lon="-3.94051">
        <ele>85.4</ele>
        <time>2020-06-10T11:05:10Z</time>
      </trkpt>
      <trkpt lat="48.57973" lon="-3.94044">
        <ele>85.2</ele>
        <time>2020-06-10T11:05:11Z</time>
      </trkpt>
      <trkpt lat="48.57973" lon="-3.94037">
        <ele>85.1</ele>
        <time>2020-06-10T11:05:12Z</time>
      </trkpt>
      <trkpt lat="48.57972" lon="-3.94029">
        <ele>85</ele>
        <time>2020-06-10T11:05:13Z</time>
      </trkpt>
      <trkpt lat="48.57972" lon="-3.94021">
        <ele>84.9</ele>
        <time>2020-06-10T11:05:14Z</time>
      </trkpt>
      <trkpt lat="48.57973" lon="-3.94013">
        <ele>84.7</ele>
        <time>2020-06-10T11:05:15Z</time>
      </trkpt>
      <trkpt lat="48.57972" lon="-3.94005">
        <ele>84.6</ele>
        <time>2020-06-10T11:05:16Z</time>
      </trkpt>
      <trkpt lat="48.57973" lon="-3.93997">
        <ele>84.4</ele>
        <time>2020-06-10T11:05:17Z</time>
      </trkpt>
      <trkpt lat="48.57973" lon="-3.93989">
        <ele>84.3</ele>
        <time>2020-06-10T11:05:18Z</time>
      </trkpt>
      <trkpt lat="48.57973" lon="-3.93981">
        <ele>84.1</ele>
        <time>2020-06-10T11:05:19Z</time>
      </trkpt>
      <trkpt lat="48.57973" lon="-3.93973">
        <ele>83.9</ele>
        <time>2020-06-10T11:05:20Z</time>
      </trkpt>
      <trkpt lat="48.57973" lon="-3.93965">
        <ele>83.8</ele>
        <time>2020-06-10T11:05:21Z</time>
      </trkpt>
      <trkpt lat="48.57973" lon="-3.93956">
        <ele>83.6</ele>
        <time>2020-06-10T11:05:22Z</time>
      </trkpt>
      <trkpt lat="48.57973" lon="-3.93948">
        <ele>83.5</ele>
        <time>2020-06-10T11:05:23Z</time>
      </trkpt>
      <trkpt lat="48.57973" lon="-3.93939">
        <ele>83.4</ele>
        <time>2020-06-10T11:05:24Z</time>
      </trkpt>
      <trkpt lat="48.57973" lon="-3.9393">
        <ele>83.2</ele>
        <time>2020-06-10T11:05:25Z</time>
      </trkpt>
      <trkpt lat="48.57973" lon="-3.93921">
        <ele>83.1</ele>
        <time>2020-06-10T11:05:26Z</time>
      </trkpt>
      <trkpt lat="48.57974" lon="-3.93912">
        <ele>83</ele>
        <time>2020-06-10T11:05:27Z</time>
      </trkpt>
      <trkpt lat="48.57975" lon="-3.93903">
        <ele>82.8</ele>
        <time>2020-06-10T11:05:28Z</time>
      </trkpt>
      <trkpt lat="48.57975" lon="-3.93894">
        <ele>82.7</ele>
        <time>2020-06-10T11:05:29Z</time>
      </trkpt>
      <trkpt lat="48.57975" lon="-3.93885">
        <ele>82.6</ele>
        <time>2020-06-10T11:05:30Z</time>
      </trkpt>
      <trkpt lat="48.57975" lon="-3.93876">
        <ele>82.5</ele>
        <time>2020-06-10T11:05:31Z</time>
      </trkpt>
      <trkpt lat="48.57976" lon="-3.93868">
        <ele>82.3</ele>
        <time>2020-06-10T11:05:32Z</time>
      </trkpt>
      <trkpt lat="48.57975" lon="-3.93859">
        <ele>82.2</ele>
        <time>2020-06-10T11:05:33Z</time>
      </trkpt>
      <trkpt lat="48.57974" lon="-3.9385">
        <ele>82.1</ele>
        <time>2020-06-10T11:05:34Z</time>
      </trkpt>
      <trkpt lat="48.57975" lon="-3.93841">
        <ele>82</ele>
        <time>2020-06-10T11:05:35Z</time>
      </trkpt>
      <trkpt lat="48.57975" lon="-3.93832">
        <ele>81.9</ele>
        <time>2020-06-10T11:05:36Z</time>
      </trkpt>
      <trkpt lat="48.57975" lon="-3.93823">
        <ele>81.7</ele>
        <time>2020-06-10T11:05:37Z</time>
      </trkpt>
      <trkpt lat="48.57974" lon="-3.93814">
        <ele>81.6</ele>
        <time>2020-06-10T11:05:38Z</time>
      </trkpt>
      <trkpt lat="48.57973" lon="-3.93804">
        <ele>81.5</ele>
        <time>2020-06-10T11:05:39Z</time>
      </trkpt>
      <trkpt lat="48.57974" lon="-3.93796">
        <ele>81.3</ele>
        <time>2020-06-10T11:05:40Z</time>
      </trkpt>
      <trkpt lat="48.57974" lon="-3.93788">
        <ele>81.2</ele>
        <time>2020-06-10T11:05:41Z</time>
      </trkpt>
      <trkpt lat="48.57974" lon="-3.9378">
        <ele>81</ele>
        <time>2020-06-10T11:05:42Z</time>
      </trkpt>
      <trkpt lat="48.57974" lon="-3.93772">
        <ele>80.8</ele>
        <time>2020-06-10T11:05:43Z</time>
      </trkpt>
      <trkpt lat="48.57975" lon="-3.93764">
        <ele>80.7</ele>
        <time>2020-06-10T11:05:44Z</time>
      </trkpt>
      <trkpt lat="48.57976" lon="-3.93755">
        <ele>80.5</ele>
        <time>2020-06-10T11:05:45Z</time>
      </trkpt>
      <trkpt lat="48.57976" lon="-3.93746">
        <ele>80.4</ele>
        <time>2020-06-10T11:05:46Z</time>
      </trkpt>
      <trkpt lat="48.57976" lon="-3.93737">
        <ele>80.3</ele>
        <time>2020-06-10T11:05:47Z</time>
      </trkpt>
      <trkpt lat="48.57977" lon="-3.93728">
        <ele>80.2</ele>
        <time>2020-06-10T11:05:48Z</time>
      </trkpt>
      <trkpt lat="48.57977" lon="-3.93719">
        <ele>80.1</ele>
        <time>2020-06-10T11:05:49Z</time>
      </trkpt>
      <trkpt lat="48.57978" lon="-3.93709">
        <ele>80</ele>
        <time>2020-06-10T11:05:50Z</time>
      </trkpt>
      <trkpt lat="48.57978" lon="-3.93699">
        <ele>79.9</ele>
        <time>2020-06-10T11:05:51Z</time>
      </trkpt>
      <trkpt lat="48.57977" lon="-3.9369">
        <ele>79.8</ele>
        <time>2020-06-10T11:05:52Z</time>
      </trkpt>
      <trkpt lat="48.57977" lon="-3.9368">
        <ele>79.7</ele>
        <time>2020-06-10T11:05:53Z</time>
      </trkpt>
      <trkpt lat="48.57977" lon="-3.9367">
        <ele>79.6</ele>
        <time>2020-06-10T11:05:54Z</time>
      </trkpt>
      <trkpt lat="48.57977" lon="-3.9366">
        <ele>79.5</ele>
        <time>2020-06-10T11:05:55Z</time>
      </trkpt>
      <trkpt lat="48.57977" lon="-3.93651">
        <ele>79.4</ele>
        <time>2020-06-10T11:05:56Z</time>
      </trkpt>
      <trkpt lat="48.57977" lon="-3.93641">
        <ele>79.3</ele>
        <time>2020-06-10T11:05:57Z</time>
      </trkpt>
      <trkpt lat="48.57977" lon="-3.93631">
        <ele>79.2</ele>
        <time>2020-06-10T11:05:58Z</time>
      </trkpt>
      <trkpt lat="48.57977" lon="-3.93621">
        <ele>79.1</ele>
        <time>2020-06-10T11:05:59Z</time>
      </trkpt>
      <trkpt lat="48.57977" lon="-3.93611">
        <ele>79</ele>
        <time>2020-06-10T11:06:00Z</time>
      </trkpt>
      <trkpt lat="48.57977" lon="-3.93602">
        <ele>78.9</ele>
        <time>2020-06-10T11:06:01Z</time>
      </trkpt>
      <trkpt lat="48.57977" lon="-3.93592">
        <ele>78.8</ele>
        <time>2020-06-10T11:06:02Z</time>
      </trkpt>
      <trkpt lat="48.57977" lon="-3.93582">
        <ele>78.7</ele>
        <time>2020-06-10T11:06:03Z</time>
      </trkpt>
      <trkpt lat="48.57977" lon="-3.93572">
        <ele>78.6</ele>
        <time>2020-06-10T11:06:04Z</time>
      </trkpt>
      <trkpt lat="48.57978" lon="-3.93562">
        <ele>78.4</ele>
        <time>2020-06-10T11:06:05Z</time>
      </trkpt>
      <trkpt lat="48.57978" lon="-3.93552">
        <ele>78.3</ele>
        <time>2020-06-10T11:06:06Z</time>
      </trkpt>
      <trkpt lat="48.57978" lon="-3.93542">
        <ele>78.2</ele>
        <time>2020-06-10T11:06:07Z</time>
      </trkpt>
      <trkpt lat="48.57978" lon="-3.93532">
        <ele>78</ele>
        <time>2020-06-10T11:06:08Z</time>
      </trkpt>
      <trkpt lat="48.57978" lon="-3.93522">
        <ele>77.9</ele>
        <time>2020-06-10T11:06:09Z</time>
      </trkpt>
      <trkpt lat="48.57978" lon="-3.93511">
        <ele>77.7</ele>
        <time>2020-06-10T11:06:10Z</time>
      </trkpt>
      <trkpt lat="48.57978" lon="-3.93501">
        <ele>77.6</ele>
        <time>2020-06-10T11:06:11Z</time>
      </trkpt>
      <trkpt lat="48.57978" lon="-3.9349">
        <ele>77.4</ele>
        <time>2020-06-10T11:06:12Z</time>
      </trkpt>
      <trkpt lat="48.57979" lon="-3.9348">
        <ele>77.3</ele>
        <time>2020-06-10T11:06:13Z</time>
      </trkpt>
      <trkpt lat="48.57979" lon="-3.93469">
        <ele>77.1</ele>
        <time>2020-06-10T11:06:14Z</time>
      </trkpt>
      <trkpt lat="48.57978" lon="-3.93459">
        <ele>77</ele>
        <time>2020-06-10T11:06:15Z</time>
      </trkpt>
      <trkpt lat="48.57979" lon="-3.93448">
        <ele>76.8</ele>
        <time>2020-06-10T11:06:16Z</time>
      </trkpt>
      <trkpt lat="48.57979" lon="-3.93437">
        <ele>76.6</ele>
        <time>2020-06-10T11:06:17Z</time>
      </trkpt>
      <trkpt lat="48.5798" lon="-3.93426">
        <ele>76.4</ele>
        <time>2020-06-10T11:06:18Z</time>
      </trkpt>
      <trkpt lat="48.5798" lon="-3.93415">
        <ele>76.2</ele>
        <time>2020-06-10T11:06:19Z</time>
      </trkpt>
      <trkpt lat="48.5798" lon="-3.93404">
        <ele>75.9</ele>
        <time>2020-06-10T11:06:20Z</time>
      </trkpt>
      <trkpt lat="48.57981" lon="-3.93393">
        <ele>75.6</ele>
        <time>2020-06-10T11:06:21Z</time>
      </trkpt>
      <trkpt lat="48.57982" lon="-3.93381">
        <ele>75.3</ele>
        <time>2020-06-10T11:06:22Z</time>
      </trkpt>
      <trkpt lat="48.57983" lon="-3.93369">
        <ele>74.9</ele>
        <time>2020-06-10T11:06:23Z</time>
      </trkpt>
      <trkpt lat="48.57984" lon="-3.93357">
        <ele>74.5</ele>
        <time>2020-06-10T11:06:24Z</time>
      </trkpt>
      <trkpt lat="48.57985" lon="-3.93345">
        <ele>74.1</ele>
        <time>2020-06-10T11:06:25Z</time>
      </trkpt>
      <trkpt lat="48.57986" lon="-3.93333">
        <ele>73.6</ele>
        <time>2020-06-10T11:06:26Z</time>
      </trkpt>
      <trkpt lat="48.57987" lon="-3.9332">
        <ele>73.1</ele>
        <time>2020-06-10T11:06:27Z</time>
      </trkpt>
      <trkpt lat="48.57989" lon="-3.93306">
        <ele>72.5</ele>
        <time>2020-06-10T11:06:28Z</time>
      </trkpt>
      <trkpt lat="48.5799" lon="-3.93293">
        <ele>71.9</ele>
        <time>2020-06-10T11:06:29Z</time>
      </trkpt>
      <trkpt lat="48.57991" lon="-3.93278">
        <ele>71.2</ele>
        <time>2020-06-10T11:06:30Z</time>
      </trkpt>
      <trkpt lat="48.57992" lon="-3.93264">
        <ele>70.5</ele>
        <time>2020-06-10T11:06:31Z</time>
      </trkpt>
      <trkpt lat="48.57994" lon="-3.93249">
        <ele>69.9</ele>
        <time>2020-06-10T11:06:32Z</time>
      </trkpt>
      <trkpt lat="48.57996" lon="-3.93233">
        <ele>69.7</ele>
        <time>2020-06-10T11:06:33Z</time>
      </trkpt>
      <trkpt lat="48.57997" lon="-3.93218">
        <ele>68.9</ele>
        <time>2020-06-10T11:06:34Z</time>
      </trkpt>
      <trkpt lat="48.57999" lon="-3.93202">
        <ele>67.9</ele>
        <time>2020-06-10T11:06:35Z</time>
      </trkpt>
      <trkpt lat="48.58001" lon="-3.93186">
        <ele>66.9</ele>
        <time>2020-06-10T11:06:36Z</time>
      </trkpt>
      <trkpt lat="48.58003" lon="-3.93169">
        <ele>65.8</ele>
        <time>2020-06-10T11:06:37Z</time>
      </trkpt>
      <trkpt lat="48.58005" lon="-3.93153">
        <ele>64.8</ele>
        <time>2020-06-10T11:06:38Z</time>
      </trkpt>
      <trkpt lat="48.58007" lon="-3.93136">
        <ele>63.8</ele>
        <time>2020-06-10T11:06:39Z</time>
      </trkpt>
      <trkpt lat="48.5801" lon="-3.93119">
        <ele>62.9</ele>
        <time>2020-06-10T11:06:40Z</time>
      </trkpt>
      <trkpt lat="48.58013" lon="-3.93102">
        <ele>61.9</ele>
        <time>2020-06-10T11:06:41Z</time>
      </trkpt>
      <trkpt lat="48.58017" lon="-3.93086">
        <ele>60.9</ele>
        <time>2020-06-10T11:06:42Z</time>
      </trkpt>
      <trkpt lat="48.58023" lon="-3.9307">
        <ele>59.8</ele>
        <time>2020-06-10T11:06:43Z</time>
      </trkpt>
      <trkpt lat="48.58029" lon="-3.93054">
        <ele>58.8</ele>
        <time>2020-06-10T11:06:44Z</time>
      </trkpt>
      <trkpt lat="48.58035" lon="-3.93039">
        <ele>57.9</ele>
        <time>2020-06-10T11:06:45Z</time>
      </trkpt>
      <trkpt lat="48.58043" lon="-3.93025">
        <ele>57</ele>
        <time>2020-06-10T11:06:46Z</time>
      </trkpt>
      <trkpt lat="48.58051" lon="-3.93012">
        <ele>56.1</ele>
        <time>2020-06-10T11:06:47Z</time>
      </trkpt>
      <trkpt lat="48.5806" lon="-3.93">
        <ele>55.2</ele>
        <time>2020-06-10T11:06:48Z</time>
      </trkpt>
      <trkpt lat="48.58069" lon="-3.92988">
        <ele>54.3</ele>
        <time>2020-06-10T11:06:49Z</time>
      </trkpt>
      <trkpt lat="48.58079" lon="-3.92977">
        <ele>53.4</ele>
        <time>2020-06-10T11:06:50Z</time>
      </trkpt>
      <trkpt lat="48.58088" lon="-3.92967">
        <ele>52.5</ele>
        <time>2020-06-10T11:06:51Z</time>
      </trkpt>
      <trkpt lat="48.58098" lon="-3.92957">
        <ele>51.6</ele>
        <time>2020-06-10T11:06:52Z</time>
      </trkpt>
      <trkpt lat="48.58108" lon="-3.92947">
        <ele>50.8</ele>
        <time>2020-06-10T11:06:53Z</time>
      </trkpt>
      <trkpt lat="48.58119" lon="-3.92938">
        <ele>50</ele>
        <time>2020-06-10T11:06:54Z</time>
      </trkpt>
      <trkpt lat="48.58129" lon="-3.9293">
        <ele>49.1</ele>
        <time>2020-06-10T11:06:55Z</time>
      </trkpt>
      <trkpt lat="48.5814" lon="-3.92922">
        <ele>48.3</ele>
        <time>2020-06-10T11:06:56Z</time>
      </trkpt>
      <trkpt lat="48.58152" lon="-3.92914">
        <ele>47.3</ele>
        <time>2020-06-10T11:06:57Z</time>
      </trkpt>
      <trkpt lat="48.58163" lon="-3.92905">
        <ele>46.5</ele>
        <time>2020-06-10T11:06:58Z</time>
      </trkpt>
      <trkpt lat="48.58174" lon="-3.92897">
        <ele>45.7</ele>
        <time>2020-06-10T11:06:59Z</time>
      </trkpt>
      <trkpt lat="48.58185" lon="-3.92887">
        <ele>44.9</ele>
        <time>2020-06-10T11:07:00Z</time>
      </trkpt>
      <trkpt lat="48.58196" lon="-3.92878">
        <ele>44.1</ele>
        <time>2020-06-10T11:07:01Z</time>
      </trkpt>
      <trkpt lat="48.58207" lon="-3.92868">
        <ele>43.2</ele>
        <time>2020-06-10T11:07:02Z</time>
      </trkpt>
      <trkpt lat="48.58218" lon="-3.9286">
        <ele>42.4</ele>
        <time>2020-06-10T11:07:03Z</time>
      </trkpt>
      <trkpt lat="48.58229" lon="-3.9285">
        <ele>41.6</ele>
        <time>2020-06-10T11:07:04Z</time>
      </trkpt>
      <trkpt lat="48.5824" lon="-3.9284">
        <ele>40.7</ele>
        <time>2020-06-10T11:07:05Z</time>
      </trkpt>
      <trkpt lat="48.58249" lon="-3.92828">
        <ele>39.8</ele>
        <time>2020-06-10T11:07:06Z</time>
      </trkpt>
      <trkpt lat="48.58259" lon="-3.92816">
        <ele>38.9</ele>
        <time>2020-06-10T11:07:07Z</time>
      </trkpt>
      <trkpt lat="48.58268" lon="-3.92805">
        <ele>38.1</ele>
        <time>2020-06-10T11:07:08Z</time>
      </trkpt>
      <trkpt lat="48.58278" lon="-3.92795">
        <ele>37.3</ele>
        <time>2020-06-10T11:07:09Z</time>
      </trkpt>
      <trkpt lat="48.58286" lon="-3.92783">
        <ele>36.6</ele>
        <time>2020-06-10T11:07:10Z</time>
      </trkpt>
      <trkpt lat="48.58293" lon="-3.92772">
        <ele>35.9</ele>
        <time>2020-06-10T11:07:11Z</time>
      </trkpt>
      <trkpt lat="48.58301" lon="-3.92762">
        <ele>35.2</ele>
        <time>2020-06-10T11:07:12Z</time>
      </trkpt>
      <trkpt lat="48.58309" lon="-3.9275">
        <ele>34.6</ele>
        <time>2020-06-10T11:07:13Z</time>
      </trkpt>
      <trkpt lat="48.58316" lon="-3.92737">
        <ele>33.8</ele>
        <time>2020-06-10T11:07:14Z</time>
      </trkpt>
      <trkpt lat="48.58324" lon="-3.92725">
        <ele>33</ele>
        <time>2020-06-10T11:07:15Z</time>
      </trkpt>
      <trkpt lat="48.58332" lon="-3.92713">
        <ele>32.2</ele>
        <time>2020-06-10T11:07:16Z</time>
      </trkpt>
      <trkpt lat="48.5834" lon="-3.92701">
        <ele>31.6</ele>
        <time>2020-06-10T11:07:17Z</time>
      </trkpt>
      <trkpt lat="48.58348" lon="-3.92689">
        <ele>31</ele>
        <time>2020-06-10T11:07:18Z</time>
      </trkpt>
      <trkpt lat="48.58356" lon="-3.92678">
        <ele>30.4</ele>
        <time>2020-06-10T11:07:19Z</time>
      </trkpt>
      <trkpt lat="48.58365" lon="-3.92667">
        <ele>29.8</ele>
        <time>2020-06-10T11:07:20Z</time>
      </trkpt>
      <trkpt lat="48.58373" lon="-3.92655">
        <ele>29.1</ele>
        <time>2020-06-10T11:07:21Z</time>
      </trkpt>
      <trkpt lat="48.58381" lon="-3.92643">
        <ele>28.5</ele>
        <time>2020-06-10T11:07:22Z</time>
      </trkpt>
      <trkpt lat="48.58389" lon="-3.92633">
        <ele>27.8</ele>
        <time>2020-06-10T11:07:23Z</time>
      </trkpt>
      <trkpt lat="48.58395" lon="-3.92624">
        <ele>27.2</ele>
        <time>2020-06-10T11:07:24Z</time>
      </trkpt>
      <trkpt lat="48.58402" lon="-3.92615">
        <ele>26.7</ele>
        <time>2020-06-10T11:07:25Z</time>
      </trkpt>
      <trkpt lat="48.58408" lon="-3.92605">
        <ele>26.2</ele>
        <time>2020-06-10T11:07:26Z</time>
      </trkpt>
      <trkpt lat="48.58413" lon="-3.92594">
        <ele>25.7</ele>
        <time>2020-06-10T11:07:27Z</time>
      </trkpt>
      <trkpt lat="48.5842" lon="-3.92584">
        <ele>25.3</ele>
        <time>2020-06-10T11:07:28Z</time>
      </trkpt>
      <trkpt lat="48.58426" lon="-3.92574">
        <ele>24.8</ele>
        <time>2020-06-10T11:07:29Z</time>
      </trkpt>
      <trkpt lat="48.58433" lon="-3.92564">
        <ele>24.3</ele>
        <time>2020-06-10T11:07:30Z</time>
      </trkpt>
      <trkpt lat="48.5844" lon="-3.92556">
        <ele>23.8</ele>
        <time>2020-06-10T11:07:31Z</time>
      </trkpt>
      <trkpt lat="48.58447" lon="-3.92548">
        <ele>23.2</ele>
        <time>2020-06-10T11:07:32Z</time>
      </trkpt>
      <trkpt lat="48.58455" lon="-3.92541">
        <ele>22.6</ele>
        <time>2020-06-10T11:07:33Z</time>
      </trkpt>
      <trkpt lat="48.58462" lon="-3.92533">
        <ele>21.9</ele>
        <time>2020-06-10T11:07:34Z</time>
      </trkpt>
      <trkpt lat="48.5847" lon="-3.92528">
        <ele>21.3</ele>
        <time>2020-06-10T11:07:35Z</time>
      </trkpt>
      <trkpt lat="48.58478" lon="-3.92523">
        <ele>20.8</ele>
        <time>2020-06-10T11:07:36Z</time>
      </trkpt>
      <trkpt lat="48.58486" lon="-3.92519">
        <ele>20.4</ele>
        <time>2020-06-10T11:07:37Z</time>
      </trkpt>
      <trkpt lat="48.58494" lon="-3.92514">
        <ele>19.9</ele>
        <time>2020-06-10T11:07:38Z</time>
      </trkpt>
      <trkpt lat="48.58503" lon="-3.92507">
        <ele>19.3</ele>
        <time>2020-06-10T11:07:39Z</time>
      </trkpt>
      <trkpt lat="48.58511" lon="-3.925">
        <ele>18.6</ele>
        <time>2020-06-10T11:07:40Z</time>
      </trkpt>
      <trkpt lat="48.5852" lon="-3.92492">
        <ele>17.9</ele>
        <time>2020-06-10T11:07:41Z</time>
      </trkpt>
      <trkpt lat="48.58529" lon="-3.92483">
        <ele>17.1</ele>
        <time>2020-06-10T11:07:42Z</time>
      </trkpt>
      <trkpt lat="48.58538" lon="-3.92475">
        <ele>16.3</ele>
        <time>2020-06-10T11:07:43Z</time>
      </trkpt>
      <trkpt lat="48.58548" lon="-3.92468">
        <ele>15.5</ele>
        <time>2020-06-10T11:07:44Z</time>
      </trkpt>
      <trkpt lat="48.58557" lon="-3.9246">
        <ele>14.8</ele>
        <time>2020-06-10T11:07:45Z</time>
      </trkpt>
      <trkpt lat="48.58567" lon="-3.92452">
        <ele>14.1</ele>
        <time>2020-06-10T11:07:46Z</time>
      </trkpt>
      <trkpt lat="48.58575" lon="-3.92444">
        <ele>13.5</ele>
        <time>2020-06-10T11:07:47Z</time>
      </trkpt>
      <trkpt lat="48.58583" lon="-3.92436">
        <ele>12.9</ele>
        <time>2020-06-10T11:07:48Z</time>
      </trkpt>
      <trkpt lat="48.58591" lon="-3.92429">
        <ele>12.4</ele>
        <time>2020-06-10T11:07:49Z</time>
      </trkpt>
      <trkpt lat="48.58598" lon="-3.92421">
        <ele>11.9</ele>
        <time>2020-06-10T11:07:50Z</time>
      </trkpt>
      <trkpt lat="48.58605" lon="-3.92413">
        <ele>11.4</ele>
        <time>2020-06-10T11:07:51Z</time>
      </trkpt>
      <trkpt lat="48.58613" lon="-3.92407">
        <ele>10.9</ele>
        <time>2020-06-10T11:07:52Z</time>
      </trkpt>
      <trkpt lat="48.58621" lon="-3.924">
        <ele>10.5</ele>
        <time>2020-06-10T11:07:53Z</time>
      </trkpt>
      <trkpt lat="48.58628" lon="-3.92391">
        <ele>10.2</ele>
        <time>2020-06-10T11:07:54Z</time>
      </trkpt>
      <trkpt lat="48.58633" lon="-3.9238">
        <ele>9.9</ele>
        <time>2020-06-10T11:07:55Z</time>
      </trkpt>
      <trkpt lat="48.58636" lon="-3.92368">
        <ele>9.7</ele>
        <time>2020-06-10T11:07:56Z</time>
      </trkpt>
      <trkpt lat="48.58636" lon="-3.92356">
        <ele>9.8</ele>
        <time>2020-06-10T11:07:57Z</time>
      </trkpt>
      <trkpt lat="48.58636" lon="-3.92344">
        <ele>10</ele>
        <time>2020-06-10T11:07:58Z</time>
      </trkpt>
      <trkpt lat="48.58636" lon="-3.92332">
        <ele>10.1</ele>
        <time>2020-06-10T11:07:59Z</time>
      </trkpt>
      <trkpt lat="48.58634" lon="-3.9232">
        <ele>10.3</ele>
        <time>2020-06-10T11:08:00Z</time>
      </trkpt>
      <trkpt lat="48.58633" lon="-3.9231">
        <ele>10.5</ele>
        <time>2020-06-10T11:08:01Z</time>
      </trkpt>
      <trkpt lat="48.58629" lon="-3.923">
        <ele>10.8</ele>
        <time>2020-06-10T11:08:02Z</time>
      </trkpt>
      <trkpt lat="48.58625" lon="-3.92291">
        <ele>11.1</ele>
        <time>2020-06-10T11:08:03Z</time>
      </trkpt>
      <trkpt lat="48.58621" lon="-3.92282">
        <ele>11.2</ele>
        <time>2020-06-10T11:08:04Z</time>
      </trkpt>
      <trkpt lat="48.58616" lon="-3.92276">
        <ele>11.3</ele>
        <time>2020-06-10T11:08:05Z</time>
      </trkpt>
      <trkpt lat="48.58612" lon="-3.92271">
        <ele>11.3</ele>
        <time>2020-06-10T11:08:06Z</time>
      </trkpt>
      <trkpt lat="48.58607" lon="-3.92267">
        <ele>11.4</ele>
        <time>2020-06-10T11:08:07Z</time>
      </trkpt>
      <trkpt lat="48.58603" lon="-3.92264">
        <ele>11.6</ele>
        <time>2020-06-10T11:08:08Z</time>
      </trkpt>
      <trkpt lat="48.58599" lon="-3.9226">
        <ele>11.7</ele>
        <time>2020-06-10T11:08:09Z</time>
      </trkpt>
      <trkpt lat="48.58596" lon="-3.92256">
        <ele>11.9</ele>
        <time>2020-06-10T11:08:10Z</time>
      </trkpt>
      <trkpt lat="48.58593" lon="-3.92253">
        <ele>12.1</ele>
        <time>2020-06-10T11:08:11Z</time>
      </trkpt>
      <trkpt lat="48.5859" lon="-3.92251">
        <ele>12.3</ele>
        <time>2020-06-10T11:08:12Z</time>
      </trkpt>
      <trkpt lat="48.58587" lon="-3.92249">
        <ele>12.4</ele>
        <time>2020-06-10T11:08:13Z</time>
      </trkpt>
      <trkpt lat="48.58585" lon="-3.92246">
        <ele>12.5</ele>
        <time>2020-06-10T11:08:14Z</time>
      </trkpt>
      <trkpt lat="48.58582" lon="-3.92244">
        <ele>12.7</ele>
        <time>2020-06-10T11:08:15Z</time>
      </trkpt>
      <trkpt lat="48.58579" lon="-3.92243">
        <ele>12.8</ele>
        <time>2020-06-10T11:08:16Z</time>
      </trkpt>
      <trkpt lat="48.58576" lon="-3.9224">
        <ele>12.9</ele>
        <time>2020-06-10T11:08:17Z</time>
      </trkpt>
      <trkpt lat="48.58574" lon="-3.92237">
        <ele>13.1</ele>
        <time>2020-06-10T11:08:18Z</time>
      </trkpt>
      <trkpt lat="48.58571" lon="-3.92234">
        <ele>13.3</ele>
        <time>2020-06-10T11:08:19Z</time>
      </trkpt>
      <trkpt lat="48.58568" lon="-3.92231">
        <ele>13.7</ele>
        <time>2020-06-10T11:08:20Z</time>
      </trkpt>
      <trkpt lat="48.58564" lon="-3.92227">
        <ele>14</ele>
        <time>2020-06-10T11:08:21Z</time>
      </trkpt>
      <trkpt lat="48.58561" lon="-3.92222">
        <ele>14.4</ele>
        <time>2020-06-10T11:08:22Z</time>
      </trkpt>
      <trkpt lat="48.58558" lon="-3.92218">
        <ele>14.7</ele>
        <time>2020-06-10T11:08:23Z</time>
      </trkpt>
      <trkpt lat="48.58555" lon="-3.92213">
        <ele>15.1</ele>
        <time>2020-06-10T11:08:24Z</time>
      </trkpt>
      <trkpt lat="48.58552" lon="-3.92208">
        <ele>15.5</ele>
        <time>2020-06-10T11:08:25Z</time>
      </trkpt>
      <trkpt lat="48.58549" lon="-3.92203">
        <ele>15.9</ele>
        <time>2020-06-10T11:08:26Z</time>
      </trkpt>
      <trkpt lat="48.58545" lon="-3.92197">
        <ele>16.3</ele>
        <time>2020-06-10T11:08:27Z</time>
      </trkpt>
      <trkpt lat="48.58542" lon="-3.92192">
        <ele>16.8</ele>
        <time>2020-06-10T11:08:28Z</time>
      </trkpt>
      <trkpt lat="48.58539" lon="-3.92187">
        <ele>17.1</ele>
        <time>2020-06-10T11:08:29Z</time>
      </trkpt>
      <trkpt lat="48.58535" lon="-3.92181">
        <ele>17.6</ele>
        <time>2020-06-10T11:08:30Z</time>
      </trkpt>
      <trkpt lat="48.58533" lon="-3.92177">
        <ele>17.9</ele>
        <time>2020-06-10T11:08:31Z</time>
      </trkpt>
      <trkpt lat="48.58531" lon="-3.92169">
        <ele>18.4</ele>
        <time>2020-06-10T11:08:32Z</time>
      </trkpt>
      <trkpt lat="48.58529" lon="-3.92165">
        <ele>18.6</ele>
        <time>2020-06-10T11:08:33Z</time>
      </trkpt>
      <trkpt lat="48.58528" lon="-3.92161">
        <ele>18.9</ele>
        <time>2020-06-10T11:08:34Z</time>
      </trkpt>
      <trkpt lat="48.58525" lon="-3.92157">
        <ele>19.1</ele>
        <time>2020-06-10T11:08:35Z</time>
      </trkpt>
      <trkpt lat="48.58523" lon="-3.92153">
        <ele>19.4</ele>
        <time>2020-06-10T11:08:36Z</time>
      </trkpt>
      <trkpt lat="48.58522" lon="-3.92151">
        <ele>19.6</ele>
        <time>2020-06-10T11:08:37Z</time>
      </trkpt>
      <trkpt lat="48.58519" lon="-3.92146">
        <ele>19.9</ele>
        <time>2020-06-10T11:08:38Z</time>
      </trkpt>
      <trkpt lat="48.58519" lon="-3.92144">
        <ele>20</ele>
        <time>2020-06-10T11:08:39Z</time>
      </trkpt>
      <trkpt lat="48.58516" lon="-3.92138">
        <ele>20.3</ele>
        <time>2020-06-10T11:08:40Z</time>
      </trkpt>
      <trkpt lat="48.58515" lon="-3.92134">
        <ele>20.5</ele>
        <time>2020-06-10T11:08:41Z</time>
      </trkpt>
      <trkpt lat="48.58514" lon="-3.92128">
        <ele>20.8</ele>
        <time>2020-06-10T11:08:42Z</time>
      </trkpt>
      <trkpt lat="48.58514" lon="-3.92125">
        <ele>21</ele>
        <time>2020-06-10T11:08:43Z</time>
      </trkpt>
      <trkpt lat="48.58513" lon="-3.92121">
        <ele>21.2</ele>
        <time>2020-06-10T11:08:44Z</time>
      </trkpt>
      <trkpt lat="48.58512" lon="-3.92118">
        <ele>21.3</ele>
        <time>2020-06-10T11:08:45Z</time>
      </trkpt>
      <trkpt lat="48.58512" lon="-3.92114">
        <ele>21.5</ele>
        <time>2020-06-10T11:08:46Z</time>
      </trkpt>
      <trkpt lat="48.58511" lon="-3.9211">
        <ele>21.7</ele>
        <time>2020-06-10T11:08:47Z</time>
      </trkpt>
      <trkpt lat="48.58511" lon="-3.92105">
        <ele>21.9</ele>
        <time>2020-06-10T11:08:48Z</time>
      </trkpt>
      <trkpt lat="48.5851" lon="-3.921">
        <ele>22.2</ele>
        <time>2020-06-10T11:08:49Z</time>
      </trkpt>
      <trkpt lat="48.58509" lon="-3.92095">
        <ele>22.5</ele>
        <time>2020-06-10T11:08:50Z</time>
      </trkpt>
      <trkpt lat="48.58508" lon="-3.92093">
        <ele>22.6</ele>
        <time>2020-06-10T11:08:51Z</time>
      </trkpt>
      <trkpt lat="48.58507" lon="-3.92089">
        <ele>22.8</ele>
        <time>2020-06-10T11:08:52Z</time>
      </trkpt>
      <trkpt lat="48.58506" lon="-3.92084">
        <ele>23</ele>
        <time>2020-06-10T11:08:53Z</time>
      </trkpt>
      <trkpt lat="48.58505" lon="-3.92081">
        <ele>23.2</ele>
        <time>2020-06-10T11:08:54Z</time>
      </trkpt>
      <trkpt lat="48.58504" lon="-3.92075">
        <ele>23.5</ele>
        <time>2020-06-10T11:08:55Z</time>
      </trkpt>
      <trkpt lat="48.58503" lon="-3.9207">
        <ele>23.7</ele>
        <time>2020-06-10T11:08:56Z</time>
      </trkpt>
      <trkpt lat="48.58502" lon="-3.92066">
        <ele>23.9</ele>
        <time>2020-06-10T11:08:57Z</time>
      </trkpt>
      <trkpt lat="48.58501" lon="-3.92062">
        <ele>24.1</ele>
        <time>2020-06-10T11:08:58Z</time>
      </trkpt>
      <trkpt lat="48.585" lon="-3.92058">
        <ele>24.3</ele>
        <time>2020-06-10T11:08:59Z</time>
      </trkpt>
      <trkpt lat="48.58499" lon="-3.92053">
        <ele>24.5</ele>
        <time>2020-06-10T11:09:00Z</time>
      </trkpt>
      <trkpt lat="48.58498" lon="-3.92049">
        <ele>24.7</ele>
        <time>2020-06-10T11:09:01Z</time>
      </trkpt>
      <trkpt lat="48.58497" lon="-3.92044">
        <ele>24.9</ele>
        <time>2020-06-10T11:09:02Z</time>
      </trkpt>
      <trkpt lat="48.58496" lon="-3.92039">
        <ele>25.2</ele>
        <time>2020-06-10T11:09:03Z</time>
      </trkpt>
      <trkpt lat="48.58495" lon="-3.92035">
        <ele>25.4</ele>
        <time>2020-06-10T11:09:04Z</time>
      </trkpt>
      <trkpt lat="48.58494" lon="-3.9203">
        <ele>25.7</ele>
        <time>2020-06-10T11:09:05Z</time>
      </trkpt>
      <trkpt lat="48.58493" lon="-3.92025">
        <ele>25.9</ele>
        <time>2020-06-10T11:09:06Z</time>
      </trkpt>
      <trkpt lat="48.58493" lon="-3.92019">
        <ele>26.2</ele>
        <time>2020-06-10T11:09:07Z</time>
      </trkpt>
      <trkpt lat="48.58492" lon="-3.92013">
        <ele>26.5</ele>
        <time>2020-06-10T11:09:08Z</time>
      </trkpt>
      <trkpt lat="48.5849" lon="-3.92006">
        <ele>26.8</ele>
        <time>2020-06-10T11:09:09Z</time>
      </trkpt>
      <trkpt lat="48.58488" lon="-3.92001">
        <ele>27.1</ele>
        <time>2020-06-10T11:09:10Z</time>
      </trkpt>
      <trkpt lat="48.58486" lon="-3.91996">
        <ele>27.3</ele>
        <time>2020-06-10T11:09:11Z</time>
      </trkpt>
      <trkpt lat="48.58486" lon="-3.91991">
        <ele>27.6</ele>
        <time>2020-06-10T11:09:12Z</time>
      </trkpt>
      <trkpt lat="48.58486" lon="-3.91983">
        <ele>27.9</ele>
        <time>2020-06-10T11:09:13Z</time>
      </trkpt>
      <trkpt lat="48.58485" lon="-3.91978">
        <ele>28.1</ele>
        <time>2020-06-10T11:09:14Z</time>
      </trkpt>
      <trkpt lat="48.58485" lon="-3.91972">
        <ele>28.3</ele>
        <time>2020-06-10T11:09:15Z</time>
      </trkpt>
      <trkpt lat="48.58485" lon="-3.91968">
        <ele>28.5</ele>
        <time>2020-06-10T11:09:16Z</time>
      </trkpt>
      <trkpt lat="48.58485" lon="-3.91962">
        <ele>28.7</ele>
        <time>2020-06-10T11:09:17Z</time>
      </trkpt>
      <trkpt lat="48.58485" lon="-3.91957">
        <ele>28.9</ele>
        <time>2020-06-10T11:09:18Z</time>
      </trkpt>
      <trkpt lat="48.58484" lon="-3.91951">
        <ele>29.1</ele>
        <time>2020-06-10T11:09:19Z</time>
      </trkpt>
      <trkpt lat="48.58483" lon="-3.91947">
        <ele>29.3</ele>
        <time>2020-06-10T11:09:20Z</time>
      </trkpt>
      <trkpt lat="48.58483" lon="-3.91941">
        <ele>29.5</ele>
        <time>2020-06-10T11:09:21Z</time>
      </trkpt>
      <trkpt lat="48.58484" lon="-3.91935">
        <ele>29.7</ele>
        <time>2020-06-10T11:09:22Z</time>
      </trkpt>
      <trkpt lat="48.58483" lon="-3.9193">
        <ele>29.9</ele>
        <time>2020-06-10T11:09:23Z</time>
      </trkpt>
      <trkpt lat="48.58483" lon="-3.91925">
        <ele>30.1</ele>
        <time>2020-06-10T11:09:24Z</time>
      </trkpt>
      <trkpt lat="48.58483" lon="-3.91919">
        <ele>30.4</ele>
        <time>2020-06-10T11:09:25Z</time>
      </trkpt>
      <trkpt lat="48.58484" lon="-3.91913">
        <ele>30.7</ele>
        <time>2020-06-10T11:09:26Z</time>
      </trkpt>
      <trkpt lat="48.58484" lon="-3.91908">
        <ele>30.9</ele>
        <time>2020-06-10T11:09:27Z</time>
      </trkpt>
      <trkpt lat="48.58486" lon="-3.91902">
        <ele>31.2</ele>
        <time>2020-06-10T11:09:28Z</time>
      </trkpt>
      <trkpt lat="48.58486" lon="-3.91899">
        <ele>31.3</ele>
        <time>2020-06-10T11:09:29Z</time>
      </trkpt>
      <trkpt lat="48.58486" lon="-3.91893">
        <ele>31.6</ele>
        <time>2020-06-10T11:09:30Z</time>
      </trkpt>
      <trkpt lat="48.58487" lon="-3.91886">
        <ele>31.8</ele>
        <time>2020-06-10T11:09:31Z</time>
      </trkpt>
      <trkpt lat="48.58488" lon="-3.91881">
        <ele>32.1</ele>
        <time>2020-06-10T11:09:32Z</time>
      </trkpt>
      <trkpt lat="48.58488" lon="-3.91874">
        <ele>32.4</ele>
        <time>2020-06-10T11:09:33Z</time>
      </trkpt>
      <trkpt lat="48.5849" lon="-3.91868">
        <ele>32.7</ele>
        <time>2020-06-10T11:09:34Z</time>
      </trkpt>
      <trkpt lat="48.5849" lon="-3.91863">
        <ele>32.9</ele>
        <time>2020-06-10T11:09:35Z</time>
      </trkpt>
      <trkpt lat="48.5849" lon="-3.91856">
        <ele>33.2</ele>
        <time>2020-06-10T11:09:36Z</time>
      </trkpt>
      <trkpt lat="48.58491" lon="-3.91853">
        <ele>33.3</ele>
        <time>2020-06-10T11:09:37Z</time>
      </trkpt>
      <trkpt lat="48.58491" lon="-3.91847">
        <ele>33.6</ele>
        <time>2020-06-10T11:09:38Z</time>
      </trkpt>
      <trkpt lat="48.58491" lon="-3.91842">
        <ele>33.8</ele>
        <time>2020-06-10T11:09:39Z</time>
      </trkpt>
      <trkpt lat="48.58491" lon="-3.91838">
        <ele>34</ele>
        <time>2020-06-10T11:09:40Z</time>
      </trkpt>
      <trkpt lat="48.58491" lon="-3.91833">
        <ele>34.2</ele>
        <time>2020-06-10T11:09:41Z</time>
      </trkpt>
      <trkpt lat="48.58491" lon="-3.91828">
        <ele>34.4</ele>
        <time>2020-06-10T11:09:42Z</time>
      </trkpt>
      <trkpt lat="48.58491" lon="-3.91822">
        <ele>34.6</ele>
        <time>2020-06-10T11:09:43Z</time>
      </trkpt>
      <trkpt lat="48.58491" lon="-3.91817">
        <ele>34.8</ele>
        <time>2020-06-10T11:09:44Z</time>
      </trkpt>
      <trkpt lat="48.58491" lon="-3.91812">
        <ele>35.1</ele>
        <time>2020-06-10T11:09:45Z</time>
      </trkpt>
      <trkpt lat="48.58492" lon="-3.91808">
        <ele>35.3</ele>
        <time>2020-06-10T11:09:46Z</time>
      </trkpt>
      <trkpt lat="48.58492" lon="-3.91802">
        <ele>35.5</ele>
        <time>2020-06-10T11:09:47Z</time>
      </trkpt>
      <trkpt lat="48.58492" lon="-3.91796">
        <ele>35.7</ele>
        <time>2020-06-10T11:09:48Z</time>
      </trkpt>
      <trkpt lat="48.58492" lon="-3.91791">
        <ele>35.9</ele>
        <time>2020-06-10T11:09:49Z</time>
      </trkpt>
      <trkpt lat="48.58492" lon="-3.91785">
        <ele>36.1</ele>
        <time>2020-06-10T11:09:50Z</time>
      </trkpt>
      <trkpt lat="48.58491" lon="-3.9178">
        <ele>36.4</ele>
        <time>2020-06-10T11:09:51Z</time>
      </trkpt>
      <trkpt lat="48.58491" lon="-3.91774">
        <ele>36.6</ele>
        <time>2020-06-10T11:09:52Z</time>
      </trkpt>
      <trkpt lat="48.58489" lon="-3.9177">
        <ele>36.8</ele>
        <time>2020-06-10T11:09:53Z</time>
      </trkpt>
      <trkpt lat="48.58487" lon="-3.91765">
        <ele>37</ele>
        <time>2020-06-10T11:09:54Z</time>
      </trkpt>
      <trkpt lat="48.58485" lon="-3.91761">
        <ele>37.2</ele>
        <time>2020-06-10T11:09:55Z</time>
      </trkpt>
      <trkpt lat="48.58482" lon="-3.91756">
        <ele>37.5</ele>
        <time>2020-06-10T11:09:56Z</time>
      </trkpt>
      <trkpt lat="48.5848" lon="-3.91751">
        <ele>37.7</ele>
        <time>2020-06-10T11:09:57Z</time>
      </trkpt>
      <trkpt lat="48.58479" lon="-3.91746">
        <ele>38</ele>
        <time>2020-06-10T11:09:58Z</time>
      </trkpt>
      <trkpt lat="48.58477" lon="-3.91742">
        <ele>38.1</ele>
        <time>2020-06-10T11:09:59Z</time>
      </trkpt>
      <trkpt lat="48.58475" lon="-3.91738">
        <ele>38.3</ele>
        <time>2020-06-10T11:10:00Z</time>
      </trkpt>
      <trkpt lat="48.58473" lon="-3.91734">
        <ele>38.6</ele>
        <time>2020-06-10T11:10:01Z</time>
      </trkpt>
      <trkpt lat="48.58471" lon="-3.91729">
        <ele>38.8</ele>
        <time>2020-06-10T11:10:02Z</time>
      </trkpt>
      <trkpt lat="48.58469" lon="-3.91724">
        <ele>39</ele>
        <time>2020-06-10T11:10:03Z</time>
      </trkpt>
      <trkpt lat="48.58467" lon="-3.9172">
        <ele>39.2</ele>
        <time>2020-06-10T11:10:04Z</time>
      </trkpt>
      <trkpt lat="48.58466" lon="-3.91715">
        <ele>39.4</ele>
        <time>2020-06-10T11:10:05Z</time>
      </trkpt>
      <trkpt lat="48.58465" lon="-3.91711">
        <ele>39.6</ele>
        <time>2020-06-10T11:10:06Z</time>
      </trkpt>
      <trkpt lat="48.58463" lon="-3.91707">
        <ele>39.8</ele>
        <time>2020-06-10T11:10:07Z</time>
      </trkpt>
      <trkpt lat="48.58461" lon="-3.91702">
        <ele>40</ele>
        <time>2020-06-10T11:10:08Z</time>
      </trkpt>
      <trkpt lat="48.5846" lon="-3.91697">
        <ele>40.3</ele>
        <time>2020-06-10T11:10:09Z</time>
      </trkpt>
      <trkpt lat="48.58459" lon="-3.91692">
        <ele>40.5</ele>
        <time>2020-06-10T11:10:10Z</time>
      </trkpt>
      <trkpt lat="48.58458" lon="-3.91687">
        <ele>40.8</ele>
        <time>2020-06-10T11:10:11Z</time>
      </trkpt>
      <trkpt lat="48.58457" lon="-3.91681">
        <ele>41.1</ele>
        <time>2020-06-10T11:10:12Z</time>
      </trkpt>
      <trkpt lat="48.58456" lon="-3.91677">
        <ele>41.3</ele>
        <time>2020-06-10T11:10:13Z</time>
      </trkpt>
      <trkpt lat="48.58455" lon="-3.91673">
        <ele>41.4</ele>
        <time>2020-06-10T11:10:14Z</time>
      </trkpt>
      <trkpt lat="48.58454" lon="-3.91668">
        <ele>41.6</ele>
        <time>2020-06-10T11:10:15Z</time>
      </trkpt>
      <trkpt lat="48.58453" lon="-3.91665">
        <ele>41.8</ele>
        <time>2020-06-10T11:10:16Z</time>
      </trkpt>
      <trkpt lat="48.58451" lon="-3.91661">
        <ele>41.9</ele>
        <time>2020-06-10T11:10:17Z</time>
      </trkpt>
      <trkpt lat="48.5845" lon="-3.91657">
        <ele>42.1</ele>
        <time>2020-06-10T11:10:18Z</time>
      </trkpt>
      <trkpt lat="48.58449" lon="-3.91653">
        <ele>42.3</ele>
        <time>2020-06-10T11:10:19Z</time>
      </trkpt>
      <trkpt lat="48.58447" lon="-3.91647">
        <ele>42.5</ele>
        <time>2020-06-10T11:10:20Z</time>
      </trkpt>
      <trkpt lat="48.58447" lon="-3.91644">
        <ele>42.7</ele>
        <time>2020-06-10T11:10:21Z</time>
      </trkpt>
      <trkpt lat="48.58446" lon="-3.91639">
        <ele>42.9</ele>
        <time>2020-06-10T11:10:22Z</time>
      </trkpt>
      <trkpt lat="48.58446" lon="-3.91633">
        <ele>43.1</ele>
        <time>2020-06-10T11:10:23Z</time>
      </trkpt>
      <trkpt lat="48.58445" lon="-3.91628">
        <ele>43.3</ele>
        <time>2020-06-10T11:10:24Z</time>
      </trkpt>
      <trkpt lat="48.58445" lon="-3.91622">
        <ele>43.6</ele>
        <time>2020-06-10T11:10:25Z</time>
      </trkpt>
      <trkpt lat="48.58445" lon="-3.91619">
        <ele>43.7</ele>
        <time>2020-06-10T11:10:26Z</time>
      </trkpt>
      <trkpt lat="48.58444" lon="-3.91614">
        <ele>43.9</ele>
        <time>2020-06-10T11:10:27Z</time>
      </trkpt>
      <trkpt lat="48.58444" lon="-3.91609">
        <ele>44.1</ele>
        <time>2020-06-10T11:10:28Z</time>
      </trkpt>
      <trkpt lat="48.58442" lon="-3.91605">
        <ele>44.3</ele>
        <time>2020-06-10T11:10:29Z</time>
      </trkpt>
      <trkpt lat="48.58442" lon="-3.91599">
        <ele>44.6</ele>
        <time>2020-06-10T11:10:30Z</time>
      </trkpt>
      <trkpt lat="48.58441" lon="-3.91595">
        <ele>44.8</ele>
        <time>2020-06-10T11:10:31Z</time>
      </trkpt>
      <trkpt lat="48.58441" lon="-3.9159">
        <ele>45</ele>
        <time>2020-06-10T11:10:32Z</time>
      </trkpt>
      <trkpt lat="48.58441" lon="-3.91584">
        <ele>45.3</ele>
        <time>2020-06-10T11:10:33Z</time>
      </trkpt>
      <trkpt lat="48.58441" lon="-3.91579">
        <ele>45.5</ele>
        <time>2020-06-10T11:10:34Z</time>
      </trkpt>
      <trkpt lat="48.58442" lon="-3.91575">
        <ele>45.6</ele>
        <time>2020-06-10T11:10:35Z</time>
      </trkpt>
      <trkpt lat="48.58442" lon="-3.91571">
        <ele>45.8</ele>
        <time>2020-06-10T11:10:36Z</time>
      </trkpt>
      <trkpt lat="48.58442" lon="-3.91566">
        <ele>46</ele>
        <time>2020-06-10T11:10:37Z</time>
      </trkpt>
      <trkpt lat="48.58441" lon="-3.91561">
        <ele>46.2</ele>
        <time>2020-06-10T11:10:38Z</time>
      </trkpt>
      <trkpt lat="48.58441" lon="-3.91557">
        <ele>46.4</ele>
        <time>2020-06-10T11:10:39Z</time>
      </trkpt>
      <trkpt lat="48.58441" lon="-3.91555">
        <ele>46.5</ele>
        <time>2020-06-10T11:10:40Z</time>
      </trkpt>
      <trkpt lat="48.58441" lon="-3.9155">
        <ele>46.7</ele>
        <time>2020-06-10T11:10:41Z</time>
      </trkpt>
      <trkpt lat="48.58442" lon="-3.91549">
        <ele>46.7</ele>
        <time>2020-06-10T11:10:42Z</time>
      </trkpt>
      <trkpt lat="48.58441" lon="-3.91546">
        <ele>46.9</ele>
        <time>2020-06-10T11:10:43Z</time>
      </trkpt>
      <trkpt lat="48.58441" lon="-3.91543">
        <ele>47</ele>
        <time>2020-06-10T11:10:44Z</time>
      </trkpt>
      <trkpt lat="48.58442" lon="-3.91537">
        <ele>47.2</ele>
        <time>2020-06-10T11:10:45Z</time>
      </trkpt>
      <trkpt lat="48.58442" lon="-3.91535">
        <ele>47.3</ele>
        <time>2020-06-10T11:10:46Z</time>
      </trkpt>
      <trkpt lat="48.58441" lon="-3.91531">
        <ele>47.5</ele>
        <time>2020-06-10T11:10:47Z</time>
      </trkpt>
      <trkpt lat="48.58441" lon="-3.91526">
        <ele>47.7</ele>
        <time>2020-06-10T11:10:48Z</time>
      </trkpt>
      <trkpt lat="48.58441" lon="-3.91522">
        <ele>47.9</ele>
        <time>2020-06-10T11:10:49Z</time>
      </trkpt>
      <trkpt lat="48.58441" lon="-3.91517">
        <ele>48.1</ele>
        <time>2020-06-10T11:10:50Z</time>
      </trkpt>
      <trkpt lat="48.58441" lon="-3.91512">
        <ele>48.3</ele>
        <time>2020-06-10T11:10:51Z</time>
      </trkpt>
      <trkpt lat="48.58441" lon="-3.91511">
        <ele>48.4</ele>
        <time>2020-06-10T11:10:52Z</time>
      </trkpt>
      <trkpt lat="48.58441" lon="-3.91505">
        <ele>48.6</ele>
        <time>2020-06-10T11:10:53Z</time>
      </trkpt>
      <trkpt lat="48.58441" lon="-3.91503">
        <ele>48.7</ele>
        <time>2020-06-10T11:10:54Z</time>
      </trkpt>
      <trkpt lat="48.58441" lon="-3.91498">
        <ele>48.9</ele>
        <time>2020-06-10T11:10:55Z</time>
      </trkpt>
      <trkpt lat="48.58441" lon="-3.91496">
        <ele>49</ele>
        <time>2020-06-10T11:10:56Z</time>
      </trkpt>
      <trkpt lat="48.5844" lon="-3.91492">
        <ele>49.2</ele>
        <time>2020-06-10T11:10:57Z</time>
      </trkpt>
      <trkpt lat="48.5844" lon="-3.91488">
        <ele>49.4</ele>
        <time>2020-06-10T11:10:58Z</time>
      </trkpt>
      <trkpt lat="48.5844" lon="-3.91483">
        <ele>49.6</ele>
        <time>2020-06-10T11:10:59Z</time>
      </trkpt>
      <trkpt lat="48.5844" lon="-3.91481">
        <ele>49.7</ele>
        <time>2020-06-10T11:11:00Z</time>
      </trkpt>
      <trkpt lat="48.5844" lon="-3.91476">
        <ele>49.9</ele>
        <time>2020-06-10T11:11:01Z</time>
      </trkpt>
      <trkpt lat="48.5844" lon="-3.91474">
        <ele>50</ele>
        <time>2020-06-10T11:11:02Z</time>
      </trkpt>
      <trkpt lat="48.58441" lon="-3.91469">
        <ele>50.2</ele>
        <time>2020-06-10T11:11:03Z</time>
      </trkpt>
      <trkpt lat="48.58441" lon="-3.91467">
        <ele>50.3</ele>
        <time>2020-06-10T11:11:04Z</time>
      </trkpt>
      <trkpt lat="48.58441" lon="-3.91462">
        <ele>50.6</ele>
        <time>2020-06-10T11:11:05Z</time>
      </trkpt>
      <trkpt lat="48.58441" lon="-3.9146">
        <ele>50.6</ele>
        <time>2020-06-10T11:11:06Z</time>
      </trkpt>
      <trkpt lat="48.58442" lon="-3.91455">
        <ele>50.9</ele>
        <time>2020-06-10T11:11:07Z</time>
      </trkpt>
      <trkpt lat="48.58442" lon="-3.91453">
        <ele>51</ele>
        <time>2020-06-10T11:11:08Z</time>
      </trkpt>
      <trkpt lat="48.58443" lon="-3.91447">
        <ele>51.3</ele>
        <time>2020-06-10T11:11:09Z</time>
      </trkpt>
      <trkpt lat="48.58443" lon="-3.91445">
        <ele>51.4</ele>
        <time>2020-06-10T11:11:10Z</time>
      </trkpt>
      <trkpt lat="48.58442" lon="-3.91441">
        <ele>51.6</ele>
        <time>2020-06-10T11:11:11Z</time>
      </trkpt>
      <trkpt lat="48.58442" lon="-3.91439">
        <ele>51.7</ele>
        <time>2020-06-10T11:11:12Z</time>
      </trkpt>
      <trkpt lat="48.58441" lon="-3.91434">
        <ele>51.9</ele>
        <time>2020-06-10T11:11:13Z</time>
      </trkpt>
      <trkpt lat="48.58441" lon="-3.91432">
        <ele>52</ele>
        <time>2020-06-10T11:11:14Z</time>
      </trkpt>
      <trkpt lat="48.58441" lon="-3.91426">
        <ele>52.2</ele>
        <time>2020-06-10T11:11:15Z</time>
      </trkpt>
      <trkpt lat="48.58441" lon="-3.91424">
        <ele>52.3</ele>
        <time>2020-06-10T11:11:16Z</time>
      </trkpt>
      <trkpt lat="48.58441" lon="-3.9142">
        <ele>52.5</ele>
        <time>2020-06-10T11:11:17Z</time>
      </trkpt>
      <trkpt lat="48.58441" lon="-3.91416">
        <ele>52.7</ele>
        <time>2020-06-10T11:11:18Z</time>
      </trkpt>
      <trkpt lat="48.58441" lon="-3.91411">
        <ele>52.9</ele>
        <time>2020-06-10T11:11:19Z</time>
      </trkpt>
      <trkpt lat="48.58441" lon="-3.91409">
        <ele>53</ele>
        <time>2020-06-10T11:11:20Z</time>
      </trkpt>
      <trkpt lat="48.58442" lon="-3.91405">
        <ele>53.2</ele>
        <time>2020-06-10T11:11:21Z</time>
      </trkpt>
      <trkpt lat="48.58442" lon="-3.914">
        <ele>53.4</ele>
        <time>2020-06-10T11:11:22Z</time>
      </trkpt>
      <trkpt lat="48.58442" lon="-3.91398">
        <ele>53.5</ele>
        <time>2020-06-10T11:11:23Z</time>
      </trkpt>
      <trkpt lat="48.58441" lon="-3.91394">
        <ele>53.7</ele>
        <time>2020-06-10T11:11:24Z</time>
      </trkpt>
      <trkpt lat="48.58441" lon="-3.91392">
        <ele>53.8</ele>
        <time>2020-06-10T11:11:25Z</time>
      </trkpt>
      <trkpt lat="48.58442" lon="-3.91387">
        <ele>54</ele>
        <time>2020-06-10T11:11:26Z</time>
      </trkpt>
      <trkpt lat="48.58442" lon="-3.91386">
        <ele>54</ele>
        <time>2020-06-10T11:11:27Z</time>
      </trkpt>
      <trkpt lat="48.58444" lon="-3.9138">
        <ele>54.3</ele>
        <time>2020-06-10T11:11:28Z</time>
      </trkpt>
      <trkpt lat="48.58444" lon="-3.91378">
        <ele>54.4</ele>
        <time>2020-06-10T11:11:29Z</time>
      </trkpt>
      <trkpt lat="48.58444" lon="-3.91371">
        <ele>54.7</ele>
        <time>2020-06-10T11:11:30Z</time>
      </trkpt>
      <trkpt lat="48.58444" lon="-3.91369">
        <ele>54.8</ele>
        <time>2020-06-10T11:11:31Z</time>
      </trkpt>
      <trkpt lat="48.58444" lon="-3.91364">
        <ele>55</ele>
        <time>2020-06-10T11:11:32Z</time>
      </trkpt>
      <trkpt lat="48.58444" lon="-3.91363">
        <ele>55</ele>
        <time>2020-06-10T11:11:33Z</time>
      </trkpt>
      <trkpt lat="48.58443" lon="-3.91358">
        <ele>55.2</ele>
        <time>2020-06-10T11:11:34Z</time>
      </trkpt>
      <trkpt lat="48.58443" lon="-3.91357">
        <ele>55.3</ele>
        <time>2020-06-10T11:11:35Z</time>
      </trkpt>
      <trkpt lat="48.58444" lon="-3.91351">
        <ele>55.5</ele>
        <time>2020-06-10T11:11:36Z</time>
      </trkpt>
      <trkpt lat="48.58445" lon="-3.91349">
        <ele>55.6</ele>
        <time>2020-06-10T11:11:37Z</time>
      </trkpt>
      <trkpt lat="48.58446" lon="-3.91345">
        <ele>55.8</ele>
        <time>2020-06-10T11:11:38Z</time>
      </trkpt>
      <trkpt lat="48.58446" lon="-3.91341">
        <ele>56</ele>
        <time>2020-06-10T11:11:39Z</time>
      </trkpt>
      <trkpt lat="48.58446" lon="-3.91335">
        <ele>56.3</ele>
        <time>2020-06-10T11:11:40Z</time>
      </trkpt>
      <trkpt lat="48.58446" lon="-3.91332">
        <ele>56.4</ele>
        <time>2020-06-10T11:11:41Z</time>
      </trkpt>
      <trkpt lat="48.58447" lon="-3.91327">
        <ele>56.6</ele>
        <time>2020-06-10T11:11:42Z</time>
      </trkpt>
      <trkpt lat="48.58448" lon="-3.91324">
        <ele>56.7</ele>
        <time>2020-06-10T11:11:43Z</time>
      </trkpt>
      <trkpt lat="48.58448" lon="-3.91319">
        <ele>57</ele>
        <time>2020-06-10T11:11:44Z</time>
      </trkpt>
      <trkpt lat="48.58448" lon="-3.91317">
        <ele>57.1</ele>
        <time>2020-06-10T11:11:45Z</time>
      </trkpt>
      <trkpt lat="48.58448" lon="-3.91311">
        <ele>57.3</ele>
        <time>2020-06-10T11:11:46Z</time>
      </trkpt>
      <trkpt lat="48.58448" lon="-3.91309">
        <ele>57.4</ele>
        <time>2020-06-10T11:11:47Z</time>
      </trkpt>
      <trkpt lat="48.58449" lon="-3.91303">
        <ele>57.7</ele>
        <time>2020-06-10T11:11:48Z</time>
      </trkpt>
      <trkpt lat="48.5845" lon="-3.91297">
        <ele>57.9</ele>
        <time>2020-06-10T11:11:49Z</time>
      </trkpt>
      <trkpt lat="48.5845" lon="-3.91295">
        <ele>58</ele>
        <time>2020-06-10T11:11:50Z</time>
      </trkpt>
      <trkpt lat="48.5845" lon="-3.91289">
        <ele>58.2</ele>
        <time>2020-06-10T11:11:51Z</time>
      </trkpt>
      <trkpt lat="48.5845" lon="-3.91287">
        <ele>58.3</ele>
        <time>2020-06-10T11:11:52Z</time>
      </trkpt>
      <trkpt lat="48.58451" lon="-3.91282">
        <ele>58.5</ele>
        <time>2020-06-10T11:11:53Z</time>
      </trkpt>
      <trkpt lat="48.58451" lon="-3.9128">
        <ele>58.6</ele>
        <time>2020-06-10T11:11:54Z</time>
      </trkpt>
      <trkpt lat="48.58452" lon="-3.91276">
        <ele>58.8</ele>
        <time>2020-06-10T11:11:55Z</time>
      </trkpt>
      <trkpt lat="48.58452" lon="-3.9127">
        <ele>59</ele>
        <time>2020-06-10T11:11:56Z</time>
      </trkpt>
      <trkpt lat="48.58453" lon="-3.91268">
        <ele>59.1</ele>
        <time>2020-06-10T11:11:57Z</time>
      </trkpt>
      <trkpt lat="48.58453" lon="-3.91263">
        <ele>59.5</ele>
        <time>2020-06-10T11:11:58Z</time>
      </trkpt>
      <trkpt lat="48.58453" lon="-3.91261">
        <ele>59.6</ele>
        <time>2020-06-10T11:11:59Z</time>
      </trkpt>
      <trkpt lat="48.58453" lon="-3.91256">
        <ele>59.8</ele>
        <time>2020-06-10T11:12:00Z</time>
      </trkpt>
      <trkpt lat="48.58454" lon="-3.91254">
        <ele>59.8</ele>
        <time>2020-06-10T11:12:01Z</time>
      </trkpt>
      <trkpt lat="48.58454" lon="-3.9125">
        <ele>60</ele>
        <time>2020-06-10T11:12:02Z</time>
      </trkpt>
      <trkpt lat="48.58455" lon="-3.91245">
        <ele>60.2</ele>
        <time>2020-06-10T11:12:03Z</time>
      </trkpt>
      <trkpt lat="48.58455" lon="-3.91244">
        <ele>60.3</ele>
        <time>2020-06-10T11:12:04Z</time>
      </trkpt>
      <trkpt lat="48.58456" lon="-3.91239">
        <ele>60.5</ele>
        <time>2020-06-10T11:12:05Z</time>
      </trkpt>
      <trkpt lat="48.58456" lon="-3.91237">
        <ele>60.6</ele>
        <time>2020-06-10T11:12:06Z</time>
      </trkpt>
      <trkpt lat="48.58457" lon="-3.91232">
        <ele>60.7</ele>
        <time>2020-06-10T11:12:07Z</time>
      </trkpt>
      <trkpt lat="48.58459" lon="-3.91228">
        <ele>60.9</ele>
        <time>2020-06-10T11:12:08Z</time>
      </trkpt>
      <trkpt lat="48.5846" lon="-3.91223">
        <ele>61.1</ele>
        <time>2020-06-10T11:12:09Z</time>
      </trkpt>
      <trkpt lat="48.5846" lon="-3.91218">
        <ele>61.3</ele>
        <time>2020-06-10T11:12:10Z</time>
      </trkpt>
      <trkpt lat="48.58461" lon="-3.91214">
        <ele>61.4</ele>
        <time>2020-06-10T11:12:11Z</time>
      </trkpt>
      <trkpt lat="48.58462" lon="-3.91209">
        <ele>61.6</ele>
        <time>2020-06-10T11:12:12Z</time>
      </trkpt>
      <trkpt lat="48.58462" lon="-3.91206">
        <ele>61.7</ele>
        <time>2020-06-10T11:12:13Z</time>
      </trkpt>
      <trkpt lat="48.58463" lon="-3.91202">
        <ele>61.8</ele>
        <time>2020-06-10T11:12:14Z</time>
      </trkpt>
      <trkpt lat="48.58464" lon="-3.91197">
        <ele>62</ele>
        <time>2020-06-10T11:12:15Z</time>
      </trkpt>
      <trkpt lat="48.58465" lon="-3.91193">
        <ele>62.1</ele>
        <time>2020-06-10T11:12:16Z</time>
      </trkpt>
      <trkpt lat="48.58467" lon="-3.91189">
        <ele>62.3</ele>
        <time>2020-06-10T11:12:17Z</time>
      </trkpt>
      <trkpt lat="48.58468" lon="-3.91185">
        <ele>62.4</ele>
        <time>2020-06-10T11:12:18Z</time>
      </trkpt>
      <trkpt lat="48.58469" lon="-3.91178">
        <ele>62.6</ele>
        <time>2020-06-10T11:12:19Z</time>
      </trkpt>
      <trkpt lat="48.58469" lon="-3.91176">
        <ele>62.7</ele>
        <time>2020-06-10T11:12:20Z</time>
      </trkpt>
      <trkpt lat="48.5847" lon="-3.91172">
        <ele>62.8</ele>
        <time>2020-06-10T11:12:21Z</time>
      </trkpt>
      <trkpt lat="48.58471" lon="-3.91166">
        <ele>62.9</ele>
        <time>2020-06-10T11:12:22Z</time>
      </trkpt>
      <trkpt lat="48.58472" lon="-3.91164">
        <ele>63</ele>
        <time>2020-06-10T11:12:23Z</time>
      </trkpt>
      <trkpt lat="48.58473" lon="-3.9116">
        <ele>63.1</ele>
        <time>2020-06-10T11:12:24Z</time>
      </trkpt>
      <trkpt lat="48.58473" lon="-3.91156">
        <ele>63.2</ele>
        <time>2020-06-10T11:12:25Z</time>
      </trkpt>
      <trkpt lat="48.58475" lon="-3.9115">
        <ele>63.4</ele>
        <time>2020-06-10T11:12:26Z</time>
      </trkpt>
      <trkpt lat="48.58475" lon="-3.91148">
        <ele>63.5</ele>
        <time>2020-06-10T11:12:27Z</time>
      </trkpt>
      <trkpt lat="48.58477" lon="-3.91145">
        <ele>63.6</ele>
        <time>2020-06-10T11:12:28Z</time>
      </trkpt>
      <trkpt lat="48.58478" lon="-3.9114">
        <ele>63.8</ele>
        <time>2020-06-10T11:12:29Z</time>
      </trkpt>
      <trkpt lat="48.58479" lon="-3.91135">
        <ele>64</ele>
        <time>2020-06-10T11:12:30Z</time>
      </trkpt>
      <trkpt lat="48.58479" lon="-3.9113">
        <ele>64.1</ele>
        <time>2020-06-10T11:12:31Z</time>
      </trkpt>
      <trkpt lat="48.5848" lon="-3.91126">
        <ele>64.3</ele>
        <time>2020-06-10T11:12:32Z</time>
      </trkpt>
      <trkpt lat="48.58482" lon="-3.91121">
        <ele>64.5</ele>
        <time>2020-06-10T11:12:33Z</time>
      </trkpt>
      <trkpt lat="48.58482" lon="-3.91119">
        <ele>64.5</ele>
        <time>2020-06-10T11:12:34Z</time>
      </trkpt>
      <trkpt lat="48.58483" lon="-3.91114">
        <ele>64.7</ele>
        <time>2020-06-10T11:12:35Z</time>
      </trkpt>
      <trkpt lat="48.58484" lon="-3.9111">
        <ele>64.9</ele>
        <time>2020-06-10T11:12:36Z</time>
      </trkpt>
      <trkpt lat="48.58486" lon="-3.91106">
        <ele>65</ele>
        <time>2020-06-10T11:12:37Z</time>
      </trkpt>
      <trkpt lat="48.58486" lon="-3.91102">
        <ele>65.2</ele>
        <time>2020-06-10T11:12:38Z</time>
      </trkpt>
      <trkpt lat="48.58489" lon="-3.91097">
        <ele>65.4</ele>
        <time>2020-06-10T11:12:39Z</time>
      </trkpt>
      <trkpt lat="48.5849" lon="-3.91095">
        <ele>65.5</ele>
        <time>2020-06-10T11:12:40Z</time>
      </trkpt>
      <trkpt lat="48.5849" lon="-3.91091">
        <ele>65.7</ele>
        <time>2020-06-10T11:12:41Z</time>
      </trkpt>
      <trkpt lat="48.58491" lon="-3.91086">
        <ele>65.9</ele>
        <time>2020-06-10T11:12:42Z</time>
      </trkpt>
      <trkpt lat="48.58493" lon="-3.91082">
        <ele>66.1</ele>
        <time>2020-06-10T11:12:43Z</time>
      </trkpt>
      <trkpt lat="48.58494" lon="-3.91076">
        <ele>66.3</ele>
        <time>2020-06-10T11:12:44Z</time>
      </trkpt>
      <trkpt lat="48.58495" lon="-3.91075">
        <ele>66.4</ele>
        <time>2020-06-10T11:12:45Z</time>
      </trkpt>
      <trkpt lat="48.58496" lon="-3.91071">
        <ele>66.6</ele>
        <time>2020-06-10T11:12:46Z</time>
      </trkpt>
      <trkpt lat="48.58496" lon="-3.91066">
        <ele>66.8</ele>
        <time>2020-06-10T11:12:47Z</time>
      </trkpt>
      <trkpt lat="48.58497" lon="-3.91061">
        <ele>67</ele>
        <time>2020-06-10T11:12:48Z</time>
      </trkpt>
      <trkpt lat="48.58498" lon="-3.91056">
        <ele>67.2</ele>
        <time>2020-06-10T11:12:49Z</time>
      </trkpt>
      <trkpt lat="48.58498" lon="-3.91052">
        <ele>67.3</ele>
        <time>2020-06-10T11:12:50Z</time>
      </trkpt>
      <trkpt lat="48.58499" lon="-3.91046">
        <ele>67.6</ele>
        <time>2020-06-10T11:12:51Z</time>
      </trkpt>
      <trkpt lat="48.58499" lon="-3.91045">
        <ele>67.6</ele>
        <time>2020-06-10T11:12:52Z</time>
      </trkpt>
      <trkpt lat="48.58501" lon="-3.9104">
        <ele>67.9</ele>
        <time>2020-06-10T11:12:53Z</time>
      </trkpt>
      <trkpt lat="48.58502" lon="-3.91038">
        <ele>67.9</ele>
        <time>2020-06-10T11:12:54Z</time>
      </trkpt>
      <trkpt lat="48.58503" lon="-3.91033">
        <ele>68.2</ele>
        <time>2020-06-10T11:12:55Z</time>
      </trkpt>
      <trkpt lat="48.58503" lon="-3.9103">
        <ele>68.3</ele>
        <time>2020-06-10T11:12:56Z</time>
      </trkpt>
      <trkpt lat="48.58504" lon="-3.91026">
        <ele>68.5</ele>
        <time>2020-06-10T11:12:57Z</time>
      </trkpt>
      <trkpt lat="48.58505" lon="-3.91021">
        <ele>68.7</ele>
        <time>2020-06-10T11:12:58Z</time>
      </trkpt>
      <trkpt lat="48.58505" lon="-3.91019">
        <ele>68.8</ele>
        <time>2020-06-10T11:12:59Z</time>
      </trkpt>
      <trkpt lat="48.58506" lon="-3.91015">
        <ele>69</ele>
        <time>2020-06-10T11:13:00Z</time>
      </trkpt>
      <trkpt lat="48.58507" lon="-3.91013">
        <ele>69.1</ele>
        <time>2020-06-10T11:13:01Z</time>
      </trkpt>
      <trkpt lat="48.58508" lon="-3.91008">
        <ele>69.3</ele>
        <time>2020-06-10T11:13:02Z</time>
      </trkpt>
      <trkpt lat="48.58509" lon="-3.91004">
        <ele>69.5</ele>
        <time>2020-06-10T11:13:03Z</time>
      </trkpt>
      <trkpt lat="48.5851" lon="-3.90999">
        <ele>69.8</ele>
        <time>2020-06-10T11:13:04Z</time>
      </trkpt>
      <trkpt lat="48.5851" lon="-3.90997">
        <ele>69.9</ele>
        <time>2020-06-10T11:13:05Z</time>
      </trkpt>
      <trkpt lat="48.58511" lon="-3.90991">
        <ele>70.1</ele>
        <time>2020-06-10T11:13:06Z</time>
      </trkpt>
      <trkpt lat="48.58511" lon="-3.90986">
        <ele>70.4</ele>
        <time>2020-06-10T11:13:07Z</time>
      </trkpt>
      <trkpt lat="48.58512" lon="-3.90984">
        <ele>70.4</ele>
        <time>2020-06-10T11:13:08Z</time>
      </trkpt>
      <trkpt lat="48.58512" lon="-3.9098">
        <ele>70.6</ele>
        <time>2020-06-10T11:13:09Z</time>
      </trkpt>
      <trkpt lat="48.58512" lon="-3.90978">
        <ele>70.7</ele>
        <time>2020-06-10T11:13:10Z</time>
      </trkpt>
      <trkpt lat="48.58513" lon="-3.90973">
        <ele>71</ele>
        <time>2020-06-10T11:13:11Z</time>
      </trkpt>
      <trkpt lat="48.58514" lon="-3.90972">
        <ele>71</ele>
        <time>2020-06-10T11:13:12Z</time>
      </trkpt>
      <trkpt lat="48.58514" lon="-3.90967">
        <ele>71.2</ele>
        <time>2020-06-10T11:13:13Z</time>
      </trkpt>
      <trkpt lat="48.58514" lon="-3.90961">
        <ele>71.5</ele>
        <time>2020-06-10T11:13:14Z</time>
      </trkpt>
      <trkpt lat="48.58513" lon="-3.9096">
        <ele>71.6</ele>
        <time>2020-06-10T11:13:15Z</time>
      </trkpt>
      <trkpt lat="48.58513" lon="-3.90954">
        <ele>71.8</ele>
        <time>2020-06-10T11:13:16Z</time>
      </trkpt>
      <trkpt lat="48.58512" lon="-3.90952">
        <ele>71.9</ele>
        <time>2020-06-10T11:13:17Z</time>
      </trkpt>
      <trkpt lat="48.58511" lon="-3.90947">
        <ele>72.1</ele>
        <time>2020-06-10T11:13:18Z</time>
      </trkpt>
      <trkpt lat="48.58511" lon="-3.90945">
        <ele>72.2</ele>
        <time>2020-06-10T11:13:19Z</time>
      </trkpt>
      <trkpt lat="48.58512" lon="-3.90939">
        <ele>72.5</ele>
        <time>2020-06-10T11:13:20Z</time>
      </trkpt>
      <trkpt lat="48.58511" lon="-3.90935">
        <ele>72.7</ele>
        <time>2020-06-10T11:13:21Z</time>
      </trkpt>
      <trkpt lat="48.58511" lon="-3.90933">
        <ele>72.7</ele>
        <time>2020-06-10T11:13:22Z</time>
      </trkpt>
      <trkpt lat="48.58511" lon="-3.90929">
        <ele>72.9</ele>
        <time>2020-06-10T11:13:23Z</time>
      </trkpt>
      <trkpt lat="48.58509" lon="-3.90925">
        <ele>73.1</ele>
        <time>2020-06-10T11:13:24Z</time>
      </trkpt>
      <trkpt lat="48.58506" lon="-3.90921">
        <ele>73.3</ele>
        <time>2020-06-10T11:13:25Z</time>
      </trkpt>
      <trkpt lat="48.58504" lon="-3.90917">
        <ele>73.5</ele>
        <time>2020-06-10T11:13:26Z</time>
      </trkpt>
      <trkpt lat="48.58503" lon="-3.90913">
        <ele>73.7</ele>
        <time>2020-06-10T11:13:27Z</time>
      </trkpt>
      <trkpt lat="48.58502" lon="-3.90908">
        <ele>73.9</ele>
        <time>2020-06-10T11:13:28Z</time>
      </trkpt>
      <trkpt lat="48.58501" lon="-3.90907">
        <ele>74</ele>
        <time>2020-06-10T11:13:29Z</time>
      </trkpt>
      <trkpt lat="48.585" lon="-3.90902">
        <ele>74.3</ele>
        <time>2020-06-10T11:13:30Z</time>
      </trkpt>
      <trkpt lat="48.58499" lon="-3.909">
        <ele>74.3</ele>
        <time>2020-06-10T11:13:31Z</time>
      </trkpt>
      <trkpt lat="48.58497" lon="-3.90895">
        <ele>74.6</ele>
        <time>2020-06-10T11:13:32Z</time>
      </trkpt>
      <trkpt lat="48.58496" lon="-3.90894">
        <ele>74.7</ele>
        <time>2020-06-10T11:13:33Z</time>
      </trkpt>
      <trkpt lat="48.58495" lon="-3.9089">
        <ele>74.9</ele>
        <time>2020-06-10T11:13:34Z</time>
      </trkpt>
      <trkpt lat="48.58494" lon="-3.90888">
        <ele>74.9</ele>
        <time>2020-06-10T11:13:35Z</time>
      </trkpt>
      <trkpt lat="48.58494" lon="-3.90883">
        <ele>75.1</ele>
        <time>2020-06-10T11:13:36Z</time>
      </trkpt>
      <trkpt lat="48.58492" lon="-3.9088">
        <ele>75.3</ele>
        <time>2020-06-10T11:13:37Z</time>
      </trkpt>
      <trkpt lat="48.58491" lon="-3.90876">
        <ele>75.5</ele>
        <time>2020-06-10T11:13:38Z</time>
      </trkpt>
      <trkpt lat="48.58489" lon="-3.9087">
        <ele>75.8</ele>
        <time>2020-06-10T11:13:39Z</time>
      </trkpt>
      <trkpt lat="48.58488" lon="-3.90868">
        <ele>75.9</ele>
        <time>2020-06-10T11:13:40Z</time>
      </trkpt>
      <trkpt lat="48.58486" lon="-3.90863">
        <ele>76.2</ele>
        <time>2020-06-10T11:13:41Z</time>
      </trkpt>
      <trkpt lat="48.58485" lon="-3.90861">
        <ele>76.3</ele>
        <time>2020-06-10T11:13:42Z</time>
      </trkpt>
      <trkpt lat="48.58484" lon="-3.90856">
        <ele>76.5</ele>
        <time>2020-06-10T11:13:43Z</time>
      </trkpt>
      <trkpt lat="48.58482" lon="-3.90853">
        <ele>76.7</ele>
        <time>2020-06-10T11:13:44Z</time>
      </trkpt>
      <trkpt lat="48.5848" lon="-3.90848">
        <ele>77</ele>
        <time>2020-06-10T11:13:45Z</time>
      </trkpt>
      <trkpt lat="48.58478" lon="-3.90846">
        <ele>77.1</ele>
        <time>2020-06-10T11:13:46Z</time>
      </trkpt>
      <trkpt lat="48.58477" lon="-3.90843">
        <ele>77.3</ele>
        <time>2020-06-10T11:13:47Z</time>
      </trkpt>
      <trkpt lat="48.58475" lon="-3.90839">
        <ele>77.5</ele>
        <time>2020-06-10T11:13:48Z</time>
      </trkpt>
      <trkpt lat="48.58474" lon="-3.90835">
        <ele>77.8</ele>
        <time>2020-06-10T11:13:49Z</time>
      </trkpt>
      <trkpt lat="48.58473" lon="-3.90831">
        <ele>78</ele>
        <time>2020-06-10T11:13:50Z</time>
      </trkpt>
      <trkpt lat="48.58473" lon="-3.90827">
        <ele>78.2</ele>
        <time>2020-06-10T11:13:51Z</time>
      </trkpt>
      <trkpt lat="48.58471" lon="-3.90825">
        <ele>78.3</ele>
        <time>2020-06-10T11:13:52Z</time>
      </trkpt>
      <trkpt lat="48.58469" lon="-3.9082">
        <ele>78.6</ele>
        <time>2020-06-10T11:13:53Z</time>
      </trkpt>
      <trkpt lat="48.58469" lon="-3.90819">
        <ele>78.7</ele>
        <time>2020-06-10T11:13:54Z</time>
      </trkpt>
      <trkpt lat="48.58467" lon="-3.90814">
        <ele>78.9</ele>
        <time>2020-06-10T11:13:55Z</time>
      </trkpt>
      <trkpt lat="48.58467" lon="-3.90812">
        <ele>79</ele>
        <time>2020-06-10T11:13:56Z</time>
      </trkpt>
      <trkpt lat="48.58465" lon="-3.90808">
        <ele>79.3</ele>
        <time>2020-06-10T11:13:57Z</time>
      </trkpt>
      <trkpt lat="48.58464" lon="-3.90806">
        <ele>79.4</ele>
        <time>2020-06-10T11:13:58Z</time>
      </trkpt>
      <trkpt lat="48.58463" lon="-3.90801">
        <ele>79.5</ele>
        <time>2020-06-10T11:13:59Z</time>
      </trkpt>
      <trkpt lat="48.58461" lon="-3.90797">
        <ele>79.6</ele>
        <time>2020-06-10T11:14:00Z</time>
      </trkpt>
      <trkpt lat="48.5846" lon="-3.90795">
        <ele>79.6</ele>
        <time>2020-06-10T11:14:01Z</time>
      </trkpt>
      <trkpt lat="48.58459" lon="-3.90789">
        <ele>79.7</ele>
        <time>2020-06-10T11:14:02Z</time>
      </trkpt>
      <trkpt lat="48.58457" lon="-3.90786">
        <ele>79.8</ele>
        <time>2020-06-10T11:14:03Z</time>
      </trkpt>
      <trkpt lat="48.58455" lon="-3.90781">
        <ele>79.9</ele>
        <time>2020-06-10T11:14:04Z</time>
      </trkpt>
      <trkpt lat="48.58454" lon="-3.90776">
        <ele>80.2</ele>
        <time>2020-06-10T11:14:05Z</time>
      </trkpt>
      <trkpt lat="48.58453" lon="-3.90775">
        <ele>80.3</ele>
        <time>2020-06-10T11:14:06Z</time>
      </trkpt>
      <trkpt lat="48.58452" lon="-3.9077">
        <ele>80.6</ele>
        <time>2020-06-10T11:14:07Z</time>
      </trkpt>
      <trkpt lat="48.58451" lon="-3.90768">
        <ele>80.7</ele>
        <time>2020-06-10T11:14:08Z</time>
      </trkpt>
      <trkpt lat="48.5845" lon="-3.90764">
        <ele>80.9</ele>
        <time>2020-06-10T11:14:09Z</time>
      </trkpt>
      <trkpt lat="48.58447" lon="-3.9076">
        <ele>81.2</ele>
        <time>2020-06-10T11:14:10Z</time>
      </trkpt>
      <trkpt lat="48.58447" lon="-3.90759">
        <ele>81.2</ele>
        <time>2020-06-10T11:14:11Z</time>
      </trkpt>
      <trkpt lat="48.58445" lon="-3.90755">
        <ele>81.4</ele>
        <time>2020-06-10T11:14:12Z</time>
      </trkpt>
      <trkpt lat="48.58443" lon="-3.90751">
        <ele>81.7</ele>
        <time>2020-06-10T11:14:13Z</time>
      </trkpt>
      <trkpt lat="48.58442" lon="-3.9075">
        <ele>81.7</ele>
        <time>2020-06-10T11:14:14Z</time>
      </trkpt>
      <trkpt lat="48.5844" lon="-3.90745">
        <ele>82</ele>
        <time>2020-06-10T11:14:15Z</time>
      </trkpt>
      <trkpt lat="48.58439" lon="-3.90743">
        <ele>82.1</ele>
        <time>2020-06-10T11:14:16Z</time>
      </trkpt>
      <trkpt lat="48.58436" lon="-3.90738">
        <ele>82.4</ele>
        <time>2020-06-10T11:14:17Z</time>
      </trkpt>
      <trkpt lat="48.58435" lon="-3.90735">
        <ele>82.5</ele>
        <time>2020-06-10T11:14:18Z</time>
      </trkpt>
      <trkpt lat="48.58434" lon="-3.90731">
        <ele>82.8</ele>
        <time>2020-06-10T11:14:19Z</time>
      </trkpt>
      <trkpt lat="48.58431" lon="-3.90728">
        <ele>83</ele>
        <time>2020-06-10T11:14:20Z</time>
      </trkpt>
      <trkpt lat="48.5843" lon="-3.90725">
        <ele>83.2</ele>
        <time>2020-06-10T11:14:21Z</time>
      </trkpt>
      <trkpt lat="48.58428" lon="-3.90721">
        <ele>83.4</ele>
        <time>2020-06-10T11:14:22Z</time>
      </trkpt>
      <trkpt lat="48.58426" lon="-3.90718">
        <ele>83.6</ele>
        <time>2020-06-10T11:14:23Z</time>
      </trkpt>
      <trkpt lat="48.58424" lon="-3.90713">
        <ele>83.9</ele>
        <time>2020-06-10T11:14:24Z</time>
      </trkpt>
      <trkpt lat="48.58422" lon="-3.90712">
        <ele>84</ele>
        <time>2020-06-10T11:14:25Z</time>
      </trkpt>
      <trkpt lat="48.58421" lon="-3.90708">
        <ele>84.2</ele>
        <time>2020-06-10T11:14:26Z</time>
      </trkpt>
      <trkpt lat="48.58419" lon="-3.90705">
        <ele>84.4</ele>
        <time>2020-06-10T11:14:27Z</time>
      </trkpt>
      <trkpt lat="48.58416" lon="-3.90702">
        <ele>84.6</ele>
        <time>2020-06-10T11:14:28Z</time>
      </trkpt>
      <trkpt lat="48.58413" lon="-3.90698">
        <ele>84.9</ele>
        <time>2020-06-10T11:14:29Z</time>
      </trkpt>
      <trkpt lat="48.58412" lon="-3.90697">
        <ele>85</ele>
        <time>2020-06-10T11:14:30Z</time>
      </trkpt>
      <trkpt lat="48.5841" lon="-3.90694">
        <ele>85.2</ele>
        <time>2020-06-10T11:14:31Z</time>
      </trkpt>
      <trkpt lat="48.58407" lon="-3.90691">
        <ele>85.5</ele>
        <time>2020-06-10T11:14:32Z</time>
      </trkpt>
      <trkpt lat="48.58406" lon="-3.9069">
        <ele>85.6</ele>
        <time>2020-06-10T11:14:33Z</time>
      </trkpt>
      <trkpt lat="48.58405" lon="-3.90686">
        <ele>85.8</ele>
        <time>2020-06-10T11:14:34Z</time>
      </trkpt>
      <trkpt lat="48.58402" lon="-3.90682">
        <ele>86</ele>
        <time>2020-06-10T11:14:35Z</time>
      </trkpt>
      <trkpt lat="48.58401" lon="-3.90681">
        <ele>86.1</ele>
        <time>2020-06-10T11:14:36Z</time>
      </trkpt>
      <trkpt lat="48.58399" lon="-3.90678">
        <ele>86.3</ele>
        <time>2020-06-10T11:14:37Z</time>
      </trkpt>
      <trkpt lat="48.58398" lon="-3.90676">
        <ele>86.4</ele>
        <time>2020-06-10T11:14:38Z</time>
      </trkpt>
      <trkpt lat="48.58395" lon="-3.90673">
        <ele>86.7</ele>
        <time>2020-06-10T11:14:39Z</time>
      </trkpt>
      <trkpt lat="48.58394" lon="-3.90672">
        <ele>86.8</ele>
        <time>2020-06-10T11:14:40Z</time>
      </trkpt>
      <trkpt lat="48.58391" lon="-3.9067">
        <ele>87</ele>
        <time>2020-06-10T11:14:41Z</time>
      </trkpt>
      <trkpt lat="48.58388" lon="-3.90667">
        <ele>87.2</ele>
        <time>2020-06-10T11:14:42Z</time>
      </trkpt>
      <trkpt lat="48.58385" lon="-3.90664">
        <ele>87.5</ele>
        <time>2020-06-10T11:14:43Z</time>
      </trkpt>
      <trkpt lat="48.58384" lon="-3.90663">
        <ele>87.6</ele>
        <time>2020-06-10T11:14:44Z</time>
      </trkpt>
      <trkpt lat="48.58382" lon="-3.9066">
        <ele>87.7</ele>
        <time>2020-06-10T11:14:45Z</time>
      </trkpt>
      <trkpt lat="48.5838" lon="-3.90657">
        <ele>87.9</ele>
        <time>2020-06-10T11:14:46Z</time>
      </trkpt>
      <trkpt lat="48.58378" lon="-3.90654">
        <ele>88.1</ele>
        <time>2020-06-10T11:14:47Z</time>
      </trkpt>
      <trkpt lat="48.58376" lon="-3.9065">
        <ele>88.3</ele>
        <time>2020-06-10T11:14:48Z</time>
      </trkpt>
      <trkpt lat="48.58374" lon="-3.90646">
        <ele>88.5</ele>
        <time>2020-06-10T11:14:49Z</time>
      </trkpt>
      <trkpt lat="48.58372" lon="-3.90642">
        <ele>88.7</ele>
        <time>2020-06-10T11:14:50Z</time>
      </trkpt>
      <trkpt lat="48.5837" lon="-3.90636">
        <ele>89</ele>
        <time>2020-06-10T11:14:51Z</time>
      </trkpt>
      <trkpt lat="48.58368" lon="-3.90632">
        <ele>89.2</ele>
        <time>2020-06-10T11:14:52Z</time>
      </trkpt>
      <trkpt lat="48.58365" lon="-3.90628">
        <ele>89.5</ele>
        <time>2020-06-10T11:14:53Z</time>
      </trkpt>
      <trkpt lat="48.58365" lon="-3.90627">
        <ele>89.5</ele>
        <time>2020-06-10T11:14:54Z</time>
      </trkpt>
      <trkpt lat="48.58363" lon="-3.90624">
        <ele>89.7</ele>
        <time>2020-06-10T11:14:55Z</time>
      </trkpt>
      <trkpt lat="48.5836" lon="-3.90621">
        <ele>89.9</ele>
        <time>2020-06-10T11:14:56Z</time>
      </trkpt>
      <trkpt lat="48.58358" lon="-3.90619">
        <ele>90.1</ele>
        <time>2020-06-10T11:14:57Z</time>
      </trkpt>
      <trkpt lat="48.58356" lon="-3.90616">
        <ele>90.2</ele>
        <time>2020-06-10T11:14:58Z</time>
      </trkpt>
      <trkpt lat="48.58353" lon="-3.90613">
        <ele>90.4</ele>
        <time>2020-06-10T11:14:59Z</time>
      </trkpt>
      <trkpt lat="48.58351" lon="-3.9061">
        <ele>90.6</ele>
        <time>2020-06-10T11:15:00Z</time>
      </trkpt>
      <trkpt lat="48.58349" lon="-3.90607">
        <ele>90.7</ele>
        <time>2020-06-10T11:15:01Z</time>
      </trkpt>
      <trkpt lat="48.58347" lon="-3.90604">
        <ele>90.9</ele>
        <time>2020-06-10T11:15:02Z</time>
      </trkpt>
      <trkpt lat="48.58345" lon="-3.906">
        <ele>91.1</ele>
        <time>2020-06-10T11:15:03Z</time>
      </trkpt>
      <trkpt lat="48.58344" lon="-3.90598">
        <ele>91.2</ele>
        <time>2020-06-10T11:15:04Z</time>
      </trkpt>
      <trkpt lat="48.58342" lon="-3.90595">
        <ele>91.4</ele>
        <time>2020-06-10T11:15:05Z</time>
      </trkpt>
      <trkpt lat="48.58341" lon="-3.90591">
        <ele>91.6</ele>
        <time>2020-06-10T11:15:06Z</time>
      </trkpt>
      <trkpt lat="48.58339" lon="-3.90587">
        <ele>91.7</ele>
        <time>2020-06-10T11:15:07Z</time>
      </trkpt>
      <trkpt lat="48.58337" lon="-3.90584">
        <ele>91.9</ele>
        <time>2020-06-10T11:15:08Z</time>
      </trkpt>
      <trkpt lat="48.58334" lon="-3.90582">
        <ele>92</ele>
        <time>2020-06-10T11:15:09Z</time>
      </trkpt>
      <trkpt lat="48.58332" lon="-3.90578">
        <ele>92.2</ele>
        <time>2020-06-10T11:15:10Z</time>
      </trkpt>
      <trkpt lat="48.58331" lon="-3.90576">
        <ele>92.3</ele>
        <time>2020-06-10T11:15:11Z</time>
      </trkpt>
      <trkpt lat="48.58328" lon="-3.90572">
        <ele>92.5</ele>
        <time>2020-06-10T11:15:12Z</time>
      </trkpt>
      <trkpt lat="48.58327" lon="-3.9057">
        <ele>92.6</ele>
        <time>2020-06-10T11:15:13Z</time>
      </trkpt>
      <trkpt lat="48.58325" lon="-3.90567">
        <ele>92.7</ele>
        <time>2020-06-10T11:15:14Z</time>
      </trkpt>
      <trkpt lat="48.58323" lon="-3.90564">
        <ele>92.9</ele>
        <time>2020-06-10T11:15:15Z</time>
      </trkpt>
      <trkpt lat="48.58319" lon="-3.90561">
        <ele>93.1</ele>
        <time>2020-06-10T11:15:16Z</time>
      </trkpt>
      <trkpt lat="48.58317" lon="-3.9056">
        <ele>93.2</ele>
        <time>2020-06-10T11:15:17Z</time>
      </trkpt>
      <trkpt lat="48.58314" lon="-3.90558">
        <ele>93.3</ele>
        <time>2020-06-10T11:15:18Z</time>
      </trkpt>
      <trkpt lat="48.58311" lon="-3.90555">
        <ele>93.5</ele>
        <time>2020-06-10T11:15:19Z</time>
      </trkpt>
      <trkpt lat="48.58308" lon="-3.90552">
        <ele>93.6</ele>
        <time>2020-06-10T11:15:20Z</time>
      </trkpt>
      <trkpt lat="48.58306" lon="-3.90546">
        <ele>93.8</ele>
        <time>2020-06-10T11:15:21Z</time>
      </trkpt>
      <trkpt lat="48.58306" lon="-3.90545">
        <ele>93.9</ele>
        <time>2020-06-10T11:15:22Z</time>
      </trkpt>
      <trkpt lat="48.58303" lon="-3.90541">
        <ele>94</ele>
        <time>2020-06-10T11:15:23Z</time>
      </trkpt>
      <trkpt lat="48.58302" lon="-3.90538">
        <ele>94.2</ele>
        <time>2020-06-10T11:15:24Z</time>
      </trkpt>
      <trkpt lat="48.583" lon="-3.90534">
        <ele>94.3</ele>
        <time>2020-06-10T11:15:25Z</time>
      </trkpt>
      <trkpt lat="48.58298" lon="-3.90531">
        <ele>94.4</ele>
        <time>2020-06-10T11:15:26Z</time>
      </trkpt>
      <trkpt lat="48.58295" lon="-3.90527">
        <ele>94.6</ele>
        <time>2020-06-10T11:15:27Z</time>
      </trkpt>
      <trkpt lat="48.58294" lon="-3.90526">
        <ele>94.7</ele>
        <time>2020-06-10T11:15:28Z</time>
      </trkpt>
      <trkpt lat="48.58292" lon="-3.90522">
        <ele>94.8</ele>
        <time>2020-06-10T11:15:29Z</time>
      </trkpt>
      <trkpt lat="48.58291" lon="-3.90519">
        <ele>94.9</ele>
        <time>2020-06-10T11:15:30Z</time>
      </trkpt>
      <trkpt lat="48.58287" lon="-3.90515">
        <ele>95.1</ele>
        <time>2020-06-10T11:15:31Z</time>
      </trkpt>
      <trkpt lat="48.58285" lon="-3.90511">
        <ele>95.3</ele>
        <time>2020-06-10T11:15:32Z</time>
      </trkpt>
      <trkpt lat="48.58284" lon="-3.90507">
        <ele>95.4</ele>
        <time>2020-06-10T11:15:33Z</time>
      </trkpt>
      <trkpt lat="48.58281" lon="-3.90503">
        <ele>95.6</ele>
        <time>2020-06-10T11:15:34Z</time>
      </trkpt>
      <trkpt lat="48.58279" lon="-3.905">
        <ele>95.7</ele>
        <time>2020-06-10T11:15:35Z</time>
      </trkpt>
      <trkpt lat="48.58278" lon="-3.90494">
        <ele>95.9</ele>
        <time>2020-06-10T11:15:36Z</time>
      </trkpt>
      <trkpt lat="48.58276" lon="-3.90491">
        <ele>96</ele>
        <time>2020-06-10T11:15:37Z</time>
      </trkpt>
      <trkpt lat="48.58273" lon="-3.90488">
        <ele>96.1</ele>
        <time>2020-06-10T11:15:38Z</time>
      </trkpt>
      <trkpt lat="48.58271" lon="-3.90485">
        <ele>96.3</ele>
        <time>2020-06-10T11:15:39Z</time>
      </trkpt>
      <trkpt lat="48.58269" lon="-3.90481">
        <ele>96.4</ele>
        <time>2020-06-10T11:15:40Z</time>
      </trkpt>
      <trkpt lat="48.58267" lon="-3.90477">
        <ele>96.6</ele>
        <time>2020-06-10T11:15:41Z</time>
      </trkpt>
      <trkpt lat="48.58264" lon="-3.90473">
        <ele>96.8</ele>
        <time>2020-06-10T11:15:42Z</time>
      </trkpt>
      <trkpt lat="48.58263" lon="-3.90472">
        <ele>96.8</ele>
        <time>2020-06-10T11:15:43Z</time>
      </trkpt>
      <trkpt lat="48.58261" lon="-3.90469">
        <ele>97</ele>
        <time>2020-06-10T11:15:44Z</time>
      </trkpt>
      <trkpt lat="48.58259" lon="-3.90465">
        <ele>97.1</ele>
        <time>2020-06-10T11:15:45Z</time>
      </trkpt>
      <trkpt lat="48.58257" lon="-3.90461">
        <ele>97.3</ele>
        <time>2020-06-10T11:15:46Z</time>
      </trkpt>
      <trkpt lat="48.58255" lon="-3.90456">
        <ele>97.5</ele>
        <time>2020-06-10T11:15:47Z</time>
      </trkpt>
      <trkpt lat="48.58253" lon="-3.90453">
        <ele>97.6</ele>
        <time>2020-06-10T11:15:48Z</time>
      </trkpt>
      <trkpt lat="48.5825" lon="-3.90449">
        <ele>97.7</ele>
        <time>2020-06-10T11:15:49Z</time>
      </trkpt>
      <trkpt lat="48.58249" lon="-3.90445">
        <ele>97.9</ele>
        <time>2020-06-10T11:15:50Z</time>
      </trkpt>
      <trkpt lat="48.58247" lon="-3.90442">
        <ele>98</ele>
        <time>2020-06-10T11:15:51Z</time>
      </trkpt>
      <trkpt lat="48.58244" lon="-3.90436">
        <ele>98.2</ele>
        <time>2020-06-10T11:15:52Z</time>
      </trkpt>
      <trkpt lat="48.58242" lon="-3.90432">
        <ele>98.3</ele>
        <time>2020-06-10T11:15:53Z</time>
      </trkpt>
      <trkpt lat="48.5824" lon="-3.90428">
        <ele>98.4</ele>
        <time>2020-06-10T11:15:54Z</time>
      </trkpt>
      <trkpt lat="48.58237" lon="-3.90426">
        <ele>98.5</ele>
        <time>2020-06-10T11:15:55Z</time>
      </trkpt>
      <trkpt lat="48.58236" lon="-3.90419">
        <ele>98.7</ele>
        <time>2020-06-10T11:15:56Z</time>
      </trkpt>
      <trkpt lat="48.58234" lon="-3.90415">
        <ele>98.8</ele>
        <time>2020-06-10T11:15:57Z</time>
      </trkpt>
      <trkpt lat="48.58232" lon="-3.90411">
        <ele>99</ele>
        <time>2020-06-10T11:15:58Z</time>
      </trkpt>
      <trkpt lat="48.5823" lon="-3.90406">
        <ele>99.1</ele>
        <time>2020-06-10T11:15:59Z</time>
      </trkpt>
      <trkpt lat="48.58228" lon="-3.90401">
        <ele>99.2</ele>
        <time>2020-06-10T11:16:00Z</time>
      </trkpt>
      <trkpt lat="48.58227" lon="-3.90396">
        <ele>99.3</ele>
        <time>2020-06-10T11:16:01Z</time>
      </trkpt>
      <trkpt lat="48.58225" lon="-3.90391">
        <ele>99.5</ele>
        <time>2020-06-10T11:16:02Z</time>
      </trkpt>
      <trkpt lat="48.58222" lon="-3.90387">
        <ele>99.6</ele>
        <time>2020-06-10T11:16:03Z</time>
      </trkpt>
      <trkpt lat="48.5822" lon="-3.90381">
        <ele>99.7</ele>
        <time>2020-06-10T11:16:04Z</time>
      </trkpt>
      <trkpt lat="48.58219" lon="-3.90377">
        <ele>99.8</ele>
        <time>2020-06-10T11:16:05Z</time>
      </trkpt>
      <trkpt lat="48.58216" lon="-3.90374">
        <ele>99.9</ele>
        <time>2020-06-10T11:16:06Z</time>
      </trkpt>
      <trkpt lat="48.58215" lon="-3.90369">
        <ele>99.9</ele>
        <time>2020-06-10T11:16:07Z</time>
      </trkpt>
      <trkpt lat="48.58213" lon="-3.90365">
        <ele>100</ele>
        <time>2020-06-10T11:16:08Z</time>
      </trkpt>
      <trkpt lat="48.58211" lon="-3.9036">
        <ele>100.1</ele>
        <time>2020-06-10T11:16:09Z</time>
      </trkpt>
      <trkpt lat="48.58209" lon="-3.90357">
        <ele>100.1</ele>
        <time>2020-06-10T11:16:10Z</time>
      </trkpt>
      <trkpt lat="48.58208" lon="-3.90353">
        <ele>100.1</ele>
        <time>2020-06-10T11:16:11Z</time>
      </trkpt>
      <trkpt lat="48.58206" lon="-3.9035">
        <ele>100.1</ele>
        <time>2020-06-10T11:16:12Z</time>
      </trkpt>
      <trkpt lat="48.58204" lon="-3.90345">
        <ele>100.1</ele>
        <time>2020-06-10T11:16:13Z</time>
      </trkpt>
      <trkpt lat="48.58204" lon="-3.90344">
        <ele>100.1</ele>
        <time>2020-06-10T11:16:14Z</time>
      </trkpt>
      <trkpt lat="48.58202" lon="-3.9034">
        <ele>100.1</ele>
        <time>2020-06-10T11:16:15Z</time>
      </trkpt>
      <trkpt lat="48.58202" lon="-3.90339">
        <ele>100.2</ele>
        <time>2020-06-10T11:16:16Z</time>
      </trkpt>
      <trkpt lat="48.58202" lon="-3.90338">
        <ele>100.2</ele>
        <time>2020-06-10T11:16:17Z</time>
      </trkpt>
      <trkpt lat="48.58203" lon="-3.90338">
        <ele>100.2</ele>
        <time>2020-06-10T11:16:18Z</time>
      </trkpt>
      <trkpt lat="48.58203" lon="-3.90338">
        <ele>100.2</ele>
        <time>2020-06-10T11:16:19Z</time>
      </trkpt>
      <trkpt lat="48.58204" lon="-3.90339">
        <ele>100.2</ele>
        <time>2020-06-10T11:16:20Z</time>
      </trkpt>
      <trkpt lat="48.58204" lon="-3.90339">
        <ele>100.2</ele>
        <time>2020-06-10T11:16:21Z</time>
      </trkpt>
      <trkpt lat="48.58204" lon="-3.90339">
        <ele>100.2</ele>
        <time>2020-06-10T11:16:22Z</time>
      </trkpt>
      <trkpt lat="48.58205" lon="-3.9034">
        <ele>100.2</ele>
        <time>2020-06-10T11:16:23Z</time>
      </trkpt>
      <trkpt lat="48.58205" lon="-3.9034">
        <ele>100.2</ele>
        <time>2020-06-10T11:16:24Z</time>
      </trkpt>
      <trkpt lat="48.58205" lon="-3.9034">
        <ele>100.2</ele>
        <time>2020-06-10T11:16:25Z</time>
      </trkpt>
      <trkpt lat="48.58204" lon="-3.90336">
        <ele>100.2</ele>
        <time>2020-06-10T11:16:26Z</time>
      </trkpt>
      <trkpt lat="48.58203" lon="-3.90332">
        <ele>100.3</ele>
        <time>2020-06-10T11:16:27Z</time>
      </trkpt>
      <trkpt lat="48.58201" lon="-3.90328">
        <ele>100.3</ele>
        <time>2020-06-10T11:16:28Z</time>
      </trkpt>
      <trkpt lat="48.582" lon="-3.90324">
        <ele>100.3</ele>
        <time>2020-06-10T11:19:33Z</time>
      </trkpt>
      <trkpt lat="48.58199" lon="-3.9032">
        <ele>100.3</ele>
        <time>2020-06-10T11:19:34Z</time>
      </trkpt>
      <trkpt lat="48.58198" lon="-3.90316">
        <ele>100.3</ele>
        <time>2020-06-10T11:19:35Z</time>
      </trkpt>
      <trkpt lat="48.58198" lon="-3.90312">
        <ele>100.3</ele>
        <time>2020-06-10T11:19:36Z</time>
      </trkpt>
      <trkpt lat="48.58197" lon="-3.90307">
        <ele>100.3</ele>
        <time>2020-06-10T11:19:37Z</time>
      </trkpt>
      <trkpt lat="48.58196" lon="-3.90302">
        <ele>100.3</ele>
        <time>2020-06-10T11:19:38Z</time>
      </trkpt>
      <trkpt lat="48.58195" lon="-3.90297">
        <ele>100.4</ele>
        <time>2020-06-10T11:19:39Z</time>
      </trkpt>
      <trkpt lat="48.58193" lon="-3.90293">
        <ele>100.4</ele>
        <time>2020-06-10T11:19:40Z</time>
      </trkpt>
      <trkpt lat="48.58192" lon="-3.90287">
        <ele>100.4</ele>
        <time>2020-06-10T11:19:41Z</time>
      </trkpt>
      <trkpt lat="48.58191" lon="-3.90282">
        <ele>100.3</ele>
        <time>2020-06-10T11:19:42Z</time>
      </trkpt>
      <trkpt lat="48.5819" lon="-3.90276">
        <ele>100.3</ele>
        <time>2020-06-10T11:19:43Z</time>
      </trkpt>
      <trkpt lat="48.58189" lon="-3.90271">
        <ele>100.3</ele>
        <time>2020-06-10T11:19:44Z</time>
      </trkpt>
      <trkpt lat="48.58188" lon="-3.90264">
        <ele>100.3</ele>
        <time>2020-06-10T11:19:45Z</time>
      </trkpt>
      <trkpt lat="48.58186" lon="-3.90257">
        <ele>100.3</ele>
        <time>2020-06-10T11:19:46Z</time>
      </trkpt>
      <trkpt lat="48.58185" lon="-3.90251">
        <ele>100.2</ele>
        <time>2020-06-10T11:19:47Z</time>
      </trkpt>
      <trkpt lat="48.58184" lon="-3.90245">
        <ele>100.2</ele>
        <time>2020-06-10T11:19:48Z</time>
      </trkpt>
      <trkpt lat="48.58182" lon="-3.90239">
        <ele>100.2</ele>
        <time>2020-06-10T11:19:49Z</time>
      </trkpt>
      <trkpt lat="48.5818" lon="-3.90233">
        <ele>100.2</ele>
        <time>2020-06-10T11:19:50Z</time>
      </trkpt>
      <trkpt lat="48.58179" lon="-3.90226">
        <ele>100.1</ele>
        <time>2020-06-10T11:19:51Z</time>
      </trkpt>
      <trkpt lat="48.58178" lon="-3.90218">
        <ele>100.1</ele>
        <time>2020-06-10T11:19:52Z</time>
      </trkpt>
      <trkpt lat="48.58176" lon="-3.90211">
        <ele>100</ele>
        <time>2020-06-10T11:19:53Z</time>
      </trkpt>
      <trkpt lat="48.58175" lon="-3.90203">
        <ele>99.9</ele>
        <time>2020-06-10T11:19:54Z</time>
      </trkpt>
      <trkpt lat="48.58174" lon="-3.90196">
        <ele>99.8</ele>
        <time>2020-06-10T11:19:55Z</time>
      </trkpt>
      <trkpt lat="48.58172" lon="-3.90187">
        <ele>99.7</ele>
        <time>2020-06-10T11:19:56Z</time>
      </trkpt>
      <trkpt lat="48.58169" lon="-3.90179">
        <ele>99.6</ele>
        <time>2020-06-10T11:19:57Z</time>
      </trkpt>
      <trkpt lat="48.58167" lon="-3.90172">
        <ele>99.5</ele>
        <time>2020-06-10T11:19:58Z</time>
      </trkpt>
      <trkpt lat="48.58165" lon="-3.90164">
        <ele>99.4</ele>
        <time>2020-06-10T11:19:59Z</time>
      </trkpt>
      <trkpt lat="48.58163" lon="-3.90155">
        <ele>99.3</ele>
        <time>2020-06-10T11:20:00Z</time>
      </trkpt>
      <trkpt lat="48.58162" lon="-3.90147">
        <ele>99.1</ele>
        <time>2020-06-10T11:20:01Z</time>
      </trkpt>
      <trkpt lat="48.58161" lon="-3.90139">
        <ele>99</ele>
        <time>2020-06-10T11:20:02Z</time>
      </trkpt>
      <trkpt lat="48.58159" lon="-3.9013">
        <ele>98.9</ele>
        <time>2020-06-10T11:20:03Z</time>
      </trkpt>
      <trkpt lat="48.58158" lon="-3.90121">
        <ele>98.7</ele>
        <time>2020-06-10T11:20:04Z</time>
      </trkpt>
      <trkpt lat="48.58156" lon="-3.90112">
        <ele>98.6</ele>
        <time>2020-06-10T11:20:05Z</time>
      </trkpt>
      <trkpt lat="48.58154" lon="-3.90103">
        <ele>98.5</ele>
        <time>2020-06-10T11:20:06Z</time>
      </trkpt>
      <trkpt lat="48.58152" lon="-3.90092">
        <ele>98.3</ele>
        <time>2020-06-10T11:20:07Z</time>
      </trkpt>
      <trkpt lat="48.5815" lon="-3.9008">
        <ele>98.2</ele>
        <time>2020-06-10T11:20:08Z</time>
      </trkpt>
      <trkpt lat="48.58148" lon="-3.90071">
        <ele>98.1</ele>
        <time>2020-06-10T11:20:09Z</time>
      </trkpt>
      <trkpt lat="48.58146" lon="-3.90063">
        <ele>98</ele>
        <time>2020-06-10T11:20:10Z</time>
      </trkpt>
      <trkpt lat="48.58144" lon="-3.90054">
        <ele>98</ele>
        <time>2020-06-10T11:20:11Z</time>
      </trkpt>
      <trkpt lat="48.58141" lon="-3.90044">
        <ele>97.9</ele>
        <time>2020-06-10T11:20:12Z</time>
      </trkpt>
      <trkpt lat="48.5814" lon="-3.90034">
        <ele>97.8</ele>
        <time>2020-06-10T11:20:13Z</time>
      </trkpt>
      <trkpt lat="48.58138" lon="-3.90025">
        <ele>97.8</ele>
        <time>2020-06-10T11:20:14Z</time>
      </trkpt>
      <trkpt lat="48.58135" lon="-3.90014">
        <ele>97.6</ele>
        <time>2020-06-10T11:20:15Z</time>
      </trkpt>
      <trkpt lat="48.58132" lon="-3.90001">
        <ele>97.4</ele>
        <time>2020-06-10T11:20:16Z</time>
      </trkpt>
      <trkpt lat="48.5813" lon="-3.89991">
        <ele>97.3</ele>
        <time>2020-06-10T11:20:17Z</time>
      </trkpt>
      <trkpt lat="48.58128" lon="-3.89983">
        <ele>97.2</ele>
        <time>2020-06-10T11:20:18Z</time>
      </trkpt>
      <trkpt lat="48.58125" lon="-3.89974">
        <ele>97.2</ele>
        <time>2020-06-10T11:20:19Z</time>
      </trkpt>
      <trkpt lat="48.58123" lon="-3.89966">
        <ele>97.1</ele>
        <time>2020-06-10T11:20:20Z</time>
      </trkpt>
      <trkpt lat="48.58119" lon="-3.89958">
        <ele>97.1</ele>
        <time>2020-06-10T11:20:21Z</time>
      </trkpt>
      <trkpt lat="48.58117" lon="-3.89949">
        <ele>97</ele>
        <time>2020-06-10T11:20:22Z</time>
      </trkpt>
      <trkpt lat="48.58115" lon="-3.89939">
        <ele>97</ele>
        <time>2020-06-10T11:20:23Z</time>
      </trkpt>
      <trkpt lat="48.58113" lon="-3.8993">
        <ele>96.9</ele>
        <time>2020-06-10T11:20:24Z</time>
      </trkpt>
      <trkpt lat="48.58111" lon="-3.89919">
        <ele>96.8</ele>
        <time>2020-06-10T11:20:25Z</time>
      </trkpt>
      <trkpt lat="48.58109" lon="-3.8991">
        <ele>96.7</ele>
        <time>2020-06-10T11:20:26Z</time>
      </trkpt>
      <trkpt lat="48.58107" lon="-3.89901">
        <ele>96.7</ele>
        <time>2020-06-10T11:20:27Z</time>
      </trkpt>
      <trkpt lat="48.58105" lon="-3.89892">
        <ele>96.6</ele>
        <time>2020-06-10T11:20:28Z</time>
      </trkpt>
      <trkpt lat="48.58102" lon="-3.89883">
        <ele>96.6</ele>
        <time>2020-06-10T11:20:29Z</time>
      </trkpt>
      <trkpt lat="48.581" lon="-3.89873">
        <ele>96.6</ele>
        <time>2020-06-10T11:20:30Z</time>
      </trkpt>
      <trkpt lat="48.58097" lon="-3.89862">
        <ele>96.5</ele>
        <time>2020-06-10T11:20:31Z</time>
      </trkpt>
      <trkpt lat="48.58095" lon="-3.89853">
        <ele>96.5</ele>
        <time>2020-06-10T11:20:32Z</time>
      </trkpt>
      <trkpt lat="48.58093" lon="-3.89844">
        <ele>96.5</ele>
        <time>2020-06-10T11:20:33Z</time>
      </trkpt>
      <trkpt lat="48.58091" lon="-3.89835">
        <ele>96.4</ele>
        <time>2020-06-10T11:20:34Z</time>
      </trkpt>
      <trkpt lat="48.58089" lon="-3.89826">
        <ele>96.4</ele>
        <time>2020-06-10T11:20:35Z</time>
      </trkpt>
      <trkpt lat="48.58087" lon="-3.89816">
        <ele>96.4</ele>
        <time>2020-06-10T11:20:36Z</time>
      </trkpt>
      <trkpt lat="48.58085" lon="-3.89806">
        <ele>96.3</ele>
        <time>2020-06-10T11:20:37Z</time>
      </trkpt>
      <trkpt lat="48.58083" lon="-3.89796">
        <ele>96.3</ele>
        <time>2020-06-10T11:20:38Z</time>
      </trkpt>
      <trkpt lat="48.58081" lon="-3.89787">
        <ele>96.3</ele>
        <time>2020-06-10T11:20:39Z</time>
      </trkpt>
      <trkpt lat="48.58079" lon="-3.89777">
        <ele>96.3</ele>
        <time>2020-06-10T11:20:40Z</time>
      </trkpt>
      <trkpt lat="48.58077" lon="-3.89768">
        <ele>96.3</ele>
        <time>2020-06-10T11:20:41Z</time>
      </trkpt>
      <trkpt lat="48.58075" lon="-3.89758">
        <ele>96.2</ele>
        <time>2020-06-10T11:20:42Z</time>
      </trkpt>
      <trkpt lat="48.58073" lon="-3.89749">
        <ele>96.2</ele>
        <time>2020-06-10T11:20:43Z</time>
      </trkpt>
      <trkpt lat="48.58071" lon="-3.89738">
        <ele>96.2</ele>
        <time>2020-06-10T11:20:44Z</time>
      </trkpt>
      <trkpt lat="48.58069" lon="-3.89728">
        <ele>96.1</ele>
        <time>2020-06-10T11:20:45Z</time>
      </trkpt>
      <trkpt lat="48.58067" lon="-3.89719">
        <ele>96.1</ele>
        <time>2020-06-10T11:20:46Z</time>
      </trkpt>
      <trkpt lat="48.58066" lon="-3.89709">
        <ele>96.1</ele>
        <time>2020-06-10T11:20:47Z</time>
      </trkpt>
      <trkpt lat="48.58066" lon="-3.89698">
        <ele>96.1</ele>
        <time>2020-06-10T11:20:48Z</time>
      </trkpt>
      <trkpt lat="48.58065" lon="-3.89687">
        <ele>96.1</ele>
        <time>2020-06-10T11:20:49Z</time>
      </trkpt>
      <trkpt lat="48.58064" lon="-3.89676">
        <ele>96</ele>
        <time>2020-06-10T11:20:50Z</time>
      </trkpt>
      <trkpt lat="48.58063" lon="-3.89665">
        <ele>96</ele>
        <time>2020-06-10T11:20:51Z</time>
      </trkpt>
      <trkpt lat="48.58062" lon="-3.89654">
        <ele>96</ele>
        <time>2020-06-10T11:20:52Z</time>
      </trkpt>
      <trkpt lat="48.58062" lon="-3.89645">
        <ele>96</ele>
        <time>2020-06-10T11:20:53Z</time>
      </trkpt>
      <trkpt lat="48.58062" lon="-3.89635">
        <ele>96</ele>
        <time>2020-06-10T11:20:54Z</time>
      </trkpt>
      <trkpt lat="48.58063" lon="-3.89625">
        <ele>96</ele>
        <time>2020-06-10T11:20:55Z</time>
      </trkpt>
      <trkpt lat="48.58063" lon="-3.89616">
        <ele>96</ele>
        <time>2020-06-10T11:20:56Z</time>
      </trkpt>
      <trkpt lat="48.58063" lon="-3.89609">
        <ele>95.9</ele>
        <time>2020-06-10T11:20:57Z</time>
      </trkpt>
      <trkpt lat="48.58062" lon="-3.896">
        <ele>95.9</ele>
        <time>2020-06-10T11:20:58Z</time>
      </trkpt>
      <trkpt lat="48.58061" lon="-3.89591">
        <ele>95.9</ele>
        <time>2020-06-10T11:20:59Z</time>
      </trkpt>
      <trkpt lat="48.58061" lon="-3.89581">
        <ele>95.8</ele>
        <time>2020-06-10T11:21:00Z</time>
      </trkpt>
      <trkpt lat="48.58061" lon="-3.89572">
        <ele>95.7</ele>
        <time>2020-06-10T11:21:01Z</time>
      </trkpt>
      <trkpt lat="48.5806" lon="-3.89563">
        <ele>95.7</ele>
        <time>2020-06-10T11:21:02Z</time>
      </trkpt>
      <trkpt lat="48.58059" lon="-3.89554">
        <ele>95.6</ele>
        <time>2020-06-10T11:21:03Z</time>
      </trkpt>
      <trkpt lat="48.58058" lon="-3.89544">
        <ele>95.5</ele>
        <time>2020-06-10T11:21:04Z</time>
      </trkpt>
      <trkpt lat="48.58058" lon="-3.89533">
        <ele>95.3</ele>
        <time>2020-06-10T11:21:05Z</time>
      </trkpt>
      <trkpt lat="48.58059" lon="-3.89522">
        <ele>95.1</ele>
        <time>2020-06-10T11:21:06Z</time>
      </trkpt>
      <trkpt lat="48.58058" lon="-3.89512">
        <ele>94.9</ele>
        <time>2020-06-10T11:21:07Z</time>
      </trkpt>
      <trkpt lat="48.58058" lon="-3.89502">
        <ele>94.7</ele>
        <time>2020-06-10T11:21:08Z</time>
      </trkpt>
      <trkpt lat="48.58058" lon="-3.89491">
        <ele>94.4</ele>
        <time>2020-06-10T11:21:09Z</time>
      </trkpt>
      <trkpt lat="48.58057" lon="-3.8948">
        <ele>94.2</ele>
        <time>2020-06-10T11:21:10Z</time>
      </trkpt>
      <trkpt lat="48.58057" lon="-3.89469">
        <ele>94</ele>
        <time>2020-06-10T11:21:11Z</time>
      </trkpt>
      <trkpt lat="48.58057" lon="-3.89457">
        <ele>93.8</ele>
        <time>2020-06-10T11:21:12Z</time>
      </trkpt>
      <trkpt lat="48.58057" lon="-3.89446">
        <ele>93.6</ele>
        <time>2020-06-10T11:21:13Z</time>
      </trkpt>
      <trkpt lat="48.58056" lon="-3.89434">
        <ele>93.4</ele>
        <time>2020-06-10T11:21:14Z</time>
      </trkpt>
      <trkpt lat="48.58056" lon="-3.89422">
        <ele>93.3</ele>
        <time>2020-06-10T11:21:15Z</time>
      </trkpt>
      <trkpt lat="48.58055" lon="-3.89409">
        <ele>93.1</ele>
        <time>2020-06-10T11:21:16Z</time>
      </trkpt>
      <trkpt lat="48.58055" lon="-3.89397">
        <ele>92.9</ele>
        <time>2020-06-10T11:21:17Z</time>
      </trkpt>
      <trkpt lat="48.58054" lon="-3.89385">
        <ele>92.7</ele>
        <time>2020-06-10T11:21:18Z</time>
      </trkpt>
      <trkpt lat="48.58054" lon="-3.89372">
        <ele>92.5</ele>
        <time>2020-06-10T11:21:19Z</time>
      </trkpt>
      <trkpt lat="48.58053" lon="-3.89359">
        <ele>92.3</ele>
        <time>2020-06-10T11:21:20Z</time>
      </trkpt>
      <trkpt lat="48.58053" lon="-3.89346">
        <ele>92.1</ele>
        <time>2020-06-10T11:21:21Z</time>
      </trkpt>
      <trkpt lat="48.58052" lon="-3.89333">
        <ele>91.9</ele>
        <time>2020-06-10T11:21:22Z</time>
      </trkpt>
      <trkpt lat="48.58052" lon="-3.8932">
        <ele>91.7</ele>
        <time>2020-06-10T11:21:23Z</time>
      </trkpt>
      <trkpt lat="48.58051" lon="-3.89306">
        <ele>91.5</ele>
        <time>2020-06-10T11:21:24Z</time>
      </trkpt>
      <trkpt lat="48.5805" lon="-3.89293">
        <ele>91.3</ele>
        <time>2020-06-10T11:21:25Z</time>
      </trkpt>
      <trkpt lat="48.5805" lon="-3.89279">
        <ele>91.2</ele>
        <time>2020-06-10T11:21:26Z</time>
      </trkpt>
      <trkpt lat="48.58049" lon="-3.89265">
        <ele>91.1</ele>
        <time>2020-06-10T11:21:27Z</time>
      </trkpt>
      <trkpt lat="48.58048" lon="-3.89252">
        <ele>90.9</ele>
        <time>2020-06-10T11:21:28Z</time>
      </trkpt>
      <trkpt lat="48.58048" lon="-3.89239">
        <ele>90.8</ele>
        <time>2020-06-10T11:21:29Z</time>
      </trkpt>
      <trkpt lat="48.58046" lon="-3.89226">
        <ele>90.7</ele>
        <time>2020-06-10T11:21:30Z</time>
      </trkpt>
      <trkpt lat="48.58045" lon="-3.89213">
        <ele>90.7</ele>
        <time>2020-06-10T11:21:31Z</time>
      </trkpt>
      <trkpt lat="48.58044" lon="-3.89201">
        <ele>90.6</ele>
        <time>2020-06-10T11:21:32Z</time>
      </trkpt>
      <trkpt lat="48.58044" lon="-3.89189">
        <ele>90.6</ele>
        <time>2020-06-10T11:21:33Z</time>
      </trkpt>
      <trkpt lat="48.58043" lon="-3.89176">
        <ele>90.6</ele>
        <time>2020-06-10T11:21:34Z</time>
      </trkpt>
      <trkpt lat="48.58043" lon="-3.89163">
        <ele>90.6</ele>
        <time>2020-06-10T11:21:35Z</time>
      </trkpt>
      <trkpt lat="48.58042" lon="-3.8915">
        <ele>90.6</ele>
        <time>2020-06-10T11:21:36Z</time>
      </trkpt>
      <trkpt lat="48.58041" lon="-3.89137">
        <ele>90.7</ele>
        <time>2020-06-10T11:21:37Z</time>
      </trkpt>
      <trkpt lat="48.58039" lon="-3.89126">
        <ele>90.7</ele>
        <time>2020-06-10T11:21:38Z</time>
      </trkpt>
      <trkpt lat="48.58038" lon="-3.89114">
        <ele>90.7</ele>
        <time>2020-06-10T11:21:39Z</time>
      </trkpt>
      <trkpt lat="48.58038" lon="-3.89102">
        <ele>90.8</ele>
        <time>2020-06-10T11:21:40Z</time>
      </trkpt>
      <trkpt lat="48.58037" lon="-3.8909">
        <ele>90.8</ele>
        <time>2020-06-10T11:21:41Z</time>
      </trkpt>
      <trkpt lat="48.58037" lon="-3.89078">
        <ele>90.9</ele>
        <time>2020-06-10T11:21:42Z</time>
      </trkpt>
      <trkpt lat="48.58036" lon="-3.89066">
        <ele>90.9</ele>
        <time>2020-06-10T11:21:43Z</time>
      </trkpt>
      <trkpt lat="48.58035" lon="-3.89054">
        <ele>91</ele>
        <time>2020-06-10T11:21:44Z</time>
      </trkpt>
      <trkpt lat="48.58034" lon="-3.89043">
        <ele>91</ele>
        <time>2020-06-10T11:21:45Z</time>
      </trkpt>
      <trkpt lat="48.58033" lon="-3.89031">
        <ele>91.1</ele>
        <time>2020-06-10T11:21:46Z</time>
      </trkpt>
      <trkpt lat="48.58032" lon="-3.8902">
        <ele>91.1</ele>
        <time>2020-06-10T11:21:47Z</time>
      </trkpt>
      <trkpt lat="48.58031" lon="-3.89009">
        <ele>91.2</ele>
        <time>2020-06-10T11:21:48Z</time>
      </trkpt>
      <trkpt lat="48.58031" lon="-3.88998">
        <ele>91.3</ele>
        <time>2020-06-10T11:21:49Z</time>
      </trkpt>
      <trkpt lat="48.5803" lon="-3.88987">
        <ele>91.3</ele>
        <time>2020-06-10T11:21:50Z</time>
      </trkpt>
      <trkpt lat="48.58029" lon="-3.88976">
        <ele>91.4</ele>
        <time>2020-06-10T11:21:51Z</time>
      </trkpt>
      <trkpt lat="48.58028" lon="-3.88965">
        <ele>91.5</ele>
        <time>2020-06-10T11:21:52Z</time>
      </trkpt>
      <trkpt lat="48.58027" lon="-3.88954">
        <ele>91.5</ele>
        <time>2020-06-10T11:21:53Z</time>
      </trkpt>
      <trkpt lat="48.58026" lon="-3.88943">
        <ele>91.6</ele>
        <time>2020-06-10T11:21:54Z</time>
      </trkpt>
      <trkpt lat="48.58026" lon="-3.88932">
        <ele>91.7</ele>
        <time>2020-06-10T11:21:55Z</time>
      </trkpt>
      <trkpt lat="48.58025" lon="-3.88922">
        <ele>91.8</ele>
        <time>2020-06-10T11:21:56Z</time>
      </trkpt>
      <trkpt lat="48.58024" lon="-3.88911">
        <ele>91.8</ele>
        <time>2020-06-10T11:21:57Z</time>
      </trkpt>
      <trkpt lat="48.58024" lon="-3.88901">
        <ele>91.9</ele>
        <time>2020-06-10T11:21:58Z</time>
      </trkpt>
      <trkpt lat="48.58023" lon="-3.88891">
        <ele>91.9</ele>
        <time>2020-06-10T11:21:59Z</time>
      </trkpt>
      <trkpt lat="48.58022" lon="-3.88881">
        <ele>92</ele>
        <time>2020-06-10T11:22:00Z</time>
      </trkpt>
      <trkpt lat="48.58022" lon="-3.88871">
        <ele>92</ele>
        <time>2020-06-10T11:22:01Z</time>
      </trkpt>
      <trkpt lat="48.58021" lon="-3.88862">
        <ele>92.1</ele>
        <time>2020-06-10T11:22:02Z</time>
      </trkpt>
      <trkpt lat="48.5802" lon="-3.88853">
        <ele>92.2</ele>
        <time>2020-06-10T11:22:03Z</time>
      </trkpt>
      <trkpt lat="48.5802" lon="-3.88843">
        <ele>92.3</ele>
        <time>2020-06-10T11:22:04Z</time>
      </trkpt>
      <trkpt lat="48.58019" lon="-3.88834">
        <ele>92.4</ele>
        <time>2020-06-10T11:22:05Z</time>
      </trkpt>
      <trkpt lat="48.58017" lon="-3.88825">
        <ele>92.5</ele>
        <time>2020-06-10T11:22:06Z</time>
      </trkpt>
      <trkpt lat="48.58016" lon="-3.88815">
        <ele>92.6</ele>
        <time>2020-06-10T11:22:07Z</time>
      </trkpt>
      <trkpt lat="48.58014" lon="-3.88806">
        <ele>92.7</ele>
        <time>2020-06-10T11:22:08Z</time>
      </trkpt>
      <trkpt lat="48.58012" lon="-3.88796">
        <ele>92.8</ele>
        <time>2020-06-10T11:22:09Z</time>
      </trkpt>
      <trkpt lat="48.58009" lon="-3.88787">
        <ele>92.9</ele>
        <time>2020-06-10T11:22:10Z</time>
      </trkpt>
      <trkpt lat="48.58007" lon="-3.88778">
        <ele>92.7</ele>
        <time>2020-06-10T11:22:11Z</time>
      </trkpt>
      <trkpt lat="48.58004" lon="-3.8877">
        <ele>92.5</ele>
        <time>2020-06-10T11:22:12Z</time>
      </trkpt>
      <trkpt lat="48.58" lon="-3.88761">
        <ele>92.4</ele>
        <time>2020-06-10T11:22:13Z</time>
      </trkpt>
      <trkpt lat="48.57997" lon="-3.88753">
        <ele>92.3</ele>
        <time>2020-06-10T11:22:14Z</time>
      </trkpt>
      <trkpt lat="48.57993" lon="-3.88745">
        <ele>92.2</ele>
        <time>2020-06-10T11:22:15Z</time>
      </trkpt>
      <trkpt lat="48.57989" lon="-3.88736">
        <ele>92.2</ele>
        <time>2020-06-10T11:22:16Z</time>
      </trkpt>
      <trkpt lat="48.57986" lon="-3.88728">
        <ele>92.1</ele>
        <time>2020-06-10T11:22:17Z</time>
      </trkpt>
      <trkpt lat="48.57981" lon="-3.8872">
        <ele>92</ele>
        <time>2020-06-10T11:22:18Z</time>
      </trkpt>
      <trkpt lat="48.57976" lon="-3.88713">
        <ele>91.9</ele>
        <time>2020-06-10T11:22:19Z</time>
      </trkpt>
      <trkpt lat="48.57972" lon="-3.88705">
        <ele>91.8</ele>
        <time>2020-06-10T11:22:20Z</time>
      </trkpt>
      <trkpt lat="48.57967" lon="-3.88697">
        <ele>91.7</ele>
        <time>2020-06-10T11:22:21Z</time>
      </trkpt>
      <trkpt lat="48.57963" lon="-3.88689">
        <ele>91.6</ele>
        <time>2020-06-10T11:22:22Z</time>
      </trkpt>
      <trkpt lat="48.57958" lon="-3.88681">
        <ele>91.5</ele>
        <time>2020-06-10T11:22:23Z</time>
      </trkpt>
      <trkpt lat="48.57953" lon="-3.88672">
        <ele>91.4</ele>
        <time>2020-06-10T11:22:24Z</time>
      </trkpt>
      <trkpt lat="48.57949" lon="-3.88664">
        <ele>91.3</ele>
        <time>2020-06-10T11:22:25Z</time>
      </trkpt>
      <trkpt lat="48.57944" lon="-3.88656">
        <ele>91</ele>
        <time>2020-06-10T11:22:26Z</time>
      </trkpt>
      <trkpt lat="48.57939" lon="-3.88647">
        <ele>90.8</ele>
        <time>2020-06-10T11:22:27Z</time>
      </trkpt>
      <trkpt lat="48.57934" lon="-3.88639">
        <ele>90.5</ele>
        <time>2020-06-10T11:22:28Z</time>
      </trkpt>
      <trkpt lat="48.57929" lon="-3.8863">
        <ele>90.2</ele>
        <time>2020-06-10T11:22:29Z</time>
      </trkpt>
      <trkpt lat="48.57924" lon="-3.88621">
        <ele>89.8</ele>
        <time>2020-06-10T11:22:30Z</time>
      </trkpt>
      <trkpt lat="48.57919" lon="-3.88612">
        <ele>89.5</ele>
        <time>2020-06-10T11:22:31Z</time>
      </trkpt>
      <trkpt lat="48.57913" lon="-3.88602">
        <ele>89.2</ele>
        <time>2020-06-10T11:22:32Z</time>
      </trkpt>
      <trkpt lat="48.57908" lon="-3.88592">
        <ele>88.9</ele>
        <time>2020-06-10T11:22:33Z</time>
      </trkpt>
      <trkpt lat="48.57903" lon="-3.88583">
        <ele>88.5</ele>
        <time>2020-06-10T11:22:34Z</time>
      </trkpt>
      <trkpt lat="48.57897" lon="-3.88573">
        <ele>88.1</ele>
        <time>2020-06-10T11:22:35Z</time>
      </trkpt>
      <trkpt lat="48.57891" lon="-3.88563">
        <ele>87.7</ele>
        <time>2020-06-10T11:22:36Z</time>
      </trkpt>
      <trkpt lat="48.57886" lon="-3.88553">
        <ele>87.3</ele>
        <time>2020-06-10T11:22:37Z</time>
      </trkpt>
      <trkpt lat="48.5788" lon="-3.88542">
        <ele>87</ele>
        <time>2020-06-10T11:22:38Z</time>
      </trkpt>
      <trkpt lat="48.57875" lon="-3.88531">
        <ele>86.6</ele>
        <time>2020-06-10T11:22:39Z</time>
      </trkpt>
      <trkpt lat="48.57869" lon="-3.88519">
        <ele>86.2</ele>
        <time>2020-06-10T11:22:40Z</time>
      </trkpt>
      <trkpt lat="48.57864" lon="-3.88508">
        <ele>85.8</ele>
        <time>2020-06-10T11:22:41Z</time>
      </trkpt>
      <trkpt lat="48.5786" lon="-3.88496">
        <ele>85.3</ele>
        <time>2020-06-10T11:22:42Z</time>
      </trkpt>
      <trkpt lat="48.57856" lon="-3.88482">
        <ele>84.8</ele>
        <time>2020-06-10T11:22:43Z</time>
      </trkpt>
      <trkpt lat="48.57853" lon="-3.88468">
        <ele>84.3</ele>
        <time>2020-06-10T11:22:44Z</time>
      </trkpt>
      <trkpt lat="48.57851" lon="-3.88454">
        <ele>83.8</ele>
        <time>2020-06-10T11:22:45Z</time>
      </trkpt>
      <trkpt lat="48.57849" lon="-3.8844">
        <ele>83.3</ele>
        <time>2020-06-10T11:22:46Z</time>
      </trkpt>
      <trkpt lat="48.57849" lon="-3.88426">
        <ele>82.9</ele>
        <time>2020-06-10T11:22:47Z</time>
      </trkpt>
      <trkpt lat="48.57849" lon="-3.88411">
        <ele>82.5</ele>
        <time>2020-06-10T11:22:48Z</time>
      </trkpt>
      <trkpt lat="48.5785" lon="-3.88396">
        <ele>82</ele>
        <time>2020-06-10T11:22:49Z</time>
      </trkpt>
      <trkpt lat="48.57852" lon="-3.88381">
        <ele>81.4</ele>
        <time>2020-06-10T11:22:50Z</time>
      </trkpt>
      <trkpt lat="48.57854" lon="-3.88366">
        <ele>80.8</ele>
        <time>2020-06-10T11:22:51Z</time>
      </trkpt>
      <trkpt lat="48.57858" lon="-3.88353">
        <ele>80.3</ele>
        <time>2020-06-10T11:22:52Z</time>
      </trkpt>
      <trkpt lat="48.57863" lon="-3.8834">
        <ele>79.8</ele>
        <time>2020-06-10T11:22:53Z</time>
      </trkpt>
      <trkpt lat="48.57868" lon="-3.88329">
        <ele>79.3</ele>
        <time>2020-06-10T11:22:54Z</time>
      </trkpt>
      <trkpt lat="48.57874" lon="-3.88317">
        <ele>78.9</ele>
        <time>2020-06-10T11:22:55Z</time>
      </trkpt>
      <trkpt lat="48.5788" lon="-3.88305">
        <ele>78.4</ele>
        <time>2020-06-10T11:22:56Z</time>
      </trkpt>
      <trkpt lat="48.57886" lon="-3.88293">
        <ele>77.9</ele>
        <time>2020-06-10T11:22:57Z</time>
      </trkpt>
      <trkpt lat="48.57892" lon="-3.88281">
        <ele>77.5</ele>
        <time>2020-06-10T11:22:58Z</time>
      </trkpt>
      <trkpt lat="48.57898" lon="-3.88269">
        <ele>77</ele>
        <time>2020-06-10T11:22:59Z</time>
      </trkpt>
      <trkpt lat="48.57904" lon="-3.88258">
        <ele>76.5</ele>
        <time>2020-06-10T11:23:00Z</time>
      </trkpt>
      <trkpt lat="48.5791" lon="-3.88247">
        <ele>76</ele>
        <time>2020-06-10T11:23:01Z</time>
      </trkpt>
      <trkpt lat="48.57917" lon="-3.88236">
        <ele>75.5</ele>
        <time>2020-06-10T11:23:02Z</time>
      </trkpt>
      <trkpt lat="48.57923" lon="-3.88224">
        <ele>75</ele>
        <time>2020-06-10T11:23:03Z</time>
      </trkpt>
      <trkpt lat="48.57928" lon="-3.88212">
        <ele>74.5</ele>
        <time>2020-06-10T11:23:04Z</time>
      </trkpt>
      <trkpt lat="48.57934" lon="-3.882">
        <ele>74</ele>
        <time>2020-06-10T11:23:05Z</time>
      </trkpt>
      <trkpt lat="48.57941" lon="-3.88189">
        <ele>73.5</ele>
        <time>2020-06-10T11:23:06Z</time>
      </trkpt>
      <trkpt lat="48.57947" lon="-3.88177">
        <ele>73</ele>
        <time>2020-06-10T11:23:07Z</time>
      </trkpt>
      <trkpt lat="48.57954" lon="-3.88165">
        <ele>72.5</ele>
        <time>2020-06-10T11:23:08Z</time>
      </trkpt>
      <trkpt lat="48.5796" lon="-3.88153">
        <ele>72</ele>
        <time>2020-06-10T11:23:09Z</time>
      </trkpt>
      <trkpt lat="48.57966" lon="-3.88141">
        <ele>71.6</ele>
        <time>2020-06-10T11:23:10Z</time>
      </trkpt>
      <trkpt lat="48.57972" lon="-3.88131">
        <ele>71.3</ele>
        <time>2020-06-10T11:23:11Z</time>
      </trkpt>
      <trkpt lat="48.57977" lon="-3.88122">
        <ele>71</ele>
        <time>2020-06-10T11:23:12Z</time>
      </trkpt>
      <trkpt lat="48.57982" lon="-3.88114">
        <ele>70.7</ele>
        <time>2020-06-10T11:23:13Z</time>
      </trkpt>
      <trkpt lat="48.57986" lon="-3.88105">
        <ele>70.5</ele>
        <time>2020-06-10T11:23:14Z</time>
      </trkpt>
      <trkpt lat="48.5799" lon="-3.88097">
        <ele>70.3</ele>
        <time>2020-06-10T11:23:15Z</time>
      </trkpt>
      <trkpt lat="48.57994" lon="-3.88088">
        <ele>69.9</ele>
        <time>2020-06-10T11:23:16Z</time>
      </trkpt>
      <trkpt lat="48.57999" lon="-3.88079">
        <ele>69.6</ele>
        <time>2020-06-10T11:23:17Z</time>
      </trkpt>
      <trkpt lat="48.58002" lon="-3.88069">
        <ele>69.2</ele>
        <time>2020-06-10T11:23:18Z</time>
      </trkpt>
      <trkpt lat="48.58005" lon="-3.88058">
        <ele>68.7</ele>
        <time>2020-06-10T11:23:19Z</time>
      </trkpt>
      <trkpt lat="48.58007" lon="-3.88047">
        <ele>68.3</ele>
        <time>2020-06-10T11:23:20Z</time>
      </trkpt>
      <trkpt lat="48.58008" lon="-3.88034">
        <ele>67.8</ele>
        <time>2020-06-10T11:23:21Z</time>
      </trkpt>
      <trkpt lat="48.58009" lon="-3.88021">
        <ele>67.3</ele>
        <time>2020-06-10T11:23:22Z</time>
      </trkpt>
      <trkpt lat="48.58009" lon="-3.88008">
        <ele>66.8</ele>
        <time>2020-06-10T11:23:23Z</time>
      </trkpt>
      <trkpt lat="48.58009" lon="-3.87995">
        <ele>66.3</ele>
        <time>2020-06-10T11:23:24Z</time>
      </trkpt>
      <trkpt lat="48.58007" lon="-3.87981">
        <ele>65.9</ele>
        <time>2020-06-10T11:23:25Z</time>
      </trkpt>
      <trkpt lat="48.58006" lon="-3.87968">
        <ele>65.5</ele>
        <time>2020-06-10T11:23:26Z</time>
      </trkpt>
      <trkpt lat="48.58003" lon="-3.87955">
        <ele>65.1</ele>
        <time>2020-06-10T11:23:27Z</time>
      </trkpt>
      <trkpt lat="48.58001" lon="-3.87943">
        <ele>64.7</ele>
        <time>2020-06-10T11:23:28Z</time>
      </trkpt>
      <trkpt lat="48.57999" lon="-3.8793">
        <ele>64.2</ele>
        <time>2020-06-10T11:23:29Z</time>
      </trkpt>
      <trkpt lat="48.57997" lon="-3.87917">
        <ele>63.7</ele>
        <time>2020-06-10T11:23:30Z</time>
      </trkpt>
      <trkpt lat="48.57996" lon="-3.87903">
        <ele>63.2</ele>
        <time>2020-06-10T11:23:31Z</time>
      </trkpt>
      <trkpt lat="48.57994" lon="-3.8789">
        <ele>62.8</ele>
        <time>2020-06-10T11:23:32Z</time>
      </trkpt>
      <trkpt lat="48.57992" lon="-3.87877">
        <ele>62.3</ele>
        <time>2020-06-10T11:23:33Z</time>
      </trkpt>
      <trkpt lat="48.57989" lon="-3.87864">
        <ele>61.8</ele>
        <time>2020-06-10T11:23:34Z</time>
      </trkpt>
      <trkpt lat="48.57988" lon="-3.87851">
        <ele>61.3</ele>
        <time>2020-06-10T11:23:35Z</time>
      </trkpt>
      <trkpt lat="48.57986" lon="-3.87838">
        <ele>60.9</ele>
        <time>2020-06-10T11:23:36Z</time>
      </trkpt>
      <trkpt lat="48.57984" lon="-3.87825">
        <ele>60.4</ele>
        <time>2020-06-10T11:23:37Z</time>
      </trkpt>
      <trkpt lat="48.57982" lon="-3.87812">
        <ele>60</ele>
        <time>2020-06-10T11:23:38Z</time>
      </trkpt>
      <trkpt lat="48.57981" lon="-3.87799">
        <ele>59.5</ele>
        <time>2020-06-10T11:23:39Z</time>
      </trkpt>
      <trkpt lat="48.57979" lon="-3.87785">
        <ele>59.1</ele>
        <time>2020-06-10T11:23:40Z</time>
      </trkpt>
      <trkpt lat="48.57977" lon="-3.87772">
        <ele>58.6</ele>
        <time>2020-06-10T11:23:41Z</time>
      </trkpt>
      <trkpt lat="48.57975" lon="-3.87758">
        <ele>58.1</ele>
        <time>2020-06-10T11:23:42Z</time>
      </trkpt>
      <trkpt lat="48.57974" lon="-3.87744">
        <ele>57.6</ele>
        <time>2020-06-10T11:23:43Z</time>
      </trkpt>
      <trkpt lat="48.57974" lon="-3.8773">
        <ele>57</ele>
        <time>2020-06-10T11:23:44Z</time>
      </trkpt>
      <trkpt lat="48.57975" lon="-3.87715">
        <ele>56.5</ele>
        <time>2020-06-10T11:23:45Z</time>
      </trkpt>
      <trkpt lat="48.57976" lon="-3.877">
        <ele>55.9</ele>
        <time>2020-06-10T11:23:46Z</time>
      </trkpt>
      <trkpt lat="48.57978" lon="-3.87685">
        <ele>55.4</ele>
        <time>2020-06-10T11:23:47Z</time>
      </trkpt>
      <trkpt lat="48.57981" lon="-3.8767">
        <ele>54.9</ele>
        <time>2020-06-10T11:23:48Z</time>
      </trkpt>
      <trkpt lat="48.57984" lon="-3.87656">
        <ele>54.5</ele>
        <time>2020-06-10T11:23:49Z</time>
      </trkpt>
      <trkpt lat="48.57987" lon="-3.87642">
        <ele>54</ele>
        <time>2020-06-10T11:23:50Z</time>
      </trkpt>
      <trkpt lat="48.57991" lon="-3.87628">
        <ele>53.4</ele>
        <time>2020-06-10T11:23:51Z</time>
      </trkpt>
      <trkpt lat="48.57996" lon="-3.87615">
        <ele>52.9</ele>
        <time>2020-06-10T11:23:52Z</time>
      </trkpt>
      <trkpt lat="48.58001" lon="-3.87602">
        <ele>52.4</ele>
        <time>2020-06-10T11:23:53Z</time>
      </trkpt>
      <trkpt lat="48.58006" lon="-3.8759">
        <ele>51.9</ele>
        <time>2020-06-10T11:23:54Z</time>
      </trkpt>
      <trkpt lat="48.58013" lon="-3.87578">
        <ele>51.3</ele>
        <time>2020-06-10T11:23:55Z</time>
      </trkpt>
      <trkpt lat="48.58019" lon="-3.87567">
        <ele>50.8</ele>
        <time>2020-06-10T11:23:56Z</time>
      </trkpt>
      <trkpt lat="48.58026" lon="-3.87556">
        <ele>50.3</ele>
        <time>2020-06-10T11:23:57Z</time>
      </trkpt>
      <trkpt lat="48.58034" lon="-3.87545">
        <ele>49.8</ele>
        <time>2020-06-10T11:23:58Z</time>
      </trkpt>
      <trkpt lat="48.58041" lon="-3.87535">
        <ele>49.4</ele>
        <time>2020-06-10T11:23:59Z</time>
      </trkpt>
      <trkpt lat="48.58048" lon="-3.87526">
        <ele>48.9</ele>
        <time>2020-06-10T11:24:00Z</time>
      </trkpt>
      <trkpt lat="48.58055" lon="-3.87517">
        <ele>48.4</ele>
        <time>2020-06-10T11:24:01Z</time>
      </trkpt>
      <trkpt lat="48.58062" lon="-3.87509">
        <ele>48</ele>
        <time>2020-06-10T11:24:02Z</time>
      </trkpt>
      <trkpt lat="48.58068" lon="-3.87501">
        <ele>47.6</ele>
        <time>2020-06-10T11:24:03Z</time>
      </trkpt>
      <trkpt lat="48.58074" lon="-3.87494">
        <ele>47.2</ele>
        <time>2020-06-10T11:24:04Z</time>
      </trkpt>
      <trkpt lat="48.58081" lon="-3.87486">
        <ele>46.8</ele>
        <time>2020-06-10T11:24:05Z</time>
      </trkpt>
      <trkpt lat="48.58088" lon="-3.87479">
        <ele>46.4</ele>
        <time>2020-06-10T11:24:06Z</time>
      </trkpt>
      <trkpt lat="48.58094" lon="-3.87471">
        <ele>45.9</ele>
        <time>2020-06-10T11:24:07Z</time>
      </trkpt>
      <trkpt lat="48.581" lon="-3.87465">
        <ele>45.5</ele>
        <time>2020-06-10T11:24:08Z</time>
      </trkpt>
      <trkpt lat="48.58105" lon="-3.87459">
        <ele>45.1</ele>
        <time>2020-06-10T11:24:09Z</time>
      </trkpt>
      <trkpt lat="48.5811" lon="-3.87453">
        <ele>44.7</ele>
        <time>2020-06-10T11:24:10Z</time>
      </trkpt>
      <trkpt lat="48.58115" lon="-3.87446">
        <ele>44.4</ele>
        <time>2020-06-10T11:24:11Z</time>
      </trkpt>
      <trkpt lat="48.5812" lon="-3.87439">
        <ele>44</ele>
        <time>2020-06-10T11:24:12Z</time>
      </trkpt>
      <trkpt lat="48.58124" lon="-3.87433">
        <ele>43.7</ele>
        <time>2020-06-10T11:24:13Z</time>
      </trkpt>
      <trkpt lat="48.5813" lon="-3.87427">
        <ele>43.4</ele>
        <time>2020-06-10T11:24:14Z</time>
      </trkpt>
      <trkpt lat="48.58135" lon="-3.8742">
        <ele>43.1</ele>
        <time>2020-06-10T11:24:15Z</time>
      </trkpt>
      <trkpt lat="48.5814" lon="-3.87413">
        <ele>42.8</ele>
        <time>2020-06-10T11:24:16Z</time>
      </trkpt>
      <trkpt lat="48.58146" lon="-3.87406">
        <ele>42.4</ele>
        <time>2020-06-10T11:24:17Z</time>
      </trkpt>
      <trkpt lat="48.58151" lon="-3.87399">
        <ele>42.2</ele>
        <time>2020-06-10T11:24:18Z</time>
      </trkpt>
      <trkpt lat="48.58157" lon="-3.87392">
        <ele>41.9</ele>
        <time>2020-06-10T11:24:19Z</time>
      </trkpt>
      <trkpt lat="48.58163" lon="-3.87384">
        <ele>41.7</ele>
        <time>2020-06-10T11:24:20Z</time>
      </trkpt>
      <trkpt lat="48.58168" lon="-3.87377">
        <ele>41.6</ele>
        <time>2020-06-10T11:24:21Z</time>
      </trkpt>
      <trkpt lat="48.58174" lon="-3.87369">
        <ele>41.5</ele>
        <time>2020-06-10T11:24:22Z</time>
      </trkpt>
      <trkpt lat="48.58179" lon="-3.8736">
        <ele>41.3</ele>
        <time>2020-06-10T11:24:23Z</time>
      </trkpt>
      <trkpt lat="48.58182" lon="-3.8735">
        <ele>40.9</ele>
        <time>2020-06-10T11:24:24Z</time>
      </trkpt>
      <trkpt lat="48.58186" lon="-3.87341">
        <ele>40.6</ele>
        <time>2020-06-10T11:24:25Z</time>
      </trkpt>
      <trkpt lat="48.5819" lon="-3.87332">
        <ele>40.2</ele>
        <time>2020-06-10T11:24:26Z</time>
      </trkpt>
      <trkpt lat="48.58195" lon="-3.87325">
        <ele>40.1</ele>
        <time>2020-06-10T11:24:27Z</time>
      </trkpt>
      <trkpt lat="48.58201" lon="-3.87321">
        <ele>40.2</ele>
        <time>2020-06-10T11:24:28Z</time>
      </trkpt>
      <trkpt lat="48.58207" lon="-3.87318">
        <ele>40.3</ele>
        <time>2020-06-10T11:24:29Z</time>
      </trkpt>
      <trkpt lat="48.58213" lon="-3.87313">
        <ele>40.4</ele>
        <time>2020-06-10T11:24:30Z</time>
      </trkpt>
      <trkpt lat="48.58219" lon="-3.8731">
        <ele>41.3</ele>
        <time>2020-06-10T11:24:31Z</time>
      </trkpt>
      <trkpt lat="48.58225" lon="-3.87312">
        <ele>41.4</ele>
        <time>2020-06-10T11:24:32Z</time>
      </trkpt>
      <trkpt lat="48.5823" lon="-3.87309">
        <ele>41.5</ele>
        <time>2020-06-10T11:24:33Z</time>
      </trkpt>
      <trkpt lat="48.58234" lon="-3.87303">
        <ele>41.7</ele>
        <time>2020-06-10T11:24:34Z</time>
      </trkpt>
      <trkpt lat="48.58237" lon="-3.87297">
        <ele>41.8</ele>
        <time>2020-06-10T11:24:35Z</time>
      </trkpt>
      <trkpt lat="48.5824" lon="-3.87291">
        <ele>41.9</ele>
        <time>2020-06-10T11:24:36Z</time>
      </trkpt>
      <trkpt lat="48.58245" lon="-3.87288">
        <ele>42.1</ele>
        <time>2020-06-10T11:24:37Z</time>
      </trkpt>
      <trkpt lat="48.58248" lon="-3.87283">
        <ele>42.2</ele>
        <time>2020-06-10T11:24:38Z</time>
      </trkpt>
      <trkpt lat="48.58252" lon="-3.87279">
        <ele>42.3</ele>
        <time>2020-06-10T11:24:39Z</time>
      </trkpt>
      <trkpt lat="48.58254" lon="-3.87274">
        <ele>42.4</ele>
        <time>2020-06-10T11:24:40Z</time>
      </trkpt>
      <trkpt lat="48.58258" lon="-3.8727">
        <ele>42.5</ele>
        <time>2020-06-10T11:24:41Z</time>
      </trkpt>
      <trkpt lat="48.5826" lon="-3.87266">
        <ele>42.5</ele>
        <time>2020-06-10T11:24:42Z</time>
      </trkpt>
      <trkpt lat="48.58263" lon="-3.87262">
        <ele>42.6</ele>
        <time>2020-06-10T11:24:43Z</time>
      </trkpt>
      <trkpt lat="48.58265" lon="-3.87257">
        <ele>42.7</ele>
        <time>2020-06-10T11:24:44Z</time>
      </trkpt>
      <trkpt lat="48.58268" lon="-3.87254">
        <ele>42.7</ele>
        <time>2020-06-10T11:24:45Z</time>
      </trkpt>
      <trkpt lat="48.58271" lon="-3.87251">
        <ele>42.7</ele>
        <time>2020-06-10T11:24:46Z</time>
      </trkpt>
      <trkpt lat="48.58273" lon="-3.87248">
        <ele>42.7</ele>
        <time>2020-06-10T11:24:47Z</time>
      </trkpt>
      <trkpt lat="48.58276" lon="-3.87244">
        <ele>42.7</ele>
        <time>2020-06-10T11:24:48Z</time>
      </trkpt>
      <trkpt lat="48.58278" lon="-3.8724">
        <ele>42.7</ele>
        <time>2020-06-10T11:24:49Z</time>
      </trkpt>
      <trkpt lat="48.58281" lon="-3.87237">
        <ele>42.7</ele>
        <time>2020-06-10T11:24:50Z</time>
      </trkpt>
      <trkpt lat="48.58283" lon="-3.87234">
        <ele>42.7</ele>
        <time>2020-06-10T11:24:51Z</time>
      </trkpt>
      <trkpt lat="48.58286" lon="-3.8723">
        <ele>42.7</ele>
        <time>2020-06-10T11:24:52Z</time>
      </trkpt>
      <trkpt lat="48.58288" lon="-3.87226">
        <ele>42.7</ele>
        <time>2020-06-10T11:24:53Z</time>
      </trkpt>
      <trkpt lat="48.5829" lon="-3.87222">
        <ele>42.6</ele>
        <time>2020-06-10T11:24:54Z</time>
      </trkpt>
      <trkpt lat="48.58293" lon="-3.87218">
        <ele>42.6</ele>
        <time>2020-06-10T11:24:55Z</time>
      </trkpt>
      <trkpt lat="48.58295" lon="-3.87214">
        <ele>42.6</ele>
        <time>2020-06-10T11:24:56Z</time>
      </trkpt>
      <trkpt lat="48.58296" lon="-3.8721">
        <ele>42.5</ele>
        <time>2020-06-10T11:24:57Z</time>
      </trkpt>
      <trkpt lat="48.58299" lon="-3.87208">
        <ele>42.5</ele>
        <time>2020-06-10T11:24:58Z</time>
      </trkpt>
      <trkpt lat="48.58301" lon="-3.87205">
        <ele>42.4</ele>
        <time>2020-06-10T11:24:59Z</time>
      </trkpt>
      <trkpt lat="48.58303" lon="-3.87201">
        <ele>42.4</ele>
        <time>2020-06-10T11:25:00Z</time>
      </trkpt>
      <trkpt lat="48.58305" lon="-3.87198">
        <ele>42.3</ele>
        <time>2020-06-10T11:25:01Z</time>
      </trkpt>
      <trkpt lat="48.58307" lon="-3.87193">
        <ele>42.2</ele>
        <time>2020-06-10T11:25:02Z</time>
      </trkpt>
      <trkpt lat="48.58309" lon="-3.87188">
        <ele>42.1</ele>
        <time>2020-06-10T11:25:03Z</time>
      </trkpt>
      <trkpt lat="48.58311" lon="-3.87184">
        <ele>42.1</ele>
        <time>2020-06-10T11:25:04Z</time>
      </trkpt>
      <trkpt lat="48.58313" lon="-3.87178">
        <ele>42</ele>
        <time>2020-06-10T11:25:05Z</time>
      </trkpt>
      <trkpt lat="48.58313" lon="-3.87173">
        <ele>41.9</ele>
        <time>2020-06-10T11:25:06Z</time>
      </trkpt>
      <trkpt lat="48.58316" lon="-3.87168">
        <ele>41.8</ele>
        <time>2020-06-10T11:25:07Z</time>
      </trkpt>
      <trkpt lat="48.58317" lon="-3.87163">
        <ele>41.8</ele>
        <time>2020-06-10T11:25:08Z</time>
      </trkpt>
      <trkpt lat="48.58317" lon="-3.87158">
        <ele>41.7</ele>
        <time>2020-06-10T11:25:09Z</time>
      </trkpt>
      <trkpt lat="48.58319" lon="-3.87153">
        <ele>41.6</ele>
        <time>2020-06-10T11:25:10Z</time>
      </trkpt>
      <trkpt lat="48.5832" lon="-3.87148">
        <ele>41.5</ele>
        <time>2020-06-10T11:25:11Z</time>
      </trkpt>
      <trkpt lat="48.58321" lon="-3.87142">
        <ele>41.4</ele>
        <time>2020-06-10T11:25:12Z</time>
      </trkpt>
      <trkpt lat="48.58322" lon="-3.87137">
        <ele>41.3</ele>
        <time>2020-06-10T11:25:13Z</time>
      </trkpt>
      <trkpt lat="48.58323" lon="-3.87131">
        <ele>41.2</ele>
        <time>2020-06-10T11:25:14Z</time>
      </trkpt>
      <trkpt lat="48.58323" lon="-3.87124">
        <ele>41.1</ele>
        <time>2020-06-10T11:25:15Z</time>
      </trkpt>
      <trkpt lat="48.58322" lon="-3.87117">
        <ele>41</ele>
        <time>2020-06-10T11:25:16Z</time>
      </trkpt>
      <trkpt lat="48.58321" lon="-3.87111">
        <ele>40.9</ele>
        <time>2020-06-10T11:25:17Z</time>
      </trkpt>
      <trkpt lat="48.58319" lon="-3.87105">
        <ele>40.8</ele>
        <time>2020-06-10T11:25:18Z</time>
      </trkpt>
      <trkpt lat="48.58317" lon="-3.87098">
        <ele>40.7</ele>
        <time>2020-06-10T11:25:19Z</time>
      </trkpt>
      <trkpt lat="48.58314" lon="-3.87091">
        <ele>40.6</ele>
        <time>2020-06-10T11:25:20Z</time>
      </trkpt>
      <trkpt lat="48.58312" lon="-3.87084">
        <ele>40.6</ele>
        <time>2020-06-10T11:25:21Z</time>
      </trkpt>
      <trkpt lat="48.5831" lon="-3.87077">
        <ele>40.5</ele>
        <time>2020-06-10T11:25:22Z</time>
      </trkpt>
      <trkpt lat="48.58307" lon="-3.87071">
        <ele>40.4</ele>
        <time>2020-06-10T11:25:23Z</time>
      </trkpt>
      <trkpt lat="48.58303" lon="-3.87066">
        <ele>40.6</ele>
        <time>2020-06-10T11:25:24Z</time>
      </trkpt>
      <trkpt lat="48.583" lon="-3.87059">
        <ele>40.6</ele>
        <time>2020-06-10T11:25:25Z</time>
      </trkpt>
      <trkpt lat="48.58298" lon="-3.87052">
        <ele>40.6</ele>
        <time>2020-06-10T11:25:26Z</time>
      </trkpt>
      <trkpt lat="48.58299" lon="-3.87045">
        <ele>40.7</ele>
        <time>2020-06-10T11:25:27Z</time>
      </trkpt>
      <trkpt lat="48.583" lon="-3.87038">
        <ele>40.9</ele>
        <time>2020-06-10T11:25:28Z</time>
      </trkpt>
      <trkpt lat="48.583" lon="-3.87031">
        <ele>41.1</ele>
        <time>2020-06-10T11:25:29Z</time>
      </trkpt>
      <trkpt lat="48.583" lon="-3.87025">
        <ele>41.4</ele>
        <time>2020-06-10T11:25:30Z</time>
      </trkpt>
      <trkpt lat="48.583" lon="-3.87018">
        <ele>41.5</ele>
        <time>2020-06-10T11:25:31Z</time>
      </trkpt>
      <trkpt lat="48.583" lon="-3.87011">
        <ele>41.5</ele>
        <time>2020-06-10T11:25:32Z</time>
      </trkpt>
      <trkpt lat="48.58299" lon="-3.87004">
        <ele>41.6</ele>
        <time>2020-06-10T11:25:33Z</time>
      </trkpt>
      <trkpt lat="48.58298" lon="-3.86998">
        <ele>41.7</ele>
        <time>2020-06-10T11:25:34Z</time>
      </trkpt>
      <trkpt lat="48.58297" lon="-3.86992">
        <ele>41.8</ele>
        <time>2020-06-10T11:25:35Z</time>
      </trkpt>
      <trkpt lat="48.58295" lon="-3.86985">
        <ele>41.9</ele>
        <time>2020-06-10T11:25:36Z</time>
      </trkpt>
      <trkpt lat="48.58293" lon="-3.8698">
        <ele>42</ele>
        <time>2020-06-10T11:25:37Z</time>
      </trkpt>
      <trkpt lat="48.58291" lon="-3.86973">
        <ele>42.2</ele>
        <time>2020-06-10T11:25:38Z</time>
      </trkpt>
      <trkpt lat="48.58289" lon="-3.86967">
        <ele>42.3</ele>
        <time>2020-06-10T11:25:39Z</time>
      </trkpt>
      <trkpt lat="48.58287" lon="-3.86961">
        <ele>42.5</ele>
        <time>2020-06-10T11:25:40Z</time>
      </trkpt>
      <trkpt lat="48.58286" lon="-3.86955">
        <ele>42.6</ele>
        <time>2020-06-10T11:25:41Z</time>
      </trkpt>
      <trkpt lat="48.58284" lon="-3.86949">
        <ele>42.8</ele>
        <time>2020-06-10T11:25:42Z</time>
      </trkpt>
      <trkpt lat="48.58283" lon="-3.86944">
        <ele>42.9</ele>
        <time>2020-06-10T11:25:43Z</time>
      </trkpt>
      <trkpt lat="48.58282" lon="-3.86937">
        <ele>43.1</ele>
        <time>2020-06-10T11:25:44Z</time>
      </trkpt>
      <trkpt lat="48.5828" lon="-3.8693">
        <ele>43.2</ele>
        <time>2020-06-10T11:25:45Z</time>
      </trkpt>
      <trkpt lat="48.58278" lon="-3.86923">
        <ele>43.4</ele>
        <time>2020-06-10T11:25:46Z</time>
      </trkpt>
      <trkpt lat="48.58276" lon="-3.86917">
        <ele>43.6</ele>
        <time>2020-06-10T11:25:47Z</time>
      </trkpt>
      <trkpt lat="48.58273" lon="-3.8691">
        <ele>43.8</ele>
        <time>2020-06-10T11:25:48Z</time>
      </trkpt>
      <trkpt lat="48.58272" lon="-3.86904">
        <ele>43.9</ele>
        <time>2020-06-10T11:25:49Z</time>
      </trkpt>
      <trkpt lat="48.58269" lon="-3.86898">
        <ele>44.1</ele>
        <time>2020-06-10T11:25:50Z</time>
      </trkpt>
      <trkpt lat="48.58268" lon="-3.86892">
        <ele>44.3</ele>
        <time>2020-06-10T11:25:51Z</time>
      </trkpt>
      <trkpt lat="48.58266" lon="-3.86887">
        <ele>44.4</ele>
        <time>2020-06-10T11:25:52Z</time>
      </trkpt>
      <trkpt lat="48.58263" lon="-3.86882">
        <ele>44.5</ele>
        <time>2020-06-10T11:25:53Z</time>
      </trkpt>
      <trkpt lat="48.58261" lon="-3.86876">
        <ele>44.7</ele>
        <time>2020-06-10T11:25:54Z</time>
      </trkpt>
      <trkpt lat="48.58259" lon="-3.86871">
        <ele>44.9</ele>
        <time>2020-06-10T11:25:55Z</time>
      </trkpt>
      <trkpt lat="48.58257" lon="-3.86864">
        <ele>45</ele>
        <time>2020-06-10T11:25:56Z</time>
      </trkpt>
      <trkpt lat="48.58255" lon="-3.86858">
        <ele>45.2</ele>
        <time>2020-06-10T11:25:57Z</time>
      </trkpt>
      <trkpt lat="48.58253" lon="-3.86852">
        <ele>45.3</ele>
        <time>2020-06-10T11:25:58Z</time>
      </trkpt>
      <trkpt lat="48.58251" lon="-3.86848">
        <ele>45.4</ele>
        <time>2020-06-10T11:25:59Z</time>
      </trkpt>
      <trkpt lat="48.5825" lon="-3.86844">
        <ele>45.5</ele>
        <time>2020-06-10T11:26:00Z</time>
      </trkpt>
      <trkpt lat="48.58248" lon="-3.8684">
        <ele>45.6</ele>
        <time>2020-06-10T11:26:01Z</time>
      </trkpt>
      <trkpt lat="48.58246" lon="-3.86835">
        <ele>45.7</ele>
        <time>2020-06-10T11:26:02Z</time>
      </trkpt>
      <trkpt lat="48.58244" lon="-3.86829">
        <ele>45.9</ele>
        <time>2020-06-10T11:26:03Z</time>
      </trkpt>
      <trkpt lat="48.58243" lon="-3.86823">
        <ele>46.1</ele>
        <time>2020-06-10T11:26:04Z</time>
      </trkpt>
      <trkpt lat="48.58242" lon="-3.86819">
        <ele>46.2</ele>
        <time>2020-06-10T11:26:05Z</time>
      </trkpt>
      <trkpt lat="48.5824" lon="-3.86815">
        <ele>46.4</ele>
        <time>2020-06-10T11:26:06Z</time>
      </trkpt>
      <trkpt lat="48.5824" lon="-3.86809">
        <ele>46.5</ele>
        <time>2020-06-10T11:26:07Z</time>
      </trkpt>
      <trkpt lat="48.58241" lon="-3.86806">
        <ele>46.6</ele>
        <time>2020-06-10T11:26:08Z</time>
      </trkpt>
      <trkpt lat="48.58243" lon="-3.868">
        <ele>47.1</ele>
        <time>2020-06-10T11:26:09Z</time>
      </trkpt>
      <trkpt lat="48.58247" lon="-3.86797">
        <ele>47.3</ele>
        <time>2020-06-10T11:26:10Z</time>
      </trkpt>
      <trkpt lat="48.5825" lon="-3.86796">
        <ele>47.6</ele>
        <time>2020-06-10T11:26:11Z</time>
      </trkpt>
      <trkpt lat="48.58252" lon="-3.86795">
        <ele>47.7</ele>
        <time>2020-06-10T11:26:12Z</time>
      </trkpt>
      <trkpt lat="48.58254" lon="-3.86793">
        <ele>47.9</ele>
        <time>2020-06-10T11:26:13Z</time>
      </trkpt>
      <trkpt lat="48.58257" lon="-3.8679">
        <ele>48.2</ele>
        <time>2020-06-10T11:26:14Z</time>
      </trkpt>
      <trkpt lat="48.5826" lon="-3.86788">
        <ele>48.4</ele>
        <time>2020-06-10T11:26:15Z</time>
      </trkpt>
      <trkpt lat="48.58261" lon="-3.86788">
        <ele>48.5</ele>
        <time>2020-06-10T11:26:16Z</time>
      </trkpt>
      <trkpt lat="48.58264" lon="-3.86786">
        <ele>48.8</ele>
        <time>2020-06-10T11:26:17Z</time>
      </trkpt>
      <trkpt lat="48.58265" lon="-3.86785">
        <ele>48.9</ele>
        <time>2020-06-10T11:26:18Z</time>
      </trkpt>
      <trkpt lat="48.58266" lon="-3.86783">
        <ele>49.1</ele>
        <time>2020-06-10T11:26:19Z</time>
      </trkpt>
      <trkpt lat="48.58268" lon="-3.86782">
        <ele>49.2</ele>
        <time>2020-06-10T11:26:20Z</time>
      </trkpt>
      <trkpt lat="48.5827" lon="-3.86778">
        <ele>49.5</ele>
        <time>2020-06-10T11:26:21Z</time>
      </trkpt>
      <trkpt lat="48.58271" lon="-3.86776">
        <ele>49.6</ele>
        <time>2020-06-10T11:26:22Z</time>
      </trkpt>
      <trkpt lat="48.58274" lon="-3.86774">
        <ele>49.9</ele>
        <time>2020-06-10T11:26:23Z</time>
      </trkpt>
      <trkpt lat="48.58275" lon="-3.86773">
        <ele>50</ele>
        <time>2020-06-10T11:26:24Z</time>
      </trkpt>
      <trkpt lat="48.58277" lon="-3.86771">
        <ele>50.2</ele>
        <time>2020-06-10T11:26:25Z</time>
      </trkpt>
      <trkpt lat="48.58277" lon="-3.8677">
        <ele>50.3</ele>
        <time>2020-06-10T11:26:26Z</time>
      </trkpt>
      <trkpt lat="48.58278" lon="-3.8677">
        <ele>50.4</ele>
        <time>2020-06-10T11:26:27Z</time>
      </trkpt>
      <trkpt lat="48.58279" lon="-3.86769">
        <ele>50.5</ele>
        <time>2020-06-10T11:26:28Z</time>
      </trkpt>
      <trkpt lat="48.5828" lon="-3.86768">
        <ele>50.6</ele>
        <time>2020-06-10T11:26:29Z</time>
      </trkpt>
      <trkpt lat="48.5828" lon="-3.86767">
        <ele>50.7</ele>
        <time>2020-06-10T11:26:30Z</time>
      </trkpt>
      <trkpt lat="48.58281" lon="-3.86766">
        <ele>50.7</ele>
        <time>2020-06-10T11:26:31Z</time>
      </trkpt>
      <trkpt lat="48.58282" lon="-3.86764">
        <ele>50.9</ele>
        <time>2020-06-10T11:26:32Z</time>
      </trkpt>
      <trkpt lat="48.58284" lon="-3.86762">
        <ele>51.1</ele>
        <time>2020-06-10T11:26:33Z</time>
      </trkpt>
      <trkpt lat="48.58286" lon="-3.86759">
        <ele>51.4</ele>
        <time>2020-06-10T11:26:34Z</time>
      </trkpt>
      <trkpt lat="48.58289" lon="-3.86756">
        <ele>51.7</ele>
        <time>2020-06-10T11:26:35Z</time>
      </trkpt>
      <trkpt lat="48.58291" lon="-3.86753">
        <ele>51.9</ele>
        <time>2020-06-10T11:26:36Z</time>
      </trkpt>
      <trkpt lat="48.58294" lon="-3.8675">
        <ele>52.3</ele>
        <time>2020-06-10T11:26:37Z</time>
      </trkpt>
      <trkpt lat="48.58295" lon="-3.86749">
        <ele>52.4</ele>
        <time>2020-06-10T11:26:38Z</time>
      </trkpt>
      <trkpt lat="48.58297" lon="-3.86746">
        <ele>52.7</ele>
        <time>2020-06-10T11:26:39Z</time>
      </trkpt>
      <trkpt lat="48.58298" lon="-3.86745">
        <ele>52.8</ele>
        <time>2020-06-10T11:26:40Z</time>
      </trkpt>
      <trkpt lat="48.583" lon="-3.86742">
        <ele>53.1</ele>
        <time>2020-06-10T11:26:41Z</time>
      </trkpt>
      <trkpt lat="48.58301" lon="-3.86742">
        <ele>53.2</ele>
        <time>2020-06-10T11:26:42Z</time>
      </trkpt>
      <trkpt lat="48.58304" lon="-3.86739">
        <ele>53.5</ele>
        <time>2020-06-10T11:26:43Z</time>
      </trkpt>
      <trkpt lat="48.58304" lon="-3.86738">
        <ele>53.6</ele>
        <time>2020-06-10T11:26:44Z</time>
      </trkpt>
      <trkpt lat="48.58307" lon="-3.86735">
        <ele>53.9</ele>
        <time>2020-06-10T11:26:45Z</time>
      </trkpt>
      <trkpt lat="48.58307" lon="-3.86734">
        <ele>54</ele>
        <time>2020-06-10T11:26:46Z</time>
      </trkpt>
      <trkpt lat="48.58309" lon="-3.86734">
        <ele>54.2</ele>
        <time>2020-06-10T11:26:47Z</time>
      </trkpt>
      <trkpt lat="48.5831" lon="-3.86732">
        <ele>54.4</ele>
        <time>2020-06-10T11:26:48Z</time>
      </trkpt>
      <trkpt lat="48.58312" lon="-3.86728">
        <ele>54.7</ele>
        <time>2020-06-10T11:26:49Z</time>
      </trkpt>
      <trkpt lat="48.58312" lon="-3.86727">
        <ele>54.8</ele>
        <time>2020-06-10T11:26:50Z</time>
      </trkpt>
      <trkpt lat="48.58313" lon="-3.86726">
        <ele>55</ele>
        <time>2020-06-10T11:26:51Z</time>
      </trkpt>
      <trkpt lat="48.58315" lon="-3.86725">
        <ele>55.1</ele>
        <time>2020-06-10T11:26:52Z</time>
      </trkpt>
      <trkpt lat="48.58316" lon="-3.86723">
        <ele>55.3</ele>
        <time>2020-06-10T11:26:53Z</time>
      </trkpt>
      <trkpt lat="48.58317" lon="-3.86721">
        <ele>55.5</ele>
        <time>2020-06-10T11:26:54Z</time>
      </trkpt>
      <trkpt lat="48.5832" lon="-3.86719">
        <ele>55.8</ele>
        <time>2020-06-10T11:26:55Z</time>
      </trkpt>
      <trkpt lat="48.58321" lon="-3.86718">
        <ele>55.9</ele>
        <time>2020-06-10T11:26:56Z</time>
      </trkpt>
      <trkpt lat="48.58323" lon="-3.86715">
        <ele>56.2</ele>
        <time>2020-06-10T11:26:57Z</time>
      </trkpt>
      <trkpt lat="48.58324" lon="-3.86714">
        <ele>56.4</ele>
        <time>2020-06-10T11:26:58Z</time>
      </trkpt>
      <trkpt lat="48.58326" lon="-3.8671">
        <ele>56.7</ele>
        <time>2020-06-10T11:26:59Z</time>
      </trkpt>
      <trkpt lat="48.58327" lon="-3.86709">
        <ele>56.8</ele>
        <time>2020-06-10T11:27:00Z</time>
      </trkpt>
      <trkpt lat="48.58328" lon="-3.86708">
        <ele>57</ele>
        <time>2020-06-10T11:27:01Z</time>
      </trkpt>
      <trkpt lat="48.5833" lon="-3.86708">
        <ele>57.2</ele>
        <time>2020-06-10T11:27:02Z</time>
      </trkpt>
      <trkpt lat="48.58333" lon="-3.86705">
        <ele>57.5</ele>
        <time>2020-06-10T11:27:03Z</time>
      </trkpt>
      <trkpt lat="48.58334" lon="-3.86704">
        <ele>57.7</ele>
        <time>2020-06-10T11:27:04Z</time>
      </trkpt>
      <trkpt lat="48.58335" lon="-3.86702">
        <ele>57.9</ele>
        <time>2020-06-10T11:27:05Z</time>
      </trkpt>
      <trkpt lat="48.58336" lon="-3.86701">
        <ele>58.1</ele>
        <time>2020-06-10T11:27:06Z</time>
      </trkpt>
      <trkpt lat="48.58338" lon="-3.86699">
        <ele>58.3</ele>
        <time>2020-06-10T11:27:07Z</time>
      </trkpt>
      <trkpt lat="48.58339" lon="-3.86698">
        <ele>58.5</ele>
        <time>2020-06-10T11:27:08Z</time>
      </trkpt>
      <trkpt lat="48.58342" lon="-3.86695">
        <ele>58.8</ele>
        <time>2020-06-10T11:27:09Z</time>
      </trkpt>
      <trkpt lat="48.58343" lon="-3.86694">
        <ele>58.9</ele>
        <time>2020-06-10T11:27:10Z</time>
      </trkpt>
      <trkpt lat="48.58345" lon="-3.86693">
        <ele>59.2</ele>
        <time>2020-06-10T11:27:11Z</time>
      </trkpt>
      <trkpt lat="48.58346" lon="-3.86692">
        <ele>59.3</ele>
        <time>2020-06-10T11:27:12Z</time>
      </trkpt>
      <trkpt lat="48.58348" lon="-3.86688">
        <ele>59.7</ele>
        <time>2020-06-10T11:27:13Z</time>
      </trkpt>
      <trkpt lat="48.58349" lon="-3.86687">
        <ele>59.8</ele>
        <time>2020-06-10T11:27:14Z</time>
      </trkpt>
      <trkpt lat="48.5835" lon="-3.86685">
        <ele>60</ele>
        <time>2020-06-10T11:27:15Z</time>
      </trkpt>
      <trkpt lat="48.58351" lon="-3.86683">
        <ele>60.2</ele>
        <time>2020-06-10T11:27:16Z</time>
      </trkpt>
      <trkpt lat="48.58353" lon="-3.86681">
        <ele>60.4</ele>
        <time>2020-06-10T11:27:17Z</time>
      </trkpt>
      <trkpt lat="48.58354" lon="-3.8668">
        <ele>60.5</ele>
        <time>2020-06-10T11:27:18Z</time>
      </trkpt>
      <trkpt lat="48.58357" lon="-3.86678">
        <ele>60.8</ele>
        <time>2020-06-10T11:27:19Z</time>
      </trkpt>
      <trkpt lat="48.58358" lon="-3.86677">
        <ele>61</ele>
        <time>2020-06-10T11:27:20Z</time>
      </trkpt>
      <trkpt lat="48.5836" lon="-3.86676">
        <ele>61.2</ele>
        <time>2020-06-10T11:27:21Z</time>
      </trkpt>
      <trkpt lat="48.58361" lon="-3.86675">
        <ele>61.3</ele>
        <time>2020-06-10T11:27:22Z</time>
      </trkpt>
      <trkpt lat="48.58364" lon="-3.86672">
        <ele>61.6</ele>
        <time>2020-06-10T11:27:23Z</time>
      </trkpt>
      <trkpt lat="48.58364" lon="-3.86671">
        <ele>61.8</ele>
        <time>2020-06-10T11:27:24Z</time>
      </trkpt>
      <trkpt lat="48.58365" lon="-3.86671">
        <ele>61.9</ele>
        <time>2020-06-10T11:27:25Z</time>
      </trkpt>
      <trkpt lat="48.58366" lon="-3.8667">
        <ele>62</ele>
        <time>2020-06-10T11:27:26Z</time>
      </trkpt>
      <trkpt lat="48.58367" lon="-3.86669">
        <ele>62.1</ele>
        <time>2020-06-10T11:27:27Z</time>
      </trkpt>
      <trkpt lat="48.5837" lon="-3.86667">
        <ele>62.4</ele>
        <time>2020-06-10T11:27:28Z</time>
      </trkpt>
      <trkpt lat="48.58371" lon="-3.86666">
        <ele>62.5</ele>
        <time>2020-06-10T11:27:29Z</time>
      </trkpt>
      <trkpt lat="48.58373" lon="-3.86664">
        <ele>62.8</ele>
        <time>2020-06-10T11:27:30Z</time>
      </trkpt>
      <trkpt lat="48.58373" lon="-3.86663">
        <ele>62.9</ele>
        <time>2020-06-10T11:27:31Z</time>
      </trkpt>
      <trkpt lat="48.58375" lon="-3.86661">
        <ele>63.1</ele>
        <time>2020-06-10T11:27:32Z</time>
      </trkpt>
      <trkpt lat="48.58376" lon="-3.8666">
        <ele>63.3</ele>
        <time>2020-06-10T11:27:33Z</time>
      </trkpt>
      <trkpt lat="48.58379" lon="-3.86658">
        <ele>63.6</ele>
        <time>2020-06-10T11:27:34Z</time>
      </trkpt>
      <trkpt lat="48.5838" lon="-3.86657">
        <ele>63.7</ele>
        <time>2020-06-10T11:27:35Z</time>
      </trkpt>
      <trkpt lat="48.58381" lon="-3.86656">
        <ele>63.9</ele>
        <time>2020-06-10T11:27:36Z</time>
      </trkpt>
      <trkpt lat="48.58382" lon="-3.86655">
        <ele>64.1</ele>
        <time>2020-06-10T11:27:37Z</time>
      </trkpt>
      <trkpt lat="48.58384" lon="-3.86654">
        <ele>64.3</ele>
        <time>2020-06-10T11:27:38Z</time>
      </trkpt>
      <trkpt lat="48.58385" lon="-3.86652">
        <ele>64.4</ele>
        <time>2020-06-10T11:27:39Z</time>
      </trkpt>
      <trkpt lat="48.58386" lon="-3.86648">
        <ele>64.7</ele>
        <time>2020-06-10T11:27:40Z</time>
      </trkpt>
      <trkpt lat="48.58387" lon="-3.86647">
        <ele>64.8</ele>
        <time>2020-06-10T11:27:41Z</time>
      </trkpt>
      <trkpt lat="48.58389" lon="-3.86647">
        <ele>65</ele>
        <time>2020-06-10T11:27:42Z</time>
      </trkpt>
      <trkpt lat="48.5839" lon="-3.86645">
        <ele>65.2</ele>
        <time>2020-06-10T11:27:43Z</time>
      </trkpt>
      <trkpt lat="48.58392" lon="-3.86643">
        <ele>65.4</ele>
        <time>2020-06-10T11:27:44Z</time>
      </trkpt>
      <trkpt lat="48.58393" lon="-3.86642">
        <ele>65.5</ele>
        <time>2020-06-10T11:27:45Z</time>
      </trkpt>
      <trkpt lat="48.58395" lon="-3.86641">
        <ele>65.7</ele>
        <time>2020-06-10T11:27:46Z</time>
      </trkpt>
      <trkpt lat="48.58396" lon="-3.86641">
        <ele>65.8</ele>
        <time>2020-06-10T11:27:47Z</time>
      </trkpt>
      <trkpt lat="48.58398" lon="-3.86637">
        <ele>66.1</ele>
        <time>2020-06-10T11:27:48Z</time>
      </trkpt>
      <trkpt lat="48.58399" lon="-3.86636">
        <ele>66.2</ele>
        <time>2020-06-10T11:27:49Z</time>
      </trkpt>
      <trkpt lat="48.584" lon="-3.86635">
        <ele>66.4</ele>
        <time>2020-06-10T11:27:50Z</time>
      </trkpt>
      <trkpt lat="48.58402" lon="-3.86634">
        <ele>66.6</ele>
        <time>2020-06-10T11:27:51Z</time>
      </trkpt>
      <trkpt lat="48.58404" lon="-3.8663">
        <ele>66.9</ele>
        <time>2020-06-10T11:27:52Z</time>
      </trkpt>
      <trkpt lat="48.58404" lon="-3.86629">
        <ele>66.9</ele>
        <time>2020-06-10T11:27:53Z</time>
      </trkpt>
      <trkpt lat="48.58405" lon="-3.86628">
        <ele>67.1</ele>
        <time>2020-06-10T11:27:54Z</time>
      </trkpt>
      <trkpt lat="48.58407" lon="-3.86627">
        <ele>67.2</ele>
        <time>2020-06-10T11:27:55Z</time>
      </trkpt>
      <trkpt lat="48.58408" lon="-3.86626">
        <ele>67.4</ele>
        <time>2020-06-10T11:27:56Z</time>
      </trkpt>
      <trkpt lat="48.5841" lon="-3.86624">
        <ele>67.6</ele>
        <time>2020-06-10T11:27:57Z</time>
      </trkpt>
      <trkpt lat="48.58412" lon="-3.86622">
        <ele>67.9</ele>
        <time>2020-06-10T11:27:58Z</time>
      </trkpt>
      <trkpt lat="48.58413" lon="-3.86621">
        <ele>68</ele>
        <time>2020-06-10T11:27:59Z</time>
      </trkpt>
      <trkpt lat="48.58414" lon="-3.8662">
        <ele>68.2</ele>
        <time>2020-06-10T11:28:00Z</time>
      </trkpt>
      <trkpt lat="48.58416" lon="-3.86619">
        <ele>68.4</ele>
        <time>2020-06-10T11:28:01Z</time>
      </trkpt>
      <trkpt lat="48.58417" lon="-3.86617">
        <ele>68.5</ele>
        <time>2020-06-10T11:28:02Z</time>
      </trkpt>
      <trkpt lat="48.58419" lon="-3.86615">
        <ele>68.7</ele>
        <time>2020-06-10T11:28:03Z</time>
      </trkpt>
      <trkpt lat="48.5842" lon="-3.86614">
        <ele>69</ele>
        <time>2020-06-10T11:28:04Z</time>
      </trkpt>
      <trkpt lat="48.58421" lon="-3.86613">
        <ele>69</ele>
        <time>2020-06-10T11:28:05Z</time>
      </trkpt>
      <trkpt lat="48.58422" lon="-3.86612">
        <ele>69.1</ele>
        <time>2020-06-10T11:28:06Z</time>
      </trkpt>
      <trkpt lat="48.58423" lon="-3.8661">
        <ele>69.3</ele>
        <time>2020-06-10T11:28:07Z</time>
      </trkpt>
      <trkpt lat="48.58424" lon="-3.86609">
        <ele>69.4</ele>
        <time>2020-06-10T11:28:08Z</time>
      </trkpt>
      <trkpt lat="48.58425" lon="-3.86608">
        <ele>69.6</ele>
        <time>2020-06-10T11:28:09Z</time>
      </trkpt>
      <trkpt lat="48.58426" lon="-3.86607">
        <ele>69.7</ele>
        <time>2020-06-10T11:28:10Z</time>
      </trkpt>
      <trkpt lat="48.58429" lon="-3.86606">
        <ele>70</ele>
        <time>2020-06-10T11:28:11Z</time>
      </trkpt>
      <trkpt lat="48.5843" lon="-3.86605">
        <ele>70.1</ele>
        <time>2020-06-10T11:28:12Z</time>
      </trkpt>
      <trkpt lat="48.58432" lon="-3.86604">
        <ele>70.3</ele>
        <time>2020-06-10T11:28:13Z</time>
      </trkpt>
      <trkpt lat="48.58433" lon="-3.86603">
        <ele>70.5</ele>
        <time>2020-06-10T11:28:14Z</time>
      </trkpt>
      <trkpt lat="48.58435" lon="-3.86602">
        <ele>70.7</ele>
        <time>2020-06-10T11:28:15Z</time>
      </trkpt>
      <trkpt lat="48.58435" lon="-3.86601">
        <ele>70.8</ele>
        <time>2020-06-10T11:28:16Z</time>
      </trkpt>
      <trkpt lat="48.58437" lon="-3.866">
        <ele>70.9</ele>
        <time>2020-06-10T11:28:17Z</time>
      </trkpt>
      <trkpt lat="48.58438" lon="-3.86597">
        <ele>71.1</ele>
        <time>2020-06-10T11:28:18Z</time>
      </trkpt>
      <trkpt lat="48.5844" lon="-3.86594">
        <ele>71.5</ele>
        <time>2020-06-10T11:28:19Z</time>
      </trkpt>
      <trkpt lat="48.58441" lon="-3.86592">
        <ele>71.6</ele>
        <time>2020-06-10T11:28:20Z</time>
      </trkpt>
      <trkpt lat="48.58443" lon="-3.86589">
        <ele>71.9</ele>
        <time>2020-06-10T11:28:21Z</time>
      </trkpt>
      <trkpt lat="48.58444" lon="-3.86588">
        <ele>72</ele>
        <time>2020-06-10T11:28:22Z</time>
      </trkpt>
      <trkpt lat="48.58446" lon="-3.86586">
        <ele>72.2</ele>
        <time>2020-06-10T11:28:23Z</time>
      </trkpt>
      <trkpt lat="48.58447" lon="-3.86585">
        <ele>72.3</ele>
        <time>2020-06-10T11:28:24Z</time>
      </trkpt>
      <trkpt lat="48.58449" lon="-3.86583">
        <ele>72.5</ele>
        <time>2020-06-10T11:28:25Z</time>
      </trkpt>
      <trkpt lat="48.5845" lon="-3.86581">
        <ele>72.6</ele>
        <time>2020-06-10T11:28:26Z</time>
      </trkpt>
      <trkpt lat="48.5845" lon="-3.86579">
        <ele>72.7</ele>
        <time>2020-06-10T11:28:27Z</time>
      </trkpt>
      <trkpt lat="48.5845" lon="-3.86576">
        <ele>72.9</ele>
        <time>2020-06-10T11:28:28Z</time>
      </trkpt>
      <trkpt lat="48.58452" lon="-3.86573">
        <ele>73.1</ele>
        <time>2020-06-10T11:28:29Z</time>
      </trkpt>
      <trkpt lat="48.58453" lon="-3.86571">
        <ele>73.2</ele>
        <time>2020-06-10T11:28:30Z</time>
      </trkpt>
      <trkpt lat="48.58456" lon="-3.86569">
        <ele>73.4</ele>
        <time>2020-06-10T11:28:31Z</time>
      </trkpt>
      <trkpt lat="48.58456" lon="-3.86569">
        <ele>73.5</ele>
        <time>2020-06-10T11:28:32Z</time>
      </trkpt>
      <trkpt lat="48.58459" lon="-3.86565">
        <ele>73.8</ele>
        <time>2020-06-10T11:28:33Z</time>
      </trkpt>
      <trkpt lat="48.5846" lon="-3.86564">
        <ele>73.9</ele>
        <time>2020-06-10T11:28:34Z</time>
      </trkpt>
      <trkpt lat="48.58463" lon="-3.86561">
        <ele>74.1</ele>
        <time>2020-06-10T11:28:35Z</time>
      </trkpt>
      <trkpt lat="48.58464" lon="-3.8656">
        <ele>74.2</ele>
        <time>2020-06-10T11:28:36Z</time>
      </trkpt>
      <trkpt lat="48.58466" lon="-3.86557">
        <ele>74.3</ele>
        <time>2020-06-10T11:28:37Z</time>
      </trkpt>
      <trkpt lat="48.58469" lon="-3.86554">
        <ele>74.6</ele>
        <time>2020-06-10T11:28:38Z</time>
      </trkpt>
      <trkpt lat="48.58469" lon="-3.86553">
        <ele>74.7</ele>
        <time>2020-06-10T11:28:39Z</time>
      </trkpt>
      <trkpt lat="48.58472" lon="-3.86549">
        <ele>74.8</ele>
        <time>2020-06-10T11:28:40Z</time>
      </trkpt>
      <trkpt lat="48.58472" lon="-3.86548">
        <ele>74.9</ele>
        <time>2020-06-10T11:28:41Z</time>
      </trkpt>
      <trkpt lat="48.58474" lon="-3.86545">
        <ele>75.1</ele>
        <time>2020-06-10T11:28:42Z</time>
      </trkpt>
      <trkpt lat="48.58474" lon="-3.86544">
        <ele>75.1</ele>
        <time>2020-06-10T11:28:43Z</time>
      </trkpt>
      <trkpt lat="48.58476" lon="-3.86541">
        <ele>75.5</ele>
        <time>2020-06-10T11:28:44Z</time>
      </trkpt>
      <trkpt lat="48.58477" lon="-3.8654">
        <ele>75.6</ele>
        <time>2020-06-10T11:28:45Z</time>
      </trkpt>
      <trkpt lat="48.58479" lon="-3.86536">
        <ele>75.8</ele>
        <time>2020-06-10T11:28:46Z</time>
      </trkpt>
      <trkpt lat="48.5848" lon="-3.86535">
        <ele>75.9</ele>
        <time>2020-06-10T11:28:47Z</time>
      </trkpt>
      <trkpt lat="48.58482" lon="-3.86531">
        <ele>76.1</ele>
        <time>2020-06-10T11:28:48Z</time>
      </trkpt>
      <trkpt lat="48.58483" lon="-3.8653">
        <ele>76.2</ele>
        <time>2020-06-10T11:28:49Z</time>
      </trkpt>
      <trkpt lat="48.58484" lon="-3.86528">
        <ele>76.3</ele>
        <time>2020-06-10T11:28:50Z</time>
      </trkpt>
      <trkpt lat="48.58485" lon="-3.86526">
        <ele>76.5</ele>
        <time>2020-06-10T11:28:51Z</time>
      </trkpt>
      <trkpt lat="48.58485" lon="-3.86524">
        <ele>76.6</ele>
        <time>2020-06-10T11:28:52Z</time>
      </trkpt>
      <trkpt lat="48.58486" lon="-3.86521">
        <ele>76.7</ele>
        <time>2020-06-10T11:28:53Z</time>
      </trkpt>
      <trkpt lat="48.58487" lon="-3.86519">
        <ele>76.8</ele>
        <time>2020-06-10T11:28:54Z</time>
      </trkpt>
      <trkpt lat="48.58488" lon="-3.86516">
        <ele>77</ele>
        <time>2020-06-10T11:28:55Z</time>
      </trkpt>
      <trkpt lat="48.58489" lon="-3.86514">
        <ele>77.1</ele>
        <time>2020-06-10T11:28:56Z</time>
      </trkpt>
      <trkpt lat="48.5849" lon="-3.86512">
        <ele>77.2</ele>
        <time>2020-06-10T11:28:57Z</time>
      </trkpt>
      <trkpt lat="48.58492" lon="-3.86509">
        <ele>77.5</ele>
        <time>2020-06-10T11:28:58Z</time>
      </trkpt>
      <trkpt lat="48.58492" lon="-3.86508">
        <ele>77.6</ele>
        <time>2020-06-10T11:28:59Z</time>
      </trkpt>
      <trkpt lat="48.58494" lon="-3.86505">
        <ele>77.7</ele>
        <time>2020-06-10T11:29:00Z</time>
      </trkpt>
      <trkpt lat="48.58494" lon="-3.86503">
        <ele>77.8</ele>
        <time>2020-06-10T11:29:01Z</time>
      </trkpt>
      <trkpt lat="48.58495" lon="-3.86501">
        <ele>78</ele>
        <time>2020-06-10T11:29:02Z</time>
      </trkpt>
      <trkpt lat="48.58496" lon="-3.86498">
        <ele>78.1</ele>
        <time>2020-06-10T11:29:03Z</time>
      </trkpt>
      <trkpt lat="48.58498" lon="-3.86495">
        <ele>78.4</ele>
        <time>2020-06-10T11:29:04Z</time>
      </trkpt>
      <trkpt lat="48.58499" lon="-3.86493">
        <ele>78.5</ele>
        <time>2020-06-10T11:29:05Z</time>
      </trkpt>
      <trkpt lat="48.58501" lon="-3.86489">
        <ele>78.7</ele>
        <time>2020-06-10T11:29:06Z</time>
      </trkpt>
      <trkpt lat="48.58501" lon="-3.86488">
        <ele>78.8</ele>
        <time>2020-06-10T11:29:07Z</time>
      </trkpt>
      <trkpt lat="48.58503" lon="-3.86484">
        <ele>79</ele>
        <time>2020-06-10T11:29:08Z</time>
      </trkpt>
      <trkpt lat="48.58503" lon="-3.86483">
        <ele>79.1</ele>
        <time>2020-06-10T11:29:09Z</time>
      </trkpt>
      <trkpt lat="48.58505" lon="-3.8648">
        <ele>79.3</ele>
        <time>2020-06-10T11:29:10Z</time>
      </trkpt>
      <trkpt lat="48.58506" lon="-3.86478">
        <ele>79.4</ele>
        <time>2020-06-10T11:29:11Z</time>
      </trkpt>
      <trkpt lat="48.58507" lon="-3.86476">
        <ele>79.5</ele>
        <time>2020-06-10T11:29:12Z</time>
      </trkpt>
      <trkpt lat="48.58507" lon="-3.86473">
        <ele>79.7</ele>
        <time>2020-06-10T11:29:13Z</time>
      </trkpt>
      <trkpt lat="48.58508" lon="-3.86469">
        <ele>79.9</ele>
        <time>2020-06-10T11:29:14Z</time>
      </trkpt>
      <trkpt lat="48.58508" lon="-3.86468">
        <ele>80</ele>
        <time>2020-06-10T11:29:15Z</time>
      </trkpt>
      <trkpt lat="48.5851" lon="-3.86464">
        <ele>80.2</ele>
        <time>2020-06-10T11:29:16Z</time>
      </trkpt>
      <trkpt lat="48.5851" lon="-3.86462">
        <ele>80.3</ele>
        <time>2020-06-10T11:29:17Z</time>
      </trkpt>
      <trkpt lat="48.58512" lon="-3.86458">
        <ele>80.5</ele>
        <time>2020-06-10T11:29:18Z</time>
      </trkpt>
      <trkpt lat="48.58512" lon="-3.86457">
        <ele>80.6</ele>
        <time>2020-06-10T11:29:19Z</time>
      </trkpt>
      <trkpt lat="48.58514" lon="-3.86454">
        <ele>80.8</ele>
        <time>2020-06-10T11:29:20Z</time>
      </trkpt>
      <trkpt lat="48.58515" lon="-3.86453">
        <ele>80.9</ele>
        <time>2020-06-10T11:29:21Z</time>
      </trkpt>
      <trkpt lat="48.58517" lon="-3.86449">
        <ele>81.1</ele>
        <time>2020-06-10T11:29:22Z</time>
      </trkpt>
      <trkpt lat="48.58518" lon="-3.86448">
        <ele>81.2</ele>
        <time>2020-06-10T11:29:23Z</time>
      </trkpt>
      <trkpt lat="48.58519" lon="-3.86446">
        <ele>81.3</ele>
        <time>2020-06-10T11:29:24Z</time>
      </trkpt>
      <trkpt lat="48.5852" lon="-3.86445">
        <ele>81.4</ele>
        <time>2020-06-10T11:29:25Z</time>
      </trkpt>
      <trkpt lat="48.58521" lon="-3.86441">
        <ele>81.7</ele>
        <time>2020-06-10T11:29:26Z</time>
      </trkpt>
      <trkpt lat="48.58522" lon="-3.8644">
        <ele>81.7</ele>
        <time>2020-06-10T11:29:27Z</time>
      </trkpt>
      <trkpt lat="48.58523" lon="-3.86436">
        <ele>82</ele>
        <time>2020-06-10T11:29:28Z</time>
      </trkpt>
      <trkpt lat="48.58524" lon="-3.86435">
        <ele>82</ele>
        <time>2020-06-10T11:29:29Z</time>
      </trkpt>
      <trkpt lat="48.58526" lon="-3.86431">
        <ele>82.3</ele>
        <time>2020-06-10T11:29:30Z</time>
      </trkpt>
      <trkpt lat="48.58527" lon="-3.86429">
        <ele>82.4</ele>
        <time>2020-06-10T11:29:31Z</time>
      </trkpt>
      <trkpt lat="48.58529" lon="-3.86425">
        <ele>82.6</ele>
        <time>2020-06-10T11:29:32Z</time>
      </trkpt>
      <trkpt lat="48.5853" lon="-3.86424">
        <ele>82.7</ele>
        <time>2020-06-10T11:29:33Z</time>
      </trkpt>
      <trkpt lat="48.58533" lon="-3.86422">
        <ele>83</ele>
        <time>2020-06-10T11:29:34Z</time>
      </trkpt>
      <trkpt lat="48.58533" lon="-3.86421">
        <ele>83</ele>
        <time>2020-06-10T11:29:35Z</time>
      </trkpt>
      <trkpt lat="48.58535" lon="-3.86417">
        <ele>83.2</ele>
        <time>2020-06-10T11:29:36Z</time>
      </trkpt>
      <trkpt lat="48.58536" lon="-3.86415">
        <ele>83.3</ele>
        <time>2020-06-10T11:29:37Z</time>
      </trkpt>
      <trkpt lat="48.58538" lon="-3.86411">
        <ele>83.5</ele>
        <time>2020-06-10T11:29:38Z</time>
      </trkpt>
      <trkpt lat="48.58538" lon="-3.8641">
        <ele>83.6</ele>
        <time>2020-06-10T11:29:39Z</time>
      </trkpt>
      <trkpt lat="48.58541" lon="-3.86407">
        <ele>83.8</ele>
        <time>2020-06-10T11:29:40Z</time>
      </trkpt>
      <trkpt lat="48.58541" lon="-3.86406">
        <ele>83.9</ele>
        <time>2020-06-10T11:29:41Z</time>
      </trkpt>
      <trkpt lat="48.58544" lon="-3.86403">
        <ele>84.1</ele>
        <time>2020-06-10T11:29:42Z</time>
      </trkpt>
      <trkpt lat="48.58544" lon="-3.86402">
        <ele>84.2</ele>
        <time>2020-06-10T11:29:43Z</time>
      </trkpt>
      <trkpt lat="48.58547" lon="-3.864">
        <ele>84.4</ele>
        <time>2020-06-10T11:29:44Z</time>
      </trkpt>
      <trkpt lat="48.58548" lon="-3.86399">
        <ele>84.4</ele>
        <time>2020-06-10T11:29:45Z</time>
      </trkpt>
      <trkpt lat="48.5855" lon="-3.86395">
        <ele>84.6</ele>
        <time>2020-06-10T11:29:46Z</time>
      </trkpt>
      <trkpt lat="48.58551" lon="-3.86394">
        <ele>84.7</ele>
        <time>2020-06-10T11:29:47Z</time>
      </trkpt>
      <trkpt lat="48.58554" lon="-3.8639">
        <ele>84.9</ele>
        <time>2020-06-10T11:29:48Z</time>
      </trkpt>
      <trkpt lat="48.58555" lon="-3.86389">
        <ele>85</ele>
        <time>2020-06-10T11:29:49Z</time>
      </trkpt>
      <trkpt lat="48.58557" lon="-3.86386">
        <ele>85.2</ele>
        <time>2020-06-10T11:29:50Z</time>
      </trkpt>
      <trkpt lat="48.58558" lon="-3.86385">
        <ele>85.3</ele>
        <time>2020-06-10T11:29:51Z</time>
      </trkpt>
      <trkpt lat="48.58561" lon="-3.86382">
        <ele>85.5</ele>
        <time>2020-06-10T11:29:52Z</time>
      </trkpt>
      <trkpt lat="48.58562" lon="-3.8638">
        <ele>85.6</ele>
        <time>2020-06-10T11:29:53Z</time>
      </trkpt>
      <trkpt lat="48.58565" lon="-3.86378">
        <ele>85.8</ele>
        <time>2020-06-10T11:29:54Z</time>
      </trkpt>
      <trkpt lat="48.58566" lon="-3.86377">
        <ele>85.8</ele>
        <time>2020-06-10T11:29:55Z</time>
      </trkpt>
      <trkpt lat="48.58568" lon="-3.86374">
        <ele>86</ele>
        <time>2020-06-10T11:29:56Z</time>
      </trkpt>
      <trkpt lat="48.58569" lon="-3.86373">
        <ele>86.1</ele>
        <time>2020-06-10T11:29:57Z</time>
      </trkpt>
      <trkpt lat="48.58572" lon="-3.86369">
        <ele>86.3</ele>
        <time>2020-06-10T11:29:58Z</time>
      </trkpt>
      <trkpt lat="48.58573" lon="-3.86368">
        <ele>86.4</ele>
        <time>2020-06-10T11:29:59Z</time>
      </trkpt>
      <trkpt lat="48.58576" lon="-3.86366">
        <ele>86.5</ele>
        <time>2020-06-10T11:30:00Z</time>
      </trkpt>
      <trkpt lat="48.58576" lon="-3.86365">
        <ele>86.6</ele>
        <time>2020-06-10T11:30:01Z</time>
      </trkpt>
      <trkpt lat="48.58579" lon="-3.86362">
        <ele>86.8</ele>
        <time>2020-06-10T11:30:02Z</time>
      </trkpt>
      <trkpt lat="48.5858" lon="-3.86362">
        <ele>86.8</ele>
        <time>2020-06-10T11:30:03Z</time>
      </trkpt>
      <trkpt lat="48.58583" lon="-3.86359">
        <ele>87</ele>
        <time>2020-06-10T11:30:04Z</time>
      </trkpt>
      <trkpt lat="48.58584" lon="-3.86357">
        <ele>87.1</ele>
        <time>2020-06-10T11:30:05Z</time>
      </trkpt>
      <trkpt lat="48.58586" lon="-3.86354">
        <ele>87.2</ele>
        <time>2020-06-10T11:30:06Z</time>
      </trkpt>
      <trkpt lat="48.58589" lon="-3.86352">
        <ele>87.4</ele>
        <time>2020-06-10T11:30:07Z</time>
      </trkpt>
      <trkpt lat="48.5859" lon="-3.86351">
        <ele>87.4</ele>
        <time>2020-06-10T11:30:08Z</time>
      </trkpt>
      <trkpt lat="48.58593" lon="-3.86349">
        <ele>87.6</ele>
        <time>2020-06-10T11:30:09Z</time>
      </trkpt>
      <trkpt lat="48.58593" lon="-3.86348">
        <ele>87.6</ele>
        <time>2020-06-10T11:30:10Z</time>
      </trkpt>
      <trkpt lat="48.58596" lon="-3.86346">
        <ele>87.7</ele>
        <time>2020-06-10T11:30:11Z</time>
      </trkpt>
      <trkpt lat="48.58598" lon="-3.86346">
        <ele>87.8</ele>
        <time>2020-06-10T11:30:12Z</time>
      </trkpt>
      <trkpt lat="48.58601" lon="-3.86345">
        <ele>87.9</ele>
        <time>2020-06-10T11:30:13Z</time>
      </trkpt>
      <trkpt lat="48.58602" lon="-3.86344">
        <ele>88</ele>
        <time>2020-06-10T11:30:14Z</time>
      </trkpt>
      <trkpt lat="48.58604" lon="-3.86341">
        <ele>88.1</ele>
        <time>2020-06-10T11:30:15Z</time>
      </trkpt>
      <trkpt lat="48.58605" lon="-3.8634">
        <ele>88.2</ele>
        <time>2020-06-10T11:30:16Z</time>
      </trkpt>
      <trkpt lat="48.58608" lon="-3.86337">
        <ele>88.3</ele>
        <time>2020-06-10T11:30:17Z</time>
      </trkpt>
      <trkpt lat="48.58609" lon="-3.86336">
        <ele>88.4</ele>
        <time>2020-06-10T11:30:18Z</time>
      </trkpt>
      <trkpt lat="48.58611" lon="-3.86332">
        <ele>88.5</ele>
        <time>2020-06-10T11:30:19Z</time>
      </trkpt>
      <trkpt lat="48.58612" lon="-3.86331">
        <ele>88.6</ele>
        <time>2020-06-10T11:30:20Z</time>
      </trkpt>
      <trkpt lat="48.58613" lon="-3.8633">
        <ele>88.6</ele>
        <time>2020-06-10T11:30:21Z</time>
      </trkpt>
      <trkpt lat="48.58614" lon="-3.86328">
        <ele>88.7</ele>
        <time>2020-06-10T11:30:22Z</time>
      </trkpt>
      <trkpt lat="48.58615" lon="-3.86326">
        <ele>88.8</ele>
        <time>2020-06-10T11:30:23Z</time>
      </trkpt>
      <trkpt lat="48.58616" lon="-3.86324">
        <ele>88.8</ele>
        <time>2020-06-10T11:30:24Z</time>
      </trkpt>
      <trkpt lat="48.58616" lon="-3.86323">
        <ele>88.8</ele>
        <time>2020-06-10T11:30:25Z</time>
      </trkpt>
      <trkpt lat="48.58616" lon="-3.86321">
        <ele>88.9</ele>
        <time>2020-06-10T11:30:26Z</time>
      </trkpt>
      <trkpt lat="48.58617" lon="-3.8632">
        <ele>88.9</ele>
        <time>2020-06-10T11:30:27Z</time>
      </trkpt>
      <trkpt lat="48.58618" lon="-3.8632">
        <ele>88.9</ele>
        <time>2020-06-10T11:30:28Z</time>
      </trkpt>
      <trkpt lat="48.58618" lon="-3.8632">
        <ele>89</ele>
        <time>2020-06-10T11:30:29Z</time>
      </trkpt>
      <trkpt lat="48.58618" lon="-3.86319">
        <ele>89</ele>
        <time>2020-06-10T11:30:30Z</time>
      </trkpt>
      <trkpt lat="48.58617" lon="-3.86318">
        <ele>89</ele>
        <time>2020-06-10T11:30:31Z</time>
      </trkpt>
      <trkpt lat="48.58617" lon="-3.86317">
        <ele>89</ele>
        <time>2020-06-10T11:30:32Z</time>
      </trkpt>
      <trkpt lat="48.58617" lon="-3.86315">
        <ele>89</ele>
        <time>2020-06-10T11:30:33Z</time>
      </trkpt>
      <trkpt lat="48.58617" lon="-3.86314">
        <ele>89</ele>
        <time>2020-06-10T11:30:34Z</time>
      </trkpt>
      <trkpt lat="48.58616" lon="-3.86313">
        <ele>89</ele>
        <time>2020-06-10T11:30:35Z</time>
      </trkpt>
      <trkpt lat="48.58616" lon="-3.86312">
        <ele>89</ele>
        <time>2020-06-10T11:30:36Z</time>
      </trkpt>
      <trkpt lat="48.58616" lon="-3.86311">
        <ele>89</ele>
        <time>2020-06-10T11:30:37Z</time>
      </trkpt>
      <trkpt lat="48.58616" lon="-3.8631">
        <ele>89</ele>
        <time>2020-06-10T11:30:38Z</time>
      </trkpt>
      <trkpt lat="48.58615" lon="-3.86309">
        <ele>89</ele>
        <time>2020-06-10T11:33:30Z</time>
      </trkpt>
      <trkpt lat="48.58615" lon="-3.86308">
        <ele>89</ele>
        <time>2020-06-10T11:33:31Z</time>
      </trkpt>
      <trkpt lat="48.58615" lon="-3.86307">
        <ele>89</ele>
        <time>2020-06-10T11:33:32Z</time>
      </trkpt>
      <trkpt lat="48.58613" lon="-3.86304">
        <ele>89</ele>
        <time>2020-06-10T11:33:33Z</time>
      </trkpt>
      <trkpt lat="48.58612" lon="-3.86303">
        <ele>89</ele>
        <time>2020-06-10T11:33:34Z</time>
      </trkpt>
      <trkpt lat="48.58609" lon="-3.863">
        <ele>89.1</ele>
        <time>2020-06-10T11:33:35Z</time>
      </trkpt>
      <trkpt lat="48.58608" lon="-3.86298">
        <ele>89.1</ele>
        <time>2020-06-10T11:33:36Z</time>
      </trkpt>
      <trkpt lat="48.58606" lon="-3.86295">
        <ele>89.1</ele>
        <time>2020-06-10T11:33:37Z</time>
      </trkpt>
      <trkpt lat="48.58604" lon="-3.86291">
        <ele>89.1</ele>
        <time>2020-06-10T11:33:38Z</time>
      </trkpt>
      <trkpt lat="48.58602" lon="-3.86286">
        <ele>89.1</ele>
        <time>2020-06-10T11:33:39Z</time>
      </trkpt>
      <trkpt lat="48.58601" lon="-3.86281">
        <ele>89.2</ele>
        <time>2020-06-10T11:33:40Z</time>
      </trkpt>
      <trkpt lat="48.58599" lon="-3.86277">
        <ele>89.2</ele>
        <time>2020-06-10T11:33:41Z</time>
      </trkpt>
      <trkpt lat="48.58597" lon="-3.86273">
        <ele>89.2</ele>
        <time>2020-06-10T11:33:42Z</time>
      </trkpt>
      <trkpt lat="48.58595" lon="-3.86268">
        <ele>89.2</ele>
        <time>2020-06-10T11:33:43Z</time>
      </trkpt>
      <trkpt lat="48.58594" lon="-3.86264">
        <ele>89.2</ele>
        <time>2020-06-10T11:33:44Z</time>
      </trkpt>
      <trkpt lat="48.58592" lon="-3.86258">
        <ele>89.1</ele>
        <time>2020-06-10T11:33:45Z</time>
      </trkpt>
      <trkpt lat="48.58589" lon="-3.86253">
        <ele>89.1</ele>
        <time>2020-06-10T11:33:46Z</time>
      </trkpt>
      <trkpt lat="48.58587" lon="-3.86249">
        <ele>89.1</ele>
        <time>2020-06-10T11:33:47Z</time>
      </trkpt>
      <trkpt lat="48.58585" lon="-3.86244">
        <ele>89.1</ele>
        <time>2020-06-10T11:33:48Z</time>
      </trkpt>
      <trkpt lat="48.58583" lon="-3.86238">
        <ele>89.2</ele>
        <time>2020-06-10T11:33:49Z</time>
      </trkpt>
      <trkpt lat="48.58579" lon="-3.86231">
        <ele>89.2</ele>
        <time>2020-06-10T11:33:50Z</time>
      </trkpt>
      <trkpt lat="48.58576" lon="-3.86226">
        <ele>89.2</ele>
        <time>2020-06-10T11:33:51Z</time>
      </trkpt>
      <trkpt lat="48.58574" lon="-3.8622">
        <ele>89.2</ele>
        <time>2020-06-10T11:33:52Z</time>
      </trkpt>
      <trkpt lat="48.58572" lon="-3.86215">
        <ele>89.2</ele>
        <time>2020-06-10T11:33:53Z</time>
      </trkpt>
      <trkpt lat="48.5857" lon="-3.86211">
        <ele>89.2</ele>
        <time>2020-06-10T11:33:54Z</time>
      </trkpt>
      <trkpt lat="48.58567" lon="-3.86206">
        <ele>89.2</ele>
        <time>2020-06-10T11:33:55Z</time>
      </trkpt>
      <trkpt lat="48.58565" lon="-3.862">
        <ele>89.2</ele>
        <time>2020-06-10T11:33:56Z</time>
      </trkpt>
      <trkpt lat="48.58563" lon="-3.86195">
        <ele>89.2</ele>
        <time>2020-06-10T11:33:57Z</time>
      </trkpt>
      <trkpt lat="48.58561" lon="-3.86189">
        <ele>89.2</ele>
        <time>2020-06-10T11:33:58Z</time>
      </trkpt>
      <trkpt lat="48.58558" lon="-3.86182">
        <ele>89.2</ele>
        <time>2020-06-10T11:33:59Z</time>
      </trkpt>
      <trkpt lat="48.58556" lon="-3.86177">
        <ele>89.2</ele>
        <time>2020-06-10T11:34:00Z</time>
      </trkpt>
      <trkpt lat="48.58553" lon="-3.86171">
        <ele>89.2</ele>
        <time>2020-06-10T11:34:01Z</time>
      </trkpt>
      <trkpt lat="48.5855" lon="-3.86166">
        <ele>89.2</ele>
        <time>2020-06-10T11:34:02Z</time>
      </trkpt>
      <trkpt lat="48.58548" lon="-3.8616">
        <ele>89.3</ele>
        <time>2020-06-10T11:34:03Z</time>
      </trkpt>
      <trkpt lat="48.58546" lon="-3.86154">
        <ele>89.3</ele>
        <time>2020-06-10T11:34:04Z</time>
      </trkpt>
      <trkpt lat="48.58543" lon="-3.86149">
        <ele>89.3</ele>
        <time>2020-06-10T11:34:05Z</time>
      </trkpt>
      <trkpt lat="48.5854" lon="-3.86144">
        <ele>89.3</ele>
        <time>2020-06-10T11:34:06Z</time>
      </trkpt>
      <trkpt lat="48.58537" lon="-3.86138">
        <ele>89.3</ele>
        <time>2020-06-10T11:34:07Z</time>
      </trkpt>
      <trkpt lat="48.58534" lon="-3.86134">
        <ele>89.3</ele>
        <time>2020-06-10T11:34:08Z</time>
      </trkpt>
      <trkpt lat="48.58532" lon="-3.86128">
        <ele>89.3</ele>
        <time>2020-06-10T11:34:09Z</time>
      </trkpt>
      <trkpt lat="48.58529" lon="-3.86123">
        <ele>89.3</ele>
        <time>2020-06-10T11:34:10Z</time>
      </trkpt>
      <trkpt lat="48.58526" lon="-3.8612">
        <ele>89.3</ele>
        <time>2020-06-10T11:34:11Z</time>
      </trkpt>
      <trkpt lat="48.58523" lon="-3.86115">
        <ele>89.3</ele>
        <time>2020-06-10T11:34:12Z</time>
      </trkpt>
      <trkpt lat="48.58519" lon="-3.8611">
        <ele>89.2</ele>
        <time>2020-06-10T11:34:13Z</time>
      </trkpt>
      <trkpt lat="48.58516" lon="-3.86106">
        <ele>89.2</ele>
        <time>2020-06-10T11:34:14Z</time>
      </trkpt>
      <trkpt lat="48.58512" lon="-3.861">
        <ele>89.2</ele>
        <time>2020-06-10T11:34:15Z</time>
      </trkpt>
      <trkpt lat="48.58509" lon="-3.86095">
        <ele>89.1</ele>
        <time>2020-06-10T11:34:16Z</time>
      </trkpt>
      <trkpt lat="48.58505" lon="-3.86091">
        <ele>89</ele>
        <time>2020-06-10T11:34:17Z</time>
      </trkpt>
      <trkpt lat="48.58502" lon="-3.86086">
        <ele>88.9</ele>
        <time>2020-06-10T11:34:18Z</time>
      </trkpt>
      <trkpt lat="48.58499" lon="-3.86081">
        <ele>88.8</ele>
        <time>2020-06-10T11:34:19Z</time>
      </trkpt>
      <trkpt lat="48.58497" lon="-3.86076">
        <ele>88.8</ele>
        <time>2020-06-10T11:34:20Z</time>
      </trkpt>
      <trkpt lat="48.58494" lon="-3.86071">
        <ele>88.7</ele>
        <time>2020-06-10T11:34:21Z</time>
      </trkpt>
      <trkpt lat="48.58491" lon="-3.86065">
        <ele>88.6</ele>
        <time>2020-06-10T11:34:22Z</time>
      </trkpt>
      <trkpt lat="48.58488" lon="-3.8606">
        <ele>88.5</ele>
        <time>2020-06-10T11:34:23Z</time>
      </trkpt>
      <trkpt lat="48.58485" lon="-3.86053">
        <ele>88.3</ele>
        <time>2020-06-10T11:34:24Z</time>
      </trkpt>
      <trkpt lat="48.58482" lon="-3.86047">
        <ele>88.3</ele>
        <time>2020-06-10T11:34:25Z</time>
      </trkpt>
      <trkpt lat="48.58479" lon="-3.86042">
        <ele>88.2</ele>
        <time>2020-06-10T11:34:26Z</time>
      </trkpt>
      <trkpt lat="48.58475" lon="-3.86036">
        <ele>88.1</ele>
        <time>2020-06-10T11:34:27Z</time>
      </trkpt>
      <trkpt lat="48.58471" lon="-3.86032">
        <ele>88</ele>
        <time>2020-06-10T11:34:28Z</time>
      </trkpt>
      <trkpt lat="48.58467" lon="-3.86026">
        <ele>87.9</ele>
        <time>2020-06-10T11:34:29Z</time>
      </trkpt>
      <trkpt lat="48.58464" lon="-3.86019">
        <ele>87.9</ele>
        <time>2020-06-10T11:34:30Z</time>
      </trkpt>
      <trkpt lat="48.5846" lon="-3.86014">
        <ele>87.8</ele>
        <time>2020-06-10T11:34:31Z</time>
      </trkpt>
      <trkpt lat="48.58456" lon="-3.8601">
        <ele>87.8</ele>
        <time>2020-06-10T11:34:32Z</time>
      </trkpt>
      <trkpt lat="48.58452" lon="-3.86006">
        <ele>87.7</ele>
        <time>2020-06-10T11:34:33Z</time>
      </trkpt>
      <trkpt lat="48.58449" lon="-3.86002">
        <ele>87.6</ele>
        <time>2020-06-10T11:34:34Z</time>
      </trkpt>
      <trkpt lat="48.58445" lon="-3.85997">
        <ele>87.5</ele>
        <time>2020-06-10T11:34:35Z</time>
      </trkpt>
      <trkpt lat="48.58441" lon="-3.85993">
        <ele>87.5</ele>
        <time>2020-06-10T11:34:36Z</time>
      </trkpt>
      <trkpt lat="48.58438" lon="-3.85988">
        <ele>87.4</ele>
        <time>2020-06-10T11:34:37Z</time>
      </trkpt>
      <trkpt lat="48.58434" lon="-3.85987">
        <ele>87.3</ele>
        <time>2020-06-10T11:34:38Z</time>
      </trkpt>
      <trkpt lat="48.58431" lon="-3.85983">
        <ele>87.3</ele>
        <time>2020-06-10T11:34:39Z</time>
      </trkpt>
      <trkpt lat="48.58429" lon="-3.85979">
        <ele>87.3</ele>
        <time>2020-06-10T11:34:40Z</time>
      </trkpt>
      <trkpt lat="48.58426" lon="-3.85976">
        <ele>87.2</ele>
        <time>2020-06-10T11:34:41Z</time>
      </trkpt>
      <trkpt lat="48.58423" lon="-3.85973">
        <ele>87.2</ele>
        <time>2020-06-10T11:34:42Z</time>
      </trkpt>
      <trkpt lat="48.5842" lon="-3.8597">
        <ele>87.2</ele>
        <time>2020-06-10T11:34:43Z</time>
      </trkpt>
      <trkpt lat="48.58416" lon="-3.85967">
        <ele>87.1</ele>
        <time>2020-06-10T11:34:44Z</time>
      </trkpt>
      <trkpt lat="48.58413" lon="-3.85965">
        <ele>87.1</ele>
        <time>2020-06-10T11:34:45Z</time>
      </trkpt>
      <trkpt lat="48.5841" lon="-3.85963">
        <ele>87</ele>
        <time>2020-06-10T11:34:46Z</time>
      </trkpt>
      <trkpt lat="48.58407" lon="-3.85962">
        <ele>86.9</ele>
        <time>2020-06-10T11:34:47Z</time>
      </trkpt>
      <trkpt lat="48.58403" lon="-3.8596">
        <ele>86.8</ele>
        <time>2020-06-10T11:34:48Z</time>
      </trkpt>
      <trkpt lat="48.584" lon="-3.8596">
        <ele>86.7</ele>
        <time>2020-06-10T11:34:49Z</time>
      </trkpt>
      <trkpt lat="48.58397" lon="-3.85958">
        <ele>86.6</ele>
        <time>2020-06-10T11:34:50Z</time>
      </trkpt>
      <trkpt lat="48.58394" lon="-3.85955">
        <ele>86.5</ele>
        <time>2020-06-10T11:34:51Z</time>
      </trkpt>
      <trkpt lat="48.58391" lon="-3.85953">
        <ele>86.4</ele>
        <time>2020-06-10T11:34:52Z</time>
      </trkpt>
      <trkpt lat="48.58388" lon="-3.85951">
        <ele>86.3</ele>
        <time>2020-06-10T11:34:53Z</time>
      </trkpt>
      <trkpt lat="48.58384" lon="-3.8595">
        <ele>86.2</ele>
        <time>2020-06-10T11:34:54Z</time>
      </trkpt>
      <trkpt lat="48.58381" lon="-3.85948">
        <ele>86.1</ele>
        <time>2020-06-10T11:34:55Z</time>
      </trkpt>
      <trkpt lat="48.58376" lon="-3.85946">
        <ele>86</ele>
        <time>2020-06-10T11:34:56Z</time>
      </trkpt>
      <trkpt lat="48.58372" lon="-3.85944">
        <ele>85.9</ele>
        <time>2020-06-10T11:34:57Z</time>
      </trkpt>
      <trkpt lat="48.58368" lon="-3.85942">
        <ele>85.8</ele>
        <time>2020-06-10T11:34:58Z</time>
      </trkpt>
      <trkpt lat="48.58365" lon="-3.8594">
        <ele>85.7</ele>
        <time>2020-06-10T11:34:59Z</time>
      </trkpt>
      <trkpt lat="48.5836" lon="-3.85937">
        <ele>85.6</ele>
        <time>2020-06-10T11:35:00Z</time>
      </trkpt>
      <trkpt lat="48.58356" lon="-3.85934">
        <ele>85.5</ele>
        <time>2020-06-10T11:35:01Z</time>
      </trkpt>
      <trkpt lat="48.58351" lon="-3.85931">
        <ele>85.5</ele>
        <time>2020-06-10T11:35:02Z</time>
      </trkpt>
      <trkpt lat="48.58347" lon="-3.85927">
        <ele>85.4</ele>
        <time>2020-06-10T11:35:03Z</time>
      </trkpt>
      <trkpt lat="48.58342" lon="-3.85923">
        <ele>85.4</ele>
        <time>2020-06-10T11:35:04Z</time>
      </trkpt>
      <trkpt lat="48.58339" lon="-3.85919">
        <ele>85.4</ele>
        <time>2020-06-10T11:35:05Z</time>
      </trkpt>
      <trkpt lat="48.58334" lon="-3.85914">
        <ele>85.5</ele>
        <time>2020-06-10T11:35:06Z</time>
      </trkpt>
      <trkpt lat="48.5833" lon="-3.85911">
        <ele>85.5</ele>
        <time>2020-06-10T11:35:07Z</time>
      </trkpt>
      <trkpt lat="48.58327" lon="-3.85907">
        <ele>85.5</ele>
        <time>2020-06-10T11:35:08Z</time>
      </trkpt>
      <trkpt lat="48.58324" lon="-3.85905">
        <ele>85.5</ele>
        <time>2020-06-10T11:35:09Z</time>
      </trkpt>
      <trkpt lat="48.5832" lon="-3.85902">
        <ele>85.6</ele>
        <time>2020-06-10T11:35:10Z</time>
      </trkpt>
      <trkpt lat="48.58316" lon="-3.85899">
        <ele>85.6</ele>
        <time>2020-06-10T11:35:11Z</time>
      </trkpt>
      <trkpt lat="48.58313" lon="-3.85895">
        <ele>85.6</ele>
        <time>2020-06-10T11:35:12Z</time>
      </trkpt>
      <trkpt lat="48.5831" lon="-3.85891">
        <ele>85.6</ele>
        <time>2020-06-10T11:35:13Z</time>
      </trkpt>
      <trkpt lat="48.58307" lon="-3.85886">
        <ele>85.6</ele>
        <time>2020-06-10T11:35:14Z</time>
      </trkpt>
      <trkpt lat="48.58303" lon="-3.85881">
        <ele>85.6</ele>
        <time>2020-06-10T11:35:15Z</time>
      </trkpt>
      <trkpt lat="48.58299" lon="-3.85877">
        <ele>85.7</ele>
        <time>2020-06-10T11:35:16Z</time>
      </trkpt>
      <trkpt lat="48.58296" lon="-3.85872">
        <ele>85.7</ele>
        <time>2020-06-10T11:35:17Z</time>
      </trkpt>
      <trkpt lat="48.58293" lon="-3.85867">
        <ele>85.7</ele>
        <time>2020-06-10T11:35:18Z</time>
      </trkpt>
      <trkpt lat="48.5829" lon="-3.85863">
        <ele>85.7</ele>
        <time>2020-06-10T11:35:19Z</time>
      </trkpt>
      <trkpt lat="48.58287" lon="-3.85859">
        <ele>85.7</ele>
        <time>2020-06-10T11:35:20Z</time>
      </trkpt>
      <trkpt lat="48.58284" lon="-3.85854">
        <ele>85.7</ele>
        <time>2020-06-10T11:35:21Z</time>
      </trkpt>
      <trkpt lat="48.58282" lon="-3.8585">
        <ele>85.7</ele>
        <time>2020-06-10T11:35:22Z</time>
      </trkpt>
      <trkpt lat="48.58278" lon="-3.85845">
        <ele>85.7</ele>
        <time>2020-06-10T11:35:23Z</time>
      </trkpt>
      <trkpt lat="48.58275" lon="-3.85841">
        <ele>85.7</ele>
        <time>2020-06-10T11:35:24Z</time>
      </trkpt>
      <trkpt lat="48.58273" lon="-3.85837">
        <ele>85.7</ele>
        <time>2020-06-10T11:35:25Z</time>
      </trkpt>
      <trkpt lat="48.5827" lon="-3.85832">
        <ele>85.7</ele>
        <time>2020-06-10T11:35:26Z</time>
      </trkpt>
      <trkpt lat="48.58268" lon="-3.85827">
        <ele>85.7</ele>
        <time>2020-06-10T11:35:27Z</time>
      </trkpt>
      <trkpt lat="48.58265" lon="-3.85823">
        <ele>85.7</ele>
        <time>2020-06-10T11:35:28Z</time>
      </trkpt>
      <trkpt lat="48.58261" lon="-3.85819">
        <ele>85.7</ele>
        <time>2020-06-10T11:35:29Z</time>
      </trkpt>
      <trkpt lat="48.58258" lon="-3.85815">
        <ele>85.7</ele>
        <time>2020-06-10T11:35:30Z</time>
      </trkpt>
      <trkpt lat="48.58255" lon="-3.85812">
        <ele>85.7</ele>
        <time>2020-06-10T11:35:31Z</time>
      </trkpt>
      <trkpt lat="48.58251" lon="-3.85809">
        <ele>85.7</ele>
        <time>2020-06-10T11:35:32Z</time>
      </trkpt>
      <trkpt lat="48.58248" lon="-3.85806">
        <ele>85.7</ele>
        <time>2020-06-10T11:35:33Z</time>
      </trkpt>
      <trkpt lat="48.58244" lon="-3.85803">
        <ele>85.7</ele>
        <time>2020-06-10T11:35:34Z</time>
      </trkpt>
      <trkpt lat="48.5824" lon="-3.858">
        <ele>85.7</ele>
        <time>2020-06-10T11:35:35Z</time>
      </trkpt>
      <trkpt lat="48.58236" lon="-3.85797">
        <ele>85.7</ele>
        <time>2020-06-10T11:35:36Z</time>
      </trkpt>
      <trkpt lat="48.58232" lon="-3.85793">
        <ele>85.7</ele>
        <time>2020-06-10T11:35:37Z</time>
      </trkpt>
      <trkpt lat="48.58229" lon="-3.85791">
        <ele>85.7</ele>
        <time>2020-06-10T11:35:38Z</time>
      </trkpt>
      <trkpt lat="48.58225" lon="-3.85787">
        <ele>85.7</ele>
        <time>2020-06-10T11:35:39Z</time>
      </trkpt>
      <trkpt lat="48.58221" lon="-3.85784">
        <ele>85.7</ele>
        <time>2020-06-10T11:35:40Z</time>
      </trkpt>
      <trkpt lat="48.58218" lon="-3.85781">
        <ele>85.7</ele>
        <time>2020-06-10T11:35:41Z</time>
      </trkpt>
      <trkpt lat="48.58214" lon="-3.85777">
        <ele>85.7</ele>
        <time>2020-06-10T11:35:42Z</time>
      </trkpt>
      <trkpt lat="48.58209" lon="-3.85774">
        <ele>85.8</ele>
        <time>2020-06-10T11:35:43Z</time>
      </trkpt>
      <trkpt lat="48.58205" lon="-3.85771">
        <ele>85.8</ele>
        <time>2020-06-10T11:35:44Z</time>
      </trkpt>
      <trkpt lat="48.58201" lon="-3.85768">
        <ele>85.9</ele>
        <time>2020-06-10T11:35:45Z</time>
      </trkpt>
      <trkpt lat="48.58196" lon="-3.85765">
        <ele>85.9</ele>
        <time>2020-06-10T11:35:46Z</time>
      </trkpt>
      <trkpt lat="48.58193" lon="-3.85761">
        <ele>86</ele>
        <time>2020-06-10T11:35:47Z</time>
      </trkpt>
      <trkpt lat="48.58189" lon="-3.8576">
        <ele>86.1</ele>
        <time>2020-06-10T11:35:48Z</time>
      </trkpt>
      <trkpt lat="48.58185" lon="-3.85757">
        <ele>86.1</ele>
        <time>2020-06-10T11:35:49Z</time>
      </trkpt>
      <trkpt lat="48.58181" lon="-3.85755">
        <ele>86.2</ele>
        <time>2020-06-10T11:35:50Z</time>
      </trkpt>
      <trkpt lat="48.58176" lon="-3.85751">
        <ele>86.3</ele>
        <time>2020-06-10T11:35:51Z</time>
      </trkpt>
      <trkpt lat="48.58172" lon="-3.85749">
        <ele>86.4</ele>
        <time>2020-06-10T11:35:52Z</time>
      </trkpt>
      <trkpt lat="48.58168" lon="-3.85745">
        <ele>86.4</ele>
        <time>2020-06-10T11:35:53Z</time>
      </trkpt>
      <trkpt lat="48.58164" lon="-3.85743">
        <ele>86.5</ele>
        <time>2020-06-10T11:35:54Z</time>
      </trkpt>
      <trkpt lat="48.58161" lon="-3.85741">
        <ele>86.6</ele>
        <time>2020-06-10T11:35:55Z</time>
      </trkpt>
      <trkpt lat="48.58158" lon="-3.85738">
        <ele>86.7</ele>
        <time>2020-06-10T11:35:56Z</time>
      </trkpt>
      <trkpt lat="48.58155" lon="-3.85736">
        <ele>86.7</ele>
        <time>2020-06-10T11:35:57Z</time>
      </trkpt>
      <trkpt lat="48.58152" lon="-3.85734">
        <ele>86.8</ele>
        <time>2020-06-10T11:35:58Z</time>
      </trkpt>
      <trkpt lat="48.58149" lon="-3.85731">
        <ele>86.9</ele>
        <time>2020-06-10T11:35:59Z</time>
      </trkpt>
      <trkpt lat="48.58146" lon="-3.85728">
        <ele>87</ele>
        <time>2020-06-10T11:36:00Z</time>
      </trkpt>
      <trkpt lat="48.58145" lon="-3.85725">
        <ele>87</ele>
        <time>2020-06-10T11:36:01Z</time>
      </trkpt>
      <trkpt lat="48.58144" lon="-3.85719">
        <ele>87.1</ele>
        <time>2020-06-10T11:36:02Z</time>
      </trkpt>
      <trkpt lat="48.58145" lon="-3.85712">
        <ele>87.3</ele>
        <time>2020-06-10T11:36:03Z</time>
      </trkpt>
      <trkpt lat="48.58147" lon="-3.85706">
        <ele>87.4</ele>
        <time>2020-06-10T11:36:04Z</time>
      </trkpt>
      <trkpt lat="48.58149" lon="-3.857">
        <ele>87.6</ele>
        <time>2020-06-10T11:36:05Z</time>
      </trkpt>
      <trkpt lat="48.58151" lon="-3.85694">
        <ele>87.8</ele>
        <time>2020-06-10T11:36:06Z</time>
      </trkpt>
      <trkpt lat="48.58152" lon="-3.85691">
        <ele>87.8</ele>
        <time>2020-06-10T11:36:07Z</time>
      </trkpt>
      <trkpt lat="48.58153" lon="-3.85686">
        <ele>88</ele>
        <time>2020-06-10T11:36:08Z</time>
      </trkpt>
      <trkpt lat="48.58154" lon="-3.85679">
        <ele>88.2</ele>
        <time>2020-06-10T11:36:09Z</time>
      </trkpt>
      <trkpt lat="48.58155" lon="-3.85674">
        <ele>88.4</ele>
        <time>2020-06-10T11:36:10Z</time>
      </trkpt>
      <trkpt lat="48.58155" lon="-3.85668">
        <ele>88.6</ele>
        <time>2020-06-10T11:36:11Z</time>
      </trkpt>
      <trkpt lat="48.58156" lon="-3.85664">
        <ele>88.7</ele>
        <time>2020-06-10T11:36:12Z</time>
      </trkpt>
      <trkpt lat="48.58157" lon="-3.85658">
        <ele>88.9</ele>
        <time>2020-06-10T11:36:13Z</time>
      </trkpt>
      <trkpt lat="48.58158" lon="-3.85653">
        <ele>89</ele>
        <time>2020-06-10T11:36:14Z</time>
      </trkpt>
      <trkpt lat="48.58159" lon="-3.85649">
        <ele>89.2</ele>
        <time>2020-06-10T11:36:15Z</time>
      </trkpt>
      <trkpt lat="48.5816" lon="-3.85644">
        <ele>89.3</ele>
        <time>2020-06-10T11:36:16Z</time>
      </trkpt>
      <trkpt lat="48.5816" lon="-3.8564">
        <ele>89.4</ele>
        <time>2020-06-10T11:36:17Z</time>
      </trkpt>
      <trkpt lat="48.5816" lon="-3.85635">
        <ele>89.5</ele>
        <time>2020-06-10T11:36:18Z</time>
      </trkpt>
      <trkpt lat="48.58161" lon="-3.85631">
        <ele>89.6</ele>
        <time>2020-06-10T11:36:19Z</time>
      </trkpt>
      <trkpt lat="48.58161" lon="-3.85626">
        <ele>89.7</ele>
        <time>2020-06-10T11:36:20Z</time>
      </trkpt>
      <trkpt lat="48.58162" lon="-3.85622">
        <ele>89.9</ele>
        <time>2020-06-10T11:36:21Z</time>
      </trkpt>
      <trkpt lat="48.58164" lon="-3.85616">
        <ele>90</ele>
        <time>2020-06-10T11:36:22Z</time>
      </trkpt>
      <trkpt lat="48.58165" lon="-3.85611">
        <ele>90.1</ele>
        <time>2020-06-10T11:36:23Z</time>
      </trkpt>
      <trkpt lat="48.58165" lon="-3.85607">
        <ele>90.2</ele>
        <time>2020-06-10T11:36:24Z</time>
      </trkpt>
      <trkpt lat="48.58166" lon="-3.85603">
        <ele>90.2</ele>
        <time>2020-06-10T11:36:25Z</time>
      </trkpt>
      <trkpt lat="48.58165" lon="-3.856">
        <ele>90.4</ele>
        <time>2020-06-10T11:36:26Z</time>
      </trkpt>
      <trkpt lat="48.58164" lon="-3.85597">
        <ele>90.4</ele>
        <time>2020-06-10T11:36:27Z</time>
      </trkpt>
      <trkpt lat="48.58161" lon="-3.85595">
        <ele>90.4</ele>
        <time>2020-06-10T11:36:28Z</time>
      </trkpt>
      <trkpt lat="48.58159" lon="-3.85594">
        <ele>90.4</ele>
        <time>2020-06-10T11:36:29Z</time>
      </trkpt>
      <trkpt lat="48.58156" lon="-3.85594">
        <ele>90.4</ele>
        <time>2020-06-10T11:36:30Z</time>
      </trkpt>
      <trkpt lat="48.58153" lon="-3.85592">
        <ele>90.4</ele>
        <time>2020-06-10T11:36:31Z</time>
      </trkpt>
      <trkpt lat="48.58149" lon="-3.85591">
        <ele>90.4</ele>
        <time>2020-06-10T11:36:32Z</time>
      </trkpt>
      <trkpt lat="48.58145" lon="-3.85589">
        <ele>90.4</ele>
        <time>2020-06-10T11:36:33Z</time>
      </trkpt>
      <trkpt lat="48.58142" lon="-3.85588">
        <ele>90.4</ele>
        <time>2020-06-10T11:36:34Z</time>
      </trkpt>
      <trkpt lat="48.58138" lon="-3.85587">
        <ele>90.4</ele>
        <time>2020-06-10T11:36:35Z</time>
      </trkpt>
      <trkpt lat="48.58134" lon="-3.85585">
        <ele>90.4</ele>
        <time>2020-06-10T11:36:36Z</time>
      </trkpt>
      <trkpt lat="48.5813" lon="-3.85584">
        <ele>90.3</ele>
        <time>2020-06-10T11:36:37Z</time>
      </trkpt>
      <trkpt lat="48.58127" lon="-3.85583">
        <ele>90.3</ele>
        <time>2020-06-10T11:36:38Z</time>
      </trkpt>
      <trkpt lat="48.58122" lon="-3.85581">
        <ele>90.2</ele>
        <time>2020-06-10T11:36:39Z</time>
      </trkpt>
      <trkpt lat="48.58117" lon="-3.85582">
        <ele>90.2</ele>
        <time>2020-06-10T11:36:40Z</time>
      </trkpt>
      <trkpt lat="48.58113" lon="-3.8558">
        <ele>90.1</ele>
        <time>2020-06-10T11:36:41Z</time>
      </trkpt>
      <trkpt lat="48.5811" lon="-3.85578">
        <ele>90.1</ele>
        <time>2020-06-10T11:36:42Z</time>
      </trkpt>
      <trkpt lat="48.58106" lon="-3.85575">
        <ele>90</ele>
        <time>2020-06-10T11:36:43Z</time>
      </trkpt>
      <trkpt lat="48.58103" lon="-3.85573">
        <ele>90</ele>
        <time>2020-06-10T11:36:44Z</time>
      </trkpt>
      <trkpt lat="48.58099" lon="-3.85572">
        <ele>90</ele>
        <time>2020-06-10T11:36:45Z</time>
      </trkpt>
      <trkpt lat="48.58095" lon="-3.85569">
        <ele>89.9</ele>
        <time>2020-06-10T11:36:46Z</time>
      </trkpt>
      <trkpt lat="48.5809" lon="-3.85567">
        <ele>89.8</ele>
        <time>2020-06-10T11:36:47Z</time>
      </trkpt>
      <trkpt lat="48.58086" lon="-3.85565">
        <ele>89.7</ele>
        <time>2020-06-10T11:36:48Z</time>
      </trkpt>
      <trkpt lat="48.58082" lon="-3.85562">
        <ele>89.7</ele>
        <time>2020-06-10T11:36:49Z</time>
      </trkpt>
      <trkpt lat="48.58078" lon="-3.85559">
        <ele>89.6</ele>
        <time>2020-06-10T11:36:50Z</time>
      </trkpt>
      <trkpt lat="48.58073" lon="-3.85556">
        <ele>89.5</ele>
        <time>2020-06-10T11:36:51Z</time>
      </trkpt>
      <trkpt lat="48.58069" lon="-3.85552">
        <ele>89.4</ele>
        <time>2020-06-10T11:36:52Z</time>
      </trkpt>
      <trkpt lat="48.58065" lon="-3.85548">
        <ele>89.3</ele>
        <time>2020-06-10T11:36:53Z</time>
      </trkpt>
      <trkpt lat="48.5806" lon="-3.85544">
        <ele>89.2</ele>
        <time>2020-06-10T11:36:54Z</time>
      </trkpt>
      <trkpt lat="48.58055" lon="-3.85542">
        <ele>89.1</ele>
        <time>2020-06-10T11:36:55Z</time>
      </trkpt>
      <trkpt lat="48.5805" lon="-3.85538">
        <ele>89.1</ele>
        <time>2020-06-10T11:36:56Z</time>
      </trkpt>
      <trkpt lat="48.58046" lon="-3.85536">
        <ele>89</ele>
        <time>2020-06-10T11:36:57Z</time>
      </trkpt>
      <trkpt lat="48.58042" lon="-3.85532">
        <ele>88.9</ele>
        <time>2020-06-10T11:36:58Z</time>
      </trkpt>
      <trkpt lat="48.58037" lon="-3.85529">
        <ele>88.9</ele>
        <time>2020-06-10T11:36:59Z</time>
      </trkpt>
      <trkpt lat="48.58033" lon="-3.85525">
        <ele>88.8</ele>
        <time>2020-06-10T11:37:00Z</time>
      </trkpt>
      <trkpt lat="48.58029" lon="-3.85522">
        <ele>88.8</ele>
        <time>2020-06-10T11:37:01Z</time>
      </trkpt>
      <trkpt lat="48.58024" lon="-3.85518">
        <ele>88.8</ele>
        <time>2020-06-10T11:37:02Z</time>
      </trkpt>
      <trkpt lat="48.58019" lon="-3.85514">
        <ele>88.7</ele>
        <time>2020-06-10T11:37:03Z</time>
      </trkpt>
      <trkpt lat="48.58014" lon="-3.8551">
        <ele>88.7</ele>
        <time>2020-06-10T11:37:04Z</time>
      </trkpt>
      <trkpt lat="48.58008" lon="-3.85506">
        <ele>88.7</ele>
        <time>2020-06-10T11:37:05Z</time>
      </trkpt>
      <trkpt lat="48.58003" lon="-3.85503">
        <ele>88.7</ele>
        <time>2020-06-10T11:37:06Z</time>
      </trkpt>
      <trkpt lat="48.57998" lon="-3.855">
        <ele>88.7</ele>
        <time>2020-06-10T11:37:07Z</time>
      </trkpt>
      <trkpt lat="48.57992" lon="-3.85497">
        <ele>88.7</ele>
        <time>2020-06-10T11:37:08Z</time>
      </trkpt>
      <trkpt lat="48.57986" lon="-3.85495">
        <ele>88.7</ele>
        <time>2020-06-10T11:37:09Z</time>
      </trkpt>
      <trkpt lat="48.57981" lon="-3.85492">
        <ele>88.7</ele>
        <time>2020-06-10T11:37:10Z</time>
      </trkpt>
      <trkpt lat="48.57976" lon="-3.8549">
        <ele>88.7</ele>
        <time>2020-06-10T11:37:11Z</time>
      </trkpt>
      <trkpt lat="48.5797" lon="-3.85488">
        <ele>88.7</ele>
        <time>2020-06-10T11:37:12Z</time>
      </trkpt>
      <trkpt lat="48.57965" lon="-3.85486">
        <ele>88.8</ele>
        <time>2020-06-10T11:37:13Z</time>
      </trkpt>
      <trkpt lat="48.5796" lon="-3.85484">
        <ele>88.8</ele>
        <time>2020-06-10T11:37:14Z</time>
      </trkpt>
      <trkpt lat="48.57955" lon="-3.85482">
        <ele>88.8</ele>
        <time>2020-06-10T11:37:15Z</time>
      </trkpt>
      <trkpt lat="48.5795" lon="-3.8548">
        <ele>88.8</ele>
        <time>2020-06-10T11:37:16Z</time>
      </trkpt>
      <trkpt lat="48.57945" lon="-3.85477">
        <ele>88.8</ele>
        <time>2020-06-10T11:37:17Z</time>
      </trkpt>
      <trkpt lat="48.57941" lon="-3.85476">
        <ele>88.8</ele>
        <time>2020-06-10T11:37:18Z</time>
      </trkpt>
      <trkpt lat="48.57936" lon="-3.85474">
        <ele>88.8</ele>
        <time>2020-06-10T11:37:19Z</time>
      </trkpt>
      <trkpt lat="48.57931" lon="-3.85471">
        <ele>88.8</ele>
        <time>2020-06-10T11:37:20Z</time>
      </trkpt>
      <trkpt lat="48.57926" lon="-3.85469">
        <ele>88.8</ele>
        <time>2020-06-10T11:37:21Z</time>
      </trkpt>
      <trkpt lat="48.57921" lon="-3.85466">
        <ele>88.9</ele>
        <time>2020-06-10T11:37:22Z</time>
      </trkpt>
      <trkpt lat="48.57916" lon="-3.85464">
        <ele>88.9</ele>
        <time>2020-06-10T11:37:23Z</time>
      </trkpt>
      <trkpt lat="48.57912" lon="-3.85462">
        <ele>88.9</ele>
        <time>2020-06-10T11:37:24Z</time>
      </trkpt>
      <trkpt lat="48.57908" lon="-3.85458">
        <ele>88.9</ele>
        <time>2020-06-10T11:37:25Z</time>
      </trkpt>
      <trkpt lat="48.57903" lon="-3.85454">
        <ele>89</ele>
        <time>2020-06-10T11:37:26Z</time>
      </trkpt>
      <trkpt lat="48.57899" lon="-3.8545">
        <ele>89</ele>
        <time>2020-06-10T11:37:27Z</time>
      </trkpt>
      <trkpt lat="48.57895" lon="-3.85447">
        <ele>89.1</ele>
        <time>2020-06-10T11:37:28Z</time>
      </trkpt>
      <trkpt lat="48.57891" lon="-3.85443">
        <ele>89.1</ele>
        <time>2020-06-10T11:37:29Z</time>
      </trkpt>
      <trkpt lat="48.57887" lon="-3.85439">
        <ele>89.1</ele>
        <time>2020-06-10T11:37:30Z</time>
      </trkpt>
      <trkpt lat="48.57883" lon="-3.85435">
        <ele>89.2</ele>
        <time>2020-06-10T11:37:31Z</time>
      </trkpt>
      <trkpt lat="48.5788" lon="-3.85433">
        <ele>89.2</ele>
        <time>2020-06-10T11:37:32Z</time>
      </trkpt>
      <trkpt lat="48.57875" lon="-3.85431">
        <ele>89.2</ele>
        <time>2020-06-10T11:37:33Z</time>
      </trkpt>
      <trkpt lat="48.57872" lon="-3.8543">
        <ele>89.2</ele>
        <time>2020-06-10T11:37:34Z</time>
      </trkpt>
      <trkpt lat="48.57867" lon="-3.8543">
        <ele>89.3</ele>
        <time>2020-06-10T11:37:35Z</time>
      </trkpt>
      <trkpt lat="48.57864" lon="-3.85432">
        <ele>89.3</ele>
        <time>2020-06-10T11:37:36Z</time>
      </trkpt>
      <trkpt lat="48.5786" lon="-3.85433">
        <ele>89.3</ele>
        <time>2020-06-10T11:37:37Z</time>
      </trkpt>
      <trkpt lat="48.57857" lon="-3.85433">
        <ele>89.3</ele>
        <time>2020-06-10T11:37:38Z</time>
      </trkpt>
      <trkpt lat="48.57854" lon="-3.85431">
        <ele>89.4</ele>
        <time>2020-06-10T11:37:39Z</time>
      </trkpt>
      <trkpt lat="48.57851" lon="-3.85428">
        <ele>89.9</ele>
        <time>2020-06-10T11:37:40Z</time>
      </trkpt>
      <trkpt lat="48.5785" lon="-3.85425">
        <ele>90.3</ele>
        <time>2020-06-10T11:37:41Z</time>
      </trkpt>
      <trkpt lat="48.57849" lon="-3.85424">
        <ele>90.4</ele>
        <time>2020-06-10T11:37:42Z</time>
      </trkpt>
      <trkpt lat="48.57847" lon="-3.85422">
        <ele>90.8</ele>
        <time>2020-06-10T11:37:43Z</time>
      </trkpt>
      <trkpt lat="48.57845" lon="-3.85422">
        <ele>91</ele>
        <time>2020-06-10T11:37:44Z</time>
      </trkpt>
      <trkpt lat="48.57843" lon="-3.85419">
        <ele>91.5</ele>
        <time>2020-06-10T11:37:45Z</time>
      </trkpt>
      <trkpt lat="48.57842" lon="-3.85417">
        <ele>91.7</ele>
        <time>2020-06-10T11:37:46Z</time>
      </trkpt>
      <trkpt lat="48.57841" lon="-3.85413">
        <ele>92.2</ele>
        <time>2020-06-10T11:37:47Z</time>
      </trkpt>
      <trkpt lat="48.57839" lon="-3.85409">
        <ele>92.8</ele>
        <time>2020-06-10T11:37:48Z</time>
      </trkpt>
      <trkpt lat="48.57836" lon="-3.85405">
        <ele>93.4</ele>
        <time>2020-06-10T11:37:49Z</time>
      </trkpt>
      <trkpt lat="48.57835" lon="-3.85403">
        <ele>93.6</ele>
        <time>2020-06-10T11:37:50Z</time>
      </trkpt>
      <trkpt lat="48.57833" lon="-3.854">
        <ele>94.1</ele>
        <time>2020-06-10T11:37:51Z</time>
      </trkpt>
      <trkpt lat="48.57831" lon="-3.85397">
        <ele>94.6</ele>
        <time>2020-06-10T11:37:52Z</time>
      </trkpt>
      <trkpt lat="48.57831" lon="-3.85396">
        <ele>94.6</ele>
        <time>2020-06-10T11:37:53Z</time>
      </trkpt>
      <trkpt lat="48.57828" lon="-3.85393">
        <ele>94.7</ele>
        <time>2020-06-10T11:37:54Z</time>
      </trkpt>
      <trkpt lat="48.57827" lon="-3.85392">
        <ele>94.7</ele>
        <time>2020-06-10T11:37:55Z</time>
      </trkpt>
      <trkpt lat="48.57825" lon="-3.85391">
        <ele>94.8</ele>
        <time>2020-06-10T11:37:56Z</time>
      </trkpt>
      <trkpt lat="48.57825" lon="-3.85387">
        <ele>94.8</ele>
        <time>2020-06-10T11:37:57Z</time>
      </trkpt>
      <trkpt lat="48.57824" lon="-3.85384">
        <ele>94.9</ele>
        <time>2020-06-10T11:37:58Z</time>
      </trkpt>
      <trkpt lat="48.57822" lon="-3.85379">
        <ele>95</ele>
        <time>2020-06-10T11:37:59Z</time>
      </trkpt>
      <trkpt lat="48.57822" lon="-3.85378">
        <ele>95</ele>
        <time>2020-06-10T11:38:00Z</time>
      </trkpt>
      <trkpt lat="48.5782" lon="-3.85374">
        <ele>95</ele>
        <time>2020-06-10T11:38:01Z</time>
      </trkpt>
      <trkpt lat="48.5782" lon="-3.85372">
        <ele>95.1</ele>
        <time>2020-06-10T11:38:02Z</time>
      </trkpt>
      <trkpt lat="48.5782" lon="-3.85367">
        <ele>95.1</ele>
        <time>2020-06-10T11:38:03Z</time>
      </trkpt>
      <trkpt lat="48.5782" lon="-3.85365">
        <ele>95.1</ele>
        <time>2020-06-10T11:38:04Z</time>
      </trkpt>
      <trkpt lat="48.5782" lon="-3.85363">
        <ele>95.1</ele>
        <time>2020-06-10T11:38:05Z</time>
      </trkpt>
      <trkpt lat="48.57821" lon="-3.85361">
        <ele>95.1</ele>
        <time>2020-06-10T11:38:06Z</time>
      </trkpt>
      <trkpt lat="48.5782" lon="-3.8536">
        <ele>95.1</ele>
        <time>2020-06-10T11:38:07Z</time>
      </trkpt>
      <trkpt lat="48.57819" lon="-3.85358">
        <ele>95.1</ele>
        <time>2020-06-10T11:38:08Z</time>
      </trkpt>
      <trkpt lat="48.57818" lon="-3.85356">
        <ele>95.1</ele>
        <time>2020-06-10T11:38:09Z</time>
      </trkpt>
      <trkpt lat="48.57817" lon="-3.85354">
        <ele>95.1</ele>
        <time>2020-06-10T11:38:10Z</time>
      </trkpt>
      <trkpt lat="48.57817" lon="-3.85351">
        <ele>95</ele>
        <time>2020-06-10T11:38:11Z</time>
      </trkpt>
      <trkpt lat="48.57816" lon="-3.85347">
        <ele>95</ele>
        <time>2020-06-10T11:38:12Z</time>
      </trkpt>
      <trkpt lat="48.57815" lon="-3.85346">
        <ele>95</ele>
        <time>2020-06-10T11:38:13Z</time>
      </trkpt>
      <trkpt lat="48.57815" lon="-3.85343">
        <ele>94.9</ele>
        <time>2020-06-10T11:38:14Z</time>
      </trkpt>
      <trkpt lat="48.57815" lon="-3.85342">
        <ele>94.6</ele>
        <time>2020-06-10T11:38:15Z</time>
      </trkpt>
      <trkpt lat="48.57818" lon="-3.85341">
        <ele>94.4</ele>
        <time>2020-06-10T11:38:16Z</time>
      </trkpt>
      <trkpt lat="48.57819" lon="-3.85341">
        <ele>94.3</ele>
        <time>2020-06-10T11:38:17Z</time>
      </trkpt>
      <trkpt lat="48.57821" lon="-3.85339">
        <ele>94.1</ele>
        <time>2020-06-10T11:38:18Z</time>
      </trkpt>
      <trkpt lat="48.57822" lon="-3.85337">
        <ele>93.9</ele>
        <time>2020-06-10T11:38:19Z</time>
      </trkpt>
      <trkpt lat="48.57823" lon="-3.85338">
        <ele>93.7</ele>
        <time>2020-06-10T11:38:20Z</time>
      </trkpt>
      <trkpt lat="48.57824" lon="-3.85339">
        <ele>93.6</ele>
        <time>2020-06-10T11:38:21Z</time>
      </trkpt>
      <trkpt lat="48.57825" lon="-3.8534">
        <ele>93.5</ele>
        <time>2020-06-10T11:38:22Z</time>
      </trkpt>
      <trkpt lat="48.57824" lon="-3.85342">
        <ele>93.4</ele>
        <time>2020-06-10T11:38:23Z</time>
      </trkpt>
      <trkpt lat="48.57823" lon="-3.85344">
        <ele>93.2</ele>
        <time>2020-06-10T11:38:24Z</time>
      </trkpt>
      <trkpt lat="48.57822" lon="-3.85345">
        <ele>93.1</ele>
        <time>2020-06-10T11:38:25Z</time>
      </trkpt>
      <trkpt lat="48.57821" lon="-3.85347">
        <ele>92.8</ele>
        <time>2020-06-10T11:38:26Z</time>
      </trkpt>
      <trkpt lat="48.57819" lon="-3.85348">
        <ele>92.6</ele>
        <time>2020-06-10T11:38:27Z</time>
      </trkpt>
      <trkpt lat="48.57818" lon="-3.8535">
        <ele>92.4</ele>
        <time>2020-06-10T11:38:28Z</time>
      </trkpt>
      <trkpt lat="48.57817" lon="-3.85352">
        <ele>92.3</ele>
        <time>2020-06-10T11:38:29Z</time>
      </trkpt>
      <trkpt lat="48.57814" lon="-3.85351">
        <ele>92</ele>
        <time>2020-06-10T11:38:30Z</time>
      </trkpt>
      <trkpt lat="48.57811" lon="-3.8535">
        <ele>91.7</ele>
        <time>2020-06-10T11:38:31Z</time>
      </trkpt>
      <trkpt lat="48.5781" lon="-3.8535">
        <ele>91.6</ele>
        <time>2020-06-10T11:38:32Z</time>
      </trkpt>
      <trkpt lat="48.57807" lon="-3.85347">
        <ele>91.4</ele>
        <time>2020-06-10T11:38:33Z</time>
      </trkpt>
      <trkpt lat="48.57804" lon="-3.85344">
        <ele>91.2</ele>
        <time>2020-06-10T11:38:34Z</time>
      </trkpt>
      <trkpt lat="48.57802" lon="-3.85342">
        <ele>91.1</ele>
        <time>2020-06-10T11:38:35Z</time>
      </trkpt>
      <trkpt lat="48.57799" lon="-3.85339">
        <ele>91</ele>
        <time>2020-06-10T11:38:36Z</time>
      </trkpt>
      <trkpt lat="48.57798" lon="-3.85337">
        <ele>91</ele>
        <time>2020-06-10T11:38:37Z</time>
      </trkpt>
      <trkpt lat="48.578" lon="-3.85334">
        <ele>91</ele>
        <time>2020-06-10T11:38:38Z</time>
      </trkpt>
      <trkpt lat="48.57801" lon="-3.85333">
        <ele>91</ele>
        <time>2020-06-10T11:38:39Z</time>
      </trkpt>
      <trkpt lat="48.57802" lon="-3.85333">
        <ele>91</ele>
        <time>2020-06-10T11:38:40Z</time>
      </trkpt>
      <trkpt lat="48.57804" lon="-3.85332">
        <ele>91</ele>
        <time>2020-06-10T11:38:41Z</time>
      </trkpt>
      <trkpt lat="48.57806" lon="-3.85331">
        <ele>91</ele>
        <time>2020-06-10T11:38:42Z</time>
      </trkpt>
      <trkpt lat="48.57807" lon="-3.85332">
        <ele>90.9</ele>
        <time>2020-06-10T11:38:43Z</time>
      </trkpt>
      <trkpt lat="48.57809" lon="-3.85331">
        <ele>90.9</ele>
        <time>2020-06-10T11:38:44Z</time>
      </trkpt>
      <trkpt lat="48.57811" lon="-3.8533">
        <ele>90.9</ele>
        <time>2020-06-10T11:38:45Z</time>
      </trkpt>
      <trkpt lat="48.57814" lon="-3.85329">
        <ele>90.9</ele>
        <time>2020-06-10T11:38:46Z</time>
      </trkpt>
      <trkpt lat="48.57815" lon="-3.85329">
        <ele>90.9</ele>
        <time>2020-06-10T11:38:47Z</time>
      </trkpt>
      <trkpt lat="48.57819" lon="-3.85328">
        <ele>90.8</ele>
        <time>2020-06-10T11:38:48Z</time>
      </trkpt>
      <trkpt lat="48.5782" lon="-3.85328">
        <ele>90.8</ele>
        <time>2020-06-10T11:38:49Z</time>
      </trkpt>
      <trkpt lat="48.57824" lon="-3.85325">
        <ele>90.8</ele>
        <time>2020-06-10T11:38:50Z</time>
      </trkpt>
      <trkpt lat="48.57825" lon="-3.85324">
        <ele>90.8</ele>
        <time>2020-06-10T11:38:51Z</time>
      </trkpt>
      <trkpt lat="48.57829" lon="-3.85322">
        <ele>90.7</ele>
        <time>2020-06-10T11:38:52Z</time>
      </trkpt>
      <trkpt lat="48.57832" lon="-3.8532">
        <ele>90.7</ele>
        <time>2020-06-10T11:38:53Z</time>
      </trkpt>
      <trkpt lat="48.57835" lon="-3.85318">
        <ele>90.7</ele>
        <time>2020-06-10T11:38:54Z</time>
      </trkpt>
      <trkpt lat="48.5784" lon="-3.85316">
        <ele>90.7</ele>
        <time>2020-06-10T11:38:55Z</time>
      </trkpt>
      <trkpt lat="48.57843" lon="-3.85314">
        <ele>90.7</ele>
        <time>2020-06-10T11:38:56Z</time>
      </trkpt>
      <trkpt lat="48.57845" lon="-3.85314">
        <ele>90.7</ele>
        <time>2020-06-10T11:38:57Z</time>
      </trkpt>
      <trkpt lat="48.57848" lon="-3.85312">
        <ele>90.7</ele>
        <time>2020-06-10T11:38:58Z</time>
      </trkpt>
      <trkpt lat="48.57851" lon="-3.85311">
        <ele>90.7</ele>
        <time>2020-06-10T11:38:59Z</time>
      </trkpt>
      <trkpt lat="48.57855" lon="-3.85309">
        <ele>90.7</ele>
        <time>2020-06-10T11:39:00Z</time>
      </trkpt>
      <trkpt lat="48.57858" lon="-3.85307">
        <ele>90.7</ele>
        <time>2020-06-10T11:39:01Z</time>
      </trkpt>
      <trkpt lat="48.57861" lon="-3.85306">
        <ele>90.7</ele>
        <time>2020-06-10T11:39:02Z</time>
      </trkpt>
      <trkpt lat="48.57864" lon="-3.85304">
        <ele>90.7</ele>
        <time>2020-06-10T11:39:03Z</time>
      </trkpt>
      <trkpt lat="48.57865" lon="-3.85304">
        <ele>90.7</ele>
        <time>2020-06-10T11:39:04Z</time>
      </trkpt>
      <trkpt lat="48.57868" lon="-3.85302">
        <ele>90.7</ele>
        <time>2020-06-10T11:39:05Z</time>
      </trkpt>
      <trkpt lat="48.5787" lon="-3.85301">
        <ele>90.7</ele>
        <time>2020-06-10T11:39:06Z</time>
      </trkpt>
      <trkpt lat="48.57869" lon="-3.85298">
        <ele>90.7</ele>
        <time>2020-06-10T11:39:07Z</time>
      </trkpt>
      <trkpt lat="48.5787" lon="-3.85298">
        <ele>90.7</ele>
        <time>2020-06-10T11:39:08Z</time>
      </trkpt>
      <trkpt lat="48.57871" lon="-3.85299">
        <ele>90.7</ele>
        <time>2020-06-10T11:39:09Z</time>
      </trkpt>
      <trkpt lat="48.57871" lon="-3.85301">
        <ele>90.7</ele>
        <time>2020-06-10T11:39:10Z</time>
      </trkpt>
      <trkpt lat="48.57873" lon="-3.85302">
        <ele>90.7</ele>
        <time>2020-06-10T11:39:11Z</time>
      </trkpt>
      <trkpt lat="48.57874" lon="-3.85301">
        <ele>90.7</ele>
        <time>2020-06-10T11:39:12Z</time>
      </trkpt>
      <trkpt lat="48.57874" lon="-3.85299">
        <ele>90.7</ele>
        <time>2020-06-10T11:39:13Z</time>
      </trkpt>
      <trkpt lat="48.57875" lon="-3.85297">
        <ele>90.6</ele>
        <time>2020-06-10T11:39:14Z</time>
      </trkpt>
      <trkpt lat="48.57877" lon="-3.85297">
        <ele>90.6</ele>
        <time>2020-06-10T11:39:15Z</time>
      </trkpt>
      <trkpt lat="48.5788" lon="-3.85294">
        <ele>90.6</ele>
        <time>2020-06-10T11:39:16Z</time>
      </trkpt>
      <trkpt lat="48.57881" lon="-3.85293">
        <ele>90.6</ele>
        <time>2020-06-10T11:39:17Z</time>
      </trkpt>
      <trkpt lat="48.57884" lon="-3.8529">
        <ele>90.6</ele>
        <time>2020-06-10T11:39:18Z</time>
      </trkpt>
      <trkpt lat="48.57887" lon="-3.85288">
        <ele>90.5</ele>
        <time>2020-06-10T11:39:19Z</time>
      </trkpt>
      <trkpt lat="48.5789" lon="-3.85286">
        <ele>90.5</ele>
        <time>2020-06-10T11:39:20Z</time>
      </trkpt>
      <trkpt lat="48.57894" lon="-3.85284">
        <ele>90.5</ele>
        <time>2020-06-10T11:39:21Z</time>
      </trkpt>
      <trkpt lat="48.57898" lon="-3.85282">
        <ele>90.4</ele>
        <time>2020-06-10T11:39:22Z</time>
      </trkpt>
      <trkpt lat="48.57902" lon="-3.8528">
        <ele>90.4</ele>
        <time>2020-06-10T11:39:23Z</time>
      </trkpt>
      <trkpt lat="48.57905" lon="-3.85278">
        <ele>90.4</ele>
        <time>2020-06-10T11:39:24Z</time>
      </trkpt>
      <trkpt lat="48.57909" lon="-3.85277">
        <ele>90.3</ele>
        <time>2020-06-10T11:39:25Z</time>
      </trkpt>
      <trkpt lat="48.57913" lon="-3.85275">
        <ele>90.3</ele>
        <time>2020-06-10T11:39:26Z</time>
      </trkpt>
      <trkpt lat="48.57916" lon="-3.85274">
        <ele>90.3</ele>
        <time>2020-06-10T11:39:27Z</time>
      </trkpt>
      <trkpt lat="48.57919" lon="-3.85271">
        <ele>90.3</ele>
        <time>2020-06-10T11:39:28Z</time>
      </trkpt>
      <trkpt lat="48.57923" lon="-3.85268">
        <ele>90.2</ele>
        <time>2020-06-10T11:39:29Z</time>
      </trkpt>
      <trkpt lat="48.57927" lon="-3.85266">
        <ele>90.2</ele>
        <time>2020-06-10T11:39:30Z</time>
      </trkpt>
      <trkpt lat="48.57931" lon="-3.85264">
        <ele>90.2</ele>
        <time>2020-06-10T11:39:31Z</time>
      </trkpt>
      <trkpt lat="48.57935" lon="-3.85262">
        <ele>90.2</ele>
        <time>2020-06-10T11:39:32Z</time>
      </trkpt>
      <trkpt lat="48.57938" lon="-3.8526">
        <ele>90.2</ele>
        <time>2020-06-10T11:39:33Z</time>
      </trkpt>
      <trkpt lat="48.57942" lon="-3.85257">
        <ele>90.1</ele>
        <time>2020-06-10T11:39:34Z</time>
      </trkpt>
      <trkpt lat="48.57945" lon="-3.85254">
        <ele>90.1</ele>
        <time>2020-06-10T11:39:35Z</time>
      </trkpt>
      <trkpt lat="48.57949" lon="-3.85251">
        <ele>90.1</ele>
        <time>2020-06-10T11:39:36Z</time>
      </trkpt>
      <trkpt lat="48.57953" lon="-3.85249">
        <ele>90.1</ele>
        <time>2020-06-10T11:39:37Z</time>
      </trkpt>
      <trkpt lat="48.57957" lon="-3.85247">
        <ele>90</ele>
        <time>2020-06-10T11:39:38Z</time>
      </trkpt>
      <trkpt lat="48.57962" lon="-3.85245">
        <ele>90</ele>
        <time>2020-06-10T11:39:39Z</time>
      </trkpt>
      <trkpt lat="48.57966" lon="-3.85243">
        <ele>90</ele>
        <time>2020-06-10T11:39:40Z</time>
      </trkpt>
      <trkpt lat="48.5797" lon="-3.85241">
        <ele>89.9</ele>
        <time>2020-06-10T11:39:41Z</time>
      </trkpt>
      <trkpt lat="48.57974" lon="-3.85238">
        <ele>89.9</ele>
        <time>2020-06-10T11:39:42Z</time>
      </trkpt>
      <trkpt lat="48.57978" lon="-3.85236">
        <ele>89.9</ele>
        <time>2020-06-10T11:39:43Z</time>
      </trkpt>
      <trkpt lat="48.57981" lon="-3.85232">
        <ele>89.8</ele>
        <time>2020-06-10T11:39:44Z</time>
      </trkpt>
      <trkpt lat="48.57985" lon="-3.85229">
        <ele>89.8</ele>
        <time>2020-06-10T11:39:45Z</time>
      </trkpt>
      <trkpt lat="48.57989" lon="-3.85227">
        <ele>89.7</ele>
        <time>2020-06-10T11:39:46Z</time>
      </trkpt>
      <trkpt lat="48.57991" lon="-3.85226">
        <ele>89.7</ele>
        <time>2020-06-10T11:39:47Z</time>
      </trkpt>
      <trkpt lat="48.57995" lon="-3.85223">
        <ele>89.6</ele>
        <time>2020-06-10T11:39:48Z</time>
      </trkpt>
      <trkpt lat="48.57999" lon="-3.85219">
        <ele>89.6</ele>
        <time>2020-06-10T11:39:49Z</time>
      </trkpt>
      <trkpt lat="48.58002" lon="-3.85216">
        <ele>89.6</ele>
        <time>2020-06-10T11:39:50Z</time>
      </trkpt>
      <trkpt lat="48.58006" lon="-3.85212">
        <ele>89.5</ele>
        <time>2020-06-10T11:39:51Z</time>
      </trkpt>
      <trkpt lat="48.5801" lon="-3.85209">
        <ele>89.4</ele>
        <time>2020-06-10T11:39:52Z</time>
      </trkpt>
      <trkpt lat="48.58014" lon="-3.85207">
        <ele>89.4</ele>
        <time>2020-06-10T11:39:53Z</time>
      </trkpt>
      <trkpt lat="48.58018" lon="-3.85205">
        <ele>89.3</ele>
        <time>2020-06-10T11:39:54Z</time>
      </trkpt>
      <trkpt lat="48.58023" lon="-3.85203">
        <ele>89.2</ele>
        <time>2020-06-10T11:39:55Z</time>
      </trkpt>
      <trkpt lat="48.58028" lon="-3.852">
        <ele>89.1</ele>
        <time>2020-06-10T11:39:56Z</time>
      </trkpt>
      <trkpt lat="48.58033" lon="-3.85198">
        <ele>89</ele>
        <time>2020-06-10T11:39:57Z</time>
      </trkpt>
      <trkpt lat="48.58037" lon="-3.85196">
        <ele>88.9</ele>
        <time>2020-06-10T11:39:58Z</time>
      </trkpt>
      <trkpt lat="48.58042" lon="-3.85193">
        <ele>88.8</ele>
        <time>2020-06-10T11:39:59Z</time>
      </trkpt>
      <trkpt lat="48.58047" lon="-3.85192">
        <ele>88.7</ele>
        <time>2020-06-10T11:40:00Z</time>
      </trkpt>
      <trkpt lat="48.5805" lon="-3.8519">
        <ele>88.7</ele>
        <time>2020-06-10T11:40:01Z</time>
      </trkpt>
      <trkpt lat="48.58053" lon="-3.85188">
        <ele>88.6</ele>
        <time>2020-06-10T11:40:02Z</time>
      </trkpt>
      <trkpt lat="48.58056" lon="-3.85185">
        <ele>88.6</ele>
        <time>2020-06-10T11:40:03Z</time>
      </trkpt>
      <trkpt lat="48.5806" lon="-3.85184">
        <ele>88.6</ele>
        <time>2020-06-10T11:40:04Z</time>
      </trkpt>
      <trkpt lat="48.58064" lon="-3.85183">
        <ele>88.5</ele>
        <time>2020-06-10T11:40:05Z</time>
      </trkpt>
      <trkpt lat="48.58067" lon="-3.85182">
        <ele>88.5</ele>
        <time>2020-06-10T11:40:06Z</time>
      </trkpt>
      <trkpt lat="48.5807" lon="-3.85181">
        <ele>88.4</ele>
        <time>2020-06-10T11:40:07Z</time>
      </trkpt>
      <trkpt lat="48.58073" lon="-3.85178">
        <ele>88.4</ele>
        <time>2020-06-10T11:40:08Z</time>
      </trkpt>
      <trkpt lat="48.58076" lon="-3.85175">
        <ele>88.3</ele>
        <time>2020-06-10T11:40:09Z</time>
      </trkpt>
      <trkpt lat="48.5808" lon="-3.85173">
        <ele>88.2</ele>
        <time>2020-06-10T11:40:10Z</time>
      </trkpt>
      <trkpt lat="48.58084" lon="-3.85171">
        <ele>88.2</ele>
        <time>2020-06-10T11:40:11Z</time>
      </trkpt>
      <trkpt lat="48.58088" lon="-3.85168">
        <ele>88.1</ele>
        <time>2020-06-10T11:40:12Z</time>
      </trkpt>
      <trkpt lat="48.58093" lon="-3.85165">
        <ele>88</ele>
        <time>2020-06-10T11:40:13Z</time>
      </trkpt>
      <trkpt lat="48.58097" lon="-3.85162">
        <ele>87.9</ele>
        <time>2020-06-10T11:40:14Z</time>
      </trkpt>
      <trkpt lat="48.58101" lon="-3.8516">
        <ele>87.8</ele>
        <time>2020-06-10T11:40:15Z</time>
      </trkpt>
      <trkpt lat="48.58105" lon="-3.85158">
        <ele>87.7</ele>
        <time>2020-06-10T11:40:16Z</time>
      </trkpt>
      <trkpt lat="48.58109" lon="-3.85155">
        <ele>87.6</ele>
        <time>2020-06-10T11:40:17Z</time>
      </trkpt>
      <trkpt lat="48.58113" lon="-3.85152">
        <ele>87.6</ele>
        <time>2020-06-10T11:40:18Z</time>
      </trkpt>
      <trkpt lat="48.58117" lon="-3.85148">
        <ele>87.5</ele>
        <time>2020-06-10T11:40:19Z</time>
      </trkpt>
      <trkpt lat="48.5812" lon="-3.85145">
        <ele>87.4</ele>
        <time>2020-06-10T11:40:20Z</time>
      </trkpt>
      <trkpt lat="48.58121" lon="-3.85145">
        <ele>87.4</ele>
        <time>2020-06-10T11:40:21Z</time>
      </trkpt>
      <trkpt lat="48.58124" lon="-3.85144">
        <ele>87.4</ele>
        <time>2020-06-10T11:40:22Z</time>
      </trkpt>
      <trkpt lat="48.58125" lon="-3.85143">
        <ele>87.4</ele>
        <time>2020-06-10T11:40:23Z</time>
      </trkpt>
      <trkpt lat="48.58127" lon="-3.85141">
        <ele>87.4</ele>
        <time>2020-06-10T11:40:24Z</time>
      </trkpt>
      <trkpt lat="48.58128" lon="-3.8514">
        <ele>87.4</ele>
        <time>2020-06-10T11:40:25Z</time>
      </trkpt>
      <trkpt lat="48.5813" lon="-3.8514">
        <ele>87.3</ele>
        <time>2020-06-10T11:40:26Z</time>
      </trkpt>
      <trkpt lat="48.58131" lon="-3.85139">
        <ele>87.3</ele>
        <time>2020-06-10T11:40:27Z</time>
      </trkpt>
      <trkpt lat="48.58132" lon="-3.85138">
        <ele>87.3</ele>
        <time>2020-06-10T11:40:28Z</time>
      </trkpt>
      <trkpt lat="48.58133" lon="-3.85138">
        <ele>87.3</ele>
        <time>2020-06-10T11:40:29Z</time>
      </trkpt>
      <trkpt lat="48.58134" lon="-3.85137">
        <ele>87.3</ele>
        <time>2020-06-10T11:40:30Z</time>
      </trkpt>
      <trkpt lat="48.58134" lon="-3.85137">
        <ele>87.3</ele>
        <time>2020-06-10T11:40:31Z</time>
      </trkpt>
      <trkpt lat="48.58134" lon="-3.85137">
        <ele>87.3</ele>
        <time>2020-06-10T11:40:32Z</time>
      </trkpt>
      <trkpt lat="48.58134" lon="-3.85137">
        <ele>87.2</ele>
        <time>2020-06-10T11:40:33Z</time>
      </trkpt>
      <trkpt lat="48.58135" lon="-3.85137">
        <ele>87.2</ele>
        <time>2020-06-10T11:40:34Z</time>
      </trkpt>
      <trkpt lat="48.58135" lon="-3.85137">
        <ele>87.2</ele>
        <time>2020-06-10T11:40:35Z</time>
      </trkpt>
      <trkpt lat="48.58135" lon="-3.85137">
        <ele>87.2</ele>
        <time>2020-06-10T11:40:36Z</time>
      </trkpt>
      <trkpt lat="48.58135" lon="-3.85137">
        <ele>87.2</ele>
        <time>2020-06-10T11:40:37Z</time>
      </trkpt>
      <trkpt lat="48.58136" lon="-3.85137">
        <ele>87.2</ele>
        <time>2020-06-10T11:40:38Z</time>
      </trkpt>
      <trkpt lat="48.58136" lon="-3.85137">
        <ele>87.2</ele>
        <time>2020-06-10T11:40:39Z</time>
      </trkpt>
      <trkpt lat="48.58136" lon="-3.85137">
        <ele>87.2</ele>
        <time>2020-06-10T11:40:40Z</time>
      </trkpt>
      <trkpt lat="48.58138" lon="-3.85136">
        <ele>87.2</ele>
        <time>2020-06-10T11:40:48Z</time>
      </trkpt>
      <trkpt lat="48.58139" lon="-3.85135">
        <ele>87.1</ele>
        <time>2020-06-10T11:40:49Z</time>
      </trkpt>
      <trkpt lat="48.58142" lon="-3.85135">
        <ele>87</ele>
        <time>2020-06-10T11:40:50Z</time>
      </trkpt>
      <trkpt lat="48.58143" lon="-3.85135">
        <ele>87</ele>
        <time>2020-06-10T11:40:51Z</time>
      </trkpt>
      <trkpt lat="48.58146" lon="-3.85137">
        <ele>86.9</ele>
        <time>2020-06-10T11:40:52Z</time>
      </trkpt>
      <trkpt lat="48.58146" lon="-3.85137">
        <ele>86.9</ele>
        <time>2020-06-10T11:40:53Z</time>
      </trkpt>
      <trkpt lat="48.58147" lon="-3.85138">
        <ele>86.9</ele>
        <time>2020-06-10T11:40:54Z</time>
      </trkpt>
      <trkpt lat="48.58147" lon="-3.85138">
        <ele>86.9</ele>
        <time>2020-06-10T11:40:55Z</time>
      </trkpt>
      <trkpt lat="48.58147" lon="-3.85139">
        <ele>86.9</ele>
        <time>2020-06-10T11:40:56Z</time>
      </trkpt>
      <trkpt lat="48.58148" lon="-3.85139">
        <ele>86.9</ele>
        <time>2020-06-10T11:40:57Z</time>
      </trkpt>
      <trkpt lat="48.58148" lon="-3.85138">
        <ele>86.8</ele>
        <time>2020-06-10T11:40:58Z</time>
      </trkpt>
      <trkpt lat="48.58149" lon="-3.85137">
        <ele>86.8</ele>
        <time>2020-06-10T11:40:59Z</time>
      </trkpt>
      <trkpt lat="48.5815" lon="-3.85136">
        <ele>86.8</ele>
        <time>2020-06-10T11:41:00Z</time>
      </trkpt>
      <trkpt lat="48.58151" lon="-3.85134">
        <ele>86.7</ele>
        <time>2020-06-10T11:41:01Z</time>
      </trkpt>
      <trkpt lat="48.58151" lon="-3.85132">
        <ele>86.6</ele>
        <time>2020-06-10T11:41:02Z</time>
      </trkpt>
      <trkpt lat="48.58151" lon="-3.85131">
        <ele>86.6</ele>
        <time>2020-06-10T11:41:03Z</time>
      </trkpt>
      <trkpt lat="48.58154" lon="-3.85128">
        <ele>86.4</ele>
        <time>2020-06-10T11:41:04Z</time>
      </trkpt>
      <trkpt lat="48.58155" lon="-3.85128">
        <ele>86.4</ele>
        <time>2020-06-10T11:41:05Z</time>
      </trkpt>
      <trkpt lat="48.58159" lon="-3.85127">
        <ele>86.2</ele>
        <time>2020-06-10T11:41:06Z</time>
      </trkpt>
      <trkpt lat="48.5816" lon="-3.85127">
        <ele>86.1</ele>
        <time>2020-06-10T11:41:07Z</time>
      </trkpt>
      <trkpt lat="48.58164" lon="-3.85125">
        <ele>85.9</ele>
        <time>2020-06-10T11:41:08Z</time>
      </trkpt>
      <trkpt lat="48.58165" lon="-3.85124">
        <ele>85.8</ele>
        <time>2020-06-10T11:41:09Z</time>
      </trkpt>
      <trkpt lat="48.58167" lon="-3.8512">
        <ele>85.6</ele>
        <time>2020-06-10T11:41:10Z</time>
      </trkpt>
      <trkpt lat="48.58168" lon="-3.85119">
        <ele>85.6</ele>
        <time>2020-06-10T11:41:11Z</time>
      </trkpt>
      <trkpt lat="48.58171" lon="-3.85117">
        <ele>85.4</ele>
        <time>2020-06-10T11:41:12Z</time>
      </trkpt>
      <trkpt lat="48.58175" lon="-3.85114">
        <ele>85.2</ele>
        <time>2020-06-10T11:41:13Z</time>
      </trkpt>
      <trkpt lat="48.58176" lon="-3.85112">
        <ele>85.1</ele>
        <time>2020-06-10T11:41:14Z</time>
      </trkpt>
      <trkpt lat="48.58178" lon="-3.8511">
        <ele>84.9</ele>
        <time>2020-06-10T11:41:15Z</time>
      </trkpt>
      <trkpt lat="48.58181" lon="-3.85106">
        <ele>84.8</ele>
        <time>2020-06-10T11:41:16Z</time>
      </trkpt>
      <trkpt lat="48.58184" lon="-3.85104">
        <ele>84.6</ele>
        <time>2020-06-10T11:41:17Z</time>
      </trkpt>
      <trkpt lat="48.58185" lon="-3.85103">
        <ele>84.6</ele>
        <time>2020-06-10T11:41:18Z</time>
      </trkpt>
      <trkpt lat="48.58186" lon="-3.85102">
        <ele>84.5</ele>
        <time>2020-06-10T11:41:19Z</time>
      </trkpt>
      <trkpt lat="48.58187" lon="-3.85101">
        <ele>84.4</ele>
        <time>2020-06-10T11:41:20Z</time>
      </trkpt>
      <trkpt lat="48.58186" lon="-3.85101">
        <ele>84.4</ele>
        <time>2020-06-10T11:41:21Z</time>
      </trkpt>
      <trkpt lat="48.58186" lon="-3.85101">
        <ele>84.4</ele>
        <time>2020-06-10T11:41:22Z</time>
      </trkpt>
      <trkpt lat="48.58186" lon="-3.85101">
        <ele>84.4</ele>
        <time>2020-06-10T11:41:23Z</time>
      </trkpt>
      <trkpt lat="48.58187" lon="-3.85102">
        <ele>84.4</ele>
        <time>2020-06-10T11:41:24Z</time>
      </trkpt>
      <trkpt lat="48.58187" lon="-3.85102">
        <ele>84.3</ele>
        <time>2020-06-10T11:41:25Z</time>
      </trkpt>
      <trkpt lat="48.58187" lon="-3.85101">
        <ele>84.3</ele>
        <time>2020-06-10T11:41:26Z</time>
      </trkpt>
      <trkpt lat="48.58187" lon="-3.851">
        <ele>84.3</ele>
        <time>2020-06-10T11:41:27Z</time>
      </trkpt>
      <trkpt lat="48.58187" lon="-3.85099">
        <ele>83.2</ele>
        <time>2020-06-10T11:41:28Z</time>
      </trkpt>
      <trkpt lat="48.58186" lon="-3.85097">
        <ele>83.2</ele>
        <time>2020-06-10T11:41:29Z</time>
      </trkpt>
      <trkpt lat="48.58186" lon="-3.85096">
        <ele>83.1</ele>
        <time>2020-06-10T11:41:30Z</time>
      </trkpt>
      <trkpt lat="48.58185" lon="-3.85095">
        <ele>83.1</ele>
        <time>2020-06-10T11:41:31Z</time>
      </trkpt>
      <trkpt lat="48.58185" lon="-3.85094">
        <ele>83.1</ele>
        <time>2020-06-10T11:41:50Z</time>
      </trkpt>
      <trkpt lat="48.58185" lon="-3.85093">
        <ele>83</ele>
        <time>2020-06-10T11:41:51Z</time>
      </trkpt>
      <trkpt lat="48.58182" lon="-3.8509">
        <ele>82.9</ele>
        <time>2020-06-10T11:41:52Z</time>
      </trkpt>
      <trkpt lat="48.58179" lon="-3.85088">
        <ele>82.8</ele>
        <time>2020-06-10T11:41:53Z</time>
      </trkpt>
      <trkpt lat="48.58176" lon="-3.85084">
        <ele>82.5</ele>
        <time>2020-06-10T11:41:54Z</time>
      </trkpt>
      <trkpt lat="48.58175" lon="-3.85083">
        <ele>82.5</ele>
        <time>2020-06-10T11:41:55Z</time>
      </trkpt>
      <trkpt lat="48.58172" lon="-3.85079">
        <ele>82.3</ele>
        <time>2020-06-10T11:41:56Z</time>
      </trkpt>
      <trkpt lat="48.58171" lon="-3.85076">
        <ele>82.2</ele>
        <time>2020-06-10T11:41:57Z</time>
      </trkpt>
      <trkpt lat="48.58171" lon="-3.85071">
        <ele>82</ele>
        <time>2020-06-10T11:41:58Z</time>
      </trkpt>
      <trkpt lat="48.58171" lon="-3.85067">
        <ele>81.9</ele>
        <time>2020-06-10T11:41:59Z</time>
      </trkpt>
      <trkpt lat="48.58169" lon="-3.85062">
        <ele>81.7</ele>
        <time>2020-06-10T11:42:00Z</time>
      </trkpt>
      <trkpt lat="48.58167" lon="-3.85058">
        <ele>81.5</ele>
        <time>2020-06-10T11:42:01Z</time>
      </trkpt>
      <trkpt lat="48.58166" lon="-3.85054">
        <ele>81.4</ele>
        <time>2020-06-10T11:42:02Z</time>
      </trkpt>
      <trkpt lat="48.58164" lon="-3.85048">
        <ele>81.3</ele>
        <time>2020-06-10T11:42:03Z</time>
      </trkpt>
      <trkpt lat="48.58164" lon="-3.85045">
        <ele>81.2</ele>
        <time>2020-06-10T11:42:04Z</time>
      </trkpt>
      <trkpt lat="48.58162" lon="-3.8504">
        <ele>81.1</ele>
        <time>2020-06-10T11:42:05Z</time>
      </trkpt>
      <trkpt lat="48.58159" lon="-3.85035">
        <ele>80.9</ele>
        <time>2020-06-10T11:42:06Z</time>
      </trkpt>
      <trkpt lat="48.58157" lon="-3.8503">
        <ele>80.7</ele>
        <time>2020-06-10T11:42:07Z</time>
      </trkpt>
      <trkpt lat="48.58155" lon="-3.85025">
        <ele>80.7</ele>
        <time>2020-06-10T11:42:08Z</time>
      </trkpt>
      <trkpt lat="48.58153" lon="-3.85021">
        <ele>80.7</ele>
        <time>2020-06-10T11:42:09Z</time>
      </trkpt>
      <trkpt lat="48.58149" lon="-3.85018">
        <ele>80.7</ele>
        <time>2020-06-10T11:42:10Z</time>
      </trkpt>
      <trkpt lat="48.58145" lon="-3.85014">
        <ele>80.7</ele>
        <time>2020-06-10T11:42:11Z</time>
      </trkpt>
      <trkpt lat="48.58141" lon="-3.85011">
        <ele>80.7</ele>
        <time>2020-06-10T11:42:12Z</time>
      </trkpt>
      <trkpt lat="48.58138" lon="-3.85009">
        <ele>80.7</ele>
        <time>2020-06-10T11:42:13Z</time>
      </trkpt>
      <trkpt lat="48.58136" lon="-3.85007">
        <ele>80.7</ele>
        <time>2020-06-10T11:42:14Z</time>
      </trkpt>
      <trkpt lat="48.58133" lon="-3.85005">
        <ele>80.8</ele>
        <time>2020-06-10T11:42:15Z</time>
      </trkpt>
      <trkpt lat="48.5813" lon="-3.85002">
        <ele>80.8</ele>
        <time>2020-06-10T11:42:16Z</time>
      </trkpt>
      <trkpt lat="48.58129" lon="-3.85">
        <ele>80.8</ele>
        <time>2020-06-10T11:42:17Z</time>
      </trkpt>
      <trkpt lat="48.58126" lon="-3.84998">
        <ele>80.8</ele>
        <time>2020-06-10T11:42:18Z</time>
      </trkpt>
      <trkpt lat="48.58123" lon="-3.84995">
        <ele>80.9</ele>
        <time>2020-06-10T11:42:19Z</time>
      </trkpt>
      <trkpt lat="48.5812" lon="-3.84993">
        <ele>80.9</ele>
        <time>2020-06-10T11:42:20Z</time>
      </trkpt>
      <trkpt lat="48.58117" lon="-3.84991">
        <ele>80.9</ele>
        <time>2020-06-10T11:42:21Z</time>
      </trkpt>
      <trkpt lat="48.58114" lon="-3.84988">
        <ele>80.9</ele>
        <time>2020-06-10T11:42:22Z</time>
      </trkpt>
      <trkpt lat="48.5811" lon="-3.84985">
        <ele>80.9</ele>
        <time>2020-06-10T11:42:23Z</time>
      </trkpt>
      <trkpt lat="48.58108" lon="-3.84982">
        <ele>80.9</ele>
        <time>2020-06-10T11:42:24Z</time>
      </trkpt>
      <trkpt lat="48.58105" lon="-3.84979">
        <ele>80.9</ele>
        <time>2020-06-10T11:42:25Z</time>
      </trkpt>
      <trkpt lat="48.58101" lon="-3.84976">
        <ele>80.9</ele>
        <time>2020-06-10T11:42:26Z</time>
      </trkpt>
      <trkpt lat="48.58098" lon="-3.84974">
        <ele>80.9</ele>
        <time>2020-06-10T11:42:27Z</time>
      </trkpt>
      <trkpt lat="48.58094" lon="-3.84971">
        <ele>80.9</ele>
        <time>2020-06-10T11:42:28Z</time>
      </trkpt>
      <trkpt lat="48.58092" lon="-3.84968">
        <ele>80.9</ele>
        <time>2020-06-10T11:42:29Z</time>
      </trkpt>
      <trkpt lat="48.58088" lon="-3.84965">
        <ele>80.9</ele>
        <time>2020-06-10T11:42:30Z</time>
      </trkpt>
      <trkpt lat="48.58086" lon="-3.84963">
        <ele>80.9</ele>
        <time>2020-06-10T11:42:31Z</time>
      </trkpt>
      <trkpt lat="48.58082" lon="-3.84961">
        <ele>80.8</ele>
        <time>2020-06-10T11:42:32Z</time>
      </trkpt>
      <trkpt lat="48.5808" lon="-3.84957">
        <ele>80.8</ele>
        <time>2020-06-10T11:42:33Z</time>
      </trkpt>
      <trkpt lat="48.58076" lon="-3.84954">
        <ele>80.8</ele>
        <time>2020-06-10T11:42:34Z</time>
      </trkpt>
      <trkpt lat="48.58073" lon="-3.84952">
        <ele>80.7</ele>
        <time>2020-06-10T11:42:35Z</time>
      </trkpt>
      <trkpt lat="48.58071" lon="-3.84949">
        <ele>80.7</ele>
        <time>2020-06-10T11:42:36Z</time>
      </trkpt>
      <trkpt lat="48.58068" lon="-3.84948">
        <ele>80.7</ele>
        <time>2020-06-10T11:42:37Z</time>
      </trkpt>
      <trkpt lat="48.58065" lon="-3.84944">
        <ele>80.7</ele>
        <time>2020-06-10T11:42:38Z</time>
      </trkpt>
      <trkpt lat="48.58061" lon="-3.8494">
        <ele>80.7</ele>
        <time>2020-06-10T11:42:39Z</time>
      </trkpt>
      <trkpt lat="48.5806" lon="-3.84939">
        <ele>80.7</ele>
        <time>2020-06-10T11:42:40Z</time>
      </trkpt>
      <trkpt lat="48.58057" lon="-3.84936">
        <ele>80.7</ele>
        <time>2020-06-10T11:42:41Z</time>
      </trkpt>
      <trkpt lat="48.58057" lon="-3.84934">
        <ele>80.7</ele>
        <time>2020-06-10T11:42:42Z</time>
      </trkpt>
      <trkpt lat="48.58056" lon="-3.84929">
        <ele>80.7</ele>
        <time>2020-06-10T11:42:43Z</time>
      </trkpt>
      <trkpt lat="48.58056" lon="-3.84927">
        <ele>80.7</ele>
        <time>2020-06-10T11:42:44Z</time>
      </trkpt>
      <trkpt lat="48.58057" lon="-3.84921">
        <ele>80.6</ele>
        <time>2020-06-10T11:42:45Z</time>
      </trkpt>
      <trkpt lat="48.58057" lon="-3.84919">
        <ele>80.6</ele>
        <time>2020-06-10T11:42:46Z</time>
      </trkpt>
      <trkpt lat="48.58058" lon="-3.84914">
        <ele>80.6</ele>
        <time>2020-06-10T11:42:47Z</time>
      </trkpt>
      <trkpt lat="48.58058" lon="-3.84913">
        <ele>80.6</ele>
        <time>2020-06-10T11:42:48Z</time>
      </trkpt>
      <trkpt lat="48.5806" lon="-3.84908">
        <ele>80.6</ele>
        <time>2020-06-10T11:42:49Z</time>
      </trkpt>
      <trkpt lat="48.58061" lon="-3.84903">
        <ele>80</ele>
        <time>2020-06-10T11:42:50Z</time>
      </trkpt>
      <trkpt lat="48.58062" lon="-3.84901">
        <ele>79.8</ele>
        <time>2020-06-10T11:42:51Z</time>
      </trkpt>
      <trkpt lat="48.58063" lon="-3.84897">
        <ele>79.3</ele>
        <time>2020-06-10T11:42:52Z</time>
      </trkpt>
      <trkpt lat="48.58064" lon="-3.84892">
        <ele>78.7</ele>
        <time>2020-06-10T11:42:53Z</time>
      </trkpt>
      <trkpt lat="48.58065" lon="-3.84888">
        <ele>78.3</ele>
        <time>2020-06-10T11:42:54Z</time>
      </trkpt>
      <trkpt lat="48.58067" lon="-3.84885">
        <ele>77.8</ele>
        <time>2020-06-10T11:42:55Z</time>
      </trkpt>
      <trkpt lat="48.58069" lon="-3.84882">
        <ele>77.3</ele>
        <time>2020-06-10T11:42:56Z</time>
      </trkpt>
      <trkpt lat="48.5807" lon="-3.84878">
        <ele>76.9</ele>
        <time>2020-06-10T11:42:57Z</time>
      </trkpt>
      <trkpt lat="48.58071" lon="-3.84873">
        <ele>76.3</ele>
        <time>2020-06-10T11:42:58Z</time>
      </trkpt>
      <trkpt lat="48.58073" lon="-3.84867">
        <ele>75.5</ele>
        <time>2020-06-10T11:42:59Z</time>
      </trkpt>
      <trkpt lat="48.58075" lon="-3.8486">
        <ele>74.8</ele>
        <time>2020-06-10T11:43:00Z</time>
      </trkpt>
      <trkpt lat="48.58077" lon="-3.84853">
        <ele>73.9</ele>
        <time>2020-06-10T11:43:01Z</time>
      </trkpt>
      <trkpt lat="48.58078" lon="-3.84846">
        <ele>73.1</ele>
        <time>2020-06-10T11:43:02Z</time>
      </trkpt>
      <trkpt lat="48.58079" lon="-3.8484">
        <ele>72.4</ele>
        <time>2020-06-10T11:43:03Z</time>
      </trkpt>
      <trkpt lat="48.58078" lon="-3.84834">
        <ele>71.3</ele>
        <time>2020-06-10T11:43:04Z</time>
      </trkpt>
      <trkpt lat="48.58076" lon="-3.84829">
        <ele>71.3</ele>
        <time>2020-06-10T11:43:05Z</time>
      </trkpt>
      <trkpt lat="48.58072" lon="-3.84827">
        <ele>71.4</ele>
        <time>2020-06-10T11:43:06Z</time>
      </trkpt>
      <trkpt lat="48.58069" lon="-3.84827">
        <ele>71.4</ele>
        <time>2020-06-10T11:43:07Z</time>
      </trkpt>
      <trkpt lat="48.58068" lon="-3.84825">
        <ele>71.4</ele>
        <time>2020-06-10T11:43:08Z</time>
      </trkpt>
      <trkpt lat="48.58068" lon="-3.84825">
        <ele>71.4</ele>
        <time>2020-06-10T11:43:09Z</time>
      </trkpt>
      <trkpt lat="48.58068" lon="-3.84824">
        <ele>71.4</ele>
        <time>2020-06-10T11:43:10Z</time>
      </trkpt>
      <trkpt lat="48.58069" lon="-3.84828">
        <ele>71.5</ele>
        <time>2020-06-10T11:43:11Z</time>
      </trkpt>
      <trkpt lat="48.58071" lon="-3.8483">
        <ele>71.5</ele>
        <time>2020-06-10T11:43:12Z</time>
      </trkpt>
      <trkpt lat="48.58074" lon="-3.8483">
        <ele>71.5</ele>
        <time>2020-06-10T11:43:13Z</time>
      </trkpt>
      <trkpt lat="48.58075" lon="-3.84831">
        <ele>71.5</ele>
        <time>2020-06-10T11:43:14Z</time>
      </trkpt>
      <trkpt lat="48.58077" lon="-3.84831">
        <ele>71.6</ele>
        <time>2020-06-10T11:43:15Z</time>
      </trkpt>
      <trkpt lat="48.58078" lon="-3.84831">
        <ele>71.6</ele>
        <time>2020-06-10T11:43:16Z</time>
      </trkpt>
      <trkpt lat="48.5808" lon="-3.84832">
        <ele>71.6</ele>
        <time>2020-06-10T11:43:17Z</time>
      </trkpt>
      <trkpt lat="48.58082" lon="-3.84833">
        <ele>71.6</ele>
        <time>2020-06-10T11:43:18Z</time>
      </trkpt>
      <trkpt lat="48.58082" lon="-3.84833">
        <ele>71.6</ele>
        <time>2020-06-10T11:43:19Z</time>
      </trkpt>
      <trkpt lat="48.58082" lon="-3.84833">
        <ele>71.6</ele>
        <time>2020-06-10T11:43:20Z</time>
      </trkpt>
      <trkpt lat="48.58082" lon="-3.84833">
        <ele>71.6</ele>
        <time>2020-06-10T11:43:21Z</time>
      </trkpt>
      <trkpt lat="48.58082" lon="-3.84833">
        <ele>71.6</ele>
        <time>2020-06-10T11:43:22Z</time>
      </trkpt>
      <trkpt lat="48.58082" lon="-3.84833">
        <ele>71.6</ele>
        <time>2020-06-10T11:43:23Z</time>
      </trkpt>
      <trkpt lat="48.58082" lon="-3.84833">
        <ele>71.6</ele>
        <time>2020-06-10T11:43:24Z</time>
      </trkpt>
      <trkpt lat="48.58082" lon="-3.84833">
        <ele>71.6</ele>
        <time>2020-06-10T11:43:25Z</time>
      </trkpt>
      <trkpt lat="48.58082" lon="-3.84833">
        <ele>71.6</ele>
        <time>2020-06-10T11:43:26Z</time>
      </trkpt>
      <trkpt lat="48.58082" lon="-3.84833">
        <ele>71.6</ele>
        <time>2020-06-10T11:43:27Z</time>
      </trkpt>
      <trkpt lat="48.58082" lon="-3.84833">
        <ele>71.6</ele>
        <time>2020-06-10T11:43:28Z</time>
      </trkpt>
      <trkpt lat="48.58082" lon="-3.84833">
        <ele>71.6</ele>
        <time>2020-06-10T11:43:29Z</time>
      </trkpt>
      <trkpt lat="48.58088" lon="-3.84837">
        <ele>71.7</ele>
        <time>2020-06-10T11:44:21Z</time>
      </trkpt>
      <trkpt lat="48.58091" lon="-3.84838">
        <ele>71.8</ele>
        <time>2020-06-10T11:44:22Z</time>
      </trkpt>
      <trkpt lat="48.58094" lon="-3.8484">
        <ele>71.8</ele>
        <time>2020-06-10T11:44:23Z</time>
      </trkpt>
      <trkpt lat="48.58097" lon="-3.84842">
        <ele>71.8</ele>
        <time>2020-06-10T11:44:24Z</time>
      </trkpt>
      <trkpt lat="48.58101" lon="-3.84844">
        <ele>71.8</ele>
        <time>2020-06-10T11:44:25Z</time>
      </trkpt>
      <trkpt lat="48.58105" lon="-3.84843">
        <ele>71.9</ele>
        <time>2020-06-10T11:44:26Z</time>
      </trkpt>
      <trkpt lat="48.58108" lon="-3.84844">
        <ele>71.9</ele>
        <time>2020-06-10T11:44:27Z</time>
      </trkpt>
      <trkpt lat="48.5811" lon="-3.84847">
        <ele>71.9</ele>
        <time>2020-06-10T11:44:28Z</time>
      </trkpt>
      <trkpt lat="48.58113" lon="-3.84849">
        <ele>71.9</ele>
        <time>2020-06-10T11:44:29Z</time>
      </trkpt>
      <trkpt lat="48.58117" lon="-3.84852">
        <ele>71.9</ele>
        <time>2020-06-10T11:44:30Z</time>
      </trkpt>
      <trkpt lat="48.5812" lon="-3.84854">
        <ele>71.9</ele>
        <time>2020-06-10T11:44:31Z</time>
      </trkpt>
      <trkpt lat="48.58123" lon="-3.84856">
        <ele>71.9</ele>
        <time>2020-06-10T11:44:32Z</time>
      </trkpt>
      <trkpt lat="48.58128" lon="-3.84857">
        <ele>72</ele>
        <time>2020-06-10T11:44:33Z</time>
      </trkpt>
      <trkpt lat="48.58132" lon="-3.84856">
        <ele>72</ele>
        <time>2020-06-10T11:44:34Z</time>
      </trkpt>
      <trkpt lat="48.58135" lon="-3.84858">
        <ele>72.1</ele>
        <time>2020-06-10T11:44:35Z</time>
      </trkpt>
      <trkpt lat="48.58139" lon="-3.84861">
        <ele>72.2</ele>
        <time>2020-06-10T11:44:36Z</time>
      </trkpt>
      <trkpt lat="48.58141" lon="-3.84863">
        <ele>72.2</ele>
        <time>2020-06-10T11:44:37Z</time>
      </trkpt>
      <trkpt lat="48.58144" lon="-3.84864">
        <ele>72.3</ele>
        <time>2020-06-10T11:44:38Z</time>
      </trkpt>
      <trkpt lat="48.58146" lon="-3.84864">
        <ele>72.3</ele>
        <time>2020-06-10T11:44:39Z</time>
      </trkpt>
      <trkpt lat="48.58148" lon="-3.84864">
        <ele>72.3</ele>
        <time>2020-06-10T11:44:40Z</time>
      </trkpt>
      <trkpt lat="48.58151" lon="-3.84861">
        <ele>71.9</ele>
        <time>2020-06-10T11:44:41Z</time>
      </trkpt>
      <trkpt lat="48.58152" lon="-3.8486">
        <ele>71.8</ele>
        <time>2020-06-10T11:44:42Z</time>
      </trkpt>
      <trkpt lat="48.58154" lon="-3.84856">
        <ele>71.6</ele>
        <time>2020-06-10T11:44:43Z</time>
      </trkpt>
      <trkpt lat="48.58155" lon="-3.84851">
        <ele>71.4</ele>
        <time>2020-06-10T11:44:44Z</time>
      </trkpt>
      <trkpt lat="48.58156" lon="-3.84846">
        <ele>71.2</ele>
        <time>2020-06-10T11:44:45Z</time>
      </trkpt>
      <trkpt lat="48.58158" lon="-3.84842">
        <ele>71</ele>
        <time>2020-06-10T11:44:46Z</time>
      </trkpt>
      <trkpt lat="48.58158" lon="-3.8484">
        <ele>71</ele>
        <time>2020-06-10T11:44:47Z</time>
      </trkpt>
      <trkpt lat="48.58159" lon="-3.84838">
        <ele>70.9</ele>
        <time>2020-06-10T11:44:48Z</time>
      </trkpt>
      <trkpt lat="48.58159" lon="-3.84836">
        <ele>70.8</ele>
        <time>2020-06-10T11:44:49Z</time>
      </trkpt>
      <trkpt lat="48.58161" lon="-3.84836">
        <ele>70.7</ele>
        <time>2020-06-10T11:44:50Z</time>
      </trkpt>
      <trkpt lat="48.58161" lon="-3.84834">
        <ele>70.6</ele>
        <time>2020-06-10T11:44:51Z</time>
      </trkpt>
      <trkpt lat="48.58161" lon="-3.84832">
        <ele>70.6</ele>
        <time>2020-06-10T11:44:52Z</time>
      </trkpt>
      <trkpt lat="48.58161" lon="-3.84831">
        <ele>70.2</ele>
        <time>2020-06-10T11:44:53Z</time>
      </trkpt>
      <trkpt lat="48.58161" lon="-3.8483">
        <ele>70.2</ele>
        <time>2020-06-10T11:44:54Z</time>
      </trkpt>
      <trkpt lat="48.58161" lon="-3.84829">
        <ele>70.1</ele>
        <time>2020-06-10T11:44:55Z</time>
      </trkpt>
      <trkpt lat="48.58161" lon="-3.84829">
        <ele>70</ele>
        <time>2020-06-10T11:44:56Z</time>
      </trkpt>
      <trkpt lat="48.58162" lon="-3.84828">
        <ele>70</ele>
        <time>2020-06-10T11:44:57Z</time>
      </trkpt>
      <trkpt lat="48.58162" lon="-3.84827">
        <ele>69.9</ele>
        <time>2020-06-10T11:44:58Z</time>
      </trkpt>
      <trkpt lat="48.58162" lon="-3.84826">
        <ele>69.8</ele>
        <time>2020-06-10T11:44:59Z</time>
      </trkpt>
      <trkpt lat="48.58162" lon="-3.84825">
        <ele>69.8</ele>
        <time>2020-06-10T11:45:00Z</time>
      </trkpt>
      <trkpt lat="48.58162" lon="-3.84825">
        <ele>69.7</ele>
        <time>2020-06-10T11:45:01Z</time>
      </trkpt>
      <trkpt lat="48.58163" lon="-3.84824">
        <ele>69.6</ele>
        <time>2020-06-10T11:45:02Z</time>
      </trkpt>
      <trkpt lat="48.58163" lon="-3.84823">
        <ele>69.6</ele>
        <time>2020-06-10T11:45:14Z</time>
      </trkpt>
      <trkpt lat="48.58163" lon="-3.84822">
        <ele>69.5</ele>
        <time>2020-06-10T11:45:15Z</time>
      </trkpt>
      <trkpt lat="48.58163" lon="-3.84821">
        <ele>69.4</ele>
        <time>2020-06-10T11:45:16Z</time>
      </trkpt>
      <trkpt lat="48.58163" lon="-3.84819">
        <ele>69.3</ele>
        <time>2020-06-10T11:45:17Z</time>
      </trkpt>
      <trkpt lat="48.58163" lon="-3.84818">
        <ele>69.2</ele>
        <time>2020-06-10T11:45:18Z</time>
      </trkpt>
      <trkpt lat="48.58163" lon="-3.84816">
        <ele>69</ele>
        <time>2020-06-10T11:45:19Z</time>
      </trkpt>
      <trkpt lat="48.58163" lon="-3.84813">
        <ele>68.8</ele>
        <time>2020-06-10T11:45:20Z</time>
      </trkpt>
      <trkpt lat="48.58165" lon="-3.84809">
        <ele>68.5</ele>
        <time>2020-06-10T11:45:21Z</time>
      </trkpt>
      <trkpt lat="48.58166" lon="-3.84807">
        <ele>68.3</ele>
        <time>2020-06-10T11:45:22Z</time>
      </trkpt>
      <trkpt lat="48.58168" lon="-3.84802">
        <ele>68</ele>
        <time>2020-06-10T11:45:23Z</time>
      </trkpt>
      <trkpt lat="48.5817" lon="-3.84798">
        <ele>67.6</ele>
        <time>2020-06-10T11:45:24Z</time>
      </trkpt>
      <trkpt lat="48.58171" lon="-3.84793">
        <ele>67.3</ele>
        <time>2020-06-10T11:45:25Z</time>
      </trkpt>
      <trkpt lat="48.58172" lon="-3.84791">
        <ele>67.1</ele>
        <time>2020-06-10T11:45:26Z</time>
      </trkpt>
      <trkpt lat="48.58173" lon="-3.84789">
        <ele>67</ele>
        <time>2020-06-10T11:45:27Z</time>
      </trkpt>
      <trkpt lat="48.58174" lon="-3.84788">
        <ele>66.8</ele>
        <time>2020-06-10T11:45:28Z</time>
      </trkpt>
      <trkpt lat="48.58177" lon="-3.84785">
        <ele>66.4</ele>
        <time>2020-06-10T11:45:29Z</time>
      </trkpt>
      <trkpt lat="48.58177" lon="-3.84784">
        <ele>66.3</ele>
        <time>2020-06-10T11:45:30Z</time>
      </trkpt>
      <trkpt lat="48.58178" lon="-3.84781">
        <ele>66.1</ele>
        <time>2020-06-10T11:45:31Z</time>
      </trkpt>
      <trkpt lat="48.58178" lon="-3.8478">
        <ele>65.9</ele>
        <time>2020-06-10T11:45:32Z</time>
      </trkpt>
      <trkpt lat="48.58178" lon="-3.84778">
        <ele>65.8</ele>
        <time>2020-06-10T11:45:33Z</time>
      </trkpt>
      <trkpt lat="48.58178" lon="-3.84777">
        <ele>65.7</ele>
        <time>2020-06-10T11:45:34Z</time>
      </trkpt>
      <trkpt lat="48.58178" lon="-3.84775">
        <ele>65.6</ele>
        <time>2020-06-10T11:45:35Z</time>
      </trkpt>
      <trkpt lat="48.58179" lon="-3.84773">
        <ele>65.3</ele>
        <time>2020-06-10T11:45:36Z</time>
      </trkpt>
      <trkpt lat="48.58179" lon="-3.84771">
        <ele>65.2</ele>
        <time>2020-06-10T11:45:37Z</time>
      </trkpt>
      <trkpt lat="48.5818" lon="-3.8477">
        <ele>65</ele>
        <time>2020-06-10T11:45:38Z</time>
      </trkpt>
      <trkpt lat="48.58183" lon="-3.84767">
        <ele>64.6</ele>
        <time>2020-06-10T11:45:39Z</time>
      </trkpt>
      <trkpt lat="48.58185" lon="-3.84763">
        <ele>64.2</ele>
        <time>2020-06-10T11:45:40Z</time>
      </trkpt>
      <trkpt lat="48.58188" lon="-3.84759">
        <ele>63.7</ele>
        <time>2020-06-10T11:45:41Z</time>
      </trkpt>
      <trkpt lat="48.5819" lon="-3.84754">
        <ele>63.3</ele>
        <time>2020-06-10T11:45:42Z</time>
      </trkpt>
      <trkpt lat="48.58193" lon="-3.84751">
        <ele>62.8</ele>
        <time>2020-06-10T11:45:43Z</time>
      </trkpt>
      <trkpt lat="48.58196" lon="-3.84747">
        <ele>62.4</ele>
        <time>2020-06-10T11:45:44Z</time>
      </trkpt>
      <trkpt lat="48.58197" lon="-3.84746">
        <ele>62.2</ele>
        <time>2020-06-10T11:45:45Z</time>
      </trkpt>
      <trkpt lat="48.58198" lon="-3.84742">
        <ele>60.7</ele>
        <time>2020-06-10T11:45:46Z</time>
      </trkpt>
      <trkpt lat="48.58199" lon="-3.8474">
        <ele>60.7</ele>
        <time>2020-06-10T11:45:47Z</time>
      </trkpt>
      <trkpt lat="48.582" lon="-3.84735">
        <ele>60.2</ele>
        <time>2020-06-10T11:45:48Z</time>
      </trkpt>
      <trkpt lat="48.582" lon="-3.84733">
        <ele>60.1</ele>
        <time>2020-06-10T11:45:49Z</time>
      </trkpt>
      <trkpt lat="48.58199" lon="-3.84729">
        <ele>60.1</ele>
        <time>2020-06-10T11:45:50Z</time>
      </trkpt>
      <trkpt lat="48.58199" lon="-3.84728">
        <ele>60</ele>
        <time>2020-06-10T11:45:51Z</time>
      </trkpt>
      <trkpt lat="48.58198" lon="-3.84723">
        <ele>60</ele>
        <time>2020-06-10T11:45:52Z</time>
      </trkpt>
      <trkpt lat="48.58198" lon="-3.84721">
        <ele>59.9</ele>
        <time>2020-06-10T11:45:53Z</time>
      </trkpt>
      <trkpt lat="48.58197" lon="-3.84716">
        <ele>59.8</ele>
        <time>2020-06-10T11:45:54Z</time>
      </trkpt>
      <trkpt lat="48.58196" lon="-3.84714">
        <ele>59.8</ele>
        <time>2020-06-10T11:45:55Z</time>
      </trkpt>
      <trkpt lat="48.58196" lon="-3.8471">
        <ele>59.7</ele>
        <time>2020-06-10T11:45:56Z</time>
      </trkpt>
      <trkpt lat="48.58196" lon="-3.84705">
        <ele>59.7</ele>
        <time>2020-06-10T11:45:57Z</time>
      </trkpt>
      <trkpt lat="48.58196" lon="-3.847">
        <ele>59.6</ele>
        <time>2020-06-10T11:45:58Z</time>
      </trkpt>
      <trkpt lat="48.58198" lon="-3.84696">
        <ele>59.5</ele>
        <time>2020-06-10T11:45:59Z</time>
      </trkpt>
      <trkpt lat="48.58201" lon="-3.84691">
        <ele>59.4</ele>
        <time>2020-06-10T11:46:00Z</time>
      </trkpt>
      <trkpt lat="48.58201" lon="-3.84685">
        <ele>59.3</ele>
        <time>2020-06-10T11:46:01Z</time>
      </trkpt>
      <trkpt lat="48.58199" lon="-3.84679">
        <ele>59.2</ele>
        <time>2020-06-10T11:46:02Z</time>
      </trkpt>
      <trkpt lat="48.58196" lon="-3.84674">
        <ele>59.1</ele>
        <time>2020-06-10T11:46:03Z</time>
      </trkpt>
      <trkpt lat="48.58194" lon="-3.84669">
        <ele>59</ele>
        <time>2020-06-10T11:46:04Z</time>
      </trkpt>
      <trkpt lat="48.58191" lon="-3.84665">
        <ele>58.9</ele>
        <time>2020-06-10T11:46:05Z</time>
      </trkpt>
      <trkpt lat="48.58188" lon="-3.84661">
        <ele>58.8</ele>
        <time>2020-06-10T11:46:06Z</time>
      </trkpt>
      <trkpt lat="48.58186" lon="-3.84657">
        <ele>58.7</ele>
        <time>2020-06-10T11:46:07Z</time>
      </trkpt>
      <trkpt lat="48.58183" lon="-3.84652">
        <ele>58.7</ele>
        <time>2020-06-10T11:46:08Z</time>
      </trkpt>
      <trkpt lat="48.5818" lon="-3.84649">
        <ele>58.6</ele>
        <time>2020-06-10T11:46:09Z</time>
      </trkpt>
      <trkpt lat="48.58177" lon="-3.84645">
        <ele>58.5</ele>
        <time>2020-06-10T11:46:10Z</time>
      </trkpt>
      <trkpt lat="48.58174" lon="-3.84642">
        <ele>58.4</ele>
        <time>2020-06-10T11:46:11Z</time>
      </trkpt>
      <trkpt lat="48.58172" lon="-3.84638">
        <ele>58.3</ele>
        <time>2020-06-10T11:46:12Z</time>
      </trkpt>
      <trkpt lat="48.58169" lon="-3.84635">
        <ele>58.2</ele>
        <time>2020-06-10T11:46:13Z</time>
      </trkpt>
      <trkpt lat="48.58167" lon="-3.84631">
        <ele>58.1</ele>
        <time>2020-06-10T11:46:14Z</time>
      </trkpt>
      <trkpt lat="48.58165" lon="-3.84626">
        <ele>58.1</ele>
        <time>2020-06-10T11:46:15Z</time>
      </trkpt>
      <trkpt lat="48.58163" lon="-3.84622">
        <ele>58</ele>
        <time>2020-06-10T11:46:16Z</time>
      </trkpt>
      <trkpt lat="48.58163" lon="-3.84616">
        <ele>57.9</ele>
        <time>2020-06-10T11:46:17Z</time>
      </trkpt>
      <trkpt lat="48.58163" lon="-3.84608">
        <ele>57.8</ele>
        <time>2020-06-10T11:46:18Z</time>
      </trkpt>
      <trkpt lat="48.5816" lon="-3.84602">
        <ele>57.5</ele>
        <time>2020-06-10T11:46:19Z</time>
      </trkpt>
      <trkpt lat="48.58157" lon="-3.84597">
        <ele>57.5</ele>
        <time>2020-06-10T11:46:20Z</time>
      </trkpt>
      <trkpt lat="48.58155" lon="-3.84594">
        <ele>57.4</ele>
        <time>2020-06-10T11:46:21Z</time>
      </trkpt>
      <trkpt lat="48.58154" lon="-3.84593">
        <ele>57.4</ele>
        <time>2020-06-10T11:46:22Z</time>
      </trkpt>
      <trkpt lat="48.58153" lon="-3.84588">
        <ele>57.3</ele>
        <time>2020-06-10T11:46:23Z</time>
      </trkpt>
      <trkpt lat="48.58153" lon="-3.84587">
        <ele>57.3</ele>
        <time>2020-06-10T11:46:24Z</time>
      </trkpt>
      <trkpt lat="48.58152" lon="-3.84585">
        <ele>57.3</ele>
        <time>2020-06-10T11:46:25Z</time>
      </trkpt>
      <trkpt lat="48.58153" lon="-3.84584">
        <ele>57.3</ele>
        <time>2020-06-10T11:46:26Z</time>
      </trkpt>
      <trkpt lat="48.58154" lon="-3.84583">
        <ele>57.2</ele>
        <time>2020-06-10T11:46:27Z</time>
      </trkpt>
      <trkpt lat="48.58155" lon="-3.84584">
        <ele>57.2</ele>
        <time>2020-06-10T11:46:28Z</time>
      </trkpt>
      <trkpt lat="48.58158" lon="-3.84584">
        <ele>57.1</ele>
        <time>2020-06-10T11:46:29Z</time>
      </trkpt>
      <trkpt lat="48.58159" lon="-3.84585">
        <ele>57.1</ele>
        <time>2020-06-10T11:46:30Z</time>
      </trkpt>
      <trkpt lat="48.58161" lon="-3.84587">
        <ele>57.1</ele>
        <time>2020-06-10T11:46:31Z</time>
      </trkpt>
      <trkpt lat="48.58164" lon="-3.84591">
        <ele>57</ele>
        <time>2020-06-10T11:46:32Z</time>
      </trkpt>
      <trkpt lat="48.58166" lon="-3.84594">
        <ele>57</ele>
        <time>2020-06-10T11:46:33Z</time>
      </trkpt>
      <trkpt lat="48.58169" lon="-3.84598">
        <ele>56.9</ele>
        <time>2020-06-10T11:46:34Z</time>
      </trkpt>
      <trkpt lat="48.58172" lon="-3.84602">
        <ele>56.7</ele>
        <time>2020-06-10T11:46:35Z</time>
      </trkpt>
      <trkpt lat="48.58175" lon="-3.84605">
        <ele>56.7</ele>
        <time>2020-06-10T11:46:36Z</time>
      </trkpt>
      <trkpt lat="48.58178" lon="-3.84609">
        <ele>56.8</ele>
        <time>2020-06-10T11:46:37Z</time>
      </trkpt>
      <trkpt lat="48.58181" lon="-3.84613">
        <ele>56.7</ele>
        <time>2020-06-10T11:46:38Z</time>
      </trkpt>
      <trkpt lat="48.58185" lon="-3.84617">
        <ele>56.6</ele>
        <time>2020-06-10T11:46:39Z</time>
      </trkpt>
      <trkpt lat="48.58188" lon="-3.8462">
        <ele>56.5</ele>
        <time>2020-06-10T11:46:40Z</time>
      </trkpt>
      <trkpt lat="48.58192" lon="-3.84623">
        <ele>56.4</ele>
        <time>2020-06-10T11:46:41Z</time>
      </trkpt>
      <trkpt lat="48.58196" lon="-3.84626">
        <ele>56.2</ele>
        <time>2020-06-10T11:46:42Z</time>
      </trkpt>
      <trkpt lat="48.58199" lon="-3.8463">
        <ele>56.1</ele>
        <time>2020-06-10T11:46:43Z</time>
      </trkpt>
      <trkpt lat="48.58203" lon="-3.84634">
        <ele>56</ele>
        <time>2020-06-10T11:46:44Z</time>
      </trkpt>
      <trkpt lat="48.58206" lon="-3.84638">
        <ele>55.9</ele>
        <time>2020-06-10T11:46:45Z</time>
      </trkpt>
      <trkpt lat="48.58209" lon="-3.84642">
        <ele>55.7</ele>
        <time>2020-06-10T11:46:46Z</time>
      </trkpt>
      <trkpt lat="48.58213" lon="-3.84647">
        <ele>55.6</ele>
        <time>2020-06-10T11:46:47Z</time>
      </trkpt>
      <trkpt lat="48.58216" lon="-3.8465">
        <ele>55.4</ele>
        <time>2020-06-10T11:46:48Z</time>
      </trkpt>
      <trkpt lat="48.5822" lon="-3.84653">
        <ele>55.3</ele>
        <time>2020-06-10T11:46:49Z</time>
      </trkpt>
      <trkpt lat="48.58225" lon="-3.84653">
        <ele>55.2</ele>
        <time>2020-06-10T11:46:50Z</time>
      </trkpt>
      <trkpt lat="48.5823" lon="-3.84651">
        <ele>55</ele>
        <time>2020-06-10T11:46:51Z</time>
      </trkpt>
      <trkpt lat="48.58236" lon="-3.8465">
        <ele>54.8</ele>
        <time>2020-06-10T11:46:52Z</time>
      </trkpt>
      <trkpt lat="48.58241" lon="-3.84649">
        <ele>54.6</ele>
        <time>2020-06-10T11:46:53Z</time>
      </trkpt>
      <trkpt lat="48.58247" lon="-3.84649">
        <ele>54.4</ele>
        <time>2020-06-10T11:46:54Z</time>
      </trkpt>
      <trkpt lat="48.58253" lon="-3.84649">
        <ele>54</ele>
        <time>2020-06-10T11:46:55Z</time>
      </trkpt>
      <trkpt lat="48.58259" lon="-3.84648">
        <ele>53.5</ele>
        <time>2020-06-10T11:46:56Z</time>
      </trkpt>
      <trkpt lat="48.58265" lon="-3.84647">
        <ele>53.1</ele>
        <time>2020-06-10T11:46:57Z</time>
      </trkpt>
      <trkpt lat="48.58271" lon="-3.84643">
        <ele>52.6</ele>
        <time>2020-06-10T11:46:58Z</time>
      </trkpt>
      <trkpt lat="48.58277" lon="-3.84637">
        <ele>52</ele>
        <time>2020-06-10T11:46:59Z</time>
      </trkpt>
      <trkpt lat="48.58283" lon="-3.8463">
        <ele>51.3</ele>
        <time>2020-06-10T11:47:00Z</time>
      </trkpt>
      <trkpt lat="48.5829" lon="-3.84624">
        <ele>50.6</ele>
        <time>2020-06-10T11:47:01Z</time>
      </trkpt>
      <trkpt lat="48.58297" lon="-3.84617">
        <ele>49.9</ele>
        <time>2020-06-10T11:47:02Z</time>
      </trkpt>
      <trkpt lat="48.58304" lon="-3.84609">
        <ele>49.1</ele>
        <time>2020-06-10T11:47:03Z</time>
      </trkpt>
      <trkpt lat="48.58312" lon="-3.846">
        <ele>48.3</ele>
        <time>2020-06-10T11:47:04Z</time>
      </trkpt>
      <trkpt lat="48.5832" lon="-3.84591">
        <ele>47.6</ele>
        <time>2020-06-10T11:47:05Z</time>
      </trkpt>
      <trkpt lat="48.58328" lon="-3.84581">
        <ele>46.8</ele>
        <time>2020-06-10T11:47:06Z</time>
      </trkpt>
      <trkpt lat="48.58336" lon="-3.84572">
        <ele>46</ele>
        <time>2020-06-10T11:47:07Z</time>
      </trkpt>
      <trkpt lat="48.58346" lon="-3.84564">
        <ele>45.3</ele>
        <time>2020-06-10T11:47:08Z</time>
      </trkpt>
      <trkpt lat="48.58354" lon="-3.84555">
        <ele>44.6</ele>
        <time>2020-06-10T11:47:09Z</time>
      </trkpt>
      <trkpt lat="48.58363" lon="-3.84546">
        <ele>43.8</ele>
        <time>2020-06-10T11:47:10Z</time>
      </trkpt>
      <trkpt lat="48.58373" lon="-3.84538">
        <ele>43.1</ele>
        <time>2020-06-10T11:47:11Z</time>
      </trkpt>
      <trkpt lat="48.58382" lon="-3.84529">
        <ele>42.4</ele>
        <time>2020-06-10T11:47:12Z</time>
      </trkpt>
      <trkpt lat="48.58391" lon="-3.84519">
        <ele>41.7</ele>
        <time>2020-06-10T11:47:13Z</time>
      </trkpt>
      <trkpt lat="48.584" lon="-3.8451">
        <ele>41</ele>
        <time>2020-06-10T11:47:14Z</time>
      </trkpt>
      <trkpt lat="48.5841" lon="-3.84502">
        <ele>40.3</ele>
        <time>2020-06-10T11:47:15Z</time>
      </trkpt>
      <trkpt lat="48.5842" lon="-3.84493">
        <ele>39.8</ele>
        <time>2020-06-10T11:47:16Z</time>
      </trkpt>
      <trkpt lat="48.5843" lon="-3.84483">
        <ele>39.3</ele>
        <time>2020-06-10T11:47:17Z</time>
      </trkpt>
      <trkpt lat="48.58439" lon="-3.84473">
        <ele>38.8</ele>
        <time>2020-06-10T11:47:18Z</time>
      </trkpt>
      <trkpt lat="48.58449" lon="-3.84462">
        <ele>38.3</ele>
        <time>2020-06-10T11:47:19Z</time>
      </trkpt>
      <trkpt lat="48.58459" lon="-3.84453">
        <ele>37.9</ele>
        <time>2020-06-10T11:47:20Z</time>
      </trkpt>
      <trkpt lat="48.58468" lon="-3.84444">
        <ele>37.6</ele>
        <time>2020-06-10T11:47:21Z</time>
      </trkpt>
      <trkpt lat="48.58477" lon="-3.84435">
        <ele>37.2</ele>
        <time>2020-06-10T11:47:22Z</time>
      </trkpt>
      <trkpt lat="48.58487" lon="-3.84426">
        <ele>36.9</ele>
        <time>2020-06-10T11:47:23Z</time>
      </trkpt>
      <trkpt lat="48.58496" lon="-3.84416">
        <ele>36.6</ele>
        <time>2020-06-10T11:47:24Z</time>
      </trkpt>
      <trkpt lat="48.58504" lon="-3.84407">
        <ele>36.5</ele>
        <time>2020-06-10T11:47:25Z</time>
      </trkpt>
      <trkpt lat="48.58513" lon="-3.84398">
        <ele>36.3</ele>
        <time>2020-06-10T11:47:26Z</time>
      </trkpt>
      <trkpt lat="48.58522" lon="-3.84389">
        <ele>36.1</ele>
        <time>2020-06-10T11:47:27Z</time>
      </trkpt>
      <trkpt lat="48.5853" lon="-3.8438">
        <ele>36</ele>
        <time>2020-06-10T11:47:28Z</time>
      </trkpt>
      <trkpt lat="48.58537" lon="-3.84371">
        <ele>35.9</ele>
        <time>2020-06-10T11:47:29Z</time>
      </trkpt>
      <trkpt lat="48.58544" lon="-3.84362">
        <ele>35.7</ele>
        <time>2020-06-10T11:47:30Z</time>
      </trkpt>
      <trkpt lat="48.58551" lon="-3.84352">
        <ele>35.7</ele>
        <time>2020-06-10T11:47:31Z</time>
      </trkpt>
      <trkpt lat="48.58556" lon="-3.84343">
        <ele>35.6</ele>
        <time>2020-06-10T11:47:32Z</time>
      </trkpt>
      <trkpt lat="48.58561" lon="-3.84335">
        <ele>35.5</ele>
        <time>2020-06-10T11:47:33Z</time>
      </trkpt>
      <trkpt lat="48.58565" lon="-3.84327">
        <ele>35.5</ele>
        <time>2020-06-10T11:47:34Z</time>
      </trkpt>
      <trkpt lat="48.58568" lon="-3.8432">
        <ele>35.5</ele>
        <time>2020-06-10T11:47:35Z</time>
      </trkpt>
      <trkpt lat="48.58571" lon="-3.84313">
        <ele>35.4</ele>
        <time>2020-06-10T11:47:36Z</time>
      </trkpt>
      <trkpt lat="48.58573" lon="-3.84305">
        <ele>35.4</ele>
        <time>2020-06-10T11:47:37Z</time>
      </trkpt>
      <trkpt lat="48.58575" lon="-3.84298">
        <ele>35.3</ele>
        <time>2020-06-10T11:47:38Z</time>
      </trkpt>
      <trkpt lat="48.58577" lon="-3.84291">
        <ele>35.3</ele>
        <time>2020-06-10T11:47:39Z</time>
      </trkpt>
      <trkpt lat="48.5858" lon="-3.84284">
        <ele>35.3</ele>
        <time>2020-06-10T11:47:40Z</time>
      </trkpt>
      <trkpt lat="48.58582" lon="-3.84276">
        <ele>35.3</ele>
        <time>2020-06-10T11:47:41Z</time>
      </trkpt>
      <trkpt lat="48.58584" lon="-3.84268">
        <ele>35.3</ele>
        <time>2020-06-10T11:47:42Z</time>
      </trkpt>
      <trkpt lat="48.58585" lon="-3.84258">
        <ele>34.8</ele>
        <time>2020-06-10T11:47:43Z</time>
      </trkpt>
      <trkpt lat="48.58586" lon="-3.84247">
        <ele>34.1</ele>
        <time>2020-06-10T11:47:44Z</time>
      </trkpt>
      <trkpt lat="48.58587" lon="-3.84235">
        <ele>33.3</ele>
        <time>2020-06-10T11:47:45Z</time>
      </trkpt>
      <trkpt lat="48.58587" lon="-3.84223">
        <ele>32.3</ele>
        <time>2020-06-10T11:47:46Z</time>
      </trkpt>
      <trkpt lat="48.58588" lon="-3.84209">
        <ele>31.1</ele>
        <time>2020-06-10T11:47:47Z</time>
      </trkpt>
      <trkpt lat="48.5859" lon="-3.84194">
        <ele>29.9</ele>
        <time>2020-06-10T11:47:48Z</time>
      </trkpt>
      <trkpt lat="48.58592" lon="-3.84179">
        <ele>28.8</ele>
        <time>2020-06-10T11:47:49Z</time>
      </trkpt>
      <trkpt lat="48.58595" lon="-3.84165">
        <ele>27.8</ele>
        <time>2020-06-10T11:47:50Z</time>
      </trkpt>
      <trkpt lat="48.58598" lon="-3.84152">
        <ele>27</ele>
        <time>2020-06-10T11:47:51Z</time>
      </trkpt>
      <trkpt lat="48.58602" lon="-3.84138">
        <ele>26.1</ele>
        <time>2020-06-10T11:47:52Z</time>
      </trkpt>
      <trkpt lat="48.58606" lon="-3.84124">
        <ele>25.1</ele>
        <time>2020-06-10T11:47:53Z</time>
      </trkpt>
      <trkpt lat="48.5861" lon="-3.84109">
        <ele>24.1</ele>
        <time>2020-06-10T11:47:54Z</time>
      </trkpt>
      <trkpt lat="48.58614" lon="-3.84095">
        <ele>23.1</ele>
        <time>2020-06-10T11:47:55Z</time>
      </trkpt>
      <trkpt lat="48.58619" lon="-3.84081">
        <ele>22.1</ele>
        <time>2020-06-10T11:47:56Z</time>
      </trkpt>
      <trkpt lat="48.58623" lon="-3.84066">
        <ele>21.2</ele>
        <time>2020-06-10T11:47:57Z</time>
      </trkpt>
      <trkpt lat="48.58628" lon="-3.84051">
        <ele>20.2</ele>
        <time>2020-06-10T11:47:58Z</time>
      </trkpt>
      <trkpt lat="48.58633" lon="-3.84036">
        <ele>19.3</ele>
        <time>2020-06-10T11:47:59Z</time>
      </trkpt>
      <trkpt lat="48.58637" lon="-3.84021">
        <ele>18.5</ele>
        <time>2020-06-10T11:48:00Z</time>
      </trkpt>
      <trkpt lat="48.58641" lon="-3.84007">
        <ele>17.6</ele>
        <time>2020-06-10T11:48:01Z</time>
      </trkpt>
      <trkpt lat="48.58646" lon="-3.83992">
        <ele>16.7</ele>
        <time>2020-06-10T11:48:02Z</time>
      </trkpt>
      <trkpt lat="48.58651" lon="-3.83978">
        <ele>15.8</ele>
        <time>2020-06-10T11:48:03Z</time>
      </trkpt>
      <trkpt lat="48.58655" lon="-3.83964">
        <ele>15</ele>
        <time>2020-06-10T11:48:04Z</time>
      </trkpt>
      <trkpt lat="48.58659" lon="-3.83951">
        <ele>14.2</ele>
        <time>2020-06-10T11:48:05Z</time>
      </trkpt>
      <trkpt lat="48.58662" lon="-3.83938">
        <ele>13.5</ele>
        <time>2020-06-10T11:48:06Z</time>
      </trkpt>
      <trkpt lat="48.58666" lon="-3.83925">
        <ele>12.8</ele>
        <time>2020-06-10T11:48:07Z</time>
      </trkpt>
      <trkpt lat="48.58669" lon="-3.83913">
        <ele>12.2</ele>
        <time>2020-06-10T11:48:08Z</time>
      </trkpt>
      <trkpt lat="48.58673" lon="-3.83901">
        <ele>11.5</ele>
        <time>2020-06-10T11:48:09Z</time>
      </trkpt>
      <trkpt lat="48.58677" lon="-3.83889">
        <ele>11</ele>
        <time>2020-06-10T11:48:10Z</time>
      </trkpt>
      <trkpt lat="48.5868" lon="-3.83877">
        <ele>10.5</ele>
        <time>2020-06-10T11:48:11Z</time>
      </trkpt>
      <trkpt lat="48.58683" lon="-3.83865">
        <ele>10</ele>
        <time>2020-06-10T11:48:12Z</time>
      </trkpt>
      <trkpt lat="48.58685" lon="-3.83854">
        <ele>9.7</ele>
        <time>2020-06-10T11:48:13Z</time>
      </trkpt>
      <trkpt lat="48.58688" lon="-3.83844">
        <ele>9.4</ele>
        <time>2020-06-10T11:48:14Z</time>
      </trkpt>
      <trkpt lat="48.5869" lon="-3.83835">
        <ele>9.1</ele>
        <time>2020-06-10T11:48:15Z</time>
      </trkpt>
      <trkpt lat="48.5869" lon="-3.83824">
        <ele>8.8</ele>
        <time>2020-06-10T11:48:16Z</time>
      </trkpt>
      <trkpt lat="48.58691" lon="-3.83813">
        <ele>8.6</ele>
        <time>2020-06-10T11:48:17Z</time>
      </trkpt>
      <trkpt lat="48.5869" lon="-3.83802">
        <ele>8.4</ele>
        <time>2020-06-10T11:48:18Z</time>
      </trkpt>
      <trkpt lat="48.58689" lon="-3.83792">
        <ele>8.2</ele>
        <time>2020-06-10T11:48:19Z</time>
      </trkpt>
      <trkpt lat="48.58686" lon="-3.83785">
        <ele>7.9</ele>
        <time>2020-06-10T11:48:20Z</time>
      </trkpt>
      <trkpt lat="48.58684" lon="-3.83779">
        <ele>7.6</ele>
        <time>2020-06-10T11:48:21Z</time>
      </trkpt>
      <trkpt lat="48.58682" lon="-3.83775">
        <ele>7.4</ele>
        <time>2020-06-10T11:48:22Z</time>
      </trkpt>
      <trkpt lat="48.58681" lon="-3.83771">
        <ele>6.9</ele>
        <time>2020-06-10T11:48:23Z</time>
      </trkpt>
      <trkpt lat="48.5868" lon="-3.83767">
        <ele>7</ele>
        <time>2020-06-10T11:48:24Z</time>
      </trkpt>
      <trkpt lat="48.58678" lon="-3.83764">
        <ele>7</ele>
        <time>2020-06-10T11:48:25Z</time>
      </trkpt>
      <trkpt lat="48.58675" lon="-3.83762">
        <ele>7</ele>
        <time>2020-06-10T11:48:26Z</time>
      </trkpt>
      <trkpt lat="48.58672" lon="-3.8376">
        <ele>7</ele>
        <time>2020-06-10T11:48:27Z</time>
      </trkpt>
      <trkpt lat="48.58668" lon="-3.83757">
        <ele>7</ele>
        <time>2020-06-10T11:48:28Z</time>
      </trkpt>
      <trkpt lat="48.58664" lon="-3.83754">
        <ele>7</ele>
        <time>2020-06-10T11:48:29Z</time>
      </trkpt>
      <trkpt lat="48.5866" lon="-3.83751">
        <ele>7</ele>
        <time>2020-06-10T11:48:30Z</time>
      </trkpt>
      <trkpt lat="48.58656" lon="-3.83746">
        <ele>7</ele>
        <time>2020-06-10T11:48:31Z</time>
      </trkpt>
      <trkpt lat="48.58653" lon="-3.83744">
        <ele>7</ele>
        <time>2020-06-10T11:48:32Z</time>
      </trkpt>
      <trkpt lat="48.58649" lon="-3.83742">
        <ele>7</ele>
        <time>2020-06-10T11:48:33Z</time>
      </trkpt>
      <trkpt lat="48.58646" lon="-3.8374">
        <ele>7</ele>
        <time>2020-06-10T11:48:34Z</time>
      </trkpt>
      <trkpt lat="48.58642" lon="-3.83738">
        <ele>7</ele>
        <time>2020-06-10T11:48:35Z</time>
      </trkpt>
      <trkpt lat="48.58638" lon="-3.83736">
        <ele>6.9</ele>
        <time>2020-06-10T11:48:36Z</time>
      </trkpt>
      <trkpt lat="48.58635" lon="-3.83734">
        <ele>6.9</ele>
        <time>2020-06-10T11:48:37Z</time>
      </trkpt>
      <trkpt lat="48.58631" lon="-3.83732">
        <ele>6.9</ele>
        <time>2020-06-10T11:48:38Z</time>
      </trkpt>
      <trkpt lat="48.58628" lon="-3.8373">
        <ele>6.9</ele>
        <time>2020-06-10T11:48:39Z</time>
      </trkpt>
      <trkpt lat="48.58625" lon="-3.83727">
        <ele>6.9</ele>
        <time>2020-06-10T11:48:40Z</time>
      </trkpt>
      <trkpt lat="48.58621" lon="-3.83725">
        <ele>6.9</ele>
        <time>2020-06-10T11:48:41Z</time>
      </trkpt>
      <trkpt lat="48.58616" lon="-3.83722">
        <ele>6.8</ele>
        <time>2020-06-10T11:48:42Z</time>
      </trkpt>
      <trkpt lat="48.58612" lon="-3.83721">
        <ele>6.8</ele>
        <time>2020-06-10T11:48:43Z</time>
      </trkpt>
      <trkpt lat="48.58607" lon="-3.8372">
        <ele>6.8</ele>
        <time>2020-06-10T11:48:44Z</time>
      </trkpt>
      <trkpt lat="48.58602" lon="-3.8372">
        <ele>6.8</ele>
        <time>2020-06-10T11:48:45Z</time>
      </trkpt>
      <trkpt lat="48.58597" lon="-3.83719">
        <ele>6.8</ele>
        <time>2020-06-10T11:48:46Z</time>
      </trkpt>
      <trkpt lat="48.58592" lon="-3.83718">
        <ele>6.8</ele>
        <time>2020-06-10T11:48:47Z</time>
      </trkpt>
      <trkpt lat="48.58587" lon="-3.83719">
        <ele>6.8</ele>
        <time>2020-06-10T11:48:48Z</time>
      </trkpt>
      <trkpt lat="48.58581" lon="-3.8372">
        <ele>6.8</ele>
        <time>2020-06-10T11:48:49Z</time>
      </trkpt>
      <trkpt lat="48.58576" lon="-3.8372">
        <ele>6.8</ele>
        <time>2020-06-10T11:48:50Z</time>
      </trkpt>
      <trkpt lat="48.58571" lon="-3.83719">
        <ele>6.8</ele>
        <time>2020-06-10T11:48:51Z</time>
      </trkpt>
      <trkpt lat="48.58566" lon="-3.83717">
        <ele>6.9</ele>
        <time>2020-06-10T11:48:52Z</time>
      </trkpt>
      <trkpt lat="48.58562" lon="-3.83716">
        <ele>6.9</ele>
        <time>2020-06-10T11:48:53Z</time>
      </trkpt>
      <trkpt lat="48.58557" lon="-3.83714">
        <ele>6.9</ele>
        <time>2020-06-10T11:48:54Z</time>
      </trkpt>
      <trkpt lat="48.58553" lon="-3.83712">
        <ele>7</ele>
        <time>2020-06-10T11:48:55Z</time>
      </trkpt>
      <trkpt lat="48.58549" lon="-3.8371">
        <ele>7</ele>
        <time>2020-06-10T11:48:56Z</time>
      </trkpt>
      <trkpt lat="48.58545" lon="-3.83708">
        <ele>7.1</ele>
        <time>2020-06-10T11:48:57Z</time>
      </trkpt>
      <trkpt lat="48.5854" lon="-3.83705">
        <ele>7.2</ele>
        <time>2020-06-10T11:48:58Z</time>
      </trkpt>
      <trkpt lat="48.58536" lon="-3.837">
        <ele>7.3</ele>
        <time>2020-06-10T11:48:59Z</time>
      </trkpt>
      <trkpt lat="48.58532" lon="-3.83698">
        <ele>7.3</ele>
        <time>2020-06-10T11:49:00Z</time>
      </trkpt>
      <trkpt lat="48.58528" lon="-3.83693">
        <ele>7.4</ele>
        <time>2020-06-10T11:49:01Z</time>
      </trkpt>
      <trkpt lat="48.58524" lon="-3.8369">
        <ele>7.5</ele>
        <time>2020-06-10T11:49:02Z</time>
      </trkpt>
      <trkpt lat="48.58519" lon="-3.83686">
        <ele>7.6</ele>
        <time>2020-06-10T11:49:03Z</time>
      </trkpt>
      <trkpt lat="48.58515" lon="-3.83682">
        <ele>7.7</ele>
        <time>2020-06-10T11:49:04Z</time>
      </trkpt>
      <trkpt lat="48.58511" lon="-3.83679">
        <ele>7.7</ele>
        <time>2020-06-10T11:49:05Z</time>
      </trkpt>
      <trkpt lat="48.58508" lon="-3.83676">
        <ele>7.8</ele>
        <time>2020-06-10T11:49:06Z</time>
      </trkpt>
      <trkpt lat="48.58504" lon="-3.83674">
        <ele>7.9</ele>
        <time>2020-06-10T11:49:07Z</time>
      </trkpt>
      <trkpt lat="48.58501" lon="-3.8367">
        <ele>8</ele>
        <time>2020-06-10T11:49:08Z</time>
      </trkpt>
      <trkpt lat="48.58498" lon="-3.83667">
        <ele>8</ele>
        <time>2020-06-10T11:49:09Z</time>
      </trkpt>
      <trkpt lat="48.58494" lon="-3.83667">
        <ele>8.2</ele>
        <time>2020-06-10T11:49:10Z</time>
      </trkpt>
      <trkpt lat="48.58492" lon="-3.83664">
        <ele>8.3</ele>
        <time>2020-06-10T11:49:11Z</time>
      </trkpt>
      <trkpt lat="48.58489" lon="-3.8366">
        <ele>8.3</ele>
        <time>2020-06-10T11:49:12Z</time>
      </trkpt>
      <trkpt lat="48.58487" lon="-3.83656">
        <ele>8.1</ele>
        <time>2020-06-10T11:49:13Z</time>
      </trkpt>
      <trkpt lat="48.58484" lon="-3.83653">
        <ele>8.1</ele>
        <time>2020-06-10T11:49:14Z</time>
      </trkpt>
      <trkpt lat="48.58481" lon="-3.8365">
        <ele>8</ele>
        <time>2020-06-10T11:49:15Z</time>
      </trkpt>
      <trkpt lat="48.58478" lon="-3.83647">
        <ele>8</ele>
        <time>2020-06-10T11:49:16Z</time>
      </trkpt>
      <trkpt lat="48.58475" lon="-3.83645">
        <ele>7.9</ele>
        <time>2020-06-10T11:49:17Z</time>
      </trkpt>
      <trkpt lat="48.58471" lon="-3.83642">
        <ele>7.9</ele>
        <time>2020-06-10T11:49:18Z</time>
      </trkpt>
      <trkpt lat="48.58467" lon="-3.8364">
        <ele>7.8</ele>
        <time>2020-06-10T11:49:19Z</time>
      </trkpt>
      <trkpt lat="48.58463" lon="-3.83637">
        <ele>7.8</ele>
        <time>2020-06-10T11:49:20Z</time>
      </trkpt>
      <trkpt lat="48.5846" lon="-3.83634">
        <ele>7.7</ele>
        <time>2020-06-10T11:49:21Z</time>
      </trkpt>
      <trkpt lat="48.58456" lon="-3.83631">
        <ele>7.7</ele>
        <time>2020-06-10T11:49:22Z</time>
      </trkpt>
      <trkpt lat="48.58452" lon="-3.83628">
        <ele>7.6</ele>
        <time>2020-06-10T11:49:23Z</time>
      </trkpt>
      <trkpt lat="48.58449" lon="-3.83625">
        <ele>7.6</ele>
        <time>2020-06-10T11:49:24Z</time>
      </trkpt>
      <trkpt lat="48.58445" lon="-3.83622">
        <ele>7.5</ele>
        <time>2020-06-10T11:49:25Z</time>
      </trkpt>
      <trkpt lat="48.58442" lon="-3.83618">
        <ele>7.5</ele>
        <time>2020-06-10T11:49:26Z</time>
      </trkpt>
      <trkpt lat="48.58439" lon="-3.83613">
        <ele>7.4</ele>
        <time>2020-06-10T11:49:27Z</time>
      </trkpt>
      <trkpt lat="48.58437" lon="-3.83607">
        <ele>7.2</ele>
        <time>2020-06-10T11:49:28Z</time>
      </trkpt>
      <trkpt lat="48.58436" lon="-3.836">
        <ele>7.1</ele>
        <time>2020-06-10T11:49:29Z</time>
      </trkpt>
      <trkpt lat="48.58435" lon="-3.83593">
        <ele>7</ele>
        <time>2020-06-10T11:49:30Z</time>
      </trkpt>
      <trkpt lat="48.58434" lon="-3.83585">
        <ele>6.8</ele>
        <time>2020-06-10T11:49:31Z</time>
      </trkpt>
      <trkpt lat="48.58433" lon="-3.83577">
        <ele>6.7</ele>
        <time>2020-06-10T11:49:32Z</time>
      </trkpt>
      <trkpt lat="48.58433" lon="-3.83569">
        <ele>6.5</ele>
        <time>2020-06-10T11:49:33Z</time>
      </trkpt>
      <trkpt lat="48.58433" lon="-3.83561">
        <ele>6.4</ele>
        <time>2020-06-10T11:49:34Z</time>
      </trkpt>
      <trkpt lat="48.58433" lon="-3.83553">
        <ele>6.2</ele>
        <time>2020-06-10T11:49:35Z</time>
      </trkpt>
      <trkpt lat="48.58433" lon="-3.83544">
        <ele>6.1</ele>
        <time>2020-06-10T11:49:36Z</time>
      </trkpt>
      <trkpt lat="48.58433" lon="-3.83536">
        <ele>6</ele>
        <time>2020-06-10T11:49:37Z</time>
      </trkpt>
      <trkpt lat="48.58432" lon="-3.83528">
        <ele>5.8</ele>
        <time>2020-06-10T11:49:38Z</time>
      </trkpt>
      <trkpt lat="48.58431" lon="-3.8352">
        <ele>5.6</ele>
        <time>2020-06-10T11:49:39Z</time>
      </trkpt>
      <trkpt lat="48.58427" lon="-3.83512">
        <ele>5.4</ele>
        <time>2020-06-10T11:49:40Z</time>
      </trkpt>
      <trkpt lat="48.58422" lon="-3.83507">
        <ele>5.2</ele>
        <time>2020-06-10T11:49:41Z</time>
      </trkpt>
      <trkpt lat="48.58417" lon="-3.83502">
        <ele>5.3</ele>
        <time>2020-06-10T11:49:42Z</time>
      </trkpt>
      <trkpt lat="48.58411" lon="-3.83497">
        <ele>5.2</ele>
        <time>2020-06-10T11:49:43Z</time>
      </trkpt>
      <trkpt lat="48.58406" lon="-3.83492">
        <ele>5.2</ele>
        <time>2020-06-10T11:49:44Z</time>
      </trkpt>
      <trkpt lat="48.58401" lon="-3.83488">
        <ele>5.2</ele>
        <time>2020-06-10T11:49:45Z</time>
      </trkpt>
      <trkpt lat="48.58396" lon="-3.83484">
        <ele>5.1</ele>
        <time>2020-06-10T11:49:46Z</time>
      </trkpt>
      <trkpt lat="48.58391" lon="-3.83481">
        <ele>5.1</ele>
        <time>2020-06-10T11:49:47Z</time>
      </trkpt>
      <trkpt lat="48.58388" lon="-3.83478">
        <ele>5.1</ele>
        <time>2020-06-10T11:49:48Z</time>
      </trkpt>
      <trkpt lat="48.58384" lon="-3.83475">
        <ele>5.1</ele>
        <time>2020-06-10T11:49:49Z</time>
      </trkpt>
      <trkpt lat="48.5838" lon="-3.83471">
        <ele>5.1</ele>
        <time>2020-06-10T11:49:50Z</time>
      </trkpt>
      <trkpt lat="48.58376" lon="-3.83468">
        <ele>5.1</ele>
        <time>2020-06-10T11:49:51Z</time>
      </trkpt>
      <trkpt lat="48.58371" lon="-3.83465">
        <ele>5.1</ele>
        <time>2020-06-10T11:49:52Z</time>
      </trkpt>
      <trkpt lat="48.58367" lon="-3.83462">
        <ele>5.1</ele>
        <time>2020-06-10T11:49:53Z</time>
      </trkpt>
      <trkpt lat="48.58362" lon="-3.83458">
        <ele>5.1</ele>
        <time>2020-06-10T11:49:54Z</time>
      </trkpt>
      <trkpt lat="48.58357" lon="-3.83454">
        <ele>5.2</ele>
        <time>2020-06-10T11:49:55Z</time>
      </trkpt>
      <trkpt lat="48.58352" lon="-3.83451">
        <ele>5.2</ele>
        <time>2020-06-10T11:49:56Z</time>
      </trkpt>
      <trkpt lat="48.58347" lon="-3.83448">
        <ele>5.3</ele>
        <time>2020-06-10T11:49:57Z</time>
      </trkpt>
      <trkpt lat="48.58342" lon="-3.83443">
        <ele>5.3</ele>
        <time>2020-06-10T11:49:58Z</time>
      </trkpt>
      <trkpt lat="48.58337" lon="-3.83439">
        <ele>5.4</ele>
        <time>2020-06-10T11:49:59Z</time>
      </trkpt>
      <trkpt lat="48.58333" lon="-3.83435">
        <ele>5.4</ele>
        <time>2020-06-10T11:50:00Z</time>
      </trkpt>
      <trkpt lat="48.58328" lon="-3.83432">
        <ele>5.5</ele>
        <time>2020-06-10T11:50:01Z</time>
      </trkpt>
      <trkpt lat="48.58324" lon="-3.83427">
        <ele>5.5</ele>
        <time>2020-06-10T11:50:02Z</time>
      </trkpt>
      <trkpt lat="48.58319" lon="-3.83423">
        <ele>5.5</ele>
        <time>2020-06-10T11:50:03Z</time>
      </trkpt>
      <trkpt lat="48.58314" lon="-3.83419">
        <ele>5.6</ele>
        <time>2020-06-10T11:50:04Z</time>
      </trkpt>
      <trkpt lat="48.58309" lon="-3.83415">
        <ele>5.6</ele>
        <time>2020-06-10T11:50:05Z</time>
      </trkpt>
      <trkpt lat="48.58304" lon="-3.83411">
        <ele>5.7</ele>
        <time>2020-06-10T11:50:06Z</time>
      </trkpt>
      <trkpt lat="48.58299" lon="-3.83406">
        <ele>5.7</ele>
        <time>2020-06-10T11:50:07Z</time>
      </trkpt>
      <trkpt lat="48.58294" lon="-3.83402">
        <ele>5.7</ele>
        <time>2020-06-10T11:50:08Z</time>
      </trkpt>
      <trkpt lat="48.58289" lon="-3.83398">
        <ele>5.8</ele>
        <time>2020-06-10T11:50:09Z</time>
      </trkpt>
      <trkpt lat="48.58284" lon="-3.83395">
        <ele>5.8</ele>
        <time>2020-06-10T11:50:10Z</time>
      </trkpt>
      <trkpt lat="48.5828" lon="-3.8339">
        <ele>5.8</ele>
        <time>2020-06-10T11:50:11Z</time>
      </trkpt>
      <trkpt lat="48.58276" lon="-3.83387">
        <ele>5.8</ele>
        <time>2020-06-10T11:50:12Z</time>
      </trkpt>
      <trkpt lat="48.58272" lon="-3.83384">
        <ele>5.9</ele>
        <time>2020-06-10T11:50:13Z</time>
      </trkpt>
      <trkpt lat="48.58269" lon="-3.8338">
        <ele>5.8</ele>
        <time>2020-06-10T11:50:14Z</time>
      </trkpt>
      <trkpt lat="48.58266" lon="-3.83377">
        <ele>5.8</ele>
        <time>2020-06-10T11:50:15Z</time>
      </trkpt>
      <trkpt lat="48.58262" lon="-3.83374">
        <ele>5.8</ele>
        <time>2020-06-10T11:50:16Z</time>
      </trkpt>
      <trkpt lat="48.58258" lon="-3.83371">
        <ele>5.8</ele>
        <time>2020-06-10T11:50:17Z</time>
      </trkpt>
      <trkpt lat="48.58254" lon="-3.83367">
        <ele>5.8</ele>
        <time>2020-06-10T11:50:18Z</time>
      </trkpt>
      <trkpt lat="48.5825" lon="-3.83365">
        <ele>5.8</ele>
        <time>2020-06-10T11:50:19Z</time>
      </trkpt>
      <trkpt lat="48.58247" lon="-3.83361">
        <ele>5.7</ele>
        <time>2020-06-10T11:50:20Z</time>
      </trkpt>
      <trkpt lat="48.58243" lon="-3.83358">
        <ele>5.7</ele>
        <time>2020-06-10T11:50:21Z</time>
      </trkpt>
      <trkpt lat="48.58239" lon="-3.83354">
        <ele>5.7</ele>
        <time>2020-06-10T11:50:22Z</time>
      </trkpt>
      <trkpt lat="48.58235" lon="-3.83351">
        <ele>5.7</ele>
        <time>2020-06-10T11:50:23Z</time>
      </trkpt>
      <trkpt lat="48.5823" lon="-3.83347">
        <ele>5.7</ele>
        <time>2020-06-10T11:50:24Z</time>
      </trkpt>
      <trkpt lat="48.58226" lon="-3.83343">
        <ele>5.7</ele>
        <time>2020-06-10T11:50:25Z</time>
      </trkpt>
      <trkpt lat="48.58222" lon="-3.83339">
        <ele>5.7</ele>
        <time>2020-06-10T11:50:26Z</time>
      </trkpt>
      <trkpt lat="48.58219" lon="-3.83335">
        <ele>5.7</ele>
        <time>2020-06-10T11:50:27Z</time>
      </trkpt>
      <trkpt lat="48.58214" lon="-3.83331">
        <ele>5.7</ele>
        <time>2020-06-10T11:50:28Z</time>
      </trkpt>
      <trkpt lat="48.5821" lon="-3.83327">
        <ele>5.7</ele>
        <time>2020-06-10T11:50:29Z</time>
      </trkpt>
      <trkpt lat="48.58206" lon="-3.83324">
        <ele>5.8</ele>
        <time>2020-06-10T11:50:30Z</time>
      </trkpt>
      <trkpt lat="48.58202" lon="-3.83321">
        <ele>5.8</ele>
        <time>2020-06-10T11:50:31Z</time>
      </trkpt>
      <trkpt lat="48.58198" lon="-3.83318">
        <ele>5.8</ele>
        <time>2020-06-10T11:50:32Z</time>
      </trkpt>
      <trkpt lat="48.58194" lon="-3.83315">
        <ele>5.8</ele>
        <time>2020-06-10T11:50:33Z</time>
      </trkpt>
      <trkpt lat="48.5819" lon="-3.8331">
        <ele>5.9</ele>
        <time>2020-06-10T11:50:34Z</time>
      </trkpt>
      <trkpt lat="48.58186" lon="-3.83307">
        <ele>5.8</ele>
        <time>2020-06-10T11:50:35Z</time>
      </trkpt>
      <trkpt lat="48.58182" lon="-3.83303">
        <ele>5.7</ele>
        <time>2020-06-10T11:50:36Z</time>
      </trkpt>
      <trkpt lat="48.5818" lon="-3.83299">
        <ele>5.7</ele>
        <time>2020-06-10T11:50:37Z</time>
      </trkpt>
      <trkpt lat="48.58178" lon="-3.83293">
        <ele>5.6</ele>
        <time>2020-06-10T11:50:38Z</time>
      </trkpt>
      <trkpt lat="48.58175" lon="-3.83288">
        <ele>5.6</ele>
        <time>2020-06-10T11:50:39Z</time>
      </trkpt>
      <trkpt lat="48.58173" lon="-3.83282">
        <ele>5.7</ele>
        <time>2020-06-10T11:50:40Z</time>
      </trkpt>
      <trkpt lat="48.5817" lon="-3.83276">
        <ele>5.8</ele>
        <time>2020-06-10T11:50:41Z</time>
      </trkpt>
      <trkpt lat="48.58167" lon="-3.8327">
        <ele>5.9</ele>
        <time>2020-06-10T11:50:42Z</time>
      </trkpt>
      <trkpt lat="48.58165" lon="-3.83264">
        <ele>6</ele>
        <time>2020-06-10T11:50:43Z</time>
      </trkpt>
      <trkpt lat="48.58162" lon="-3.83258">
        <ele>6.2</ele>
        <time>2020-06-10T11:50:44Z</time>
      </trkpt>
      <trkpt lat="48.58159" lon="-3.83253">
        <ele>6.3</ele>
        <time>2020-06-10T11:50:45Z</time>
      </trkpt>
      <trkpt lat="48.58156" lon="-3.83248">
        <ele>6.4</ele>
        <time>2020-06-10T11:50:46Z</time>
      </trkpt>
      <trkpt lat="48.58154" lon="-3.83242">
        <ele>6.5</ele>
        <time>2020-06-10T11:50:47Z</time>
      </trkpt>
      <trkpt lat="48.58151" lon="-3.83237">
        <ele>6.6</ele>
        <time>2020-06-10T11:50:48Z</time>
      </trkpt>
      <trkpt lat="48.58149" lon="-3.83232">
        <ele>6.7</ele>
        <time>2020-06-10T11:50:49Z</time>
      </trkpt>
      <trkpt lat="48.58146" lon="-3.83227">
        <ele>6.8</ele>
        <time>2020-06-10T11:50:50Z</time>
      </trkpt>
      <trkpt lat="48.58143" lon="-3.83222">
        <ele>6.9</ele>
        <time>2020-06-10T11:50:51Z</time>
      </trkpt>
      <trkpt lat="48.58139" lon="-3.83217">
        <ele>7</ele>
        <time>2020-06-10T11:50:52Z</time>
      </trkpt>
      <trkpt lat="48.58136" lon="-3.83212">
        <ele>7.3</ele>
        <time>2020-06-10T11:50:53Z</time>
      </trkpt>
      <trkpt lat="48.58132" lon="-3.83207">
        <ele>7.4</ele>
        <time>2020-06-10T11:50:54Z</time>
      </trkpt>
      <trkpt lat="48.58129" lon="-3.83203">
        <ele>7.6</ele>
        <time>2020-06-10T11:50:55Z</time>
      </trkpt>
      <trkpt lat="48.58126" lon="-3.83198">
        <ele>7.7</ele>
        <time>2020-06-10T11:50:56Z</time>
      </trkpt>
      <trkpt lat="48.58124" lon="-3.83195">
        <ele>7.7</ele>
        <time>2020-06-10T11:50:57Z</time>
      </trkpt>
      <trkpt lat="48.58121" lon="-3.83191">
        <ele>7.8</ele>
        <time>2020-06-10T11:50:58Z</time>
      </trkpt>
      <trkpt lat="48.58118" lon="-3.83187">
        <ele>7.9</ele>
        <time>2020-06-10T11:50:59Z</time>
      </trkpt>
      <trkpt lat="48.58115" lon="-3.83182">
        <ele>7.9</ele>
        <time>2020-06-10T11:51:00Z</time>
      </trkpt>
      <trkpt lat="48.58113" lon="-3.83178">
        <ele>8</ele>
        <time>2020-06-10T11:51:01Z</time>
      </trkpt>
      <trkpt lat="48.5811" lon="-3.83173">
        <ele>8</ele>
        <time>2020-06-10T11:51:02Z</time>
      </trkpt>
      <trkpt lat="48.58108" lon="-3.83169">
        <ele>8.1</ele>
        <time>2020-06-10T11:51:03Z</time>
      </trkpt>
      <trkpt lat="48.58106" lon="-3.83163">
        <ele>8.1</ele>
        <time>2020-06-10T11:51:04Z</time>
      </trkpt>
      <trkpt lat="48.58102" lon="-3.8316">
        <ele>8.2</ele>
        <time>2020-06-10T11:51:05Z</time>
      </trkpt>
      <trkpt lat="48.581" lon="-3.83156">
        <ele>8.2</ele>
        <time>2020-06-10T11:51:06Z</time>
      </trkpt>
      <trkpt lat="48.58097" lon="-3.83152">
        <ele>8.3</ele>
        <time>2020-06-10T11:51:07Z</time>
      </trkpt>
      <trkpt lat="48.58094" lon="-3.83148">
        <ele>8.3</ele>
        <time>2020-06-10T11:51:08Z</time>
      </trkpt>
      <trkpt lat="48.58092" lon="-3.83143">
        <ele>8.4</ele>
        <time>2020-06-10T11:51:09Z</time>
      </trkpt>
      <trkpt lat="48.5809" lon="-3.8314">
        <ele>8.4</ele>
        <time>2020-06-10T11:51:10Z</time>
      </trkpt>
      <trkpt lat="48.58088" lon="-3.83136">
        <ele>8.5</ele>
        <time>2020-06-10T11:51:11Z</time>
      </trkpt>
      <trkpt lat="48.58085" lon="-3.83133">
        <ele>8.5</ele>
        <time>2020-06-10T11:51:12Z</time>
      </trkpt>
      <trkpt lat="48.58083" lon="-3.83128">
        <ele>8.6</ele>
        <time>2020-06-10T11:51:13Z</time>
      </trkpt>
      <trkpt lat="48.58081" lon="-3.83124">
        <ele>8.6</ele>
        <time>2020-06-10T11:51:14Z</time>
      </trkpt>
      <trkpt lat="48.58078" lon="-3.83119">
        <ele>8.6</ele>
        <time>2020-06-10T11:51:15Z</time>
      </trkpt>
      <trkpt lat="48.58075" lon="-3.83115">
        <ele>8.7</ele>
        <time>2020-06-10T11:51:16Z</time>
      </trkpt>
      <trkpt lat="48.58072" lon="-3.83111">
        <ele>8.7</ele>
        <time>2020-06-10T11:51:17Z</time>
      </trkpt>
      <trkpt lat="48.5807" lon="-3.83107">
        <ele>8.8</ele>
        <time>2020-06-10T11:51:18Z</time>
      </trkpt>
      <trkpt lat="48.58067" lon="-3.83103">
        <ele>8.8</ele>
        <time>2020-06-10T11:51:19Z</time>
      </trkpt>
      <trkpt lat="48.58064" lon="-3.83099">
        <ele>8.9</ele>
        <time>2020-06-10T11:51:20Z</time>
      </trkpt>
      <trkpt lat="48.58062" lon="-3.83094">
        <ele>8.9</ele>
        <time>2020-06-10T11:51:21Z</time>
      </trkpt>
      <trkpt lat="48.58059" lon="-3.83091">
        <ele>9</ele>
        <time>2020-06-10T11:51:22Z</time>
      </trkpt>
      <trkpt lat="48.58056" lon="-3.83087">
        <ele>9</ele>
        <time>2020-06-10T11:51:23Z</time>
      </trkpt>
      <trkpt lat="48.58053" lon="-3.83084">
        <ele>9</ele>
        <time>2020-06-10T11:51:24Z</time>
      </trkpt>
      <trkpt lat="48.58051" lon="-3.83079">
        <ele>9.1</ele>
        <time>2020-06-10T11:51:25Z</time>
      </trkpt>
      <trkpt lat="48.58048" lon="-3.83076">
        <ele>9.1</ele>
        <time>2020-06-10T11:51:26Z</time>
      </trkpt>
      <trkpt lat="48.58045" lon="-3.83073">
        <ele>9.1</ele>
        <time>2020-06-10T11:51:27Z</time>
      </trkpt>
      <trkpt lat="48.58041" lon="-3.83071">
        <ele>9.2</ele>
        <time>2020-06-10T11:51:28Z</time>
      </trkpt>
      <trkpt lat="48.58038" lon="-3.83069">
        <ele>9.2</ele>
        <time>2020-06-10T11:51:29Z</time>
      </trkpt>
      <trkpt lat="48.58035" lon="-3.83066">
        <ele>9.2</ele>
        <time>2020-06-10T11:51:30Z</time>
      </trkpt>
      <trkpt lat="48.58031" lon="-3.83065">
        <ele>9.2</ele>
        <time>2020-06-10T11:51:31Z</time>
      </trkpt>
      <trkpt lat="48.58029" lon="-3.83063">
        <ele>9.2</ele>
        <time>2020-06-10T11:51:32Z</time>
      </trkpt>
      <trkpt lat="48.58027" lon="-3.8306">
        <ele>9.2</ele>
        <time>2020-06-10T11:51:33Z</time>
      </trkpt>
      <trkpt lat="48.58023" lon="-3.83058">
        <ele>9.2</ele>
        <time>2020-06-10T11:51:34Z</time>
      </trkpt>
      <trkpt lat="48.58022" lon="-3.83058">
        <ele>9.2</ele>
        <time>2020-06-10T11:51:35Z</time>
      </trkpt>
      <trkpt lat="48.58022" lon="-3.83057">
        <ele>9.2</ele>
        <time>2020-06-10T11:51:36Z</time>
      </trkpt>
      <trkpt lat="48.58021" lon="-3.83056">
        <ele>9.2</ele>
        <time>2020-06-10T11:51:37Z</time>
      </trkpt>
      <trkpt lat="48.58021" lon="-3.83056">
        <ele>9.2</ele>
        <time>2020-06-10T11:51:38Z</time>
      </trkpt>
      <trkpt lat="48.58021" lon="-3.83055">
        <ele>9.2</ele>
        <time>2020-06-10T11:51:39Z</time>
      </trkpt>
      <trkpt lat="48.5802" lon="-3.83055">
        <ele>9.2</ele>
        <time>2020-06-10T11:51:40Z</time>
      </trkpt>
      <trkpt lat="48.58019" lon="-3.83054">
        <ele>9.2</ele>
        <time>2020-06-10T11:51:41Z</time>
      </trkpt>
      <trkpt lat="48.58019" lon="-3.83053">
        <ele>9.2</ele>
        <time>2020-06-10T11:51:42Z</time>
      </trkpt>
      <trkpt lat="48.58018" lon="-3.83053">
        <ele>9.2</ele>
        <time>2020-06-10T11:51:43Z</time>
      </trkpt>
      <trkpt lat="48.58017" lon="-3.83052">
        <ele>9.2</ele>
        <time>2020-06-10T11:51:44Z</time>
      </trkpt>
      <trkpt lat="48.58017" lon="-3.83052">
        <ele>9.2</ele>
        <time>2020-06-10T11:51:45Z</time>
      </trkpt>
      <trkpt lat="48.58016" lon="-3.83051">
        <ele>9.2</ele>
        <time>2020-06-10T11:51:46Z</time>
      </trkpt>
      <trkpt lat="48.58015" lon="-3.8305">
        <ele>9.2</ele>
        <time>2020-06-10T11:51:47Z</time>
      </trkpt>
      <trkpt lat="48.58015" lon="-3.8305">
        <ele>9.2</ele>
        <time>2020-06-10T11:51:48Z</time>
      </trkpt>
      <trkpt lat="48.58014" lon="-3.83049">
        <ele>9.2</ele>
        <time>2020-06-10T11:51:49Z</time>
      </trkpt>
      <trkpt lat="48.58013" lon="-3.83049">
        <ele>9.2</ele>
        <time>2020-06-10T11:51:50Z</time>
      </trkpt>
      <trkpt lat="48.58013" lon="-3.83048">
        <ele>9.2</ele>
        <time>2020-06-10T11:51:51Z</time>
      </trkpt>
      <trkpt lat="48.58012" lon="-3.83047">
        <ele>9.2</ele>
        <time>2020-06-10T11:51:52Z</time>
      </trkpt>
      <trkpt lat="48.58012" lon="-3.83047">
        <ele>9.2</ele>
        <time>2020-06-10T11:51:53Z</time>
      </trkpt>
      <trkpt lat="48.58011" lon="-3.83046">
        <ele>9.2</ele>
        <time>2020-06-10T11:51:54Z</time>
      </trkpt>
      <trkpt lat="48.5801" lon="-3.83046">
        <ele>9.2</ele>
        <time>2020-06-10T11:51:55Z</time>
      </trkpt>
      <trkpt lat="48.5801" lon="-3.83045">
        <ele>9.2</ele>
        <time>2020-06-10T11:51:56Z</time>
      </trkpt>
      <trkpt lat="48.58009" lon="-3.83045">
        <ele>9.2</ele>
        <time>2020-06-10T11:51:57Z</time>
      </trkpt>
      <trkpt lat="48.58008" lon="-3.83044">
        <ele>9.2</ele>
        <time>2020-06-10T11:53:53Z</time>
      </trkpt>
      <trkpt lat="48.58008" lon="-3.83043">
        <ele>9.2</ele>
        <time>2020-06-10T11:53:54Z</time>
      </trkpt>
      <trkpt lat="48.58005" lon="-3.83041">
        <ele>9.2</ele>
        <time>2020-06-10T11:53:55Z</time>
      </trkpt>
      <trkpt lat="48.58001" lon="-3.83038">
        <ele>9.2</ele>
        <time>2020-06-10T11:53:56Z</time>
      </trkpt>
      <trkpt lat="48.57998" lon="-3.83034">
        <ele>9.2</ele>
        <time>2020-06-10T11:53:57Z</time>
      </trkpt>
      <trkpt lat="48.57997" lon="-3.83033">
        <ele>9.3</ele>
        <time>2020-06-10T11:53:58Z</time>
      </trkpt>
      <trkpt lat="48.57995" lon="-3.8303">
        <ele>9.3</ele>
        <time>2020-06-10T11:53:59Z</time>
      </trkpt>
      <trkpt lat="48.57991" lon="-3.83027">
        <ele>9.3</ele>
        <time>2020-06-10T11:54:00Z</time>
      </trkpt>
      <trkpt lat="48.5799" lon="-3.83025">
        <ele>9.3</ele>
        <time>2020-06-10T11:54:01Z</time>
      </trkpt>
      <trkpt lat="48.57986" lon="-3.83022">
        <ele>9.2</ele>
        <time>2020-06-10T11:54:02Z</time>
      </trkpt>
      <trkpt lat="48.57982" lon="-3.8302">
        <ele>9.2</ele>
        <time>2020-06-10T11:54:03Z</time>
      </trkpt>
      <trkpt lat="48.57978" lon="-3.83018">
        <ele>9.2</ele>
        <time>2020-06-10T11:54:04Z</time>
      </trkpt>
      <trkpt lat="48.57975" lon="-3.83016">
        <ele>9.2</ele>
        <time>2020-06-10T11:54:05Z</time>
      </trkpt>
      <trkpt lat="48.57971" lon="-3.83015">
        <ele>9.2</ele>
        <time>2020-06-10T11:54:06Z</time>
      </trkpt>
      <trkpt lat="48.57968" lon="-3.83014">
        <ele>9.2</ele>
        <time>2020-06-10T11:54:07Z</time>
      </trkpt>
      <trkpt lat="48.57964" lon="-3.83012">
        <ele>9.2</ele>
        <time>2020-06-10T11:54:08Z</time>
      </trkpt>
      <trkpt lat="48.5796" lon="-3.83009">
        <ele>9.2</ele>
        <time>2020-06-10T11:54:09Z</time>
      </trkpt>
      <trkpt lat="48.57957" lon="-3.83007">
        <ele>9.2</ele>
        <time>2020-06-10T11:54:10Z</time>
      </trkpt>
      <trkpt lat="48.57954" lon="-3.83005">
        <ele>9.2</ele>
        <time>2020-06-10T11:54:11Z</time>
      </trkpt>
      <trkpt lat="48.5795" lon="-3.83003">
        <ele>9.2</ele>
        <time>2020-06-10T11:54:12Z</time>
      </trkpt>
      <trkpt lat="48.57947" lon="-3.83001">
        <ele>9.2</ele>
        <time>2020-06-10T11:54:13Z</time>
      </trkpt>
      <trkpt lat="48.57944" lon="-3.82998">
        <ele>9.2</ele>
        <time>2020-06-10T11:54:14Z</time>
      </trkpt>
      <trkpt lat="48.57941" lon="-3.82996">
        <ele>9.2</ele>
        <time>2020-06-10T11:54:15Z</time>
      </trkpt>
      <trkpt lat="48.57938" lon="-3.82994">
        <ele>9.2</ele>
        <time>2020-06-10T11:54:16Z</time>
      </trkpt>
      <trkpt lat="48.57935" lon="-3.82992">
        <ele>9.2</ele>
        <time>2020-06-10T11:54:17Z</time>
      </trkpt>
      <trkpt lat="48.57933" lon="-3.8299">
        <ele>9.2</ele>
        <time>2020-06-10T11:54:18Z</time>
      </trkpt>
      <trkpt lat="48.5793" lon="-3.82988">
        <ele>9.2</ele>
        <time>2020-06-10T11:54:19Z</time>
      </trkpt>
      <trkpt lat="48.57927" lon="-3.82986">
        <ele>9.2</ele>
        <time>2020-06-10T11:54:20Z</time>
      </trkpt>
      <trkpt lat="48.57924" lon="-3.82984">
        <ele>9.2</ele>
        <time>2020-06-10T11:54:21Z</time>
      </trkpt>
      <trkpt lat="48.57922" lon="-3.82982">
        <ele>9.2</ele>
        <time>2020-06-10T11:54:22Z</time>
      </trkpt>
      <trkpt lat="48.57918" lon="-3.82979">
        <ele>9.2</ele>
        <time>2020-06-10T11:54:23Z</time>
      </trkpt>
      <trkpt lat="48.57915" lon="-3.82977">
        <ele>9.2</ele>
        <time>2020-06-10T11:54:24Z</time>
      </trkpt>
      <trkpt lat="48.57912" lon="-3.82975">
        <ele>9.2</ele>
        <time>2020-06-10T11:54:25Z</time>
      </trkpt>
      <trkpt lat="48.57909" lon="-3.82973">
        <ele>9.2</ele>
        <time>2020-06-10T11:54:26Z</time>
      </trkpt>
      <trkpt lat="48.57906" lon="-3.82971">
        <ele>9.2</ele>
        <time>2020-06-10T11:54:27Z</time>
      </trkpt>
      <trkpt lat="48.57902" lon="-3.82968">
        <ele>9.2</ele>
        <time>2020-06-10T11:54:28Z</time>
      </trkpt>
      <trkpt lat="48.57898" lon="-3.82964">
        <ele>9.2</ele>
        <time>2020-06-10T11:54:29Z</time>
      </trkpt>
      <trkpt lat="48.57892" lon="-3.82959">
        <ele>9.2</ele>
        <time>2020-06-10T11:54:30Z</time>
      </trkpt>
      <trkpt lat="48.57887" lon="-3.82955">
        <ele>9.2</ele>
        <time>2020-06-10T11:54:31Z</time>
      </trkpt>
      <trkpt lat="48.57883" lon="-3.82952">
        <ele>9.3</ele>
        <time>2020-06-10T11:54:32Z</time>
      </trkpt>
      <trkpt lat="48.57878" lon="-3.82949">
        <ele>9.4</ele>
        <time>2020-06-10T11:54:33Z</time>
      </trkpt>
      <trkpt lat="48.57874" lon="-3.82946">
        <ele>9.5</ele>
        <time>2020-06-10T11:54:34Z</time>
      </trkpt>
      <trkpt lat="48.5787" lon="-3.82943">
        <ele>9.5</ele>
        <time>2020-06-10T11:54:35Z</time>
      </trkpt>
      <trkpt lat="48.57865" lon="-3.82939">
        <ele>9.5</ele>
        <time>2020-06-10T11:54:36Z</time>
      </trkpt>
      <trkpt lat="48.5786" lon="-3.82935">
        <ele>9.5</ele>
        <time>2020-06-10T11:54:37Z</time>
      </trkpt>
      <trkpt lat="48.57856" lon="-3.82933">
        <ele>9.4</ele>
        <time>2020-06-10T11:54:38Z</time>
      </trkpt>
      <trkpt lat="48.57852" lon="-3.82932">
        <ele>9.4</ele>
        <time>2020-06-10T11:54:39Z</time>
      </trkpt>
      <trkpt lat="48.57849" lon="-3.8293">
        <ele>9.4</ele>
        <time>2020-06-10T11:54:40Z</time>
      </trkpt>
      <trkpt lat="48.57846" lon="-3.82928">
        <ele>9.4</ele>
        <time>2020-06-10T11:54:41Z</time>
      </trkpt>
      <trkpt lat="48.57843" lon="-3.82924">
        <ele>9.4</ele>
        <time>2020-06-10T11:54:42Z</time>
      </trkpt>
      <trkpt lat="48.57841" lon="-3.82923">
        <ele>9.4</ele>
        <time>2020-06-10T11:54:43Z</time>
      </trkpt>
      <trkpt lat="48.57838" lon="-3.82921">
        <ele>9.3</ele>
        <time>2020-06-10T11:54:44Z</time>
      </trkpt>
      <trkpt lat="48.57835" lon="-3.82918">
        <ele>9.3</ele>
        <time>2020-06-10T11:54:45Z</time>
      </trkpt>
      <trkpt lat="48.57831" lon="-3.82916">
        <ele>9.3</ele>
        <time>2020-06-10T11:54:46Z</time>
      </trkpt>
      <trkpt lat="48.57829" lon="-3.82913">
        <ele>9.3</ele>
        <time>2020-06-10T11:54:47Z</time>
      </trkpt>
      <trkpt lat="48.57825" lon="-3.82911">
        <ele>9.3</ele>
        <time>2020-06-10T11:54:48Z</time>
      </trkpt>
      <trkpt lat="48.57822" lon="-3.82909">
        <ele>9.2</ele>
        <time>2020-06-10T11:54:49Z</time>
      </trkpt>
      <trkpt lat="48.57818" lon="-3.82907">
        <ele>9.2</ele>
        <time>2020-06-10T11:54:50Z</time>
      </trkpt>
      <trkpt lat="48.57815" lon="-3.82904">
        <ele>9.2</ele>
        <time>2020-06-10T11:54:51Z</time>
      </trkpt>
      <trkpt lat="48.57812" lon="-3.82902">
        <ele>9.2</ele>
        <time>2020-06-10T11:54:52Z</time>
      </trkpt>
      <trkpt lat="48.57809" lon="-3.829">
        <ele>9.1</ele>
        <time>2020-06-10T11:54:53Z</time>
      </trkpt>
      <trkpt lat="48.57806" lon="-3.82898">
        <ele>9.1</ele>
        <time>2020-06-10T11:54:54Z</time>
      </trkpt>
      <trkpt lat="48.57803" lon="-3.82896">
        <ele>9.1</ele>
        <time>2020-06-10T11:54:55Z</time>
      </trkpt>
      <trkpt lat="48.57801" lon="-3.82893">
        <ele>9.1</ele>
        <time>2020-06-10T11:54:56Z</time>
      </trkpt>
      <trkpt lat="48.57799" lon="-3.82891">
        <ele>9.1</ele>
        <time>2020-06-10T11:54:57Z</time>
      </trkpt>
      <trkpt lat="48.57798" lon="-3.8289">
        <ele>9.1</ele>
        <time>2020-06-10T11:54:58Z</time>
      </trkpt>
      <trkpt lat="48.57797" lon="-3.8289">
        <ele>9</ele>
        <time>2020-06-10T11:54:59Z</time>
      </trkpt>
      <trkpt lat="48.57797" lon="-3.82889">
        <ele>9</ele>
        <time>2020-06-10T11:55:00Z</time>
      </trkpt>
      <trkpt lat="48.57797" lon="-3.8289">
        <ele>9</ele>
        <time>2020-06-10T11:55:01Z</time>
      </trkpt>
      <trkpt lat="48.57797" lon="-3.8289">
        <ele>9</ele>
        <time>2020-06-10T11:55:02Z</time>
      </trkpt>
      <trkpt lat="48.57797" lon="-3.82891">
        <ele>9</ele>
        <time>2020-06-10T11:55:03Z</time>
      </trkpt>
      <trkpt lat="48.57796" lon="-3.82892">
        <ele>9</ele>
        <time>2020-06-10T11:55:04Z</time>
      </trkpt>
      <trkpt lat="48.57796" lon="-3.82892">
        <ele>9</ele>
        <time>2020-06-10T11:55:05Z</time>
      </trkpt>
      <trkpt lat="48.57795" lon="-3.82893">
        <ele>9</ele>
        <time>2020-06-10T11:55:06Z</time>
      </trkpt>
      <trkpt lat="48.57796" lon="-3.82892">
        <ele>9</ele>
        <time>2020-06-10T11:55:07Z</time>
      </trkpt>
      <trkpt lat="48.57795" lon="-3.82891">
        <ele>9</ele>
        <time>2020-06-10T11:55:08Z</time>
      </trkpt>
      <trkpt lat="48.57795" lon="-3.82891">
        <ele>9</ele>
        <time>2020-06-10T11:55:09Z</time>
      </trkpt>
      <trkpt lat="48.57794" lon="-3.82892">
        <ele>9</ele>
        <time>2020-06-10T11:55:10Z</time>
      </trkpt>
      <trkpt lat="48.57794" lon="-3.82892">
        <ele>9</ele>
        <time>2020-06-10T11:55:11Z</time>
      </trkpt>
      <trkpt lat="48.57794" lon="-3.82892">
        <ele>9</ele>
        <time>2020-06-10T11:55:12Z</time>
      </trkpt>
      <trkpt lat="48.57793" lon="-3.82892">
        <ele>9</ele>
        <time>2020-06-10T11:55:13Z</time>
      </trkpt>
      <trkpt lat="48.57792" lon="-3.82893">
        <ele>9</ele>
        <time>2020-06-10T11:55:14Z</time>
      </trkpt>
      <trkpt lat="48.57792" lon="-3.82893">
        <ele>9</ele>
        <time>2020-06-10T11:55:15Z</time>
      </trkpt>
      <trkpt lat="48.57792" lon="-3.82894">
        <ele>9</ele>
        <time>2020-06-10T11:55:16Z</time>
      </trkpt>
      <trkpt lat="48.57792" lon="-3.82893">
        <ele>9</ele>
        <time>2020-06-10T11:55:17Z</time>
      </trkpt>
      <trkpt lat="48.57793" lon="-3.82893">
        <ele>9</ele>
        <time>2020-06-10T11:55:18Z</time>
      </trkpt>
      <trkpt lat="48.57793" lon="-3.82892">
        <ele>9</ele>
        <time>2020-06-10T11:55:19Z</time>
      </trkpt>
      <trkpt lat="48.57793" lon="-3.82891">
        <ele>9</ele>
        <time>2020-06-10T11:55:20Z</time>
      </trkpt>
      <trkpt lat="48.57793" lon="-3.82891">
        <ele>9</ele>
        <time>2020-06-10T11:55:21Z</time>
      </trkpt>
      <trkpt lat="48.57794" lon="-3.82891">
        <ele>9</ele>
        <time>2020-06-10T11:55:22Z</time>
      </trkpt>
      <trkpt lat="48.57794" lon="-3.82892">
        <ele>9</ele>
        <time>2020-06-10T11:55:23Z</time>
      </trkpt>
      <trkpt lat="48.57794" lon="-3.82892">
        <ele>9</ele>
        <time>2020-06-10T11:55:24Z</time>
      </trkpt>
      <trkpt lat="48.57794" lon="-3.82892">
        <ele>9</ele>
        <time>2020-06-10T11:55:25Z</time>
      </trkpt>
      <trkpt lat="48.57794" lon="-3.82891">
        <ele>9</ele>
        <time>2020-06-10T11:55:26Z</time>
      </trkpt>
      <trkpt lat="48.57794" lon="-3.82891">
        <ele>9</ele>
        <time>2020-06-10T11:55:27Z</time>
      </trkpt>
      <trkpt lat="48.57794" lon="-3.82892">
        <ele>9</ele>
        <time>2020-06-10T11:55:28Z</time>
      </trkpt>
      <trkpt lat="48.57795" lon="-3.82892">
        <ele>9</ele>
        <time>2020-06-10T11:55:29Z</time>
      </trkpt>
      <trkpt lat="48.57795" lon="-3.82892">
        <ele>9</ele>
        <time>2020-06-10T11:55:30Z</time>
      </trkpt>
      <trkpt lat="48.57795" lon="-3.82892">
        <ele>9</ele>
        <time>2020-06-10T11:55:31Z</time>
      </trkpt>
      <trkpt lat="48.57795" lon="-3.82892">
        <ele>9</ele>
        <time>2020-06-10T11:55:32Z</time>
      </trkpt>
      <trkpt lat="48.57795" lon="-3.82892">
        <ele>9</ele>
        <time>2020-06-10T11:55:33Z</time>
      </trkpt>
      <trkpt lat="48.57795" lon="-3.82892">
        <ele>9</ele>
        <time>2020-06-10T11:55:34Z</time>
      </trkpt>
      <trkpt lat="48.57795" lon="-3.82892">
        <ele>9</ele>
        <time>2020-06-10T11:55:35Z</time>
      </trkpt>
      <trkpt lat="48.57795" lon="-3.82892">
        <ele>9</ele>
        <time>2020-06-10T11:55:36Z</time>
      </trkpt>
      <trkpt lat="48.57795" lon="-3.82892">
        <ele>9</ele>
        <time>2020-06-10T11:55:37Z</time>
      </trkpt>
      <trkpt lat="48.57797" lon="-3.82883">
        <ele>8.3</ele>
        <time>2020-06-10T11:56:01Z</time>
      </trkpt>
      <trkpt lat="48.57797" lon="-3.82882">
        <ele>7.9</ele>
        <time>2020-06-10T11:56:02Z</time>
      </trkpt>
      <trkpt lat="48.57797" lon="-3.82881">
        <ele>7.9</ele>
        <time>2020-06-10T11:56:03Z</time>
      </trkpt>
      <trkpt lat="48.57797" lon="-3.8288">
        <ele>7.9</ele>
        <time>2020-06-10T11:56:04Z</time>
      </trkpt>
      <trkpt lat="48.57798" lon="-3.82879">
        <ele>7.8</ele>
        <time>2020-06-10T11:56:05Z</time>
      </trkpt>
      <trkpt lat="48.57798" lon="-3.82879">
        <ele>7.8</ele>
        <time>2020-06-10T11:56:06Z</time>
      </trkpt>
      <trkpt lat="48.57799" lon="-3.82878">
        <ele>7.3</ele>
        <time>2020-06-10T11:56:07Z</time>
      </trkpt>
      <trkpt lat="48.57799" lon="-3.82877">
        <ele>7.3</ele>
        <time>2020-06-10T11:56:08Z</time>
      </trkpt>
      <trkpt lat="48.57799" lon="-3.82878">
        <ele>7.8</ele>
        <time>2020-06-10T11:56:09Z</time>
      </trkpt>
      <trkpt lat="48.57799" lon="-3.82881">
        <ele>7.8</ele>
        <time>2020-06-10T11:56:10Z</time>
      </trkpt>
      <trkpt lat="48.57799" lon="-3.82883">
        <ele>8.3</ele>
        <time>2020-06-10T11:56:11Z</time>
      </trkpt>
      <trkpt lat="48.57801" lon="-3.82883">
        <ele>8.2</ele>
        <time>2020-06-10T11:56:12Z</time>
      </trkpt>
      <trkpt lat="48.57802" lon="-3.82883">
        <ele>8.2</ele>
        <time>2020-06-10T11:56:13Z</time>
      </trkpt>
      <trkpt lat="48.57803" lon="-3.82884">
        <ele>8.1</ele>
        <time>2020-06-10T11:56:14Z</time>
      </trkpt>
      <trkpt lat="48.57804" lon="-3.82884">
        <ele>8.1</ele>
        <time>2020-06-10T11:56:15Z</time>
      </trkpt>
      <trkpt lat="48.57806" lon="-3.82883">
        <ele>8</ele>
        <time>2020-06-10T11:56:16Z</time>
      </trkpt>
      <trkpt lat="48.57808" lon="-3.82881">
        <ele>7.4</ele>
        <time>2020-06-10T11:56:17Z</time>
      </trkpt>
      <trkpt lat="48.57809" lon="-3.82881">
        <ele>7.2</ele>
        <time>2020-06-10T11:56:18Z</time>
      </trkpt>
      <trkpt lat="48.5781" lon="-3.82881">
        <ele>7.2</ele>
        <time>2020-06-10T11:56:19Z</time>
      </trkpt>
      <trkpt lat="48.57814" lon="-3.82879">
        <ele>7.1</ele>
        <time>2020-06-10T11:56:20Z</time>
      </trkpt>
      <trkpt lat="48.57815" lon="-3.82877">
        <ele>6.3</ele>
        <time>2020-06-10T11:56:21Z</time>
      </trkpt>
      <trkpt lat="48.57818" lon="-3.82876">
        <ele>6.1</ele>
        <time>2020-06-10T11:56:22Z</time>
      </trkpt>
      <trkpt lat="48.57819" lon="-3.82876">
        <ele>6.1</ele>
        <time>2020-06-10T11:56:23Z</time>
      </trkpt>
      <trkpt lat="48.57819" lon="-3.82873">
        <ele>5.5</ele>
        <time>2020-06-10T11:56:24Z</time>
      </trkpt>
      <trkpt lat="48.57821" lon="-3.82874">
        <ele>5.5</ele>
        <time>2020-06-10T11:56:25Z</time>
      </trkpt>
      <trkpt lat="48.57821" lon="-3.82873">
        <ele>5.5</ele>
        <time>2020-06-10T11:56:26Z</time>
      </trkpt>
      <trkpt lat="48.57822" lon="-3.82872">
        <ele>5.5</ele>
        <time>2020-06-10T11:56:27Z</time>
      </trkpt>
      <trkpt lat="48.57823" lon="-3.82872">
        <ele>5.5</ele>
        <time>2020-06-10T11:56:28Z</time>
      </trkpt>
      <trkpt lat="48.57823" lon="-3.82872">
        <ele>5.5</ele>
        <time>2020-06-10T11:56:29Z</time>
      </trkpt>
      <trkpt lat="48.57824" lon="-3.82873">
        <ele>5.5</ele>
        <time>2020-06-10T11:56:30Z</time>
      </trkpt>
      <trkpt lat="48.57825" lon="-3.82873">
        <ele>5.5</ele>
        <time>2020-06-10T11:56:31Z</time>
      </trkpt>
      <trkpt lat="48.57825" lon="-3.82872">
        <ele>5.6</ele>
        <time>2020-06-10T11:56:32Z</time>
      </trkpt>
      <trkpt lat="48.57826" lon="-3.82872">
        <ele>5.6</ele>
        <time>2020-06-10T11:56:33Z</time>
      </trkpt>
      <trkpt lat="48.57826" lon="-3.82872">
        <ele>5.6</ele>
        <time>2020-06-10T11:56:34Z</time>
      </trkpt>
      <trkpt lat="48.57826" lon="-3.82872">
        <ele>5.6</ele>
        <time>2020-06-10T11:56:35Z</time>
      </trkpt>
      <trkpt lat="48.57826" lon="-3.82872">
        <ele>5.6</ele>
        <time>2020-06-10T11:56:36Z</time>
      </trkpt>
      <trkpt lat="48.57826" lon="-3.82872">
        <ele>5.6</ele>
        <time>2020-06-10T11:56:37Z</time>
      </trkpt>
      <trkpt lat="48.57827" lon="-3.82873">
        <ele>5.6</ele>
        <time>2020-06-10T11:56:38Z</time>
      </trkpt>
      <trkpt lat="48.57827" lon="-3.82873">
        <ele>5.6</ele>
        <time>2020-06-10T11:56:39Z</time>
      </trkpt>
      <trkpt lat="48.57827" lon="-3.82873">
        <ele>5.6</ele>
        <time>2020-06-10T11:56:40Z</time>
      </trkpt>
      <trkpt lat="48.57827" lon="-3.82873">
        <ele>5.6</ele>
        <time>2020-06-10T11:56:41Z</time>
      </trkpt>
      <trkpt lat="48.57827" lon="-3.82873">
        <ele>5.6</ele>
        <time>2020-06-10T11:56:42Z</time>
      </trkpt>
      <trkpt lat="48.57827" lon="-3.82873">
        <ele>5.6</ele>
        <time>2020-06-10T11:56:43Z</time>
      </trkpt>
      <trkpt lat="48.57827" lon="-3.82873">
        <ele>5.6</ele>
        <time>2020-06-10T11:56:44Z</time>
      </trkpt>
      <trkpt lat="48.57827" lon="-3.82873">
        <ele>5.6</ele>
        <time>2020-06-10T11:56:45Z</time>
      </trkpt>
      <trkpt lat="48.57827" lon="-3.82873">
        <ele>5.6</ele>
        <time>2020-06-10T11:56:46Z</time>
      </trkpt>
      <trkpt lat="48.57827" lon="-3.82873">
        <ele>5.6</ele>
        <time>2020-06-10T11:56:47Z</time>
      </trkpt>
      <trkpt lat="48.57827" lon="-3.82873">
        <ele>5.6</ele>
        <time>2020-06-10T11:56:48Z</time>
      </trkpt>
      <trkpt lat="48.57827" lon="-3.82873">
        <ele>5.6</ele>
        <time>2020-06-10T11:56:49Z</time>
      </trkpt>
      <trkpt lat="48.57827" lon="-3.82873">
        <ele>5.6</ele>
        <time>2020-06-10T11:56:50Z</time>
      </trkpt>
      <trkpt lat="48.57827" lon="-3.82873">
        <ele>5.6</ele>
        <time>2020-06-10T11:56:51Z</time>
      </trkpt>
      <trkpt lat="48.57829" lon="-3.82862">
        <ele>5.3</ele>
        <time>2020-06-10T11:57:23Z</time>
      </trkpt>
      <trkpt lat="48.57828" lon="-3.82862">
        <ele>5.3</ele>
        <time>2020-06-10T11:57:24Z</time>
      </trkpt>
      <trkpt lat="48.57827" lon="-3.82862">
        <ele>5</ele>
        <time>2020-06-10T11:57:25Z</time>
      </trkpt>
      <trkpt lat="48.57827" lon="-3.82863">
        <ele>5</ele>
        <time>2020-06-10T11:57:26Z</time>
      </trkpt>
      <trkpt lat="48.57827" lon="-3.82862">
        <ele>5</ele>
        <time>2020-06-10T11:57:27Z</time>
      </trkpt>
      <trkpt lat="48.57827" lon="-3.82863">
        <ele>5</ele>
        <time>2020-06-10T11:57:28Z</time>
      </trkpt>
      <trkpt lat="48.57828" lon="-3.82862">
        <ele>5</ele>
        <time>2020-06-10T11:57:29Z</time>
      </trkpt>
      <trkpt lat="48.5783" lon="-3.82861">
        <ele>5.3</ele>
        <time>2020-06-10T11:57:30Z</time>
      </trkpt>
      <trkpt lat="48.57831" lon="-3.82861">
        <ele>5.7</ele>
        <time>2020-06-10T11:57:31Z</time>
      </trkpt>
      <trkpt lat="48.57831" lon="-3.82861">
        <ele>5.7</ele>
        <time>2020-06-10T11:57:32Z</time>
      </trkpt>
      <trkpt lat="48.57832" lon="-3.8286">
        <ele>5.7</ele>
        <time>2020-06-10T11:57:33Z</time>
      </trkpt>
      <trkpt lat="48.57832" lon="-3.8286">
        <ele>5.7</ele>
        <time>2020-06-10T11:57:34Z</time>
      </trkpt>
      <trkpt lat="48.57833" lon="-3.8286">
        <ele>5.7</ele>
        <time>2020-06-10T11:57:35Z</time>
      </trkpt>
      <trkpt lat="48.57832" lon="-3.8286">
        <ele>5.7</ele>
        <time>2020-06-10T11:57:36Z</time>
      </trkpt>
      <trkpt lat="48.57832" lon="-3.8286">
        <ele>5.7</ele>
        <time>2020-06-10T11:57:37Z</time>
      </trkpt>
      <trkpt lat="48.57832" lon="-3.8286">
        <ele>5.7</ele>
        <time>2020-06-10T11:57:38Z</time>
      </trkpt>
      <trkpt lat="48.57833" lon="-3.8286">
        <ele>5.7</ele>
        <time>2020-06-10T11:57:39Z</time>
      </trkpt>
      <trkpt lat="48.57834" lon="-3.82859">
        <ele>5.7</ele>
        <time>2020-06-10T11:57:40Z</time>
      </trkpt>
      <trkpt lat="48.57835" lon="-3.82859">
        <ele>6.1</ele>
        <time>2020-06-10T11:57:41Z</time>
      </trkpt>
      <trkpt lat="48.57836" lon="-3.8286">
        <ele>6.1</ele>
        <time>2020-06-10T11:57:42Z</time>
      </trkpt>
      <trkpt lat="48.57836" lon="-3.8286">
        <ele>6.1</ele>
        <time>2020-06-10T11:57:43Z</time>
      </trkpt>
      <trkpt lat="48.57836" lon="-3.8286">
        <ele>6.1</ele>
        <time>2020-06-10T11:57:44Z</time>
      </trkpt>
      <trkpt lat="48.57837" lon="-3.82861">
        <ele>6</ele>
        <time>2020-06-10T11:57:45Z</time>
      </trkpt>
      <trkpt lat="48.57837" lon="-3.82861">
        <ele>6.5</ele>
        <time>2020-06-10T11:57:46Z</time>
      </trkpt>
      <trkpt lat="48.57837" lon="-3.82861">
        <ele>6.5</ele>
        <time>2020-06-10T11:57:47Z</time>
      </trkpt>
      <trkpt lat="48.57837" lon="-3.82862">
        <ele>6.5</ele>
        <time>2020-06-10T11:57:48Z</time>
      </trkpt>
      <trkpt lat="48.57838" lon="-3.82862">
        <ele>6.5</ele>
        <time>2020-06-10T11:57:49Z</time>
      </trkpt>
      <trkpt lat="48.57838" lon="-3.82862">
        <ele>6.5</ele>
        <time>2020-06-10T11:57:50Z</time>
      </trkpt>
      <trkpt lat="48.57838" lon="-3.82863">
        <ele>6.5</ele>
        <time>2020-06-10T11:57:51Z</time>
      </trkpt>
      <trkpt lat="48.57839" lon="-3.82863">
        <ele>6.5</ele>
        <time>2020-06-10T11:57:52Z</time>
      </trkpt>
      <trkpt lat="48.57839" lon="-3.82863">
        <ele>6.5</ele>
        <time>2020-06-10T11:57:53Z</time>
      </trkpt>
      <trkpt lat="48.57839" lon="-3.82864">
        <ele>6.5</ele>
        <time>2020-06-10T11:57:54Z</time>
      </trkpt>
      <trkpt lat="48.57839" lon="-3.82864">
        <ele>6.5</ele>
        <time>2020-06-10T11:57:55Z</time>
      </trkpt>
      <trkpt lat="48.5784" lon="-3.82864">
        <ele>6.9</ele>
        <time>2020-06-10T11:57:56Z</time>
      </trkpt>
      <trkpt lat="48.5784" lon="-3.82865">
        <ele>6.9</ele>
        <time>2020-06-10T11:57:57Z</time>
      </trkpt>
      <trkpt lat="48.5784" lon="-3.82865">
        <ele>6.9</ele>
        <time>2020-06-10T11:57:58Z</time>
      </trkpt>
      <trkpt lat="48.57841" lon="-3.82865">
        <ele>6.7</ele>
        <time>2020-06-10T11:57:59Z</time>
      </trkpt>
      <trkpt lat="48.57841" lon="-3.82866">
        <ele>6.7</ele>
        <time>2020-06-10T11:58:00Z</time>
      </trkpt>
      <trkpt lat="48.57841" lon="-3.82866">
        <ele>6.7</ele>
        <time>2020-06-10T11:58:01Z</time>
      </trkpt>
      <trkpt lat="48.57841" lon="-3.82866">
        <ele>6.7</ele>
        <time>2020-06-10T11:58:02Z</time>
      </trkpt>
      <trkpt lat="48.57842" lon="-3.82867">
        <ele>6.7</ele>
        <time>2020-06-10T11:58:03Z</time>
      </trkpt>
      <trkpt lat="48.57842" lon="-3.82867">
        <ele>6.7</ele>
        <time>2020-06-10T11:58:04Z</time>
      </trkpt>
      <trkpt lat="48.57842" lon="-3.82867">
        <ele>6.7</ele>
        <time>2020-06-10T11:58:05Z</time>
      </trkpt>
      <trkpt lat="48.57842" lon="-3.82868">
        <ele>6.7</ele>
        <time>2020-06-10T11:59:08Z</time>
      </trkpt>
      <trkpt lat="48.57843" lon="-3.82868">
        <ele>7</ele>
        <time>2020-06-10T11:59:09Z</time>
      </trkpt>
      <trkpt lat="48.57843" lon="-3.82868">
        <ele>7</ele>
        <time>2020-06-10T11:59:10Z</time>
      </trkpt>
      <trkpt lat="48.57845" lon="-3.8287">
        <ele>7</ele>
        <time>2020-06-10T11:59:11Z</time>
      </trkpt>
      <trkpt lat="48.57845" lon="-3.8287">
        <ele>7.2</ele>
        <time>2020-06-10T11:59:12Z</time>
      </trkpt>
      <trkpt lat="48.57846" lon="-3.8287">
        <ele>7.2</ele>
        <time>2020-06-10T11:59:13Z</time>
      </trkpt>
      <trkpt lat="48.57847" lon="-3.82873">
        <ele>7.2</ele>
        <time>2020-06-10T11:59:14Z</time>
      </trkpt>
      <trkpt lat="48.57848" lon="-3.82874">
        <ele>7.2</ele>
        <time>2020-06-10T11:59:15Z</time>
      </trkpt>
      <trkpt lat="48.57849" lon="-3.82876">
        <ele>7.4</ele>
        <time>2020-06-10T11:59:16Z</time>
      </trkpt>
      <trkpt lat="48.5785" lon="-3.82877">
        <ele>7.4</ele>
        <time>2020-06-10T11:59:17Z</time>
      </trkpt>
      <trkpt lat="48.5785" lon="-3.82878">
        <ele>7.5</ele>
        <time>2020-06-10T11:59:18Z</time>
      </trkpt>
      <trkpt lat="48.57851" lon="-3.8288">
        <ele>7.6</ele>
        <time>2020-06-10T11:59:19Z</time>
      </trkpt>
      <trkpt lat="48.57851" lon="-3.82881">
        <ele>7.6</ele>
        <time>2020-06-10T11:59:20Z</time>
      </trkpt>
      <trkpt lat="48.57852" lon="-3.82882">
        <ele>7.6</ele>
        <time>2020-06-10T11:59:21Z</time>
      </trkpt>
      <trkpt lat="48.57853" lon="-3.82883">
        <ele>7.9</ele>
        <time>2020-06-10T11:59:22Z</time>
      </trkpt>
      <trkpt lat="48.57853" lon="-3.82883">
        <ele>7.9</ele>
        <time>2020-06-10T11:59:23Z</time>
      </trkpt>
      <trkpt lat="48.57854" lon="-3.82883">
        <ele>7.9</ele>
        <time>2020-06-10T11:59:24Z</time>
      </trkpt>
      <trkpt lat="48.57855" lon="-3.82883">
        <ele>7.9</ele>
        <time>2020-06-10T11:59:25Z</time>
      </trkpt>
      <trkpt lat="48.57856" lon="-3.82883">
        <ele>7.9</ele>
        <time>2020-06-10T11:59:26Z</time>
      </trkpt>
      <trkpt lat="48.57856" lon="-3.82885">
        <ele>7.9</ele>
        <time>2020-06-10T11:59:27Z</time>
      </trkpt>
      <trkpt lat="48.57857" lon="-3.82885">
        <ele>7.9</ele>
        <time>2020-06-10T11:59:28Z</time>
      </trkpt>
      <trkpt lat="48.57857" lon="-3.82886">
        <ele>7.9</ele>
        <time>2020-06-10T11:59:29Z</time>
      </trkpt>
      <trkpt lat="48.57858" lon="-3.82887">
        <ele>8.3</ele>
        <time>2020-06-10T11:59:30Z</time>
      </trkpt>
      <trkpt lat="48.57859" lon="-3.82887">
        <ele>8.3</ele>
        <time>2020-06-10T11:59:31Z</time>
      </trkpt>
      <trkpt lat="48.57859" lon="-3.82888">
        <ele>8.3</ele>
        <time>2020-06-10T11:59:32Z</time>
      </trkpt>
      <trkpt lat="48.5786" lon="-3.82889">
        <ele>8.2</ele>
        <time>2020-06-10T11:59:33Z</time>
      </trkpt>
      <trkpt lat="48.57861" lon="-3.82889">
        <ele>8.2</ele>
        <time>2020-06-10T11:59:34Z</time>
      </trkpt>
      <trkpt lat="48.57861" lon="-3.82889">
        <ele>8.2</ele>
        <time>2020-06-10T11:59:35Z</time>
      </trkpt>
      <trkpt lat="48.57863" lon="-3.8289">
        <ele>8.2</ele>
        <time>2020-06-10T11:59:36Z</time>
      </trkpt>
      <trkpt lat="48.57864" lon="-3.82892">
        <ele>8.6</ele>
        <time>2020-06-10T11:59:37Z</time>
      </trkpt>
      <trkpt lat="48.57865" lon="-3.82893">
        <ele>8.6</ele>
        <time>2020-06-10T11:59:38Z</time>
      </trkpt>
      <trkpt lat="48.57865" lon="-3.82893">
        <ele>8.6</ele>
        <time>2020-06-10T11:59:39Z</time>
      </trkpt>
      <trkpt lat="48.57865" lon="-3.82893">
        <ele>8.6</ele>
        <time>2020-06-10T11:59:40Z</time>
      </trkpt>
      <trkpt lat="48.57866" lon="-3.82893">
        <ele>8.5</ele>
        <time>2020-06-10T11:59:41Z</time>
      </trkpt>
      <trkpt lat="48.57866" lon="-3.82893">
        <ele>8.5</ele>
        <time>2020-06-10T11:59:42Z</time>
      </trkpt>
      <trkpt lat="48.57866" lon="-3.82893">
        <ele>8.5</ele>
        <time>2020-06-10T11:59:43Z</time>
      </trkpt>
      <trkpt lat="48.57867" lon="-3.82893">
        <ele>8.5</ele>
        <time>2020-06-10T11:59:44Z</time>
      </trkpt>
      <trkpt lat="48.57867" lon="-3.82893">
        <ele>8.5</ele>
        <time>2020-06-10T11:59:45Z</time>
      </trkpt>
      <trkpt lat="48.57868" lon="-3.82893">
        <ele>8.5</ele>
        <time>2020-06-10T11:59:46Z</time>
      </trkpt>
      <trkpt lat="48.57868" lon="-3.82893">
        <ele>8.5</ele>
        <time>2020-06-10T11:59:47Z</time>
      </trkpt>
      <trkpt lat="48.57869" lon="-3.82893">
        <ele>8.4</ele>
        <time>2020-06-10T11:59:48Z</time>
      </trkpt>
      <trkpt lat="48.5787" lon="-3.82893">
        <ele>8.4</ele>
        <time>2020-06-10T11:59:49Z</time>
      </trkpt>
      <trkpt lat="48.5787" lon="-3.82894">
        <ele>8.4</ele>
        <time>2020-06-10T11:59:50Z</time>
      </trkpt>
      <trkpt lat="48.57871" lon="-3.82896">
        <ele>8.7</ele>
        <time>2020-06-10T11:59:51Z</time>
      </trkpt>
      <trkpt lat="48.57871" lon="-3.82897">
        <ele>8.7</ele>
        <time>2020-06-10T11:59:52Z</time>
      </trkpt>
      <trkpt lat="48.57871" lon="-3.82897">
        <ele>8.7</ele>
        <time>2020-06-10T11:59:53Z</time>
      </trkpt>
      <trkpt lat="48.57871" lon="-3.82898">
        <ele>8.7</ele>
        <time>2020-06-10T11:59:54Z</time>
      </trkpt>
      <trkpt lat="48.57871" lon="-3.82898">
        <ele>8.7</ele>
        <time>2020-06-10T11:59:55Z</time>
      </trkpt>
      <trkpt lat="48.57871" lon="-3.82899">
        <ele>8.7</ele>
        <time>2020-06-10T11:59:56Z</time>
      </trkpt>
      <trkpt lat="48.57872" lon="-3.829">
        <ele>9.2</ele>
        <time>2020-06-10T11:59:57Z</time>
      </trkpt>
      <trkpt lat="48.57872" lon="-3.829">
        <ele>9.2</ele>
        <time>2020-06-10T11:59:58Z</time>
      </trkpt>
      <trkpt lat="48.57873" lon="-3.829">
        <ele>9.2</ele>
        <time>2020-06-10T11:59:59Z</time>
      </trkpt>
      <trkpt lat="48.57873" lon="-3.829">
        <ele>9.2</ele>
        <time>2020-06-10T12:00:00Z</time>
      </trkpt>
      <trkpt lat="48.57873" lon="-3.829">
        <ele>9.2</ele>
        <time>2020-06-10T12:00:01Z</time>
      </trkpt>
      <trkpt lat="48.57873" lon="-3.829">
        <ele>9.2</ele>
        <time>2020-06-10T12:00:02Z</time>
      </trkpt>
      <trkpt lat="48.57873" lon="-3.829">
        <ele>9.2</ele>
        <time>2020-06-10T12:00:03Z</time>
      </trkpt>
      <trkpt lat="48.57873" lon="-3.829">
        <ele>9.2</ele>
        <time>2020-06-10T12:00:04Z</time>
      </trkpt>
      <trkpt lat="48.57874" lon="-3.829">
        <ele>9.2</ele>
        <time>2020-06-10T12:00:05Z</time>
      </trkpt>
      <trkpt lat="48.57874" lon="-3.829">
        <ele>9.2</ele>
        <time>2020-06-10T12:00:06Z</time>
      </trkpt>
      <trkpt lat="48.57874" lon="-3.829">
        <ele>9.2</ele>
        <time>2020-06-10T12:00:07Z</time>
      </trkpt>
      <trkpt lat="48.57872" lon="-3.8289">
        <ele>8.2</ele>
        <time>2020-06-10T12:00:20Z</time>
      </trkpt>
      <trkpt lat="48.57873" lon="-3.82889">
        <ele>8.2</ele>
        <time>2020-06-10T12:00:21Z</time>
      </trkpt>
      <trkpt lat="48.57873" lon="-3.82889">
        <ele>8.2</ele>
        <time>2020-06-10T12:00:22Z</time>
      </trkpt>
      <trkpt lat="48.57873" lon="-3.82889">
        <ele>8.2</ele>
        <time>2020-06-10T12:00:23Z</time>
      </trkpt>
      <trkpt lat="48.57874" lon="-3.8289">
        <ele>8.2</ele>
        <time>2020-06-10T12:00:24Z</time>
      </trkpt>
      <trkpt lat="48.57875" lon="-3.8289">
        <ele>8.2</ele>
        <time>2020-06-10T12:00:25Z</time>
      </trkpt>
      <trkpt lat="48.57875" lon="-3.8289">
        <ele>8.2</ele>
        <time>2020-06-10T12:00:26Z</time>
      </trkpt>
      <trkpt lat="48.57875" lon="-3.8289">
        <ele>8.2</ele>
        <time>2020-06-10T12:00:27Z</time>
      </trkpt>
      <trkpt lat="48.57874" lon="-3.8289">
        <ele>8.2</ele>
        <time>2020-06-10T12:00:28Z</time>
      </trkpt>
      <trkpt lat="48.57875" lon="-3.8289">
        <ele>8.2</ele>
        <time>2020-06-10T12:00:29Z</time>
      </trkpt>
      <trkpt lat="48.57875" lon="-3.8289">
        <ele>8.2</ele>
        <time>2020-06-10T12:00:30Z</time>
      </trkpt>
      <trkpt lat="48.57876" lon="-3.82889">
        <ele>8.2</ele>
        <time>2020-06-10T12:00:31Z</time>
      </trkpt>
      <trkpt lat="48.57877" lon="-3.82888">
        <ele>8.3</ele>
        <time>2020-06-10T12:00:32Z</time>
      </trkpt>
      <trkpt lat="48.57877" lon="-3.82888">
        <ele>8.3</ele>
        <time>2020-06-10T12:00:33Z</time>
      </trkpt>
      <trkpt lat="48.57878" lon="-3.82889">
        <ele>8.3</ele>
        <time>2020-06-10T12:06:18Z</time>
      </trkpt>
      <trkpt lat="48.57879" lon="-3.82887">
        <ele>8.3</ele>
        <time>2020-06-10T12:06:19Z</time>
      </trkpt>
      <trkpt lat="48.57879" lon="-3.82888">
        <ele>8.3</ele>
        <time>2020-06-10T12:06:20Z</time>
      </trkpt>
      <trkpt lat="48.57879" lon="-3.82889">
        <ele>8.3</ele>
        <time>2020-06-10T12:06:21Z</time>
      </trkpt>
      <trkpt lat="48.57879" lon="-3.8289">
        <ele>8.3</ele>
        <time>2020-06-10T12:06:22Z</time>
      </trkpt>
      <trkpt lat="48.57879" lon="-3.8289">
        <ele>8.3</ele>
        <time>2020-06-10T12:06:23Z</time>
      </trkpt>
      <trkpt lat="48.57879" lon="-3.82889">
        <ele>8.3</ele>
        <time>2020-06-10T12:06:24Z</time>
      </trkpt>
      <trkpt lat="48.5788" lon="-3.82889">
        <ele>8.3</ele>
        <time>2020-06-10T12:06:25Z</time>
      </trkpt>
      <trkpt lat="48.5788" lon="-3.8289">
        <ele>8.3</ele>
        <time>2020-06-10T12:06:26Z</time>
      </trkpt>
      <trkpt lat="48.5788" lon="-3.8289">
        <ele>8.3</ele>
        <time>2020-06-10T12:06:27Z</time>
      </trkpt>
      <trkpt lat="48.5788" lon="-3.8289">
        <ele>8.3</ele>
        <time>2020-06-10T12:06:28Z</time>
      </trkpt>
      <trkpt lat="48.5788" lon="-3.8289">
        <ele>8.3</ele>
        <time>2020-06-10T12:06:29Z</time>
      </trkpt>
      <trkpt lat="48.5788" lon="-3.82892">
        <ele>8.1</ele>
        <time>2020-06-10T12:06:30Z</time>
      </trkpt>
      <trkpt lat="48.57879" lon="-3.82892">
        <ele>8.1</ele>
        <time>2020-06-10T12:06:31Z</time>
      </trkpt>
      <trkpt lat="48.57883" lon="-3.8289">
        <ele>8.4</ele>
        <time>2020-06-10T12:08:21Z</time>
      </trkpt>
      <trkpt lat="48.57883" lon="-3.8289">
        <ele>8.4</ele>
        <time>2020-06-10T12:08:22Z</time>
      </trkpt>
      <trkpt lat="48.57883" lon="-3.8289">
        <ele>8.4</ele>
        <time>2020-06-10T12:08:23Z</time>
      </trkpt>
      <trkpt lat="48.57883" lon="-3.8289">
        <ele>8.4</ele>
        <time>2020-06-10T12:08:24Z</time>
      </trkpt>
      <trkpt lat="48.57883" lon="-3.8289">
        <ele>8.4</ele>
        <time>2020-06-10T12:08:25Z</time>
      </trkpt>
      <trkpt lat="48.57883" lon="-3.8289">
        <ele>8.4</ele>
        <time>2020-06-10T12:08:26Z</time>
      </trkpt>
      <trkpt lat="48.57883" lon="-3.8289">
        <ele>8.4</ele>
        <time>2020-06-10T12:08:27Z</time>
      </trkpt>
      <trkpt lat="48.57883" lon="-3.8289">
        <ele>8.4</ele>
        <time>2020-06-10T12:08:28Z</time>
      </trkpt>
      <trkpt lat="48.57883" lon="-3.8289">
        <ele>8.4</ele>
        <time>2020-06-10T12:08:29Z</time>
      </trkpt>
      <trkpt lat="48.57883" lon="-3.8289">
        <ele>8.4</ele>
        <time>2020-06-10T12:08:30Z</time>
      </trkpt>
      <trkpt lat="48.57882" lon="-3.82891">
        <ele>8.4</ele>
        <time>2020-06-10T12:08:31Z</time>
      </trkpt>
      <trkpt lat="48.57882" lon="-3.82892">
        <ele>8.1</ele>
        <time>2020-06-10T12:08:32Z</time>
      </trkpt>
      <trkpt lat="48.57882" lon="-3.82892">
        <ele>8.1</ele>
        <time>2020-06-10T12:08:33Z</time>
      </trkpt>
      <trkpt lat="48.57885" lon="-3.82891">
        <ele>8.1</ele>
        <time>2020-06-10T12:08:51Z</time>
      </trkpt>
      <trkpt lat="48.57885" lon="-3.82891">
        <ele>8.1</ele>
        <time>2020-06-10T12:08:52Z</time>
      </trkpt>
      <trkpt lat="48.57885" lon="-3.82891">
        <ele>8.1</ele>
        <time>2020-06-10T12:08:53Z</time>
      </trkpt>
      <trkpt lat="48.57885" lon="-3.82892">
        <ele>8.1</ele>
        <time>2020-06-10T12:08:54Z</time>
      </trkpt>
      <trkpt lat="48.57885" lon="-3.82892">
        <ele>8.1</ele>
        <time>2020-06-10T12:08:55Z</time>
      </trkpt>
      <trkpt lat="48.57885" lon="-3.82892">
        <ele>8.1</ele>
        <time>2020-06-10T12:08:56Z</time>
      </trkpt>
      <trkpt lat="48.57885" lon="-3.82891">
        <ele>8.1</ele>
        <time>2020-06-10T12:08:57Z</time>
      </trkpt>
      <trkpt lat="48.57886" lon="-3.82891">
        <ele>8.5</ele>
        <time>2020-06-10T12:08:58Z</time>
      </trkpt>
      <trkpt lat="48.57886" lon="-3.8289">
        <ele>8.5</ele>
        <time>2020-06-10T12:08:59Z</time>
      </trkpt>
      <trkpt lat="48.57886" lon="-3.82889">
        <ele>8.5</ele>
        <time>2020-06-10T12:09:00Z</time>
      </trkpt>
      <trkpt lat="48.57887" lon="-3.82888">
        <ele>8.5</ele>
        <time>2020-06-10T12:09:01Z</time>
      </trkpt>
      <trkpt lat="48.57887" lon="-3.82887">
        <ele>8.5</ele>
        <time>2020-06-10T12:09:02Z</time>
      </trkpt>
      <trkpt lat="48.57888" lon="-3.82886">
        <ele>9.3</ele>
        <time>2020-06-10T12:09:03Z</time>
      </trkpt>
      <trkpt lat="48.57888" lon="-3.82886">
        <ele>9.3</ele>
        <time>2020-06-10T12:09:04Z</time>
      </trkpt>
      <trkpt lat="48.57888" lon="-3.82885">
        <ele>9.3</ele>
        <time>2020-06-10T12:09:05Z</time>
      </trkpt>
      <trkpt lat="48.57888" lon="-3.82885">
        <ele>9.3</ele>
        <time>2020-06-10T12:09:06Z</time>
      </trkpt>
      <trkpt lat="48.57889" lon="-3.82884">
        <ele>9.3</ele>
        <time>2020-06-10T12:09:07Z</time>
      </trkpt>
      <trkpt lat="48.57889" lon="-3.82884">
        <ele>9.3</ele>
        <time>2020-06-10T12:09:08Z</time>
      </trkpt>
      <trkpt lat="48.57889" lon="-3.82883">
        <ele>9.3</ele>
        <time>2020-06-10T12:09:09Z</time>
      </trkpt>
      <trkpt lat="48.57889" lon="-3.82883">
        <ele>9.3</ele>
        <time>2020-06-10T12:09:10Z</time>
      </trkpt>
      <trkpt lat="48.57889" lon="-3.82882">
        <ele>9.3</ele>
        <time>2020-06-10T12:09:11Z</time>
      </trkpt>
      <trkpt lat="48.57889" lon="-3.82882">
        <ele>10</ele>
        <time>2020-06-10T12:09:12Z</time>
      </trkpt>
      <trkpt lat="48.5789" lon="-3.82881">
        <ele>10</ele>
        <time>2020-06-10T12:09:13Z</time>
      </trkpt>
      <trkpt lat="48.5789" lon="-3.82881">
        <ele>10</ele>
        <time>2020-06-10T12:09:14Z</time>
      </trkpt>
      <trkpt lat="48.5789" lon="-3.8288">
        <ele>10</ele>
        <time>2020-06-10T12:09:15Z</time>
      </trkpt>
      <trkpt lat="48.5789" lon="-3.8288">
        <ele>10</ele>
        <time>2020-06-10T12:09:16Z</time>
      </trkpt>
      <trkpt lat="48.5789" lon="-3.8288">
        <ele>10</ele>
        <time>2020-06-10T12:10:24Z</time>
      </trkpt>
      <trkpt lat="48.5789" lon="-3.82879">
        <ele>10</ele>
        <time>2020-06-10T12:10:25Z</time>
      </trkpt>
      <trkpt lat="48.57891" lon="-3.82879">
        <ele>10</ele>
        <time>2020-06-10T12:10:26Z</time>
      </trkpt>
      <trkpt lat="48.57891" lon="-3.82878">
        <ele>10</ele>
        <time>2020-06-10T12:10:27Z</time>
      </trkpt>
      <trkpt lat="48.57891" lon="-3.82878">
        <ele>11.1</ele>
        <time>2020-06-10T12:10:28Z</time>
      </trkpt>
      <trkpt lat="48.57891" lon="-3.82877">
        <ele>11.1</ele>
        <time>2020-06-10T12:10:29Z</time>
      </trkpt>
      <trkpt lat="48.57891" lon="-3.82877">
        <ele>11.1</ele>
        <time>2020-06-10T12:10:30Z</time>
      </trkpt>
      <trkpt lat="48.57891" lon="-3.82876">
        <ele>11.1</ele>
        <time>2020-06-10T12:10:31Z</time>
      </trkpt>
      <trkpt lat="48.57891" lon="-3.82876">
        <ele>11.1</ele>
        <time>2020-06-10T12:10:32Z</time>
      </trkpt>
      <trkpt lat="48.57892" lon="-3.82875">
        <ele>11.1</ele>
        <time>2020-06-10T12:10:33Z</time>
      </trkpt>
      <trkpt lat="48.57892" lon="-3.82875">
        <ele>11.1</ele>
        <time>2020-06-10T12:10:34Z</time>
      </trkpt>
      <trkpt lat="48.57892" lon="-3.82874">
        <ele>11.1</ele>
        <time>2020-06-10T12:11:01Z</time>
      </trkpt>
      <trkpt lat="48.57892" lon="-3.82874">
        <ele>11.1</ele>
        <time>2020-06-10T12:11:02Z</time>
      </trkpt>
      <trkpt lat="48.57892" lon="-3.82873">
        <ele>11.7</ele>
        <time>2020-06-10T12:11:03Z</time>
      </trkpt>
      <trkpt lat="48.57892" lon="-3.82873">
        <ele>11.7</ele>
        <time>2020-06-10T12:11:04Z</time>
      </trkpt>
      <trkpt lat="48.57893" lon="-3.82872">
        <ele>11.7</ele>
        <time>2020-06-10T12:11:05Z</time>
      </trkpt>
      <trkpt lat="48.57893" lon="-3.82872">
        <ele>11.7</ele>
        <time>2020-06-10T12:11:06Z</time>
      </trkpt>
      <trkpt lat="48.57893" lon="-3.82872">
        <ele>11.7</ele>
        <time>2020-06-10T12:11:07Z</time>
      </trkpt>
      <trkpt lat="48.57893" lon="-3.82871">
        <ele>11.7</ele>
        <time>2020-06-10T12:11:08Z</time>
      </trkpt>
      <trkpt lat="48.57893" lon="-3.8287">
        <ele>11.7</ele>
        <time>2020-06-10T12:11:09Z</time>
      </trkpt>
      <trkpt lat="48.57893" lon="-3.82873">
        <ele>11.7</ele>
        <time>2020-06-10T12:11:10Z</time>
      </trkpt>
      <trkpt lat="48.57894" lon="-3.82876">
        <ele>11.4</ele>
        <time>2020-06-10T12:11:11Z</time>
      </trkpt>
      <trkpt lat="48.57894" lon="-3.82878">
        <ele>10.6</ele>
        <time>2020-06-10T12:11:12Z</time>
      </trkpt>
      <trkpt lat="48.57893" lon="-3.8288">
        <ele>10.3</ele>
        <time>2020-06-10T12:11:13Z</time>
      </trkpt>
      <trkpt lat="48.57893" lon="-3.82881">
        <ele>10.3</ele>
        <time>2020-06-10T12:11:14Z</time>
      </trkpt>
      <trkpt lat="48.57893" lon="-3.82882">
        <ele>10.3</ele>
        <time>2020-06-10T12:11:15Z</time>
      </trkpt>
      <trkpt lat="48.57893" lon="-3.82881">
        <ele>10.3</ele>
        <time>2020-06-10T12:11:16Z</time>
      </trkpt>
      <trkpt lat="48.57894" lon="-3.82881">
        <ele>10.6</ele>
        <time>2020-06-10T12:11:17Z</time>
      </trkpt>
      <trkpt lat="48.57894" lon="-3.8288">
        <ele>10.6</ele>
        <time>2020-06-10T12:11:18Z</time>
      </trkpt>
      <trkpt lat="48.57895" lon="-3.82881">
        <ele>10.6</ele>
        <time>2020-06-10T12:11:19Z</time>
      </trkpt>
      <trkpt lat="48.57895" lon="-3.82881">
        <ele>10.6</ele>
        <time>2020-06-10T12:11:20Z</time>
      </trkpt>
      <trkpt lat="48.57896" lon="-3.82881">
        <ele>10.6</ele>
        <time>2020-06-10T12:11:21Z</time>
      </trkpt>
      <trkpt lat="48.57896" lon="-3.82881">
        <ele>10.6</ele>
        <time>2020-06-10T12:11:22Z</time>
      </trkpt>
      <trkpt lat="48.57895" lon="-3.8288">
        <ele>10.6</ele>
        <time>2020-06-10T12:11:23Z</time>
      </trkpt>
      <trkpt lat="48.57895" lon="-3.8288">
        <ele>10.6</ele>
        <time>2020-06-10T12:11:24Z</time>
      </trkpt>
      <trkpt lat="48.57894" lon="-3.8288">
        <ele>10.6</ele>
        <time>2020-06-10T12:11:25Z</time>
      </trkpt>
      <trkpt lat="48.57894" lon="-3.8288">
        <ele>10.6</ele>
        <time>2020-06-10T12:11:26Z</time>
      </trkpt>
      <trkpt lat="48.57894" lon="-3.8288">
        <ele>10.6</ele>
        <time>2020-06-10T12:11:27Z</time>
      </trkpt>
      <trkpt lat="48.57893" lon="-3.8288">
        <ele>10.3</ele>
        <time>2020-06-10T12:11:28Z</time>
      </trkpt>
      <trkpt lat="48.57893" lon="-3.8288">
        <ele>10.3</ele>
        <time>2020-06-10T12:11:29Z</time>
      </trkpt>
      <trkpt lat="48.57886" lon="-3.82875">
        <ele>10.4</ele>
        <time>2020-06-10T12:11:33Z</time>
      </trkpt>
      <trkpt lat="48.57885" lon="-3.82874">
        <ele>10</ele>
        <time>2020-06-10T12:11:34Z</time>
      </trkpt>
      <trkpt lat="48.57883" lon="-3.82873">
        <ele>10.6</ele>
        <time>2020-06-10T12:11:35Z</time>
      </trkpt>
      <trkpt lat="48.57882" lon="-3.82873">
        <ele>10.3</ele>
        <time>2020-06-10T12:11:36Z</time>
      </trkpt>
      <trkpt lat="48.57881" lon="-3.82873">
        <ele>10.3</ele>
        <time>2020-06-10T12:11:37Z</time>
      </trkpt>
      <trkpt lat="48.5788" lon="-3.82873">
        <ele>10.3</ele>
        <time>2020-06-10T12:11:38Z</time>
      </trkpt>
      <trkpt lat="48.57879" lon="-3.82873">
        <ele>9.9</ele>
        <time>2020-06-10T12:11:39Z</time>
      </trkpt>
      <trkpt lat="48.57878" lon="-3.82872">
        <ele>9.9</ele>
        <time>2020-06-10T12:11:40Z</time>
      </trkpt>
      <trkpt lat="48.57876" lon="-3.82872">
        <ele>9.6</ele>
        <time>2020-06-10T12:11:41Z</time>
      </trkpt>
      <trkpt lat="48.57875" lon="-3.82872">
        <ele>9.6</ele>
        <time>2020-06-10T12:11:42Z</time>
      </trkpt>
      <trkpt lat="48.57873" lon="-3.82872">
        <ele>9.3</ele>
        <time>2020-06-10T12:11:43Z</time>
      </trkpt>
      <trkpt lat="48.57873" lon="-3.82872">
        <ele>9.3</ele>
        <time>2020-06-10T12:11:44Z</time>
      </trkpt>
      <trkpt lat="48.57872" lon="-3.82872">
        <ele>9.3</ele>
        <time>2020-06-10T12:11:45Z</time>
      </trkpt>
      <trkpt lat="48.57871" lon="-3.82872">
        <ele>9.3</ele>
        <time>2020-06-10T12:11:46Z</time>
      </trkpt>
      <trkpt lat="48.5787" lon="-3.82872">
        <ele>9.1</ele>
        <time>2020-06-10T12:11:47Z</time>
      </trkpt>
      <trkpt lat="48.57869" lon="-3.82873">
        <ele>9.1</ele>
        <time>2020-06-10T12:11:48Z</time>
      </trkpt>
      <trkpt lat="48.57868" lon="-3.82873">
        <ele>8.8</ele>
        <time>2020-06-10T12:11:49Z</time>
      </trkpt>
      <trkpt lat="48.57867" lon="-3.82873">
        <ele>8.8</ele>
        <time>2020-06-10T12:11:50Z</time>
      </trkpt>
      <trkpt lat="48.57867" lon="-3.82872">
        <ele>8.8</ele>
        <time>2020-06-10T12:11:51Z</time>
      </trkpt>
      <trkpt lat="48.57866" lon="-3.82872">
        <ele>8.8</ele>
        <time>2020-06-10T12:11:52Z</time>
      </trkpt>
      <trkpt lat="48.57866" lon="-3.82871">
        <ele>8.8</ele>
        <time>2020-06-10T12:11:53Z</time>
      </trkpt>
      <trkpt lat="48.57865" lon="-3.82871">
        <ele>8.5</ele>
        <time>2020-06-10T12:11:54Z</time>
      </trkpt>
      <trkpt lat="48.57864" lon="-3.8287">
        <ele>8.5</ele>
        <time>2020-06-10T12:11:55Z</time>
      </trkpt>
      <trkpt lat="48.57862" lon="-3.82869">
        <ele>8.7</ele>
        <time>2020-06-10T12:11:56Z</time>
      </trkpt>
      <trkpt lat="48.57861" lon="-3.82868">
        <ele>8.7</ele>
        <time>2020-06-10T12:11:57Z</time>
      </trkpt>
      <trkpt lat="48.57859" lon="-3.82867">
        <ele>8.5</ele>
        <time>2020-06-10T12:11:58Z</time>
      </trkpt>
      <trkpt lat="48.57858" lon="-3.82866">
        <ele>8.5</ele>
        <time>2020-06-10T12:11:59Z</time>
      </trkpt>
      <trkpt lat="48.57858" lon="-3.82865">
        <ele>8.9</ele>
        <time>2020-06-10T12:12:00Z</time>
      </trkpt>
      <trkpt lat="48.57857" lon="-3.82864">
        <ele>8.9</ele>
        <time>2020-06-10T12:12:01Z</time>
      </trkpt>
      <trkpt lat="48.57857" lon="-3.82863">
        <ele>8.6</ele>
        <time>2020-06-10T12:12:02Z</time>
      </trkpt>
      <trkpt lat="48.57856" lon="-3.82862">
        <ele>8.6</ele>
        <time>2020-06-10T12:12:03Z</time>
      </trkpt>
      <trkpt lat="48.57855" lon="-3.8286">
        <ele>9.1</ele>
        <time>2020-06-10T12:12:04Z</time>
      </trkpt>
      <trkpt lat="48.57855" lon="-3.8286">
        <ele>9.1</ele>
        <time>2020-06-10T12:12:05Z</time>
      </trkpt>
      <trkpt lat="48.57854" lon="-3.82858">
        <ele>8.7</ele>
        <time>2020-06-10T12:12:06Z</time>
      </trkpt>
      <trkpt lat="48.57853" lon="-3.82857">
        <ele>8.7</ele>
        <time>2020-06-10T12:12:07Z</time>
      </trkpt>
      <trkpt lat="48.57853" lon="-3.82856">
        <ele>9.2</ele>
        <time>2020-06-10T12:12:08Z</time>
      </trkpt>
      <trkpt lat="48.57853" lon="-3.82856">
        <ele>9.2</ele>
        <time>2020-06-10T12:12:09Z</time>
      </trkpt>
      <trkpt lat="48.57852" lon="-3.82855">
        <ele>9.2</ele>
        <time>2020-06-10T12:12:10Z</time>
      </trkpt>
      <trkpt lat="48.57852" lon="-3.82854">
        <ele>9.2</ele>
        <time>2020-06-10T12:12:11Z</time>
      </trkpt>
      <trkpt lat="48.57852" lon="-3.82854">
        <ele>9.2</ele>
        <time>2020-06-10T12:12:12Z</time>
      </trkpt>
      <trkpt lat="48.57852" lon="-3.82853">
        <ele>9.2</ele>
        <time>2020-06-10T12:12:13Z</time>
      </trkpt>
      <trkpt lat="48.57852" lon="-3.82853">
        <ele>9.2</ele>
        <time>2020-06-10T12:12:14Z</time>
      </trkpt>
      <trkpt lat="48.57852" lon="-3.82854">
        <ele>9.2</ele>
        <time>2020-06-10T12:12:15Z</time>
      </trkpt>
      <trkpt lat="48.57852" lon="-3.82854">
        <ele>9.2</ele>
        <time>2020-06-10T12:12:16Z</time>
      </trkpt>
      <trkpt lat="48.57852" lon="-3.82855">
        <ele>9.2</ele>
        <time>2020-06-10T12:12:17Z</time>
      </trkpt>
      <trkpt lat="48.57851" lon="-3.82856">
        <ele>9.2</ele>
        <time>2020-06-10T12:12:18Z</time>
      </trkpt>
      <trkpt lat="48.57851" lon="-3.82857">
        <ele>8.7</ele>
        <time>2020-06-10T12:12:19Z</time>
      </trkpt>
      <trkpt lat="48.57852" lon="-3.82858">
        <ele>8.7</ele>
        <time>2020-06-10T12:12:20Z</time>
      </trkpt>
      <trkpt lat="48.57853" lon="-3.82858">
        <ele>8.7</ele>
        <time>2020-06-10T12:12:21Z</time>
      </trkpt>
      <trkpt lat="48.57853" lon="-3.82859">
        <ele>8.7</ele>
        <time>2020-06-10T12:12:22Z</time>
      </trkpt>
      <trkpt lat="48.57854" lon="-3.8286">
        <ele>8.7</ele>
        <time>2020-06-10T12:12:23Z</time>
      </trkpt>
      <trkpt lat="48.57854" lon="-3.8286">
        <ele>9.1</ele>
        <time>2020-06-10T12:12:24Z</time>
      </trkpt>
      <trkpt lat="48.57855" lon="-3.82861">
        <ele>8.6</ele>
        <time>2020-06-10T12:12:25Z</time>
      </trkpt>
      <trkpt lat="48.57855" lon="-3.82861">
        <ele>8.6</ele>
        <time>2020-06-10T12:12:26Z</time>
      </trkpt>
      <trkpt lat="48.57856" lon="-3.82861">
        <ele>8.6</ele>
        <time>2020-06-10T12:12:27Z</time>
      </trkpt>
      <trkpt lat="48.57856" lon="-3.82861">
        <ele>8.6</ele>
        <time>2020-06-10T12:12:28Z</time>
      </trkpt>
      <trkpt lat="48.57857" lon="-3.82861">
        <ele>8.6</ele>
        <time>2020-06-10T12:12:29Z</time>
      </trkpt>
      <trkpt lat="48.57857" lon="-3.82861">
        <ele>8.9</ele>
        <time>2020-06-10T12:12:30Z</time>
      </trkpt>
      <trkpt lat="48.57857" lon="-3.82861">
        <ele>8.9</ele>
        <time>2020-06-10T12:12:31Z</time>
      </trkpt>
      <trkpt lat="48.57857" lon="-3.82861">
        <ele>8.9</ele>
        <time>2020-06-10T12:12:32Z</time>
      </trkpt>
      <trkpt lat="48.57857" lon="-3.82861">
        <ele>8.9</ele>
        <time>2020-06-10T12:12:33Z</time>
      </trkpt>
      <trkpt lat="48.57857" lon="-3.82861">
        <ele>8.9</ele>
        <time>2020-06-10T12:12:34Z</time>
      </trkpt>
      <trkpt lat="48.57857" lon="-3.82862">
        <ele>8.9</ele>
        <time>2020-06-10T12:12:35Z</time>
      </trkpt>
      <trkpt lat="48.57858" lon="-3.82863">
        <ele>8.9</ele>
        <time>2020-06-10T12:12:36Z</time>
      </trkpt>
      <trkpt lat="48.57857" lon="-3.82864">
        <ele>8.9</ele>
        <time>2020-06-10T12:12:37Z</time>
      </trkpt>
      <trkpt lat="48.57856" lon="-3.82865">
        <ele>8.6</ele>
        <time>2020-06-10T12:12:38Z</time>
      </trkpt>
      <trkpt lat="48.57855" lon="-3.82865">
        <ele>8.2</ele>
        <time>2020-06-10T12:12:39Z</time>
      </trkpt>
      <trkpt lat="48.57856" lon="-3.82867">
        <ele>8.2</ele>
        <time>2020-06-10T12:12:40Z</time>
      </trkpt>
      <trkpt lat="48.57856" lon="-3.82868">
        <ele>8.2</ele>
        <time>2020-06-10T12:12:41Z</time>
      </trkpt>
      <trkpt lat="48.57857" lon="-3.82869">
        <ele>8.5</ele>
        <time>2020-06-10T12:12:42Z</time>
      </trkpt>
      <trkpt lat="48.57857" lon="-3.82869">
        <ele>8.2</ele>
        <time>2020-06-10T12:12:43Z</time>
      </trkpt>
      <trkpt lat="48.57857" lon="-3.82868">
        <ele>8.2</ele>
        <time>2020-06-10T12:12:44Z</time>
      </trkpt>
      <trkpt lat="48.57856" lon="-3.82868">
        <ele>8.2</ele>
        <time>2020-06-10T12:12:45Z</time>
      </trkpt>
      <trkpt lat="48.57856" lon="-3.82867">
        <ele>8.2</ele>
        <time>2020-06-10T12:12:46Z</time>
      </trkpt>
      <trkpt lat="48.57856" lon="-3.82867">
        <ele>8.2</ele>
        <time>2020-06-10T12:12:47Z</time>
      </trkpt>
      <trkpt lat="48.57856" lon="-3.82866">
        <ele>8.2</ele>
        <time>2020-06-10T12:12:48Z</time>
      </trkpt>
      <trkpt lat="48.57856" lon="-3.82866">
        <ele>8.2</ele>
        <time>2020-06-10T12:12:49Z</time>
      </trkpt>
      <trkpt lat="48.57856" lon="-3.82865">
        <ele>8.2</ele>
        <time>2020-06-10T12:12:50Z</time>
      </trkpt>
      <trkpt lat="48.57856" lon="-3.82865">
        <ele>8.6</ele>
        <time>2020-06-10T12:12:51Z</time>
      </trkpt>
      <trkpt lat="48.57856" lon="-3.82864">
        <ele>8.6</ele>
        <time>2020-06-10T12:12:52Z</time>
      </trkpt>
      <trkpt lat="48.57856" lon="-3.82864">
        <ele>8.6</ele>
        <time>2020-06-10T12:12:53Z</time>
      </trkpt>
      <trkpt lat="48.57856" lon="-3.82863">
        <ele>8.6</ele>
        <time>2020-06-10T12:12:54Z</time>
      </trkpt>
      <trkpt lat="48.57856" lon="-3.82862">
        <ele>8.6</ele>
        <time>2020-06-10T12:12:55Z</time>
      </trkpt>
      <trkpt lat="48.57856" lon="-3.8286">
        <ele>9.1</ele>
        <time>2020-06-10T12:12:56Z</time>
      </trkpt>
      <trkpt lat="48.57856" lon="-3.82859">
        <ele>9.1</ele>
        <time>2020-06-10T12:12:57Z</time>
      </trkpt>
      <trkpt lat="48.57856" lon="-3.82857">
        <ele>9.1</ele>
        <time>2020-06-10T12:12:58Z</time>
      </trkpt>
      <trkpt lat="48.57856" lon="-3.82856">
        <ele>9.6</ele>
        <time>2020-06-10T12:12:59Z</time>
      </trkpt>
      <trkpt lat="48.57856" lon="-3.82855">
        <ele>9.6</ele>
        <time>2020-06-10T12:13:00Z</time>
      </trkpt>
      <trkpt lat="48.57857" lon="-3.82854">
        <ele>9.9</ele>
        <time>2020-06-10T12:13:01Z</time>
      </trkpt>
      <trkpt lat="48.57857" lon="-3.82854">
        <ele>9.9</ele>
        <time>2020-06-10T12:13:02Z</time>
      </trkpt>
      <trkpt lat="48.57858" lon="-3.82853">
        <ele>9.9</ele>
        <time>2020-06-10T12:13:03Z</time>
      </trkpt>
      <trkpt lat="48.57858" lon="-3.82853">
        <ele>9.9</ele>
        <time>2020-06-10T12:13:04Z</time>
      </trkpt>
      <trkpt lat="48.57858" lon="-3.82853">
        <ele>9.9</ele>
        <time>2020-06-10T12:13:05Z</time>
      </trkpt>
      <trkpt lat="48.57859" lon="-3.82852">
        <ele>9.9</ele>
        <time>2020-06-10T12:13:06Z</time>
      </trkpt>
      <trkpt lat="48.57859" lon="-3.82852">
        <ele>9.9</ele>
        <time>2020-06-10T12:13:07Z</time>
      </trkpt>
      <trkpt lat="48.57858" lon="-3.82854">
        <ele>9.9</ele>
        <time>2020-06-10T12:13:08Z</time>
      </trkpt>
      <trkpt lat="48.57857" lon="-3.82854">
        <ele>9.9</ele>
        <time>2020-06-10T12:13:09Z</time>
      </trkpt>
      <trkpt lat="48.57857" lon="-3.82855">
        <ele>9.9</ele>
        <time>2020-06-10T12:13:10Z</time>
      </trkpt>
      <trkpt lat="48.57857" lon="-3.82855">
        <ele>9.9</ele>
        <time>2020-06-10T12:13:11Z</time>
      </trkpt>
      <trkpt lat="48.57857" lon="-3.82856">
        <ele>9.9</ele>
        <time>2020-06-10T12:13:12Z</time>
      </trkpt>
      <trkpt lat="48.57858" lon="-3.82856">
        <ele>9.9</ele>
        <time>2020-06-10T12:13:13Z</time>
      </trkpt>
      <trkpt lat="48.57859" lon="-3.82855">
        <ele>9.9</ele>
        <time>2020-06-10T12:13:33Z</time>
      </trkpt>
      <trkpt lat="48.5786" lon="-3.82855">
        <ele>10.2</ele>
        <time>2020-06-10T12:13:34Z</time>
      </trkpt>
      <trkpt lat="48.5786" lon="-3.82854">
        <ele>10.2</ele>
        <time>2020-06-10T12:13:35Z</time>
      </trkpt>
      <trkpt lat="48.57861" lon="-3.82854">
        <ele>10.2</ele>
        <time>2020-06-10T12:13:36Z</time>
      </trkpt>
      <trkpt lat="48.57862" lon="-3.82853">
        <ele>10.2</ele>
        <time>2020-06-10T12:13:37Z</time>
      </trkpt>
      <trkpt lat="48.57863" lon="-3.82853">
        <ele>10.5</ele>
        <time>2020-06-10T12:13:38Z</time>
      </trkpt>
      <trkpt lat="48.57863" lon="-3.82853">
        <ele>10.5</ele>
        <time>2020-06-10T12:13:39Z</time>
      </trkpt>
      <trkpt lat="48.57863" lon="-3.82853">
        <ele>10.6</ele>
        <time>2020-06-10T12:13:40Z</time>
      </trkpt>
      <trkpt lat="48.57863" lon="-3.82852">
        <ele>10.6</ele>
        <time>2020-06-10T12:13:41Z</time>
      </trkpt>
      <trkpt lat="48.57864" lon="-3.82852">
        <ele>11.1</ele>
        <time>2020-06-10T12:13:42Z</time>
      </trkpt>
      <trkpt lat="48.57864" lon="-3.82852">
        <ele>11.1</ele>
        <time>2020-06-10T12:13:43Z</time>
      </trkpt>
      <trkpt lat="48.57864" lon="-3.82852">
        <ele>11.1</ele>
        <time>2020-06-10T12:13:44Z</time>
      </trkpt>
      <trkpt lat="48.57863" lon="-3.82853">
        <ele>10.8</ele>
        <time>2020-06-10T12:13:45Z</time>
      </trkpt>
      <trkpt lat="48.57863" lon="-3.82853">
        <ele>10.8</ele>
        <time>2020-06-10T12:13:46Z</time>
      </trkpt>
      <trkpt lat="48.57863" lon="-3.82853">
        <ele>10.9</ele>
        <time>2020-06-10T12:13:47Z</time>
      </trkpt>
      <trkpt lat="48.57863" lon="-3.82853">
        <ele>10.9</ele>
        <time>2020-06-10T12:13:48Z</time>
      </trkpt>
      <trkpt lat="48.57863" lon="-3.82853">
        <ele>10.9</ele>
        <time>2020-06-10T12:13:49Z</time>
      </trkpt>
      <trkpt lat="48.57862" lon="-3.82853">
        <ele>10.7</ele>
        <time>2020-06-10T12:13:50Z</time>
      </trkpt>
      <trkpt lat="48.57862" lon="-3.82853">
        <ele>10.7</ele>
        <time>2020-06-10T12:13:51Z</time>
      </trkpt>
      <trkpt lat="48.57862" lon="-3.82854">
        <ele>10.7</ele>
        <time>2020-06-10T12:13:52Z</time>
      </trkpt>
      <trkpt lat="48.57862" lon="-3.82854">
        <ele>10.8</ele>
        <time>2020-06-10T12:13:53Z</time>
      </trkpt>
      <trkpt lat="48.57862" lon="-3.82853">
        <ele>10.8</ele>
        <time>2020-06-10T12:13:54Z</time>
      </trkpt>
      <trkpt lat="48.57861" lon="-3.82852">
        <ele>11.3</ele>
        <time>2020-06-10T12:13:55Z</time>
      </trkpt>
      <trkpt lat="48.57861" lon="-3.82851">
        <ele>11.3</ele>
        <time>2020-06-10T12:13:56Z</time>
      </trkpt>
      <trkpt lat="48.5786" lon="-3.82849">
        <ele>11.3</ele>
        <time>2020-06-10T12:13:57Z</time>
      </trkpt>
      <trkpt lat="48.5786" lon="-3.8285">
        <ele>11.4</ele>
        <time>2020-06-10T12:13:58Z</time>
      </trkpt>
      <trkpt lat="48.57859" lon="-3.82849">
        <ele>11.1</ele>
        <time>2020-06-10T12:13:59Z</time>
      </trkpt>
      <trkpt lat="48.57859" lon="-3.82848">
        <ele>11.2</ele>
        <time>2020-06-10T12:14:00Z</time>
      </trkpt>
      <trkpt lat="48.57859" lon="-3.82847">
        <ele>11.5</ele>
        <time>2020-06-10T12:14:01Z</time>
      </trkpt>
      <trkpt lat="48.57858" lon="-3.82847">
        <ele>11.5</ele>
        <time>2020-06-10T12:14:02Z</time>
      </trkpt>
      <trkpt lat="48.57857" lon="-3.82847">
        <ele>11.6</ele>
        <time>2020-06-10T12:14:03Z</time>
      </trkpt>
      <trkpt lat="48.57856" lon="-3.82846">
        <ele>11.3</ele>
        <time>2020-06-10T12:14:04Z</time>
      </trkpt>
      <trkpt lat="48.57855" lon="-3.82845">
        <ele>11.4</ele>
        <time>2020-06-10T12:14:05Z</time>
      </trkpt>
      <trkpt lat="48.57855" lon="-3.82846">
        <ele>11.4</ele>
        <time>2020-06-10T12:14:06Z</time>
      </trkpt>
      <trkpt lat="48.57855" lon="-3.82845">
        <ele>11.4</ele>
        <time>2020-06-10T12:14:07Z</time>
      </trkpt>
      <trkpt lat="48.57855" lon="-3.82846">
        <ele>11.5</ele>
        <time>2020-06-10T12:14:08Z</time>
      </trkpt>
      <trkpt lat="48.57855" lon="-3.82846">
        <ele>11.5</ele>
        <time>2020-06-10T12:14:09Z</time>
      </trkpt>
      <trkpt lat="48.57854" lon="-3.82846">
        <ele>11.5</ele>
        <time>2020-06-10T12:14:10Z</time>
      </trkpt>
      <trkpt lat="48.57854" lon="-3.82847">
        <ele>11.6</ele>
        <time>2020-06-10T12:14:11Z</time>
      </trkpt>
      <trkpt lat="48.57854" lon="-3.82847">
        <ele>11.6</ele>
        <time>2020-06-10T12:14:12Z</time>
      </trkpt>
      <trkpt lat="48.57854" lon="-3.82847">
        <ele>11.7</ele>
        <time>2020-06-10T12:14:13Z</time>
      </trkpt>
      <trkpt lat="48.57853" lon="-3.82847">
        <ele>11.3</ele>
        <time>2020-06-10T12:14:14Z</time>
      </trkpt>
      <trkpt lat="48.57853" lon="-3.82848">
        <ele>11.3</ele>
        <time>2020-06-10T12:14:15Z</time>
      </trkpt>
      <trkpt lat="48.57853" lon="-3.82847">
        <ele>11.4</ele>
        <time>2020-06-10T12:14:16Z</time>
      </trkpt>
      <trkpt lat="48.57853" lon="-3.82846">
        <ele>11.4</ele>
        <time>2020-06-10T12:14:17Z</time>
      </trkpt>
      <trkpt lat="48.57852" lon="-3.82846">
        <ele>11.5</ele>
        <time>2020-06-10T12:14:18Z</time>
      </trkpt>
      <trkpt lat="48.57851" lon="-3.82845">
        <ele>11.5</ele>
        <time>2020-06-10T12:14:19Z</time>
      </trkpt>
      <trkpt lat="48.57851" lon="-3.82846">
        <ele>11.1</ele>
        <time>2020-06-10T12:14:20Z</time>
      </trkpt>
      <trkpt lat="48.5785" lon="-3.82847">
        <ele>11.1</ele>
        <time>2020-06-10T12:14:21Z</time>
      </trkpt>
      <trkpt lat="48.5785" lon="-3.82848">
        <ele>10.9</ele>
        <time>2020-06-10T12:14:22Z</time>
      </trkpt>
      <trkpt lat="48.5785" lon="-3.8285">
        <ele>11</ele>
        <time>2020-06-10T12:14:23Z</time>
      </trkpt>
      <trkpt lat="48.57851" lon="-3.8285">
        <ele>11</ele>
        <time>2020-06-10T12:14:24Z</time>
      </trkpt>
      <trkpt lat="48.57849" lon="-3.82848">
        <ele>11</ele>
        <time>2020-06-10T12:14:25Z</time>
      </trkpt>
      <trkpt lat="48.57851" lon="-3.82849">
        <ele>11.1</ele>
        <time>2020-06-10T12:14:26Z</time>
      </trkpt>
      <trkpt lat="48.5785" lon="-3.82848">
        <ele>11.1</ele>
        <time>2020-06-10T12:14:27Z</time>
      </trkpt>
      <trkpt lat="48.5785" lon="-3.82847">
        <ele>11.4</ele>
        <time>2020-06-10T12:14:28Z</time>
      </trkpt>
      <trkpt lat="48.5785" lon="-3.82847">
        <ele>11.4</ele>
        <time>2020-06-10T12:14:29Z</time>
      </trkpt>
      <trkpt lat="48.5785" lon="-3.82846">
        <ele>11.5</ele>
        <time>2020-06-10T12:14:30Z</time>
      </trkpt>
      <trkpt lat="48.5785" lon="-3.82846">
        <ele>11.5</ele>
        <time>2020-06-10T12:14:31Z</time>
      </trkpt>
      <trkpt lat="48.5785" lon="-3.82845">
        <ele>11.6</ele>
        <time>2020-06-10T12:14:32Z</time>
      </trkpt>
      <trkpt lat="48.5785" lon="-3.82844">
        <ele>11.6</ele>
        <time>2020-06-10T12:14:33Z</time>
      </trkpt>
      <trkpt lat="48.5785" lon="-3.82843">
        <ele>11.8</ele>
        <time>2020-06-10T12:14:34Z</time>
      </trkpt>
      <trkpt lat="48.5785" lon="-3.82843">
        <ele>11.8</ele>
        <time>2020-06-10T12:14:35Z</time>
      </trkpt>
      <trkpt lat="48.5785" lon="-3.82843">
        <ele>11.9</ele>
        <time>2020-06-10T12:14:36Z</time>
      </trkpt>
      <trkpt lat="48.57851" lon="-3.82843">
        <ele>11.9</ele>
        <time>2020-06-10T12:14:37Z</time>
      </trkpt>
      <trkpt lat="48.57851" lon="-3.82843">
        <ele>11.9</ele>
        <time>2020-06-10T12:14:38Z</time>
      </trkpt>
      <trkpt lat="48.5785" lon="-3.82842">
        <ele>12</ele>
        <time>2020-06-10T12:14:39Z</time>
      </trkpt>
      <trkpt lat="48.5785" lon="-3.82841">
        <ele>12</ele>
        <time>2020-06-10T12:14:40Z</time>
      </trkpt>
      <trkpt lat="48.57851" lon="-3.82841">
        <ele>12.1</ele>
        <time>2020-06-10T12:14:41Z</time>
      </trkpt>
      <trkpt lat="48.57851" lon="-3.82841">
        <ele>12.1</ele>
        <time>2020-06-10T12:14:42Z</time>
      </trkpt>
      <trkpt lat="48.57851" lon="-3.82841">
        <ele>12.6</ele>
        <time>2020-06-10T12:14:43Z</time>
      </trkpt>
      <trkpt lat="48.57851" lon="-3.82841">
        <ele>12.6</ele>
        <time>2020-06-10T12:14:44Z</time>
      </trkpt>
      <trkpt lat="48.57851" lon="-3.82842">
        <ele>12.6</ele>
        <time>2020-06-10T12:14:45Z</time>
      </trkpt>
      <trkpt lat="48.57851" lon="-3.82842">
        <ele>12.7</ele>
        <time>2020-06-10T12:14:46Z</time>
      </trkpt>
      <trkpt lat="48.57851" lon="-3.82842">
        <ele>12.7</ele>
        <time>2020-06-10T12:14:47Z</time>
      </trkpt>
      <trkpt lat="48.57851" lon="-3.82843">
        <ele>12.8</ele>
        <time>2020-06-10T12:14:48Z</time>
      </trkpt>
      <trkpt lat="48.57851" lon="-3.82843">
        <ele>12.8</ele>
        <time>2020-06-10T12:14:49Z</time>
      </trkpt>
      <trkpt lat="48.57851" lon="-3.82843">
        <ele>12.4</ele>
        <time>2020-06-10T12:14:50Z</time>
      </trkpt>
      <trkpt lat="48.57856" lon="-3.82853">
        <ele>12.4</ele>
        <time>2020-06-10T12:16:20Z</time>
      </trkpt>
      <trkpt lat="48.57855" lon="-3.82854">
        <ele>12.4</ele>
        <time>2020-06-10T12:16:21Z</time>
      </trkpt>
      <trkpt lat="48.57855" lon="-3.82854">
        <ele>12.5</ele>
        <time>2020-06-10T12:16:22Z</time>
      </trkpt>
      <trkpt lat="48.57855" lon="-3.82854">
        <ele>12.5</ele>
        <time>2020-06-10T12:16:23Z</time>
      </trkpt>
      <trkpt lat="48.57855" lon="-3.82855">
        <ele>12.5</ele>
        <time>2020-06-10T12:16:24Z</time>
      </trkpt>
      <trkpt lat="48.57855" lon="-3.82855">
        <ele>12.6</ele>
        <time>2020-06-10T12:16:25Z</time>
      </trkpt>
      <trkpt lat="48.57856" lon="-3.82855">
        <ele>12.6</ele>
        <time>2020-06-10T12:16:26Z</time>
      </trkpt>
      <trkpt lat="48.57856" lon="-3.82855">
        <ele>12.6</ele>
        <time>2020-06-10T12:16:27Z</time>
      </trkpt>
      <trkpt lat="48.57856" lon="-3.82854">
        <ele>12.7</ele>
        <time>2020-06-10T12:16:28Z</time>
      </trkpt>
      <trkpt lat="48.57856" lon="-3.82853">
        <ele>12.7</ele>
        <time>2020-06-10T12:16:29Z</time>
      </trkpt>
      <trkpt lat="48.57856" lon="-3.82854">
        <ele>12.8</ele>
        <time>2020-06-10T12:16:30Z</time>
      </trkpt>
      <trkpt lat="48.57858" lon="-3.82854">
        <ele>13.2</ele>
        <time>2020-06-10T12:16:31Z</time>
      </trkpt>
      <trkpt lat="48.57858" lon="-3.82853">
        <ele>13.2</ele>
        <time>2020-06-10T12:16:32Z</time>
      </trkpt>
      <trkpt lat="48.57858" lon="-3.82852">
        <ele>13.7</ele>
        <time>2020-06-10T12:16:33Z</time>
      </trkpt>
      <trkpt lat="48.57858" lon="-3.82852">
        <ele>13.7</ele>
        <time>2020-06-10T12:16:34Z</time>
      </trkpt>
      <trkpt lat="48.57858" lon="-3.82851">
        <ele>13.7</ele>
        <time>2020-06-10T12:16:35Z</time>
      </trkpt>
      <trkpt lat="48.57858" lon="-3.82851">
        <ele>13.8</ele>
        <time>2020-06-10T12:16:36Z</time>
      </trkpt>
      <trkpt lat="48.57858" lon="-3.8285">
        <ele>13.8</ele>
        <time>2020-06-10T12:16:37Z</time>
      </trkpt>
      <trkpt lat="48.57858" lon="-3.8285">
        <ele>13.8</ele>
        <time>2020-06-10T12:16:38Z</time>
      </trkpt>
      <trkpt lat="48.57859" lon="-3.8285">
        <ele>13.9</ele>
        <time>2020-06-10T12:16:39Z</time>
      </trkpt>
      <trkpt lat="48.57859" lon="-3.82847">
        <ele>14.2</ele>
        <time>2020-06-10T12:16:40Z</time>
      </trkpt>
      <trkpt lat="48.57859" lon="-3.82846">
        <ele>14.3</ele>
        <time>2020-06-10T12:16:41Z</time>
      </trkpt>
      <trkpt lat="48.57859" lon="-3.82845">
        <ele>14.3</ele>
        <time>2020-06-10T12:16:42Z</time>
      </trkpt>
      <trkpt lat="48.57859" lon="-3.82844">
        <ele>14.3</ele>
        <time>2020-06-10T12:16:43Z</time>
      </trkpt>
      <trkpt lat="48.57859" lon="-3.82841">
        <ele>14.6</ele>
        <time>2020-06-10T12:16:44Z</time>
      </trkpt>
      <trkpt lat="48.57859" lon="-3.82839">
        <ele>14.6</ele>
        <time>2020-06-10T12:16:45Z</time>
      </trkpt>
      <trkpt lat="48.57859" lon="-3.82838">
        <ele>14.8</ele>
        <time>2020-06-10T12:16:46Z</time>
      </trkpt>
      <trkpt lat="48.57859" lon="-3.82837">
        <ele>14.8</ele>
        <time>2020-06-10T12:16:47Z</time>
      </trkpt>
      <trkpt lat="48.57859" lon="-3.82835">
        <ele>14.8</ele>
        <time>2020-06-10T12:16:48Z</time>
      </trkpt>
      <trkpt lat="48.57859" lon="-3.82834">
        <ele>14.7</ele>
        <time>2020-06-10T12:16:49Z</time>
      </trkpt>
      <trkpt lat="48.5786" lon="-3.82833">
        <ele>15</ele>
        <time>2020-06-10T12:16:50Z</time>
      </trkpt>
      <trkpt lat="48.5786" lon="-3.82833">
        <ele>15</ele>
        <time>2020-06-10T12:16:51Z</time>
      </trkpt>
      <trkpt lat="48.5786" lon="-3.82833">
        <ele>15</ele>
        <time>2020-06-10T12:16:52Z</time>
      </trkpt>
      <trkpt lat="48.57861" lon="-3.82833">
        <ele>15</ele>
        <time>2020-06-10T12:16:53Z</time>
      </trkpt>
      <trkpt lat="48.57861" lon="-3.82833">
        <ele>15</ele>
        <time>2020-06-10T12:16:54Z</time>
      </trkpt>
      <trkpt lat="48.57861" lon="-3.82832">
        <ele>15</ele>
        <time>2020-06-10T12:16:55Z</time>
      </trkpt>
      <trkpt lat="48.57862" lon="-3.82832">
        <ele>15</ele>
        <time>2020-06-10T12:16:56Z</time>
      </trkpt>
      <trkpt lat="48.57862" lon="-3.82832">
        <ele>15</ele>
        <time>2020-06-10T12:16:57Z</time>
      </trkpt>
      <trkpt lat="48.57862" lon="-3.8283">
        <ele>14.9</ele>
        <time>2020-06-10T12:16:58Z</time>
      </trkpt>
      <trkpt lat="48.57862" lon="-3.82829">
        <ele>15.2</ele>
        <time>2020-06-10T12:16:59Z</time>
      </trkpt>
      <trkpt lat="48.57863" lon="-3.82829">
        <ele>15.2</ele>
        <time>2020-06-10T12:17:00Z</time>
      </trkpt>
      <trkpt lat="48.57863" lon="-3.82828">
        <ele>15.2</ele>
        <time>2020-06-10T12:17:01Z</time>
      </trkpt>
      <trkpt lat="48.57863" lon="-3.82827">
        <ele>15.2</ele>
        <time>2020-06-10T12:17:02Z</time>
      </trkpt>
      <trkpt lat="48.57863" lon="-3.82828">
        <ele>15.2</ele>
        <time>2020-06-10T12:17:03Z</time>
      </trkpt>
      <trkpt lat="48.57862" lon="-3.82829">
        <ele>14.9</ele>
        <time>2020-06-10T12:17:04Z</time>
      </trkpt>
      <trkpt lat="48.57862" lon="-3.8283">
        <ele>14.9</ele>
        <time>2020-06-10T12:17:05Z</time>
      </trkpt>
      <trkpt lat="48.57861" lon="-3.8283">
        <ele>14.9</ele>
        <time>2020-06-10T12:17:06Z</time>
      </trkpt>
      <trkpt lat="48.57862" lon="-3.82829">
        <ele>14.9</ele>
        <time>2020-06-10T12:17:07Z</time>
      </trkpt>
      <trkpt lat="48.57863" lon="-3.8283">
        <ele>15.2</ele>
        <time>2020-06-10T12:17:08Z</time>
      </trkpt>
      <trkpt lat="48.57863" lon="-3.8283">
        <ele>15.2</ele>
        <time>2020-06-10T12:17:09Z</time>
      </trkpt>
      <trkpt lat="48.57863" lon="-3.8283">
        <ele>15.2</ele>
        <time>2020-06-10T12:17:10Z</time>
      </trkpt>
      <trkpt lat="48.57863" lon="-3.82829">
        <ele>15.2</ele>
        <time>2020-06-10T12:17:11Z</time>
      </trkpt>
      <trkpt lat="48.57863" lon="-3.8283">
        <ele>15.2</ele>
        <time>2020-06-10T12:17:12Z</time>
      </trkpt>
      <trkpt lat="48.57862" lon="-3.8283">
        <ele>15.2</ele>
        <time>2020-06-10T12:17:13Z</time>
      </trkpt>
      <trkpt lat="48.57862" lon="-3.82829">
        <ele>15.2</ele>
        <time>2020-06-10T12:17:14Z</time>
      </trkpt>
      <trkpt lat="48.57862" lon="-3.82827">
        <ele>14.9</ele>
        <time>2020-06-10T12:17:15Z</time>
      </trkpt>
      <trkpt lat="48.57862" lon="-3.82827">
        <ele>14.9</ele>
        <time>2020-06-10T12:17:16Z</time>
      </trkpt>
      <trkpt lat="48.57862" lon="-3.82826">
        <ele>14.8</ele>
        <time>2020-06-10T12:17:17Z</time>
      </trkpt>
      <trkpt lat="48.57862" lon="-3.82827">
        <ele>14.9</ele>
        <time>2020-06-10T12:17:18Z</time>
      </trkpt>
      <trkpt lat="48.57862" lon="-3.82827">
        <ele>15.2</ele>
        <time>2020-06-10T12:17:19Z</time>
      </trkpt>
      <trkpt lat="48.57863" lon="-3.82828">
        <ele>15.2</ele>
        <time>2020-06-10T12:17:20Z</time>
      </trkpt>
      <trkpt lat="48.57863" lon="-3.82827">
        <ele>15.2</ele>
        <time>2020-06-10T12:17:21Z</time>
      </trkpt>
      <trkpt lat="48.57862" lon="-3.82828">
        <ele>15.2</ele>
        <time>2020-06-10T12:17:22Z</time>
      </trkpt>
      <trkpt lat="48.57862" lon="-3.82828">
        <ele>14.9</ele>
        <time>2020-06-10T12:17:23Z</time>
      </trkpt>
      <trkpt lat="48.57862" lon="-3.82829">
        <ele>14.9</ele>
        <time>2020-06-10T12:17:24Z</time>
      </trkpt>
      <trkpt lat="48.57861" lon="-3.82829">
        <ele>14.9</ele>
        <time>2020-06-10T12:17:25Z</time>
      </trkpt>
      <trkpt lat="48.57861" lon="-3.8283">
        <ele>14.9</ele>
        <time>2020-06-10T12:17:26Z</time>
      </trkpt>
      <trkpt lat="48.5786" lon="-3.82831">
        <ele>15</ele>
        <time>2020-06-10T12:17:27Z</time>
      </trkpt>
      <trkpt lat="48.5786" lon="-3.82832">
        <ele>15</ele>
        <time>2020-06-10T12:17:28Z</time>
      </trkpt>
      <trkpt lat="48.5786" lon="-3.82831">
        <ele>15</ele>
        <time>2020-06-10T12:17:29Z</time>
      </trkpt>
      <trkpt lat="48.57862" lon="-3.8283">
        <ele>14.9</ele>
        <time>2020-06-10T12:17:30Z</time>
      </trkpt>
      <trkpt lat="48.57863" lon="-3.82831">
        <ele>15.3</ele>
        <time>2020-06-10T12:17:31Z</time>
      </trkpt>
      <trkpt lat="48.57864" lon="-3.82831">
        <ele>15.3</ele>
        <time>2020-06-10T12:17:32Z</time>
      </trkpt>
      <trkpt lat="48.57863" lon="-3.82831">
        <ele>15.3</ele>
        <time>2020-06-10T12:17:33Z</time>
      </trkpt>
      <trkpt lat="48.57863" lon="-3.82832">
        <ele>15.3</ele>
        <time>2020-06-10T12:17:34Z</time>
      </trkpt>
      <trkpt lat="48.57863" lon="-3.82832">
        <ele>15.3</ele>
        <time>2020-06-10T12:17:35Z</time>
      </trkpt>
      <trkpt lat="48.57862" lon="-3.82832">
        <ele>15</ele>
        <time>2020-06-10T12:17:36Z</time>
      </trkpt>
      <trkpt lat="48.57862" lon="-3.82832">
        <ele>15</ele>
        <time>2020-06-10T12:17:37Z</time>
      </trkpt>
      <trkpt lat="48.57862" lon="-3.82832">
        <ele>15</ele>
        <time>2020-06-10T12:17:38Z</time>
      </trkpt>
      <trkpt lat="48.57861" lon="-3.82832">
        <ele>15</ele>
        <time>2020-06-10T12:17:39Z</time>
      </trkpt>
      <trkpt lat="48.57861" lon="-3.82832">
        <ele>15</ele>
        <time>2020-06-10T12:17:40Z</time>
      </trkpt>
      <trkpt lat="48.57861" lon="-3.82832">
        <ele>15</ele>
        <time>2020-06-10T12:17:41Z</time>
      </trkpt>
      <trkpt lat="48.5786" lon="-3.82832">
        <ele>15</ele>
        <time>2020-06-10T12:17:42Z</time>
      </trkpt>
      <trkpt lat="48.5786" lon="-3.82832">
        <ele>15</ele>
        <time>2020-06-10T12:17:43Z</time>
      </trkpt>
      <trkpt lat="48.5786" lon="-3.82832">
        <ele>15</ele>
        <time>2020-06-10T12:17:44Z</time>
      </trkpt>
      <trkpt lat="48.57859" lon="-3.82832">
        <ele>14.7</ele>
        <time>2020-06-10T12:17:45Z</time>
      </trkpt>
      <trkpt lat="48.57859" lon="-3.82832">
        <ele>14.7</ele>
        <time>2020-06-10T12:17:46Z</time>
      </trkpt>
      <trkpt lat="48.57859" lon="-3.82832">
        <ele>14.7</ele>
        <time>2020-06-10T12:17:47Z</time>
      </trkpt>
      <trkpt lat="48.57858" lon="-3.82832">
        <ele>14.7</ele>
        <time>2020-06-10T12:17:48Z</time>
      </trkpt>
      <trkpt lat="48.57858" lon="-3.82832">
        <ele>14.7</ele>
        <time>2020-06-10T12:17:49Z</time>
      </trkpt>
      <trkpt lat="48.57858" lon="-3.82832">
        <ele>14.7</ele>
        <time>2020-06-10T12:18:28Z</time>
      </trkpt>
      <trkpt lat="48.57857" lon="-3.82832">
        <ele>14.7</ele>
        <time>2020-06-10T12:18:29Z</time>
      </trkpt>
      <trkpt lat="48.57857" lon="-3.82832">
        <ele>14.7</ele>
        <time>2020-06-10T12:18:30Z</time>
      </trkpt>
      <trkpt lat="48.57857" lon="-3.82832">
        <ele>14.7</ele>
        <time>2020-06-10T12:18:31Z</time>
      </trkpt>
      <trkpt lat="48.57857" lon="-3.82833">
        <ele>14.4</ele>
        <time>2020-06-10T12:18:32Z</time>
      </trkpt>
      <trkpt lat="48.57856" lon="-3.82833">
        <ele>14.4</ele>
        <time>2020-06-10T12:18:33Z</time>
      </trkpt>
      <trkpt lat="48.57856" lon="-3.82833">
        <ele>14.4</ele>
        <time>2020-06-10T12:18:34Z</time>
      </trkpt>
      <trkpt lat="48.57856" lon="-3.82833">
        <ele>14.4</ele>
        <time>2020-06-10T12:18:35Z</time>
      </trkpt>
      <trkpt lat="48.57855" lon="-3.82835">
        <ele>14.4</ele>
        <time>2020-06-10T12:18:36Z</time>
      </trkpt>
      <trkpt lat="48.57855" lon="-3.82837">
        <ele>14.4</ele>
        <time>2020-06-10T12:18:37Z</time>
      </trkpt>
      <trkpt lat="48.57855" lon="-3.82838">
        <ele>14.4</ele>
        <time>2020-06-10T12:18:38Z</time>
      </trkpt>
      <trkpt lat="48.57855" lon="-3.8284">
        <ele>14.3</ele>
        <time>2020-06-10T12:18:39Z</time>
      </trkpt>
      <trkpt lat="48.57855" lon="-3.8284">
        <ele>14.3</ele>
        <time>2020-06-10T12:18:40Z</time>
      </trkpt>
      <trkpt lat="48.57855" lon="-3.8284">
        <ele>14.3</ele>
        <time>2020-06-10T12:18:41Z</time>
      </trkpt>
      <trkpt lat="48.57855" lon="-3.82841">
        <ele>14.3</ele>
        <time>2020-06-10T12:18:42Z</time>
      </trkpt>
      <trkpt lat="48.57854" lon="-3.82841">
        <ele>14.3</ele>
        <time>2020-06-10T12:18:43Z</time>
      </trkpt>
      <trkpt lat="48.5785" lon="-3.82845">
        <ele>13.3</ele>
        <time>2020-06-10T12:19:57Z</time>
      </trkpt>
      <trkpt lat="48.5785" lon="-3.82844">
        <ele>13.3</ele>
        <time>2020-06-10T12:19:58Z</time>
      </trkpt>
      <trkpt lat="48.57849" lon="-3.82843">
        <ele>13.5</ele>
        <time>2020-06-10T12:19:59Z</time>
      </trkpt>
      <trkpt lat="48.57848" lon="-3.82842">
        <ele>13.5</ele>
        <time>2020-06-10T12:20:00Z</time>
      </trkpt>
      <trkpt lat="48.57849" lon="-3.82842">
        <ele>13.5</ele>
        <time>2020-06-10T12:20:01Z</time>
      </trkpt>
      <trkpt lat="48.57848" lon="-3.8284">
        <ele>13</ele>
        <time>2020-06-10T12:20:02Z</time>
      </trkpt>
      <trkpt lat="48.57847" lon="-3.82839">
        <ele>13</ele>
        <time>2020-06-10T12:20:03Z</time>
      </trkpt>
      <trkpt lat="48.57847" lon="-3.82839">
        <ele>13.1</ele>
        <time>2020-06-10T12:20:04Z</time>
      </trkpt>
      <trkpt lat="48.57846" lon="-3.82838">
        <ele>13.1</ele>
        <time>2020-06-10T12:20:05Z</time>
      </trkpt>
      <trkpt lat="48.57846" lon="-3.82837">
        <ele>13.1</ele>
        <time>2020-06-10T12:20:06Z</time>
      </trkpt>
      <trkpt lat="48.57846" lon="-3.82837">
        <ele>13.1</ele>
        <time>2020-06-10T12:20:07Z</time>
      </trkpt>
      <trkpt lat="48.57846" lon="-3.82836">
        <ele>13.1</ele>
        <time>2020-06-10T12:20:08Z</time>
      </trkpt>
      <trkpt lat="48.57846" lon="-3.82836">
        <ele>13.1</ele>
        <time>2020-06-10T12:20:09Z</time>
      </trkpt>
      <trkpt lat="48.57854" lon="-3.82841">
        <ele>14.3</ele>
        <time>2020-06-10T12:20:32Z</time>
      </trkpt>
      <trkpt lat="48.57854" lon="-3.82841">
        <ele>14.3</ele>
        <time>2020-06-10T12:20:33Z</time>
      </trkpt>
      <trkpt lat="48.57854" lon="-3.8284">
        <ele>13.9</ele>
        <time>2020-06-10T12:20:34Z</time>
      </trkpt>
      <trkpt lat="48.57853" lon="-3.82839">
        <ele>13.9</ele>
        <time>2020-06-10T12:20:35Z</time>
      </trkpt>
      <trkpt lat="48.57853" lon="-3.82838">
        <ele>14</ele>
        <time>2020-06-10T12:20:36Z</time>
      </trkpt>
      <trkpt lat="48.57852" lon="-3.82838">
        <ele>14</ele>
        <time>2020-06-10T12:20:37Z</time>
      </trkpt>
      <trkpt lat="48.57851" lon="-3.82837">
        <ele>14</ele>
        <time>2020-06-10T12:20:38Z</time>
      </trkpt>
      <trkpt lat="48.5785" lon="-3.82837">
        <ele>13.6</ele>
        <time>2020-06-10T12:20:39Z</time>
      </trkpt>
      <trkpt lat="48.5785" lon="-3.82836">
        <ele>13.6</ele>
        <time>2020-06-10T12:20:40Z</time>
      </trkpt>
      <trkpt lat="48.57849" lon="-3.82836">
        <ele>13.6</ele>
        <time>2020-06-10T12:20:41Z</time>
      </trkpt>
      <trkpt lat="48.57848" lon="-3.82836">
        <ele>13.1</ele>
        <time>2020-06-10T12:20:42Z</time>
      </trkpt>
      <trkpt lat="48.57847" lon="-3.82835">
        <ele>13.1</ele>
        <time>2020-06-10T12:20:43Z</time>
      </trkpt>
      <trkpt lat="48.57846" lon="-3.82835">
        <ele>13.1</ele>
        <time>2020-06-10T12:20:44Z</time>
      </trkpt>
      <trkpt lat="48.57846" lon="-3.82836">
        <ele>13.1</ele>
        <time>2020-06-10T12:20:45Z</time>
      </trkpt>
      <trkpt lat="48.57845" lon="-3.82835">
        <ele>13.1</ele>
        <time>2020-06-10T12:20:46Z</time>
      </trkpt>
      <trkpt lat="48.57845" lon="-3.82835">
        <ele>13.1</ele>
        <time>2020-06-10T12:20:47Z</time>
      </trkpt>
      <trkpt lat="48.57845" lon="-3.82835">
        <ele>13.1</ele>
        <time>2020-06-10T12:20:48Z</time>
      </trkpt>
      <trkpt lat="48.57845" lon="-3.82835">
        <ele>13.1</ele>
        <time>2020-06-10T12:20:49Z</time>
      </trkpt>
      <trkpt lat="48.57845" lon="-3.82835">
        <ele>13.1</ele>
        <time>2020-06-10T12:20:50Z</time>
      </trkpt>
      <trkpt lat="48.57845" lon="-3.82835">
        <ele>13.1</ele>
        <time>2020-06-10T12:20:51Z</time>
      </trkpt>
      <trkpt lat="48.57845" lon="-3.82835">
        <ele>13.1</ele>
        <time>2020-06-10T12:20:52Z</time>
      </trkpt>
      <trkpt lat="48.57845" lon="-3.82835">
        <ele>13.1</ele>
        <time>2020-06-10T12:20:53Z</time>
      </trkpt>
      <trkpt lat="48.57845" lon="-3.82835">
        <ele>13.1</ele>
        <time>2020-06-10T12:20:54Z</time>
      </trkpt>
      <trkpt lat="48.57846" lon="-3.82835">
        <ele>13.1</ele>
        <time>2020-06-10T12:20:55Z</time>
      </trkpt>
      <trkpt lat="48.57847" lon="-3.82836">
        <ele>13.1</ele>
        <time>2020-06-10T12:20:56Z</time>
      </trkpt>
      <trkpt lat="48.57847" lon="-3.82836">
        <ele>13.1</ele>
        <time>2020-06-10T12:20:57Z</time>
      </trkpt>
      <trkpt lat="48.57853" lon="-3.82837">
        <ele>14</ele>
        <time>2020-06-10T12:21:29Z</time>
      </trkpt>
      <trkpt lat="48.57853" lon="-3.82836">
        <ele>14</ele>
        <time>2020-06-10T12:21:30Z</time>
      </trkpt>
      <trkpt lat="48.57853" lon="-3.82836">
        <ele>14</ele>
        <time>2020-06-10T12:21:31Z</time>
      </trkpt>
      <trkpt lat="48.57852" lon="-3.82836">
        <ele>14</ele>
        <time>2020-06-10T12:21:32Z</time>
      </trkpt>
      <trkpt lat="48.57852" lon="-3.82836">
        <ele>14</ele>
        <time>2020-06-10T12:21:33Z</time>
      </trkpt>
      <trkpt lat="48.57852" lon="-3.82836">
        <ele>14</ele>
        <time>2020-06-10T12:21:34Z</time>
      </trkpt>
      <trkpt lat="48.57852" lon="-3.82835">
        <ele>14</ele>
        <time>2020-06-10T12:21:35Z</time>
      </trkpt>
      <trkpt lat="48.57853" lon="-3.82835">
        <ele>14</ele>
        <time>2020-06-10T12:21:36Z</time>
      </trkpt>
      <trkpt lat="48.57853" lon="-3.82834">
        <ele>14</ele>
        <time>2020-06-10T12:21:37Z</time>
      </trkpt>
      <trkpt lat="48.57853" lon="-3.82834">
        <ele>14</ele>
        <time>2020-06-10T12:21:38Z</time>
      </trkpt>
      <trkpt lat="48.57849" lon="-3.8284">
        <ele>13.5</ele>
        <time>2020-06-10T12:21:39Z</time>
      </trkpt>
      <trkpt lat="48.57845" lon="-3.82845">
        <ele>12.3</ele>
        <time>2020-06-10T12:21:56Z</time>
      </trkpt>
      <trkpt lat="48.5784" lon="-3.8285">
        <ele>11.5</ele>
        <time>2020-06-10T12:21:57Z</time>
      </trkpt>
      <trkpt lat="48.57836" lon="-3.82856">
        <ele>10.2</ele>
        <time>2020-06-10T12:21:58Z</time>
      </trkpt>
      <trkpt lat="48.57831" lon="-3.82861">
        <ele>9.5</ele>
        <time>2020-06-10T12:21:59Z</time>
      </trkpt>
      <trkpt lat="48.57827" lon="-3.82866">
        <ele>9.1</ele>
        <time>2020-06-10T12:22:00Z</time>
      </trkpt>
      <trkpt lat="48.57822" lon="-3.82872">
        <ele>9.4</ele>
        <time>2020-06-10T12:22:01Z</time>
      </trkpt>
      <trkpt lat="48.57818" lon="-3.82877">
        <ele>10</ele>
        <time>2020-06-10T12:22:11Z</time>
      </trkpt>
      <trkpt lat="48.57814" lon="-3.82882">
        <ele>11.6</ele>
        <time>2020-06-10T13:22:30Z</time>
      </trkpt>
      <trkpt lat="48.57809" lon="-3.82888">
        <ele>12.4</ele>
        <time>2020-06-10T13:22:31Z</time>
      </trkpt>
      <trkpt lat="48.57809" lon="-3.82886">
        <ele>11.8</ele>
        <time>2020-06-10T13:22:32Z</time>
      </trkpt>
      <trkpt lat="48.57811" lon="-3.82888">
        <ele>12.4</ele>
        <time>2020-06-10T13:22:33Z</time>
      </trkpt>
      <trkpt lat="48.57812" lon="-3.8289">
        <ele>12.3</ele>
        <time>2020-06-10T13:22:34Z</time>
      </trkpt>
      <trkpt lat="48.57814" lon="-3.82891">
        <ele>12.3</ele>
        <time>2020-06-10T13:22:35Z</time>
      </trkpt>
      <trkpt lat="48.57814" lon="-3.82892">
        <ele>13</ele>
        <time>2020-06-10T13:22:36Z</time>
      </trkpt>
      <trkpt lat="48.57815" lon="-3.82893">
        <ele>13</ele>
        <time>2020-06-10T13:22:37Z</time>
      </trkpt>
      <trkpt lat="48.57815" lon="-3.82893">
        <ele>13</ele>
        <time>2020-06-10T13:22:38Z</time>
      </trkpt>
      <trkpt lat="48.57815" lon="-3.82893">
        <ele>13</ele>
        <time>2020-06-10T13:22:39Z</time>
      </trkpt>
      <trkpt lat="48.57815" lon="-3.82892">
        <ele>13</ele>
        <time>2020-06-10T13:22:40Z</time>
      </trkpt>
      <trkpt lat="48.57815" lon="-3.82893">
        <ele>13</ele>
        <time>2020-06-10T13:22:41Z</time>
      </trkpt>
      <trkpt lat="48.57816" lon="-3.82894">
        <ele>13</ele>
        <time>2020-06-10T13:22:42Z</time>
      </trkpt>
      <trkpt lat="48.57816" lon="-3.82894">
        <ele>13</ele>
        <time>2020-06-10T13:22:43Z</time>
      </trkpt>
      <trkpt lat="48.57816" lon="-3.82894">
        <ele>13</ele>
        <time>2020-06-10T13:22:44Z</time>
      </trkpt>
      <trkpt lat="48.57816" lon="-3.82894">
        <ele>13</ele>
        <time>2020-06-10T13:22:45Z</time>
      </trkpt>
      <trkpt lat="48.57816" lon="-3.82894">
        <ele>13</ele>
        <time>2020-06-10T13:22:46Z</time>
      </trkpt>
      <trkpt lat="48.57817" lon="-3.82895">
        <ele>13</ele>
        <time>2020-06-10T13:22:47Z</time>
      </trkpt>
      <trkpt lat="48.57817" lon="-3.82895">
        <ele>13.7</ele>
        <time>2020-06-10T13:22:48Z</time>
      </trkpt>
      <trkpt lat="48.57816" lon="-3.82895">
        <ele>13.7</ele>
        <time>2020-06-10T13:22:49Z</time>
      </trkpt>
      <trkpt lat="48.57816" lon="-3.82895">
        <ele>13.7</ele>
        <time>2020-06-10T13:22:50Z</time>
      </trkpt>
      <trkpt lat="48.57816" lon="-3.82896">
        <ele>13.7</ele>
        <time>2020-06-10T13:22:51Z</time>
      </trkpt>
      <trkpt lat="48.57816" lon="-3.82896">
        <ele>13.7</ele>
        <time>2020-06-10T13:22:52Z</time>
      </trkpt>
      <trkpt lat="48.57816" lon="-3.82897">
        <ele>13.7</ele>
        <time>2020-06-10T13:22:53Z</time>
      </trkpt>
      <trkpt lat="48.57817" lon="-3.82897">
        <ele>13.7</ele>
        <time>2020-06-10T13:22:54Z</time>
      </trkpt>
      <trkpt lat="48.57817" lon="-3.82897">
        <ele>13.7</ele>
        <time>2020-06-10T13:22:55Z</time>
      </trkpt>
      <trkpt lat="48.57817" lon="-3.82897">
        <ele>13.7</ele>
        <time>2020-06-10T13:22:56Z</time>
      </trkpt>
      <trkpt lat="48.57817" lon="-3.82897">
        <ele>13.7</ele>
        <time>2020-06-10T13:22:57Z</time>
      </trkpt>
      <trkpt lat="48.57816" lon="-3.82896">
        <ele>13.7</ele>
        <time>2020-06-10T13:22:58Z</time>
      </trkpt>
      <trkpt lat="48.57816" lon="-3.82896">
        <ele>13.7</ele>
        <time>2020-06-10T13:22:59Z</time>
      </trkpt>
      <trkpt lat="48.57816" lon="-3.82895">
        <ele>13</ele>
        <time>2020-06-10T13:23:00Z</time>
      </trkpt>
      <trkpt lat="48.57816" lon="-3.82895">
        <ele>13</ele>
        <time>2020-06-10T13:23:01Z</time>
      </trkpt>
      <trkpt lat="48.57816" lon="-3.82894">
        <ele>13</ele>
        <time>2020-06-10T13:23:02Z</time>
      </trkpt>
      <trkpt lat="48.57816" lon="-3.82894">
        <ele>13</ele>
        <time>2020-06-10T13:23:03Z</time>
      </trkpt>
      <trkpt lat="48.57816" lon="-3.82893">
        <ele>13</ele>
        <time>2020-06-10T13:23:04Z</time>
      </trkpt>
      <trkpt lat="48.57816" lon="-3.82892">
        <ele>13</ele>
        <time>2020-06-10T13:23:05Z</time>
      </trkpt>
      <trkpt lat="48.57817" lon="-3.82892">
        <ele>13</ele>
        <time>2020-06-10T13:23:06Z</time>
      </trkpt>
      <trkpt lat="48.57816" lon="-3.82892">
        <ele>13</ele>
        <time>2020-06-10T13:23:07Z</time>
      </trkpt>
      <trkpt lat="48.57817" lon="-3.82892">
        <ele>13</ele>
        <time>2020-06-10T13:23:08Z</time>
      </trkpt>
      <trkpt lat="48.57817" lon="-3.82892">
        <ele>13</ele>
        <time>2020-06-10T13:23:09Z</time>
      </trkpt>
      <trkpt lat="48.57817" lon="-3.82894">
        <ele>13</ele>
        <time>2020-06-10T13:23:10Z</time>
      </trkpt>
      <trkpt lat="48.57817" lon="-3.82894">
        <ele>13</ele>
        <time>2020-06-10T13:23:11Z</time>
      </trkpt>
      <trkpt lat="48.57817" lon="-3.82895">
        <ele>13</ele>
        <time>2020-06-10T13:23:12Z</time>
      </trkpt>
      <trkpt lat="48.57817" lon="-3.82895">
        <ele>13</ele>
        <time>2020-06-10T13:23:13Z</time>
      </trkpt>
      <trkpt lat="48.57817" lon="-3.82895">
        <ele>13</ele>
        <time>2020-06-10T13:23:14Z</time>
      </trkpt>
      <trkpt lat="48.57817" lon="-3.82895">
        <ele>13</ele>
        <time>2020-06-10T13:23:15Z</time>
      </trkpt>
      <trkpt lat="48.57817" lon="-3.82895">
        <ele>13</ele>
        <time>2020-06-10T13:23:16Z</time>
      </trkpt>
      <trkpt lat="48.57818" lon="-3.82895">
        <ele>13</ele>
        <time>2020-06-10T13:23:17Z</time>
      </trkpt>
      <trkpt lat="48.57815" lon="-3.82889">
        <ele>12.3</ele>
        <time>2020-06-10T13:23:18Z</time>
      </trkpt>
      <trkpt lat="48.57825" lon="-3.82864">
        <ele>8.7</ele>
        <time>2020-06-10T13:27:39Z</time>
      </trkpt>
      <trkpt lat="48.57823" lon="-3.82863">
        <ele>8.7</ele>
        <time>2020-06-10T13:27:40Z</time>
      </trkpt>
      <trkpt lat="48.57821" lon="-3.8286">
        <ele>8.2</ele>
        <time>2020-06-10T13:27:41Z</time>
      </trkpt>
      <trkpt lat="48.5782" lon="-3.82859">
        <ele>8.1</ele>
        <time>2020-06-10T13:27:42Z</time>
      </trkpt>
      <trkpt lat="48.57817" lon="-3.82855">
        <ele>7.8</ele>
        <time>2020-06-10T13:27:43Z</time>
      </trkpt>
      <trkpt lat="48.57816" lon="-3.82854">
        <ele>7.7</ele>
        <time>2020-06-10T13:27:44Z</time>
      </trkpt>
      <trkpt lat="48.57815" lon="-3.82853">
        <ele>7.7</ele>
        <time>2020-06-10T13:27:45Z</time>
      </trkpt>
      <trkpt lat="48.57814" lon="-3.82852">
        <ele>7.3</ele>
        <time>2020-06-10T13:27:46Z</time>
      </trkpt>
      <trkpt lat="48.57814" lon="-3.82852">
        <ele>7.2</ele>
        <time>2020-06-10T13:27:47Z</time>
      </trkpt>
      <trkpt lat="48.57811" lon="-3.82851">
        <ele>7.2</ele>
        <time>2020-06-10T13:27:48Z</time>
      </trkpt>
      <trkpt lat="48.5781" lon="-3.82851">
        <ele>7.1</ele>
        <time>2020-06-10T13:27:49Z</time>
      </trkpt>
      <trkpt lat="48.5781" lon="-3.8285">
        <ele>7.1</ele>
        <time>2020-06-10T13:27:50Z</time>
      </trkpt>
      <trkpt lat="48.5781" lon="-3.82849">
        <ele>7.1</ele>
        <time>2020-06-10T13:27:51Z</time>
      </trkpt>
      <trkpt lat="48.57808" lon="-3.82846">
        <ele>6.6</ele>
        <time>2020-06-10T13:27:52Z</time>
      </trkpt>
      <trkpt lat="48.57805" lon="-3.82843">
        <ele>6.1</ele>
        <time>2020-06-10T13:27:53Z</time>
      </trkpt>
      <trkpt lat="48.57803" lon="-3.82841">
        <ele>6.1</ele>
        <time>2020-06-10T13:27:54Z</time>
      </trkpt>
      <trkpt lat="48.578" lon="-3.82837">
        <ele>5.6</ele>
        <time>2020-06-10T13:27:55Z</time>
      </trkpt>
      <trkpt lat="48.57799" lon="-3.82836">
        <ele>5.6</ele>
        <time>2020-06-10T13:27:56Z</time>
      </trkpt>
      <trkpt lat="48.57796" lon="-3.82833">
        <ele>5.2</ele>
        <time>2020-06-10T13:27:57Z</time>
      </trkpt>
      <trkpt lat="48.57795" lon="-3.82832">
        <ele>5.2</ele>
        <time>2020-06-10T13:27:58Z</time>
      </trkpt>
      <trkpt lat="48.57793" lon="-3.82833">
        <ele>5.2</ele>
        <time>2020-06-10T13:27:59Z</time>
      </trkpt>
      <trkpt lat="48.57792" lon="-3.82834">
        <ele>5.2</ele>
        <time>2020-06-10T13:28:00Z</time>
      </trkpt>
      <trkpt lat="48.57792" lon="-3.82836">
        <ele>5.6</ele>
        <time>2020-06-10T13:28:01Z</time>
      </trkpt>
      <trkpt lat="48.5779" lon="-3.82835">
        <ele>5.7</ele>
        <time>2020-06-10T13:28:02Z</time>
      </trkpt>
      <trkpt lat="48.57789" lon="-3.82834">
        <ele>5.2</ele>
        <time>2020-06-10T13:28:03Z</time>
      </trkpt>
      <trkpt lat="48.57788" lon="-3.82833">
        <ele>5.3</ele>
        <time>2020-06-10T13:28:04Z</time>
      </trkpt>
      <trkpt lat="48.57787" lon="-3.82831">
        <ele>4.9</ele>
        <time>2020-06-10T13:28:05Z</time>
      </trkpt>
      <trkpt lat="48.57787" lon="-3.82829">
        <ele>4.9</ele>
        <time>2020-06-10T13:28:06Z</time>
      </trkpt>
      <trkpt lat="48.57788" lon="-3.82826">
        <ele>4.6</ele>
        <time>2020-06-10T13:28:07Z</time>
      </trkpt>
      <trkpt lat="48.57788" lon="-3.82824">
        <ele>4.6</ele>
        <time>2020-06-10T13:28:08Z</time>
      </trkpt>
      <trkpt lat="48.57788" lon="-3.82821">
        <ele>4.4</ele>
        <time>2020-06-10T13:28:09Z</time>
      </trkpt>
      <trkpt lat="48.57788" lon="-3.8282">
        <ele>4.4</ele>
        <time>2020-06-10T13:28:10Z</time>
      </trkpt>
      <trkpt lat="48.57788" lon="-3.82818">
        <ele>4.4</ele>
        <time>2020-06-10T13:28:11Z</time>
      </trkpt>
      <trkpt lat="48.57788" lon="-3.82818">
        <ele>4.4</ele>
        <time>2020-06-10T13:28:12Z</time>
      </trkpt>
      <trkpt lat="48.57787" lon="-3.82818">
        <ele>4.4</ele>
        <time>2020-06-10T13:28:13Z</time>
      </trkpt>
      <trkpt lat="48.57787" lon="-3.82819">
        <ele>4.4</ele>
        <time>2020-06-10T13:28:14Z</time>
      </trkpt>
      <trkpt lat="48.57787" lon="-3.82821">
        <ele>4.4</ele>
        <time>2020-06-10T13:28:15Z</time>
      </trkpt>
      <trkpt lat="48.57785" lon="-3.82824">
        <ele>4.6</ele>
        <time>2020-06-10T13:28:16Z</time>
      </trkpt>
      <trkpt lat="48.57784" lon="-3.82829">
        <ele>4.9</ele>
        <time>2020-06-10T13:28:17Z</time>
      </trkpt>
      <trkpt lat="48.57784" lon="-3.82832">
        <ele>5.4</ele>
        <time>2020-06-10T13:28:18Z</time>
      </trkpt>
      <trkpt lat="48.57783" lon="-3.82836">
        <ele>6</ele>
        <time>2020-06-10T13:28:19Z</time>
      </trkpt>
      <trkpt lat="48.57781" lon="-3.8284">
        <ele>6.8</ele>
        <time>2020-06-10T13:28:20Z</time>
      </trkpt>
      <trkpt lat="48.5778" lon="-3.82841">
        <ele>6.8</ele>
        <time>2020-06-10T13:28:21Z</time>
      </trkpt>
      <trkpt lat="48.57778" lon="-3.82845">
        <ele>7.7</ele>
        <time>2020-06-10T13:28:22Z</time>
      </trkpt>
      <trkpt lat="48.57778" lon="-3.82846">
        <ele>7.7</ele>
        <time>2020-06-10T13:28:23Z</time>
      </trkpt>
      <trkpt lat="48.57775" lon="-3.82849">
        <ele>8.4</ele>
        <time>2020-06-10T13:28:24Z</time>
      </trkpt>
      <trkpt lat="48.57773" lon="-3.82849">
        <ele>8.5</ele>
        <time>2020-06-10T13:28:25Z</time>
      </trkpt>
      <trkpt lat="48.57772" lon="-3.8285">
        <ele>8.5</ele>
        <time>2020-06-10T13:28:26Z</time>
      </trkpt>
      <trkpt lat="48.57771" lon="-3.8285">
        <ele>8.6</ele>
        <time>2020-06-10T13:28:27Z</time>
      </trkpt>
      <trkpt lat="48.5777" lon="-3.82852">
        <ele>8.6</ele>
        <time>2020-06-10T13:28:28Z</time>
      </trkpt>
      <trkpt lat="48.57769" lon="-3.82852">
        <ele>9.1</ele>
        <time>2020-06-10T13:28:29Z</time>
      </trkpt>
      <trkpt lat="48.57768" lon="-3.82853">
        <ele>9.1</ele>
        <time>2020-06-10T13:28:30Z</time>
      </trkpt>
      <trkpt lat="48.57767" lon="-3.82854">
        <ele>9.1</ele>
        <time>2020-06-10T13:28:31Z</time>
      </trkpt>
      <trkpt lat="48.57765" lon="-3.82855">
        <ele>9.1</ele>
        <time>2020-06-10T13:28:32Z</time>
      </trkpt>
      <trkpt lat="48.57763" lon="-3.82856">
        <ele>9.1</ele>
        <time>2020-06-10T13:28:33Z</time>
      </trkpt>
      <trkpt lat="48.57762" lon="-3.82857">
        <ele>9.4</ele>
        <time>2020-06-10T13:28:34Z</time>
      </trkpt>
      <trkpt lat="48.57758" lon="-3.82857">
        <ele>9.3</ele>
        <time>2020-06-10T13:28:35Z</time>
      </trkpt>
      <trkpt lat="48.57756" lon="-3.82857">
        <ele>9.3</ele>
        <time>2020-06-10T13:28:36Z</time>
      </trkpt>
      <trkpt lat="48.57752" lon="-3.82856">
        <ele>9.4</ele>
        <time>2020-06-10T13:28:37Z</time>
      </trkpt>
      <trkpt lat="48.5775" lon="-3.82855">
        <ele>9.4</ele>
        <time>2020-06-10T13:28:38Z</time>
      </trkpt>
      <trkpt lat="48.57747" lon="-3.82855">
        <ele>9.5</ele>
        <time>2020-06-10T13:28:39Z</time>
      </trkpt>
      <trkpt lat="48.57744" lon="-3.82854">
        <ele>9.5</ele>
        <time>2020-06-10T13:28:40Z</time>
      </trkpt>
      <trkpt lat="48.57742" lon="-3.82853">
        <ele>9.6</ele>
        <time>2020-06-10T13:28:41Z</time>
      </trkpt>
      <trkpt lat="48.57738" lon="-3.82851">
        <ele>9.6</ele>
        <time>2020-06-10T13:28:42Z</time>
      </trkpt>
      <trkpt lat="48.57735" lon="-3.82848">
        <ele>9.7</ele>
        <time>2020-06-10T13:28:43Z</time>
      </trkpt>
      <trkpt lat="48.57731" lon="-3.82846">
        <ele>9.7</ele>
        <time>2020-06-10T13:28:44Z</time>
      </trkpt>
      <trkpt lat="48.57729" lon="-3.82844">
        <ele>9.8</ele>
        <time>2020-06-10T13:28:45Z</time>
      </trkpt>
      <trkpt lat="48.57726" lon="-3.82841">
        <ele>9.9</ele>
        <time>2020-06-10T13:28:46Z</time>
      </trkpt>
      <trkpt lat="48.57723" lon="-3.82835">
        <ele>10.1</ele>
        <time>2020-06-10T13:28:47Z</time>
      </trkpt>
      <trkpt lat="48.57721" lon="-3.82833">
        <ele>10.2</ele>
        <time>2020-06-10T13:28:48Z</time>
      </trkpt>
      <trkpt lat="48.57718" lon="-3.82827">
        <ele>10.3</ele>
        <time>2020-06-10T13:28:49Z</time>
      </trkpt>
      <trkpt lat="48.57715" lon="-3.82823">
        <ele>10.5</ele>
        <time>2020-06-10T13:28:50Z</time>
      </trkpt>
      <trkpt lat="48.57711" lon="-3.8282">
        <ele>10.6</ele>
        <time>2020-06-10T13:28:51Z</time>
      </trkpt>
      <trkpt lat="48.57707" lon="-3.82818">
        <ele>10.7</ele>
        <time>2020-06-10T13:28:52Z</time>
      </trkpt>
      <trkpt lat="48.57704" lon="-3.82815">
        <ele>10.8</ele>
        <time>2020-06-10T13:28:53Z</time>
      </trkpt>
      <trkpt lat="48.57701" lon="-3.82813">
        <ele>10.8</ele>
        <time>2020-06-10T13:28:54Z</time>
      </trkpt>
      <trkpt lat="48.57698" lon="-3.8281">
        <ele>10.9</ele>
        <time>2020-06-10T13:28:55Z</time>
      </trkpt>
      <trkpt lat="48.57697" lon="-3.8281">
        <ele>10.9</ele>
        <time>2020-06-10T13:28:56Z</time>
      </trkpt>
      <trkpt lat="48.57696" lon="-3.82804">
        <ele>10.9</ele>
        <time>2020-06-10T13:28:57Z</time>
      </trkpt>
      <trkpt lat="48.57696" lon="-3.82802">
        <ele>10.9</ele>
        <time>2020-06-10T13:28:58Z</time>
      </trkpt>
      <trkpt lat="48.57698" lon="-3.82797">
        <ele>10.9</ele>
        <time>2020-06-10T13:28:59Z</time>
      </trkpt>
      <trkpt lat="48.57698" lon="-3.82795">
        <ele>11</ele>
        <time>2020-06-10T13:29:00Z</time>
      </trkpt>
      <trkpt lat="48.577" lon="-3.82789">
        <ele>11</ele>
        <time>2020-06-10T13:29:01Z</time>
      </trkpt>
      <trkpt lat="48.57701" lon="-3.82784">
        <ele>11</ele>
        <time>2020-06-10T13:29:02Z</time>
      </trkpt>
      <trkpt lat="48.57703" lon="-3.82779">
        <ele>11</ele>
        <time>2020-06-10T13:29:03Z</time>
      </trkpt>
      <trkpt lat="48.57705" lon="-3.82776">
        <ele>11.1</ele>
        <time>2020-06-10T13:29:04Z</time>
      </trkpt>
      <trkpt lat="48.57707" lon="-3.82772">
        <ele>11.1</ele>
        <time>2020-06-10T13:29:05Z</time>
      </trkpt>
      <trkpt lat="48.57708" lon="-3.82767">
        <ele>11.1</ele>
        <time>2020-06-10T13:29:06Z</time>
      </trkpt>
      <trkpt lat="48.57708" lon="-3.82764">
        <ele>11.1</ele>
        <time>2020-06-10T13:29:07Z</time>
      </trkpt>
      <trkpt lat="48.5771" lon="-3.8276">
        <ele>11.2</ele>
        <time>2020-06-10T13:29:08Z</time>
      </trkpt>
      <trkpt lat="48.5771" lon="-3.82759">
        <ele>11.2</ele>
        <time>2020-06-10T13:29:09Z</time>
      </trkpt>
      <trkpt lat="48.57711" lon="-3.82757">
        <ele>11.2</ele>
        <time>2020-06-10T13:29:10Z</time>
      </trkpt>
      <trkpt lat="48.57712" lon="-3.82755">
        <ele>11.2</ele>
        <time>2020-06-10T13:29:11Z</time>
      </trkpt>
      <trkpt lat="48.57714" lon="-3.82753">
        <ele>11.2</ele>
        <time>2020-06-10T13:29:12Z</time>
      </trkpt>
      <trkpt lat="48.57715" lon="-3.82752">
        <ele>11.2</ele>
        <time>2020-06-10T13:29:13Z</time>
      </trkpt>
      <trkpt lat="48.57718" lon="-3.8275">
        <ele>11.2</ele>
        <time>2020-06-10T13:29:14Z</time>
      </trkpt>
      <trkpt lat="48.57719" lon="-3.82749">
        <ele>11.2</ele>
        <time>2020-06-10T13:29:15Z</time>
      </trkpt>
      <trkpt lat="48.57721" lon="-3.82747">
        <ele>11.2</ele>
        <time>2020-06-10T13:29:16Z</time>
      </trkpt>
      <trkpt lat="48.57724" lon="-3.82741">
        <ele>11.2</ele>
        <time>2020-06-10T13:29:17Z</time>
      </trkpt>
      <trkpt lat="48.57725" lon="-3.82735">
        <ele>11.2</ele>
        <time>2020-06-10T13:29:18Z</time>
      </trkpt>
      <trkpt lat="48.57725" lon="-3.82729">
        <ele>11.2</ele>
        <time>2020-06-10T13:29:19Z</time>
      </trkpt>
      <trkpt lat="48.57728" lon="-3.82726">
        <ele>11.2</ele>
        <time>2020-06-10T13:29:20Z</time>
      </trkpt>
      <trkpt lat="48.57729" lon="-3.82725">
        <ele>11.2</ele>
        <time>2020-06-10T13:29:21Z</time>
      </trkpt>
      <trkpt lat="48.57732" lon="-3.82723">
        <ele>11.2</ele>
        <time>2020-06-10T13:29:22Z</time>
      </trkpt>
      <trkpt lat="48.57737" lon="-3.82721">
        <ele>11.3</ele>
        <time>2020-06-10T13:29:23Z</time>
      </trkpt>
      <trkpt lat="48.5774" lon="-3.82718">
        <ele>11.3</ele>
        <time>2020-06-10T13:29:24Z</time>
      </trkpt>
      <trkpt lat="48.57744" lon="-3.82715">
        <ele>11.3</ele>
        <time>2020-06-10T13:29:25Z</time>
      </trkpt>
      <trkpt lat="48.57746" lon="-3.82711">
        <ele>11.3</ele>
        <time>2020-06-10T13:29:26Z</time>
      </trkpt>
      <trkpt lat="48.57748" lon="-3.82707">
        <ele>11.4</ele>
        <time>2020-06-10T13:29:27Z</time>
      </trkpt>
      <trkpt lat="48.57748" lon="-3.82702">
        <ele>11.4</ele>
        <time>2020-06-10T13:29:28Z</time>
      </trkpt>
      <trkpt lat="48.57746" lon="-3.82699">
        <ele>11.1</ele>
        <time>2020-06-10T13:29:29Z</time>
      </trkpt>
      <trkpt lat="48.57744" lon="-3.82693">
        <ele>11</ele>
        <time>2020-06-10T13:29:30Z</time>
      </trkpt>
      <trkpt lat="48.57741" lon="-3.82687">
        <ele>10.9</ele>
        <time>2020-06-10T13:29:31Z</time>
      </trkpt>
      <trkpt lat="48.57739" lon="-3.82682">
        <ele>10.7</ele>
        <time>2020-06-10T13:29:32Z</time>
      </trkpt>
      <trkpt lat="48.57736" lon="-3.82678">
        <ele>10.6</ele>
        <time>2020-06-10T13:29:33Z</time>
      </trkpt>
      <trkpt lat="48.57732" lon="-3.82673">
        <ele>10.5</ele>
        <time>2020-06-10T13:29:34Z</time>
      </trkpt>
      <trkpt lat="48.5773" lon="-3.82669">
        <ele>10.4</ele>
        <time>2020-06-10T13:29:35Z</time>
      </trkpt>
      <trkpt lat="48.57728" lon="-3.82666">
        <ele>10.3</ele>
        <time>2020-06-10T13:29:36Z</time>
      </trkpt>
      <trkpt lat="48.57726" lon="-3.82663">
        <ele>10.3</ele>
        <time>2020-06-10T13:29:37Z</time>
      </trkpt>
      <trkpt lat="48.57724" lon="-3.82658">
        <ele>10.2</ele>
        <time>2020-06-10T13:29:38Z</time>
      </trkpt>
      <trkpt lat="48.57722" lon="-3.82654">
        <ele>10.3</ele>
        <time>2020-06-10T13:29:39Z</time>
      </trkpt>
      <trkpt lat="48.57719" lon="-3.82652">
        <ele>10.3</ele>
        <time>2020-06-10T13:29:40Z</time>
      </trkpt>
      <trkpt lat="48.57716" lon="-3.82647">
        <ele>10.3</ele>
        <time>2020-06-10T13:29:41Z</time>
      </trkpt>
      <trkpt lat="48.57713" lon="-3.82643">
        <ele>10.3</ele>
        <time>2020-06-10T13:29:42Z</time>
      </trkpt>
      <trkpt lat="48.5771" lon="-3.82638">
        <ele>10.4</ele>
        <time>2020-06-10T13:29:43Z</time>
      </trkpt>
      <trkpt lat="48.57707" lon="-3.82634">
        <ele>10.4</ele>
        <time>2020-06-10T13:29:44Z</time>
      </trkpt>
      <trkpt lat="48.57704" lon="-3.82629">
        <ele>10.5</ele>
        <time>2020-06-10T13:29:45Z</time>
      </trkpt>
      <trkpt lat="48.57702" lon="-3.82625">
        <ele>10.5</ele>
        <time>2020-06-10T13:29:46Z</time>
      </trkpt>
      <trkpt lat="48.577" lon="-3.8262">
        <ele>10.6</ele>
        <time>2020-06-10T13:29:47Z</time>
      </trkpt>
      <trkpt lat="48.57697" lon="-3.82615">
        <ele>10.6</ele>
        <time>2020-06-10T13:29:48Z</time>
      </trkpt>
      <trkpt lat="48.57694" lon="-3.82611">
        <ele>10.7</ele>
        <time>2020-06-10T13:29:49Z</time>
      </trkpt>
      <trkpt lat="48.57691" lon="-3.82607">
        <ele>10.7</ele>
        <time>2020-06-10T13:29:50Z</time>
      </trkpt>
      <trkpt lat="48.57689" lon="-3.82603">
        <ele>10.8</ele>
        <time>2020-06-10T13:29:51Z</time>
      </trkpt>
      <trkpt lat="48.57687" lon="-3.82599">
        <ele>10.8</ele>
        <time>2020-06-10T13:29:52Z</time>
      </trkpt>
      <trkpt lat="48.57685" lon="-3.82596">
        <ele>10.9</ele>
        <time>2020-06-10T13:29:53Z</time>
      </trkpt>
      <trkpt lat="48.57684" lon="-3.82591">
        <ele>10.9</ele>
        <time>2020-06-10T13:29:54Z</time>
      </trkpt>
      <trkpt lat="48.57685" lon="-3.82581">
        <ele>11</ele>
        <time>2020-06-10T13:29:55Z</time>
      </trkpt>
      <trkpt lat="48.57684" lon="-3.82576">
        <ele>11.2</ele>
        <time>2020-06-10T13:29:56Z</time>
      </trkpt>
      <trkpt lat="48.57684" lon="-3.8257">
        <ele>11.3</ele>
        <time>2020-06-10T13:29:57Z</time>
      </trkpt>
      <trkpt lat="48.57684" lon="-3.82565">
        <ele>11.4</ele>
        <time>2020-06-10T13:29:58Z</time>
      </trkpt>
      <trkpt lat="48.57685" lon="-3.8256">
        <ele>11.4</ele>
        <time>2020-06-10T13:29:59Z</time>
      </trkpt>
      <trkpt lat="48.57686" lon="-3.82559">
        <ele>11.5</ele>
        <time>2020-06-10T13:30:00Z</time>
      </trkpt>
      <trkpt lat="48.57689" lon="-3.82555">
        <ele>11.6</ele>
        <time>2020-06-10T13:30:01Z</time>
      </trkpt>
      <trkpt lat="48.57691" lon="-3.82551">
        <ele>11.7</ele>
        <time>2020-06-10T13:30:02Z</time>
      </trkpt>
      <trkpt lat="48.57695" lon="-3.82546">
        <ele>11.8</ele>
        <time>2020-06-10T13:30:03Z</time>
      </trkpt>
      <trkpt lat="48.57698" lon="-3.82542">
        <ele>11.9</ele>
        <time>2020-06-10T13:30:04Z</time>
      </trkpt>
      <trkpt lat="48.57701" lon="-3.82542">
        <ele>12</ele>
        <time>2020-06-10T13:30:05Z</time>
      </trkpt>
      <trkpt lat="48.57705" lon="-3.82542">
        <ele>12</ele>
        <time>2020-06-10T13:30:06Z</time>
      </trkpt>
      <trkpt lat="48.57706" lon="-3.82542">
        <ele>12</ele>
        <time>2020-06-10T13:30:07Z</time>
      </trkpt>
      <trkpt lat="48.57709" lon="-3.82542">
        <ele>12.1</ele>
        <time>2020-06-10T13:30:08Z</time>
      </trkpt>
      <trkpt lat="48.57712" lon="-3.82541">
        <ele>12.1</ele>
        <time>2020-06-10T13:30:09Z</time>
      </trkpt>
      <trkpt lat="48.57713" lon="-3.8254">
        <ele>12.1</ele>
        <time>2020-06-10T13:30:10Z</time>
      </trkpt>
      <trkpt lat="48.57717" lon="-3.82537">
        <ele>12.2</ele>
        <time>2020-06-10T13:30:11Z</time>
      </trkpt>
      <trkpt lat="48.57718" lon="-3.82535">
        <ele>12.3</ele>
        <time>2020-06-10T13:30:12Z</time>
      </trkpt>
      <trkpt lat="48.57718" lon="-3.8253">
        <ele>12.3</ele>
        <time>2020-06-10T13:30:13Z</time>
      </trkpt>
      <trkpt lat="48.57718" lon="-3.82525">
        <ele>12.4</ele>
        <time>2020-06-10T13:30:14Z</time>
      </trkpt>
      <trkpt lat="48.57718" lon="-3.82519">
        <ele>12.4</ele>
        <time>2020-06-10T13:30:15Z</time>
      </trkpt>
      <trkpt lat="48.57718" lon="-3.82517">
        <ele>12.4</ele>
        <time>2020-06-10T13:30:16Z</time>
      </trkpt>
      <trkpt lat="48.57718" lon="-3.82513">
        <ele>12.7</ele>
        <time>2020-06-10T13:30:17Z</time>
      </trkpt>
      <trkpt lat="48.57717" lon="-3.82509">
        <ele>12.8</ele>
        <time>2020-06-10T13:30:18Z</time>
      </trkpt>
      <trkpt lat="48.57717" lon="-3.82503">
        <ele>13</ele>
        <time>2020-06-10T13:30:19Z</time>
      </trkpt>
      <trkpt lat="48.57717" lon="-3.82501">
        <ele>13</ele>
        <time>2020-06-10T13:30:20Z</time>
      </trkpt>
      <trkpt lat="48.57717" lon="-3.82497">
        <ele>13.2</ele>
        <time>2020-06-10T13:30:21Z</time>
      </trkpt>
      <trkpt lat="48.57716" lon="-3.82491">
        <ele>13.4</ele>
        <time>2020-06-10T13:30:22Z</time>
      </trkpt>
      <trkpt lat="48.57716" lon="-3.82489">
        <ele>13.5</ele>
        <time>2020-06-10T13:30:23Z</time>
      </trkpt>
      <trkpt lat="48.57716" lon="-3.82483">
        <ele>13.7</ele>
        <time>2020-06-10T13:30:24Z</time>
      </trkpt>
      <trkpt lat="48.57716" lon="-3.82481">
        <ele>13.8</ele>
        <time>2020-06-10T13:30:25Z</time>
      </trkpt>
      <trkpt lat="48.57715" lon="-3.82476">
        <ele>14</ele>
        <time>2020-06-10T13:30:26Z</time>
      </trkpt>
      <trkpt lat="48.57715" lon="-3.82475">
        <ele>14</ele>
        <time>2020-06-10T13:30:27Z</time>
      </trkpt>
      <trkpt lat="48.57715" lon="-3.8247">
        <ele>14.2</ele>
        <time>2020-06-10T13:30:28Z</time>
      </trkpt>
      <trkpt lat="48.57716" lon="-3.82466">
        <ele>14.4</ele>
        <time>2020-06-10T13:30:29Z</time>
      </trkpt>
      <trkpt lat="48.57716" lon="-3.82462">
        <ele>14.6</ele>
        <time>2020-06-10T13:30:30Z</time>
      </trkpt>
      <trkpt lat="48.57717" lon="-3.82456">
        <ele>14.9</ele>
        <time>2020-06-10T13:30:31Z</time>
      </trkpt>
      <trkpt lat="48.57717" lon="-3.82454">
        <ele>15</ele>
        <time>2020-06-10T13:30:32Z</time>
      </trkpt>
      <trkpt lat="48.57717" lon="-3.82449">
        <ele>15.2</ele>
        <time>2020-06-10T13:30:33Z</time>
      </trkpt>
      <trkpt lat="48.57718" lon="-3.82444">
        <ele>15.5</ele>
        <time>2020-06-10T13:30:34Z</time>
      </trkpt>
      <trkpt lat="48.57718" lon="-3.82442">
        <ele>15.6</ele>
        <time>2020-06-10T13:30:35Z</time>
      </trkpt>
      <trkpt lat="48.57717" lon="-3.82435">
        <ele>16</ele>
        <time>2020-06-10T13:30:36Z</time>
      </trkpt>
      <trkpt lat="48.57717" lon="-3.82433">
        <ele>16.1</ele>
        <time>2020-06-10T13:30:37Z</time>
      </trkpt>
      <trkpt lat="48.57717" lon="-3.82428">
        <ele>16.4</ele>
        <time>2020-06-10T13:30:38Z</time>
      </trkpt>
      <trkpt lat="48.57716" lon="-3.82427">
        <ele>16.5</ele>
        <time>2020-06-10T13:30:39Z</time>
      </trkpt>
      <trkpt lat="48.57714" lon="-3.82423">
        <ele>16.8</ele>
        <time>2020-06-10T13:30:40Z</time>
      </trkpt>
      <trkpt lat="48.57711" lon="-3.8242">
        <ele>17.1</ele>
        <time>2020-06-10T13:30:41Z</time>
      </trkpt>
      <trkpt lat="48.5771" lon="-3.82419">
        <ele>17.2</ele>
        <time>2020-06-10T13:30:42Z</time>
      </trkpt>
      <trkpt lat="48.57708" lon="-3.82415">
        <ele>17.6</ele>
        <time>2020-06-10T13:30:43Z</time>
      </trkpt>
      <trkpt lat="48.57708" lon="-3.82414">
        <ele>17.7</ele>
        <time>2020-06-10T13:30:44Z</time>
      </trkpt>
      <trkpt lat="48.57707" lon="-3.8241">
        <ele>18</ele>
        <time>2020-06-10T13:30:45Z</time>
      </trkpt>
      <trkpt lat="48.57707" lon="-3.82405">
        <ele>18.4</ele>
        <time>2020-06-10T13:30:46Z</time>
      </trkpt>
      <trkpt lat="48.57707" lon="-3.82403">
        <ele>18.5</ele>
        <time>2020-06-10T13:30:47Z</time>
      </trkpt>
      <trkpt lat="48.57706" lon="-3.82399">
        <ele>18.8</ele>
        <time>2020-06-10T13:30:48Z</time>
      </trkpt>
      <trkpt lat="48.57705" lon="-3.82397">
        <ele>18.9</ele>
        <time>2020-06-10T13:30:49Z</time>
      </trkpt>
      <trkpt lat="48.57705" lon="-3.82392">
        <ele>19.3</ele>
        <time>2020-06-10T13:30:50Z</time>
      </trkpt>
      <trkpt lat="48.57705" lon="-3.8239">
        <ele>19.5</ele>
        <time>2020-06-10T13:30:51Z</time>
      </trkpt>
      <trkpt lat="48.57704" lon="-3.82386">
        <ele>19.8</ele>
        <time>2020-06-10T13:30:52Z</time>
      </trkpt>
      <trkpt lat="48.57704" lon="-3.82384">
        <ele>19.9</ele>
        <time>2020-06-10T13:30:53Z</time>
      </trkpt>
      <trkpt lat="48.57703" lon="-3.8238">
        <ele>20.3</ele>
        <time>2020-06-10T13:30:54Z</time>
      </trkpt>
      <trkpt lat="48.57702" lon="-3.82379">
        <ele>20.4</ele>
        <time>2020-06-10T13:30:55Z</time>
      </trkpt>
      <trkpt lat="48.57702" lon="-3.82374">
        <ele>20.8</ele>
        <time>2020-06-10T13:30:56Z</time>
      </trkpt>
      <trkpt lat="48.57701" lon="-3.82372">
        <ele>20.9</ele>
        <time>2020-06-10T13:30:57Z</time>
      </trkpt>
      <trkpt lat="48.57699" lon="-3.82367">
        <ele>21.3</ele>
        <time>2020-06-10T13:30:58Z</time>
      </trkpt>
      <trkpt lat="48.57699" lon="-3.82364">
        <ele>21.6</ele>
        <time>2020-06-10T13:30:59Z</time>
      </trkpt>
      <trkpt lat="48.57698" lon="-3.82364">
        <ele>21.7</ele>
        <time>2020-06-10T13:31:00Z</time>
      </trkpt>
      <trkpt lat="48.57697" lon="-3.82363">
        <ele>21.8</ele>
        <time>2020-06-10T13:31:01Z</time>
      </trkpt>
      <trkpt lat="48.57697" lon="-3.8236">
        <ele>22</ele>
        <time>2020-06-10T13:31:02Z</time>
      </trkpt>
      <trkpt lat="48.57697" lon="-3.82359">
        <ele>22.1</ele>
        <time>2020-06-10T13:31:03Z</time>
      </trkpt>
      <trkpt lat="48.57697" lon="-3.82357">
        <ele>22.2</ele>
        <time>2020-06-10T13:31:04Z</time>
      </trkpt>
      <trkpt lat="48.57696" lon="-3.82354">
        <ele>22.5</ele>
        <time>2020-06-10T13:31:05Z</time>
      </trkpt>
      <trkpt lat="48.57695" lon="-3.82352">
        <ele>22.6</ele>
        <time>2020-06-10T13:31:06Z</time>
      </trkpt>
      <trkpt lat="48.57693" lon="-3.8235">
        <ele>22.9</ele>
        <time>2020-06-10T13:31:07Z</time>
      </trkpt>
      <trkpt lat="48.57692" lon="-3.82349">
        <ele>23.1</ele>
        <time>2020-06-10T13:31:08Z</time>
      </trkpt>
      <trkpt lat="48.57692" lon="-3.82346">
        <ele>23.2</ele>
        <time>2020-06-10T13:31:09Z</time>
      </trkpt>
      <trkpt lat="48.57691" lon="-3.82344">
        <ele>23.4</ele>
        <time>2020-06-10T13:31:10Z</time>
      </trkpt>
      <trkpt lat="48.5769" lon="-3.82339">
        <ele>23.9</ele>
        <time>2020-06-10T13:31:11Z</time>
      </trkpt>
      <trkpt lat="48.5769" lon="-3.82337">
        <ele>24</ele>
        <time>2020-06-10T13:31:12Z</time>
      </trkpt>
      <trkpt lat="48.57689" lon="-3.82335">
        <ele>24.2</ele>
        <time>2020-06-10T13:31:13Z</time>
      </trkpt>
      <trkpt lat="48.57689" lon="-3.82333">
        <ele>24.4</ele>
        <time>2020-06-10T13:31:14Z</time>
      </trkpt>
      <trkpt lat="48.57688" lon="-3.82329">
        <ele>24.7</ele>
        <time>2020-06-10T13:31:15Z</time>
      </trkpt>
      <trkpt lat="48.57688" lon="-3.82327">
        <ele>24.8</ele>
        <time>2020-06-10T13:31:16Z</time>
      </trkpt>
      <trkpt lat="48.57688" lon="-3.82323">
        <ele>25.1</ele>
        <time>2020-06-10T13:31:17Z</time>
      </trkpt>
      <trkpt lat="48.57688" lon="-3.82322">
        <ele>25.3</ele>
        <time>2020-06-10T13:31:18Z</time>
      </trkpt>
      <trkpt lat="48.57688" lon="-3.82319">
        <ele>25.5</ele>
        <time>2020-06-10T13:31:19Z</time>
      </trkpt>
      <trkpt lat="48.57687" lon="-3.82317">
        <ele>25.6</ele>
        <time>2020-06-10T13:31:20Z</time>
      </trkpt>
      <trkpt lat="48.57687" lon="-3.82315">
        <ele>25.8</ele>
        <time>2020-06-10T13:31:21Z</time>
      </trkpt>
      <trkpt lat="48.57686" lon="-3.82313">
        <ele>26</ele>
        <time>2020-06-10T13:31:22Z</time>
      </trkpt>
      <trkpt lat="48.57686" lon="-3.8231">
        <ele>26.2</ele>
        <time>2020-06-10T13:31:23Z</time>
      </trkpt>
      <trkpt lat="48.57686" lon="-3.82308">
        <ele>26.4</ele>
        <time>2020-06-10T13:31:24Z</time>
      </trkpt>
      <trkpt lat="48.57687" lon="-3.82303">
        <ele>26.8</ele>
        <time>2020-06-10T13:31:25Z</time>
      </trkpt>
      <trkpt lat="48.57687" lon="-3.82302">
        <ele>26.9</ele>
        <time>2020-06-10T13:31:26Z</time>
      </trkpt>
      <trkpt lat="48.57687" lon="-3.82299">
        <ele>27.1</ele>
        <time>2020-06-10T13:31:27Z</time>
      </trkpt>
      <trkpt lat="48.57686" lon="-3.82297">
        <ele>27.3</ele>
        <time>2020-06-10T13:31:28Z</time>
      </trkpt>
      <trkpt lat="48.57684" lon="-3.82293">
        <ele>27.7</ele>
        <time>2020-06-10T13:31:29Z</time>
      </trkpt>
      <trkpt lat="48.57683" lon="-3.82292">
        <ele>27.8</ele>
        <time>2020-06-10T13:31:30Z</time>
      </trkpt>
      <trkpt lat="48.57682" lon="-3.8229">
        <ele>28</ele>
        <time>2020-06-10T13:31:31Z</time>
      </trkpt>
      <trkpt lat="48.57682" lon="-3.82288">
        <ele>28.2</ele>
        <time>2020-06-10T13:31:32Z</time>
      </trkpt>
      <trkpt lat="48.57681" lon="-3.82287">
        <ele>28.3</ele>
        <time>2020-06-10T13:31:33Z</time>
      </trkpt>
      <trkpt lat="48.5768" lon="-3.82284">
        <ele>28.6</ele>
        <time>2020-06-10T13:31:34Z</time>
      </trkpt>
      <trkpt lat="48.5768" lon="-3.82282">
        <ele>28.8</ele>
        <time>2020-06-10T13:31:35Z</time>
      </trkpt>
      <trkpt lat="48.5768" lon="-3.8228">
        <ele>28.9</ele>
        <time>2020-06-10T13:31:36Z</time>
      </trkpt>
      <trkpt lat="48.5768" lon="-3.82278">
        <ele>29.1</ele>
        <time>2020-06-10T13:31:37Z</time>
      </trkpt>
      <trkpt lat="48.57679" lon="-3.82276">
        <ele>29.3</ele>
        <time>2020-06-10T13:31:38Z</time>
      </trkpt>
      <trkpt lat="48.57678" lon="-3.82271">
        <ele>29.7</ele>
        <time>2020-06-10T13:31:39Z</time>
      </trkpt>
      <trkpt lat="48.57678" lon="-3.8227">
        <ele>29.8</ele>
        <time>2020-06-10T13:31:40Z</time>
      </trkpt>
      <trkpt lat="48.57677" lon="-3.82266">
        <ele>30.1</ele>
        <time>2020-06-10T13:31:41Z</time>
      </trkpt>
      <trkpt lat="48.57677" lon="-3.82265">
        <ele>30.2</ele>
        <time>2020-06-10T13:31:42Z</time>
      </trkpt>
      <trkpt lat="48.57676" lon="-3.82263">
        <ele>30.4</ele>
        <time>2020-06-10T13:31:43Z</time>
      </trkpt>
      <trkpt lat="48.57676" lon="-3.8226">
        <ele>30.6</ele>
        <time>2020-06-10T13:31:44Z</time>
      </trkpt>
      <trkpt lat="48.57676" lon="-3.82257">
        <ele>30.8</ele>
        <time>2020-06-10T13:31:45Z</time>
      </trkpt>
      <trkpt lat="48.57676" lon="-3.82256">
        <ele>31</ele>
        <time>2020-06-10T13:31:46Z</time>
      </trkpt>
      <trkpt lat="48.57676" lon="-3.82254">
        <ele>31.1</ele>
        <time>2020-06-10T13:31:47Z</time>
      </trkpt>
      <trkpt lat="48.57675" lon="-3.82251">
        <ele>31.3</ele>
        <time>2020-06-10T13:31:48Z</time>
      </trkpt>
      <trkpt lat="48.57675" lon="-3.82249">
        <ele>31.5</ele>
        <time>2020-06-10T13:31:49Z</time>
      </trkpt>
      <trkpt lat="48.57675" lon="-3.82247">
        <ele>31.7</ele>
        <time>2020-06-10T13:31:50Z</time>
      </trkpt>
      <trkpt lat="48.57674" lon="-3.82243">
        <ele>31.9</ele>
        <time>2020-06-10T13:31:51Z</time>
      </trkpt>
      <trkpt lat="48.57674" lon="-3.82242">
        <ele>32.1</ele>
        <time>2020-06-10T13:31:52Z</time>
      </trkpt>
      <trkpt lat="48.57674" lon="-3.8224">
        <ele>32.2</ele>
        <time>2020-06-10T13:31:53Z</time>
      </trkpt>
      <trkpt lat="48.57673" lon="-3.82238">
        <ele>32.3</ele>
        <time>2020-06-10T13:31:54Z</time>
      </trkpt>
      <trkpt lat="48.57673" lon="-3.82236">
        <ele>32.5</ele>
        <time>2020-06-10T13:31:55Z</time>
      </trkpt>
      <trkpt lat="48.57672" lon="-3.82233">
        <ele>32.7</ele>
        <time>2020-06-10T13:31:56Z</time>
      </trkpt>
      <trkpt lat="48.57672" lon="-3.82231">
        <ele>32.9</ele>
        <time>2020-06-10T13:31:57Z</time>
      </trkpt>
      <trkpt lat="48.57672" lon="-3.82229">
        <ele>33</ele>
        <time>2020-06-10T13:31:58Z</time>
      </trkpt>
      <trkpt lat="48.57671" lon="-3.82227">
        <ele>33.2</ele>
        <time>2020-06-10T13:31:59Z</time>
      </trkpt>
      <trkpt lat="48.5767" lon="-3.82223">
        <ele>33.5</ele>
        <time>2020-06-10T13:32:00Z</time>
      </trkpt>
      <trkpt lat="48.57669" lon="-3.82222">
        <ele>33.6</ele>
        <time>2020-06-10T13:32:01Z</time>
      </trkpt>
      <trkpt lat="48.57668" lon="-3.82217">
        <ele>34</ele>
        <time>2020-06-10T13:32:02Z</time>
      </trkpt>
      <trkpt lat="48.57668" lon="-3.82216">
        <ele>34.1</ele>
        <time>2020-06-10T13:32:03Z</time>
      </trkpt>
      <trkpt lat="48.57667" lon="-3.82214">
        <ele>34.3</ele>
        <time>2020-06-10T13:32:04Z</time>
      </trkpt>
      <trkpt lat="48.57666" lon="-3.82212">
        <ele>34.4</ele>
        <time>2020-06-10T13:32:05Z</time>
      </trkpt>
      <trkpt lat="48.57666" lon="-3.82209">
        <ele>34.6</ele>
        <time>2020-06-10T13:32:06Z</time>
      </trkpt>
      <trkpt lat="48.57665" lon="-3.82207">
        <ele>34.8</ele>
        <time>2020-06-10T13:32:07Z</time>
      </trkpt>
      <trkpt lat="48.57665" lon="-3.82204">
        <ele>34.9</ele>
        <time>2020-06-10T13:32:08Z</time>
      </trkpt>
      <trkpt lat="48.57665" lon="-3.82202">
        <ele>35.1</ele>
        <time>2020-06-10T13:32:09Z</time>
      </trkpt>
      <trkpt lat="48.57665" lon="-3.82199">
        <ele>35.3</ele>
        <time>2020-06-10T13:32:10Z</time>
      </trkpt>
      <trkpt lat="48.57664" lon="-3.82197">
        <ele>35.4</ele>
        <time>2020-06-10T13:32:11Z</time>
      </trkpt>
      <trkpt lat="48.57663" lon="-3.82194">
        <ele>35.7</ele>
        <time>2020-06-10T13:32:12Z</time>
      </trkpt>
      <trkpt lat="48.57663" lon="-3.82192">
        <ele>35.8</ele>
        <time>2020-06-10T13:32:13Z</time>
      </trkpt>
      <trkpt lat="48.57663" lon="-3.82191">
        <ele>35.9</ele>
        <time>2020-06-10T13:32:14Z</time>
      </trkpt>
      <trkpt lat="48.57664" lon="-3.82188">
        <ele>36.1</ele>
        <time>2020-06-10T13:32:15Z</time>
      </trkpt>
      <trkpt lat="48.57664" lon="-3.82186">
        <ele>36.3</ele>
        <time>2020-06-10T13:32:16Z</time>
      </trkpt>
      <trkpt lat="48.57664" lon="-3.82183">
        <ele>36.6</ele>
        <time>2020-06-10T13:32:17Z</time>
      </trkpt>
      <trkpt lat="48.57665" lon="-3.82181">
        <ele>36.7</ele>
        <time>2020-06-10T13:32:18Z</time>
      </trkpt>
      <trkpt lat="48.57665" lon="-3.8218">
        <ele>36.8</ele>
        <time>2020-06-10T13:32:19Z</time>
      </trkpt>
      <trkpt lat="48.57666" lon="-3.82177">
        <ele>36.9</ele>
        <time>2020-06-10T13:32:20Z</time>
      </trkpt>
      <trkpt lat="48.57666" lon="-3.82176">
        <ele>37</ele>
        <time>2020-06-10T13:32:21Z</time>
      </trkpt>
      <trkpt lat="48.57666" lon="-3.82174">
        <ele>37</ele>
        <time>2020-06-10T13:32:22Z</time>
      </trkpt>
      <trkpt lat="48.57667" lon="-3.82171">
        <ele>37.2</ele>
        <time>2020-06-10T13:32:23Z</time>
      </trkpt>
      <trkpt lat="48.57668" lon="-3.82169">
        <ele>37.2</ele>
        <time>2020-06-10T13:32:24Z</time>
      </trkpt>
      <trkpt lat="48.57668" lon="-3.82167">
        <ele>37.3</ele>
        <time>2020-06-10T13:32:25Z</time>
      </trkpt>
      <trkpt lat="48.5767" lon="-3.82166">
        <ele>37.5</ele>
        <time>2020-06-10T13:32:26Z</time>
      </trkpt>
      <trkpt lat="48.57671" lon="-3.82165">
        <ele>37.5</ele>
        <time>2020-06-10T13:32:27Z</time>
      </trkpt>
      <trkpt lat="48.57672" lon="-3.82163">
        <ele>37.6</ele>
        <time>2020-06-10T13:32:28Z</time>
      </trkpt>
      <trkpt lat="48.57673" lon="-3.82163">
        <ele>37.7</ele>
        <time>2020-06-10T13:32:29Z</time>
      </trkpt>
      <trkpt lat="48.57675" lon="-3.82162">
        <ele>37.8</ele>
        <time>2020-06-10T13:32:30Z</time>
      </trkpt>
      <trkpt lat="48.57677" lon="-3.82162">
        <ele>38</ele>
        <time>2020-06-10T13:32:31Z</time>
      </trkpt>
      <trkpt lat="48.57678" lon="-3.8216">
        <ele>38.1</ele>
        <time>2020-06-10T13:32:32Z</time>
      </trkpt>
      <trkpt lat="48.57679" lon="-3.82157">
        <ele>38.3</ele>
        <time>2020-06-10T13:32:33Z</time>
      </trkpt>
      <trkpt lat="48.57679" lon="-3.82156">
        <ele>38.3</ele>
        <time>2020-06-10T13:32:34Z</time>
      </trkpt>
      <trkpt lat="48.5768" lon="-3.82155">
        <ele>38.4</ele>
        <time>2020-06-10T13:32:35Z</time>
      </trkpt>
      <trkpt lat="48.5768" lon="-3.82154">
        <ele>38.5</ele>
        <time>2020-06-10T13:32:36Z</time>
      </trkpt>
      <trkpt lat="48.57681" lon="-3.82152">
        <ele>38.6</ele>
        <time>2020-06-10T13:32:37Z</time>
      </trkpt>
      <trkpt lat="48.57683" lon="-3.82147">
        <ele>38.8</ele>
        <time>2020-06-10T13:32:38Z</time>
      </trkpt>
      <trkpt lat="48.57683" lon="-3.82145">
        <ele>38.9</ele>
        <time>2020-06-10T13:32:39Z</time>
      </trkpt>
      <trkpt lat="48.57684" lon="-3.82143">
        <ele>39.1</ele>
        <time>2020-06-10T13:32:40Z</time>
      </trkpt>
      <trkpt lat="48.57684" lon="-3.82141">
        <ele>39.3</ele>
        <time>2020-06-10T13:32:41Z</time>
      </trkpt>
      <trkpt lat="48.57685" lon="-3.82138">
        <ele>39.5</ele>
        <time>2020-06-10T13:32:42Z</time>
      </trkpt>
      <trkpt lat="48.57685" lon="-3.82136">
        <ele>39.6</ele>
        <time>2020-06-10T13:32:43Z</time>
      </trkpt>
      <trkpt lat="48.57685" lon="-3.82134">
        <ele>39.7</ele>
        <time>2020-06-10T13:32:44Z</time>
      </trkpt>
      <trkpt lat="48.57686" lon="-3.82131">
        <ele>39.9</ele>
        <time>2020-06-10T13:32:45Z</time>
      </trkpt>
      <trkpt lat="48.57687" lon="-3.82128">
        <ele>40.1</ele>
        <time>2020-06-10T13:32:46Z</time>
      </trkpt>
      <trkpt lat="48.57687" lon="-3.82126">
        <ele>40.3</ele>
        <time>2020-06-10T13:32:47Z</time>
      </trkpt>
      <trkpt lat="48.57687" lon="-3.82122">
        <ele>40.6</ele>
        <time>2020-06-10T13:32:48Z</time>
      </trkpt>
      <trkpt lat="48.57687" lon="-3.8212">
        <ele>40.7</ele>
        <time>2020-06-10T13:32:49Z</time>
      </trkpt>
      <trkpt lat="48.57687" lon="-3.82117">
        <ele>40.8</ele>
        <time>2020-06-10T13:32:50Z</time>
      </trkpt>
      <trkpt lat="48.57686" lon="-3.82115">
        <ele>41</ele>
        <time>2020-06-10T13:32:51Z</time>
      </trkpt>
      <trkpt lat="48.57687" lon="-3.82112">
        <ele>41.2</ele>
        <time>2020-06-10T13:32:52Z</time>
      </trkpt>
      <trkpt lat="48.57686" lon="-3.8211">
        <ele>41.4</ele>
        <time>2020-06-10T13:32:53Z</time>
      </trkpt>
      <trkpt lat="48.57686" lon="-3.82105">
        <ele>41.6</ele>
        <time>2020-06-10T13:32:54Z</time>
      </trkpt>
      <trkpt lat="48.57686" lon="-3.82104">
        <ele>41.7</ele>
        <time>2020-06-10T13:32:55Z</time>
      </trkpt>
      <trkpt lat="48.57686" lon="-3.821">
        <ele>42</ele>
        <time>2020-06-10T13:32:56Z</time>
      </trkpt>
      <trkpt lat="48.57687" lon="-3.82098">
        <ele>42.1</ele>
        <time>2020-06-10T13:32:57Z</time>
      </trkpt>
      <trkpt lat="48.57687" lon="-3.82097">
        <ele>42.2</ele>
        <time>2020-06-10T13:32:58Z</time>
      </trkpt>
      <trkpt lat="48.57688" lon="-3.82094">
        <ele>42.4</ele>
        <time>2020-06-10T13:32:59Z</time>
      </trkpt>
      <trkpt lat="48.57688" lon="-3.82092">
        <ele>42.6</ele>
        <time>2020-06-10T13:33:00Z</time>
      </trkpt>
      <trkpt lat="48.57688" lon="-3.82089">
        <ele>42.7</ele>
        <time>2020-06-10T13:33:01Z</time>
      </trkpt>
      <trkpt lat="48.57688" lon="-3.82087">
        <ele>42.9</ele>
        <time>2020-06-10T13:33:02Z</time>
      </trkpt>
      <trkpt lat="48.57688" lon="-3.82084">
        <ele>43</ele>
        <time>2020-06-10T13:33:03Z</time>
      </trkpt>
      <trkpt lat="48.57688" lon="-3.82082">
        <ele>43.2</ele>
        <time>2020-06-10T13:33:04Z</time>
      </trkpt>
      <trkpt lat="48.57689" lon="-3.82078">
        <ele>43.5</ele>
        <time>2020-06-10T13:33:05Z</time>
      </trkpt>
      <trkpt lat="48.57688" lon="-3.82076">
        <ele>43.6</ele>
        <time>2020-06-10T13:33:06Z</time>
      </trkpt>
      <trkpt lat="48.57689" lon="-3.82071">
        <ele>43.9</ele>
        <time>2020-06-10T13:33:07Z</time>
      </trkpt>
      <trkpt lat="48.57689" lon="-3.82069">
        <ele>44</ele>
        <time>2020-06-10T13:33:08Z</time>
      </trkpt>
      <trkpt lat="48.57689" lon="-3.82065">
        <ele>44.3</ele>
        <time>2020-06-10T13:33:09Z</time>
      </trkpt>
      <trkpt lat="48.57689" lon="-3.82064">
        <ele>44.4</ele>
        <time>2020-06-10T13:33:10Z</time>
      </trkpt>
      <trkpt lat="48.57689" lon="-3.82059">
        <ele>44.7</ele>
        <time>2020-06-10T13:33:11Z</time>
      </trkpt>
      <trkpt lat="48.57689" lon="-3.82057">
        <ele>44.9</ele>
        <time>2020-06-10T13:33:12Z</time>
      </trkpt>
      <trkpt lat="48.57689" lon="-3.82052">
        <ele>45.2</ele>
        <time>2020-06-10T13:33:13Z</time>
      </trkpt>
      <trkpt lat="48.57689" lon="-3.82051">
        <ele>45.3</ele>
        <time>2020-06-10T13:33:14Z</time>
      </trkpt>
      <trkpt lat="48.57689" lon="-3.82046">
        <ele>45.6</ele>
        <time>2020-06-10T13:33:15Z</time>
      </trkpt>
      <trkpt lat="48.57689" lon="-3.82045">
        <ele>45.7</ele>
        <time>2020-06-10T13:33:16Z</time>
      </trkpt>
      <trkpt lat="48.57689" lon="-3.82042">
        <ele>45.9</ele>
        <time>2020-06-10T13:33:17Z</time>
      </trkpt>
      <trkpt lat="48.5769" lon="-3.8204">
        <ele>46</ele>
        <time>2020-06-10T13:33:18Z</time>
      </trkpt>
      <trkpt lat="48.57691" lon="-3.82035">
        <ele>46.4</ele>
        <time>2020-06-10T13:33:19Z</time>
      </trkpt>
      <trkpt lat="48.57691" lon="-3.82034">
        <ele>46.5</ele>
        <time>2020-06-10T13:33:20Z</time>
      </trkpt>
      <trkpt lat="48.57692" lon="-3.8203">
        <ele>46.8</ele>
        <time>2020-06-10T13:33:21Z</time>
      </trkpt>
      <trkpt lat="48.57692" lon="-3.82028">
        <ele>46.9</ele>
        <time>2020-06-10T13:33:22Z</time>
      </trkpt>
      <trkpt lat="48.57692" lon="-3.82026">
        <ele>47.1</ele>
        <time>2020-06-10T13:33:23Z</time>
      </trkpt>
      <trkpt lat="48.57693" lon="-3.82024">
        <ele>47.2</ele>
        <time>2020-06-10T13:33:24Z</time>
      </trkpt>
      <trkpt lat="48.57695" lon="-3.82021">
        <ele>47.5</ele>
        <time>2020-06-10T13:33:25Z</time>
      </trkpt>
      <trkpt lat="48.57695" lon="-3.82019">
        <ele>47.7</ele>
        <time>2020-06-10T13:33:26Z</time>
      </trkpt>
      <trkpt lat="48.57696" lon="-3.82015">
        <ele>48</ele>
        <time>2020-06-10T13:33:27Z</time>
      </trkpt>
      <trkpt lat="48.57697" lon="-3.8201">
        <ele>48.4</ele>
        <time>2020-06-10T13:33:28Z</time>
      </trkpt>
      <trkpt lat="48.57698" lon="-3.82009">
        <ele>48.5</ele>
        <time>2020-06-10T13:33:29Z</time>
      </trkpt>
      <trkpt lat="48.57698" lon="-3.82006">
        <ele>48.7</ele>
        <time>2020-06-10T13:33:30Z</time>
      </trkpt>
      <trkpt lat="48.57699" lon="-3.82004">
        <ele>48.9</ele>
        <time>2020-06-10T13:33:31Z</time>
      </trkpt>
      <trkpt lat="48.577" lon="-3.82002">
        <ele>49.1</ele>
        <time>2020-06-10T13:33:32Z</time>
      </trkpt>
      <trkpt lat="48.577" lon="-3.82">
        <ele>49.2</ele>
        <time>2020-06-10T13:33:33Z</time>
      </trkpt>
      <trkpt lat="48.57701" lon="-3.81998">
        <ele>49.4</ele>
        <time>2020-06-10T13:33:34Z</time>
      </trkpt>
      <trkpt lat="48.57702" lon="-3.81995">
        <ele>49.6</ele>
        <time>2020-06-10T13:33:35Z</time>
      </trkpt>
      <trkpt lat="48.57702" lon="-3.81993">
        <ele>49.8</ele>
        <time>2020-06-10T13:33:36Z</time>
      </trkpt>
      <trkpt lat="48.57703" lon="-3.81991">
        <ele>49.9</ele>
        <time>2020-06-10T13:33:37Z</time>
      </trkpt>
      <trkpt lat="48.57703" lon="-3.81989">
        <ele>50.1</ele>
        <time>2020-06-10T13:33:38Z</time>
      </trkpt>
      <trkpt lat="48.57704" lon="-3.81986">
        <ele>50.3</ele>
        <time>2020-06-10T13:33:39Z</time>
      </trkpt>
      <trkpt lat="48.57704" lon="-3.81981">
        <ele>50.7</ele>
        <time>2020-06-10T13:33:40Z</time>
      </trkpt>
      <trkpt lat="48.57705" lon="-3.8198">
        <ele>50.8</ele>
        <time>2020-06-10T13:33:41Z</time>
      </trkpt>
      <trkpt lat="48.57705" lon="-3.81978">
        <ele>50.9</ele>
        <time>2020-06-10T13:33:42Z</time>
      </trkpt>
      <trkpt lat="48.57705" lon="-3.81975">
        <ele>51.1</ele>
        <time>2020-06-10T13:33:43Z</time>
      </trkpt>
      <trkpt lat="48.57706" lon="-3.8197">
        <ele>51.4</ele>
        <time>2020-06-10T13:33:44Z</time>
      </trkpt>
      <trkpt lat="48.57706" lon="-3.81969">
        <ele>51.5</ele>
        <time>2020-06-10T13:33:45Z</time>
      </trkpt>
      <trkpt lat="48.57707" lon="-3.81965">
        <ele>51.8</ele>
        <time>2020-06-10T13:33:46Z</time>
      </trkpt>
      <trkpt lat="48.57707" lon="-3.81964">
        <ele>51.9</ele>
        <time>2020-06-10T13:33:47Z</time>
      </trkpt>
      <trkpt lat="48.57708" lon="-3.8196">
        <ele>52.1</ele>
        <time>2020-06-10T13:33:48Z</time>
      </trkpt>
      <trkpt lat="48.57708" lon="-3.81958">
        <ele>52.2</ele>
        <time>2020-06-10T13:33:49Z</time>
      </trkpt>
      <trkpt lat="48.57708" lon="-3.81955">
        <ele>52.4</ele>
        <time>2020-06-10T13:33:50Z</time>
      </trkpt>
      <trkpt lat="48.57708" lon="-3.81953">
        <ele>52.6</ele>
        <time>2020-06-10T13:33:51Z</time>
      </trkpt>
      <trkpt lat="48.57708" lon="-3.8195">
        <ele>52.8</ele>
        <time>2020-06-10T13:33:52Z</time>
      </trkpt>
      <trkpt lat="48.57708" lon="-3.81948">
        <ele>52.9</ele>
        <time>2020-06-10T13:33:53Z</time>
      </trkpt>
      <trkpt lat="48.57708" lon="-3.81943">
        <ele>53.3</ele>
        <time>2020-06-10T13:33:54Z</time>
      </trkpt>
      <trkpt lat="48.57708" lon="-3.81941">
        <ele>53.4</ele>
        <time>2020-06-10T13:33:55Z</time>
      </trkpt>
      <trkpt lat="48.57709" lon="-3.81936">
        <ele>53.7</ele>
        <time>2020-06-10T13:33:56Z</time>
      </trkpt>
      <trkpt lat="48.57709" lon="-3.81935">
        <ele>53.8</ele>
        <time>2020-06-10T13:33:57Z</time>
      </trkpt>
      <trkpt lat="48.5771" lon="-3.81931">
        <ele>54.1</ele>
        <time>2020-06-10T13:33:58Z</time>
      </trkpt>
      <trkpt lat="48.5771" lon="-3.81929">
        <ele>54.1</ele>
        <time>2020-06-10T13:33:59Z</time>
      </trkpt>
      <trkpt lat="48.57711" lon="-3.81927">
        <ele>54.3</ele>
        <time>2020-06-10T13:34:00Z</time>
      </trkpt>
      <trkpt lat="48.57711" lon="-3.81925">
        <ele>54.4</ele>
        <time>2020-06-10T13:34:01Z</time>
      </trkpt>
      <trkpt lat="48.57712" lon="-3.8192">
        <ele>54.7</ele>
        <time>2020-06-10T13:34:02Z</time>
      </trkpt>
      <trkpt lat="48.57712" lon="-3.81919">
        <ele>54.8</ele>
        <time>2020-06-10T13:34:03Z</time>
      </trkpt>
      <trkpt lat="48.57712" lon="-3.81917">
        <ele>54.9</ele>
        <time>2020-06-10T13:34:04Z</time>
      </trkpt>
      <trkpt lat="48.57713" lon="-3.81915">
        <ele>55</ele>
        <time>2020-06-10T13:34:05Z</time>
      </trkpt>
      <trkpt lat="48.57715" lon="-3.81911">
        <ele>55.4</ele>
        <time>2020-06-10T13:34:06Z</time>
      </trkpt>
      <trkpt lat="48.57716" lon="-3.81909">
        <ele>55.5</ele>
        <time>2020-06-10T13:34:07Z</time>
      </trkpt>
      <trkpt lat="48.57718" lon="-3.81906">
        <ele>55.8</ele>
        <time>2020-06-10T13:34:08Z</time>
      </trkpt>
      <trkpt lat="48.57719" lon="-3.81905">
        <ele>55.9</ele>
        <time>2020-06-10T13:34:09Z</time>
      </trkpt>
      <trkpt lat="48.57721" lon="-3.81902">
        <ele>56.1</ele>
        <time>2020-06-10T13:34:10Z</time>
      </trkpt>
      <trkpt lat="48.57721" lon="-3.81901">
        <ele>56.2</ele>
        <time>2020-06-10T13:34:11Z</time>
      </trkpt>
      <trkpt lat="48.57722" lon="-3.81898">
        <ele>56.4</ele>
        <time>2020-06-10T13:34:12Z</time>
      </trkpt>
      <trkpt lat="48.57723" lon="-3.81896">
        <ele>56.6</ele>
        <time>2020-06-10T13:34:13Z</time>
      </trkpt>
      <trkpt lat="48.57724" lon="-3.81895">
        <ele>56.7</ele>
        <time>2020-06-10T13:34:14Z</time>
      </trkpt>
      <trkpt lat="48.57725" lon="-3.81893">
        <ele>56.9</ele>
        <time>2020-06-10T13:34:15Z</time>
      </trkpt>
      <trkpt lat="48.57728" lon="-3.81889">
        <ele>57.3</ele>
        <time>2020-06-10T13:34:16Z</time>
      </trkpt>
      <trkpt lat="48.57728" lon="-3.81889">
        <ele>57.3</ele>
        <time>2020-06-10T13:34:17Z</time>
      </trkpt>
      <trkpt lat="48.57729" lon="-3.81887">
        <ele>57.5</ele>
        <time>2020-06-10T13:34:18Z</time>
      </trkpt>
      <trkpt lat="48.5773" lon="-3.81884">
        <ele>57.7</ele>
        <time>2020-06-10T13:34:19Z</time>
      </trkpt>
      <trkpt lat="48.57732" lon="-3.81881">
        <ele>58</ele>
        <time>2020-06-10T13:34:20Z</time>
      </trkpt>
      <trkpt lat="48.57733" lon="-3.81881">
        <ele>58.1</ele>
        <time>2020-06-10T13:34:21Z</time>
      </trkpt>
      <trkpt lat="48.57735" lon="-3.81879">
        <ele>58.3</ele>
        <time>2020-06-10T13:34:22Z</time>
      </trkpt>
      <trkpt lat="48.57736" lon="-3.81877">
        <ele>58.5</ele>
        <time>2020-06-10T13:34:23Z</time>
      </trkpt>
      <trkpt lat="48.57737" lon="-3.81875">
        <ele>58.7</ele>
        <time>2020-06-10T13:34:24Z</time>
      </trkpt>
      <trkpt lat="48.57738" lon="-3.81873">
        <ele>58.8</ele>
        <time>2020-06-10T13:34:25Z</time>
      </trkpt>
      <trkpt lat="48.57739" lon="-3.8187">
        <ele>59</ele>
        <time>2020-06-10T13:34:26Z</time>
      </trkpt>
      <trkpt lat="48.57739" lon="-3.81868">
        <ele>59.2</ele>
        <time>2020-06-10T13:34:27Z</time>
      </trkpt>
      <trkpt lat="48.57741" lon="-3.81865">
        <ele>59.5</ele>
        <time>2020-06-10T13:34:28Z</time>
      </trkpt>
      <trkpt lat="48.57741" lon="-3.81863">
        <ele>59.6</ele>
        <time>2020-06-10T13:34:29Z</time>
      </trkpt>
      <trkpt lat="48.57742" lon="-3.81862">
        <ele>59.7</ele>
        <time>2020-06-10T13:34:30Z</time>
      </trkpt>
      <trkpt lat="48.57743" lon="-3.81859">
        <ele>59.9</ele>
        <time>2020-06-10T13:34:31Z</time>
      </trkpt>
      <trkpt lat="48.57744" lon="-3.81857">
        <ele>60</ele>
        <time>2020-06-10T13:34:32Z</time>
      </trkpt>
      <trkpt lat="48.57745" lon="-3.81855">
        <ele>60.2</ele>
        <time>2020-06-10T13:34:33Z</time>
      </trkpt>
      <trkpt lat="48.57746" lon="-3.81852">
        <ele>60.5</ele>
        <time>2020-06-10T13:34:34Z</time>
      </trkpt>
      <trkpt lat="48.57747" lon="-3.81851">
        <ele>60.6</ele>
        <time>2020-06-10T13:34:35Z</time>
      </trkpt>
      <trkpt lat="48.57747" lon="-3.8185">
        <ele>60.7</ele>
        <time>2020-06-10T13:34:36Z</time>
      </trkpt>
      <trkpt lat="48.57748" lon="-3.81846">
        <ele>60.9</ele>
        <time>2020-06-10T13:34:37Z</time>
      </trkpt>
      <trkpt lat="48.57749" lon="-3.81845">
        <ele>61</ele>
        <time>2020-06-10T13:34:38Z</time>
      </trkpt>
      <trkpt lat="48.57749" lon="-3.81844">
        <ele>61.1</ele>
        <time>2020-06-10T13:34:39Z</time>
      </trkpt>
      <trkpt lat="48.5775" lon="-3.8184">
        <ele>61.3</ele>
        <time>2020-06-10T13:34:40Z</time>
      </trkpt>
      <trkpt lat="48.57751" lon="-3.81839">
        <ele>61.4</ele>
        <time>2020-06-10T13:34:41Z</time>
      </trkpt>
      <trkpt lat="48.57752" lon="-3.81837">
        <ele>61.6</ele>
        <time>2020-06-10T13:34:42Z</time>
      </trkpt>
      <trkpt lat="48.57753" lon="-3.81835">
        <ele>61.7</ele>
        <time>2020-06-10T13:34:43Z</time>
      </trkpt>
      <trkpt lat="48.57754" lon="-3.81834">
        <ele>61.8</ele>
        <time>2020-06-10T13:34:44Z</time>
      </trkpt>
      <trkpt lat="48.57755" lon="-3.81832">
        <ele>62</ele>
        <time>2020-06-10T13:34:45Z</time>
      </trkpt>
      <trkpt lat="48.57755" lon="-3.8183">
        <ele>62.1</ele>
        <time>2020-06-10T13:34:46Z</time>
      </trkpt>
      <trkpt lat="48.57756" lon="-3.81829">
        <ele>62.2</ele>
        <time>2020-06-10T13:34:47Z</time>
      </trkpt>
      <trkpt lat="48.57756" lon="-3.81827">
        <ele>62.3</ele>
        <time>2020-06-10T13:34:48Z</time>
      </trkpt>
      <trkpt lat="48.57757" lon="-3.81824">
        <ele>62.5</ele>
        <time>2020-06-10T13:34:49Z</time>
      </trkpt>
      <trkpt lat="48.57757" lon="-3.81823">
        <ele>62.6</ele>
        <time>2020-06-10T13:34:50Z</time>
      </trkpt>
      <trkpt lat="48.57758" lon="-3.81822">
        <ele>62.6</ele>
        <time>2020-06-10T13:34:51Z</time>
      </trkpt>
      <trkpt lat="48.57758" lon="-3.81821">
        <ele>63.1</ele>
        <time>2020-06-10T13:34:52Z</time>
      </trkpt>
      <trkpt lat="48.57759" lon="-3.81819">
        <ele>63.1</ele>
        <time>2020-06-10T13:34:53Z</time>
      </trkpt>
      <trkpt lat="48.5776" lon="-3.81817">
        <ele>63.1</ele>
        <time>2020-06-10T13:34:54Z</time>
      </trkpt>
      <trkpt lat="48.57761" lon="-3.81816">
        <ele>63.1</ele>
        <time>2020-06-10T13:34:55Z</time>
      </trkpt>
      <trkpt lat="48.57761" lon="-3.81814">
        <ele>63.2</ele>
        <time>2020-06-10T13:34:56Z</time>
      </trkpt>
      <trkpt lat="48.57762" lon="-3.81813">
        <ele>63.2</ele>
        <time>2020-06-10T13:34:57Z</time>
      </trkpt>
      <trkpt lat="48.57763" lon="-3.81812">
        <ele>63.2</ele>
        <time>2020-06-10T13:34:58Z</time>
      </trkpt>
      <trkpt lat="48.57764" lon="-3.81811">
        <ele>63.2</ele>
        <time>2020-06-10T13:34:59Z</time>
      </trkpt>
      <trkpt lat="48.57765" lon="-3.8181">
        <ele>63.2</ele>
        <time>2020-06-10T13:35:00Z</time>
      </trkpt>
      <trkpt lat="48.57766" lon="-3.81808">
        <ele>63.2</ele>
        <time>2020-06-10T13:35:01Z</time>
      </trkpt>
      <trkpt lat="48.57766" lon="-3.81807">
        <ele>63.2</ele>
        <time>2020-06-10T13:35:02Z</time>
      </trkpt>
      <trkpt lat="48.57766" lon="-3.81806">
        <ele>63.2</ele>
        <time>2020-06-10T13:35:03Z</time>
      </trkpt>
      <trkpt lat="48.57767" lon="-3.81806">
        <ele>63.2</ele>
        <time>2020-06-10T13:35:04Z</time>
      </trkpt>
      <trkpt lat="48.57767" lon="-3.81805">
        <ele>63.2</ele>
        <time>2020-06-10T13:35:05Z</time>
      </trkpt>
      <trkpt lat="48.57767" lon="-3.81804">
        <ele>63.3</ele>
        <time>2020-06-10T13:35:06Z</time>
      </trkpt>
      <trkpt lat="48.57768" lon="-3.81803">
        <ele>63.3</ele>
        <time>2020-06-10T13:35:07Z</time>
      </trkpt>
      <trkpt lat="48.57768" lon="-3.81803">
        <ele>63.3</ele>
        <time>2020-06-10T13:35:08Z</time>
      </trkpt>
      <trkpt lat="48.57769" lon="-3.81802">
        <ele>63.3</ele>
        <time>2020-06-10T13:35:09Z</time>
      </trkpt>
      <trkpt lat="48.57769" lon="-3.81801">
        <ele>63.3</ele>
        <time>2020-06-10T13:35:10Z</time>
      </trkpt>
      <trkpt lat="48.57769" lon="-3.818">
        <ele>63.3</ele>
        <time>2020-06-10T13:35:11Z</time>
      </trkpt>
      <trkpt lat="48.5777" lon="-3.818">
        <ele>63.3</ele>
        <time>2020-06-10T13:35:12Z</time>
      </trkpt>
      <trkpt lat="48.5777" lon="-3.81799">
        <ele>63.3</ele>
        <time>2020-06-10T13:37:01Z</time>
      </trkpt>
      <trkpt lat="48.5777" lon="-3.81798">
        <ele>63.3</ele>
        <time>2020-06-10T13:37:02Z</time>
      </trkpt>
      <trkpt lat="48.57772" lon="-3.81795">
        <ele>63.3</ele>
        <time>2020-06-10T13:37:03Z</time>
      </trkpt>
      <trkpt lat="48.57773" lon="-3.81794">
        <ele>63.4</ele>
        <time>2020-06-10T13:37:04Z</time>
      </trkpt>
      <trkpt lat="48.57774" lon="-3.81793">
        <ele>63.4</ele>
        <time>2020-06-10T13:37:05Z</time>
      </trkpt>
      <trkpt lat="48.57775" lon="-3.81789">
        <ele>63.4</ele>
        <time>2020-06-10T13:37:06Z</time>
      </trkpt>
      <trkpt lat="48.57776" lon="-3.81788">
        <ele>63.4</ele>
        <time>2020-06-10T13:37:07Z</time>
      </trkpt>
      <trkpt lat="48.57778" lon="-3.81783">
        <ele>63.5</ele>
        <time>2020-06-10T13:37:08Z</time>
      </trkpt>
      <trkpt lat="48.57778" lon="-3.81782">
        <ele>63.5</ele>
        <time>2020-06-10T13:37:09Z</time>
      </trkpt>
      <trkpt lat="48.57779" lon="-3.81778">
        <ele>63.5</ele>
        <time>2020-06-10T13:37:10Z</time>
      </trkpt>
      <trkpt lat="48.5778" lon="-3.81776">
        <ele>63.5</ele>
        <time>2020-06-10T13:37:11Z</time>
      </trkpt>
      <trkpt lat="48.57782" lon="-3.81772">
        <ele>63.6</ele>
        <time>2020-06-10T13:37:12Z</time>
      </trkpt>
      <trkpt lat="48.57783" lon="-3.81768">
        <ele>63.6</ele>
        <time>2020-06-10T13:37:13Z</time>
      </trkpt>
      <trkpt lat="48.57784" lon="-3.81764">
        <ele>63.6</ele>
        <time>2020-06-10T13:37:14Z</time>
      </trkpt>
      <trkpt lat="48.57785" lon="-3.8176">
        <ele>63.7</ele>
        <time>2020-06-10T13:37:15Z</time>
      </trkpt>
      <trkpt lat="48.57786" lon="-3.81756">
        <ele>63.7</ele>
        <time>2020-06-10T13:37:16Z</time>
      </trkpt>
      <trkpt lat="48.57786" lon="-3.8175">
        <ele>63.7</ele>
        <time>2020-06-10T13:37:17Z</time>
      </trkpt>
      <trkpt lat="48.57787" lon="-3.81749">
        <ele>63.7</ele>
        <time>2020-06-10T13:37:18Z</time>
      </trkpt>
      <trkpt lat="48.57786" lon="-3.81745">
        <ele>63.7</ele>
        <time>2020-06-10T13:37:19Z</time>
      </trkpt>
      <trkpt lat="48.57787" lon="-3.8174">
        <ele>63.6</ele>
        <time>2020-06-10T13:37:20Z</time>
      </trkpt>
      <trkpt lat="48.57788" lon="-3.81739">
        <ele>63.6</ele>
        <time>2020-06-10T13:37:21Z</time>
      </trkpt>
      <trkpt lat="48.57789" lon="-3.81735">
        <ele>63.6</ele>
        <time>2020-06-10T13:37:22Z</time>
      </trkpt>
      <trkpt lat="48.57789" lon="-3.81734">
        <ele>63.6</ele>
        <time>2020-06-10T13:37:23Z</time>
      </trkpt>
      <trkpt lat="48.57791" lon="-3.81731">
        <ele>63.5</ele>
        <time>2020-06-10T13:37:24Z</time>
      </trkpt>
      <trkpt lat="48.57791" lon="-3.8173">
        <ele>63.5</ele>
        <time>2020-06-10T13:37:25Z</time>
      </trkpt>
      <trkpt lat="48.57792" lon="-3.81728">
        <ele>63.5</ele>
        <time>2020-06-10T13:37:26Z</time>
      </trkpt>
      <trkpt lat="48.57793" lon="-3.81727">
        <ele>63.5</ele>
        <time>2020-06-10T13:37:27Z</time>
      </trkpt>
      <trkpt lat="48.57793" lon="-3.81725">
        <ele>63.5</ele>
        <time>2020-06-10T13:37:28Z</time>
      </trkpt>
      <trkpt lat="48.57794" lon="-3.81722">
        <ele>63.5</ele>
        <time>2020-06-10T13:37:29Z</time>
      </trkpt>
      <trkpt lat="48.57794" lon="-3.81719">
        <ele>63.5</ele>
        <time>2020-06-10T13:37:30Z</time>
      </trkpt>
      <trkpt lat="48.57794" lon="-3.81713">
        <ele>63.5</ele>
        <time>2020-06-10T13:37:31Z</time>
      </trkpt>
      <trkpt lat="48.57794" lon="-3.81711">
        <ele>63.4</ele>
        <time>2020-06-10T13:37:32Z</time>
      </trkpt>
      <trkpt lat="48.57793" lon="-3.81705">
        <ele>63.4</ele>
        <time>2020-06-10T13:37:33Z</time>
      </trkpt>
      <trkpt lat="48.57793" lon="-3.81704">
        <ele>63.4</ele>
        <time>2020-06-10T13:37:34Z</time>
      </trkpt>
      <trkpt lat="48.57791" lon="-3.817">
        <ele>63.4</ele>
        <time>2020-06-10T13:37:35Z</time>
      </trkpt>
      <trkpt lat="48.5779" lon="-3.81696">
        <ele>63.5</ele>
        <time>2020-06-10T13:37:36Z</time>
      </trkpt>
      <trkpt lat="48.57789" lon="-3.8169">
        <ele>63.6</ele>
        <time>2020-06-10T13:37:37Z</time>
      </trkpt>
      <trkpt lat="48.57788" lon="-3.81684">
        <ele>63.7</ele>
        <time>2020-06-10T13:37:38Z</time>
      </trkpt>
      <trkpt lat="48.57787" lon="-3.81678">
        <ele>63.9</ele>
        <time>2020-06-10T13:37:39Z</time>
      </trkpt>
      <trkpt lat="48.57786" lon="-3.81673">
        <ele>64</ele>
        <time>2020-06-10T13:37:40Z</time>
      </trkpt>
      <trkpt lat="48.57785" lon="-3.81667">
        <ele>64.1</ele>
        <time>2020-06-10T13:37:41Z</time>
      </trkpt>
      <trkpt lat="48.57785" lon="-3.81662">
        <ele>64.3</ele>
        <time>2020-06-10T13:37:42Z</time>
      </trkpt>
      <trkpt lat="48.57784" lon="-3.81655">
        <ele>64.5</ele>
        <time>2020-06-10T13:37:43Z</time>
      </trkpt>
      <trkpt lat="48.57784" lon="-3.81651">
        <ele>64.6</ele>
        <time>2020-06-10T13:37:44Z</time>
      </trkpt>
      <trkpt lat="48.57785" lon="-3.81645">
        <ele>64.8</ele>
        <time>2020-06-10T13:37:45Z</time>
      </trkpt>
      <trkpt lat="48.57784" lon="-3.8164">
        <ele>64.9</ele>
        <time>2020-06-10T13:37:46Z</time>
      </trkpt>
      <trkpt lat="48.57783" lon="-3.81636">
        <ele>65</ele>
        <time>2020-06-10T13:37:47Z</time>
      </trkpt>
      <trkpt lat="48.57783" lon="-3.8163">
        <ele>65.2</ele>
        <time>2020-06-10T13:37:48Z</time>
      </trkpt>
      <trkpt lat="48.57782" lon="-3.81628">
        <ele>65.2</ele>
        <time>2020-06-10T13:37:49Z</time>
      </trkpt>
      <trkpt lat="48.57781" lon="-3.81624">
        <ele>65.3</ele>
        <time>2020-06-10T13:37:50Z</time>
      </trkpt>
      <trkpt lat="48.57779" lon="-3.81619">
        <ele>65.5</ele>
        <time>2020-06-10T13:37:51Z</time>
      </trkpt>
      <trkpt lat="48.57778" lon="-3.81614">
        <ele>65.6</ele>
        <time>2020-06-10T13:37:52Z</time>
      </trkpt>
      <trkpt lat="48.57776" lon="-3.81609">
        <ele>65.7</ele>
        <time>2020-06-10T13:37:53Z</time>
      </trkpt>
      <trkpt lat="48.57775" lon="-3.81605">
        <ele>65.8</ele>
        <time>2020-06-10T13:37:54Z</time>
      </trkpt>
      <trkpt lat="48.57773" lon="-3.816">
        <ele>65.9</ele>
        <time>2020-06-10T13:37:55Z</time>
      </trkpt>
      <trkpt lat="48.57773" lon="-3.81599">
        <ele>66</ele>
        <time>2020-06-10T13:37:56Z</time>
      </trkpt>
      <trkpt lat="48.57771" lon="-3.81594">
        <ele>66.1</ele>
        <time>2020-06-10T13:37:57Z</time>
      </trkpt>
      <trkpt lat="48.57769" lon="-3.8159">
        <ele>66.2</ele>
        <time>2020-06-10T13:37:58Z</time>
      </trkpt>
      <trkpt lat="48.57768" lon="-3.81586">
        <ele>66.3</ele>
        <time>2020-06-10T13:37:59Z</time>
      </trkpt>
      <trkpt lat="48.57766" lon="-3.8158">
        <ele>66.4</ele>
        <time>2020-06-10T13:38:00Z</time>
      </trkpt>
      <trkpt lat="48.57765" lon="-3.81578">
        <ele>66.4</ele>
        <time>2020-06-10T13:38:01Z</time>
      </trkpt>
      <trkpt lat="48.57764" lon="-3.81574">
        <ele>66.5</ele>
        <time>2020-06-10T13:38:02Z</time>
      </trkpt>
      <trkpt lat="48.57762" lon="-3.81569">
        <ele>66.6</ele>
        <time>2020-06-10T13:38:03Z</time>
      </trkpt>
      <trkpt lat="48.57761" lon="-3.81567">
        <ele>66.6</ele>
        <time>2020-06-10T13:38:04Z</time>
      </trkpt>
      <trkpt lat="48.57759" lon="-3.81563">
        <ele>66.7</ele>
        <time>2020-06-10T13:38:05Z</time>
      </trkpt>
      <trkpt lat="48.57758" lon="-3.81558">
        <ele>66.8</ele>
        <time>2020-06-10T13:38:06Z</time>
      </trkpt>
      <trkpt lat="48.57757" lon="-3.81556">
        <ele>66.9</ele>
        <time>2020-06-10T13:38:07Z</time>
      </trkpt>
      <trkpt lat="48.57756" lon="-3.8155">
        <ele>67</ele>
        <time>2020-06-10T13:38:08Z</time>
      </trkpt>
      <trkpt lat="48.57755" lon="-3.81545">
        <ele>67</ele>
        <time>2020-06-10T13:38:09Z</time>
      </trkpt>
      <trkpt lat="48.57754" lon="-3.8154">
        <ele>67.1</ele>
        <time>2020-06-10T13:38:10Z</time>
      </trkpt>
      <trkpt lat="48.57752" lon="-3.81536">
        <ele>67.2</ele>
        <time>2020-06-10T13:38:11Z</time>
      </trkpt>
      <trkpt lat="48.57751" lon="-3.81532">
        <ele>67.3</ele>
        <time>2020-06-10T13:38:12Z</time>
      </trkpt>
      <trkpt lat="48.57749" lon="-3.81528">
        <ele>67.3</ele>
        <time>2020-06-10T13:38:13Z</time>
      </trkpt>
      <trkpt lat="48.57748" lon="-3.81523">
        <ele>67.4</ele>
        <time>2020-06-10T13:38:14Z</time>
      </trkpt>
      <trkpt lat="48.57747" lon="-3.81518">
        <ele>67.5</ele>
        <time>2020-06-10T13:38:15Z</time>
      </trkpt>
      <trkpt lat="48.57745" lon="-3.81514">
        <ele>67.5</ele>
        <time>2020-06-10T13:38:16Z</time>
      </trkpt>
      <trkpt lat="48.57744" lon="-3.81509">
        <ele>67.6</ele>
        <time>2020-06-10T13:38:17Z</time>
      </trkpt>
      <trkpt lat="48.57742" lon="-3.81505">
        <ele>67.6</ele>
        <time>2020-06-10T13:38:18Z</time>
      </trkpt>
      <trkpt lat="48.5774" lon="-3.815">
        <ele>67.7</ele>
        <time>2020-06-10T13:38:19Z</time>
      </trkpt>
      <trkpt lat="48.5774" lon="-3.81499">
        <ele>67.7</ele>
        <time>2020-06-10T13:38:20Z</time>
      </trkpt>
      <trkpt lat="48.57739" lon="-3.81494">
        <ele>67.8</ele>
        <time>2020-06-10T13:38:21Z</time>
      </trkpt>
      <trkpt lat="48.57737" lon="-3.8149">
        <ele>67.8</ele>
        <time>2020-06-10T13:38:22Z</time>
      </trkpt>
      <trkpt lat="48.57736" lon="-3.81486">
        <ele>67.9</ele>
        <time>2020-06-10T13:38:23Z</time>
      </trkpt>
      <trkpt lat="48.57736" lon="-3.81481">
        <ele>67.9</ele>
        <time>2020-06-10T13:38:24Z</time>
      </trkpt>
      <trkpt lat="48.57735" lon="-3.81479">
        <ele>67.9</ele>
        <time>2020-06-10T13:38:25Z</time>
      </trkpt>
      <trkpt lat="48.57735" lon="-3.81475">
        <ele>68</ele>
        <time>2020-06-10T13:38:26Z</time>
      </trkpt>
      <trkpt lat="48.57733" lon="-3.81469">
        <ele>68</ele>
        <time>2020-06-10T13:38:27Z</time>
      </trkpt>
      <trkpt lat="48.57732" lon="-3.81467">
        <ele>68</ele>
        <time>2020-06-10T13:38:28Z</time>
      </trkpt>
      <trkpt lat="48.5773" lon="-3.81463">
        <ele>68.1</ele>
        <time>2020-06-10T13:38:29Z</time>
      </trkpt>
      <trkpt lat="48.57729" lon="-3.81461">
        <ele>68.1</ele>
        <time>2020-06-10T13:38:30Z</time>
      </trkpt>
      <trkpt lat="48.57728" lon="-3.81455">
        <ele>68.1</ele>
        <time>2020-06-10T13:38:31Z</time>
      </trkpt>
      <trkpt lat="48.57728" lon="-3.81449">
        <ele>68.1</ele>
        <time>2020-06-10T13:38:32Z</time>
      </trkpt>
      <trkpt lat="48.57727" lon="-3.81443">
        <ele>68.1</ele>
        <time>2020-06-10T13:38:33Z</time>
      </trkpt>
      <trkpt lat="48.57726" lon="-3.81437">
        <ele>68.1</ele>
        <time>2020-06-10T13:38:34Z</time>
      </trkpt>
      <trkpt lat="48.57726" lon="-3.81432">
        <ele>68.1</ele>
        <time>2020-06-10T13:38:35Z</time>
      </trkpt>
      <trkpt lat="48.57725" lon="-3.81428">
        <ele>68.1</ele>
        <time>2020-06-10T13:38:36Z</time>
      </trkpt>
      <trkpt lat="48.57725" lon="-3.81424">
        <ele>68.1</ele>
        <time>2020-06-10T13:38:37Z</time>
      </trkpt>
      <trkpt lat="48.57724" lon="-3.81418">
        <ele>68.1</ele>
        <time>2020-06-10T13:38:38Z</time>
      </trkpt>
      <trkpt lat="48.57724" lon="-3.81416">
        <ele>68.1</ele>
        <time>2020-06-10T13:38:39Z</time>
      </trkpt>
      <trkpt lat="48.57722" lon="-3.81412">
        <ele>68.1</ele>
        <time>2020-06-10T13:38:40Z</time>
      </trkpt>
      <trkpt lat="48.57721" lon="-3.81406">
        <ele>68.1</ele>
        <time>2020-06-10T13:38:41Z</time>
      </trkpt>
      <trkpt lat="48.5772" lon="-3.81404">
        <ele>68.1</ele>
        <time>2020-06-10T13:38:42Z</time>
      </trkpt>
      <trkpt lat="48.57718" lon="-3.81398">
        <ele>68.1</ele>
        <time>2020-06-10T13:38:43Z</time>
      </trkpt>
      <trkpt lat="48.57718" lon="-3.81395">
        <ele>68.1</ele>
        <time>2020-06-10T13:38:44Z</time>
      </trkpt>
      <trkpt lat="48.57717" lon="-3.81391">
        <ele>68.1</ele>
        <time>2020-06-10T13:38:45Z</time>
      </trkpt>
      <trkpt lat="48.57716" lon="-3.81386">
        <ele>68</ele>
        <time>2020-06-10T13:38:46Z</time>
      </trkpt>
      <trkpt lat="48.57715" lon="-3.81381">
        <ele>68</ele>
        <time>2020-06-10T13:38:47Z</time>
      </trkpt>
      <trkpt lat="48.57715" lon="-3.81375">
        <ele>67.9</ele>
        <time>2020-06-10T13:38:48Z</time>
      </trkpt>
      <trkpt lat="48.57714" lon="-3.81371">
        <ele>67.9</ele>
        <time>2020-06-10T13:38:49Z</time>
      </trkpt>
      <trkpt lat="48.57714" lon="-3.81365">
        <ele>67.9</ele>
        <time>2020-06-10T13:38:50Z</time>
      </trkpt>
      <trkpt lat="48.57715" lon="-3.81364">
        <ele>67.8</ele>
        <time>2020-06-10T13:38:51Z</time>
      </trkpt>
      <trkpt lat="48.57715" lon="-3.81359">
        <ele>67.8</ele>
        <time>2020-06-10T13:38:52Z</time>
      </trkpt>
      <trkpt lat="48.57715" lon="-3.81357">
        <ele>67.8</ele>
        <time>2020-06-10T13:38:53Z</time>
      </trkpt>
      <trkpt lat="48.57714" lon="-3.81356">
        <ele>67.8</ele>
        <time>2020-06-10T13:38:54Z</time>
      </trkpt>
      <trkpt lat="48.57714" lon="-3.81354">
        <ele>67.7</ele>
        <time>2020-06-10T13:38:55Z</time>
      </trkpt>
      <trkpt lat="48.57714" lon="-3.81355">
        <ele>67.7</ele>
        <time>2020-06-10T13:38:56Z</time>
      </trkpt>
      <trkpt lat="48.57715" lon="-3.81354">
        <ele>67.7</ele>
        <time>2020-06-10T13:38:57Z</time>
      </trkpt>
      <trkpt lat="48.57715" lon="-3.81355">
        <ele>67.7</ele>
        <time>2020-06-10T13:38:58Z</time>
      </trkpt>
      <trkpt lat="48.57715" lon="-3.81355">
        <ele>67.7</ele>
        <time>2020-06-10T13:38:59Z</time>
      </trkpt>
      <trkpt lat="48.57715" lon="-3.81355">
        <ele>67.7</ele>
        <time>2020-06-10T13:39:00Z</time>
      </trkpt>
      <trkpt lat="48.57715" lon="-3.81355">
        <ele>67.7</ele>
        <time>2020-06-10T13:39:01Z</time>
      </trkpt>
      <trkpt lat="48.57715" lon="-3.81355">
        <ele>67.7</ele>
        <time>2020-06-10T13:39:02Z</time>
      </trkpt>
      <trkpt lat="48.57715" lon="-3.81355">
        <ele>67.7</ele>
        <time>2020-06-10T13:39:03Z</time>
      </trkpt>
      <trkpt lat="48.57715" lon="-3.81355">
        <ele>67.7</ele>
        <time>2020-06-10T13:39:04Z</time>
      </trkpt>
      <trkpt lat="48.57715" lon="-3.81355">
        <ele>67.7</ele>
        <time>2020-06-10T13:39:05Z</time>
      </trkpt>
      <trkpt lat="48.57715" lon="-3.81349">
        <ele>67.6</ele>
        <time>2020-06-10T13:39:12Z</time>
      </trkpt>
      <trkpt lat="48.57715" lon="-3.81345">
        <ele>67.6</ele>
        <time>2020-06-10T13:39:13Z</time>
      </trkpt>
      <trkpt lat="48.57715" lon="-3.81341">
        <ele>67.5</ele>
        <time>2020-06-10T13:39:14Z</time>
      </trkpt>
      <trkpt lat="48.57715" lon="-3.81339">
        <ele>67.5</ele>
        <time>2020-06-10T13:39:15Z</time>
      </trkpt>
      <trkpt lat="48.57715" lon="-3.81334">
        <ele>67.4</ele>
        <time>2020-06-10T13:39:16Z</time>
      </trkpt>
      <trkpt lat="48.57715" lon="-3.81333">
        <ele>67.4</ele>
        <time>2020-06-10T13:39:17Z</time>
      </trkpt>
      <trkpt lat="48.57714" lon="-3.81327">
        <ele>67.3</ele>
        <time>2020-06-10T13:39:18Z</time>
      </trkpt>
      <trkpt lat="48.57714" lon="-3.81325">
        <ele>67.2</ele>
        <time>2020-06-10T13:39:19Z</time>
      </trkpt>
      <trkpt lat="48.57714" lon="-3.81321">
        <ele>67.1</ele>
        <time>2020-06-10T13:39:20Z</time>
      </trkpt>
      <trkpt lat="48.57714" lon="-3.81316">
        <ele>67</ele>
        <time>2020-06-10T13:39:21Z</time>
      </trkpt>
      <trkpt lat="48.57714" lon="-3.81311">
        <ele>66.8</ele>
        <time>2020-06-10T13:39:22Z</time>
      </trkpt>
      <trkpt lat="48.57714" lon="-3.8131">
        <ele>66.8</ele>
        <time>2020-06-10T13:39:23Z</time>
      </trkpt>
      <trkpt lat="48.57715" lon="-3.81304">
        <ele>66.6</ele>
        <time>2020-06-10T13:39:24Z</time>
      </trkpt>
      <trkpt lat="48.57715" lon="-3.81302">
        <ele>66.5</ele>
        <time>2020-06-10T13:39:25Z</time>
      </trkpt>
      <trkpt lat="48.57715" lon="-3.81297">
        <ele>66.2</ele>
        <time>2020-06-10T13:39:26Z</time>
      </trkpt>
      <trkpt lat="48.57715" lon="-3.81295">
        <ele>66.2</ele>
        <time>2020-06-10T13:39:27Z</time>
      </trkpt>
      <trkpt lat="48.57714" lon="-3.8129">
        <ele>65.9</ele>
        <time>2020-06-10T13:39:28Z</time>
      </trkpt>
      <trkpt lat="48.57714" lon="-3.81289">
        <ele>65.9</ele>
        <time>2020-06-10T13:39:29Z</time>
      </trkpt>
      <trkpt lat="48.57715" lon="-3.81284">
        <ele>65.6</ele>
        <time>2020-06-10T13:39:30Z</time>
      </trkpt>
      <trkpt lat="48.57715" lon="-3.81282">
        <ele>65.5</ele>
        <time>2020-06-10T13:39:31Z</time>
      </trkpt>
      <trkpt lat="48.57716" lon="-3.81277">
        <ele>65.3</ele>
        <time>2020-06-10T13:39:32Z</time>
      </trkpt>
      <trkpt lat="48.57716" lon="-3.81276">
        <ele>65.2</ele>
        <time>2020-06-10T13:39:33Z</time>
      </trkpt>
      <trkpt lat="48.57717" lon="-3.81272">
        <ele>65</ele>
        <time>2020-06-10T13:39:34Z</time>
      </trkpt>
      <trkpt lat="48.57717" lon="-3.8127">
        <ele>64.9</ele>
        <time>2020-06-10T13:39:35Z</time>
      </trkpt>
      <trkpt lat="48.57718" lon="-3.81267">
        <ele>64.7</ele>
        <time>2020-06-10T13:39:36Z</time>
      </trkpt>
      <trkpt lat="48.57718" lon="-3.81265">
        <ele>64.6</ele>
        <time>2020-06-10T13:39:37Z</time>
      </trkpt>
      <trkpt lat="48.57718" lon="-3.81261">
        <ele>64.4</ele>
        <time>2020-06-10T13:39:38Z</time>
      </trkpt>
      <trkpt lat="48.57719" lon="-3.81259">
        <ele>64.3</ele>
        <time>2020-06-10T13:39:39Z</time>
      </trkpt>
      <trkpt lat="48.57718" lon="-3.81254">
        <ele>64</ele>
        <time>2020-06-10T13:39:40Z</time>
      </trkpt>
      <trkpt lat="48.57718" lon="-3.81248">
        <ele>63.7</ele>
        <time>2020-06-10T13:39:41Z</time>
      </trkpt>
      <trkpt lat="48.57718" lon="-3.81246">
        <ele>63.5</ele>
        <time>2020-06-10T13:39:42Z</time>
      </trkpt>
      <trkpt lat="48.57719" lon="-3.81242">
        <ele>63.3</ele>
        <time>2020-06-10T13:39:43Z</time>
      </trkpt>
      <trkpt lat="48.57719" lon="-3.81237">
        <ele>63</ele>
        <time>2020-06-10T13:39:44Z</time>
      </trkpt>
      <trkpt lat="48.57719" lon="-3.81231">
        <ele>62.7</ele>
        <time>2020-06-10T13:39:45Z</time>
      </trkpt>
      <trkpt lat="48.57719" lon="-3.81229">
        <ele>62.6</ele>
        <time>2020-06-10T13:39:46Z</time>
      </trkpt>
      <trkpt lat="48.5772" lon="-3.81224">
        <ele>62.3</ele>
        <time>2020-06-10T13:39:47Z</time>
      </trkpt>
      <trkpt lat="48.57719" lon="-3.8122">
        <ele>62</ele>
        <time>2020-06-10T13:39:48Z</time>
      </trkpt>
      <trkpt lat="48.57719" lon="-3.81215">
        <ele>61.6</ele>
        <time>2020-06-10T13:39:49Z</time>
      </trkpt>
      <trkpt lat="48.57717" lon="-3.81205">
        <ele>61</ele>
        <time>2020-06-10T13:39:50Z</time>
      </trkpt>
      <trkpt lat="48.57715" lon="-3.81197">
        <ele>60.4</ele>
        <time>2020-06-10T13:39:51Z</time>
      </trkpt>
      <trkpt lat="48.57713" lon="-3.81193">
        <ele>60</ele>
        <time>2020-06-10T13:39:52Z</time>
      </trkpt>
      <trkpt lat="48.57712" lon="-3.81188">
        <ele>59.7</ele>
        <time>2020-06-10T13:39:53Z</time>
      </trkpt>
      <trkpt lat="48.57711" lon="-3.81186">
        <ele>59.6</ele>
        <time>2020-06-10T13:39:54Z</time>
      </trkpt>
      <trkpt lat="48.57711" lon="-3.8118">
        <ele>59.2</ele>
        <time>2020-06-10T13:39:55Z</time>
      </trkpt>
      <trkpt lat="48.57711" lon="-3.81178">
        <ele>59</ele>
        <time>2020-06-10T13:39:56Z</time>
      </trkpt>
      <trkpt lat="48.57709" lon="-3.81173">
        <ele>58.7</ele>
        <time>2020-06-10T13:39:57Z</time>
      </trkpt>
      <trkpt lat="48.57709" lon="-3.81171">
        <ele>58.6</ele>
        <time>2020-06-10T13:39:58Z</time>
      </trkpt>
      <trkpt lat="48.57708" lon="-3.81166">
        <ele>58.2</ele>
        <time>2020-06-10T13:39:59Z</time>
      </trkpt>
      <trkpt lat="48.57708" lon="-3.81163">
        <ele>58</ele>
        <time>2020-06-10T13:40:00Z</time>
      </trkpt>
      <trkpt lat="48.57707" lon="-3.81158">
        <ele>57.6</ele>
        <time>2020-06-10T13:40:01Z</time>
      </trkpt>
      <trkpt lat="48.57707" lon="-3.81156">
        <ele>57.5</ele>
        <time>2020-06-10T13:40:02Z</time>
      </trkpt>
      <trkpt lat="48.57705" lon="-3.81151">
        <ele>57.2</ele>
        <time>2020-06-10T13:40:03Z</time>
      </trkpt>
      <trkpt lat="48.57705" lon="-3.81149">
        <ele>57.1</ele>
        <time>2020-06-10T13:40:04Z</time>
      </trkpt>
      <trkpt lat="48.57703" lon="-3.81146">
        <ele>56.8</ele>
        <time>2020-06-10T13:40:05Z</time>
      </trkpt>
      <trkpt lat="48.57703" lon="-3.81145">
        <ele>56.7</ele>
        <time>2020-06-10T13:40:06Z</time>
      </trkpt>
      <trkpt lat="48.57703" lon="-3.8114">
        <ele>56.5</ele>
        <time>2020-06-10T13:40:07Z</time>
      </trkpt>
      <trkpt lat="48.57703" lon="-3.81139">
        <ele>56.4</ele>
        <time>2020-06-10T13:40:08Z</time>
      </trkpt>
      <trkpt lat="48.57703" lon="-3.81138">
        <ele>56.3</ele>
        <time>2020-06-10T13:40:09Z</time>
      </trkpt>
      <trkpt lat="48.57703" lon="-3.81135">
        <ele>56.1</ele>
        <time>2020-06-10T13:40:10Z</time>
      </trkpt>
      <trkpt lat="48.57704" lon="-3.81132">
        <ele>56</ele>
        <time>2020-06-10T13:40:11Z</time>
      </trkpt>
      <trkpt lat="48.57705" lon="-3.8113">
        <ele>55.8</ele>
        <time>2020-06-10T13:40:12Z</time>
      </trkpt>
      <trkpt lat="48.57708" lon="-3.81127">
        <ele>55.5</ele>
        <time>2020-06-10T13:40:13Z</time>
      </trkpt>
      <trkpt lat="48.57709" lon="-3.81125">
        <ele>55.3</ele>
        <time>2020-06-10T13:40:14Z</time>
      </trkpt>
      <trkpt lat="48.57713" lon="-3.81117">
        <ele>54.8</ele>
        <time>2020-06-10T13:40:15Z</time>
      </trkpt>
      <trkpt lat="48.57716" lon="-3.81107">
        <ele>55.2</ele>
        <time>2020-06-10T13:40:16Z</time>
      </trkpt>
      <trkpt lat="48.57719" lon="-3.811">
        <ele>55.3</ele>
        <time>2020-06-10T13:40:17Z</time>
      </trkpt>
      <trkpt lat="48.57723" lon="-3.81094">
        <ele>55.6</ele>
        <time>2020-06-10T13:40:18Z</time>
      </trkpt>
      <trkpt lat="48.57725" lon="-3.81087">
        <ele>55.8</ele>
        <time>2020-06-10T13:40:19Z</time>
      </trkpt>
      <trkpt lat="48.57728" lon="-3.81083">
        <ele>56</ele>
        <time>2020-06-10T13:40:20Z</time>
      </trkpt>
      <trkpt lat="48.57731" lon="-3.81077">
        <ele>56.2</ele>
        <time>2020-06-10T13:40:21Z</time>
      </trkpt>
      <trkpt lat="48.57733" lon="-3.81074">
        <ele>56.3</ele>
        <time>2020-06-10T13:40:22Z</time>
      </trkpt>
      <trkpt lat="48.57735" lon="-3.8107">
        <ele>56.5</ele>
        <time>2020-06-10T13:40:23Z</time>
      </trkpt>
      <trkpt lat="48.57736" lon="-3.81068">
        <ele>56.5</ele>
        <time>2020-06-10T13:40:24Z</time>
      </trkpt>
      <trkpt lat="48.57738" lon="-3.81066">
        <ele>56.7</ele>
        <time>2020-06-10T13:40:25Z</time>
      </trkpt>
      <trkpt lat="48.5774" lon="-3.81063">
        <ele>56.8</ele>
        <time>2020-06-10T13:40:26Z</time>
      </trkpt>
      <trkpt lat="48.57743" lon="-3.81059">
        <ele>57</ele>
        <time>2020-06-10T13:40:27Z</time>
      </trkpt>
      <trkpt lat="48.57744" lon="-3.81058">
        <ele>57</ele>
        <time>2020-06-10T13:40:28Z</time>
      </trkpt>
      <trkpt lat="48.57745" lon="-3.81057">
        <ele>57.1</ele>
        <time>2020-06-10T13:40:29Z</time>
      </trkpt>
      <trkpt lat="48.57747" lon="-3.81055">
        <ele>57.1</ele>
        <time>2020-06-10T13:40:30Z</time>
      </trkpt>
      <trkpt lat="48.57748" lon="-3.81053">
        <ele>57.2</ele>
        <time>2020-06-10T13:40:31Z</time>
      </trkpt>
      <trkpt lat="48.57749" lon="-3.81052">
        <ele>57.3</ele>
        <time>2020-06-10T13:40:32Z</time>
      </trkpt>
      <trkpt lat="48.57752" lon="-3.81047">
        <ele>57.6</ele>
        <time>2020-06-10T13:40:33Z</time>
      </trkpt>
      <trkpt lat="48.57753" lon="-3.81046">
        <ele>57.7</ele>
        <time>2020-06-10T13:40:34Z</time>
      </trkpt>
      <trkpt lat="48.57756" lon="-3.81041">
        <ele>57.9</ele>
        <time>2020-06-10T13:40:35Z</time>
      </trkpt>
      <trkpt lat="48.57759" lon="-3.81037">
        <ele>58.1</ele>
        <time>2020-06-10T13:40:36Z</time>
      </trkpt>
      <trkpt lat="48.57759" lon="-3.81036">
        <ele>58.1</ele>
        <time>2020-06-10T13:40:37Z</time>
      </trkpt>
      <trkpt lat="48.57761" lon="-3.81032">
        <ele>58.3</ele>
        <time>2020-06-10T13:40:38Z</time>
      </trkpt>
      <trkpt lat="48.57762" lon="-3.81031">
        <ele>58.4</ele>
        <time>2020-06-10T13:40:39Z</time>
      </trkpt>
      <trkpt lat="48.57764" lon="-3.81027">
        <ele>58.5</ele>
        <time>2020-06-10T13:40:40Z</time>
      </trkpt>
      <trkpt lat="48.57765" lon="-3.81027">
        <ele>58.6</ele>
        <time>2020-06-10T13:40:41Z</time>
      </trkpt>
      <trkpt lat="48.57766" lon="-3.81026">
        <ele>58.6</ele>
        <time>2020-06-10T13:40:42Z</time>
      </trkpt>
      <trkpt lat="48.57766" lon="-3.81025">
        <ele>58.7</ele>
        <time>2020-06-10T13:40:43Z</time>
      </trkpt>
      <trkpt lat="48.57766" lon="-3.81025">
        <ele>58.7</ele>
        <time>2020-06-10T13:40:44Z</time>
      </trkpt>
      <trkpt lat="48.57766" lon="-3.81025">
        <ele>58.7</ele>
        <time>2020-06-10T13:40:45Z</time>
      </trkpt>
      <trkpt lat="48.57766" lon="-3.81025">
        <ele>58.7</ele>
        <time>2020-06-10T13:40:46Z</time>
      </trkpt>
      <trkpt lat="48.57766" lon="-3.81026">
        <ele>58.7</ele>
        <time>2020-06-10T13:40:47Z</time>
      </trkpt>
      <trkpt lat="48.57765" lon="-3.81027">
        <ele>58.8</ele>
        <time>2020-06-10T13:40:48Z</time>
      </trkpt>
      <trkpt lat="48.57765" lon="-3.81029">
        <ele>58.8</ele>
        <time>2020-06-10T13:40:49Z</time>
      </trkpt>
      <trkpt lat="48.57765" lon="-3.81031">
        <ele>58.9</ele>
        <time>2020-06-10T13:40:50Z</time>
      </trkpt>
      <trkpt lat="48.57767" lon="-3.81035">
        <ele>59</ele>
        <time>2020-06-10T13:40:51Z</time>
      </trkpt>
      <trkpt lat="48.57766" lon="-3.81041">
        <ele>59.2</ele>
        <time>2020-06-10T13:40:52Z</time>
      </trkpt>
      <trkpt lat="48.57766" lon="-3.81044">
        <ele>59.3</ele>
        <time>2020-06-10T13:40:53Z</time>
      </trkpt>
      <trkpt lat="48.57766" lon="-3.81051">
        <ele>59.5</ele>
        <time>2020-06-10T13:40:54Z</time>
      </trkpt>
      <trkpt lat="48.57767" lon="-3.81056">
        <ele>59.7</ele>
        <time>2020-06-10T13:40:55Z</time>
      </trkpt>
      <trkpt lat="48.57768" lon="-3.81061">
        <ele>59.9</ele>
        <time>2020-06-10T13:40:56Z</time>
      </trkpt>
      <trkpt lat="48.5777" lon="-3.81066">
        <ele>60.1</ele>
        <time>2020-06-10T13:40:57Z</time>
      </trkpt>
      <trkpt lat="48.57771" lon="-3.81071">
        <ele>60.2</ele>
        <time>2020-06-10T13:40:58Z</time>
      </trkpt>
      <trkpt lat="48.57773" lon="-3.81074">
        <ele>60.4</ele>
        <time>2020-06-10T13:40:59Z</time>
      </trkpt>
      <trkpt lat="48.57775" lon="-3.81077">
        <ele>60.5</ele>
        <time>2020-06-10T13:41:00Z</time>
      </trkpt>
      <trkpt lat="48.57778" lon="-3.81081">
        <ele>60.7</ele>
        <time>2020-06-10T13:41:01Z</time>
      </trkpt>
      <trkpt lat="48.57779" lon="-3.81083">
        <ele>60.8</ele>
        <time>2020-06-10T13:41:02Z</time>
      </trkpt>
      <trkpt lat="48.57781" lon="-3.81084">
        <ele>60.9</ele>
        <time>2020-06-10T13:41:03Z</time>
      </trkpt>
      <trkpt lat="48.57782" lon="-3.81085">
        <ele>61</ele>
        <time>2020-06-10T13:41:04Z</time>
      </trkpt>
      <trkpt lat="48.57786" lon="-3.81086">
        <ele>61.1</ele>
        <time>2020-06-10T13:41:05Z</time>
      </trkpt>
      <trkpt lat="48.57787" lon="-3.81087">
        <ele>61.2</ele>
        <time>2020-06-10T13:41:06Z</time>
      </trkpt>
      <trkpt lat="48.5779" lon="-3.81087">
        <ele>61.3</ele>
        <time>2020-06-10T13:41:07Z</time>
      </trkpt>
      <trkpt lat="48.5779" lon="-3.81087">
        <ele>61.4</ele>
        <time>2020-06-10T13:41:08Z</time>
      </trkpt>
      <trkpt lat="48.57794" lon="-3.81089">
        <ele>61.6</ele>
        <time>2020-06-10T13:41:09Z</time>
      </trkpt>
      <trkpt lat="48.57795" lon="-3.8109">
        <ele>61.6</ele>
        <time>2020-06-10T13:41:10Z</time>
      </trkpt>
      <trkpt lat="48.57798" lon="-3.81092">
        <ele>61.8</ele>
        <time>2020-06-10T13:41:11Z</time>
      </trkpt>
      <trkpt lat="48.578" lon="-3.81093">
        <ele>61.9</ele>
        <time>2020-06-10T13:41:12Z</time>
      </trkpt>
      <trkpt lat="48.57803" lon="-3.81094">
        <ele>62</ele>
        <time>2020-06-10T13:41:13Z</time>
      </trkpt>
      <trkpt lat="48.57806" lon="-3.81096">
        <ele>62.2</ele>
        <time>2020-06-10T13:41:14Z</time>
      </trkpt>
      <trkpt lat="48.57807" lon="-3.81096">
        <ele>62.3</ele>
        <time>2020-06-10T13:41:15Z</time>
      </trkpt>
      <trkpt lat="48.5781" lon="-3.81097">
        <ele>62.4</ele>
        <time>2020-06-10T13:41:16Z</time>
      </trkpt>
      <trkpt lat="48.57813" lon="-3.81099">
        <ele>62.6</ele>
        <time>2020-06-10T13:41:17Z</time>
      </trkpt>
      <trkpt lat="48.57814" lon="-3.81099">
        <ele>62.6</ele>
        <time>2020-06-10T13:41:18Z</time>
      </trkpt>
      <trkpt lat="48.57817" lon="-3.811">
        <ele>62.8</ele>
        <time>2020-06-10T13:41:19Z</time>
      </trkpt>
      <trkpt lat="48.57818" lon="-3.811">
        <ele>62.8</ele>
        <time>2020-06-10T13:41:20Z</time>
      </trkpt>
      <trkpt lat="48.57819" lon="-3.811">
        <ele>62.9</ele>
        <time>2020-06-10T13:41:21Z</time>
      </trkpt>
      <trkpt lat="48.57821" lon="-3.81101">
        <ele>63</ele>
        <time>2020-06-10T13:41:22Z</time>
      </trkpt>
      <trkpt lat="48.57824" lon="-3.81103">
        <ele>63.2</ele>
        <time>2020-06-10T13:41:23Z</time>
      </trkpt>
      <trkpt lat="48.57825" lon="-3.81104">
        <ele>63.2</ele>
        <time>2020-06-10T13:41:24Z</time>
      </trkpt>
      <trkpt lat="48.57828" lon="-3.81105">
        <ele>63.4</ele>
        <time>2020-06-10T13:41:25Z</time>
      </trkpt>
      <trkpt lat="48.57829" lon="-3.81105">
        <ele>63.4</ele>
        <time>2020-06-10T13:41:26Z</time>
      </trkpt>
      <trkpt lat="48.57832" lon="-3.81106">
        <ele>63.5</ele>
        <time>2020-06-10T13:41:27Z</time>
      </trkpt>
      <trkpt lat="48.57833" lon="-3.81107">
        <ele>63.6</ele>
        <time>2020-06-10T13:41:28Z</time>
      </trkpt>
      <trkpt lat="48.57834" lon="-3.81109">
        <ele>63.7</ele>
        <time>2020-06-10T13:41:29Z</time>
      </trkpt>
      <trkpt lat="48.57835" lon="-3.8111">
        <ele>63.7</ele>
        <time>2020-06-10T13:41:30Z</time>
      </trkpt>
      <trkpt lat="48.57835" lon="-3.81111">
        <ele>63.8</ele>
        <time>2020-06-10T13:41:31Z</time>
      </trkpt>
      <trkpt lat="48.57834" lon="-3.81111">
        <ele>63.8</ele>
        <time>2020-06-10T13:41:32Z</time>
      </trkpt>
      <trkpt lat="48.57833" lon="-3.8111">
        <ele>63.9</ele>
        <time>2020-06-10T13:41:33Z</time>
      </trkpt>
      <trkpt lat="48.57832" lon="-3.8111">
        <ele>63.9</ele>
        <time>2020-06-10T13:41:34Z</time>
      </trkpt>
      <trkpt lat="48.57831" lon="-3.81109">
        <ele>64</ele>
        <time>2020-06-10T13:41:35Z</time>
      </trkpt>
      <trkpt lat="48.5783" lon="-3.81109">
        <ele>64</ele>
        <time>2020-06-10T13:41:36Z</time>
      </trkpt>
      <trkpt lat="48.57829" lon="-3.81108">
        <ele>64.1</ele>
        <time>2020-06-10T13:41:37Z</time>
      </trkpt>
      <trkpt lat="48.57828" lon="-3.81108">
        <ele>64.1</ele>
        <time>2020-06-10T13:41:38Z</time>
      </trkpt>
      <trkpt lat="48.57828" lon="-3.81107">
        <ele>64.2</ele>
        <time>2020-06-10T13:41:39Z</time>
      </trkpt>
      <trkpt lat="48.57827" lon="-3.81107">
        <ele>64.2</ele>
        <time>2020-06-10T13:41:40Z</time>
      </trkpt>
      <trkpt lat="48.57826" lon="-3.81106">
        <ele>64.3</ele>
        <time>2020-06-10T13:41:41Z</time>
      </trkpt>
      <trkpt lat="48.57825" lon="-3.81106">
        <ele>64.3</ele>
        <time>2020-06-10T13:42:46Z</time>
      </trkpt>
      <trkpt lat="48.57824" lon="-3.81105">
        <ele>64.3</ele>
        <time>2020-06-10T13:42:47Z</time>
      </trkpt>
      <trkpt lat="48.5782" lon="-3.81103">
        <ele>64</ele>
        <time>2020-06-10T13:42:48Z</time>
      </trkpt>
      <trkpt lat="48.57816" lon="-3.81101">
        <ele>63.7</ele>
        <time>2020-06-10T13:42:49Z</time>
      </trkpt>
      <trkpt lat="48.57812" lon="-3.81099">
        <ele>63.3</ele>
        <time>2020-06-10T13:42:50Z</time>
      </trkpt>
      <trkpt lat="48.57808" lon="-3.81096">
        <ele>62.9</ele>
        <time>2020-06-10T13:42:51Z</time>
      </trkpt>
      <trkpt lat="48.57804" lon="-3.81094">
        <ele>62.6</ele>
        <time>2020-06-10T13:42:52Z</time>
      </trkpt>
      <trkpt lat="48.57801" lon="-3.81091">
        <ele>62.3</ele>
        <time>2020-06-10T13:42:53Z</time>
      </trkpt>
      <trkpt lat="48.57796" lon="-3.81088">
        <ele>61.8</ele>
        <time>2020-06-10T13:42:54Z</time>
      </trkpt>
      <trkpt lat="48.57791" lon="-3.81086">
        <ele>61.4</ele>
        <time>2020-06-10T13:42:55Z</time>
      </trkpt>
      <trkpt lat="48.57787" lon="-3.81084">
        <ele>61</ele>
        <time>2020-06-10T13:42:56Z</time>
      </trkpt>
      <trkpt lat="48.57783" lon="-3.81082">
        <ele>60.6</ele>
        <time>2020-06-10T13:42:57Z</time>
      </trkpt>
      <trkpt lat="48.57778" lon="-3.81079">
        <ele>60.2</ele>
        <time>2020-06-10T13:42:58Z</time>
      </trkpt>
      <trkpt lat="48.57774" lon="-3.81076">
        <ele>59.8</ele>
        <time>2020-06-10T13:42:59Z</time>
      </trkpt>
      <trkpt lat="48.57771" lon="-3.81072">
        <ele>59.5</ele>
        <time>2020-06-10T13:43:00Z</time>
      </trkpt>
      <trkpt lat="48.57768" lon="-3.81067">
        <ele>59.1</ele>
        <time>2020-06-10T13:43:01Z</time>
      </trkpt>
      <trkpt lat="48.57766" lon="-3.81063">
        <ele>58.8</ele>
        <time>2020-06-10T13:43:02Z</time>
      </trkpt>
      <trkpt lat="48.57764" lon="-3.81058">
        <ele>58.5</ele>
        <time>2020-06-10T13:43:03Z</time>
      </trkpt>
      <trkpt lat="48.57764" lon="-3.81056">
        <ele>58.4</ele>
        <time>2020-06-10T13:43:04Z</time>
      </trkpt>
      <trkpt lat="48.57762" lon="-3.81054">
        <ele>58.2</ele>
        <time>2020-06-10T13:43:05Z</time>
      </trkpt>
      <trkpt lat="48.57762" lon="-3.81051">
        <ele>58.1</ele>
        <time>2020-06-10T13:43:06Z</time>
      </trkpt>
      <trkpt lat="48.57762" lon="-3.81049">
        <ele>58</ele>
        <time>2020-06-10T13:43:07Z</time>
      </trkpt>
      <trkpt lat="48.57762" lon="-3.81049">
        <ele>58</ele>
        <time>2020-06-10T13:43:08Z</time>
      </trkpt>
      <trkpt lat="48.57761" lon="-3.81048">
        <ele>57.9</ele>
        <time>2020-06-10T13:43:09Z</time>
      </trkpt>
      <trkpt lat="48.57761" lon="-3.81047">
        <ele>57.8</ele>
        <time>2020-06-10T13:43:10Z</time>
      </trkpt>
      <trkpt lat="48.57762" lon="-3.81046">
        <ele>57.8</ele>
        <time>2020-06-10T13:43:11Z</time>
      </trkpt>
      <trkpt lat="48.57762" lon="-3.81045">
        <ele>57.8</ele>
        <time>2020-06-10T13:43:12Z</time>
      </trkpt>
      <trkpt lat="48.57762" lon="-3.81044">
        <ele>57.8</ele>
        <time>2020-06-10T13:43:13Z</time>
      </trkpt>
      <trkpt lat="48.57762" lon="-3.81043">
        <ele>57.8</ele>
        <time>2020-06-10T13:43:14Z</time>
      </trkpt>
      <trkpt lat="48.57762" lon="-3.81043">
        <ele>57.9</ele>
        <time>2020-06-10T13:43:15Z</time>
      </trkpt>
      <trkpt lat="48.57762" lon="-3.81042">
        <ele>57.9</ele>
        <time>2020-06-10T13:43:16Z</time>
      </trkpt>
      <trkpt lat="48.57762" lon="-3.81041">
        <ele>57.9</ele>
        <time>2020-06-10T13:43:17Z</time>
      </trkpt>
      <trkpt lat="48.57762" lon="-3.8104">
        <ele>58</ele>
        <time>2020-06-10T13:43:18Z</time>
      </trkpt>
      <trkpt lat="48.57762" lon="-3.81039">
        <ele>58</ele>
        <time>2020-06-10T13:43:19Z</time>
      </trkpt>
      <trkpt lat="48.57762" lon="-3.81039">
        <ele>58</ele>
        <time>2020-06-10T13:43:20Z</time>
      </trkpt>
      <trkpt lat="48.57762" lon="-3.81038">
        <ele>58.1</ele>
        <time>2020-06-10T13:43:28Z</time>
      </trkpt>
      <trkpt lat="48.57762" lon="-3.81037">
        <ele>58.1</ele>
        <time>2020-06-10T13:43:29Z</time>
      </trkpt>
      <trkpt lat="48.57764" lon="-3.81034">
        <ele>58.2</ele>
        <time>2020-06-10T13:43:30Z</time>
      </trkpt>
      <trkpt lat="48.57766" lon="-3.81031">
        <ele>58.4</ele>
        <time>2020-06-10T13:43:31Z</time>
      </trkpt>
      <trkpt lat="48.57768" lon="-3.81027">
        <ele>58.6</ele>
        <time>2020-06-10T13:43:32Z</time>
      </trkpt>
      <trkpt lat="48.5777" lon="-3.81022">
        <ele>58.8</ele>
        <time>2020-06-10T13:43:33Z</time>
      </trkpt>
      <trkpt lat="48.57772" lon="-3.81017">
        <ele>59</ele>
        <time>2020-06-10T13:43:34Z</time>
      </trkpt>
      <trkpt lat="48.57774" lon="-3.81011">
        <ele>59.3</ele>
        <time>2020-06-10T13:43:35Z</time>
      </trkpt>
      <trkpt lat="48.57776" lon="-3.81007">
        <ele>59.5</ele>
        <time>2020-06-10T13:43:36Z</time>
      </trkpt>
      <trkpt lat="48.57779" lon="-3.81002">
        <ele>59.7</ele>
        <time>2020-06-10T13:43:37Z</time>
      </trkpt>
      <trkpt lat="48.57782" lon="-3.80998">
        <ele>59.9</ele>
        <time>2020-06-10T13:43:38Z</time>
      </trkpt>
      <trkpt lat="48.57784" lon="-3.80994">
        <ele>60.2</ele>
        <time>2020-06-10T13:43:39Z</time>
      </trkpt>
      <trkpt lat="48.57786" lon="-3.80991">
        <ele>60.3</ele>
        <time>2020-06-10T13:43:40Z</time>
      </trkpt>
      <trkpt lat="48.57789" lon="-3.80987">
        <ele>60.6</ele>
        <time>2020-06-10T13:43:41Z</time>
      </trkpt>
      <trkpt lat="48.5779" lon="-3.80985">
        <ele>60.7</ele>
        <time>2020-06-10T13:43:42Z</time>
      </trkpt>
      <trkpt lat="48.57791" lon="-3.80982">
        <ele>60.9</ele>
        <time>2020-06-10T13:43:43Z</time>
      </trkpt>
      <trkpt lat="48.57793" lon="-3.80977">
        <ele>61.1</ele>
        <time>2020-06-10T13:43:44Z</time>
      </trkpt>
      <trkpt lat="48.57794" lon="-3.80971">
        <ele>61.4</ele>
        <time>2020-06-10T13:43:45Z</time>
      </trkpt>
      <trkpt lat="48.57795" lon="-3.80966">
        <ele>61.6</ele>
        <time>2020-06-10T13:43:46Z</time>
      </trkpt>
      <trkpt lat="48.57797" lon="-3.80962">
        <ele>61.9</ele>
        <time>2020-06-10T13:43:47Z</time>
      </trkpt>
      <trkpt lat="48.57798" lon="-3.8096">
        <ele>62</ele>
        <time>2020-06-10T13:43:48Z</time>
      </trkpt>
      <trkpt lat="48.57799" lon="-3.80956">
        <ele>62.1</ele>
        <time>2020-06-10T13:43:49Z</time>
      </trkpt>
      <trkpt lat="48.578" lon="-3.80951">
        <ele>62.4</ele>
        <time>2020-06-10T13:43:50Z</time>
      </trkpt>
      <trkpt lat="48.578" lon="-3.80948">
        <ele>62.5</ele>
        <time>2020-06-10T13:43:51Z</time>
      </trkpt>
      <trkpt lat="48.578" lon="-3.80943">
        <ele>62.7</ele>
        <time>2020-06-10T13:43:52Z</time>
      </trkpt>
      <trkpt lat="48.578" lon="-3.80938">
        <ele>62.7</ele>
        <time>2020-06-10T13:43:53Z</time>
      </trkpt>
      <trkpt lat="48.578" lon="-3.80932">
        <ele>62.7</ele>
        <time>2020-06-10T13:43:54Z</time>
      </trkpt>
      <trkpt lat="48.578" lon="-3.80929">
        <ele>62.7</ele>
        <time>2020-06-10T13:43:55Z</time>
      </trkpt>
      <trkpt lat="48.578" lon="-3.80924">
        <ele>63</ele>
        <time>2020-06-10T13:43:56Z</time>
      </trkpt>
      <trkpt lat="48.57801" lon="-3.8092">
        <ele>63</ele>
        <time>2020-06-10T13:43:57Z</time>
      </trkpt>
      <trkpt lat="48.57803" lon="-3.80916">
        <ele>63.1</ele>
        <time>2020-06-10T13:43:58Z</time>
      </trkpt>
      <trkpt lat="48.57804" lon="-3.80911">
        <ele>63.1</ele>
        <time>2020-06-10T13:43:59Z</time>
      </trkpt>
      <trkpt lat="48.57803" lon="-3.80907">
        <ele>63.2</ele>
        <time>2020-06-10T13:44:00Z</time>
      </trkpt>
      <trkpt lat="48.57803" lon="-3.80901">
        <ele>63.2</ele>
        <time>2020-06-10T13:44:01Z</time>
      </trkpt>
      <trkpt lat="48.57803" lon="-3.80899">
        <ele>63.2</ele>
        <time>2020-06-10T13:44:02Z</time>
      </trkpt>
      <trkpt lat="48.57803" lon="-3.80895">
        <ele>63.3</ele>
        <time>2020-06-10T13:44:03Z</time>
      </trkpt>
      <trkpt lat="48.57802" lon="-3.8089">
        <ele>63.3</ele>
        <time>2020-06-10T13:44:04Z</time>
      </trkpt>
      <trkpt lat="48.57801" lon="-3.80885">
        <ele>63.5</ele>
        <time>2020-06-10T13:44:05Z</time>
      </trkpt>
      <trkpt lat="48.57801" lon="-3.8088">
        <ele>63.6</ele>
        <time>2020-06-10T13:44:06Z</time>
      </trkpt>
      <trkpt lat="48.578" lon="-3.80876">
        <ele>63.8</ele>
        <time>2020-06-10T13:44:07Z</time>
      </trkpt>
      <trkpt lat="48.57799" lon="-3.80871">
        <ele>63.9</ele>
        <time>2020-06-10T13:44:08Z</time>
      </trkpt>
      <trkpt lat="48.57799" lon="-3.80866">
        <ele>64</ele>
        <time>2020-06-10T13:44:09Z</time>
      </trkpt>
      <trkpt lat="48.57799" lon="-3.8086">
        <ele>64.2</ele>
        <time>2020-06-10T13:44:10Z</time>
      </trkpt>
      <trkpt lat="48.57799" lon="-3.80858">
        <ele>64.3</ele>
        <time>2020-06-10T13:44:11Z</time>
      </trkpt>
      <trkpt lat="48.578" lon="-3.80853">
        <ele>64.4</ele>
        <time>2020-06-10T13:44:12Z</time>
      </trkpt>
      <trkpt lat="48.57799" lon="-3.80849">
        <ele>64.6</ele>
        <time>2020-06-10T13:44:13Z</time>
      </trkpt>
      <trkpt lat="48.57798" lon="-3.80847">
        <ele>64.6</ele>
        <time>2020-06-10T13:44:14Z</time>
      </trkpt>
      <trkpt lat="48.57798" lon="-3.80843">
        <ele>64.8</ele>
        <time>2020-06-10T13:44:15Z</time>
      </trkpt>
      <trkpt lat="48.57796" lon="-3.80838">
        <ele>64.9</ele>
        <time>2020-06-10T13:44:16Z</time>
      </trkpt>
      <trkpt lat="48.57796" lon="-3.80833">
        <ele>65.1</ele>
        <time>2020-06-10T13:44:17Z</time>
      </trkpt>
      <trkpt lat="48.57795" lon="-3.80829">
        <ele>65.2</ele>
        <time>2020-06-10T13:44:18Z</time>
      </trkpt>
      <trkpt lat="48.57795" lon="-3.80825">
        <ele>65.3</ele>
        <time>2020-06-10T13:44:19Z</time>
      </trkpt>
      <trkpt lat="48.57794" lon="-3.80821">
        <ele>65.5</ele>
        <time>2020-06-10T13:44:20Z</time>
      </trkpt>
      <trkpt lat="48.57793" lon="-3.80816">
        <ele>65.6</ele>
        <time>2020-06-10T13:44:21Z</time>
      </trkpt>
      <trkpt lat="48.57792" lon="-3.80811">
        <ele>65.8</ele>
        <time>2020-06-10T13:44:22Z</time>
      </trkpt>
      <trkpt lat="48.5779" lon="-3.80808">
        <ele>65.9</ele>
        <time>2020-06-10T13:44:23Z</time>
      </trkpt>
      <trkpt lat="48.57789" lon="-3.80803">
        <ele>66.1</ele>
        <time>2020-06-10T13:44:24Z</time>
      </trkpt>
      <trkpt lat="48.57788" lon="-3.80798">
        <ele>66.3</ele>
        <time>2020-06-10T13:44:25Z</time>
      </trkpt>
      <trkpt lat="48.57786" lon="-3.80793">
        <ele>66.5</ele>
        <time>2020-06-10T13:44:26Z</time>
      </trkpt>
      <trkpt lat="48.57784" lon="-3.80789">
        <ele>66.6</ele>
        <time>2020-06-10T13:44:27Z</time>
      </trkpt>
      <trkpt lat="48.57782" lon="-3.80785">
        <ele>66.8</ele>
        <time>2020-06-10T13:44:28Z</time>
      </trkpt>
      <trkpt lat="48.5778" lon="-3.8078">
        <ele>67</ele>
        <time>2020-06-10T13:44:29Z</time>
      </trkpt>
      <trkpt lat="48.57779" lon="-3.80776">
        <ele>67.1</ele>
        <time>2020-06-10T13:44:30Z</time>
      </trkpt>
      <trkpt lat="48.57777" lon="-3.80773">
        <ele>67.3</ele>
        <time>2020-06-10T13:44:31Z</time>
      </trkpt>
      <trkpt lat="48.57775" lon="-3.80769">
        <ele>67.5</ele>
        <time>2020-06-10T13:44:32Z</time>
      </trkpt>
      <trkpt lat="48.57774" lon="-3.80764">
        <ele>67.6</ele>
        <time>2020-06-10T13:44:33Z</time>
      </trkpt>
      <trkpt lat="48.57773" lon="-3.80762">
        <ele>67.7</ele>
        <time>2020-06-10T13:44:34Z</time>
      </trkpt>
      <trkpt lat="48.57772" lon="-3.80756">
        <ele>67.9</ele>
        <time>2020-06-10T13:44:35Z</time>
      </trkpt>
      <trkpt lat="48.57771" lon="-3.80751">
        <ele>68</ele>
        <time>2020-06-10T13:44:36Z</time>
      </trkpt>
      <trkpt lat="48.5777" lon="-3.80746">
        <ele>68.2</ele>
        <time>2020-06-10T13:44:37Z</time>
      </trkpt>
      <trkpt lat="48.57769" lon="-3.80743">
        <ele>68.3</ele>
        <time>2020-06-10T13:44:38Z</time>
      </trkpt>
      <trkpt lat="48.57769" lon="-3.80739">
        <ele>68.4</ele>
        <time>2020-06-10T13:44:39Z</time>
      </trkpt>
      <trkpt lat="48.57768" lon="-3.80734">
        <ele>68.6</ele>
        <time>2020-06-10T13:44:40Z</time>
      </trkpt>
      <trkpt lat="48.57768" lon="-3.80728">
        <ele>68.8</ele>
        <time>2020-06-10T13:44:41Z</time>
      </trkpt>
      <trkpt lat="48.57768" lon="-3.80726">
        <ele>68.8</ele>
        <time>2020-06-10T13:44:42Z</time>
      </trkpt>
      <trkpt lat="48.57767" lon="-3.80721">
        <ele>69</ele>
        <time>2020-06-10T13:44:43Z</time>
      </trkpt>
      <trkpt lat="48.57767" lon="-3.80716">
        <ele>69.2</ele>
        <time>2020-06-10T13:44:44Z</time>
      </trkpt>
      <trkpt lat="48.57767" lon="-3.80711">
        <ele>69.4</ele>
        <time>2020-06-10T13:44:45Z</time>
      </trkpt>
      <trkpt lat="48.57767" lon="-3.80706">
        <ele>69.5</ele>
        <time>2020-06-10T13:44:46Z</time>
      </trkpt>
      <trkpt lat="48.57767" lon="-3.80702">
        <ele>69.6</ele>
        <time>2020-06-10T13:44:47Z</time>
      </trkpt>
      <trkpt lat="48.57767" lon="-3.80698">
        <ele>69.7</ele>
        <time>2020-06-10T13:44:48Z</time>
      </trkpt>
      <trkpt lat="48.57766" lon="-3.80693">
        <ele>69.8</ele>
        <time>2020-06-10T13:44:49Z</time>
      </trkpt>
      <trkpt lat="48.57766" lon="-3.80688">
        <ele>70</ele>
        <time>2020-06-10T13:44:50Z</time>
      </trkpt>
      <trkpt lat="48.57766" lon="-3.80682">
        <ele>70.2</ele>
        <time>2020-06-10T13:44:51Z</time>
      </trkpt>
      <trkpt lat="48.57766" lon="-3.8068">
        <ele>70.2</ele>
        <time>2020-06-10T13:44:52Z</time>
      </trkpt>
      <trkpt lat="48.57767" lon="-3.80675">
        <ele>70.3</ele>
        <time>2020-06-10T13:44:53Z</time>
      </trkpt>
      <trkpt lat="48.57767" lon="-3.80669">
        <ele>70.5</ele>
        <time>2020-06-10T13:44:54Z</time>
      </trkpt>
      <trkpt lat="48.57768" lon="-3.80663">
        <ele>70.7</ele>
        <time>2020-06-10T13:44:55Z</time>
      </trkpt>
      <trkpt lat="48.57768" lon="-3.80657">
        <ele>70.9</ele>
        <time>2020-06-10T13:44:56Z</time>
      </trkpt>
      <trkpt lat="48.57769" lon="-3.80652">
        <ele>71</ele>
        <time>2020-06-10T13:44:57Z</time>
      </trkpt>
      <trkpt lat="48.5777" lon="-3.80647">
        <ele>71.2</ele>
        <time>2020-06-10T13:44:58Z</time>
      </trkpt>
      <trkpt lat="48.57771" lon="-3.80642">
        <ele>71.3</ele>
        <time>2020-06-10T13:44:59Z</time>
      </trkpt>
      <trkpt lat="48.57772" lon="-3.80637">
        <ele>71.5</ele>
        <time>2020-06-10T13:45:00Z</time>
      </trkpt>
      <trkpt lat="48.57773" lon="-3.80632">
        <ele>71.6</ele>
        <time>2020-06-10T13:45:01Z</time>
      </trkpt>
      <trkpt lat="48.57775" lon="-3.80627">
        <ele>71.8</ele>
        <time>2020-06-10T13:45:02Z</time>
      </trkpt>
      <trkpt lat="48.57776" lon="-3.80622">
        <ele>71.9</ele>
        <time>2020-06-10T13:45:03Z</time>
      </trkpt>
      <trkpt lat="48.57778" lon="-3.80618">
        <ele>72</ele>
        <time>2020-06-10T13:45:04Z</time>
      </trkpt>
      <trkpt lat="48.57779" lon="-3.80614">
        <ele>72.2</ele>
        <time>2020-06-10T13:45:05Z</time>
      </trkpt>
      <trkpt lat="48.57781" lon="-3.80611">
        <ele>72.3</ele>
        <time>2020-06-10T13:45:06Z</time>
      </trkpt>
      <trkpt lat="48.57783" lon="-3.80606">
        <ele>72.5</ele>
        <time>2020-06-10T13:45:07Z</time>
      </trkpt>
      <trkpt lat="48.57784" lon="-3.80601">
        <ele>72.7</ele>
        <time>2020-06-10T13:45:08Z</time>
      </trkpt>
      <trkpt lat="48.57786" lon="-3.80596">
        <ele>72.8</ele>
        <time>2020-06-10T13:45:09Z</time>
      </trkpt>
      <trkpt lat="48.57788" lon="-3.80592">
        <ele>73</ele>
        <time>2020-06-10T13:45:10Z</time>
      </trkpt>
      <trkpt lat="48.5779" lon="-3.80588">
        <ele>73.1</ele>
        <time>2020-06-10T13:45:11Z</time>
      </trkpt>
      <trkpt lat="48.57792" lon="-3.80583">
        <ele>73.3</ele>
        <time>2020-06-10T13:45:12Z</time>
      </trkpt>
      <trkpt lat="48.57793" lon="-3.80582">
        <ele>73.3</ele>
        <time>2020-06-10T13:45:13Z</time>
      </trkpt>
      <trkpt lat="48.57795" lon="-3.80578">
        <ele>73.5</ele>
        <time>2020-06-10T13:45:14Z</time>
      </trkpt>
      <trkpt lat="48.57796" lon="-3.80574">
        <ele>73.6</ele>
        <time>2020-06-10T13:45:15Z</time>
      </trkpt>
      <trkpt lat="48.57798" lon="-3.80569">
        <ele>73.7</ele>
        <time>2020-06-10T13:45:16Z</time>
      </trkpt>
      <trkpt lat="48.578" lon="-3.80566">
        <ele>73.9</ele>
        <time>2020-06-10T13:45:17Z</time>
      </trkpt>
      <trkpt lat="48.57802" lon="-3.80562">
        <ele>74</ele>
        <time>2020-06-10T13:45:18Z</time>
      </trkpt>
      <trkpt lat="48.57805" lon="-3.80558">
        <ele>74.1</ele>
        <time>2020-06-10T13:45:19Z</time>
      </trkpt>
      <trkpt lat="48.57806" lon="-3.80554">
        <ele>74.2</ele>
        <time>2020-06-10T13:45:20Z</time>
      </trkpt>
      <trkpt lat="48.57808" lon="-3.80551">
        <ele>74.3</ele>
        <time>2020-06-10T13:45:21Z</time>
      </trkpt>
      <trkpt lat="48.5781" lon="-3.80547">
        <ele>74.5</ele>
        <time>2020-06-10T13:45:22Z</time>
      </trkpt>
      <trkpt lat="48.57811" lon="-3.80545">
        <ele>74.6</ele>
        <time>2020-06-10T13:45:23Z</time>
      </trkpt>
      <trkpt lat="48.57814" lon="-3.80541">
        <ele>74.7</ele>
        <time>2020-06-10T13:45:24Z</time>
      </trkpt>
      <trkpt lat="48.57816" lon="-3.80538">
        <ele>74.9</ele>
        <time>2020-06-10T13:45:25Z</time>
      </trkpt>
      <trkpt lat="48.57818" lon="-3.80534">
        <ele>75</ele>
        <time>2020-06-10T13:45:26Z</time>
      </trkpt>
      <trkpt lat="48.5782" lon="-3.80529">
        <ele>75.2</ele>
        <time>2020-06-10T13:45:27Z</time>
      </trkpt>
      <trkpt lat="48.57821" lon="-3.80528">
        <ele>75.2</ele>
        <time>2020-06-10T13:45:28Z</time>
      </trkpt>
      <trkpt lat="48.57824" lon="-3.80524">
        <ele>75.4</ele>
        <time>2020-06-10T13:45:29Z</time>
      </trkpt>
      <trkpt lat="48.57827" lon="-3.80521">
        <ele>75.6</ele>
        <time>2020-06-10T13:45:30Z</time>
      </trkpt>
      <trkpt lat="48.57831" lon="-3.80518">
        <ele>75.8</ele>
        <time>2020-06-10T13:45:31Z</time>
      </trkpt>
      <trkpt lat="48.57833" lon="-3.80514">
        <ele>75.9</ele>
        <time>2020-06-10T13:45:32Z</time>
      </trkpt>
      <trkpt lat="48.57836" lon="-3.80511">
        <ele>76</ele>
        <time>2020-06-10T13:45:33Z</time>
      </trkpt>
      <trkpt lat="48.57838" lon="-3.80507">
        <ele>76.2</ele>
        <time>2020-06-10T13:45:34Z</time>
      </trkpt>
      <trkpt lat="48.57841" lon="-3.80504">
        <ele>76.3</ele>
        <time>2020-06-10T13:45:35Z</time>
      </trkpt>
      <trkpt lat="48.57843" lon="-3.80501">
        <ele>76.5</ele>
        <time>2020-06-10T13:45:36Z</time>
      </trkpt>
      <trkpt lat="48.57845" lon="-3.80496">
        <ele>76.6</ele>
        <time>2020-06-10T13:45:37Z</time>
      </trkpt>
      <trkpt lat="48.57845" lon="-3.80491">
        <ele>76.7</ele>
        <time>2020-06-10T13:45:38Z</time>
      </trkpt>
      <trkpt lat="48.57847" lon="-3.80487">
        <ele>76.9</ele>
        <time>2020-06-10T13:45:39Z</time>
      </trkpt>
      <trkpt lat="48.57849" lon="-3.80484">
        <ele>77</ele>
        <time>2020-06-10T13:45:40Z</time>
      </trkpt>
      <trkpt lat="48.57851" lon="-3.8048">
        <ele>77.2</ele>
        <time>2020-06-10T13:45:41Z</time>
      </trkpt>
      <trkpt lat="48.57853" lon="-3.80476">
        <ele>77.3</ele>
        <time>2020-06-10T13:45:42Z</time>
      </trkpt>
      <trkpt lat="48.57854" lon="-3.80474">
        <ele>77.4</ele>
        <time>2020-06-10T13:45:43Z</time>
      </trkpt>
      <trkpt lat="48.57855" lon="-3.80469">
        <ele>77.5</ele>
        <time>2020-06-10T13:45:44Z</time>
      </trkpt>
      <trkpt lat="48.57856" lon="-3.80464">
        <ele>77.7</ele>
        <time>2020-06-10T13:45:45Z</time>
      </trkpt>
      <trkpt lat="48.57858" lon="-3.80459">
        <ele>77.8</ele>
        <time>2020-06-10T13:45:46Z</time>
      </trkpt>
      <trkpt lat="48.57859" lon="-3.80454">
        <ele>78</ele>
        <time>2020-06-10T13:45:47Z</time>
      </trkpt>
      <trkpt lat="48.57861" lon="-3.8045">
        <ele>78.1</ele>
        <time>2020-06-10T13:45:48Z</time>
      </trkpt>
      <trkpt lat="48.57861" lon="-3.80446">
        <ele>78.2</ele>
        <time>2020-06-10T13:45:49Z</time>
      </trkpt>
      <trkpt lat="48.57862" lon="-3.80441">
        <ele>78.4</ele>
        <time>2020-06-10T13:45:50Z</time>
      </trkpt>
      <trkpt lat="48.57863" lon="-3.80437">
        <ele>78.5</ele>
        <time>2020-06-10T13:45:51Z</time>
      </trkpt>
      <trkpt lat="48.57864" lon="-3.80432">
        <ele>78.6</ele>
        <time>2020-06-10T13:45:52Z</time>
      </trkpt>
      <trkpt lat="48.57865" lon="-3.80427">
        <ele>78.8</ele>
        <time>2020-06-10T13:45:53Z</time>
      </trkpt>
      <trkpt lat="48.57865" lon="-3.80422">
        <ele>79</ele>
        <time>2020-06-10T13:45:54Z</time>
      </trkpt>
      <trkpt lat="48.57866" lon="-3.80418">
        <ele>79.1</ele>
        <time>2020-06-10T13:45:55Z</time>
      </trkpt>
      <trkpt lat="48.57867" lon="-3.80413">
        <ele>79.3</ele>
        <time>2020-06-10T13:45:56Z</time>
      </trkpt>
      <trkpt lat="48.57867" lon="-3.80407">
        <ele>79.4</ele>
        <time>2020-06-10T13:45:57Z</time>
      </trkpt>
      <trkpt lat="48.57867" lon="-3.80403">
        <ele>79.6</ele>
        <time>2020-06-10T13:45:58Z</time>
      </trkpt>
      <trkpt lat="48.57868" lon="-3.80397">
        <ele>79.8</ele>
        <time>2020-06-10T13:45:59Z</time>
      </trkpt>
      <trkpt lat="48.57868" lon="-3.80395">
        <ele>79.9</ele>
        <time>2020-06-10T13:46:00Z</time>
      </trkpt>
      <trkpt lat="48.57868" lon="-3.8039">
        <ele>80</ele>
        <time>2020-06-10T13:46:01Z</time>
      </trkpt>
      <trkpt lat="48.57868" lon="-3.80384">
        <ele>80.2</ele>
        <time>2020-06-10T13:46:02Z</time>
      </trkpt>
      <trkpt lat="48.57868" lon="-3.80379">
        <ele>80.3</ele>
        <time>2020-06-10T13:46:03Z</time>
      </trkpt>
      <trkpt lat="48.57869" lon="-3.80374">
        <ele>80.5</ele>
        <time>2020-06-10T13:46:04Z</time>
      </trkpt>
      <trkpt lat="48.5787" lon="-3.80369">
        <ele>80.7</ele>
        <time>2020-06-10T13:46:05Z</time>
      </trkpt>
      <trkpt lat="48.57871" lon="-3.80364">
        <ele>80.8</ele>
        <time>2020-06-10T13:46:06Z</time>
      </trkpt>
      <trkpt lat="48.57873" lon="-3.80359">
        <ele>81</ele>
        <time>2020-06-10T13:46:07Z</time>
      </trkpt>
      <trkpt lat="48.57874" lon="-3.80357">
        <ele>81.1</ele>
        <time>2020-06-10T13:46:08Z</time>
      </trkpt>
      <trkpt lat="48.57875" lon="-3.80353">
        <ele>81.2</ele>
        <time>2020-06-10T13:46:09Z</time>
      </trkpt>
      <trkpt lat="48.57877" lon="-3.80349">
        <ele>81.4</ele>
        <time>2020-06-10T13:46:10Z</time>
      </trkpt>
      <trkpt lat="48.57878" lon="-3.80345">
        <ele>81.5</ele>
        <time>2020-06-10T13:46:11Z</time>
      </trkpt>
      <trkpt lat="48.57879" lon="-3.80341">
        <ele>81.6</ele>
        <time>2020-06-10T13:46:12Z</time>
      </trkpt>
      <trkpt lat="48.5788" lon="-3.80337">
        <ele>81.7</ele>
        <time>2020-06-10T13:46:13Z</time>
      </trkpt>
      <trkpt lat="48.57882" lon="-3.80333">
        <ele>81.9</ele>
        <time>2020-06-10T13:46:14Z</time>
      </trkpt>
      <trkpt lat="48.57883" lon="-3.80328">
        <ele>82</ele>
        <time>2020-06-10T13:46:15Z</time>
      </trkpt>
      <trkpt lat="48.57886" lon="-3.80325">
        <ele>82.2</ele>
        <time>2020-06-10T13:46:16Z</time>
      </trkpt>
      <trkpt lat="48.57887" lon="-3.80321">
        <ele>82.3</ele>
        <time>2020-06-10T13:46:17Z</time>
      </trkpt>
      <trkpt lat="48.57888" lon="-3.80317">
        <ele>82.4</ele>
        <time>2020-06-10T13:46:18Z</time>
      </trkpt>
      <trkpt lat="48.5789" lon="-3.80313">
        <ele>82.6</ele>
        <time>2020-06-10T13:46:19Z</time>
      </trkpt>
      <trkpt lat="48.57892" lon="-3.80309">
        <ele>82.7</ele>
        <time>2020-06-10T13:46:20Z</time>
      </trkpt>
      <trkpt lat="48.57894" lon="-3.80304">
        <ele>82.9</ele>
        <time>2020-06-10T13:46:21Z</time>
      </trkpt>
      <trkpt lat="48.57895" lon="-3.80299">
        <ele>83</ele>
        <time>2020-06-10T13:46:22Z</time>
      </trkpt>
      <trkpt lat="48.57896" lon="-3.80295">
        <ele>83.1</ele>
        <time>2020-06-10T13:46:23Z</time>
      </trkpt>
      <trkpt lat="48.57897" lon="-3.8029">
        <ele>83.3</ele>
        <time>2020-06-10T13:46:24Z</time>
      </trkpt>
      <trkpt lat="48.57898" lon="-3.80285">
        <ele>83.4</ele>
        <time>2020-06-10T13:46:25Z</time>
      </trkpt>
      <trkpt lat="48.57899" lon="-3.8028">
        <ele>83.5</ele>
        <time>2020-06-10T13:46:26Z</time>
      </trkpt>
      <trkpt lat="48.57901" lon="-3.80274">
        <ele>83.6</ele>
        <time>2020-06-10T13:46:27Z</time>
      </trkpt>
      <trkpt lat="48.57903" lon="-3.80269">
        <ele>83.7</ele>
        <time>2020-06-10T13:46:28Z</time>
      </trkpt>
      <trkpt lat="48.57904" lon="-3.80263">
        <ele>83.8</ele>
        <time>2020-06-10T13:46:29Z</time>
      </trkpt>
      <trkpt lat="48.57905" lon="-3.80257">
        <ele>84</ele>
        <time>2020-06-10T13:46:30Z</time>
      </trkpt>
      <trkpt lat="48.57906" lon="-3.80251">
        <ele>84.1</ele>
        <time>2020-06-10T13:46:31Z</time>
      </trkpt>
      <trkpt lat="48.57908" lon="-3.80246">
        <ele>84.3</ele>
        <time>2020-06-10T13:46:32Z</time>
      </trkpt>
      <trkpt lat="48.57908" lon="-3.80241">
        <ele>84.4</ele>
        <time>2020-06-10T13:46:33Z</time>
      </trkpt>
      <trkpt lat="48.57909" lon="-3.80235">
        <ele>84.6</ele>
        <time>2020-06-10T13:46:34Z</time>
      </trkpt>
      <trkpt lat="48.5791" lon="-3.80231">
        <ele>84.7</ele>
        <time>2020-06-10T13:46:35Z</time>
      </trkpt>
      <trkpt lat="48.57911" lon="-3.80227">
        <ele>84.8</ele>
        <time>2020-06-10T13:46:36Z</time>
      </trkpt>
      <trkpt lat="48.57911" lon="-3.80222">
        <ele>85</ele>
        <time>2020-06-10T13:46:37Z</time>
      </trkpt>
      <trkpt lat="48.57911" lon="-3.80215">
        <ele>85.1</ele>
        <time>2020-06-10T13:46:38Z</time>
      </trkpt>
      <trkpt lat="48.57912" lon="-3.8021">
        <ele>85.3</ele>
        <time>2020-06-10T13:46:39Z</time>
      </trkpt>
      <trkpt lat="48.57912" lon="-3.80204">
        <ele>85.5</ele>
        <time>2020-06-10T13:46:40Z</time>
      </trkpt>
      <trkpt lat="48.57913" lon="-3.80198">
        <ele>85.6</ele>
        <time>2020-06-10T13:46:41Z</time>
      </trkpt>
      <trkpt lat="48.57913" lon="-3.80192">
        <ele>85.7</ele>
        <time>2020-06-10T13:46:42Z</time>
      </trkpt>
      <trkpt lat="48.57913" lon="-3.80186">
        <ele>85.9</ele>
        <time>2020-06-10T13:46:43Z</time>
      </trkpt>
      <trkpt lat="48.57913" lon="-3.80181">
        <ele>86</ele>
        <time>2020-06-10T13:46:44Z</time>
      </trkpt>
      <trkpt lat="48.57912" lon="-3.80175">
        <ele>86.1</ele>
        <time>2020-06-10T13:46:45Z</time>
      </trkpt>
      <trkpt lat="48.57911" lon="-3.80169">
        <ele>86.3</ele>
        <time>2020-06-10T13:46:46Z</time>
      </trkpt>
      <trkpt lat="48.5791" lon="-3.80163">
        <ele>86.4</ele>
        <time>2020-06-10T13:46:47Z</time>
      </trkpt>
      <trkpt lat="48.57909" lon="-3.80157">
        <ele>86.6</ele>
        <time>2020-06-10T13:46:48Z</time>
      </trkpt>
      <trkpt lat="48.57909" lon="-3.80151">
        <ele>86.7</ele>
        <time>2020-06-10T13:46:49Z</time>
      </trkpt>
      <trkpt lat="48.57908" lon="-3.80146">
        <ele>86.9</ele>
        <time>2020-06-10T13:46:50Z</time>
      </trkpt>
      <trkpt lat="48.57907" lon="-3.8014">
        <ele>87</ele>
        <time>2020-06-10T13:46:51Z</time>
      </trkpt>
      <trkpt lat="48.57906" lon="-3.80136">
        <ele>87.2</ele>
        <time>2020-06-10T13:46:52Z</time>
      </trkpt>
      <trkpt lat="48.57905" lon="-3.8013">
        <ele>87.3</ele>
        <time>2020-06-10T13:46:53Z</time>
      </trkpt>
      <trkpt lat="48.57904" lon="-3.80126">
        <ele>87.4</ele>
        <time>2020-06-10T13:46:54Z</time>
      </trkpt>
      <trkpt lat="48.57903" lon="-3.8012">
        <ele>87.6</ele>
        <time>2020-06-10T13:46:55Z</time>
      </trkpt>
      <trkpt lat="48.57903" lon="-3.80114">
        <ele>87.8</ele>
        <time>2020-06-10T13:46:56Z</time>
      </trkpt>
      <trkpt lat="48.57902" lon="-3.80108">
        <ele>87.9</ele>
        <time>2020-06-10T13:46:57Z</time>
      </trkpt>
      <trkpt lat="48.57901" lon="-3.80103">
        <ele>88</ele>
        <time>2020-06-10T13:46:58Z</time>
      </trkpt>
      <trkpt lat="48.57901" lon="-3.80098">
        <ele>88.2</ele>
        <time>2020-06-10T13:46:59Z</time>
      </trkpt>
      <trkpt lat="48.579" lon="-3.80092">
        <ele>88.3</ele>
        <time>2020-06-10T13:47:00Z</time>
      </trkpt>
      <trkpt lat="48.57901" lon="-3.80088">
        <ele>88.4</ele>
        <time>2020-06-10T13:47:01Z</time>
      </trkpt>
      <trkpt lat="48.57899" lon="-3.80081">
        <ele>88.6</ele>
        <time>2020-06-10T13:47:02Z</time>
      </trkpt>
      <trkpt lat="48.57898" lon="-3.80075">
        <ele>88.8</ele>
        <time>2020-06-10T13:47:03Z</time>
      </trkpt>
      <trkpt lat="48.57896" lon="-3.8007">
        <ele>89</ele>
        <time>2020-06-10T13:47:04Z</time>
      </trkpt>
      <trkpt lat="48.57896" lon="-3.80065">
        <ele>89.1</ele>
        <time>2020-06-10T13:47:05Z</time>
      </trkpt>
      <trkpt lat="48.57896" lon="-3.8006">
        <ele>89.3</ele>
        <time>2020-06-10T13:47:06Z</time>
      </trkpt>
      <trkpt lat="48.57896" lon="-3.80054">
        <ele>89.4</ele>
        <time>2020-06-10T13:47:07Z</time>
      </trkpt>
      <trkpt lat="48.57895" lon="-3.80049">
        <ele>89.6</ele>
        <time>2020-06-10T13:47:08Z</time>
      </trkpt>
      <trkpt lat="48.57895" lon="-3.80044">
        <ele>89.7</ele>
        <time>2020-06-10T13:47:09Z</time>
      </trkpt>
      <trkpt lat="48.57895" lon="-3.80039">
        <ele>89.9</ele>
        <time>2020-06-10T13:47:10Z</time>
      </trkpt>
      <trkpt lat="48.57895" lon="-3.80032">
        <ele>90.1</ele>
        <time>2020-06-10T13:47:11Z</time>
      </trkpt>
      <trkpt lat="48.57894" lon="-3.80025">
        <ele>90.3</ele>
        <time>2020-06-10T13:47:12Z</time>
      </trkpt>
      <trkpt lat="48.57894" lon="-3.80019">
        <ele>90.5</ele>
        <time>2020-06-10T13:47:13Z</time>
      </trkpt>
      <trkpt lat="48.57893" lon="-3.80012">
        <ele>90.7</ele>
        <time>2020-06-10T13:47:14Z</time>
      </trkpt>
      <trkpt lat="48.57892" lon="-3.80007">
        <ele>90.8</ele>
        <time>2020-06-10T13:47:15Z</time>
      </trkpt>
      <trkpt lat="48.57891" lon="-3.80002">
        <ele>91</ele>
        <time>2020-06-10T13:47:16Z</time>
      </trkpt>
      <trkpt lat="48.57891" lon="-3.79997">
        <ele>91.1</ele>
        <time>2020-06-10T13:47:17Z</time>
      </trkpt>
      <trkpt lat="48.57891" lon="-3.79993">
        <ele>91.2</ele>
        <time>2020-06-10T13:47:18Z</time>
      </trkpt>
      <trkpt lat="48.5789" lon="-3.79987">
        <ele>91.4</ele>
        <time>2020-06-10T13:47:19Z</time>
      </trkpt>
      <trkpt lat="48.5789" lon="-3.79982">
        <ele>91.5</ele>
        <time>2020-06-10T13:47:20Z</time>
      </trkpt>
      <trkpt lat="48.57891" lon="-3.79976">
        <ele>91.7</ele>
        <time>2020-06-10T13:47:21Z</time>
      </trkpt>
      <trkpt lat="48.5789" lon="-3.79971">
        <ele>91.8</ele>
        <time>2020-06-10T13:47:22Z</time>
      </trkpt>
      <trkpt lat="48.5789" lon="-3.79965">
        <ele>92</ele>
        <time>2020-06-10T13:47:23Z</time>
      </trkpt>
      <trkpt lat="48.57889" lon="-3.79959">
        <ele>92.3</ele>
        <time>2020-06-10T13:47:24Z</time>
      </trkpt>
      <trkpt lat="48.57888" lon="-3.79954">
        <ele>92.4</ele>
        <time>2020-06-10T13:47:25Z</time>
      </trkpt>
      <trkpt lat="48.57887" lon="-3.79949">
        <ele>92.6</ele>
        <time>2020-06-10T13:47:26Z</time>
      </trkpt>
      <trkpt lat="48.57887" lon="-3.79944">
        <ele>92.7</ele>
        <time>2020-06-10T13:47:27Z</time>
      </trkpt>
      <trkpt lat="48.57887" lon="-3.79938">
        <ele>92.9</ele>
        <time>2020-06-10T13:47:28Z</time>
      </trkpt>
      <trkpt lat="48.57886" lon="-3.79933">
        <ele>93</ele>
        <time>2020-06-10T13:47:29Z</time>
      </trkpt>
      <trkpt lat="48.57886" lon="-3.79927">
        <ele>93.1</ele>
        <time>2020-06-10T13:47:30Z</time>
      </trkpt>
      <trkpt lat="48.57885" lon="-3.79921">
        <ele>93.3</ele>
        <time>2020-06-10T13:47:31Z</time>
      </trkpt>
      <trkpt lat="48.57884" lon="-3.79916">
        <ele>93.4</ele>
        <time>2020-06-10T13:47:32Z</time>
      </trkpt>
      <trkpt lat="48.57883" lon="-3.7991">
        <ele>93.5</ele>
        <time>2020-06-10T13:47:33Z</time>
      </trkpt>
      <trkpt lat="48.57882" lon="-3.79905">
        <ele>93.6</ele>
        <time>2020-06-10T13:47:34Z</time>
      </trkpt>
      <trkpt lat="48.57882" lon="-3.799">
        <ele>93.8</ele>
        <time>2020-06-10T13:47:35Z</time>
      </trkpt>
      <trkpt lat="48.57882" lon="-3.79895">
        <ele>93.9</ele>
        <time>2020-06-10T13:47:36Z</time>
      </trkpt>
      <trkpt lat="48.57882" lon="-3.79889">
        <ele>94</ele>
        <time>2020-06-10T13:47:37Z</time>
      </trkpt>
      <trkpt lat="48.57881" lon="-3.79883">
        <ele>94.2</ele>
        <time>2020-06-10T13:47:38Z</time>
      </trkpt>
      <trkpt lat="48.57881" lon="-3.79877">
        <ele>94.3</ele>
        <time>2020-06-10T13:47:39Z</time>
      </trkpt>
      <trkpt lat="48.57879" lon="-3.79871">
        <ele>94.5</ele>
        <time>2020-06-10T13:47:40Z</time>
      </trkpt>
      <trkpt lat="48.57878" lon="-3.79866">
        <ele>94.7</ele>
        <time>2020-06-10T13:47:41Z</time>
      </trkpt>
      <trkpt lat="48.57877" lon="-3.7986">
        <ele>94.8</ele>
        <time>2020-06-10T13:47:42Z</time>
      </trkpt>
      <trkpt lat="48.57879" lon="-3.79855">
        <ele>95</ele>
        <time>2020-06-10T13:47:43Z</time>
      </trkpt>
      <trkpt lat="48.57878" lon="-3.79849">
        <ele>95.2</ele>
        <time>2020-06-10T13:47:44Z</time>
      </trkpt>
      <trkpt lat="48.57878" lon="-3.79847">
        <ele>95.2</ele>
        <time>2020-06-10T13:47:45Z</time>
      </trkpt>
      <trkpt lat="48.57878" lon="-3.79842">
        <ele>95.4</ele>
        <time>2020-06-10T13:47:46Z</time>
      </trkpt>
      <trkpt lat="48.57877" lon="-3.79837">
        <ele>95.5</ele>
        <time>2020-06-10T13:47:47Z</time>
      </trkpt>
      <trkpt lat="48.57877" lon="-3.79833">
        <ele>95.7</ele>
        <time>2020-06-10T13:47:48Z</time>
      </trkpt>
      <trkpt lat="48.57878" lon="-3.79826">
        <ele>95.9</ele>
        <time>2020-06-10T13:47:49Z</time>
      </trkpt>
      <trkpt lat="48.57877" lon="-3.79821">
        <ele>96</ele>
        <time>2020-06-10T13:47:50Z</time>
      </trkpt>
      <trkpt lat="48.57877" lon="-3.79814">
        <ele>96.2</ele>
        <time>2020-06-10T13:47:51Z</time>
      </trkpt>
      <trkpt lat="48.57877" lon="-3.7981">
        <ele>96.4</ele>
        <time>2020-06-10T13:47:52Z</time>
      </trkpt>
      <trkpt lat="48.57876" lon="-3.79803">
        <ele>96.6</ele>
        <time>2020-06-10T13:47:53Z</time>
      </trkpt>
      <trkpt lat="48.57875" lon="-3.79801">
        <ele>96.7</ele>
        <time>2020-06-10T13:47:54Z</time>
      </trkpt>
      <trkpt lat="48.57874" lon="-3.79795">
        <ele>96.9</ele>
        <time>2020-06-10T13:47:55Z</time>
      </trkpt>
      <trkpt lat="48.57873" lon="-3.79793">
        <ele>96.9</ele>
        <time>2020-06-10T13:47:56Z</time>
      </trkpt>
      <trkpt lat="48.57873" lon="-3.79789">
        <ele>97</ele>
        <time>2020-06-10T13:47:57Z</time>
      </trkpt>
      <trkpt lat="48.57872" lon="-3.79788">
        <ele>97.1</ele>
        <time>2020-06-10T13:47:58Z</time>
      </trkpt>
      <trkpt lat="48.57872" lon="-3.79788">
        <ele>97.1</ele>
        <time>2020-06-10T13:47:59Z</time>
      </trkpt>
      <trkpt lat="48.57873" lon="-3.79789">
        <ele>97.1</ele>
        <time>2020-06-10T13:48:00Z</time>
      </trkpt>
      <trkpt lat="48.57873" lon="-3.79789">
        <ele>97.1</ele>
        <time>2020-06-10T13:48:01Z</time>
      </trkpt>
      <trkpt lat="48.57873" lon="-3.79789">
        <ele>97.1</ele>
        <time>2020-06-10T13:48:02Z</time>
      </trkpt>
      <trkpt lat="48.57874" lon="-3.79789">
        <ele>97.2</ele>
        <time>2020-06-10T13:48:03Z</time>
      </trkpt>
      <trkpt lat="48.57874" lon="-3.79789">
        <ele>97.2</ele>
        <time>2020-06-10T13:48:04Z</time>
      </trkpt>
      <trkpt lat="48.57874" lon="-3.79789">
        <ele>97.2</ele>
        <time>2020-06-10T13:48:05Z</time>
      </trkpt>
      <trkpt lat="48.57874" lon="-3.79789">
        <ele>97.2</ele>
        <time>2020-06-10T13:48:06Z</time>
      </trkpt>
      <trkpt lat="48.57874" lon="-3.79789">
        <ele>97.2</ele>
        <time>2020-06-10T13:48:07Z</time>
      </trkpt>
      <trkpt lat="48.57874" lon="-3.79789">
        <ele>97.2</ele>
        <time>2020-06-10T13:48:08Z</time>
      </trkpt>
      <trkpt lat="48.57873" lon="-3.79789">
        <ele>97.3</ele>
        <time>2020-06-10T13:48:09Z</time>
      </trkpt>
      <trkpt lat="48.57873" lon="-3.79781">
        <ele>97.5</ele>
        <time>2020-06-10T13:48:12Z</time>
      </trkpt>
      <trkpt lat="48.57873" lon="-3.79778">
        <ele>97.6</ele>
        <time>2020-06-10T13:48:13Z</time>
      </trkpt>
      <trkpt lat="48.57872" lon="-3.79775">
        <ele>97.7</ele>
        <time>2020-06-10T13:48:14Z</time>
      </trkpt>
      <trkpt lat="48.57873" lon="-3.79773">
        <ele>97.7</ele>
        <time>2020-06-10T13:48:15Z</time>
      </trkpt>
      <trkpt lat="48.57872" lon="-3.79768">
        <ele>97.9</ele>
        <time>2020-06-10T13:48:16Z</time>
      </trkpt>
      <trkpt lat="48.57872" lon="-3.79766">
        <ele>97.9</ele>
        <time>2020-06-10T13:48:17Z</time>
      </trkpt>
      <trkpt lat="48.57871" lon="-3.79761">
        <ele>98.1</ele>
        <time>2020-06-10T13:48:18Z</time>
      </trkpt>
      <trkpt lat="48.57871" lon="-3.79759">
        <ele>98.1</ele>
        <time>2020-06-10T13:48:19Z</time>
      </trkpt>
      <trkpt lat="48.57872" lon="-3.79755">
        <ele>98.4</ele>
        <time>2020-06-10T13:48:20Z</time>
      </trkpt>
      <trkpt lat="48.57872" lon="-3.7975">
        <ele>98.6</ele>
        <time>2020-06-10T13:48:21Z</time>
      </trkpt>
      <trkpt lat="48.57871" lon="-3.79745">
        <ele>98.7</ele>
        <time>2020-06-10T13:48:22Z</time>
      </trkpt>
      <trkpt lat="48.5787" lon="-3.79741">
        <ele>98.8</ele>
        <time>2020-06-10T13:48:23Z</time>
      </trkpt>
      <trkpt lat="48.5787" lon="-3.79737">
        <ele>98.9</ele>
        <time>2020-06-10T13:48:24Z</time>
      </trkpt>
      <trkpt lat="48.5787" lon="-3.79733">
        <ele>99.1</ele>
        <time>2020-06-10T13:48:25Z</time>
      </trkpt>
      <trkpt lat="48.57869" lon="-3.79728">
        <ele>99.2</ele>
        <time>2020-06-10T13:48:26Z</time>
      </trkpt>
      <trkpt lat="48.57869" lon="-3.79723">
        <ele>99.3</ele>
        <time>2020-06-10T13:48:27Z</time>
      </trkpt>
      <trkpt lat="48.57869" lon="-3.79719">
        <ele>99.5</ele>
        <time>2020-06-10T13:48:28Z</time>
      </trkpt>
      <trkpt lat="48.57869" lon="-3.79713">
        <ele>99.6</ele>
        <time>2020-06-10T13:48:29Z</time>
      </trkpt>
      <trkpt lat="48.57869" lon="-3.79707">
        <ele>99.7</ele>
        <time>2020-06-10T13:48:30Z</time>
      </trkpt>
      <trkpt lat="48.57868" lon="-3.79706">
        <ele>99.8</ele>
        <time>2020-06-10T13:48:31Z</time>
      </trkpt>
      <trkpt lat="48.57867" lon="-3.797">
        <ele>99.9</ele>
        <time>2020-06-10T13:48:32Z</time>
      </trkpt>
      <trkpt lat="48.57867" lon="-3.79698">
        <ele>100</ele>
        <time>2020-06-10T13:48:33Z</time>
      </trkpt>
      <trkpt lat="48.57866" lon="-3.79692">
        <ele>100.1</ele>
        <time>2020-06-10T13:48:34Z</time>
      </trkpt>
      <trkpt lat="48.57865" lon="-3.79687">
        <ele>100.2</ele>
        <time>2020-06-10T13:48:35Z</time>
      </trkpt>
      <trkpt lat="48.57864" lon="-3.79681">
        <ele>100.4</ele>
        <time>2020-06-10T13:48:36Z</time>
      </trkpt>
      <trkpt lat="48.57863" lon="-3.79677">
        <ele>100.5</ele>
        <time>2020-06-10T13:48:37Z</time>
      </trkpt>
      <trkpt lat="48.57863" lon="-3.79672">
        <ele>100.6</ele>
        <time>2020-06-10T13:48:38Z</time>
      </trkpt>
      <trkpt lat="48.57863" lon="-3.79665">
        <ele>100.8</ele>
        <time>2020-06-10T13:48:39Z</time>
      </trkpt>
      <trkpt lat="48.57863" lon="-3.79663">
        <ele>100.9</ele>
        <time>2020-06-10T13:48:40Z</time>
      </trkpt>
      <trkpt lat="48.57863" lon="-3.79658">
        <ele>101</ele>
        <time>2020-06-10T13:48:41Z</time>
      </trkpt>
      <trkpt lat="48.57862" lon="-3.79653">
        <ele>101.1</ele>
        <time>2020-06-10T13:48:42Z</time>
      </trkpt>
      <trkpt lat="48.57861" lon="-3.79651">
        <ele>101.1</ele>
        <time>2020-06-10T13:48:43Z</time>
      </trkpt>
      <trkpt lat="48.57861" lon="-3.79646">
        <ele>101.2</ele>
        <time>2020-06-10T13:48:44Z</time>
      </trkpt>
      <trkpt lat="48.57861" lon="-3.79642">
        <ele>101.3</ele>
        <time>2020-06-10T13:48:45Z</time>
      </trkpt>
      <trkpt lat="48.5786" lon="-3.79638">
        <ele>101.4</ele>
        <time>2020-06-10T13:48:46Z</time>
      </trkpt>
      <trkpt lat="48.57858" lon="-3.79633">
        <ele>101.5</ele>
        <time>2020-06-10T13:48:47Z</time>
      </trkpt>
      <trkpt lat="48.57858" lon="-3.79629">
        <ele>101.7</ele>
        <time>2020-06-10T13:48:48Z</time>
      </trkpt>
      <trkpt lat="48.57858" lon="-3.79623">
        <ele>101.8</ele>
        <time>2020-06-10T13:48:49Z</time>
      </trkpt>
      <trkpt lat="48.57858" lon="-3.79622">
        <ele>101.8</ele>
        <time>2020-06-10T13:48:50Z</time>
      </trkpt>
      <trkpt lat="48.57858" lon="-3.79617">
        <ele>101.9</ele>
        <time>2020-06-10T13:48:51Z</time>
      </trkpt>
      <trkpt lat="48.57857" lon="-3.79612">
        <ele>102</ele>
        <time>2020-06-10T13:48:52Z</time>
      </trkpt>
      <trkpt lat="48.57856" lon="-3.79608">
        <ele>102.1</ele>
        <time>2020-06-10T13:48:53Z</time>
      </trkpt>
      <trkpt lat="48.57857" lon="-3.79604">
        <ele>102.1</ele>
        <time>2020-06-10T13:48:54Z</time>
      </trkpt>
      <trkpt lat="48.57856" lon="-3.79599">
        <ele>102.2</ele>
        <time>2020-06-10T13:48:55Z</time>
      </trkpt>
      <trkpt lat="48.57856" lon="-3.79595">
        <ele>102.3</ele>
        <time>2020-06-10T13:48:56Z</time>
      </trkpt>
      <trkpt lat="48.57855" lon="-3.79589">
        <ele>102.4</ele>
        <time>2020-06-10T13:48:57Z</time>
      </trkpt>
      <trkpt lat="48.57855" lon="-3.79587">
        <ele>102.4</ele>
        <time>2020-06-10T13:48:58Z</time>
      </trkpt>
      <trkpt lat="48.57855" lon="-3.79582">
        <ele>102.5</ele>
        <time>2020-06-10T13:48:59Z</time>
      </trkpt>
      <trkpt lat="48.57854" lon="-3.79577">
        <ele>102.6</ele>
        <time>2020-06-10T13:49:00Z</time>
      </trkpt>
      <trkpt lat="48.57854" lon="-3.79573">
        <ele>102.7</ele>
        <time>2020-06-10T13:49:01Z</time>
      </trkpt>
      <trkpt lat="48.57854" lon="-3.79568">
        <ele>102.7</ele>
        <time>2020-06-10T13:49:02Z</time>
      </trkpt>
      <trkpt lat="48.57853" lon="-3.79563">
        <ele>102.8</ele>
        <time>2020-06-10T13:49:03Z</time>
      </trkpt>
      <trkpt lat="48.57853" lon="-3.79557">
        <ele>102.9</ele>
        <time>2020-06-10T13:49:04Z</time>
      </trkpt>
      <trkpt lat="48.57853" lon="-3.79555">
        <ele>102.9</ele>
        <time>2020-06-10T13:49:05Z</time>
      </trkpt>
      <trkpt lat="48.57852" lon="-3.79549">
        <ele>103</ele>
        <time>2020-06-10T13:49:06Z</time>
      </trkpt>
      <trkpt lat="48.57852" lon="-3.79548">
        <ele>103</ele>
        <time>2020-06-10T13:49:07Z</time>
      </trkpt>
      <trkpt lat="48.57852" lon="-3.79541">
        <ele>103.1</ele>
        <time>2020-06-10T13:49:08Z</time>
      </trkpt>
      <trkpt lat="48.57852" lon="-3.79539">
        <ele>103.1</ele>
        <time>2020-06-10T13:49:09Z</time>
      </trkpt>
      <trkpt lat="48.57852" lon="-3.79534">
        <ele>103.2</ele>
        <time>2020-06-10T13:49:10Z</time>
      </trkpt>
      <trkpt lat="48.57851" lon="-3.79529">
        <ele>103.2</ele>
        <time>2020-06-10T13:49:11Z</time>
      </trkpt>
      <trkpt lat="48.5785" lon="-3.79524">
        <ele>103.2</ele>
        <time>2020-06-10T13:49:12Z</time>
      </trkpt>
      <trkpt lat="48.57849" lon="-3.79519">
        <ele>103.3</ele>
        <time>2020-06-10T13:49:13Z</time>
      </trkpt>
      <trkpt lat="48.57848" lon="-3.79514">
        <ele>103.3</ele>
        <time>2020-06-10T13:49:14Z</time>
      </trkpt>
      <trkpt lat="48.57848" lon="-3.79509">
        <ele>103.4</ele>
        <time>2020-06-10T13:49:15Z</time>
      </trkpt>
      <trkpt lat="48.57847" lon="-3.79504">
        <ele>103.5</ele>
        <time>2020-06-10T13:49:16Z</time>
      </trkpt>
      <trkpt lat="48.57847" lon="-3.79499">
        <ele>103.5</ele>
        <time>2020-06-10T13:49:17Z</time>
      </trkpt>
      <trkpt lat="48.57845" lon="-3.79494">
        <ele>103.6</ele>
        <time>2020-06-10T13:49:18Z</time>
      </trkpt>
      <trkpt lat="48.57844" lon="-3.79488">
        <ele>103.8</ele>
        <time>2020-06-10T13:49:19Z</time>
      </trkpt>
      <trkpt lat="48.57843" lon="-3.79482">
        <ele>103.9</ele>
        <time>2020-06-10T13:49:20Z</time>
      </trkpt>
      <trkpt lat="48.57843" lon="-3.79475">
        <ele>104</ele>
        <time>2020-06-10T13:49:21Z</time>
      </trkpt>
      <trkpt lat="48.57843" lon="-3.79469">
        <ele>104.1</ele>
        <time>2020-06-10T13:49:22Z</time>
      </trkpt>
      <trkpt lat="48.57842" lon="-3.79463">
        <ele>104.2</ele>
        <time>2020-06-10T13:49:23Z</time>
      </trkpt>
      <trkpt lat="48.57842" lon="-3.79457">
        <ele>104.3</ele>
        <time>2020-06-10T13:49:24Z</time>
      </trkpt>
      <trkpt lat="48.57841" lon="-3.79451">
        <ele>104.4</ele>
        <time>2020-06-10T13:49:25Z</time>
      </trkpt>
      <trkpt lat="48.57841" lon="-3.79445">
        <ele>104.5</ele>
        <time>2020-06-10T13:49:26Z</time>
      </trkpt>
      <trkpt lat="48.5784" lon="-3.79439">
        <ele>104.5</ele>
        <time>2020-06-10T13:49:27Z</time>
      </trkpt>
      <trkpt lat="48.57839" lon="-3.79434">
        <ele>104.6</ele>
        <time>2020-06-10T13:49:28Z</time>
      </trkpt>
      <trkpt lat="48.5784" lon="-3.79427">
        <ele>104.7</ele>
        <time>2020-06-10T13:49:29Z</time>
      </trkpt>
      <trkpt lat="48.57839" lon="-3.79423">
        <ele>104.7</ele>
        <time>2020-06-10T13:49:30Z</time>
      </trkpt>
      <trkpt lat="48.57839" lon="-3.79417">
        <ele>104.7</ele>
        <time>2020-06-10T13:49:31Z</time>
      </trkpt>
      <trkpt lat="48.57839" lon="-3.79412">
        <ele>104.7</ele>
        <time>2020-06-10T13:49:32Z</time>
      </trkpt>
      <trkpt lat="48.57838" lon="-3.79407">
        <ele>104.8</ele>
        <time>2020-06-10T13:49:33Z</time>
      </trkpt>
      <trkpt lat="48.57837" lon="-3.79402">
        <ele>104.8</ele>
        <time>2020-06-10T13:49:34Z</time>
      </trkpt>
      <trkpt lat="48.57837" lon="-3.79396">
        <ele>104.9</ele>
        <time>2020-06-10T13:49:35Z</time>
      </trkpt>
      <trkpt lat="48.57836" lon="-3.7939">
        <ele>104.9</ele>
        <time>2020-06-10T13:49:36Z</time>
      </trkpt>
      <trkpt lat="48.57836" lon="-3.79383">
        <ele>104.9</ele>
        <time>2020-06-10T13:49:37Z</time>
      </trkpt>
      <trkpt lat="48.57835" lon="-3.79377">
        <ele>104.9</ele>
        <time>2020-06-10T13:49:38Z</time>
      </trkpt>
      <trkpt lat="48.57834" lon="-3.7937">
        <ele>105</ele>
        <time>2020-06-10T13:49:39Z</time>
      </trkpt>
      <trkpt lat="48.57834" lon="-3.79363">
        <ele>105</ele>
        <time>2020-06-10T13:49:40Z</time>
      </trkpt>
      <trkpt lat="48.57833" lon="-3.79359">
        <ele>105</ele>
        <time>2020-06-10T13:49:41Z</time>
      </trkpt>
      <trkpt lat="48.57833" lon="-3.79353">
        <ele>105</ele>
        <time>2020-06-10T13:49:42Z</time>
      </trkpt>
      <trkpt lat="48.57832" lon="-3.79347">
        <ele>105</ele>
        <time>2020-06-10T13:49:43Z</time>
      </trkpt>
      <trkpt lat="48.57831" lon="-3.79341">
        <ele>105</ele>
        <time>2020-06-10T13:49:44Z</time>
      </trkpt>
      <trkpt lat="48.5783" lon="-3.79335">
        <ele>105</ele>
        <time>2020-06-10T13:49:45Z</time>
      </trkpt>
      <trkpt lat="48.57829" lon="-3.79329">
        <ele>105</ele>
        <time>2020-06-10T13:49:46Z</time>
      </trkpt>
      <trkpt lat="48.57829" lon="-3.79321">
        <ele>105.1</ele>
        <time>2020-06-10T13:49:47Z</time>
      </trkpt>
      <trkpt lat="48.57829" lon="-3.79316">
        <ele>105.1</ele>
        <time>2020-06-10T13:49:48Z</time>
      </trkpt>
      <trkpt lat="48.57828" lon="-3.7931">
        <ele>105.1</ele>
        <time>2020-06-10T13:49:49Z</time>
      </trkpt>
      <trkpt lat="48.57827" lon="-3.79305">
        <ele>105.1</ele>
        <time>2020-06-10T13:49:50Z</time>
      </trkpt>
      <trkpt lat="48.57826" lon="-3.79299">
        <ele>105.1</ele>
        <time>2020-06-10T13:49:51Z</time>
      </trkpt>
      <trkpt lat="48.57825" lon="-3.79294">
        <ele>105.1</ele>
        <time>2020-06-10T13:49:52Z</time>
      </trkpt>
      <trkpt lat="48.57825" lon="-3.79289">
        <ele>105.1</ele>
        <time>2020-06-10T13:49:53Z</time>
      </trkpt>
      <trkpt lat="48.57824" lon="-3.79283">
        <ele>105.1</ele>
        <time>2020-06-10T13:49:54Z</time>
      </trkpt>
      <trkpt lat="48.57825" lon="-3.79277">
        <ele>105</ele>
        <time>2020-06-10T13:49:55Z</time>
      </trkpt>
      <trkpt lat="48.57824" lon="-3.7927">
        <ele>105</ele>
        <time>2020-06-10T13:49:56Z</time>
      </trkpt>
      <trkpt lat="48.57824" lon="-3.79263">
        <ele>104.9</ele>
        <time>2020-06-10T13:49:57Z</time>
      </trkpt>
      <trkpt lat="48.57822" lon="-3.79256">
        <ele>104.8</ele>
        <time>2020-06-10T13:49:58Z</time>
      </trkpt>
      <trkpt lat="48.57822" lon="-3.79249">
        <ele>104.7</ele>
        <time>2020-06-10T13:49:59Z</time>
      </trkpt>
      <trkpt lat="48.57821" lon="-3.79243">
        <ele>104.6</ele>
        <time>2020-06-10T13:50:00Z</time>
      </trkpt>
      <trkpt lat="48.5782" lon="-3.79235">
        <ele>104.5</ele>
        <time>2020-06-10T13:50:01Z</time>
      </trkpt>
      <trkpt lat="48.57819" lon="-3.79227">
        <ele>104.4</ele>
        <time>2020-06-10T13:50:02Z</time>
      </trkpt>
      <trkpt lat="48.57818" lon="-3.79218">
        <ele>104.3</ele>
        <time>2020-06-10T13:50:03Z</time>
      </trkpt>
      <trkpt lat="48.57817" lon="-3.79211">
        <ele>104.2</ele>
        <time>2020-06-10T13:50:04Z</time>
      </trkpt>
      <trkpt lat="48.57816" lon="-3.79204">
        <ele>104.1</ele>
        <time>2020-06-10T13:50:05Z</time>
      </trkpt>
      <trkpt lat="48.57815" lon="-3.79195">
        <ele>104</ele>
        <time>2020-06-10T13:50:06Z</time>
      </trkpt>
      <trkpt lat="48.57815" lon="-3.79188">
        <ele>103.8</ele>
        <time>2020-06-10T13:50:07Z</time>
      </trkpt>
      <trkpt lat="48.57814" lon="-3.7918">
        <ele>103.7</ele>
        <time>2020-06-10T13:50:08Z</time>
      </trkpt>
      <trkpt lat="48.57813" lon="-3.79171">
        <ele>103.6</ele>
        <time>2020-06-10T13:50:09Z</time>
      </trkpt>
      <trkpt lat="48.57813" lon="-3.79162">
        <ele>103.4</ele>
        <time>2020-06-10T13:50:10Z</time>
      </trkpt>
      <trkpt lat="48.57813" lon="-3.79152">
        <ele>103.3</ele>
        <time>2020-06-10T13:50:11Z</time>
      </trkpt>
      <trkpt lat="48.57812" lon="-3.79143">
        <ele>103.2</ele>
        <time>2020-06-10T13:50:12Z</time>
      </trkpt>
      <trkpt lat="48.57811" lon="-3.79134">
        <ele>103.1</ele>
        <time>2020-06-10T13:50:13Z</time>
      </trkpt>
      <trkpt lat="48.57811" lon="-3.79124">
        <ele>102.9</ele>
        <time>2020-06-10T13:50:14Z</time>
      </trkpt>
      <trkpt lat="48.5781" lon="-3.79115">
        <ele>102.8</ele>
        <time>2020-06-10T13:50:15Z</time>
      </trkpt>
      <trkpt lat="48.57809" lon="-3.79106">
        <ele>102.7</ele>
        <time>2020-06-10T13:50:16Z</time>
      </trkpt>
      <trkpt lat="48.57808" lon="-3.79097">
        <ele>102.6</ele>
        <time>2020-06-10T13:50:17Z</time>
      </trkpt>
      <trkpt lat="48.57807" lon="-3.79089">
        <ele>102.5</ele>
        <time>2020-06-10T13:50:18Z</time>
      </trkpt>
      <trkpt lat="48.57805" lon="-3.79081">
        <ele>102.4</ele>
        <time>2020-06-10T13:50:19Z</time>
      </trkpt>
      <trkpt lat="48.57805" lon="-3.79073">
        <ele>102.3</ele>
        <time>2020-06-10T13:50:20Z</time>
      </trkpt>
      <trkpt lat="48.57804" lon="-3.79064">
        <ele>102.2</ele>
        <time>2020-06-10T13:50:21Z</time>
      </trkpt>
      <trkpt lat="48.57803" lon="-3.79055">
        <ele>102.2</ele>
        <time>2020-06-10T13:50:22Z</time>
      </trkpt>
      <trkpt lat="48.57802" lon="-3.79046">
        <ele>102.2</ele>
        <time>2020-06-10T13:50:23Z</time>
      </trkpt>
      <trkpt lat="48.57801" lon="-3.79037">
        <ele>102.1</ele>
        <time>2020-06-10T13:50:24Z</time>
      </trkpt>
      <trkpt lat="48.57801" lon="-3.79028">
        <ele>102.1</ele>
        <time>2020-06-10T13:50:25Z</time>
      </trkpt>
      <trkpt lat="48.57799" lon="-3.79019">
        <ele>102</ele>
        <time>2020-06-10T13:50:26Z</time>
      </trkpt>
      <trkpt lat="48.57798" lon="-3.7901">
        <ele>102.1</ele>
        <time>2020-06-10T13:50:27Z</time>
      </trkpt>
      <trkpt lat="48.57797" lon="-3.79">
        <ele>102.1</ele>
        <time>2020-06-10T13:50:28Z</time>
      </trkpt>
      <trkpt lat="48.57796" lon="-3.7899">
        <ele>102.2</ele>
        <time>2020-06-10T13:50:29Z</time>
      </trkpt>
      <trkpt lat="48.57796" lon="-3.78983">
        <ele>102.2</ele>
        <time>2020-06-10T13:50:30Z</time>
      </trkpt>
      <trkpt lat="48.57795" lon="-3.78974">
        <ele>102.2</ele>
        <time>2020-06-10T13:50:31Z</time>
      </trkpt>
      <trkpt lat="48.57795" lon="-3.78965">
        <ele>102.2</ele>
        <time>2020-06-10T13:50:32Z</time>
      </trkpt>
      <trkpt lat="48.57795" lon="-3.78956">
        <ele>102.2</ele>
        <time>2020-06-10T13:50:33Z</time>
      </trkpt>
      <trkpt lat="48.57794" lon="-3.78946">
        <ele>102.2</ele>
        <time>2020-06-10T13:50:34Z</time>
      </trkpt>
      <trkpt lat="48.57793" lon="-3.78938">
        <ele>102.3</ele>
        <time>2020-06-10T13:50:35Z</time>
      </trkpt>
      <trkpt lat="48.57791" lon="-3.78928">
        <ele>102.4</ele>
        <time>2020-06-10T13:50:36Z</time>
      </trkpt>
      <trkpt lat="48.57791" lon="-3.78917">
        <ele>102.5</ele>
        <time>2020-06-10T13:50:37Z</time>
      </trkpt>
      <trkpt lat="48.5779" lon="-3.78908">
        <ele>102.6</ele>
        <time>2020-06-10T13:50:38Z</time>
      </trkpt>
      <trkpt lat="48.57789" lon="-3.78902">
        <ele>102.7</ele>
        <time>2020-06-10T13:50:39Z</time>
      </trkpt>
      <trkpt lat="48.57789" lon="-3.78893">
        <ele>102.8</ele>
        <time>2020-06-10T13:50:40Z</time>
      </trkpt>
      <trkpt lat="48.57788" lon="-3.78884">
        <ele>103</ele>
        <time>2020-06-10T13:50:41Z</time>
      </trkpt>
      <trkpt lat="48.57787" lon="-3.78875">
        <ele>103.1</ele>
        <time>2020-06-10T13:50:42Z</time>
      </trkpt>
      <trkpt lat="48.57786" lon="-3.78866">
        <ele>103.3</ele>
        <time>2020-06-10T13:50:43Z</time>
      </trkpt>
      <trkpt lat="48.57785" lon="-3.78858">
        <ele>103.5</ele>
        <time>2020-06-10T13:50:44Z</time>
      </trkpt>
      <trkpt lat="48.57784" lon="-3.78849">
        <ele>103.7</ele>
        <time>2020-06-10T13:50:45Z</time>
      </trkpt>
      <trkpt lat="48.57783" lon="-3.7884">
        <ele>103.8</ele>
        <time>2020-06-10T13:50:46Z</time>
      </trkpt>
      <trkpt lat="48.57783" lon="-3.78832">
        <ele>104</ele>
        <time>2020-06-10T13:50:47Z</time>
      </trkpt>
      <trkpt lat="48.57783" lon="-3.78825">
        <ele>104.1</ele>
        <time>2020-06-10T13:50:48Z</time>
      </trkpt>
      <trkpt lat="48.57782" lon="-3.78818">
        <ele>104.2</ele>
        <time>2020-06-10T13:50:49Z</time>
      </trkpt>
      <trkpt lat="48.57781" lon="-3.78811">
        <ele>104.3</ele>
        <time>2020-06-10T13:50:50Z</time>
      </trkpt>
      <trkpt lat="48.5778" lon="-3.78804">
        <ele>104.5</ele>
        <time>2020-06-10T13:50:51Z</time>
      </trkpt>
      <trkpt lat="48.57778" lon="-3.78797">
        <ele>104.6</ele>
        <time>2020-06-10T13:50:52Z</time>
      </trkpt>
      <trkpt lat="48.57778" lon="-3.78789">
        <ele>104.7</ele>
        <time>2020-06-10T13:50:53Z</time>
      </trkpt>
      <trkpt lat="48.57778" lon="-3.7878">
        <ele>104.9</ele>
        <time>2020-06-10T13:50:54Z</time>
      </trkpt>
      <trkpt lat="48.57776" lon="-3.78773">
        <ele>105</ele>
        <time>2020-06-10T13:50:55Z</time>
      </trkpt>
      <trkpt lat="48.57776" lon="-3.78762">
        <ele>105.2</ele>
        <time>2020-06-10T13:50:56Z</time>
      </trkpt>
      <trkpt lat="48.57776" lon="-3.78755">
        <ele>105.3</ele>
        <time>2020-06-10T13:50:57Z</time>
      </trkpt>
      <trkpt lat="48.57775" lon="-3.78745">
        <ele>105.5</ele>
        <time>2020-06-10T13:50:58Z</time>
      </trkpt>
      <trkpt lat="48.57775" lon="-3.78738">
        <ele>105.6</ele>
        <time>2020-06-10T13:50:59Z</time>
      </trkpt>
      <trkpt lat="48.57773" lon="-3.78731">
        <ele>105.7</ele>
        <time>2020-06-10T13:51:00Z</time>
      </trkpt>
      <trkpt lat="48.57772" lon="-3.78724">
        <ele>105.8</ele>
        <time>2020-06-10T13:51:01Z</time>
      </trkpt>
      <trkpt lat="48.57772" lon="-3.78717">
        <ele>105.9</ele>
        <time>2020-06-10T13:51:02Z</time>
      </trkpt>
      <trkpt lat="48.57772" lon="-3.78709">
        <ele>106.1</ele>
        <time>2020-06-10T13:51:03Z</time>
      </trkpt>
      <trkpt lat="48.57771" lon="-3.78701">
        <ele>106.2</ele>
        <time>2020-06-10T13:51:04Z</time>
      </trkpt>
      <trkpt lat="48.57771" lon="-3.78695">
        <ele>106.3</ele>
        <time>2020-06-10T13:51:05Z</time>
      </trkpt>
      <trkpt lat="48.57771" lon="-3.78688">
        <ele>106.4</ele>
        <time>2020-06-10T13:51:06Z</time>
      </trkpt>
      <trkpt lat="48.5777" lon="-3.78681">
        <ele>106.5</ele>
        <time>2020-06-10T13:51:07Z</time>
      </trkpt>
      <trkpt lat="48.5777" lon="-3.78674">
        <ele>106.6</ele>
        <time>2020-06-10T13:51:08Z</time>
      </trkpt>
      <trkpt lat="48.57768" lon="-3.78667">
        <ele>106.7</ele>
        <time>2020-06-10T13:51:09Z</time>
      </trkpt>
      <trkpt lat="48.57768" lon="-3.7866">
        <ele>106.7</ele>
        <time>2020-06-10T13:51:10Z</time>
      </trkpt>
      <trkpt lat="48.57767" lon="-3.78652">
        <ele>106.8</ele>
        <time>2020-06-10T13:51:11Z</time>
      </trkpt>
      <trkpt lat="48.57766" lon="-3.78642">
        <ele>107</ele>
        <time>2020-06-10T13:51:12Z</time>
      </trkpt>
      <trkpt lat="48.57766" lon="-3.78634">
        <ele>107.1</ele>
        <time>2020-06-10T13:51:13Z</time>
      </trkpt>
      <trkpt lat="48.57765" lon="-3.78624">
        <ele>107.3</ele>
        <time>2020-06-10T13:51:14Z</time>
      </trkpt>
      <trkpt lat="48.57764" lon="-3.78614">
        <ele>107.4</ele>
        <time>2020-06-10T13:51:15Z</time>
      </trkpt>
      <trkpt lat="48.57764" lon="-3.78605">
        <ele>107.6</ele>
        <time>2020-06-10T13:51:16Z</time>
      </trkpt>
      <trkpt lat="48.57763" lon="-3.78596">
        <ele>107.6</ele>
        <time>2020-06-10T13:51:17Z</time>
      </trkpt>
      <trkpt lat="48.57762" lon="-3.78588">
        <ele>107.7</ele>
        <time>2020-06-10T13:51:18Z</time>
      </trkpt>
      <trkpt lat="48.57761" lon="-3.78579">
        <ele>107.8</ele>
        <time>2020-06-10T13:51:19Z</time>
      </trkpt>
      <trkpt lat="48.5776" lon="-3.78569">
        <ele>107.9</ele>
        <time>2020-06-10T13:51:20Z</time>
      </trkpt>
      <trkpt lat="48.57759" lon="-3.7856">
        <ele>108</ele>
        <time>2020-06-10T13:51:21Z</time>
      </trkpt>
      <trkpt lat="48.57758" lon="-3.78552">
        <ele>108</ele>
        <time>2020-06-10T13:51:22Z</time>
      </trkpt>
      <trkpt lat="48.57757" lon="-3.78542">
        <ele>108.2</ele>
        <time>2020-06-10T13:51:23Z</time>
      </trkpt>
      <trkpt lat="48.57756" lon="-3.78533">
        <ele>108.3</ele>
        <time>2020-06-10T13:51:24Z</time>
      </trkpt>
      <trkpt lat="48.57755" lon="-3.78525">
        <ele>108.4</ele>
        <time>2020-06-10T13:51:25Z</time>
      </trkpt>
      <trkpt lat="48.57754" lon="-3.78515">
        <ele>108.5</ele>
        <time>2020-06-10T13:51:26Z</time>
      </trkpt>
      <trkpt lat="48.57754" lon="-3.78505">
        <ele>108.6</ele>
        <time>2020-06-10T13:51:27Z</time>
      </trkpt>
      <trkpt lat="48.57753" lon="-3.78497">
        <ele>108.7</ele>
        <time>2020-06-10T13:51:28Z</time>
      </trkpt>
      <trkpt lat="48.57752" lon="-3.78491">
        <ele>108.8</ele>
        <time>2020-06-10T13:51:29Z</time>
      </trkpt>
      <trkpt lat="48.57751" lon="-3.78482">
        <ele>108.9</ele>
        <time>2020-06-10T13:51:30Z</time>
      </trkpt>
      <trkpt lat="48.57749" lon="-3.7847">
        <ele>109</ele>
        <time>2020-06-10T13:51:31Z</time>
      </trkpt>
      <trkpt lat="48.57749" lon="-3.78461">
        <ele>109.1</ele>
        <time>2020-06-10T13:51:32Z</time>
      </trkpt>
      <trkpt lat="48.57747" lon="-3.78453">
        <ele>109.2</ele>
        <time>2020-06-10T13:51:33Z</time>
      </trkpt>
      <trkpt lat="48.57746" lon="-3.78444">
        <ele>109.3</ele>
        <time>2020-06-10T13:51:34Z</time>
      </trkpt>
      <trkpt lat="48.57746" lon="-3.78437">
        <ele>109.4</ele>
        <time>2020-06-10T13:51:35Z</time>
      </trkpt>
      <trkpt lat="48.57745" lon="-3.78428">
        <ele>109.5</ele>
        <time>2020-06-10T13:51:36Z</time>
      </trkpt>
      <trkpt lat="48.57744" lon="-3.7842">
        <ele>109.6</ele>
        <time>2020-06-10T13:51:37Z</time>
      </trkpt>
      <trkpt lat="48.57743" lon="-3.78412">
        <ele>109.7</ele>
        <time>2020-06-10T13:51:38Z</time>
      </trkpt>
      <trkpt lat="48.57742" lon="-3.78403">
        <ele>109.8</ele>
        <time>2020-06-10T13:51:39Z</time>
      </trkpt>
      <trkpt lat="48.57741" lon="-3.78394">
        <ele>109.9</ele>
        <time>2020-06-10T13:51:40Z</time>
      </trkpt>
      <trkpt lat="48.5774" lon="-3.78385">
        <ele>110</ele>
        <time>2020-06-10T13:51:41Z</time>
      </trkpt>
      <trkpt lat="48.57739" lon="-3.78378">
        <ele>110</ele>
        <time>2020-06-10T13:51:42Z</time>
      </trkpt>
      <trkpt lat="48.57738" lon="-3.78368">
        <ele>110.2</ele>
        <time>2020-06-10T13:51:43Z</time>
      </trkpt>
      <trkpt lat="48.57737" lon="-3.78359">
        <ele>110.3</ele>
        <time>2020-06-10T13:51:44Z</time>
      </trkpt>
      <trkpt lat="48.57736" lon="-3.7835">
        <ele>110.4</ele>
        <time>2020-06-10T13:51:45Z</time>
      </trkpt>
      <trkpt lat="48.57735" lon="-3.78342">
        <ele>110.5</ele>
        <time>2020-06-10T13:51:46Z</time>
      </trkpt>
      <trkpt lat="48.57734" lon="-3.78335">
        <ele>110.6</ele>
        <time>2020-06-10T13:51:47Z</time>
      </trkpt>
      <trkpt lat="48.57733" lon="-3.78327">
        <ele>110.7</ele>
        <time>2020-06-10T13:51:48Z</time>
      </trkpt>
      <trkpt lat="48.57733" lon="-3.78319">
        <ele>110.8</ele>
        <time>2020-06-10T13:51:49Z</time>
      </trkpt>
      <trkpt lat="48.57732" lon="-3.7831">
        <ele>111</ele>
        <time>2020-06-10T13:51:50Z</time>
      </trkpt>
      <trkpt lat="48.57731" lon="-3.783">
        <ele>111.1</ele>
        <time>2020-06-10T13:51:51Z</time>
      </trkpt>
      <trkpt lat="48.5773" lon="-3.78293">
        <ele>111.2</ele>
        <time>2020-06-10T13:51:52Z</time>
      </trkpt>
      <trkpt lat="48.5773" lon="-3.78284">
        <ele>111.4</ele>
        <time>2020-06-10T13:51:53Z</time>
      </trkpt>
      <trkpt lat="48.5773" lon="-3.78276">
        <ele>111.5</ele>
        <time>2020-06-10T13:51:54Z</time>
      </trkpt>
      <trkpt lat="48.5773" lon="-3.78269">
        <ele>111.6</ele>
        <time>2020-06-10T13:51:55Z</time>
      </trkpt>
      <trkpt lat="48.5773" lon="-3.7826">
        <ele>111.7</ele>
        <time>2020-06-10T13:51:56Z</time>
      </trkpt>
      <trkpt lat="48.57729" lon="-3.78252">
        <ele>111.8</ele>
        <time>2020-06-10T13:51:57Z</time>
      </trkpt>
      <trkpt lat="48.57728" lon="-3.78243">
        <ele>111.9</ele>
        <time>2020-06-10T13:51:58Z</time>
      </trkpt>
      <trkpt lat="48.57727" lon="-3.78236">
        <ele>112</ele>
        <time>2020-06-10T13:51:59Z</time>
      </trkpt>
      <trkpt lat="48.57726" lon="-3.78228">
        <ele>112</ele>
        <time>2020-06-10T13:52:00Z</time>
      </trkpt>
      <trkpt lat="48.57724" lon="-3.78219">
        <ele>112.1</ele>
        <time>2020-06-10T13:52:01Z</time>
      </trkpt>
      <trkpt lat="48.57724" lon="-3.78212">
        <ele>112.1</ele>
        <time>2020-06-10T13:52:02Z</time>
      </trkpt>
      <trkpt lat="48.57723" lon="-3.78205">
        <ele>112.1</ele>
        <time>2020-06-10T13:52:03Z</time>
      </trkpt>
      <trkpt lat="48.57723" lon="-3.78196">
        <ele>112.1</ele>
        <time>2020-06-10T13:52:04Z</time>
      </trkpt>
      <trkpt lat="48.57722" lon="-3.78188">
        <ele>112.1</ele>
        <time>2020-06-10T13:52:05Z</time>
      </trkpt>
      <trkpt lat="48.57721" lon="-3.7818">
        <ele>112.2</ele>
        <time>2020-06-10T13:52:06Z</time>
      </trkpt>
      <trkpt lat="48.5772" lon="-3.78173">
        <ele>112.3</ele>
        <time>2020-06-10T13:52:07Z</time>
      </trkpt>
      <trkpt lat="48.57719" lon="-3.78165">
        <ele>112.4</ele>
        <time>2020-06-10T13:52:08Z</time>
      </trkpt>
      <trkpt lat="48.57718" lon="-3.78156">
        <ele>112.5</ele>
        <time>2020-06-10T13:52:09Z</time>
      </trkpt>
      <trkpt lat="48.57718" lon="-3.78147">
        <ele>112.6</ele>
        <time>2020-06-10T13:52:10Z</time>
      </trkpt>
      <trkpt lat="48.57717" lon="-3.78139">
        <ele>112.7</ele>
        <time>2020-06-10T13:52:11Z</time>
      </trkpt>
      <trkpt lat="48.57716" lon="-3.78131">
        <ele>112.7</ele>
        <time>2020-06-10T13:52:12Z</time>
      </trkpt>
      <trkpt lat="48.57716" lon="-3.78122">
        <ele>112.8</ele>
        <time>2020-06-10T13:52:13Z</time>
      </trkpt>
      <trkpt lat="48.57715" lon="-3.78113">
        <ele>112.9</ele>
        <time>2020-06-10T13:52:14Z</time>
      </trkpt>
      <trkpt lat="48.57714" lon="-3.78103">
        <ele>112.9</ele>
        <time>2020-06-10T13:52:15Z</time>
      </trkpt>
      <trkpt lat="48.57713" lon="-3.78095">
        <ele>112.9</ele>
        <time>2020-06-10T13:52:16Z</time>
      </trkpt>
      <trkpt lat="48.57712" lon="-3.78086">
        <ele>113</ele>
        <time>2020-06-10T13:52:17Z</time>
      </trkpt>
      <trkpt lat="48.57711" lon="-3.78078">
        <ele>113</ele>
        <time>2020-06-10T13:52:18Z</time>
      </trkpt>
      <trkpt lat="48.57711" lon="-3.78069">
        <ele>113</ele>
        <time>2020-06-10T13:52:19Z</time>
      </trkpt>
      <trkpt lat="48.5771" lon="-3.78061">
        <ele>113.1</ele>
        <time>2020-06-10T13:52:20Z</time>
      </trkpt>
      <trkpt lat="48.57709" lon="-3.78053">
        <ele>113.1</ele>
        <time>2020-06-10T13:52:21Z</time>
      </trkpt>
      <trkpt lat="48.57708" lon="-3.78045">
        <ele>113.1</ele>
        <time>2020-06-10T13:52:22Z</time>
      </trkpt>
      <trkpt lat="48.57708" lon="-3.78038">
        <ele>113.1</ele>
        <time>2020-06-10T13:52:23Z</time>
      </trkpt>
      <trkpt lat="48.57708" lon="-3.78028">
        <ele>113.1</ele>
        <time>2020-06-10T13:52:24Z</time>
      </trkpt>
      <trkpt lat="48.57707" lon="-3.7802">
        <ele>113.1</ele>
        <time>2020-06-10T13:52:25Z</time>
      </trkpt>
      <trkpt lat="48.57707" lon="-3.78013">
        <ele>113.1</ele>
        <time>2020-06-10T13:52:26Z</time>
      </trkpt>
      <trkpt lat="48.57705" lon="-3.78003">
        <ele>113.1</ele>
        <time>2020-06-10T13:52:27Z</time>
      </trkpt>
      <trkpt lat="48.57704" lon="-3.77995">
        <ele>113.1</ele>
        <time>2020-06-10T13:52:28Z</time>
      </trkpt>
      <trkpt lat="48.57703" lon="-3.77985">
        <ele>113.2</ele>
        <time>2020-06-10T13:52:29Z</time>
      </trkpt>
      <trkpt lat="48.57703" lon="-3.77976">
        <ele>113.2</ele>
        <time>2020-06-10T13:52:30Z</time>
      </trkpt>
      <trkpt lat="48.57703" lon="-3.77968">
        <ele>113.2</ele>
        <time>2020-06-10T13:52:31Z</time>
      </trkpt>
      <trkpt lat="48.57702" lon="-3.7796">
        <ele>113.3</ele>
        <time>2020-06-10T13:52:32Z</time>
      </trkpt>
      <trkpt lat="48.57701" lon="-3.77953">
        <ele>113.3</ele>
        <time>2020-06-10T13:52:33Z</time>
      </trkpt>
      <trkpt lat="48.577" lon="-3.77944">
        <ele>113.3</ele>
        <time>2020-06-10T13:52:34Z</time>
      </trkpt>
      <trkpt lat="48.57699" lon="-3.77937">
        <ele>113.3</ele>
        <time>2020-06-10T13:52:35Z</time>
      </trkpt>
      <trkpt lat="48.57698" lon="-3.77929">
        <ele>113.4</ele>
        <time>2020-06-10T13:52:36Z</time>
      </trkpt>
      <trkpt lat="48.57697" lon="-3.7792">
        <ele>113.4</ele>
        <time>2020-06-10T13:52:37Z</time>
      </trkpt>
      <trkpt lat="48.57696" lon="-3.7791">
        <ele>113.4</ele>
        <time>2020-06-10T13:52:38Z</time>
      </trkpt>
      <trkpt lat="48.57695" lon="-3.77899">
        <ele>113.5</ele>
        <time>2020-06-10T13:52:39Z</time>
      </trkpt>
      <trkpt lat="48.57694" lon="-3.77891">
        <ele>113.5</ele>
        <time>2020-06-10T13:52:40Z</time>
      </trkpt>
      <trkpt lat="48.57693" lon="-3.77882">
        <ele>113.5</ele>
        <time>2020-06-10T13:52:41Z</time>
      </trkpt>
      <trkpt lat="48.57693" lon="-3.77874">
        <ele>113.5</ele>
        <time>2020-06-10T13:52:42Z</time>
      </trkpt>
      <trkpt lat="48.57692" lon="-3.77864">
        <ele>113.5</ele>
        <time>2020-06-10T13:52:43Z</time>
      </trkpt>
      <trkpt lat="48.57692" lon="-3.77854">
        <ele>113.6</ele>
        <time>2020-06-10T13:52:44Z</time>
      </trkpt>
      <trkpt lat="48.57691" lon="-3.77843">
        <ele>113.7</ele>
        <time>2020-06-10T13:52:45Z</time>
      </trkpt>
      <trkpt lat="48.5769" lon="-3.77834">
        <ele>113.7</ele>
        <time>2020-06-10T13:52:46Z</time>
      </trkpt>
      <trkpt lat="48.57689" lon="-3.77826">
        <ele>113.8</ele>
        <time>2020-06-10T13:52:47Z</time>
      </trkpt>
      <trkpt lat="48.57688" lon="-3.77817">
        <ele>113.9</ele>
        <time>2020-06-10T13:52:48Z</time>
      </trkpt>
      <trkpt lat="48.57687" lon="-3.77807">
        <ele>113.9</ele>
        <time>2020-06-10T13:52:49Z</time>
      </trkpt>
      <trkpt lat="48.57686" lon="-3.77798">
        <ele>114</ele>
        <time>2020-06-10T13:52:50Z</time>
      </trkpt>
      <trkpt lat="48.57685" lon="-3.77789">
        <ele>114</ele>
        <time>2020-06-10T13:52:51Z</time>
      </trkpt>
      <trkpt lat="48.57684" lon="-3.77782">
        <ele>114.1</ele>
        <time>2020-06-10T13:52:52Z</time>
      </trkpt>
      <trkpt lat="48.57684" lon="-3.77774">
        <ele>114.1</ele>
        <time>2020-06-10T13:52:53Z</time>
      </trkpt>
      <trkpt lat="48.57683" lon="-3.77765">
        <ele>114.1</ele>
        <time>2020-06-10T13:52:54Z</time>
      </trkpt>
      <trkpt lat="48.57682" lon="-3.77757">
        <ele>114.2</ele>
        <time>2020-06-10T13:52:55Z</time>
      </trkpt>
      <trkpt lat="48.57682" lon="-3.77749">
        <ele>114.2</ele>
        <time>2020-06-10T13:52:56Z</time>
      </trkpt>
      <trkpt lat="48.57681" lon="-3.77741">
        <ele>114.3</ele>
        <time>2020-06-10T13:52:57Z</time>
      </trkpt>
      <trkpt lat="48.57679" lon="-3.77732">
        <ele>114.4</ele>
        <time>2020-06-10T13:52:58Z</time>
      </trkpt>
      <trkpt lat="48.57678" lon="-3.77724">
        <ele>114.4</ele>
        <time>2020-06-10T13:52:59Z</time>
      </trkpt>
      <trkpt lat="48.57677" lon="-3.77716">
        <ele>114.5</ele>
        <time>2020-06-10T13:53:00Z</time>
      </trkpt>
      <trkpt lat="48.57676" lon="-3.77708">
        <ele>114.5</ele>
        <time>2020-06-10T13:53:01Z</time>
      </trkpt>
      <trkpt lat="48.57675" lon="-3.77699">
        <ele>114.6</ele>
        <time>2020-06-10T13:53:02Z</time>
      </trkpt>
      <trkpt lat="48.57675" lon="-3.7769">
        <ele>114.7</ele>
        <time>2020-06-10T13:53:03Z</time>
      </trkpt>
      <trkpt lat="48.57675" lon="-3.77682">
        <ele>114.7</ele>
        <time>2020-06-10T13:53:04Z</time>
      </trkpt>
      <trkpt lat="48.57674" lon="-3.77673">
        <ele>114.7</ele>
        <time>2020-06-10T13:53:05Z</time>
      </trkpt>
      <trkpt lat="48.57673" lon="-3.77665">
        <ele>114.8</ele>
        <time>2020-06-10T13:53:06Z</time>
      </trkpt>
      <trkpt lat="48.57672" lon="-3.77656">
        <ele>114.8</ele>
        <time>2020-06-10T13:53:07Z</time>
      </trkpt>
      <trkpt lat="48.5767" lon="-3.77647">
        <ele>114.8</ele>
        <time>2020-06-10T13:53:08Z</time>
      </trkpt>
      <trkpt lat="48.57669" lon="-3.77639">
        <ele>114.8</ele>
        <time>2020-06-10T13:53:09Z</time>
      </trkpt>
      <trkpt lat="48.57668" lon="-3.7763">
        <ele>114.8</ele>
        <time>2020-06-10T13:53:10Z</time>
      </trkpt>
      <trkpt lat="48.57668" lon="-3.77625">
        <ele>114.8</ele>
        <time>2020-06-10T13:53:11Z</time>
      </trkpt>
      <trkpt lat="48.57667" lon="-3.77615">
        <ele>114.8</ele>
        <time>2020-06-10T13:53:12Z</time>
      </trkpt>
      <trkpt lat="48.57666" lon="-3.77607">
        <ele>114.8</ele>
        <time>2020-06-10T13:53:13Z</time>
      </trkpt>
      <trkpt lat="48.57666" lon="-3.77596">
        <ele>114.8</ele>
        <time>2020-06-10T13:53:14Z</time>
      </trkpt>
      <trkpt lat="48.57664" lon="-3.77588">
        <ele>114.8</ele>
        <time>2020-06-10T13:53:15Z</time>
      </trkpt>
      <trkpt lat="48.57663" lon="-3.77577">
        <ele>114.8</ele>
        <time>2020-06-10T13:53:16Z</time>
      </trkpt>
      <trkpt lat="48.57662" lon="-3.77567">
        <ele>114.7</ele>
        <time>2020-06-10T13:53:17Z</time>
      </trkpt>
      <trkpt lat="48.57662" lon="-3.77557">
        <ele>114.7</ele>
        <time>2020-06-10T13:53:18Z</time>
      </trkpt>
      <trkpt lat="48.57661" lon="-3.77549">
        <ele>114.6</ele>
        <time>2020-06-10T13:53:19Z</time>
      </trkpt>
      <trkpt lat="48.5766" lon="-3.7754">
        <ele>114.6</ele>
        <time>2020-06-10T13:53:20Z</time>
      </trkpt>
      <trkpt lat="48.57658" lon="-3.7753">
        <ele>114.5</ele>
        <time>2020-06-10T13:53:21Z</time>
      </trkpt>
      <trkpt lat="48.57657" lon="-3.7752">
        <ele>114.4</ele>
        <time>2020-06-10T13:53:22Z</time>
      </trkpt>
      <trkpt lat="48.57657" lon="-3.77511">
        <ele>114.3</ele>
        <time>2020-06-10T13:53:23Z</time>
      </trkpt>
      <trkpt lat="48.57656" lon="-3.77501">
        <ele>114.2</ele>
        <time>2020-06-10T13:53:24Z</time>
      </trkpt>
      <trkpt lat="48.57655" lon="-3.77492">
        <ele>114.1</ele>
        <time>2020-06-10T13:53:25Z</time>
      </trkpt>
      <trkpt lat="48.57655" lon="-3.77482">
        <ele>114</ele>
        <time>2020-06-10T13:53:26Z</time>
      </trkpt>
      <trkpt lat="48.57654" lon="-3.77472">
        <ele>113.9</ele>
        <time>2020-06-10T13:53:27Z</time>
      </trkpt>
      <trkpt lat="48.57653" lon="-3.77461">
        <ele>113.8</ele>
        <time>2020-06-10T13:53:28Z</time>
      </trkpt>
      <trkpt lat="48.57652" lon="-3.77451">
        <ele>113.7</ele>
        <time>2020-06-10T13:53:29Z</time>
      </trkpt>
      <trkpt lat="48.57651" lon="-3.7744">
        <ele>113.6</ele>
        <time>2020-06-10T13:53:30Z</time>
      </trkpt>
      <trkpt lat="48.5765" lon="-3.7743">
        <ele>113.5</ele>
        <time>2020-06-10T13:53:31Z</time>
      </trkpt>
      <trkpt lat="48.57649" lon="-3.77419">
        <ele>113.4</ele>
        <time>2020-06-10T13:53:32Z</time>
      </trkpt>
      <trkpt lat="48.57649" lon="-3.7741">
        <ele>113.3</ele>
        <time>2020-06-10T13:53:33Z</time>
      </trkpt>
      <trkpt lat="48.57648" lon="-3.774">
        <ele>113.2</ele>
        <time>2020-06-10T13:53:34Z</time>
      </trkpt>
      <trkpt lat="48.57647" lon="-3.77389">
        <ele>113.1</ele>
        <time>2020-06-10T13:53:35Z</time>
      </trkpt>
      <trkpt lat="48.57645" lon="-3.77379">
        <ele>113</ele>
        <time>2020-06-10T13:53:36Z</time>
      </trkpt>
      <trkpt lat="48.57644" lon="-3.77368">
        <ele>112.9</ele>
        <time>2020-06-10T13:53:37Z</time>
      </trkpt>
      <trkpt lat="48.57643" lon="-3.77357">
        <ele>112.8</ele>
        <time>2020-06-10T13:53:38Z</time>
      </trkpt>
      <trkpt lat="48.57642" lon="-3.77346">
        <ele>112.6</ele>
        <time>2020-06-10T13:53:39Z</time>
      </trkpt>
      <trkpt lat="48.57641" lon="-3.77336">
        <ele>112.5</ele>
        <time>2020-06-10T13:53:40Z</time>
      </trkpt>
      <trkpt lat="48.5764" lon="-3.77325">
        <ele>112.3</ele>
        <time>2020-06-10T13:53:41Z</time>
      </trkpt>
      <trkpt lat="48.57639" lon="-3.77314">
        <ele>112.2</ele>
        <time>2020-06-10T13:53:42Z</time>
      </trkpt>
      <trkpt lat="48.57638" lon="-3.77303">
        <ele>112</ele>
        <time>2020-06-10T13:53:43Z</time>
      </trkpt>
      <trkpt lat="48.57637" lon="-3.77292">
        <ele>111.8</ele>
        <time>2020-06-10T13:53:44Z</time>
      </trkpt>
      <trkpt lat="48.57636" lon="-3.77281">
        <ele>111.6</ele>
        <time>2020-06-10T13:53:45Z</time>
      </trkpt>
      <trkpt lat="48.57634" lon="-3.7727">
        <ele>111.5</ele>
        <time>2020-06-10T13:53:46Z</time>
      </trkpt>
      <trkpt lat="48.57633" lon="-3.77259">
        <ele>111.3</ele>
        <time>2020-06-10T13:53:47Z</time>
      </trkpt>
      <trkpt lat="48.57632" lon="-3.77248">
        <ele>111.1</ele>
        <time>2020-06-10T13:53:48Z</time>
      </trkpt>
      <trkpt lat="48.57631" lon="-3.77236">
        <ele>110.8</ele>
        <time>2020-06-10T13:53:49Z</time>
      </trkpt>
      <trkpt lat="48.5763" lon="-3.77225">
        <ele>110.5</ele>
        <time>2020-06-10T13:53:50Z</time>
      </trkpt>
      <trkpt lat="48.57629" lon="-3.77213">
        <ele>110.2</ele>
        <time>2020-06-10T13:53:51Z</time>
      </trkpt>
      <trkpt lat="48.57628" lon="-3.77201">
        <ele>109.9</ele>
        <time>2020-06-10T13:53:52Z</time>
      </trkpt>
      <trkpt lat="48.57627" lon="-3.77189">
        <ele>109.5</ele>
        <time>2020-06-10T13:53:53Z</time>
      </trkpt>
      <trkpt lat="48.57625" lon="-3.77177">
        <ele>109</ele>
        <time>2020-06-10T13:53:54Z</time>
      </trkpt>
      <trkpt lat="48.57624" lon="-3.77164">
        <ele>108.5</ele>
        <time>2020-06-10T13:53:55Z</time>
      </trkpt>
      <trkpt lat="48.57623" lon="-3.77151">
        <ele>108.1</ele>
        <time>2020-06-10T13:53:56Z</time>
      </trkpt>
      <trkpt lat="48.57622" lon="-3.77138">
        <ele>107.7</ele>
        <time>2020-06-10T13:53:57Z</time>
      </trkpt>
      <trkpt lat="48.57621" lon="-3.77125">
        <ele>107.3</ele>
        <time>2020-06-10T13:53:58Z</time>
      </trkpt>
      <trkpt lat="48.57619" lon="-3.77112">
        <ele>107</ele>
        <time>2020-06-10T13:53:59Z</time>
      </trkpt>
      <trkpt lat="48.57618" lon="-3.77099">
        <ele>106.7</ele>
        <time>2020-06-10T13:54:00Z</time>
      </trkpt>
      <trkpt lat="48.57616" lon="-3.77085">
        <ele>106.6</ele>
        <time>2020-06-10T13:54:01Z</time>
      </trkpt>
      <trkpt lat="48.57614" lon="-3.77072">
        <ele>106.5</ele>
        <time>2020-06-10T13:54:02Z</time>
      </trkpt>
      <trkpt lat="48.57613" lon="-3.77058">
        <ele>106.4</ele>
        <time>2020-06-10T13:54:03Z</time>
      </trkpt>
      <trkpt lat="48.57612" lon="-3.77045">
        <ele>106.4</ele>
        <time>2020-06-10T13:54:04Z</time>
      </trkpt>
      <trkpt lat="48.5761" lon="-3.77032">
        <ele>106.5</ele>
        <time>2020-06-10T13:54:05Z</time>
      </trkpt>
      <trkpt lat="48.57609" lon="-3.7702">
        <ele>106.7</ele>
        <time>2020-06-10T13:54:06Z</time>
      </trkpt>
      <trkpt lat="48.57607" lon="-3.77007">
        <ele>106.9</ele>
        <time>2020-06-10T13:54:07Z</time>
      </trkpt>
      <trkpt lat="48.57606" lon="-3.76995">
        <ele>107.2</ele>
        <time>2020-06-10T13:54:08Z</time>
      </trkpt>
      <trkpt lat="48.57606" lon="-3.76984">
        <ele>107.5</ele>
        <time>2020-06-10T13:54:09Z</time>
      </trkpt>
      <trkpt lat="48.57605" lon="-3.76972">
        <ele>107.9</ele>
        <time>2020-06-10T13:54:10Z</time>
      </trkpt>
      <trkpt lat="48.57604" lon="-3.76961">
        <ele>108.3</ele>
        <time>2020-06-10T13:54:11Z</time>
      </trkpt>
      <trkpt lat="48.57603" lon="-3.76951">
        <ele>108.8</ele>
        <time>2020-06-10T13:54:12Z</time>
      </trkpt>
      <trkpt lat="48.57602" lon="-3.76941">
        <ele>109.3</ele>
        <time>2020-06-10T13:54:13Z</time>
      </trkpt>
      <trkpt lat="48.57601" lon="-3.76932">
        <ele>109.7</ele>
        <time>2020-06-10T13:54:14Z</time>
      </trkpt>
      <trkpt lat="48.576" lon="-3.76922">
        <ele>110.2</ele>
        <time>2020-06-10T13:54:15Z</time>
      </trkpt>
      <trkpt lat="48.57599" lon="-3.76913">
        <ele>110.6</ele>
        <time>2020-06-10T13:54:16Z</time>
      </trkpt>
      <trkpt lat="48.57599" lon="-3.76905">
        <ele>110.9</ele>
        <time>2020-06-10T13:54:17Z</time>
      </trkpt>
      <trkpt lat="48.57597" lon="-3.76897">
        <ele>111.2</ele>
        <time>2020-06-10T13:54:18Z</time>
      </trkpt>
      <trkpt lat="48.57596" lon="-3.76889">
        <ele>111.5</ele>
        <time>2020-06-10T13:54:19Z</time>
      </trkpt>
      <trkpt lat="48.57595" lon="-3.76882">
        <ele>111.8</ele>
        <time>2020-06-10T13:54:20Z</time>
      </trkpt>
      <trkpt lat="48.57595" lon="-3.76875">
        <ele>112.1</ele>
        <time>2020-06-10T13:54:21Z</time>
      </trkpt>
      <trkpt lat="48.57594" lon="-3.76868">
        <ele>112.4</ele>
        <time>2020-06-10T13:54:22Z</time>
      </trkpt>
      <trkpt lat="48.57594" lon="-3.76862">
        <ele>112.6</ele>
        <time>2020-06-10T13:54:23Z</time>
      </trkpt>
      <trkpt lat="48.57592" lon="-3.76856">
        <ele>112.9</ele>
        <time>2020-06-10T13:54:24Z</time>
      </trkpt>
      <trkpt lat="48.57592" lon="-3.76849">
        <ele>113.1</ele>
        <time>2020-06-10T13:54:25Z</time>
      </trkpt>
      <trkpt lat="48.57591" lon="-3.76842">
        <ele>113.4</ele>
        <time>2020-06-10T13:54:26Z</time>
      </trkpt>
      <trkpt lat="48.57591" lon="-3.76835">
        <ele>113.6</ele>
        <time>2020-06-10T13:54:27Z</time>
      </trkpt>
      <trkpt lat="48.5759" lon="-3.76828">
        <ele>113.9</ele>
        <time>2020-06-10T13:54:28Z</time>
      </trkpt>
      <trkpt lat="48.57589" lon="-3.76821">
        <ele>114.1</ele>
        <time>2020-06-10T13:54:29Z</time>
      </trkpt>
      <trkpt lat="48.57588" lon="-3.76814">
        <ele>114.4</ele>
        <time>2020-06-10T13:54:30Z</time>
      </trkpt>
      <trkpt lat="48.57588" lon="-3.76807">
        <ele>114.6</ele>
        <time>2020-06-10T13:54:31Z</time>
      </trkpt>
      <trkpt lat="48.57586" lon="-3.76801">
        <ele>114.8</ele>
        <time>2020-06-10T13:54:32Z</time>
      </trkpt>
      <trkpt lat="48.57586" lon="-3.76794">
        <ele>115.1</ele>
        <time>2020-06-10T13:54:33Z</time>
      </trkpt>
      <trkpt lat="48.57585" lon="-3.76787">
        <ele>115.3</ele>
        <time>2020-06-10T13:54:34Z</time>
      </trkpt>
      <trkpt lat="48.57584" lon="-3.7678">
        <ele>115.5</ele>
        <time>2020-06-10T13:54:35Z</time>
      </trkpt>
      <trkpt lat="48.57583" lon="-3.76773">
        <ele>115.7</ele>
        <time>2020-06-10T13:54:36Z</time>
      </trkpt>
      <trkpt lat="48.57582" lon="-3.76766">
        <ele>115.8</ele>
        <time>2020-06-10T13:54:37Z</time>
      </trkpt>
      <trkpt lat="48.57581" lon="-3.76762">
        <ele>115.8</ele>
        <time>2020-06-10T13:54:38Z</time>
      </trkpt>
      <trkpt lat="48.57578" lon="-3.76758">
        <ele>115.9</ele>
        <time>2020-06-10T13:54:39Z</time>
      </trkpt>
      <trkpt lat="48.57577" lon="-3.76755">
        <ele>116.1</ele>
        <time>2020-06-10T13:54:40Z</time>
      </trkpt>
      <trkpt lat="48.57576" lon="-3.76749">
        <ele>116.2</ele>
        <time>2020-06-10T13:54:41Z</time>
      </trkpt>
      <trkpt lat="48.57577" lon="-3.76744">
        <ele>116.4</ele>
        <time>2020-06-10T13:54:42Z</time>
      </trkpt>
      <trkpt lat="48.57576" lon="-3.76738">
        <ele>116.5</ele>
        <time>2020-06-10T13:54:43Z</time>
      </trkpt>
      <trkpt lat="48.57575" lon="-3.76734">
        <ele>116.6</ele>
        <time>2020-06-10T13:54:44Z</time>
      </trkpt>
      <trkpt lat="48.57574" lon="-3.76729">
        <ele>116.8</ele>
        <time>2020-06-10T13:54:45Z</time>
      </trkpt>
      <trkpt lat="48.57573" lon="-3.76723">
        <ele>116.9</ele>
        <time>2020-06-10T13:54:46Z</time>
      </trkpt>
      <trkpt lat="48.57572" lon="-3.76716">
        <ele>117.1</ele>
        <time>2020-06-10T13:54:47Z</time>
      </trkpt>
      <trkpt lat="48.57571" lon="-3.7671">
        <ele>117.2</ele>
        <time>2020-06-10T13:54:48Z</time>
      </trkpt>
      <trkpt lat="48.57571" lon="-3.76704">
        <ele>117.3</ele>
        <time>2020-06-10T13:54:49Z</time>
      </trkpt>
      <trkpt lat="48.57571" lon="-3.767">
        <ele>117.4</ele>
        <time>2020-06-10T13:54:50Z</time>
      </trkpt>
      <trkpt lat="48.5757" lon="-3.76692">
        <ele>117.5</ele>
        <time>2020-06-10T13:54:51Z</time>
      </trkpt>
      <trkpt lat="48.5757" lon="-3.76688">
        <ele>117.6</ele>
        <time>2020-06-10T13:54:52Z</time>
      </trkpt>
      <trkpt lat="48.5757" lon="-3.76681">
        <ele>117.7</ele>
        <time>2020-06-10T13:54:53Z</time>
      </trkpt>
      <trkpt lat="48.5757" lon="-3.76679">
        <ele>117.7</ele>
        <time>2020-06-10T13:54:54Z</time>
      </trkpt>
      <trkpt lat="48.5757" lon="-3.7667">
        <ele>117.8</ele>
        <time>2020-06-10T13:54:55Z</time>
      </trkpt>
      <trkpt lat="48.57569" lon="-3.76663">
        <ele>117.9</ele>
        <time>2020-06-10T13:54:56Z</time>
      </trkpt>
      <trkpt lat="48.57569" lon="-3.76658">
        <ele>118</ele>
        <time>2020-06-10T13:54:57Z</time>
      </trkpt>
      <trkpt lat="48.57569" lon="-3.76652">
        <ele>118</ele>
        <time>2020-06-10T13:54:58Z</time>
      </trkpt>
      <trkpt lat="48.57568" lon="-3.76645">
        <ele>118.1</ele>
        <time>2020-06-10T13:54:59Z</time>
      </trkpt>
      <trkpt lat="48.57567" lon="-3.76636">
        <ele>118.2</ele>
        <time>2020-06-10T13:55:00Z</time>
      </trkpt>
      <trkpt lat="48.57566" lon="-3.76631">
        <ele>118.3</ele>
        <time>2020-06-10T13:55:01Z</time>
      </trkpt>
      <trkpt lat="48.57565" lon="-3.76627">
        <ele>118.3</ele>
        <time>2020-06-10T13:55:02Z</time>
      </trkpt>
      <trkpt lat="48.57565" lon="-3.76623">
        <ele>118.4</ele>
        <time>2020-06-10T13:55:03Z</time>
      </trkpt>
      <trkpt lat="48.57565" lon="-3.76623">
        <ele>118.4</ele>
        <time>2020-06-10T13:55:04Z</time>
      </trkpt>
      <trkpt lat="48.57565" lon="-3.76624">
        <ele>118.4</ele>
        <time>2020-06-10T13:55:05Z</time>
      </trkpt>
      <trkpt lat="48.57566" lon="-3.76626">
        <ele>118.4</ele>
        <time>2020-06-10T13:55:06Z</time>
      </trkpt>
      <trkpt lat="48.57567" lon="-3.76627">
        <ele>118.4</ele>
        <time>2020-06-10T13:55:07Z</time>
      </trkpt>
      <trkpt lat="48.57567" lon="-3.76627">
        <ele>118.4</ele>
        <time>2020-06-10T13:55:08Z</time>
      </trkpt>
      <trkpt lat="48.57567" lon="-3.76626">
        <ele>118.4</ele>
        <time>2020-06-10T13:55:09Z</time>
      </trkpt>
      <trkpt lat="48.57567" lon="-3.76625">
        <ele>118.4</ele>
        <time>2020-06-10T13:55:10Z</time>
      </trkpt>
      <trkpt lat="48.57567" lon="-3.76625">
        <ele>118.5</ele>
        <time>2020-06-10T13:55:11Z</time>
      </trkpt>
      <trkpt lat="48.57567" lon="-3.76624">
        <ele>118.5</ele>
        <time>2020-06-10T13:55:12Z</time>
      </trkpt>
      <trkpt lat="48.57567" lon="-3.76623">
        <ele>118.5</ele>
        <time>2020-06-10T13:55:13Z</time>
      </trkpt>
      <trkpt lat="48.57567" lon="-3.76622">
        <ele>118.5</ele>
        <time>2020-06-10T13:55:14Z</time>
      </trkpt>
      <trkpt lat="48.57567" lon="-3.76622">
        <ele>118.5</ele>
        <time>2020-06-10T13:55:15Z</time>
      </trkpt>
      <trkpt lat="48.57567" lon="-3.76621">
        <ele>118.5</ele>
        <time>2020-06-10T13:55:16Z</time>
      </trkpt>
      <trkpt lat="48.57566" lon="-3.7662">
        <ele>118.5</ele>
        <time>2020-06-10T13:55:17Z</time>
      </trkpt>
      <trkpt lat="48.57566" lon="-3.76619">
        <ele>118.5</ele>
        <time>2020-06-10T13:55:18Z</time>
      </trkpt>
      <trkpt lat="48.57566" lon="-3.76618">
        <ele>118.5</ele>
        <time>2020-06-10T13:55:19Z</time>
      </trkpt>
      <trkpt lat="48.57566" lon="-3.76618">
        <ele>118.5</ele>
        <time>2020-06-10T13:55:20Z</time>
      </trkpt>
      <trkpt lat="48.57566" lon="-3.76617">
        <ele>118.5</ele>
        <time>2020-06-10T13:55:21Z</time>
      </trkpt>
      <trkpt lat="48.57566" lon="-3.76616">
        <ele>118.5</ele>
        <time>2020-06-10T13:55:22Z</time>
      </trkpt>
      <trkpt lat="48.57566" lon="-3.76615">
        <ele>118.6</ele>
        <time>2020-06-10T13:55:23Z</time>
      </trkpt>
      <trkpt lat="48.57566" lon="-3.76614">
        <ele>118.6</ele>
        <time>2020-06-10T13:57:44Z</time>
      </trkpt>
      <trkpt lat="48.57566" lon="-3.76614">
        <ele>118.6</ele>
        <time>2020-06-10T13:57:45Z</time>
      </trkpt>
      <trkpt lat="48.57565" lon="-3.76609">
        <ele>118.6</ele>
        <time>2020-06-10T13:57:46Z</time>
      </trkpt>
      <trkpt lat="48.57565" lon="-3.76607">
        <ele>118.6</ele>
        <time>2020-06-10T13:57:47Z</time>
      </trkpt>
      <trkpt lat="48.57564" lon="-3.76603">
        <ele>118.7</ele>
        <time>2020-06-10T13:57:48Z</time>
      </trkpt>
      <trkpt lat="48.57563" lon="-3.76602">
        <ele>118.7</ele>
        <time>2020-06-10T13:57:49Z</time>
      </trkpt>
      <trkpt lat="48.57563" lon="-3.76596">
        <ele>118.7</ele>
        <time>2020-06-10T13:57:50Z</time>
      </trkpt>
      <trkpt lat="48.57563" lon="-3.76595">
        <ele>118.8</ele>
        <time>2020-06-10T13:57:51Z</time>
      </trkpt>
      <trkpt lat="48.57562" lon="-3.7659">
        <ele>118.8</ele>
        <time>2020-06-10T13:57:52Z</time>
      </trkpt>
      <trkpt lat="48.57562" lon="-3.76589">
        <ele>118.8</ele>
        <time>2020-06-10T13:57:53Z</time>
      </trkpt>
      <trkpt lat="48.57561" lon="-3.76583">
        <ele>118.9</ele>
        <time>2020-06-10T13:57:54Z</time>
      </trkpt>
      <trkpt lat="48.5756" lon="-3.76582">
        <ele>118.9</ele>
        <time>2020-06-10T13:57:55Z</time>
      </trkpt>
      <trkpt lat="48.5756" lon="-3.76578">
        <ele>118.9</ele>
        <time>2020-06-10T13:57:56Z</time>
      </trkpt>
      <trkpt lat="48.57559" lon="-3.76573">
        <ele>118.9</ele>
        <time>2020-06-10T13:57:57Z</time>
      </trkpt>
      <trkpt lat="48.57559" lon="-3.76569">
        <ele>118.9</ele>
        <time>2020-06-10T13:57:58Z</time>
      </trkpt>
      <trkpt lat="48.57558" lon="-3.76564">
        <ele>119</ele>
        <time>2020-06-10T13:57:59Z</time>
      </trkpt>
      <trkpt lat="48.57557" lon="-3.76558">
        <ele>119</ele>
        <time>2020-06-10T13:58:00Z</time>
      </trkpt>
      <trkpt lat="48.57557" lon="-3.76553">
        <ele>119</ele>
        <time>2020-06-10T13:58:01Z</time>
      </trkpt>
      <trkpt lat="48.57557" lon="-3.76548">
        <ele>119</ele>
        <time>2020-06-10T13:58:02Z</time>
      </trkpt>
      <trkpt lat="48.57556" lon="-3.76542">
        <ele>119.1</ele>
        <time>2020-06-10T13:58:03Z</time>
      </trkpt>
      <trkpt lat="48.57556" lon="-3.7654">
        <ele>119.1</ele>
        <time>2020-06-10T13:58:04Z</time>
      </trkpt>
      <trkpt lat="48.57556" lon="-3.76535">
        <ele>119.1</ele>
        <time>2020-06-10T13:58:05Z</time>
      </trkpt>
      <trkpt lat="48.57556" lon="-3.7653">
        <ele>119.1</ele>
        <time>2020-06-10T13:58:06Z</time>
      </trkpt>
      <trkpt lat="48.57556" lon="-3.76526">
        <ele>119.2</ele>
        <time>2020-06-10T13:58:07Z</time>
      </trkpt>
      <trkpt lat="48.57555" lon="-3.7652">
        <ele>119.2</ele>
        <time>2020-06-10T13:58:08Z</time>
      </trkpt>
      <trkpt lat="48.57554" lon="-3.76514">
        <ele>119.2</ele>
        <time>2020-06-10T13:58:09Z</time>
      </trkpt>
      <trkpt lat="48.57555" lon="-3.76509">
        <ele>119.3</ele>
        <time>2020-06-10T13:58:10Z</time>
      </trkpt>
      <trkpt lat="48.57554" lon="-3.76505">
        <ele>119.3</ele>
        <time>2020-06-10T13:58:11Z</time>
      </trkpt>
      <trkpt lat="48.57554" lon="-3.765">
        <ele>119.3</ele>
        <time>2020-06-10T13:58:12Z</time>
      </trkpt>
      <trkpt lat="48.57553" lon="-3.76496">
        <ele>119.3</ele>
        <time>2020-06-10T13:58:13Z</time>
      </trkpt>
      <trkpt lat="48.57553" lon="-3.76491">
        <ele>119.3</ele>
        <time>2020-06-10T13:58:14Z</time>
      </trkpt>
      <trkpt lat="48.57554" lon="-3.76486">
        <ele>119.3</ele>
        <time>2020-06-10T13:58:15Z</time>
      </trkpt>
      <trkpt lat="48.57553" lon="-3.76482">
        <ele>119.4</ele>
        <time>2020-06-10T13:58:16Z</time>
      </trkpt>
      <trkpt lat="48.57553" lon="-3.76477">
        <ele>119.5</ele>
        <time>2020-06-10T13:58:17Z</time>
      </trkpt>
      <trkpt lat="48.57553" lon="-3.76473">
        <ele>119.6</ele>
        <time>2020-06-10T13:58:18Z</time>
      </trkpt>
      <trkpt lat="48.57553" lon="-3.76467">
        <ele>119.8</ele>
        <time>2020-06-10T13:58:19Z</time>
      </trkpt>
      <trkpt lat="48.57552" lon="-3.76466">
        <ele>119.8</ele>
        <time>2020-06-10T13:58:20Z</time>
      </trkpt>
      <trkpt lat="48.57551" lon="-3.76461">
        <ele>119.9</ele>
        <time>2020-06-10T13:58:21Z</time>
      </trkpt>
      <trkpt lat="48.5755" lon="-3.76459">
        <ele>119.9</ele>
        <time>2020-06-10T13:58:22Z</time>
      </trkpt>
      <trkpt lat="48.57549" lon="-3.76454">
        <ele>120</ele>
        <time>2020-06-10T13:58:23Z</time>
      </trkpt>
      <trkpt lat="48.57549" lon="-3.76453">
        <ele>120</ele>
        <time>2020-06-10T13:58:24Z</time>
      </trkpt>
      <trkpt lat="48.57547" lon="-3.76449">
        <ele>120</ele>
        <time>2020-06-10T13:58:25Z</time>
      </trkpt>
      <trkpt lat="48.57547" lon="-3.76447">
        <ele>120.1</ele>
        <time>2020-06-10T13:58:26Z</time>
      </trkpt>
      <trkpt lat="48.57546" lon="-3.76442">
        <ele>120.1</ele>
        <time>2020-06-10T13:58:27Z</time>
      </trkpt>
      <trkpt lat="48.57545" lon="-3.76437">
        <ele>120.2</ele>
        <time>2020-06-10T13:58:28Z</time>
      </trkpt>
      <trkpt lat="48.57546" lon="-3.7643">
        <ele>120.2</ele>
        <time>2020-06-10T13:58:29Z</time>
      </trkpt>
      <trkpt lat="48.57546" lon="-3.76423">
        <ele>120.3</ele>
        <time>2020-06-10T13:58:30Z</time>
      </trkpt>
      <trkpt lat="48.57546" lon="-3.76416">
        <ele>120.3</ele>
        <time>2020-06-10T13:58:31Z</time>
      </trkpt>
      <trkpt lat="48.57545" lon="-3.7641">
        <ele>120.4</ele>
        <time>2020-06-10T13:58:32Z</time>
      </trkpt>
      <trkpt lat="48.57545" lon="-3.76404">
        <ele>120.4</ele>
        <time>2020-06-10T13:58:33Z</time>
      </trkpt>
      <trkpt lat="48.57545" lon="-3.76398">
        <ele>120.5</ele>
        <time>2020-06-10T13:58:34Z</time>
      </trkpt>
      <trkpt lat="48.57545" lon="-3.76392">
        <ele>120.5</ele>
        <time>2020-06-10T13:58:35Z</time>
      </trkpt>
      <trkpt lat="48.57545" lon="-3.76386">
        <ele>120.6</ele>
        <time>2020-06-10T13:58:36Z</time>
      </trkpt>
      <trkpt lat="48.57542" lon="-3.7638">
        <ele>120.7</ele>
        <time>2020-06-10T13:58:37Z</time>
      </trkpt>
      <trkpt lat="48.57542" lon="-3.76374">
        <ele>120.7</ele>
        <time>2020-06-10T13:58:38Z</time>
      </trkpt>
      <trkpt lat="48.57541" lon="-3.76369">
        <ele>120.7</ele>
        <time>2020-06-10T13:58:39Z</time>
      </trkpt>
      <trkpt lat="48.57541" lon="-3.76364">
        <ele>120.8</ele>
        <time>2020-06-10T13:58:40Z</time>
      </trkpt>
      <trkpt lat="48.5754" lon="-3.76359">
        <ele>120.8</ele>
        <time>2020-06-10T13:58:41Z</time>
      </trkpt>
      <trkpt lat="48.5754" lon="-3.76354">
        <ele>120.8</ele>
        <time>2020-06-10T13:58:42Z</time>
      </trkpt>
      <trkpt lat="48.5754" lon="-3.7635">
        <ele>120.8</ele>
        <time>2020-06-10T13:58:43Z</time>
      </trkpt>
      <trkpt lat="48.57538" lon="-3.76344">
        <ele>120.9</ele>
        <time>2020-06-10T13:58:44Z</time>
      </trkpt>
      <trkpt lat="48.57538" lon="-3.7634">
        <ele>120.9</ele>
        <time>2020-06-10T13:58:45Z</time>
      </trkpt>
      <trkpt lat="48.57537" lon="-3.76336">
        <ele>120.9</ele>
        <time>2020-06-10T13:58:46Z</time>
      </trkpt>
      <trkpt lat="48.57537" lon="-3.76331">
        <ele>121</ele>
        <time>2020-06-10T13:58:47Z</time>
      </trkpt>
      <trkpt lat="48.57537" lon="-3.76326">
        <ele>121</ele>
        <time>2020-06-10T13:58:48Z</time>
      </trkpt>
      <trkpt lat="48.57536" lon="-3.76321">
        <ele>121.1</ele>
        <time>2020-06-10T13:58:49Z</time>
      </trkpt>
      <trkpt lat="48.57535" lon="-3.76315">
        <ele>121.1</ele>
        <time>2020-06-10T13:58:50Z</time>
      </trkpt>
      <trkpt lat="48.57535" lon="-3.76309">
        <ele>121.1</ele>
        <time>2020-06-10T13:58:51Z</time>
      </trkpt>
      <trkpt lat="48.57535" lon="-3.76303">
        <ele>121.1</ele>
        <time>2020-06-10T13:58:52Z</time>
      </trkpt>
      <trkpt lat="48.57535" lon="-3.76297">
        <ele>121.2</ele>
        <time>2020-06-10T13:58:53Z</time>
      </trkpt>
      <trkpt lat="48.57535" lon="-3.7629">
        <ele>121.2</ele>
        <time>2020-06-10T13:58:54Z</time>
      </trkpt>
      <trkpt lat="48.57535" lon="-3.76284">
        <ele>121.3</ele>
        <time>2020-06-10T13:58:55Z</time>
      </trkpt>
      <trkpt lat="48.57535" lon="-3.76279">
        <ele>121.3</ele>
        <time>2020-06-10T13:58:56Z</time>
      </trkpt>
      <trkpt lat="48.57535" lon="-3.76273">
        <ele>121.3</ele>
        <time>2020-06-10T13:58:57Z</time>
      </trkpt>
      <trkpt lat="48.57535" lon="-3.76269">
        <ele>121.4</ele>
        <time>2020-06-10T13:58:58Z</time>
      </trkpt>
      <trkpt lat="48.57534" lon="-3.76263">
        <ele>121.4</ele>
        <time>2020-06-10T13:58:59Z</time>
      </trkpt>
      <trkpt lat="48.57532" lon="-3.76258">
        <ele>121.4</ele>
        <time>2020-06-10T13:59:00Z</time>
      </trkpt>
      <trkpt lat="48.57531" lon="-3.76251">
        <ele>121.5</ele>
        <time>2020-06-10T13:59:01Z</time>
      </trkpt>
      <trkpt lat="48.57531" lon="-3.76245">
        <ele>121.5</ele>
        <time>2020-06-10T13:59:02Z</time>
      </trkpt>
      <trkpt lat="48.5753" lon="-3.7624">
        <ele>121.5</ele>
        <time>2020-06-10T13:59:03Z</time>
      </trkpt>
      <trkpt lat="48.57529" lon="-3.76234">
        <ele>121.5</ele>
        <time>2020-06-10T13:59:04Z</time>
      </trkpt>
      <trkpt lat="48.57528" lon="-3.76228">
        <ele>121.5</ele>
        <time>2020-06-10T13:59:05Z</time>
      </trkpt>
      <trkpt lat="48.57528" lon="-3.76225">
        <ele>121.5</ele>
        <time>2020-06-10T13:59:06Z</time>
      </trkpt>
      <trkpt lat="48.57528" lon="-3.7622">
        <ele>121.5</ele>
        <time>2020-06-10T13:59:07Z</time>
      </trkpt>
      <trkpt lat="48.57527" lon="-3.76214">
        <ele>121.5</ele>
        <time>2020-06-10T13:59:08Z</time>
      </trkpt>
      <trkpt lat="48.57526" lon="-3.76208">
        <ele>121.5</ele>
        <time>2020-06-10T13:59:09Z</time>
      </trkpt>
      <trkpt lat="48.57526" lon="-3.76203">
        <ele>121.5</ele>
        <time>2020-06-10T13:59:10Z</time>
      </trkpt>
      <trkpt lat="48.57526" lon="-3.76198">
        <ele>121.6</ele>
        <time>2020-06-10T13:59:11Z</time>
      </trkpt>
      <trkpt lat="48.57526" lon="-3.76192">
        <ele>121.6</ele>
        <time>2020-06-10T13:59:12Z</time>
      </trkpt>
      <trkpt lat="48.57526" lon="-3.76185">
        <ele>121.6</ele>
        <time>2020-06-10T13:59:13Z</time>
      </trkpt>
      <trkpt lat="48.57526" lon="-3.76179">
        <ele>121.7</ele>
        <time>2020-06-10T13:59:14Z</time>
      </trkpt>
      <trkpt lat="48.57525" lon="-3.76174">
        <ele>121.7</ele>
        <time>2020-06-10T13:59:15Z</time>
      </trkpt>
      <trkpt lat="48.57525" lon="-3.76168">
        <ele>121.7</ele>
        <time>2020-06-10T13:59:16Z</time>
      </trkpt>
      <trkpt lat="48.57525" lon="-3.76162">
        <ele>121.8</ele>
        <time>2020-06-10T13:59:17Z</time>
      </trkpt>
      <trkpt lat="48.57524" lon="-3.76156">
        <ele>121.8</ele>
        <time>2020-06-10T13:59:18Z</time>
      </trkpt>
      <trkpt lat="48.57522" lon="-3.7615">
        <ele>121.8</ele>
        <time>2020-06-10T13:59:19Z</time>
      </trkpt>
      <trkpt lat="48.57522" lon="-3.76143">
        <ele>121.8</ele>
        <time>2020-06-10T13:59:20Z</time>
      </trkpt>
      <trkpt lat="48.57522" lon="-3.76137">
        <ele>121.8</ele>
        <time>2020-06-10T13:59:21Z</time>
      </trkpt>
      <trkpt lat="48.57521" lon="-3.7613">
        <ele>121.8</ele>
        <time>2020-06-10T13:59:22Z</time>
      </trkpt>
      <trkpt lat="48.57521" lon="-3.76124">
        <ele>121.8</ele>
        <time>2020-06-10T13:59:23Z</time>
      </trkpt>
      <trkpt lat="48.5752" lon="-3.76116">
        <ele>121.8</ele>
        <time>2020-06-10T13:59:24Z</time>
      </trkpt>
      <trkpt lat="48.57519" lon="-3.76109">
        <ele>121.8</ele>
        <time>2020-06-10T13:59:25Z</time>
      </trkpt>
      <trkpt lat="48.57518" lon="-3.76101">
        <ele>121.8</ele>
        <time>2020-06-10T13:59:26Z</time>
      </trkpt>
      <trkpt lat="48.57518" lon="-3.76095">
        <ele>121.8</ele>
        <time>2020-06-10T13:59:27Z</time>
      </trkpt>
      <trkpt lat="48.57518" lon="-3.76088">
        <ele>121.8</ele>
        <time>2020-06-10T13:59:28Z</time>
      </trkpt>
      <trkpt lat="48.57518" lon="-3.7608">
        <ele>121.8</ele>
        <time>2020-06-10T13:59:29Z</time>
      </trkpt>
      <trkpt lat="48.57518" lon="-3.76072">
        <ele>121.8</ele>
        <time>2020-06-10T13:59:30Z</time>
      </trkpt>
      <trkpt lat="48.57518" lon="-3.76065">
        <ele>121.7</ele>
        <time>2020-06-10T13:59:31Z</time>
      </trkpt>
      <trkpt lat="48.57518" lon="-3.76057">
        <ele>121.7</ele>
        <time>2020-06-10T13:59:32Z</time>
      </trkpt>
      <trkpt lat="48.57517" lon="-3.76049">
        <ele>121.7</ele>
        <time>2020-06-10T13:59:33Z</time>
      </trkpt>
      <trkpt lat="48.57515" lon="-3.76041">
        <ele>121.6</ele>
        <time>2020-06-10T13:59:34Z</time>
      </trkpt>
      <trkpt lat="48.57513" lon="-3.76033">
        <ele>121.6</ele>
        <time>2020-06-10T13:59:35Z</time>
      </trkpt>
      <trkpt lat="48.57512" lon="-3.76025">
        <ele>121.6</ele>
        <time>2020-06-10T13:59:36Z</time>
      </trkpt>
      <trkpt lat="48.57511" lon="-3.76017">
        <ele>121.5</ele>
        <time>2020-06-10T13:59:37Z</time>
      </trkpt>
      <trkpt lat="48.5751" lon="-3.76009">
        <ele>121.5</ele>
        <time>2020-06-10T13:59:38Z</time>
      </trkpt>
      <trkpt lat="48.57509" lon="-3.76">
        <ele>121.5</ele>
        <time>2020-06-10T13:59:39Z</time>
      </trkpt>
      <trkpt lat="48.57509" lon="-3.75992">
        <ele>121.5</ele>
        <time>2020-06-10T13:59:40Z</time>
      </trkpt>
      <trkpt lat="48.57507" lon="-3.75984">
        <ele>121.5</ele>
        <time>2020-06-10T13:59:41Z</time>
      </trkpt>
      <trkpt lat="48.57506" lon="-3.75976">
        <ele>121.5</ele>
        <time>2020-06-10T13:59:42Z</time>
      </trkpt>
      <trkpt lat="48.57505" lon="-3.75969">
        <ele>121.5</ele>
        <time>2020-06-10T13:59:43Z</time>
      </trkpt>
      <trkpt lat="48.57504" lon="-3.7596">
        <ele>121.5</ele>
        <time>2020-06-10T13:59:44Z</time>
      </trkpt>
      <trkpt lat="48.57502" lon="-3.75952">
        <ele>121.5</ele>
        <time>2020-06-10T13:59:45Z</time>
      </trkpt>
      <trkpt lat="48.57501" lon="-3.75944">
        <ele>121.4</ele>
        <time>2020-06-10T13:59:46Z</time>
      </trkpt>
      <trkpt lat="48.575" lon="-3.75935">
        <ele>121.4</ele>
        <time>2020-06-10T13:59:47Z</time>
      </trkpt>
      <trkpt lat="48.575" lon="-3.75928">
        <ele>121.4</ele>
        <time>2020-06-10T13:59:48Z</time>
      </trkpt>
      <trkpt lat="48.57499" lon="-3.75919">
        <ele>121.4</ele>
        <time>2020-06-10T13:59:49Z</time>
      </trkpt>
      <trkpt lat="48.57499" lon="-3.7591">
        <ele>121.4</ele>
        <time>2020-06-10T13:59:50Z</time>
      </trkpt>
      <trkpt lat="48.57498" lon="-3.75902">
        <ele>121.3</ele>
        <time>2020-06-10T13:59:51Z</time>
      </trkpt>
      <trkpt lat="48.57497" lon="-3.75894">
        <ele>121.3</ele>
        <time>2020-06-10T13:59:52Z</time>
      </trkpt>
      <trkpt lat="48.57496" lon="-3.75885">
        <ele>121.3</ele>
        <time>2020-06-10T13:59:53Z</time>
      </trkpt>
      <trkpt lat="48.57495" lon="-3.75876">
        <ele>121.2</ele>
        <time>2020-06-10T13:59:54Z</time>
      </trkpt>
      <trkpt lat="48.57494" lon="-3.75868">
        <ele>121.2</ele>
        <time>2020-06-10T13:59:55Z</time>
      </trkpt>
      <trkpt lat="48.57493" lon="-3.7586">
        <ele>121.2</ele>
        <time>2020-06-10T13:59:56Z</time>
      </trkpt>
      <trkpt lat="48.57491" lon="-3.75852">
        <ele>121.1</ele>
        <time>2020-06-10T13:59:57Z</time>
      </trkpt>
      <trkpt lat="48.5749" lon="-3.75842">
        <ele>121.1</ele>
        <time>2020-06-10T13:59:58Z</time>
      </trkpt>
      <trkpt lat="48.57489" lon="-3.75834">
        <ele>121.1</ele>
        <time>2020-06-10T13:59:59Z</time>
      </trkpt>
      <trkpt lat="48.57489" lon="-3.75825">
        <ele>121.1</ele>
        <time>2020-06-10T14:00:00Z</time>
      </trkpt>
      <trkpt lat="48.57488" lon="-3.75815">
        <ele>121</ele>
        <time>2020-06-10T14:00:01Z</time>
      </trkpt>
      <trkpt lat="48.57488" lon="-3.75804">
        <ele>121</ele>
        <time>2020-06-10T14:00:02Z</time>
      </trkpt>
      <trkpt lat="48.57487" lon="-3.75795">
        <ele>121</ele>
        <time>2020-06-10T14:00:03Z</time>
      </trkpt>
      <trkpt lat="48.57487" lon="-3.75786">
        <ele>121</ele>
        <time>2020-06-10T14:00:04Z</time>
      </trkpt>
      <trkpt lat="48.57486" lon="-3.75777">
        <ele>121</ele>
        <time>2020-06-10T14:00:05Z</time>
      </trkpt>
      <trkpt lat="48.57485" lon="-3.75769">
        <ele>120.9</ele>
        <time>2020-06-10T14:00:06Z</time>
      </trkpt>
      <trkpt lat="48.57483" lon="-3.7576">
        <ele>120.9</ele>
        <time>2020-06-10T14:00:07Z</time>
      </trkpt>
      <trkpt lat="48.57482" lon="-3.75751">
        <ele>120.9</ele>
        <time>2020-06-10T14:00:08Z</time>
      </trkpt>
      <trkpt lat="48.57481" lon="-3.75741">
        <ele>120.8</ele>
        <time>2020-06-10T14:00:09Z</time>
      </trkpt>
      <trkpt lat="48.5748" lon="-3.75731">
        <ele>120.8</ele>
        <time>2020-06-10T14:00:10Z</time>
      </trkpt>
      <trkpt lat="48.57479" lon="-3.75723">
        <ele>120.7</ele>
        <time>2020-06-10T14:00:11Z</time>
      </trkpt>
      <trkpt lat="48.57478" lon="-3.75714">
        <ele>120.7</ele>
        <time>2020-06-10T14:00:12Z</time>
      </trkpt>
      <trkpt lat="48.57478" lon="-3.75707">
        <ele>120.6</ele>
        <time>2020-06-10T14:00:13Z</time>
      </trkpt>
      <trkpt lat="48.57477" lon="-3.75697">
        <ele>120.6</ele>
        <time>2020-06-10T14:00:14Z</time>
      </trkpt>
      <trkpt lat="48.57477" lon="-3.75688">
        <ele>120.5</ele>
        <time>2020-06-10T14:00:15Z</time>
      </trkpt>
      <trkpt lat="48.57476" lon="-3.7568">
        <ele>120.5</ele>
        <time>2020-06-10T14:00:16Z</time>
      </trkpt>
      <trkpt lat="48.57474" lon="-3.75671">
        <ele>120.4</ele>
        <time>2020-06-10T14:00:17Z</time>
      </trkpt>
      <trkpt lat="48.57474" lon="-3.75662">
        <ele>120.3</ele>
        <time>2020-06-10T14:00:18Z</time>
      </trkpt>
      <trkpt lat="48.57473" lon="-3.75652">
        <ele>120.2</ele>
        <time>2020-06-10T14:00:19Z</time>
      </trkpt>
      <trkpt lat="48.57472" lon="-3.75641">
        <ele>120.2</ele>
        <time>2020-06-10T14:00:20Z</time>
      </trkpt>
      <trkpt lat="48.57471" lon="-3.75631">
        <ele>120.1</ele>
        <time>2020-06-10T14:00:21Z</time>
      </trkpt>
      <trkpt lat="48.5747" lon="-3.75621">
        <ele>120</ele>
        <time>2020-06-10T14:00:22Z</time>
      </trkpt>
      <trkpt lat="48.5747" lon="-3.75611">
        <ele>119.9</ele>
        <time>2020-06-10T14:00:23Z</time>
      </trkpt>
      <trkpt lat="48.5747" lon="-3.75602">
        <ele>119.8</ele>
        <time>2020-06-10T14:00:24Z</time>
      </trkpt>
      <trkpt lat="48.57469" lon="-3.75594">
        <ele>119.7</ele>
        <time>2020-06-10T14:00:25Z</time>
      </trkpt>
      <trkpt lat="48.57468" lon="-3.75586">
        <ele>119.6</ele>
        <time>2020-06-10T14:00:26Z</time>
      </trkpt>
      <trkpt lat="48.57466" lon="-3.75576">
        <ele>119.5</ele>
        <time>2020-06-10T14:00:27Z</time>
      </trkpt>
      <trkpt lat="48.57466" lon="-3.75569">
        <ele>119.3</ele>
        <time>2020-06-10T14:00:28Z</time>
      </trkpt>
      <trkpt lat="48.57465" lon="-3.7556">
        <ele>119.2</ele>
        <time>2020-06-10T14:00:29Z</time>
      </trkpt>
      <trkpt lat="48.57464" lon="-3.75549">
        <ele>119.1</ele>
        <time>2020-06-10T14:00:30Z</time>
      </trkpt>
      <trkpt lat="48.57463" lon="-3.75539">
        <ele>118.9</ele>
        <time>2020-06-10T14:00:31Z</time>
      </trkpt>
      <trkpt lat="48.57462" lon="-3.7553">
        <ele>118.8</ele>
        <time>2020-06-10T14:00:32Z</time>
      </trkpt>
      <trkpt lat="48.57461" lon="-3.75519">
        <ele>118.6</ele>
        <time>2020-06-10T14:00:33Z</time>
      </trkpt>
      <trkpt lat="48.57459" lon="-3.75508">
        <ele>118.5</ele>
        <time>2020-06-10T14:00:34Z</time>
      </trkpt>
      <trkpt lat="48.57458" lon="-3.75496">
        <ele>118.3</ele>
        <time>2020-06-10T14:00:35Z</time>
      </trkpt>
      <trkpt lat="48.57456" lon="-3.75484">
        <ele>118.2</ele>
        <time>2020-06-10T14:00:36Z</time>
      </trkpt>
      <trkpt lat="48.57455" lon="-3.75473">
        <ele>118.1</ele>
        <time>2020-06-10T14:00:37Z</time>
      </trkpt>
      <trkpt lat="48.57454" lon="-3.75462">
        <ele>118.1</ele>
        <time>2020-06-10T14:00:38Z</time>
      </trkpt>
      <trkpt lat="48.57453" lon="-3.75452">
        <ele>118.1</ele>
        <time>2020-06-10T14:00:39Z</time>
      </trkpt>
      <trkpt lat="48.57452" lon="-3.75442">
        <ele>118.1</ele>
        <time>2020-06-10T14:00:40Z</time>
      </trkpt>
      <trkpt lat="48.57451" lon="-3.75431">
        <ele>118.1</ele>
        <time>2020-06-10T14:00:41Z</time>
      </trkpt>
      <trkpt lat="48.5745" lon="-3.75422">
        <ele>118.1</ele>
        <time>2020-06-10T14:00:42Z</time>
      </trkpt>
      <trkpt lat="48.57449" lon="-3.75411">
        <ele>118.3</ele>
        <time>2020-06-10T14:00:43Z</time>
      </trkpt>
      <trkpt lat="48.57448" lon="-3.75401">
        <ele>118.4</ele>
        <time>2020-06-10T14:00:44Z</time>
      </trkpt>
      <trkpt lat="48.57448" lon="-3.75392">
        <ele>118.6</ele>
        <time>2020-06-10T14:00:45Z</time>
      </trkpt>
      <trkpt lat="48.57447" lon="-3.75382">
        <ele>118.7</ele>
        <time>2020-06-10T14:00:46Z</time>
      </trkpt>
      <trkpt lat="48.57446" lon="-3.75373">
        <ele>118.9</ele>
        <time>2020-06-10T14:00:47Z</time>
      </trkpt>
      <trkpt lat="48.57444" lon="-3.75364">
        <ele>119</ele>
        <time>2020-06-10T14:00:48Z</time>
      </trkpt>
      <trkpt lat="48.57444" lon="-3.75355">
        <ele>119.2</ele>
        <time>2020-06-10T14:00:49Z</time>
      </trkpt>
      <trkpt lat="48.57443" lon="-3.75346">
        <ele>119.4</ele>
        <time>2020-06-10T14:00:50Z</time>
      </trkpt>
      <trkpt lat="48.57442" lon="-3.75337">
        <ele>119.5</ele>
        <time>2020-06-10T14:00:51Z</time>
      </trkpt>
      <trkpt lat="48.57442" lon="-3.75329">
        <ele>119.7</ele>
        <time>2020-06-10T14:00:52Z</time>
      </trkpt>
      <trkpt lat="48.57441" lon="-3.75321">
        <ele>119.8</ele>
        <time>2020-06-10T14:00:53Z</time>
      </trkpt>
      <trkpt lat="48.5744" lon="-3.75313">
        <ele>120</ele>
        <time>2020-06-10T14:00:54Z</time>
      </trkpt>
      <trkpt lat="48.57439" lon="-3.75304">
        <ele>120.1</ele>
        <time>2020-06-10T14:00:55Z</time>
      </trkpt>
      <trkpt lat="48.57438" lon="-3.75296">
        <ele>120.3</ele>
        <time>2020-06-10T14:00:56Z</time>
      </trkpt>
      <trkpt lat="48.57437" lon="-3.75287">
        <ele>120.4</ele>
        <time>2020-06-10T14:00:57Z</time>
      </trkpt>
      <trkpt lat="48.57436" lon="-3.75279">
        <ele>120.5</ele>
        <time>2020-06-10T14:00:58Z</time>
      </trkpt>
      <trkpt lat="48.57435" lon="-3.7527">
        <ele>120.6</ele>
        <time>2020-06-10T14:00:59Z</time>
      </trkpt>
      <trkpt lat="48.57434" lon="-3.75262">
        <ele>120.7</ele>
        <time>2020-06-10T14:01:00Z</time>
      </trkpt>
      <trkpt lat="48.57433" lon="-3.75254">
        <ele>120.8</ele>
        <time>2020-06-10T14:01:01Z</time>
      </trkpt>
      <trkpt lat="48.57433" lon="-3.75246">
        <ele>120.9</ele>
        <time>2020-06-10T14:01:02Z</time>
      </trkpt>
      <trkpt lat="48.57433" lon="-3.75238">
        <ele>121</ele>
        <time>2020-06-10T14:01:03Z</time>
      </trkpt>
      <trkpt lat="48.57432" lon="-3.7523">
        <ele>121.1</ele>
        <time>2020-06-10T14:01:04Z</time>
      </trkpt>
      <trkpt lat="48.57431" lon="-3.75223">
        <ele>121.2</ele>
        <time>2020-06-10T14:01:05Z</time>
      </trkpt>
      <trkpt lat="48.5743" lon="-3.75215">
        <ele>121.3</ele>
        <time>2020-06-10T14:01:06Z</time>
      </trkpt>
      <trkpt lat="48.5743" lon="-3.75207">
        <ele>121.4</ele>
        <time>2020-06-10T14:01:07Z</time>
      </trkpt>
      <trkpt lat="48.57429" lon="-3.75199">
        <ele>121.4</ele>
        <time>2020-06-10T14:01:08Z</time>
      </trkpt>
      <trkpt lat="48.57428" lon="-3.75191">
        <ele>121.5</ele>
        <time>2020-06-10T14:01:09Z</time>
      </trkpt>
      <trkpt lat="48.57427" lon="-3.75183">
        <ele>121.5</ele>
        <time>2020-06-10T14:01:10Z</time>
      </trkpt>
      <trkpt lat="48.57427" lon="-3.75175">
        <ele>121.5</ele>
        <time>2020-06-10T14:01:11Z</time>
      </trkpt>
      <trkpt lat="48.57426" lon="-3.75167">
        <ele>121.5</ele>
        <time>2020-06-10T14:01:12Z</time>
      </trkpt>
      <trkpt lat="48.57425" lon="-3.75159">
        <ele>121.6</ele>
        <time>2020-06-10T14:01:13Z</time>
      </trkpt>
      <trkpt lat="48.57424" lon="-3.75152">
        <ele>121.6</ele>
        <time>2020-06-10T14:01:14Z</time>
      </trkpt>
      <trkpt lat="48.57423" lon="-3.75142">
        <ele>121.6</ele>
        <time>2020-06-10T14:01:15Z</time>
      </trkpt>
      <trkpt lat="48.57423" lon="-3.75134">
        <ele>121.6</ele>
        <time>2020-06-10T14:01:16Z</time>
      </trkpt>
      <trkpt lat="48.57422" lon="-3.75124">
        <ele>121.6</ele>
        <time>2020-06-10T14:01:17Z</time>
      </trkpt>
      <trkpt lat="48.57421" lon="-3.75115">
        <ele>121.6</ele>
        <time>2020-06-10T14:01:18Z</time>
      </trkpt>
      <trkpt lat="48.5742" lon="-3.75107">
        <ele>121.6</ele>
        <time>2020-06-10T14:01:19Z</time>
      </trkpt>
      <trkpt lat="48.57418" lon="-3.75098">
        <ele>121.6</ele>
        <time>2020-06-10T14:01:20Z</time>
      </trkpt>
      <trkpt lat="48.57417" lon="-3.7509">
        <ele>121.6</ele>
        <time>2020-06-10T14:01:21Z</time>
      </trkpt>
      <trkpt lat="48.57416" lon="-3.75082">
        <ele>121.6</ele>
        <time>2020-06-10T14:01:22Z</time>
      </trkpt>
      <trkpt lat="48.57416" lon="-3.75074">
        <ele>121.5</ele>
        <time>2020-06-10T14:01:23Z</time>
      </trkpt>
      <trkpt lat="48.57415" lon="-3.75067">
        <ele>121.5</ele>
        <time>2020-06-10T14:01:24Z</time>
      </trkpt>
      <trkpt lat="48.57415" lon="-3.75059">
        <ele>121.4</ele>
        <time>2020-06-10T14:01:25Z</time>
      </trkpt>
      <trkpt lat="48.57414" lon="-3.75051">
        <ele>121.3</ele>
        <time>2020-06-10T14:01:26Z</time>
      </trkpt>
      <trkpt lat="48.57413" lon="-3.75042">
        <ele>121.2</ele>
        <time>2020-06-10T14:01:27Z</time>
      </trkpt>
      <trkpt lat="48.57412" lon="-3.75034">
        <ele>121</ele>
        <time>2020-06-10T14:01:28Z</time>
      </trkpt>
      <trkpt lat="48.57411" lon="-3.75025">
        <ele>121</ele>
        <time>2020-06-10T14:01:29Z</time>
      </trkpt>
      <trkpt lat="48.5741" lon="-3.75017">
        <ele>120.9</ele>
        <time>2020-06-10T14:01:30Z</time>
      </trkpt>
      <trkpt lat="48.57409" lon="-3.75008">
        <ele>120.9</ele>
        <time>2020-06-10T14:01:31Z</time>
      </trkpt>
      <trkpt lat="48.57408" lon="-3.74999">
        <ele>120.8</ele>
        <time>2020-06-10T14:01:32Z</time>
      </trkpt>
      <trkpt lat="48.57407" lon="-3.7499">
        <ele>120.7</ele>
        <time>2020-06-10T14:01:33Z</time>
      </trkpt>
      <trkpt lat="48.57406" lon="-3.74981">
        <ele>120.7</ele>
        <time>2020-06-10T14:01:34Z</time>
      </trkpt>
      <trkpt lat="48.57405" lon="-3.7497">
        <ele>120.5</ele>
        <time>2020-06-10T14:01:35Z</time>
      </trkpt>
      <trkpt lat="48.57404" lon="-3.74961">
        <ele>120.4</ele>
        <time>2020-06-10T14:01:36Z</time>
      </trkpt>
      <trkpt lat="48.57403" lon="-3.74952">
        <ele>120.3</ele>
        <time>2020-06-10T14:01:37Z</time>
      </trkpt>
      <trkpt lat="48.57402" lon="-3.74942">
        <ele>120.2</ele>
        <time>2020-06-10T14:01:38Z</time>
      </trkpt>
      <trkpt lat="48.57401" lon="-3.74932">
        <ele>120.1</ele>
        <time>2020-06-10T14:01:39Z</time>
      </trkpt>
      <trkpt lat="48.574" lon="-3.74921">
        <ele>120</ele>
        <time>2020-06-10T14:01:40Z</time>
      </trkpt>
      <trkpt lat="48.57399" lon="-3.7491">
        <ele>119.9</ele>
        <time>2020-06-10T14:01:41Z</time>
      </trkpt>
      <trkpt lat="48.57398" lon="-3.749">
        <ele>119.8</ele>
        <time>2020-06-10T14:01:42Z</time>
      </trkpt>
      <trkpt lat="48.57397" lon="-3.7489">
        <ele>119.7</ele>
        <time>2020-06-10T14:01:43Z</time>
      </trkpt>
      <trkpt lat="48.57396" lon="-3.74879">
        <ele>119.6</ele>
        <time>2020-06-10T14:01:44Z</time>
      </trkpt>
      <trkpt lat="48.57395" lon="-3.74868">
        <ele>119.4</ele>
        <time>2020-06-10T14:01:45Z</time>
      </trkpt>
      <trkpt lat="48.57394" lon="-3.74859">
        <ele>119.3</ele>
        <time>2020-06-10T14:01:46Z</time>
      </trkpt>
      <trkpt lat="48.57393" lon="-3.74848">
        <ele>119.2</ele>
        <time>2020-06-10T14:01:47Z</time>
      </trkpt>
      <trkpt lat="48.57392" lon="-3.74837">
        <ele>119.1</ele>
        <time>2020-06-10T14:01:48Z</time>
      </trkpt>
      <trkpt lat="48.57391" lon="-3.74827">
        <ele>119.1</ele>
        <time>2020-06-10T14:01:49Z</time>
      </trkpt>
      <trkpt lat="48.57391" lon="-3.74817">
        <ele>119</ele>
        <time>2020-06-10T14:01:50Z</time>
      </trkpt>
      <trkpt lat="48.5739" lon="-3.74807">
        <ele>118.9</ele>
        <time>2020-06-10T14:01:51Z</time>
      </trkpt>
      <trkpt lat="48.57389" lon="-3.74796">
        <ele>118.8</ele>
        <time>2020-06-10T14:01:52Z</time>
      </trkpt>
      <trkpt lat="48.57388" lon="-3.74785">
        <ele>118.7</ele>
        <time>2020-06-10T14:01:53Z</time>
      </trkpt>
      <trkpt lat="48.57387" lon="-3.74774">
        <ele>118.6</ele>
        <time>2020-06-10T14:01:54Z</time>
      </trkpt>
      <trkpt lat="48.57386" lon="-3.74763">
        <ele>118.4</ele>
        <time>2020-06-10T14:01:55Z</time>
      </trkpt>
      <trkpt lat="48.57385" lon="-3.74752">
        <ele>118.3</ele>
        <time>2020-06-10T14:01:56Z</time>
      </trkpt>
      <trkpt lat="48.57384" lon="-3.74742">
        <ele>118.1</ele>
        <time>2020-06-10T14:01:57Z</time>
      </trkpt>
      <trkpt lat="48.57383" lon="-3.74731">
        <ele>118</ele>
        <time>2020-06-10T14:01:58Z</time>
      </trkpt>
      <trkpt lat="48.57382" lon="-3.7472">
        <ele>117.8</ele>
        <time>2020-06-10T14:01:59Z</time>
      </trkpt>
      <trkpt lat="48.57381" lon="-3.74709">
        <ele>117.7</ele>
        <time>2020-06-10T14:02:00Z</time>
      </trkpt>
      <trkpt lat="48.5738" lon="-3.74698">
        <ele>117.6</ele>
        <time>2020-06-10T14:02:01Z</time>
      </trkpt>
      <trkpt lat="48.57379" lon="-3.74687">
        <ele>117.4</ele>
        <time>2020-06-10T14:02:02Z</time>
      </trkpt>
      <trkpt lat="48.57377" lon="-3.74676">
        <ele>117.3</ele>
        <time>2020-06-10T14:02:03Z</time>
      </trkpt>
      <trkpt lat="48.57376" lon="-3.74665">
        <ele>117.1</ele>
        <time>2020-06-10T14:02:04Z</time>
      </trkpt>
      <trkpt lat="48.57375" lon="-3.74654">
        <ele>117</ele>
        <time>2020-06-10T14:02:05Z</time>
      </trkpt>
      <trkpt lat="48.57374" lon="-3.74643">
        <ele>116.9</ele>
        <time>2020-06-10T14:02:06Z</time>
      </trkpt>
      <trkpt lat="48.57373" lon="-3.74632">
        <ele>116.7</ele>
        <time>2020-06-10T14:02:07Z</time>
      </trkpt>
      <trkpt lat="48.57372" lon="-3.74621">
        <ele>116.6</ele>
        <time>2020-06-10T14:02:08Z</time>
      </trkpt>
      <trkpt lat="48.57371" lon="-3.7461">
        <ele>116.5</ele>
        <time>2020-06-10T14:02:09Z</time>
      </trkpt>
      <trkpt lat="48.5737" lon="-3.74599">
        <ele>116.3</ele>
        <time>2020-06-10T14:02:10Z</time>
      </trkpt>
      <trkpt lat="48.57369" lon="-3.74588">
        <ele>116.3</ele>
        <time>2020-06-10T14:02:11Z</time>
      </trkpt>
      <trkpt lat="48.57368" lon="-3.74577">
        <ele>116.2</ele>
        <time>2020-06-10T14:02:12Z</time>
      </trkpt>
      <trkpt lat="48.57366" lon="-3.74566">
        <ele>116.2</ele>
        <time>2020-06-10T14:02:13Z</time>
      </trkpt>
      <trkpt lat="48.57365" lon="-3.74554">
        <ele>116.2</ele>
        <time>2020-06-10T14:02:14Z</time>
      </trkpt>
      <trkpt lat="48.57364" lon="-3.74544">
        <ele>116.2</ele>
        <time>2020-06-10T14:02:15Z</time>
      </trkpt>
      <trkpt lat="48.57363" lon="-3.74534">
        <ele>116.2</ele>
        <time>2020-06-10T14:02:16Z</time>
      </trkpt>
      <trkpt lat="48.57362" lon="-3.74524">
        <ele>116.2</ele>
        <time>2020-06-10T14:02:17Z</time>
      </trkpt>
      <trkpt lat="48.57361" lon="-3.74514">
        <ele>116.2</ele>
        <time>2020-06-10T14:02:18Z</time>
      </trkpt>
      <trkpt lat="48.5736" lon="-3.74505">
        <ele>116.2</ele>
        <time>2020-06-10T14:02:19Z</time>
      </trkpt>
      <trkpt lat="48.57359" lon="-3.74496">
        <ele>116.3</ele>
        <time>2020-06-10T14:02:20Z</time>
      </trkpt>
      <trkpt lat="48.57359" lon="-3.74486">
        <ele>116.3</ele>
        <time>2020-06-10T14:02:21Z</time>
      </trkpt>
      <trkpt lat="48.57358" lon="-3.74477">
        <ele>116.4</ele>
        <time>2020-06-10T14:02:22Z</time>
      </trkpt>
      <trkpt lat="48.57357" lon="-3.74468">
        <ele>116.4</ele>
        <time>2020-06-10T14:02:23Z</time>
      </trkpt>
      <trkpt lat="48.57356" lon="-3.74459">
        <ele>116.5</ele>
        <time>2020-06-10T14:02:24Z</time>
      </trkpt>
      <trkpt lat="48.57356" lon="-3.74449">
        <ele>116.6</ele>
        <time>2020-06-10T14:02:25Z</time>
      </trkpt>
      <trkpt lat="48.57355" lon="-3.7444">
        <ele>116.7</ele>
        <time>2020-06-10T14:02:26Z</time>
      </trkpt>
      <trkpt lat="48.57354" lon="-3.74431">
        <ele>116.9</ele>
        <time>2020-06-10T14:02:27Z</time>
      </trkpt>
      <trkpt lat="48.57353" lon="-3.74422">
        <ele>117</ele>
        <time>2020-06-10T14:02:28Z</time>
      </trkpt>
      <trkpt lat="48.57352" lon="-3.74413">
        <ele>117.2</ele>
        <time>2020-06-10T14:02:29Z</time>
      </trkpt>
      <trkpt lat="48.57351" lon="-3.74403">
        <ele>117.3</ele>
        <time>2020-06-10T14:02:30Z</time>
      </trkpt>
      <trkpt lat="48.5735" lon="-3.74394">
        <ele>117.5</ele>
        <time>2020-06-10T14:02:31Z</time>
      </trkpt>
      <trkpt lat="48.57349" lon="-3.74384">
        <ele>117.8</ele>
        <time>2020-06-10T14:02:32Z</time>
      </trkpt>
      <trkpt lat="48.57348" lon="-3.74375">
        <ele>118</ele>
        <time>2020-06-10T14:02:33Z</time>
      </trkpt>
      <trkpt lat="48.57347" lon="-3.74366">
        <ele>118.3</ele>
        <time>2020-06-10T14:02:34Z</time>
      </trkpt>
      <trkpt lat="48.57346" lon="-3.74357">
        <ele>118.5</ele>
        <time>2020-06-10T14:02:35Z</time>
      </trkpt>
      <trkpt lat="48.57345" lon="-3.74347">
        <ele>118.7</ele>
        <time>2020-06-10T14:02:36Z</time>
      </trkpt>
      <trkpt lat="48.57344" lon="-3.74338">
        <ele>118.8</ele>
        <time>2020-06-10T14:02:37Z</time>
      </trkpt>
      <trkpt lat="48.57343" lon="-3.74328">
        <ele>119</ele>
        <time>2020-06-10T14:02:38Z</time>
      </trkpt>
      <trkpt lat="48.57343" lon="-3.74318">
        <ele>119.2</ele>
        <time>2020-06-10T14:02:39Z</time>
      </trkpt>
      <trkpt lat="48.57342" lon="-3.74308">
        <ele>119.4</ele>
        <time>2020-06-10T14:02:40Z</time>
      </trkpt>
      <trkpt lat="48.57341" lon="-3.743">
        <ele>119.5</ele>
        <time>2020-06-10T14:02:41Z</time>
      </trkpt>
      <trkpt lat="48.5734" lon="-3.7429">
        <ele>119.7</ele>
        <time>2020-06-10T14:02:42Z</time>
      </trkpt>
      <trkpt lat="48.57339" lon="-3.74281">
        <ele>119.8</ele>
        <time>2020-06-10T14:02:43Z</time>
      </trkpt>
      <trkpt lat="48.57339" lon="-3.74271">
        <ele>120</ele>
        <time>2020-06-10T14:02:44Z</time>
      </trkpt>
      <trkpt lat="48.57338" lon="-3.74262">
        <ele>120.1</ele>
        <time>2020-06-10T14:02:45Z</time>
      </trkpt>
      <trkpt lat="48.57337" lon="-3.74253">
        <ele>120.3</ele>
        <time>2020-06-10T14:02:46Z</time>
      </trkpt>
      <trkpt lat="48.57336" lon="-3.74244">
        <ele>120.5</ele>
        <time>2020-06-10T14:02:47Z</time>
      </trkpt>
      <trkpt lat="48.57335" lon="-3.74234">
        <ele>120.7</ele>
        <time>2020-06-10T14:02:48Z</time>
      </trkpt>
      <trkpt lat="48.57334" lon="-3.74223">
        <ele>120.9</ele>
        <time>2020-06-10T14:02:49Z</time>
      </trkpt>
      <trkpt lat="48.57333" lon="-3.74214">
        <ele>121.1</ele>
        <time>2020-06-10T14:02:50Z</time>
      </trkpt>
      <trkpt lat="48.57332" lon="-3.74206">
        <ele>121.3</ele>
        <time>2020-06-10T14:02:51Z</time>
      </trkpt>
      <trkpt lat="48.57331" lon="-3.74196">
        <ele>121.5</ele>
        <time>2020-06-10T14:02:52Z</time>
      </trkpt>
      <trkpt lat="48.5733" lon="-3.74188">
        <ele>121.8</ele>
        <time>2020-06-10T14:02:53Z</time>
      </trkpt>
      <trkpt lat="48.57329" lon="-3.74178">
        <ele>122</ele>
        <time>2020-06-10T14:02:54Z</time>
      </trkpt>
      <trkpt lat="48.57328" lon="-3.74168">
        <ele>122.2</ele>
        <time>2020-06-10T14:02:55Z</time>
      </trkpt>
      <trkpt lat="48.57327" lon="-3.74158">
        <ele>122.4</ele>
        <time>2020-06-10T14:02:56Z</time>
      </trkpt>
      <trkpt lat="48.57326" lon="-3.74148">
        <ele>122.6</ele>
        <time>2020-06-10T14:02:57Z</time>
      </trkpt>
      <trkpt lat="48.57325" lon="-3.74139">
        <ele>122.9</ele>
        <time>2020-06-10T14:02:58Z</time>
      </trkpt>
      <trkpt lat="48.57324" lon="-3.7413">
        <ele>123.1</ele>
        <time>2020-06-10T14:02:59Z</time>
      </trkpt>
      <trkpt lat="48.57323" lon="-3.74121">
        <ele>123.3</ele>
        <time>2020-06-10T14:03:00Z</time>
      </trkpt>
      <trkpt lat="48.57322" lon="-3.74112">
        <ele>123.6</ele>
        <time>2020-06-10T14:03:01Z</time>
      </trkpt>
      <trkpt lat="48.57321" lon="-3.74103">
        <ele>123.8</ele>
        <time>2020-06-10T14:03:02Z</time>
      </trkpt>
      <trkpt lat="48.5732" lon="-3.74094">
        <ele>124.1</ele>
        <time>2020-06-10T14:03:03Z</time>
      </trkpt>
      <trkpt lat="48.5732" lon="-3.74085">
        <ele>124.3</ele>
        <time>2020-06-10T14:03:04Z</time>
      </trkpt>
      <trkpt lat="48.57319" lon="-3.74076">
        <ele>124.6</ele>
        <time>2020-06-10T14:03:05Z</time>
      </trkpt>
      <trkpt lat="48.57318" lon="-3.74067">
        <ele>124.8</ele>
        <time>2020-06-10T14:03:06Z</time>
      </trkpt>
      <trkpt lat="48.57317" lon="-3.74059">
        <ele>125</ele>
        <time>2020-06-10T14:03:07Z</time>
      </trkpt>
      <trkpt lat="48.57316" lon="-3.7405">
        <ele>125.2</ele>
        <time>2020-06-10T14:03:08Z</time>
      </trkpt>
      <trkpt lat="48.57315" lon="-3.74041">
        <ele>125.4</ele>
        <time>2020-06-10T14:03:09Z</time>
      </trkpt>
      <trkpt lat="48.57314" lon="-3.74031">
        <ele>125.5</ele>
        <time>2020-06-10T14:03:10Z</time>
      </trkpt>
      <trkpt lat="48.57313" lon="-3.74023">
        <ele>125.6</ele>
        <time>2020-06-10T14:03:11Z</time>
      </trkpt>
      <trkpt lat="48.57312" lon="-3.74014">
        <ele>125.7</ele>
        <time>2020-06-10T14:03:12Z</time>
      </trkpt>
      <trkpt lat="48.57312" lon="-3.74007">
        <ele>125.8</ele>
        <time>2020-06-10T14:03:13Z</time>
      </trkpt>
      <trkpt lat="48.57311" lon="-3.73998">
        <ele>126</ele>
        <time>2020-06-10T14:03:14Z</time>
      </trkpt>
      <trkpt lat="48.5731" lon="-3.7399">
        <ele>126.1</ele>
        <time>2020-06-10T14:03:15Z</time>
      </trkpt>
      <trkpt lat="48.57309" lon="-3.73982">
        <ele>126.1</ele>
        <time>2020-06-10T14:03:16Z</time>
      </trkpt>
      <trkpt lat="48.57309" lon="-3.73974">
        <ele>126.2</ele>
        <time>2020-06-10T14:03:17Z</time>
      </trkpt>
      <trkpt lat="48.57308" lon="-3.73966">
        <ele>126.3</ele>
        <time>2020-06-10T14:03:18Z</time>
      </trkpt>
      <trkpt lat="48.57307" lon="-3.73958">
        <ele>126.3</ele>
        <time>2020-06-10T14:03:19Z</time>
      </trkpt>
      <trkpt lat="48.57306" lon="-3.73949">
        <ele>126.4</ele>
        <time>2020-06-10T14:03:20Z</time>
      </trkpt>
      <trkpt lat="48.57305" lon="-3.73941">
        <ele>126.5</ele>
        <time>2020-06-10T14:03:21Z</time>
      </trkpt>
      <trkpt lat="48.57304" lon="-3.73933">
        <ele>126.6</ele>
        <time>2020-06-10T14:03:22Z</time>
      </trkpt>
      <trkpt lat="48.57303" lon="-3.73926">
        <ele>126.7</ele>
        <time>2020-06-10T14:03:23Z</time>
      </trkpt>
      <trkpt lat="48.57303" lon="-3.73919">
        <ele>126.8</ele>
        <time>2020-06-10T14:03:24Z</time>
      </trkpt>
      <trkpt lat="48.57301" lon="-3.7391">
        <ele>126.8</ele>
        <time>2020-06-10T14:03:25Z</time>
      </trkpt>
      <trkpt lat="48.57301" lon="-3.73901">
        <ele>126.9</ele>
        <time>2020-06-10T14:03:26Z</time>
      </trkpt>
      <trkpt lat="48.573" lon="-3.73894">
        <ele>127</ele>
        <time>2020-06-10T14:03:27Z</time>
      </trkpt>
      <trkpt lat="48.57299" lon="-3.73886">
        <ele>127.1</ele>
        <time>2020-06-10T14:03:28Z</time>
      </trkpt>
      <trkpt lat="48.57299" lon="-3.73878">
        <ele>127.1</ele>
        <time>2020-06-10T14:03:29Z</time>
      </trkpt>
      <trkpt lat="48.57298" lon="-3.7387">
        <ele>127.2</ele>
        <time>2020-06-10T14:03:30Z</time>
      </trkpt>
      <trkpt lat="48.57296" lon="-3.73862">
        <ele>127.3</ele>
        <time>2020-06-10T14:03:31Z</time>
      </trkpt>
      <trkpt lat="48.57295" lon="-3.73854">
        <ele>127.4</ele>
        <time>2020-06-10T14:03:32Z</time>
      </trkpt>
      <trkpt lat="48.57295" lon="-3.73846">
        <ele>127.4</ele>
        <time>2020-06-10T14:03:33Z</time>
      </trkpt>
      <trkpt lat="48.57295" lon="-3.73838">
        <ele>127.5</ele>
        <time>2020-06-10T14:03:34Z</time>
      </trkpt>
      <trkpt lat="48.57294" lon="-3.73832">
        <ele>127.5</ele>
        <time>2020-06-10T14:03:35Z</time>
      </trkpt>
      <trkpt lat="48.57294" lon="-3.73825">
        <ele>127.5</ele>
        <time>2020-06-10T14:03:36Z</time>
      </trkpt>
      <trkpt lat="48.57293" lon="-3.73818">
        <ele>127.6</ele>
        <time>2020-06-10T14:03:37Z</time>
      </trkpt>
      <trkpt lat="48.57292" lon="-3.73811">
        <ele>127.6</ele>
        <time>2020-06-10T14:03:38Z</time>
      </trkpt>
      <trkpt lat="48.57291" lon="-3.73803">
        <ele>127.6</ele>
        <time>2020-06-10T14:03:39Z</time>
      </trkpt>
      <trkpt lat="48.57291" lon="-3.73796">
        <ele>127.6</ele>
        <time>2020-06-10T14:03:40Z</time>
      </trkpt>
      <trkpt lat="48.5729" lon="-3.73787">
        <ele>127.6</ele>
        <time>2020-06-10T14:03:41Z</time>
      </trkpt>
      <trkpt lat="48.57289" lon="-3.73779">
        <ele>127.6</ele>
        <time>2020-06-10T14:03:42Z</time>
      </trkpt>
      <trkpt lat="48.57289" lon="-3.73771">
        <ele>127.6</ele>
        <time>2020-06-10T14:03:43Z</time>
      </trkpt>
      <trkpt lat="48.57288" lon="-3.73763">
        <ele>127.6</ele>
        <time>2020-06-10T14:03:44Z</time>
      </trkpt>
      <trkpt lat="48.57287" lon="-3.73755">
        <ele>127.6</ele>
        <time>2020-06-10T14:03:45Z</time>
      </trkpt>
      <trkpt lat="48.57286" lon="-3.73748">
        <ele>127.6</ele>
        <time>2020-06-10T14:03:46Z</time>
      </trkpt>
      <trkpt lat="48.57286" lon="-3.73741">
        <ele>127.6</ele>
        <time>2020-06-10T14:03:47Z</time>
      </trkpt>
      <trkpt lat="48.57285" lon="-3.73733">
        <ele>127.6</ele>
        <time>2020-06-10T14:03:48Z</time>
      </trkpt>
      <trkpt lat="48.57285" lon="-3.73726">
        <ele>127.6</ele>
        <time>2020-06-10T14:03:49Z</time>
      </trkpt>
      <trkpt lat="48.57284" lon="-3.73718">
        <ele>127.6</ele>
        <time>2020-06-10T14:03:50Z</time>
      </trkpt>
      <trkpt lat="48.57283" lon="-3.73709">
        <ele>127.6</ele>
        <time>2020-06-10T14:03:51Z</time>
      </trkpt>
      <trkpt lat="48.57282" lon="-3.737">
        <ele>127.6</ele>
        <time>2020-06-10T14:03:52Z</time>
      </trkpt>
      <trkpt lat="48.57281" lon="-3.7369">
        <ele>127.7</ele>
        <time>2020-06-10T14:03:53Z</time>
      </trkpt>
      <trkpt lat="48.5728" lon="-3.73681">
        <ele>127.7</ele>
        <time>2020-06-10T14:03:54Z</time>
      </trkpt>
      <trkpt lat="48.5728" lon="-3.73672">
        <ele>127.7</ele>
        <time>2020-06-10T14:03:55Z</time>
      </trkpt>
      <trkpt lat="48.57279" lon="-3.73665">
        <ele>127.8</ele>
        <time>2020-06-10T14:03:56Z</time>
      </trkpt>
      <trkpt lat="48.57278" lon="-3.73657">
        <ele>127.8</ele>
        <time>2020-06-10T14:03:57Z</time>
      </trkpt>
      <trkpt lat="48.57277" lon="-3.73649">
        <ele>127.8</ele>
        <time>2020-06-10T14:03:58Z</time>
      </trkpt>
      <trkpt lat="48.57277" lon="-3.73641">
        <ele>127.9</ele>
        <time>2020-06-10T14:03:59Z</time>
      </trkpt>
      <trkpt lat="48.57276" lon="-3.73634">
        <ele>127.9</ele>
        <time>2020-06-10T14:04:00Z</time>
      </trkpt>
      <trkpt lat="48.57275" lon="-3.73626">
        <ele>128</ele>
        <time>2020-06-10T14:04:01Z</time>
      </trkpt>
      <trkpt lat="48.57274" lon="-3.73617">
        <ele>128.1</ele>
        <time>2020-06-10T14:04:02Z</time>
      </trkpt>
      <trkpt lat="48.57273" lon="-3.73611">
        <ele>128.2</ele>
        <time>2020-06-10T14:04:03Z</time>
      </trkpt>
      <trkpt lat="48.57273" lon="-3.73604">
        <ele>128.2</ele>
        <time>2020-06-10T14:04:04Z</time>
      </trkpt>
      <trkpt lat="48.57272" lon="-3.73596">
        <ele>128.3</ele>
        <time>2020-06-10T14:04:05Z</time>
      </trkpt>
      <trkpt lat="48.57271" lon="-3.73588">
        <ele>128.4</ele>
        <time>2020-06-10T14:04:06Z</time>
      </trkpt>
      <trkpt lat="48.5727" lon="-3.73579">
        <ele>128.5</ele>
        <time>2020-06-10T14:04:07Z</time>
      </trkpt>
      <trkpt lat="48.57269" lon="-3.7357">
        <ele>128.6</ele>
        <time>2020-06-10T14:04:08Z</time>
      </trkpt>
      <trkpt lat="48.57268" lon="-3.73561">
        <ele>128.6</ele>
        <time>2020-06-10T14:04:09Z</time>
      </trkpt>
      <trkpt lat="48.57267" lon="-3.73552">
        <ele>128.7</ele>
        <time>2020-06-10T14:04:10Z</time>
      </trkpt>
      <trkpt lat="48.57266" lon="-3.73544">
        <ele>128.8</ele>
        <time>2020-06-10T14:04:11Z</time>
      </trkpt>
      <trkpt lat="48.57265" lon="-3.73537">
        <ele>128.9</ele>
        <time>2020-06-10T14:04:12Z</time>
      </trkpt>
      <trkpt lat="48.57264" lon="-3.73529">
        <ele>129</ele>
        <time>2020-06-10T14:04:13Z</time>
      </trkpt>
      <trkpt lat="48.57263" lon="-3.73521">
        <ele>129.1</ele>
        <time>2020-06-10T14:04:14Z</time>
      </trkpt>
      <trkpt lat="48.57262" lon="-3.73513">
        <ele>129.3</ele>
        <time>2020-06-10T14:04:15Z</time>
      </trkpt>
      <trkpt lat="48.57261" lon="-3.73505">
        <ele>129.4</ele>
        <time>2020-06-10T14:04:16Z</time>
      </trkpt>
      <trkpt lat="48.5726" lon="-3.73498">
        <ele>129.5</ele>
        <time>2020-06-10T14:04:17Z</time>
      </trkpt>
      <trkpt lat="48.57259" lon="-3.73491">
        <ele>129.7</ele>
        <time>2020-06-10T14:04:18Z</time>
      </trkpt>
      <trkpt lat="48.57258" lon="-3.73485">
        <ele>129.8</ele>
        <time>2020-06-10T14:04:19Z</time>
      </trkpt>
      <trkpt lat="48.57257" lon="-3.73478">
        <ele>129.9</ele>
        <time>2020-06-10T14:04:20Z</time>
      </trkpt>
      <trkpt lat="48.57257" lon="-3.7347">
        <ele>130</ele>
        <time>2020-06-10T14:04:21Z</time>
      </trkpt>
      <trkpt lat="48.57256" lon="-3.73461">
        <ele>130.1</ele>
        <time>2020-06-10T14:04:22Z</time>
      </trkpt>
      <trkpt lat="48.57255" lon="-3.73455">
        <ele>130.2</ele>
        <time>2020-06-10T14:04:23Z</time>
      </trkpt>
      <trkpt lat="48.57255" lon="-3.73447">
        <ele>130.3</ele>
        <time>2020-06-10T14:04:24Z</time>
      </trkpt>
      <trkpt lat="48.57254" lon="-3.7344">
        <ele>130.3</ele>
        <time>2020-06-10T14:04:25Z</time>
      </trkpt>
      <trkpt lat="48.57253" lon="-3.73433">
        <ele>130.3</ele>
        <time>2020-06-10T14:04:26Z</time>
      </trkpt>
      <trkpt lat="48.57253" lon="-3.73426">
        <ele>130.4</ele>
        <time>2020-06-10T14:04:27Z</time>
      </trkpt>
      <trkpt lat="48.57252" lon="-3.73417">
        <ele>130.4</ele>
        <time>2020-06-10T14:04:28Z</time>
      </trkpt>
      <trkpt lat="48.57251" lon="-3.73408">
        <ele>130.3</ele>
        <time>2020-06-10T14:04:29Z</time>
      </trkpt>
      <trkpt lat="48.5725" lon="-3.734">
        <ele>130.4</ele>
        <time>2020-06-10T14:04:30Z</time>
      </trkpt>
      <trkpt lat="48.5725" lon="-3.73392">
        <ele>130.5</ele>
        <time>2020-06-10T14:04:31Z</time>
      </trkpt>
      <trkpt lat="48.57249" lon="-3.73385">
        <ele>130.6</ele>
        <time>2020-06-10T14:04:32Z</time>
      </trkpt>
      <trkpt lat="48.57248" lon="-3.73377">
        <ele>130.7</ele>
        <time>2020-06-10T14:04:33Z</time>
      </trkpt>
      <trkpt lat="48.57247" lon="-3.73369">
        <ele>130.9</ele>
        <time>2020-06-10T14:04:34Z</time>
      </trkpt>
      <trkpt lat="48.57247" lon="-3.73362">
        <ele>130.9</ele>
        <time>2020-06-10T14:04:35Z</time>
      </trkpt>
      <trkpt lat="48.57246" lon="-3.73356">
        <ele>131</ele>
        <time>2020-06-10T14:04:36Z</time>
      </trkpt>
      <trkpt lat="48.57245" lon="-3.73349">
        <ele>131</ele>
        <time>2020-06-10T14:04:37Z</time>
      </trkpt>
      <trkpt lat="48.57244" lon="-3.73342">
        <ele>131</ele>
        <time>2020-06-10T14:04:38Z</time>
      </trkpt>
      <trkpt lat="48.57244" lon="-3.73335">
        <ele>131</ele>
        <time>2020-06-10T14:04:39Z</time>
      </trkpt>
      <trkpt lat="48.57243" lon="-3.73329">
        <ele>131</ele>
        <time>2020-06-10T14:04:40Z</time>
      </trkpt>
      <trkpt lat="48.57243" lon="-3.73323">
        <ele>131</ele>
        <time>2020-06-10T14:04:41Z</time>
      </trkpt>
      <trkpt lat="48.57242" lon="-3.73316">
        <ele>131</ele>
        <time>2020-06-10T14:04:42Z</time>
      </trkpt>
      <trkpt lat="48.57242" lon="-3.73309">
        <ele>131</ele>
        <time>2020-06-10T14:04:43Z</time>
      </trkpt>
      <trkpt lat="48.57241" lon="-3.73301">
        <ele>131</ele>
        <time>2020-06-10T14:04:44Z</time>
      </trkpt>
      <trkpt lat="48.57241" lon="-3.73293">
        <ele>131</ele>
        <time>2020-06-10T14:04:45Z</time>
      </trkpt>
      <trkpt lat="48.5724" lon="-3.73285">
        <ele>130.9</ele>
        <time>2020-06-10T14:04:46Z</time>
      </trkpt>
      <trkpt lat="48.57239" lon="-3.73276">
        <ele>130.8</ele>
        <time>2020-06-10T14:04:47Z</time>
      </trkpt>
      <trkpt lat="48.57238" lon="-3.73269">
        <ele>130.7</ele>
        <time>2020-06-10T14:04:48Z</time>
      </trkpt>
      <trkpt lat="48.57238" lon="-3.73263">
        <ele>130.7</ele>
        <time>2020-06-10T14:04:49Z</time>
      </trkpt>
      <trkpt lat="48.57237" lon="-3.73256">
        <ele>130.6</ele>
        <time>2020-06-10T14:04:50Z</time>
      </trkpt>
      <trkpt lat="48.57236" lon="-3.73248">
        <ele>130.5</ele>
        <time>2020-06-10T14:04:51Z</time>
      </trkpt>
      <trkpt lat="48.57235" lon="-3.73241">
        <ele>130.4</ele>
        <time>2020-06-10T14:04:52Z</time>
      </trkpt>
      <trkpt lat="48.57235" lon="-3.73233">
        <ele>130.2</ele>
        <time>2020-06-10T14:04:53Z</time>
      </trkpt>
      <trkpt lat="48.57234" lon="-3.73225">
        <ele>130.1</ele>
        <time>2020-06-10T14:04:54Z</time>
      </trkpt>
      <trkpt lat="48.57233" lon="-3.73218">
        <ele>130</ele>
        <time>2020-06-10T14:04:55Z</time>
      </trkpt>
      <trkpt lat="48.57233" lon="-3.7321">
        <ele>129.9</ele>
        <time>2020-06-10T14:04:56Z</time>
      </trkpt>
      <trkpt lat="48.57232" lon="-3.73199">
        <ele>129.8</ele>
        <time>2020-06-10T14:04:57Z</time>
      </trkpt>
      <trkpt lat="48.57231" lon="-3.73189">
        <ele>129.7</ele>
        <time>2020-06-10T14:04:58Z</time>
      </trkpt>
      <trkpt lat="48.5723" lon="-3.73179">
        <ele>129.6</ele>
        <time>2020-06-10T14:04:59Z</time>
      </trkpt>
      <trkpt lat="48.57229" lon="-3.73171">
        <ele>129.6</ele>
        <time>2020-06-10T14:05:00Z</time>
      </trkpt>
      <trkpt lat="48.57228" lon="-3.73162">
        <ele>129.5</ele>
        <time>2020-06-10T14:05:01Z</time>
      </trkpt>
      <trkpt lat="48.57227" lon="-3.73153">
        <ele>129.5</ele>
        <time>2020-06-10T14:05:02Z</time>
      </trkpt>
      <trkpt lat="48.57226" lon="-3.73144">
        <ele>129.5</ele>
        <time>2020-06-10T14:05:03Z</time>
      </trkpt>
      <trkpt lat="48.57226" lon="-3.73136">
        <ele>129.5</ele>
        <time>2020-06-10T14:05:04Z</time>
      </trkpt>
      <trkpt lat="48.57225" lon="-3.73128">
        <ele>129.6</ele>
        <time>2020-06-10T14:05:05Z</time>
      </trkpt>
      <trkpt lat="48.57224" lon="-3.73119">
        <ele>129.5</ele>
        <time>2020-06-10T14:05:06Z</time>
      </trkpt>
      <trkpt lat="48.57223" lon="-3.73112">
        <ele>129.5</ele>
        <time>2020-06-10T14:05:07Z</time>
      </trkpt>
      <trkpt lat="48.57222" lon="-3.73103">
        <ele>129.5</ele>
        <time>2020-06-10T14:05:08Z</time>
      </trkpt>
      <trkpt lat="48.57221" lon="-3.73095">
        <ele>129.4</ele>
        <time>2020-06-10T14:05:09Z</time>
      </trkpt>
      <trkpt lat="48.5722" lon="-3.73085">
        <ele>129.4</ele>
        <time>2020-06-10T14:05:10Z</time>
      </trkpt>
      <trkpt lat="48.57219" lon="-3.73075">
        <ele>129.3</ele>
        <time>2020-06-10T14:05:11Z</time>
      </trkpt>
      <trkpt lat="48.57218" lon="-3.73066">
        <ele>129.2</ele>
        <time>2020-06-10T14:05:12Z</time>
      </trkpt>
      <trkpt lat="48.57217" lon="-3.73056">
        <ele>129.1</ele>
        <time>2020-06-10T14:05:13Z</time>
      </trkpt>
      <trkpt lat="48.57216" lon="-3.73046">
        <ele>129</ele>
        <time>2020-06-10T14:05:14Z</time>
      </trkpt>
      <trkpt lat="48.57214" lon="-3.73037">
        <ele>128.9</ele>
        <time>2020-06-10T14:05:15Z</time>
      </trkpt>
      <trkpt lat="48.57213" lon="-3.73027">
        <ele>128.7</ele>
        <time>2020-06-10T14:05:16Z</time>
      </trkpt>
      <trkpt lat="48.57212" lon="-3.73018">
        <ele>128.4</ele>
        <time>2020-06-10T14:05:17Z</time>
      </trkpt>
      <trkpt lat="48.57212" lon="-3.73008">
        <ele>128.4</ele>
        <time>2020-06-10T14:05:18Z</time>
      </trkpt>
      <trkpt lat="48.57211" lon="-3.72998">
        <ele>128.3</ele>
        <time>2020-06-10T14:05:19Z</time>
      </trkpt>
      <trkpt lat="48.5721" lon="-3.72988">
        <ele>128.2</ele>
        <time>2020-06-10T14:05:20Z</time>
      </trkpt>
      <trkpt lat="48.57208" lon="-3.72978">
        <ele>128.1</ele>
        <time>2020-06-10T14:05:21Z</time>
      </trkpt>
      <trkpt lat="48.57207" lon="-3.72969">
        <ele>128</ele>
        <time>2020-06-10T14:05:22Z</time>
      </trkpt>
      <trkpt lat="48.57206" lon="-3.7296">
        <ele>127.9</ele>
        <time>2020-06-10T14:05:23Z</time>
      </trkpt>
      <trkpt lat="48.57205" lon="-3.72949">
        <ele>127.7</ele>
        <time>2020-06-10T14:05:24Z</time>
      </trkpt>
      <trkpt lat="48.57204" lon="-3.72939">
        <ele>127.6</ele>
        <time>2020-06-10T14:05:25Z</time>
      </trkpt>
      <trkpt lat="48.57203" lon="-3.72928">
        <ele>127.4</ele>
        <time>2020-06-10T14:05:26Z</time>
      </trkpt>
      <trkpt lat="48.57202" lon="-3.72918">
        <ele>127.2</ele>
        <time>2020-06-10T14:05:27Z</time>
      </trkpt>
      <trkpt lat="48.57201" lon="-3.72907">
        <ele>127</ele>
        <time>2020-06-10T14:05:28Z</time>
      </trkpt>
      <trkpt lat="48.57201" lon="-3.72896">
        <ele>126.8</ele>
        <time>2020-06-10T14:05:29Z</time>
      </trkpt>
      <trkpt lat="48.572" lon="-3.72885">
        <ele>126.6</ele>
        <time>2020-06-10T14:05:30Z</time>
      </trkpt>
      <trkpt lat="48.57199" lon="-3.72874">
        <ele>126.4</ele>
        <time>2020-06-10T14:05:31Z</time>
      </trkpt>
      <trkpt lat="48.57198" lon="-3.72863">
        <ele>126.2</ele>
        <time>2020-06-10T14:05:32Z</time>
      </trkpt>
      <trkpt lat="48.57196" lon="-3.72851">
        <ele>126</ele>
        <time>2020-06-10T14:05:33Z</time>
      </trkpt>
      <trkpt lat="48.57195" lon="-3.7284">
        <ele>125.8</ele>
        <time>2020-06-10T14:05:34Z</time>
      </trkpt>
      <trkpt lat="48.57194" lon="-3.72829">
        <ele>125.5</ele>
        <time>2020-06-10T14:05:35Z</time>
      </trkpt>
      <trkpt lat="48.57193" lon="-3.72818">
        <ele>125.3</ele>
        <time>2020-06-10T14:05:36Z</time>
      </trkpt>
      <trkpt lat="48.57191" lon="-3.72807">
        <ele>125</ele>
        <time>2020-06-10T14:05:37Z</time>
      </trkpt>
      <trkpt lat="48.5719" lon="-3.72796">
        <ele>124.9</ele>
        <time>2020-06-10T14:05:38Z</time>
      </trkpt>
      <trkpt lat="48.57189" lon="-3.72786">
        <ele>124.7</ele>
        <time>2020-06-10T14:05:39Z</time>
      </trkpt>
      <trkpt lat="48.57188" lon="-3.72775">
        <ele>124.6</ele>
        <time>2020-06-10T14:05:40Z</time>
      </trkpt>
      <trkpt lat="48.57188" lon="-3.72766">
        <ele>124.5</ele>
        <time>2020-06-10T14:05:41Z</time>
      </trkpt>
      <trkpt lat="48.57186" lon="-3.72756">
        <ele>124.4</ele>
        <time>2020-06-10T14:05:42Z</time>
      </trkpt>
      <trkpt lat="48.57186" lon="-3.72746">
        <ele>124.2</ele>
        <time>2020-06-10T14:05:43Z</time>
      </trkpt>
      <trkpt lat="48.57185" lon="-3.72736">
        <ele>124.1</ele>
        <time>2020-06-10T14:05:44Z</time>
      </trkpt>
      <trkpt lat="48.57183" lon="-3.72725">
        <ele>123.9</ele>
        <time>2020-06-10T14:05:45Z</time>
      </trkpt>
      <trkpt lat="48.57182" lon="-3.72715">
        <ele>123.8</ele>
        <time>2020-06-10T14:05:46Z</time>
      </trkpt>
      <trkpt lat="48.57181" lon="-3.72705">
        <ele>123.7</ele>
        <time>2020-06-10T14:05:47Z</time>
      </trkpt>
      <trkpt lat="48.5718" lon="-3.72694">
        <ele>123.6</ele>
        <time>2020-06-10T14:05:48Z</time>
      </trkpt>
      <trkpt lat="48.5718" lon="-3.72685">
        <ele>123.5</ele>
        <time>2020-06-10T14:05:49Z</time>
      </trkpt>
      <trkpt lat="48.57179" lon="-3.72675">
        <ele>123.4</ele>
        <time>2020-06-10T14:05:50Z</time>
      </trkpt>
      <trkpt lat="48.57178" lon="-3.72664">
        <ele>123.3</ele>
        <time>2020-06-10T14:05:51Z</time>
      </trkpt>
      <trkpt lat="48.57177" lon="-3.72653">
        <ele>123.2</ele>
        <time>2020-06-10T14:05:52Z</time>
      </trkpt>
      <trkpt lat="48.57176" lon="-3.72643">
        <ele>123.1</ele>
        <time>2020-06-10T14:05:53Z</time>
      </trkpt>
      <trkpt lat="48.57176" lon="-3.72632">
        <ele>123</ele>
        <time>2020-06-10T14:05:54Z</time>
      </trkpt>
      <trkpt lat="48.57174" lon="-3.72622">
        <ele>122.9</ele>
        <time>2020-06-10T14:05:55Z</time>
      </trkpt>
      <trkpt lat="48.57173" lon="-3.72611">
        <ele>122.8</ele>
        <time>2020-06-10T14:05:56Z</time>
      </trkpt>
      <trkpt lat="48.57172" lon="-3.726">
        <ele>122.7</ele>
        <time>2020-06-10T14:05:57Z</time>
      </trkpt>
      <trkpt lat="48.57171" lon="-3.7259">
        <ele>122.7</ele>
        <time>2020-06-10T14:05:58Z</time>
      </trkpt>
      <trkpt lat="48.5717" lon="-3.72579">
        <ele>122.7</ele>
        <time>2020-06-10T14:05:59Z</time>
      </trkpt>
      <trkpt lat="48.57169" lon="-3.72569">
        <ele>122.7</ele>
        <time>2020-06-10T14:06:00Z</time>
      </trkpt>
      <trkpt lat="48.57169" lon="-3.72559">
        <ele>122.7</ele>
        <time>2020-06-10T14:06:01Z</time>
      </trkpt>
      <trkpt lat="48.57168" lon="-3.7255">
        <ele>122.8</ele>
        <time>2020-06-10T14:06:02Z</time>
      </trkpt>
      <trkpt lat="48.57167" lon="-3.7254">
        <ele>122.9</ele>
        <time>2020-06-10T14:06:03Z</time>
      </trkpt>
      <trkpt lat="48.57166" lon="-3.72531">
        <ele>122.9</ele>
        <time>2020-06-10T14:06:04Z</time>
      </trkpt>
      <trkpt lat="48.57165" lon="-3.72522">
        <ele>123</ele>
        <time>2020-06-10T14:06:05Z</time>
      </trkpt>
      <trkpt lat="48.57164" lon="-3.72512">
        <ele>123.1</ele>
        <time>2020-06-10T14:06:06Z</time>
      </trkpt>
      <trkpt lat="48.57163" lon="-3.72503">
        <ele>123.2</ele>
        <time>2020-06-10T14:06:07Z</time>
      </trkpt>
      <trkpt lat="48.57162" lon="-3.72494">
        <ele>123.2</ele>
        <time>2020-06-10T14:06:08Z</time>
      </trkpt>
      <trkpt lat="48.57161" lon="-3.72485">
        <ele>123.3</ele>
        <time>2020-06-10T14:06:09Z</time>
      </trkpt>
      <trkpt lat="48.5716" lon="-3.72477">
        <ele>123.4</ele>
        <time>2020-06-10T14:06:10Z</time>
      </trkpt>
      <trkpt lat="48.57159" lon="-3.72468">
        <ele>123.5</ele>
        <time>2020-06-10T14:06:11Z</time>
      </trkpt>
      <trkpt lat="48.57158" lon="-3.7246">
        <ele>123.6</ele>
        <time>2020-06-10T14:06:12Z</time>
      </trkpt>
      <trkpt lat="48.57158" lon="-3.72451">
        <ele>123.8</ele>
        <time>2020-06-10T14:06:13Z</time>
      </trkpt>
      <trkpt lat="48.57157" lon="-3.72443">
        <ele>123.9</ele>
        <time>2020-06-10T14:06:14Z</time>
      </trkpt>
      <trkpt lat="48.57156" lon="-3.72434">
        <ele>124.1</ele>
        <time>2020-06-10T14:06:15Z</time>
      </trkpt>
      <trkpt lat="48.57155" lon="-3.72426">
        <ele>124.2</ele>
        <time>2020-06-10T14:06:16Z</time>
      </trkpt>
      <trkpt lat="48.57155" lon="-3.72418">
        <ele>124.4</ele>
        <time>2020-06-10T14:06:17Z</time>
      </trkpt>
      <trkpt lat="48.57154" lon="-3.7241">
        <ele>124.6</ele>
        <time>2020-06-10T14:06:18Z</time>
      </trkpt>
      <trkpt lat="48.57153" lon="-3.72402">
        <ele>124.8</ele>
        <time>2020-06-10T14:06:19Z</time>
      </trkpt>
      <trkpt lat="48.57153" lon="-3.72395">
        <ele>125</ele>
        <time>2020-06-10T14:06:20Z</time>
      </trkpt>
      <trkpt lat="48.57152" lon="-3.72388">
        <ele>125.2</ele>
        <time>2020-06-10T14:06:21Z</time>
      </trkpt>
      <trkpt lat="48.57151" lon="-3.72381">
        <ele>125.4</ele>
        <time>2020-06-10T14:06:22Z</time>
      </trkpt>
      <trkpt lat="48.5715" lon="-3.72375">
        <ele>125.6</ele>
        <time>2020-06-10T14:06:23Z</time>
      </trkpt>
      <trkpt lat="48.5715" lon="-3.72368">
        <ele>125.7</ele>
        <time>2020-06-10T14:06:24Z</time>
      </trkpt>
      <trkpt lat="48.57149" lon="-3.72361">
        <ele>125.9</ele>
        <time>2020-06-10T14:06:25Z</time>
      </trkpt>
      <trkpt lat="48.57148" lon="-3.72353">
        <ele>126.1</ele>
        <time>2020-06-10T14:06:26Z</time>
      </trkpt>
      <trkpt lat="48.57147" lon="-3.72346">
        <ele>126.3</ele>
        <time>2020-06-10T14:06:27Z</time>
      </trkpt>
      <trkpt lat="48.57146" lon="-3.72338">
        <ele>126.5</ele>
        <time>2020-06-10T14:06:28Z</time>
      </trkpt>
      <trkpt lat="48.57145" lon="-3.72331">
        <ele>126.7</ele>
        <time>2020-06-10T14:06:29Z</time>
      </trkpt>
      <trkpt lat="48.57144" lon="-3.72324">
        <ele>126.9</ele>
        <time>2020-06-10T14:06:30Z</time>
      </trkpt>
      <trkpt lat="48.57144" lon="-3.72316">
        <ele>127.2</ele>
        <time>2020-06-10T14:06:31Z</time>
      </trkpt>
      <trkpt lat="48.57143" lon="-3.72309">
        <ele>127.6</ele>
        <time>2020-06-10T14:06:32Z</time>
      </trkpt>
      <trkpt lat="48.57143" lon="-3.72302">
        <ele>127.8</ele>
        <time>2020-06-10T14:06:33Z</time>
      </trkpt>
      <trkpt lat="48.57143" lon="-3.72295">
        <ele>128</ele>
        <time>2020-06-10T14:06:34Z</time>
      </trkpt>
      <trkpt lat="48.57142" lon="-3.72288">
        <ele>128.1</ele>
        <time>2020-06-10T14:06:35Z</time>
      </trkpt>
      <trkpt lat="48.57141" lon="-3.7228">
        <ele>128.3</ele>
        <time>2020-06-10T14:06:36Z</time>
      </trkpt>
      <trkpt lat="48.5714" lon="-3.72273">
        <ele>128.5</ele>
        <time>2020-06-10T14:06:37Z</time>
      </trkpt>
      <trkpt lat="48.57139" lon="-3.72267">
        <ele>128.6</ele>
        <time>2020-06-10T14:06:38Z</time>
      </trkpt>
      <trkpt lat="48.57139" lon="-3.7226">
        <ele>128.8</ele>
        <time>2020-06-10T14:06:39Z</time>
      </trkpt>
      <trkpt lat="48.57138" lon="-3.72251">
        <ele>129</ele>
        <time>2020-06-10T14:06:40Z</time>
      </trkpt>
      <trkpt lat="48.57138" lon="-3.72244">
        <ele>129.2</ele>
        <time>2020-06-10T14:06:41Z</time>
      </trkpt>
      <trkpt lat="48.57137" lon="-3.72234">
        <ele>129.5</ele>
        <time>2020-06-10T14:06:42Z</time>
      </trkpt>
      <trkpt lat="48.57136" lon="-3.7223">
        <ele>129.6</ele>
        <time>2020-06-10T14:06:43Z</time>
      </trkpt>
      <trkpt lat="48.57135" lon="-3.72224">
        <ele>129.7</ele>
        <time>2020-06-10T14:06:44Z</time>
      </trkpt>
      <trkpt lat="48.57135" lon="-3.72216">
        <ele>129.9</ele>
        <time>2020-06-10T14:06:45Z</time>
      </trkpt>
      <trkpt lat="48.57133" lon="-3.72208">
        <ele>130.1</ele>
        <time>2020-06-10T14:06:46Z</time>
      </trkpt>
      <trkpt lat="48.57132" lon="-3.72202">
        <ele>130.2</ele>
        <time>2020-06-10T14:06:47Z</time>
      </trkpt>
      <trkpt lat="48.57131" lon="-3.72196">
        <ele>130.3</ele>
        <time>2020-06-10T14:06:48Z</time>
      </trkpt>
      <trkpt lat="48.5713" lon="-3.7219">
        <ele>130.4</ele>
        <time>2020-06-10T14:06:49Z</time>
      </trkpt>
      <trkpt lat="48.5713" lon="-3.72181">
        <ele>130.5</ele>
        <time>2020-06-10T14:06:50Z</time>
      </trkpt>
      <trkpt lat="48.5713" lon="-3.72175">
        <ele>130.6</ele>
        <time>2020-06-10T14:06:51Z</time>
      </trkpt>
      <trkpt lat="48.57131" lon="-3.72167">
        <ele>130.8</ele>
        <time>2020-06-10T14:06:52Z</time>
      </trkpt>
      <trkpt lat="48.57131" lon="-3.7216">
        <ele>130.9</ele>
        <time>2020-06-10T14:06:53Z</time>
      </trkpt>
      <trkpt lat="48.57131" lon="-3.72153">
        <ele>131</ele>
        <time>2020-06-10T14:06:54Z</time>
      </trkpt>
      <trkpt lat="48.57129" lon="-3.72146">
        <ele>131.1</ele>
        <time>2020-06-10T14:06:55Z</time>
      </trkpt>
      <trkpt lat="48.57129" lon="-3.7214">
        <ele>131.2</ele>
        <time>2020-06-10T14:06:56Z</time>
      </trkpt>
      <trkpt lat="48.57127" lon="-3.72133">
        <ele>131.3</ele>
        <time>2020-06-10T14:06:57Z</time>
      </trkpt>
      <trkpt lat="48.57127" lon="-3.72126">
        <ele>131.4</ele>
        <time>2020-06-10T14:06:58Z</time>
      </trkpt>
      <trkpt lat="48.57126" lon="-3.72119">
        <ele>131.4</ele>
        <time>2020-06-10T14:06:59Z</time>
      </trkpt>
      <trkpt lat="48.57126" lon="-3.72113">
        <ele>131.5</ele>
        <time>2020-06-10T14:07:00Z</time>
      </trkpt>
      <trkpt lat="48.57125" lon="-3.72107">
        <ele>131.6</ele>
        <time>2020-06-10T14:07:01Z</time>
      </trkpt>
      <trkpt lat="48.57124" lon="-3.721">
        <ele>131.7</ele>
        <time>2020-06-10T14:07:02Z</time>
      </trkpt>
      <trkpt lat="48.57124" lon="-3.72093">
        <ele>131.8</ele>
        <time>2020-06-10T14:07:03Z</time>
      </trkpt>
      <trkpt lat="48.57124" lon="-3.72086">
        <ele>131.8</ele>
        <time>2020-06-10T14:07:04Z</time>
      </trkpt>
      <trkpt lat="48.57123" lon="-3.72081">
        <ele>131.9</ele>
        <time>2020-06-10T14:07:05Z</time>
      </trkpt>
      <trkpt lat="48.57123" lon="-3.72076">
        <ele>131.9</ele>
        <time>2020-06-10T14:07:06Z</time>
      </trkpt>
      <trkpt lat="48.57122" lon="-3.72071">
        <ele>131.9</ele>
        <time>2020-06-10T14:07:07Z</time>
      </trkpt>
      <trkpt lat="48.57121" lon="-3.72066">
        <ele>132</ele>
        <time>2020-06-10T14:07:08Z</time>
      </trkpt>
      <trkpt lat="48.57119" lon="-3.72062">
        <ele>132.1</ele>
        <time>2020-06-10T14:07:09Z</time>
      </trkpt>
      <trkpt lat="48.57117" lon="-3.72057">
        <ele>132.1</ele>
        <time>2020-06-10T14:07:10Z</time>
      </trkpt>
      <trkpt lat="48.57113" lon="-3.7205">
        <ele>132.2</ele>
        <time>2020-06-10T14:07:11Z</time>
      </trkpt>
      <trkpt lat="48.57111" lon="-3.72043">
        <ele>132.3</ele>
        <time>2020-06-10T14:07:12Z</time>
      </trkpt>
      <trkpt lat="48.57112" lon="-3.72036">
        <ele>132.4</ele>
        <time>2020-06-10T14:07:13Z</time>
      </trkpt>
      <trkpt lat="48.57113" lon="-3.72028">
        <ele>132.5</ele>
        <time>2020-06-10T14:07:14Z</time>
      </trkpt>
      <trkpt lat="48.57114" lon="-3.7202">
        <ele>132.5</ele>
        <time>2020-06-10T14:07:15Z</time>
      </trkpt>
      <trkpt lat="48.57115" lon="-3.72013">
        <ele>132.5</ele>
        <time>2020-06-10T14:07:16Z</time>
      </trkpt>
      <trkpt lat="48.57115" lon="-3.72006">
        <ele>132.5</ele>
        <time>2020-06-10T14:07:17Z</time>
      </trkpt>
      <trkpt lat="48.57115" lon="-3.71998">
        <ele>132.5</ele>
        <time>2020-06-10T14:07:18Z</time>
      </trkpt>
      <trkpt lat="48.57115" lon="-3.71991">
        <ele>132.5</ele>
        <time>2020-06-10T14:07:19Z</time>
      </trkpt>
      <trkpt lat="48.57114" lon="-3.71984">
        <ele>132.5</ele>
        <time>2020-06-10T14:07:20Z</time>
      </trkpt>
      <trkpt lat="48.57114" lon="-3.71978">
        <ele>132.5</ele>
        <time>2020-06-10T14:07:21Z</time>
      </trkpt>
      <trkpt lat="48.57112" lon="-3.71971">
        <ele>132.6</ele>
        <time>2020-06-10T14:07:22Z</time>
      </trkpt>
      <trkpt lat="48.57111" lon="-3.71964">
        <ele>132.6</ele>
        <time>2020-06-10T14:07:23Z</time>
      </trkpt>
      <trkpt lat="48.5711" lon="-3.71957">
        <ele>132.6</ele>
        <time>2020-06-10T14:07:24Z</time>
      </trkpt>
      <trkpt lat="48.57109" lon="-3.7195">
        <ele>132.7</ele>
        <time>2020-06-10T14:07:25Z</time>
      </trkpt>
      <trkpt lat="48.57109" lon="-3.71944">
        <ele>132.8</ele>
        <time>2020-06-10T14:07:26Z</time>
      </trkpt>
      <trkpt lat="48.57108" lon="-3.71936">
        <ele>132.9</ele>
        <time>2020-06-10T14:07:27Z</time>
      </trkpt>
      <trkpt lat="48.57108" lon="-3.71929">
        <ele>133</ele>
        <time>2020-06-10T14:07:28Z</time>
      </trkpt>
      <trkpt lat="48.57107" lon="-3.71922">
        <ele>133</ele>
        <time>2020-06-10T14:07:29Z</time>
      </trkpt>
      <trkpt lat="48.57107" lon="-3.71916">
        <ele>133.1</ele>
        <time>2020-06-10T14:07:30Z</time>
      </trkpt>
      <trkpt lat="48.57106" lon="-3.71909">
        <ele>133.1</ele>
        <time>2020-06-10T14:07:31Z</time>
      </trkpt>
      <trkpt lat="48.57106" lon="-3.71902">
        <ele>133.2</ele>
        <time>2020-06-10T14:07:32Z</time>
      </trkpt>
      <trkpt lat="48.57105" lon="-3.71895">
        <ele>133.2</ele>
        <time>2020-06-10T14:07:33Z</time>
      </trkpt>
      <trkpt lat="48.57105" lon="-3.71888">
        <ele>133.2</ele>
        <time>2020-06-10T14:07:34Z</time>
      </trkpt>
      <trkpt lat="48.57104" lon="-3.71882">
        <ele>133.2</ele>
        <time>2020-06-10T14:07:35Z</time>
      </trkpt>
      <trkpt lat="48.57103" lon="-3.71875">
        <ele>133.2</ele>
        <time>2020-06-10T14:07:36Z</time>
      </trkpt>
      <trkpt lat="48.57102" lon="-3.71867">
        <ele>133.3</ele>
        <time>2020-06-10T14:07:37Z</time>
      </trkpt>
      <trkpt lat="48.57102" lon="-3.71859">
        <ele>133.3</ele>
        <time>2020-06-10T14:07:38Z</time>
      </trkpt>
      <trkpt lat="48.571" lon="-3.7185">
        <ele>133.3</ele>
        <time>2020-06-10T14:07:39Z</time>
      </trkpt>
      <trkpt lat="48.571" lon="-3.71842">
        <ele>133.4</ele>
        <time>2020-06-10T14:07:40Z</time>
      </trkpt>
      <trkpt lat="48.57098" lon="-3.71833">
        <ele>133.4</ele>
        <time>2020-06-10T14:07:41Z</time>
      </trkpt>
      <trkpt lat="48.57097" lon="-3.71826">
        <ele>133.5</ele>
        <time>2020-06-10T14:07:42Z</time>
      </trkpt>
      <trkpt lat="48.57096" lon="-3.71818">
        <ele>133.5</ele>
        <time>2020-06-10T14:07:43Z</time>
      </trkpt>
      <trkpt lat="48.57095" lon="-3.7181">
        <ele>133.6</ele>
        <time>2020-06-10T14:07:44Z</time>
      </trkpt>
      <trkpt lat="48.57094" lon="-3.71802">
        <ele>133.6</ele>
        <time>2020-06-10T14:07:45Z</time>
      </trkpt>
      <trkpt lat="48.57093" lon="-3.71794">
        <ele>133.7</ele>
        <time>2020-06-10T14:07:46Z</time>
      </trkpt>
      <trkpt lat="48.57092" lon="-3.71786">
        <ele>133.7</ele>
        <time>2020-06-10T14:07:47Z</time>
      </trkpt>
      <trkpt lat="48.57092" lon="-3.71778">
        <ele>133.8</ele>
        <time>2020-06-10T14:07:48Z</time>
      </trkpt>
      <trkpt lat="48.57092" lon="-3.7177">
        <ele>133.8</ele>
        <time>2020-06-10T14:07:49Z</time>
      </trkpt>
      <trkpt lat="48.57091" lon="-3.71762">
        <ele>133.8</ele>
        <time>2020-06-10T14:07:50Z</time>
      </trkpt>
      <trkpt lat="48.57091" lon="-3.71755">
        <ele>133.9</ele>
        <time>2020-06-10T14:07:51Z</time>
      </trkpt>
      <trkpt lat="48.5709" lon="-3.71746">
        <ele>133.9</ele>
        <time>2020-06-10T14:07:52Z</time>
      </trkpt>
      <trkpt lat="48.5709" lon="-3.71739">
        <ele>133.9</ele>
        <time>2020-06-10T14:07:53Z</time>
      </trkpt>
      <trkpt lat="48.57089" lon="-3.71731">
        <ele>134</ele>
        <time>2020-06-10T14:07:54Z</time>
      </trkpt>
      <trkpt lat="48.57088" lon="-3.71724">
        <ele>134</ele>
        <time>2020-06-10T14:07:55Z</time>
      </trkpt>
      <trkpt lat="48.57088" lon="-3.71716">
        <ele>134</ele>
        <time>2020-06-10T14:07:56Z</time>
      </trkpt>
      <trkpt lat="48.57087" lon="-3.71709">
        <ele>134</ele>
        <time>2020-06-10T14:07:57Z</time>
      </trkpt>
      <trkpt lat="48.57086" lon="-3.71703">
        <ele>134.1</ele>
        <time>2020-06-10T14:07:58Z</time>
      </trkpt>
      <trkpt lat="48.57084" lon="-3.71694">
        <ele>134.1</ele>
        <time>2020-06-10T14:07:59Z</time>
      </trkpt>
      <trkpt lat="48.57084" lon="-3.71688">
        <ele>134.2</ele>
        <time>2020-06-10T14:08:00Z</time>
      </trkpt>
      <trkpt lat="48.57082" lon="-3.71678">
        <ele>134.2</ele>
        <time>2020-06-10T14:08:01Z</time>
      </trkpt>
      <trkpt lat="48.57081" lon="-3.7167">
        <ele>134.2</ele>
        <time>2020-06-10T14:08:02Z</time>
      </trkpt>
      <trkpt lat="48.5708" lon="-3.71662">
        <ele>134.3</ele>
        <time>2020-06-10T14:08:03Z</time>
      </trkpt>
      <trkpt lat="48.5708" lon="-3.71655">
        <ele>134.3</ele>
        <time>2020-06-10T14:08:04Z</time>
      </trkpt>
      <trkpt lat="48.57079" lon="-3.71647">
        <ele>134.3</ele>
        <time>2020-06-10T14:08:05Z</time>
      </trkpt>
      <trkpt lat="48.57079" lon="-3.71641">
        <ele>134.3</ele>
        <time>2020-06-10T14:08:06Z</time>
      </trkpt>
      <trkpt lat="48.57078" lon="-3.71633">
        <ele>134.4</ele>
        <time>2020-06-10T14:08:07Z</time>
      </trkpt>
      <trkpt lat="48.57078" lon="-3.71627">
        <ele>134.4</ele>
        <time>2020-06-10T14:08:08Z</time>
      </trkpt>
      <trkpt lat="48.57078" lon="-3.7162">
        <ele>134.5</ele>
        <time>2020-06-10T14:08:09Z</time>
      </trkpt>
      <trkpt lat="48.57078" lon="-3.71614">
        <ele>134.5</ele>
        <time>2020-06-10T14:08:10Z</time>
      </trkpt>
      <trkpt lat="48.57077" lon="-3.71608">
        <ele>134.6</ele>
        <time>2020-06-10T14:08:11Z</time>
      </trkpt>
      <trkpt lat="48.57076" lon="-3.71602">
        <ele>134.6</ele>
        <time>2020-06-10T14:08:12Z</time>
      </trkpt>
      <trkpt lat="48.57076" lon="-3.71595">
        <ele>134.7</ele>
        <time>2020-06-10T14:08:13Z</time>
      </trkpt>
      <trkpt lat="48.57075" lon="-3.71588">
        <ele>134.8</ele>
        <time>2020-06-10T14:08:14Z</time>
      </trkpt>
      <trkpt lat="48.57074" lon="-3.7158">
        <ele>134.9</ele>
        <time>2020-06-10T14:08:15Z</time>
      </trkpt>
      <trkpt lat="48.57072" lon="-3.71571">
        <ele>134.9</ele>
        <time>2020-06-10T14:08:16Z</time>
      </trkpt>
      <trkpt lat="48.57072" lon="-3.71563">
        <ele>135</ele>
        <time>2020-06-10T14:08:17Z</time>
      </trkpt>
      <trkpt lat="48.57071" lon="-3.71555">
        <ele>135</ele>
        <time>2020-06-10T14:08:18Z</time>
      </trkpt>
      <trkpt lat="48.5707" lon="-3.71548">
        <ele>135</ele>
        <time>2020-06-10T14:08:19Z</time>
      </trkpt>
      <trkpt lat="48.57069" lon="-3.71539">
        <ele>135.1</ele>
        <time>2020-06-10T14:08:20Z</time>
      </trkpt>
      <trkpt lat="48.57068" lon="-3.71531">
        <ele>135.1</ele>
        <time>2020-06-10T14:08:21Z</time>
      </trkpt>
      <trkpt lat="48.57067" lon="-3.71522">
        <ele>135.2</ele>
        <time>2020-06-10T14:08:22Z</time>
      </trkpt>
      <trkpt lat="48.57067" lon="-3.71515">
        <ele>135.3</ele>
        <time>2020-06-10T14:08:23Z</time>
      </trkpt>
      <trkpt lat="48.57066" lon="-3.71506">
        <ele>135.4</ele>
        <time>2020-06-10T14:08:24Z</time>
      </trkpt>
      <trkpt lat="48.57065" lon="-3.71498">
        <ele>135.5</ele>
        <time>2020-06-10T14:08:25Z</time>
      </trkpt>
      <trkpt lat="48.57064" lon="-3.7149">
        <ele>135.6</ele>
        <time>2020-06-10T14:08:26Z</time>
      </trkpt>
      <trkpt lat="48.57063" lon="-3.71483">
        <ele>135.6</ele>
        <time>2020-06-10T14:08:27Z</time>
      </trkpt>
      <trkpt lat="48.57063" lon="-3.71477">
        <ele>135.7</ele>
        <time>2020-06-10T14:08:28Z</time>
      </trkpt>
      <trkpt lat="48.57062" lon="-3.71468">
        <ele>135.8</ele>
        <time>2020-06-10T14:08:29Z</time>
      </trkpt>
      <trkpt lat="48.57062" lon="-3.7146">
        <ele>135.8</ele>
        <time>2020-06-10T14:08:30Z</time>
      </trkpt>
      <trkpt lat="48.57061" lon="-3.71451">
        <ele>135.9</ele>
        <time>2020-06-10T14:08:31Z</time>
      </trkpt>
      <trkpt lat="48.5706" lon="-3.71443">
        <ele>136</ele>
        <time>2020-06-10T14:08:32Z</time>
      </trkpt>
      <trkpt lat="48.5706" lon="-3.71434">
        <ele>136</ele>
        <time>2020-06-10T14:08:33Z</time>
      </trkpt>
      <trkpt lat="48.57059" lon="-3.71426">
        <ele>136.1</ele>
        <time>2020-06-10T14:08:34Z</time>
      </trkpt>
      <trkpt lat="48.57058" lon="-3.71418">
        <ele>136.2</ele>
        <time>2020-06-10T14:08:35Z</time>
      </trkpt>
      <trkpt lat="48.57057" lon="-3.71411">
        <ele>136.4</ele>
        <time>2020-06-10T14:08:36Z</time>
      </trkpt>
      <trkpt lat="48.57055" lon="-3.71403">
        <ele>136.6</ele>
        <time>2020-06-10T14:08:37Z</time>
      </trkpt>
      <trkpt lat="48.57053" lon="-3.71395">
        <ele>136.7</ele>
        <time>2020-06-10T14:08:38Z</time>
      </trkpt>
      <trkpt lat="48.57051" lon="-3.71387">
        <ele>136.9</ele>
        <time>2020-06-10T14:08:39Z</time>
      </trkpt>
      <trkpt lat="48.57051" lon="-3.71378">
        <ele>137</ele>
        <time>2020-06-10T14:08:40Z</time>
      </trkpt>
      <trkpt lat="48.5705" lon="-3.71369">
        <ele>137.1</ele>
        <time>2020-06-10T14:08:41Z</time>
      </trkpt>
      <trkpt lat="48.57049" lon="-3.71361">
        <ele>137.2</ele>
        <time>2020-06-10T14:08:42Z</time>
      </trkpt>
      <trkpt lat="48.57048" lon="-3.71354">
        <ele>137.3</ele>
        <time>2020-06-10T14:08:43Z</time>
      </trkpt>
      <trkpt lat="48.57047" lon="-3.71347">
        <ele>137.4</ele>
        <time>2020-06-10T14:08:44Z</time>
      </trkpt>
      <trkpt lat="48.57046" lon="-3.71339">
        <ele>137.5</ele>
        <time>2020-06-10T14:08:45Z</time>
      </trkpt>
      <trkpt lat="48.57045" lon="-3.71332">
        <ele>137.6</ele>
        <time>2020-06-10T14:08:46Z</time>
      </trkpt>
      <trkpt lat="48.57044" lon="-3.71325">
        <ele>137.7</ele>
        <time>2020-06-10T14:08:47Z</time>
      </trkpt>
      <trkpt lat="48.57043" lon="-3.71317">
        <ele>137.8</ele>
        <time>2020-06-10T14:08:48Z</time>
      </trkpt>
      <trkpt lat="48.57042" lon="-3.7131">
        <ele>137.9</ele>
        <time>2020-06-10T14:08:49Z</time>
      </trkpt>
      <trkpt lat="48.57042" lon="-3.71301">
        <ele>138</ele>
        <time>2020-06-10T14:08:50Z</time>
      </trkpt>
      <trkpt lat="48.57041" lon="-3.71294">
        <ele>138.1</ele>
        <time>2020-06-10T14:08:51Z</time>
      </trkpt>
      <trkpt lat="48.5704" lon="-3.71286">
        <ele>138.3</ele>
        <time>2020-06-10T14:08:52Z</time>
      </trkpt>
      <trkpt lat="48.57039" lon="-3.71278">
        <ele>138.4</ele>
        <time>2020-06-10T14:08:53Z</time>
      </trkpt>
      <trkpt lat="48.57039" lon="-3.7127">
        <ele>138.5</ele>
        <time>2020-06-10T14:08:54Z</time>
      </trkpt>
      <trkpt lat="48.57038" lon="-3.71262">
        <ele>138.6</ele>
        <time>2020-06-10T14:08:55Z</time>
      </trkpt>
      <trkpt lat="48.57037" lon="-3.71253">
        <ele>138.8</ele>
        <time>2020-06-10T14:08:56Z</time>
      </trkpt>
      <trkpt lat="48.57036" lon="-3.71245">
        <ele>138.9</ele>
        <time>2020-06-10T14:08:57Z</time>
      </trkpt>
      <trkpt lat="48.57036" lon="-3.71238">
        <ele>139.1</ele>
        <time>2020-06-10T14:08:58Z</time>
      </trkpt>
      <trkpt lat="48.57036" lon="-3.7123">
        <ele>139.2</ele>
        <time>2020-06-10T14:08:59Z</time>
      </trkpt>
      <trkpt lat="48.57035" lon="-3.71223">
        <ele>139.3</ele>
        <time>2020-06-10T14:09:00Z</time>
      </trkpt>
      <trkpt lat="48.57035" lon="-3.71215">
        <ele>139.5</ele>
        <time>2020-06-10T14:09:01Z</time>
      </trkpt>
      <trkpt lat="48.57034" lon="-3.71209">
        <ele>139.6</ele>
        <time>2020-06-10T14:09:02Z</time>
      </trkpt>
      <trkpt lat="48.57034" lon="-3.71203">
        <ele>139.7</ele>
        <time>2020-06-10T14:09:03Z</time>
      </trkpt>
      <trkpt lat="48.57033" lon="-3.71196">
        <ele>139.8</ele>
        <time>2020-06-10T14:09:04Z</time>
      </trkpt>
      <trkpt lat="48.57033" lon="-3.71188">
        <ele>139.9</ele>
        <time>2020-06-10T14:09:05Z</time>
      </trkpt>
      <trkpt lat="48.57032" lon="-3.7118">
        <ele>140</ele>
        <time>2020-06-10T14:09:06Z</time>
      </trkpt>
      <trkpt lat="48.57031" lon="-3.71171">
        <ele>140.2</ele>
        <time>2020-06-10T14:09:07Z</time>
      </trkpt>
      <trkpt lat="48.57029" lon="-3.71162">
        <ele>140.3</ele>
        <time>2020-06-10T14:09:08Z</time>
      </trkpt>
      <trkpt lat="48.57028" lon="-3.71154">
        <ele>140.4</ele>
        <time>2020-06-10T14:09:09Z</time>
      </trkpt>
      <trkpt lat="48.57027" lon="-3.71146">
        <ele>140.6</ele>
        <time>2020-06-10T14:09:10Z</time>
      </trkpt>
      <trkpt lat="48.57026" lon="-3.7114">
        <ele>140.7</ele>
        <time>2020-06-10T14:09:11Z</time>
      </trkpt>
      <trkpt lat="48.57025" lon="-3.71133">
        <ele>140.8</ele>
        <time>2020-06-10T14:09:12Z</time>
      </trkpt>
      <trkpt lat="48.57024" lon="-3.71126">
        <ele>140.9</ele>
        <time>2020-06-10T14:09:13Z</time>
      </trkpt>
      <trkpt lat="48.57023" lon="-3.71116">
        <ele>141.1</ele>
        <time>2020-06-10T14:09:14Z</time>
      </trkpt>
      <trkpt lat="48.57022" lon="-3.71108">
        <ele>141.3</ele>
        <time>2020-06-10T14:09:15Z</time>
      </trkpt>
      <trkpt lat="48.57022" lon="-3.71101">
        <ele>141.4</ele>
        <time>2020-06-10T14:09:16Z</time>
      </trkpt>
      <trkpt lat="48.57021" lon="-3.71093">
        <ele>141.5</ele>
        <time>2020-06-10T14:09:17Z</time>
      </trkpt>
      <trkpt lat="48.5702" lon="-3.71085">
        <ele>141.6</ele>
        <time>2020-06-10T14:09:18Z</time>
      </trkpt>
      <trkpt lat="48.57019" lon="-3.71077">
        <ele>141.8</ele>
        <time>2020-06-10T14:09:19Z</time>
      </trkpt>
      <trkpt lat="48.57019" lon="-3.7107">
        <ele>141.9</ele>
        <time>2020-06-10T14:09:20Z</time>
      </trkpt>
      <trkpt lat="48.57018" lon="-3.71062">
        <ele>142</ele>
        <time>2020-06-10T14:09:21Z</time>
      </trkpt>
      <trkpt lat="48.57017" lon="-3.71054">
        <ele>142.1</ele>
        <time>2020-06-10T14:09:22Z</time>
      </trkpt>
      <trkpt lat="48.57016" lon="-3.71046">
        <ele>142.2</ele>
        <time>2020-06-10T14:09:23Z</time>
      </trkpt>
      <trkpt lat="48.57015" lon="-3.71039">
        <ele>142.3</ele>
        <time>2020-06-10T14:09:24Z</time>
      </trkpt>
      <trkpt lat="48.57015" lon="-3.71031">
        <ele>142.5</ele>
        <time>2020-06-10T14:09:25Z</time>
      </trkpt>
      <trkpt lat="48.57014" lon="-3.71024">
        <ele>142.5</ele>
        <time>2020-06-10T14:09:26Z</time>
      </trkpt>
      <trkpt lat="48.57014" lon="-3.71016">
        <ele>142.6</ele>
        <time>2020-06-10T14:09:27Z</time>
      </trkpt>
      <trkpt lat="48.57013" lon="-3.71008">
        <ele>142.8</ele>
        <time>2020-06-10T14:09:28Z</time>
      </trkpt>
      <trkpt lat="48.57013" lon="-3.71">
        <ele>142.9</ele>
        <time>2020-06-10T14:09:29Z</time>
      </trkpt>
      <trkpt lat="48.57012" lon="-3.70993">
        <ele>143</ele>
        <time>2020-06-10T14:09:30Z</time>
      </trkpt>
      <trkpt lat="48.57012" lon="-3.70985">
        <ele>143.1</ele>
        <time>2020-06-10T14:09:31Z</time>
      </trkpt>
      <trkpt lat="48.57011" lon="-3.70979">
        <ele>143.2</ele>
        <time>2020-06-10T14:09:32Z</time>
      </trkpt>
      <trkpt lat="48.5701" lon="-3.70972">
        <ele>143.3</ele>
        <time>2020-06-10T14:09:33Z</time>
      </trkpt>
      <trkpt lat="48.57008" lon="-3.70963">
        <ele>143.5</ele>
        <time>2020-06-10T14:09:34Z</time>
      </trkpt>
      <trkpt lat="48.57007" lon="-3.70956">
        <ele>143.6</ele>
        <time>2020-06-10T14:09:35Z</time>
      </trkpt>
      <trkpt lat="48.57007" lon="-3.70949">
        <ele>143.8</ele>
        <time>2020-06-10T14:09:36Z</time>
      </trkpt>
      <trkpt lat="48.57005" lon="-3.70942">
        <ele>144</ele>
        <time>2020-06-10T14:09:37Z</time>
      </trkpt>
      <trkpt lat="48.57005" lon="-3.70935">
        <ele>144.1</ele>
        <time>2020-06-10T14:09:38Z</time>
      </trkpt>
      <trkpt lat="48.57004" lon="-3.70928">
        <ele>144.3</ele>
        <time>2020-06-10T14:09:39Z</time>
      </trkpt>
      <trkpt lat="48.57004" lon="-3.70922">
        <ele>144.5</ele>
        <time>2020-06-10T14:09:40Z</time>
      </trkpt>
      <trkpt lat="48.57004" lon="-3.70916">
        <ele>144.6</ele>
        <time>2020-06-10T14:09:41Z</time>
      </trkpt>
      <trkpt lat="48.57003" lon="-3.70909">
        <ele>144.8</ele>
        <time>2020-06-10T14:09:42Z</time>
      </trkpt>
      <trkpt lat="48.57003" lon="-3.70903">
        <ele>144.9</ele>
        <time>2020-06-10T14:09:43Z</time>
      </trkpt>
      <trkpt lat="48.57002" lon="-3.70897">
        <ele>145.1</ele>
        <time>2020-06-10T14:09:44Z</time>
      </trkpt>
      <trkpt lat="48.57001" lon="-3.70892">
        <ele>145.2</ele>
        <time>2020-06-10T14:09:45Z</time>
      </trkpt>
      <trkpt lat="48.57001" lon="-3.70886">
        <ele>145.4</ele>
        <time>2020-06-10T14:09:46Z</time>
      </trkpt>
      <trkpt lat="48.57" lon="-3.70881">
        <ele>145.5</ele>
        <time>2020-06-10T14:09:47Z</time>
      </trkpt>
      <trkpt lat="48.56999" lon="-3.70875">
        <ele>145.7</ele>
        <time>2020-06-10T14:09:48Z</time>
      </trkpt>
      <trkpt lat="48.56999" lon="-3.70868">
        <ele>145.9</ele>
        <time>2020-06-10T14:09:49Z</time>
      </trkpt>
      <trkpt lat="48.56998" lon="-3.70862">
        <ele>146</ele>
        <time>2020-06-10T14:09:50Z</time>
      </trkpt>
      <trkpt lat="48.56998" lon="-3.70857">
        <ele>146.2</ele>
        <time>2020-06-10T14:09:51Z</time>
      </trkpt>
      <trkpt lat="48.56998" lon="-3.70851">
        <ele>146.3</ele>
        <time>2020-06-10T14:09:52Z</time>
      </trkpt>
      <trkpt lat="48.56997" lon="-3.70845">
        <ele>146.5</ele>
        <time>2020-06-10T14:09:53Z</time>
      </trkpt>
      <trkpt lat="48.56996" lon="-3.7084">
        <ele>146.6</ele>
        <time>2020-06-10T14:09:54Z</time>
      </trkpt>
      <trkpt lat="48.56996" lon="-3.70834">
        <ele>146.8</ele>
        <time>2020-06-10T14:09:55Z</time>
      </trkpt>
      <trkpt lat="48.56997" lon="-3.70828">
        <ele>146.9</ele>
        <time>2020-06-10T14:09:56Z</time>
      </trkpt>
      <trkpt lat="48.56997" lon="-3.70823">
        <ele>147.2</ele>
        <time>2020-06-10T14:09:57Z</time>
      </trkpt>
      <trkpt lat="48.56997" lon="-3.70816">
        <ele>147.6</ele>
        <time>2020-06-10T14:09:58Z</time>
      </trkpt>
      <trkpt lat="48.56997" lon="-3.70811">
        <ele>147.9</ele>
        <time>2020-06-10T14:09:59Z</time>
      </trkpt>
      <trkpt lat="48.56996" lon="-3.70805">
        <ele>148.3</ele>
        <time>2020-06-10T14:10:00Z</time>
      </trkpt>
      <trkpt lat="48.56995" lon="-3.70799">
        <ele>148.6</ele>
        <time>2020-06-10T14:10:01Z</time>
      </trkpt>
      <trkpt lat="48.56994" lon="-3.70792">
        <ele>148.7</ele>
        <time>2020-06-10T14:10:02Z</time>
      </trkpt>
      <trkpt lat="48.56994" lon="-3.70786">
        <ele>148.7</ele>
        <time>2020-06-10T14:10:03Z</time>
      </trkpt>
      <trkpt lat="48.56993" lon="-3.70781">
        <ele>148.6</ele>
        <time>2020-06-10T14:10:04Z</time>
      </trkpt>
      <trkpt lat="48.56993" lon="-3.70776">
        <ele>148.8</ele>
        <time>2020-06-10T14:10:05Z</time>
      </trkpt>
      <trkpt lat="48.56993" lon="-3.70771">
        <ele>148.9</ele>
        <time>2020-06-10T14:10:06Z</time>
      </trkpt>
      <trkpt lat="48.56992" lon="-3.70765">
        <ele>149.1</ele>
        <time>2020-06-10T14:10:07Z</time>
      </trkpt>
      <trkpt lat="48.56991" lon="-3.7076">
        <ele>149.3</ele>
        <time>2020-06-10T14:10:08Z</time>
      </trkpt>
      <trkpt lat="48.56991" lon="-3.70753">
        <ele>149.4</ele>
        <time>2020-06-10T14:10:09Z</time>
      </trkpt>
      <trkpt lat="48.5699" lon="-3.70745">
        <ele>149.7</ele>
        <time>2020-06-10T14:10:10Z</time>
      </trkpt>
      <trkpt lat="48.56989" lon="-3.70738">
        <ele>149.8</ele>
        <time>2020-06-10T14:10:11Z</time>
      </trkpt>
      <trkpt lat="48.56989" lon="-3.70731">
        <ele>150</ele>
        <time>2020-06-10T14:10:12Z</time>
      </trkpt>
      <trkpt lat="48.56988" lon="-3.70726">
        <ele>150.2</ele>
        <time>2020-06-10T14:10:13Z</time>
      </trkpt>
      <trkpt lat="48.56988" lon="-3.7072">
        <ele>150.3</ele>
        <time>2020-06-10T14:10:14Z</time>
      </trkpt>
      <trkpt lat="48.56987" lon="-3.70714">
        <ele>150.5</ele>
        <time>2020-06-10T14:10:15Z</time>
      </trkpt>
      <trkpt lat="48.56987" lon="-3.70712">
        <ele>150.5</ele>
        <time>2020-06-10T14:10:16Z</time>
      </trkpt>
      <trkpt lat="48.56986" lon="-3.70706">
        <ele>150.7</ele>
        <time>2020-06-10T14:10:17Z</time>
      </trkpt>
      <trkpt lat="48.56985" lon="-3.707">
        <ele>150.9</ele>
        <time>2020-06-10T14:10:18Z</time>
      </trkpt>
      <trkpt lat="48.56985" lon="-3.70696">
        <ele>151</ele>
        <time>2020-06-10T14:10:19Z</time>
      </trkpt>
      <trkpt lat="48.56984" lon="-3.70687">
        <ele>151.2</ele>
        <time>2020-06-10T14:10:20Z</time>
      </trkpt>
      <trkpt lat="48.56984" lon="-3.70681">
        <ele>151.3</ele>
        <time>2020-06-10T14:10:21Z</time>
      </trkpt>
      <trkpt lat="48.56983" lon="-3.70675">
        <ele>151.5</ele>
        <time>2020-06-10T14:10:22Z</time>
      </trkpt>
      <trkpt lat="48.56983" lon="-3.7067">
        <ele>151.6</ele>
        <time>2020-06-10T14:10:23Z</time>
      </trkpt>
      <trkpt lat="48.56982" lon="-3.70666">
        <ele>151.7</ele>
        <time>2020-06-10T14:10:24Z</time>
      </trkpt>
      <trkpt lat="48.56982" lon="-3.70657">
        <ele>151.9</ele>
        <time>2020-06-10T14:10:25Z</time>
      </trkpt>
      <trkpt lat="48.56982" lon="-3.70652">
        <ele>152</ele>
        <time>2020-06-10T14:10:26Z</time>
      </trkpt>
      <trkpt lat="48.56982" lon="-3.70646">
        <ele>152.1</ele>
        <time>2020-06-10T14:10:27Z</time>
      </trkpt>
      <trkpt lat="48.56981" lon="-3.70638">
        <ele>152.3</ele>
        <time>2020-06-10T14:10:28Z</time>
      </trkpt>
      <trkpt lat="48.5698" lon="-3.70632">
        <ele>152.4</ele>
        <time>2020-06-10T14:10:29Z</time>
      </trkpt>
      <trkpt lat="48.56979" lon="-3.70625">
        <ele>152.6</ele>
        <time>2020-06-10T14:10:30Z</time>
      </trkpt>
      <trkpt lat="48.56978" lon="-3.7062">
        <ele>152.7</ele>
        <time>2020-06-10T14:10:31Z</time>
      </trkpt>
      <trkpt lat="48.56976" lon="-3.70613">
        <ele>152.8</ele>
        <time>2020-06-10T14:10:32Z</time>
      </trkpt>
      <trkpt lat="48.56976" lon="-3.70608">
        <ele>152.9</ele>
        <time>2020-06-10T14:10:33Z</time>
      </trkpt>
      <trkpt lat="48.56975" lon="-3.70603">
        <ele>153</ele>
        <time>2020-06-10T14:10:34Z</time>
      </trkpt>
      <trkpt lat="48.56974" lon="-3.70598">
        <ele>153.1</ele>
        <time>2020-06-10T14:10:35Z</time>
      </trkpt>
      <trkpt lat="48.56974" lon="-3.70591">
        <ele>153.2</ele>
        <time>2020-06-10T14:10:36Z</time>
      </trkpt>
      <trkpt lat="48.56974" lon="-3.70585">
        <ele>153.4</ele>
        <time>2020-06-10T14:10:37Z</time>
      </trkpt>
      <trkpt lat="48.56972" lon="-3.70577">
        <ele>153.5</ele>
        <time>2020-06-10T14:10:38Z</time>
      </trkpt>
      <trkpt lat="48.56972" lon="-3.7057">
        <ele>153.6</ele>
        <time>2020-06-10T14:10:39Z</time>
      </trkpt>
      <trkpt lat="48.56972" lon="-3.70563">
        <ele>153.8</ele>
        <time>2020-06-10T14:10:40Z</time>
      </trkpt>
      <trkpt lat="48.56971" lon="-3.70557">
        <ele>153.9</ele>
        <time>2020-06-10T14:10:41Z</time>
      </trkpt>
      <trkpt lat="48.56971" lon="-3.70552">
        <ele>154</ele>
        <time>2020-06-10T14:10:42Z</time>
      </trkpt>
      <trkpt lat="48.56971" lon="-3.70545">
        <ele>154.1</ele>
        <time>2020-06-10T14:10:43Z</time>
      </trkpt>
      <trkpt lat="48.56971" lon="-3.7054">
        <ele>154.2</ele>
        <time>2020-06-10T14:10:44Z</time>
      </trkpt>
      <trkpt lat="48.5697" lon="-3.70535">
        <ele>154.3</ele>
        <time>2020-06-10T14:10:45Z</time>
      </trkpt>
      <trkpt lat="48.56969" lon="-3.70529">
        <ele>154.5</ele>
        <time>2020-06-10T14:10:46Z</time>
      </trkpt>
      <trkpt lat="48.56968" lon="-3.70524">
        <ele>154.6</ele>
        <time>2020-06-10T14:10:47Z</time>
      </trkpt>
      <trkpt lat="48.56966" lon="-3.70515">
        <ele>154.8</ele>
        <time>2020-06-10T14:10:48Z</time>
      </trkpt>
      <trkpt lat="48.56965" lon="-3.70509">
        <ele>154.9</ele>
        <time>2020-06-10T14:10:49Z</time>
      </trkpt>
      <trkpt lat="48.56964" lon="-3.70503">
        <ele>155.1</ele>
        <time>2020-06-10T14:10:50Z</time>
      </trkpt>
      <trkpt lat="48.56964" lon="-3.70498">
        <ele>155.2</ele>
        <time>2020-06-10T14:10:51Z</time>
      </trkpt>
      <trkpt lat="48.56963" lon="-3.70491">
        <ele>155.3</ele>
        <time>2020-06-10T14:10:52Z</time>
      </trkpt>
      <trkpt lat="48.56964" lon="-3.70486">
        <ele>155.4</ele>
        <time>2020-06-10T14:10:53Z</time>
      </trkpt>
      <trkpt lat="48.56964" lon="-3.70479">
        <ele>155.6</ele>
        <time>2020-06-10T14:10:54Z</time>
      </trkpt>
      <trkpt lat="48.56962" lon="-3.70473">
        <ele>155.8</ele>
        <time>2020-06-10T14:10:55Z</time>
      </trkpt>
      <trkpt lat="48.56962" lon="-3.70466">
        <ele>156</ele>
        <time>2020-06-10T14:10:56Z</time>
      </trkpt>
      <trkpt lat="48.56961" lon="-3.70459">
        <ele>156.1</ele>
        <time>2020-06-10T14:10:57Z</time>
      </trkpt>
      <trkpt lat="48.56961" lon="-3.70453">
        <ele>156.3</ele>
        <time>2020-06-10T14:10:58Z</time>
      </trkpt>
      <trkpt lat="48.56961" lon="-3.70447">
        <ele>156.4</ele>
        <time>2020-06-10T14:10:59Z</time>
      </trkpt>
      <trkpt lat="48.56961" lon="-3.70441">
        <ele>156.7</ele>
        <time>2020-06-10T14:11:00Z</time>
      </trkpt>
      <trkpt lat="48.5696" lon="-3.70434">
        <ele>156.9</ele>
        <time>2020-06-10T14:11:01Z</time>
      </trkpt>
      <trkpt lat="48.5696" lon="-3.70428">
        <ele>157</ele>
        <time>2020-06-10T14:11:02Z</time>
      </trkpt>
      <trkpt lat="48.56959" lon="-3.70424">
        <ele>157.2</ele>
        <time>2020-06-10T14:11:03Z</time>
      </trkpt>
      <trkpt lat="48.56958" lon="-3.70418">
        <ele>157.3</ele>
        <time>2020-06-10T14:11:04Z</time>
      </trkpt>
      <trkpt lat="48.56956" lon="-3.70411">
        <ele>157.5</ele>
        <time>2020-06-10T14:11:05Z</time>
      </trkpt>
      <trkpt lat="48.56955" lon="-3.70404">
        <ele>157.7</ele>
        <time>2020-06-10T14:11:06Z</time>
      </trkpt>
      <trkpt lat="48.56955" lon="-3.70398">
        <ele>157.9</ele>
        <time>2020-06-10T14:11:07Z</time>
      </trkpt>
      <trkpt lat="48.56954" lon="-3.70393">
        <ele>158</ele>
        <time>2020-06-10T14:11:08Z</time>
      </trkpt>
      <trkpt lat="48.56953" lon="-3.70386">
        <ele>158.2</ele>
        <time>2020-06-10T14:11:09Z</time>
      </trkpt>
      <trkpt lat="48.56952" lon="-3.7038">
        <ele>158.4</ele>
        <time>2020-06-10T14:11:10Z</time>
      </trkpt>
      <trkpt lat="48.56952" lon="-3.70374">
        <ele>158.5</ele>
        <time>2020-06-10T14:11:11Z</time>
      </trkpt>
      <trkpt lat="48.56951" lon="-3.70367">
        <ele>158.7</ele>
        <time>2020-06-10T14:11:12Z</time>
      </trkpt>
      <trkpt lat="48.56951" lon="-3.7036">
        <ele>158.8</ele>
        <time>2020-06-10T14:11:13Z</time>
      </trkpt>
      <trkpt lat="48.5695" lon="-3.70353">
        <ele>159</ele>
        <time>2020-06-10T14:11:14Z</time>
      </trkpt>
      <trkpt lat="48.5695" lon="-3.70344">
        <ele>159.2</ele>
        <time>2020-06-10T14:11:15Z</time>
      </trkpt>
      <trkpt lat="48.56949" lon="-3.70335">
        <ele>159.4</ele>
        <time>2020-06-10T14:11:16Z</time>
      </trkpt>
      <trkpt lat="48.56948" lon="-3.70329">
        <ele>159.6</ele>
        <time>2020-06-10T14:11:17Z</time>
      </trkpt>
      <trkpt lat="48.56947" lon="-3.70323">
        <ele>159.7</ele>
        <time>2020-06-10T14:11:18Z</time>
      </trkpt>
      <trkpt lat="48.56947" lon="-3.70318">
        <ele>159.8</ele>
        <time>2020-06-10T14:11:19Z</time>
      </trkpt>
      <trkpt lat="48.56946" lon="-3.70312">
        <ele>159.9</ele>
        <time>2020-06-10T14:11:20Z</time>
      </trkpt>
      <trkpt lat="48.56946" lon="-3.70304">
        <ele>160.1</ele>
        <time>2020-06-10T14:11:21Z</time>
      </trkpt>
      <trkpt lat="48.56946" lon="-3.70298">
        <ele>160.2</ele>
        <time>2020-06-10T14:11:22Z</time>
      </trkpt>
      <trkpt lat="48.56946" lon="-3.70289">
        <ele>160.4</ele>
        <time>2020-06-10T14:11:23Z</time>
      </trkpt>
      <trkpt lat="48.56946" lon="-3.70282">
        <ele>160.6</ele>
        <time>2020-06-10T14:11:24Z</time>
      </trkpt>
      <trkpt lat="48.56945" lon="-3.70276">
        <ele>160.8</ele>
        <time>2020-06-10T14:11:25Z</time>
      </trkpt>
      <trkpt lat="48.56944" lon="-3.70269">
        <ele>160.8</ele>
        <time>2020-06-10T14:11:26Z</time>
      </trkpt>
      <trkpt lat="48.56944" lon="-3.70264">
        <ele>160.8</ele>
        <time>2020-06-10T14:11:27Z</time>
      </trkpt>
      <trkpt lat="48.56943" lon="-3.70257">
        <ele>161</ele>
        <time>2020-06-10T14:11:28Z</time>
      </trkpt>
      <trkpt lat="48.56942" lon="-3.70251">
        <ele>161.1</ele>
        <time>2020-06-10T14:11:29Z</time>
      </trkpt>
      <trkpt lat="48.56941" lon="-3.70244">
        <ele>161.2</ele>
        <time>2020-06-10T14:11:30Z</time>
      </trkpt>
      <trkpt lat="48.56941" lon="-3.70237">
        <ele>161.3</ele>
        <time>2020-06-10T14:11:31Z</time>
      </trkpt>
      <trkpt lat="48.5694" lon="-3.70232">
        <ele>161.4</ele>
        <time>2020-06-10T14:11:32Z</time>
      </trkpt>
      <trkpt lat="48.56939" lon="-3.70226">
        <ele>161.5</ele>
        <time>2020-06-10T14:11:33Z</time>
      </trkpt>
      <trkpt lat="48.56939" lon="-3.70221">
        <ele>161.5</ele>
        <time>2020-06-10T14:11:34Z</time>
      </trkpt>
      <trkpt lat="48.56939" lon="-3.70214">
        <ele>161.6</ele>
        <time>2020-06-10T14:11:35Z</time>
      </trkpt>
      <trkpt lat="48.56939" lon="-3.70207">
        <ele>161.7</ele>
        <time>2020-06-10T14:11:36Z</time>
      </trkpt>
      <trkpt lat="48.56939" lon="-3.70201">
        <ele>161.8</ele>
        <time>2020-06-10T14:11:37Z</time>
      </trkpt>
      <trkpt lat="48.56939" lon="-3.70193">
        <ele>161.9</ele>
        <time>2020-06-10T14:11:38Z</time>
      </trkpt>
      <trkpt lat="48.56938" lon="-3.70187">
        <ele>162</ele>
        <time>2020-06-10T14:11:39Z</time>
      </trkpt>
      <trkpt lat="48.56938" lon="-3.7018">
        <ele>162.1</ele>
        <time>2020-06-10T14:11:40Z</time>
      </trkpt>
      <trkpt lat="48.56936" lon="-3.70172">
        <ele>162.2</ele>
        <time>2020-06-10T14:11:41Z</time>
      </trkpt>
      <trkpt lat="48.56935" lon="-3.70167">
        <ele>162.3</ele>
        <time>2020-06-10T14:11:42Z</time>
      </trkpt>
      <trkpt lat="48.56935" lon="-3.7016">
        <ele>162.3</ele>
        <time>2020-06-10T14:11:43Z</time>
      </trkpt>
      <trkpt lat="48.56936" lon="-3.70153">
        <ele>162.4</ele>
        <time>2020-06-10T14:11:44Z</time>
      </trkpt>
      <trkpt lat="48.56934" lon="-3.70147">
        <ele>162.5</ele>
        <time>2020-06-10T14:11:45Z</time>
      </trkpt>
      <trkpt lat="48.56933" lon="-3.7014">
        <ele>162.5</ele>
        <time>2020-06-10T14:11:46Z</time>
      </trkpt>
      <trkpt lat="48.56933" lon="-3.70133">
        <ele>162.6</ele>
        <time>2020-06-10T14:11:47Z</time>
      </trkpt>
      <trkpt lat="48.56932" lon="-3.70125">
        <ele>162.7</ele>
        <time>2020-06-10T14:11:48Z</time>
      </trkpt>
      <trkpt lat="48.56932" lon="-3.70118">
        <ele>162.8</ele>
        <time>2020-06-10T14:11:49Z</time>
      </trkpt>
      <trkpt lat="48.56932" lon="-3.70111">
        <ele>162.9</ele>
        <time>2020-06-10T14:11:50Z</time>
      </trkpt>
      <trkpt lat="48.56932" lon="-3.70104">
        <ele>163</ele>
        <time>2020-06-10T14:11:51Z</time>
      </trkpt>
      <trkpt lat="48.56931" lon="-3.70097">
        <ele>163</ele>
        <time>2020-06-10T14:11:52Z</time>
      </trkpt>
      <trkpt lat="48.56931" lon="-3.70089">
        <ele>163.1</ele>
        <time>2020-06-10T14:11:53Z</time>
      </trkpt>
      <trkpt lat="48.5693" lon="-3.70083">
        <ele>163.2</ele>
        <time>2020-06-10T14:11:54Z</time>
      </trkpt>
      <trkpt lat="48.56929" lon="-3.70074">
        <ele>163.3</ele>
        <time>2020-06-10T14:11:55Z</time>
      </trkpt>
      <trkpt lat="48.56929" lon="-3.70068">
        <ele>163.4</ele>
        <time>2020-06-10T14:11:56Z</time>
      </trkpt>
      <trkpt lat="48.56927" lon="-3.70062">
        <ele>163.4</ele>
        <time>2020-06-10T14:11:57Z</time>
      </trkpt>
      <trkpt lat="48.56927" lon="-3.70055">
        <ele>163.5</ele>
        <time>2020-06-10T14:11:58Z</time>
      </trkpt>
      <trkpt lat="48.56927" lon="-3.70049">
        <ele>163.6</ele>
        <time>2020-06-10T14:11:59Z</time>
      </trkpt>
      <trkpt lat="48.56926" lon="-3.70042">
        <ele>163.7</ele>
        <time>2020-06-10T14:12:00Z</time>
      </trkpt>
      <trkpt lat="48.56926" lon="-3.70034">
        <ele>163.8</ele>
        <time>2020-06-10T14:12:01Z</time>
      </trkpt>
      <trkpt lat="48.56926" lon="-3.70026">
        <ele>163.9</ele>
        <time>2020-06-10T14:12:02Z</time>
      </trkpt>
      <trkpt lat="48.56926" lon="-3.70019">
        <ele>164</ele>
        <time>2020-06-10T14:12:03Z</time>
      </trkpt>
      <trkpt lat="48.56925" lon="-3.70012">
        <ele>164</ele>
        <time>2020-06-10T14:12:04Z</time>
      </trkpt>
      <trkpt lat="48.56925" lon="-3.70005">
        <ele>164.1</ele>
        <time>2020-06-10T14:12:05Z</time>
      </trkpt>
      <trkpt lat="48.56924" lon="-3.69996">
        <ele>164.3</ele>
        <time>2020-06-10T14:12:06Z</time>
      </trkpt>
      <trkpt lat="48.56923" lon="-3.69989">
        <ele>164.4</ele>
        <time>2020-06-10T14:12:07Z</time>
      </trkpt>
      <trkpt lat="48.56923" lon="-3.69981">
        <ele>164.6</ele>
        <time>2020-06-10T14:12:08Z</time>
      </trkpt>
      <trkpt lat="48.56922" lon="-3.69974">
        <ele>164.7</ele>
        <time>2020-06-10T14:12:09Z</time>
      </trkpt>
      <trkpt lat="48.56921" lon="-3.69967">
        <ele>164.9</ele>
        <time>2020-06-10T14:12:10Z</time>
      </trkpt>
      <trkpt lat="48.5692" lon="-3.6996">
        <ele>165</ele>
        <time>2020-06-10T14:12:11Z</time>
      </trkpt>
      <trkpt lat="48.56919" lon="-3.69953">
        <ele>165.1</ele>
        <time>2020-06-10T14:12:12Z</time>
      </trkpt>
      <trkpt lat="48.56918" lon="-3.69946">
        <ele>165.2</ele>
        <time>2020-06-10T14:12:13Z</time>
      </trkpt>
      <trkpt lat="48.56918" lon="-3.69939">
        <ele>165.4</ele>
        <time>2020-06-10T14:12:14Z</time>
      </trkpt>
      <trkpt lat="48.56918" lon="-3.69931">
        <ele>165.5</ele>
        <time>2020-06-10T14:12:15Z</time>
      </trkpt>
      <trkpt lat="48.56918" lon="-3.69924">
        <ele>165.6</ele>
        <time>2020-06-10T14:12:16Z</time>
      </trkpt>
      <trkpt lat="48.56917" lon="-3.69915">
        <ele>165.7</ele>
        <time>2020-06-10T14:12:17Z</time>
      </trkpt>
      <trkpt lat="48.56917" lon="-3.69908">
        <ele>165.7</ele>
        <time>2020-06-10T14:12:18Z</time>
      </trkpt>
      <trkpt lat="48.56916" lon="-3.69901">
        <ele>165.8</ele>
        <time>2020-06-10T14:12:19Z</time>
      </trkpt>
      <trkpt lat="48.56916" lon="-3.69893">
        <ele>165.9</ele>
        <time>2020-06-10T14:12:20Z</time>
      </trkpt>
      <trkpt lat="48.56915" lon="-3.69886">
        <ele>165.9</ele>
        <time>2020-06-10T14:12:21Z</time>
      </trkpt>
      <trkpt lat="48.56914" lon="-3.6988">
        <ele>166</ele>
        <time>2020-06-10T14:12:22Z</time>
      </trkpt>
      <trkpt lat="48.56914" lon="-3.69873">
        <ele>166.1</ele>
        <time>2020-06-10T14:12:23Z</time>
      </trkpt>
      <trkpt lat="48.56914" lon="-3.69865">
        <ele>166.2</ele>
        <time>2020-06-10T14:12:24Z</time>
      </trkpt>
      <trkpt lat="48.56913" lon="-3.6986">
        <ele>166.2</ele>
        <time>2020-06-10T14:12:25Z</time>
      </trkpt>
      <trkpt lat="48.56912" lon="-3.69853">
        <ele>166.3</ele>
        <time>2020-06-10T14:12:26Z</time>
      </trkpt>
      <trkpt lat="48.56912" lon="-3.69846">
        <ele>166.4</ele>
        <time>2020-06-10T14:12:27Z</time>
      </trkpt>
      <trkpt lat="48.56911" lon="-3.6984">
        <ele>166.4</ele>
        <time>2020-06-10T14:12:28Z</time>
      </trkpt>
      <trkpt lat="48.56912" lon="-3.69833">
        <ele>166.5</ele>
        <time>2020-06-10T14:12:29Z</time>
      </trkpt>
      <trkpt lat="48.56912" lon="-3.69826">
        <ele>166.6</ele>
        <time>2020-06-10T14:12:30Z</time>
      </trkpt>
      <trkpt lat="48.56912" lon="-3.69818">
        <ele>166.7</ele>
        <time>2020-06-10T14:12:31Z</time>
      </trkpt>
      <trkpt lat="48.56912" lon="-3.69811">
        <ele>166.8</ele>
        <time>2020-06-10T14:12:32Z</time>
      </trkpt>
      <trkpt lat="48.56911" lon="-3.69803">
        <ele>166.9</ele>
        <time>2020-06-10T14:12:33Z</time>
      </trkpt>
      <trkpt lat="48.5691" lon="-3.69795">
        <ele>167</ele>
        <time>2020-06-10T14:12:34Z</time>
      </trkpt>
      <trkpt lat="48.56909" lon="-3.69787">
        <ele>167</ele>
        <time>2020-06-10T14:12:35Z</time>
      </trkpt>
      <trkpt lat="48.56908" lon="-3.6978">
        <ele>167.1</ele>
        <time>2020-06-10T14:12:36Z</time>
      </trkpt>
      <trkpt lat="48.56908" lon="-3.69772">
        <ele>167.2</ele>
        <time>2020-06-10T14:12:37Z</time>
      </trkpt>
      <trkpt lat="48.56907" lon="-3.69765">
        <ele>167.3</ele>
        <time>2020-06-10T14:12:38Z</time>
      </trkpt>
      <trkpt lat="48.56907" lon="-3.69757">
        <ele>167.4</ele>
        <time>2020-06-10T14:12:39Z</time>
      </trkpt>
      <trkpt lat="48.56907" lon="-3.69748">
        <ele>167.5</ele>
        <time>2020-06-10T14:12:40Z</time>
      </trkpt>
      <trkpt lat="48.56906" lon="-3.69741">
        <ele>167.6</ele>
        <time>2020-06-10T14:12:41Z</time>
      </trkpt>
      <trkpt lat="48.56906" lon="-3.69733">
        <ele>167.6</ele>
        <time>2020-06-10T14:12:42Z</time>
      </trkpt>
      <trkpt lat="48.56904" lon="-3.69727">
        <ele>167.7</ele>
        <time>2020-06-10T14:12:43Z</time>
      </trkpt>
      <trkpt lat="48.56904" lon="-3.69719">
        <ele>167.8</ele>
        <time>2020-06-10T14:12:44Z</time>
      </trkpt>
      <trkpt lat="48.56903" lon="-3.69712">
        <ele>167.8</ele>
        <time>2020-06-10T14:12:45Z</time>
      </trkpt>
      <trkpt lat="48.56903" lon="-3.69704">
        <ele>167.9</ele>
        <time>2020-06-10T14:12:46Z</time>
      </trkpt>
      <trkpt lat="48.56902" lon="-3.69696">
        <ele>168</ele>
        <time>2020-06-10T14:12:47Z</time>
      </trkpt>
      <trkpt lat="48.56902" lon="-3.69689">
        <ele>168.1</ele>
        <time>2020-06-10T14:12:48Z</time>
      </trkpt>
      <trkpt lat="48.56901" lon="-3.69681">
        <ele>168.1</ele>
        <time>2020-06-10T14:12:49Z</time>
      </trkpt>
      <trkpt lat="48.569" lon="-3.69673">
        <ele>168.2</ele>
        <time>2020-06-10T14:12:50Z</time>
      </trkpt>
      <trkpt lat="48.569" lon="-3.69665">
        <ele>168.3</ele>
        <time>2020-06-10T14:12:51Z</time>
      </trkpt>
      <trkpt lat="48.569" lon="-3.69656">
        <ele>168.4</ele>
        <time>2020-06-10T14:12:52Z</time>
      </trkpt>
      <trkpt lat="48.569" lon="-3.69649">
        <ele>168.4</ele>
        <time>2020-06-10T14:12:53Z</time>
      </trkpt>
      <trkpt lat="48.569" lon="-3.69639">
        <ele>168.5</ele>
        <time>2020-06-10T14:12:54Z</time>
      </trkpt>
      <trkpt lat="48.56899" lon="-3.69632">
        <ele>168.6</ele>
        <time>2020-06-10T14:12:55Z</time>
      </trkpt>
      <trkpt lat="48.56899" lon="-3.69624">
        <ele>168.7</ele>
        <time>2020-06-10T14:12:56Z</time>
      </trkpt>
      <trkpt lat="48.56898" lon="-3.69617">
        <ele>168.7</ele>
        <time>2020-06-10T14:12:57Z</time>
      </trkpt>
      <trkpt lat="48.56898" lon="-3.6961">
        <ele>168.8</ele>
        <time>2020-06-10T14:12:58Z</time>
      </trkpt>
      <trkpt lat="48.56897" lon="-3.69602">
        <ele>168.9</ele>
        <time>2020-06-10T14:12:59Z</time>
      </trkpt>
      <trkpt lat="48.56896" lon="-3.69594">
        <ele>168.9</ele>
        <time>2020-06-10T14:13:00Z</time>
      </trkpt>
      <trkpt lat="48.56895" lon="-3.69586">
        <ele>169</ele>
        <time>2020-06-10T14:13:01Z</time>
      </trkpt>
      <trkpt lat="48.56894" lon="-3.69579">
        <ele>169</ele>
        <time>2020-06-10T14:13:02Z</time>
      </trkpt>
      <trkpt lat="48.56894" lon="-3.69571">
        <ele>169.1</ele>
        <time>2020-06-10T14:13:03Z</time>
      </trkpt>
      <trkpt lat="48.56894" lon="-3.69564">
        <ele>169.1</ele>
        <time>2020-06-10T14:13:04Z</time>
      </trkpt>
      <trkpt lat="48.56893" lon="-3.69557">
        <ele>169.1</ele>
        <time>2020-06-10T14:13:05Z</time>
      </trkpt>
      <trkpt lat="48.56892" lon="-3.6955">
        <ele>169.1</ele>
        <time>2020-06-10T14:13:06Z</time>
      </trkpt>
      <trkpt lat="48.56892" lon="-3.69542">
        <ele>169.1</ele>
        <time>2020-06-10T14:13:07Z</time>
      </trkpt>
      <trkpt lat="48.56891" lon="-3.69534">
        <ele>169.2</ele>
        <time>2020-06-10T14:13:08Z</time>
      </trkpt>
      <trkpt lat="48.5689" lon="-3.69526">
        <ele>169.2</ele>
        <time>2020-06-10T14:13:09Z</time>
      </trkpt>
      <trkpt lat="48.56889" lon="-3.69518">
        <ele>169.3</ele>
        <time>2020-06-10T14:13:10Z</time>
      </trkpt>
      <trkpt lat="48.56887" lon="-3.6951">
        <ele>169.3</ele>
        <time>2020-06-10T14:13:11Z</time>
      </trkpt>
      <trkpt lat="48.56886" lon="-3.69501">
        <ele>169.3</ele>
        <time>2020-06-10T14:13:12Z</time>
      </trkpt>
      <trkpt lat="48.56886" lon="-3.69493">
        <ele>169.4</ele>
        <time>2020-06-10T14:13:13Z</time>
      </trkpt>
      <trkpt lat="48.56886" lon="-3.69484">
        <ele>169.5</ele>
        <time>2020-06-10T14:13:14Z</time>
      </trkpt>
      <trkpt lat="48.56886" lon="-3.69476">
        <ele>169.6</ele>
        <time>2020-06-10T14:13:15Z</time>
      </trkpt>
      <trkpt lat="48.56885" lon="-3.69469">
        <ele>169.6</ele>
        <time>2020-06-10T14:13:16Z</time>
      </trkpt>
      <trkpt lat="48.56884" lon="-3.69462">
        <ele>169.7</ele>
        <time>2020-06-10T14:13:17Z</time>
      </trkpt>
      <trkpt lat="48.56884" lon="-3.69454">
        <ele>169.7</ele>
        <time>2020-06-10T14:13:18Z</time>
      </trkpt>
      <trkpt lat="48.56884" lon="-3.69446">
        <ele>169.8</ele>
        <time>2020-06-10T14:13:19Z</time>
      </trkpt>
      <trkpt lat="48.56884" lon="-3.69438">
        <ele>169.8</ele>
        <time>2020-06-10T14:13:20Z</time>
      </trkpt>
      <trkpt lat="48.56883" lon="-3.6943">
        <ele>169.8</ele>
        <time>2020-06-10T14:13:21Z</time>
      </trkpt>
      <trkpt lat="48.56883" lon="-3.69422">
        <ele>169.9</ele>
        <time>2020-06-10T14:13:22Z</time>
      </trkpt>
      <trkpt lat="48.56882" lon="-3.69414">
        <ele>169.9</ele>
        <time>2020-06-10T14:13:23Z</time>
      </trkpt>
      <trkpt lat="48.56882" lon="-3.69406">
        <ele>169.9</ele>
        <time>2020-06-10T14:13:24Z</time>
      </trkpt>
      <trkpt lat="48.56881" lon="-3.69398">
        <ele>169.9</ele>
        <time>2020-06-10T14:13:25Z</time>
      </trkpt>
      <trkpt lat="48.5688" lon="-3.69392">
        <ele>169.9</ele>
        <time>2020-06-10T14:13:26Z</time>
      </trkpt>
      <trkpt lat="48.5688" lon="-3.69385">
        <ele>170</ele>
        <time>2020-06-10T14:13:27Z</time>
      </trkpt>
      <trkpt lat="48.56879" lon="-3.69378">
        <ele>170</ele>
        <time>2020-06-10T14:13:28Z</time>
      </trkpt>
      <trkpt lat="48.56879" lon="-3.6937">
        <ele>170</ele>
        <time>2020-06-10T14:13:29Z</time>
      </trkpt>
      <trkpt lat="48.56879" lon="-3.69361">
        <ele>170.1</ele>
        <time>2020-06-10T14:13:30Z</time>
      </trkpt>
      <trkpt lat="48.56878" lon="-3.69353">
        <ele>170.1</ele>
        <time>2020-06-10T14:13:31Z</time>
      </trkpt>
      <trkpt lat="48.56878" lon="-3.69346">
        <ele>170.1</ele>
        <time>2020-06-10T14:13:32Z</time>
      </trkpt>
      <trkpt lat="48.56876" lon="-3.69338">
        <ele>170.2</ele>
        <time>2020-06-10T14:13:33Z</time>
      </trkpt>
      <trkpt lat="48.56876" lon="-3.6933">
        <ele>170.2</ele>
        <time>2020-06-10T14:13:34Z</time>
      </trkpt>
      <trkpt lat="48.56875" lon="-3.69321">
        <ele>170.3</ele>
        <time>2020-06-10T14:13:35Z</time>
      </trkpt>
      <trkpt lat="48.56874" lon="-3.69315">
        <ele>170.3</ele>
        <time>2020-06-10T14:13:36Z</time>
      </trkpt>
      <trkpt lat="48.56873" lon="-3.69307">
        <ele>170.4</ele>
        <time>2020-06-10T14:13:37Z</time>
      </trkpt>
      <trkpt lat="48.56873" lon="-3.69298">
        <ele>170.4</ele>
        <time>2020-06-10T14:13:38Z</time>
      </trkpt>
      <trkpt lat="48.56872" lon="-3.69289">
        <ele>170.4</ele>
        <time>2020-06-10T14:13:39Z</time>
      </trkpt>
      <trkpt lat="48.56872" lon="-3.69281">
        <ele>170.5</ele>
        <time>2020-06-10T14:13:40Z</time>
      </trkpt>
      <trkpt lat="48.56872" lon="-3.69271">
        <ele>170.5</ele>
        <time>2020-06-10T14:13:41Z</time>
      </trkpt>
      <trkpt lat="48.56872" lon="-3.69262">
        <ele>170.5</ele>
        <time>2020-06-10T14:13:42Z</time>
      </trkpt>
      <trkpt lat="48.56871" lon="-3.69252">
        <ele>170.5</ele>
        <time>2020-06-10T14:13:43Z</time>
      </trkpt>
      <trkpt lat="48.5687" lon="-3.69244">
        <ele>170.6</ele>
        <time>2020-06-10T14:13:44Z</time>
      </trkpt>
      <trkpt lat="48.56869" lon="-3.69235">
        <ele>170.6</ele>
        <time>2020-06-10T14:13:45Z</time>
      </trkpt>
      <trkpt lat="48.56868" lon="-3.69226">
        <ele>170.6</ele>
        <time>2020-06-10T14:13:46Z</time>
      </trkpt>
      <trkpt lat="48.56868" lon="-3.69218">
        <ele>170.6</ele>
        <time>2020-06-10T14:13:47Z</time>
      </trkpt>
      <trkpt lat="48.56867" lon="-3.6921">
        <ele>170.6</ele>
        <time>2020-06-10T14:13:48Z</time>
      </trkpt>
      <trkpt lat="48.56866" lon="-3.69202">
        <ele>170.7</ele>
        <time>2020-06-10T14:13:49Z</time>
      </trkpt>
      <trkpt lat="48.56866" lon="-3.69192">
        <ele>170.7</ele>
        <time>2020-06-10T14:13:50Z</time>
      </trkpt>
      <trkpt lat="48.56865" lon="-3.69183">
        <ele>170.7</ele>
        <time>2020-06-10T14:13:51Z</time>
      </trkpt>
      <trkpt lat="48.56865" lon="-3.69174">
        <ele>170.7</ele>
        <time>2020-06-10T14:13:52Z</time>
      </trkpt>
      <trkpt lat="48.56864" lon="-3.69166">
        <ele>170.8</ele>
        <time>2020-06-10T14:13:53Z</time>
      </trkpt>
      <trkpt lat="48.56863" lon="-3.69157">
        <ele>170.8</ele>
        <time>2020-06-10T14:13:54Z</time>
      </trkpt>
      <trkpt lat="48.56863" lon="-3.69149">
        <ele>170.8</ele>
        <time>2020-06-10T14:13:55Z</time>
      </trkpt>
      <trkpt lat="48.56863" lon="-3.69141">
        <ele>170.9</ele>
        <time>2020-06-10T14:13:56Z</time>
      </trkpt>
      <trkpt lat="48.56863" lon="-3.69132">
        <ele>170.9</ele>
        <time>2020-06-10T14:13:57Z</time>
      </trkpt>
      <trkpt lat="48.56862" lon="-3.69124">
        <ele>170.9</ele>
        <time>2020-06-10T14:13:58Z</time>
      </trkpt>
      <trkpt lat="48.56861" lon="-3.69116">
        <ele>170.9</ele>
        <time>2020-06-10T14:13:59Z</time>
      </trkpt>
      <trkpt lat="48.56861" lon="-3.69107">
        <ele>170.9</ele>
        <time>2020-06-10T14:14:00Z</time>
      </trkpt>
      <trkpt lat="48.5686" lon="-3.69097">
        <ele>170.9</ele>
        <time>2020-06-10T14:14:01Z</time>
      </trkpt>
      <trkpt lat="48.56859" lon="-3.69088">
        <ele>171</ele>
        <time>2020-06-10T14:14:02Z</time>
      </trkpt>
      <trkpt lat="48.56859" lon="-3.69079">
        <ele>171</ele>
        <time>2020-06-10T14:14:03Z</time>
      </trkpt>
      <trkpt lat="48.56859" lon="-3.6907">
        <ele>171</ele>
        <time>2020-06-10T14:14:04Z</time>
      </trkpt>
      <trkpt lat="48.56859" lon="-3.69061">
        <ele>171.1</ele>
        <time>2020-06-10T14:14:05Z</time>
      </trkpt>
      <trkpt lat="48.56858" lon="-3.69052">
        <ele>171.1</ele>
        <time>2020-06-10T14:14:06Z</time>
      </trkpt>
      <trkpt lat="48.56857" lon="-3.69043">
        <ele>171.1</ele>
        <time>2020-06-10T14:14:07Z</time>
      </trkpt>
      <trkpt lat="48.56857" lon="-3.69034">
        <ele>171.1</ele>
        <time>2020-06-10T14:14:08Z</time>
      </trkpt>
      <trkpt lat="48.56856" lon="-3.69025">
        <ele>171.2</ele>
        <time>2020-06-10T14:14:09Z</time>
      </trkpt>
      <trkpt lat="48.56856" lon="-3.69017">
        <ele>171.2</ele>
        <time>2020-06-10T14:14:10Z</time>
      </trkpt>
      <trkpt lat="48.56855" lon="-3.69009">
        <ele>171.3</ele>
        <time>2020-06-10T14:14:11Z</time>
      </trkpt>
      <trkpt lat="48.56855" lon="-3.69002">
        <ele>171.4</ele>
        <time>2020-06-10T14:14:12Z</time>
      </trkpt>
      <trkpt lat="48.56854" lon="-3.68994">
        <ele>171.4</ele>
        <time>2020-06-10T14:14:13Z</time>
      </trkpt>
      <trkpt lat="48.56853" lon="-3.68987">
        <ele>171.5</ele>
        <time>2020-06-10T14:14:14Z</time>
      </trkpt>
      <trkpt lat="48.56852" lon="-3.68979">
        <ele>171.6</ele>
        <time>2020-06-10T14:14:15Z</time>
      </trkpt>
      <trkpt lat="48.56851" lon="-3.68971">
        <ele>171.7</ele>
        <time>2020-06-10T14:14:16Z</time>
      </trkpt>
      <trkpt lat="48.5685" lon="-3.68963">
        <ele>171.8</ele>
        <time>2020-06-10T14:14:17Z</time>
      </trkpt>
      <trkpt lat="48.56849" lon="-3.68955">
        <ele>171.9</ele>
        <time>2020-06-10T14:14:18Z</time>
      </trkpt>
      <trkpt lat="48.56849" lon="-3.68947">
        <ele>172</ele>
        <time>2020-06-10T14:14:19Z</time>
      </trkpt>
      <trkpt lat="48.56849" lon="-3.6894">
        <ele>172.1</ele>
        <time>2020-06-10T14:14:20Z</time>
      </trkpt>
      <trkpt lat="48.56848" lon="-3.68932">
        <ele>172.1</ele>
        <time>2020-06-10T14:14:21Z</time>
      </trkpt>
      <trkpt lat="48.56848" lon="-3.68926">
        <ele>172.2</ele>
        <time>2020-06-10T14:14:22Z</time>
      </trkpt>
      <trkpt lat="48.56848" lon="-3.6892">
        <ele>172.2</ele>
        <time>2020-06-10T14:14:23Z</time>
      </trkpt>
      <trkpt lat="48.56847" lon="-3.68914">
        <ele>172.3</ele>
        <time>2020-06-10T14:14:24Z</time>
      </trkpt>
      <trkpt lat="48.56846" lon="-3.68907">
        <ele>172.3</ele>
        <time>2020-06-10T14:14:25Z</time>
      </trkpt>
      <trkpt lat="48.56845" lon="-3.689">
        <ele>172.4</ele>
        <time>2020-06-10T14:14:26Z</time>
      </trkpt>
      <trkpt lat="48.56845" lon="-3.68892">
        <ele>172.5</ele>
        <time>2020-06-10T14:14:27Z</time>
      </trkpt>
      <trkpt lat="48.56844" lon="-3.68883">
        <ele>172.6</ele>
        <time>2020-06-10T14:14:28Z</time>
      </trkpt>
      <trkpt lat="48.56843" lon="-3.68875">
        <ele>172.7</ele>
        <time>2020-06-10T14:14:29Z</time>
      </trkpt>
      <trkpt lat="48.56842" lon="-3.68867">
        <ele>172.8</ele>
        <time>2020-06-10T14:14:30Z</time>
      </trkpt>
      <trkpt lat="48.56842" lon="-3.68861">
        <ele>172.8</ele>
        <time>2020-06-10T14:14:31Z</time>
      </trkpt>
      <trkpt lat="48.56841" lon="-3.68855">
        <ele>172.9</ele>
        <time>2020-06-10T14:14:32Z</time>
      </trkpt>
      <trkpt lat="48.56841" lon="-3.6885">
        <ele>172.9</ele>
        <time>2020-06-10T14:14:33Z</time>
      </trkpt>
      <trkpt lat="48.56841" lon="-3.68846">
        <ele>173</ele>
        <time>2020-06-10T14:14:34Z</time>
      </trkpt>
      <trkpt lat="48.5684" lon="-3.68841">
        <ele>173</ele>
        <time>2020-06-10T14:14:35Z</time>
      </trkpt>
      <trkpt lat="48.5684" lon="-3.68835">
        <ele>173</ele>
        <time>2020-06-10T14:14:36Z</time>
      </trkpt>
      <trkpt lat="48.5684" lon="-3.6883">
        <ele>173</ele>
        <time>2020-06-10T14:14:37Z</time>
      </trkpt>
      <trkpt lat="48.5684" lon="-3.68826">
        <ele>173</ele>
        <time>2020-06-10T14:14:38Z</time>
      </trkpt>
      <trkpt lat="48.5684" lon="-3.6882">
        <ele>173</ele>
        <time>2020-06-10T14:14:39Z</time>
      </trkpt>
      <trkpt lat="48.5684" lon="-3.68819">
        <ele>172.9</ele>
        <time>2020-06-10T14:14:40Z</time>
      </trkpt>
      <trkpt lat="48.56841" lon="-3.68817">
        <ele>172.9</ele>
        <time>2020-06-10T14:14:41Z</time>
      </trkpt>
      <trkpt lat="48.5684" lon="-3.68816">
        <ele>172.9</ele>
        <time>2020-06-10T14:14:42Z</time>
      </trkpt>
      <trkpt lat="48.5684" lon="-3.68815">
        <ele>172.9</ele>
        <time>2020-06-10T14:14:43Z</time>
      </trkpt>
      <trkpt lat="48.5684" lon="-3.68813">
        <ele>172.9</ele>
        <time>2020-06-10T14:14:44Z</time>
      </trkpt>
      <trkpt lat="48.5684" lon="-3.68812">
        <ele>172.9</ele>
        <time>2020-06-10T14:14:45Z</time>
      </trkpt>
      <trkpt lat="48.5684" lon="-3.68811">
        <ele>172.9</ele>
        <time>2020-06-10T14:14:46Z</time>
      </trkpt>
      <trkpt lat="48.5684" lon="-3.68809">
        <ele>172.9</ele>
        <time>2020-06-10T14:14:47Z</time>
      </trkpt>
      <trkpt lat="48.5684" lon="-3.68808">
        <ele>172.9</ele>
        <time>2020-06-10T14:14:48Z</time>
      </trkpt>
      <trkpt lat="48.5684" lon="-3.68807">
        <ele>172.9</ele>
        <time>2020-06-10T14:14:49Z</time>
      </trkpt>
      <trkpt lat="48.5684" lon="-3.68805">
        <ele>172.8</ele>
        <time>2020-06-10T14:14:50Z</time>
      </trkpt>
      <trkpt lat="48.56839" lon="-3.68804">
        <ele>172.8</ele>
        <time>2020-06-10T14:14:51Z</time>
      </trkpt>
      <trkpt lat="48.56839" lon="-3.68803">
        <ele>172.8</ele>
        <time>2020-06-10T14:14:52Z</time>
      </trkpt>
      <trkpt lat="48.56839" lon="-3.68801">
        <ele>172.8</ele>
        <time>2020-06-10T14:14:53Z</time>
      </trkpt>
      <trkpt lat="48.56839" lon="-3.688">
        <ele>172.8</ele>
        <time>2020-06-10T14:14:54Z</time>
      </trkpt>
      <trkpt lat="48.56839" lon="-3.68799">
        <ele>172.8</ele>
        <time>2020-06-10T14:18:56Z</time>
      </trkpt>
      <trkpt lat="48.56839" lon="-3.68797">
        <ele>172.8</ele>
        <time>2020-06-10T14:18:57Z</time>
      </trkpt>
      <trkpt lat="48.56839" lon="-3.68792">
        <ele>172.7</ele>
        <time>2020-06-10T14:18:58Z</time>
      </trkpt>
      <trkpt lat="48.56838" lon="-3.68787">
        <ele>172.6</ele>
        <time>2020-06-10T14:18:59Z</time>
      </trkpt>
      <trkpt lat="48.56838" lon="-3.68782">
        <ele>172.5</ele>
        <time>2020-06-10T14:19:00Z</time>
      </trkpt>
      <trkpt lat="48.56837" lon="-3.68777">
        <ele>172.5</ele>
        <time>2020-06-10T14:19:01Z</time>
      </trkpt>
      <trkpt lat="48.56837" lon="-3.68771">
        <ele>172.4</ele>
        <time>2020-06-10T14:19:02Z</time>
      </trkpt>
      <trkpt lat="48.56836" lon="-3.68765">
        <ele>172.3</ele>
        <time>2020-06-10T14:19:03Z</time>
      </trkpt>
      <trkpt lat="48.56836" lon="-3.68758">
        <ele>172.1</ele>
        <time>2020-06-10T14:19:04Z</time>
      </trkpt>
      <trkpt lat="48.56835" lon="-3.68752">
        <ele>172</ele>
        <time>2020-06-10T14:19:05Z</time>
      </trkpt>
      <trkpt lat="48.56835" lon="-3.68746">
        <ele>171.9</ele>
        <time>2020-06-10T14:19:06Z</time>
      </trkpt>
      <trkpt lat="48.56834" lon="-3.68739">
        <ele>171.8</ele>
        <time>2020-06-10T14:19:07Z</time>
      </trkpt>
      <trkpt lat="48.56834" lon="-3.68733">
        <ele>171.7</ele>
        <time>2020-06-10T14:19:08Z</time>
      </trkpt>
      <trkpt lat="48.56834" lon="-3.68727">
        <ele>171.6</ele>
        <time>2020-06-10T14:19:09Z</time>
      </trkpt>
      <trkpt lat="48.56833" lon="-3.68719">
        <ele>171.5</ele>
        <time>2020-06-10T14:19:10Z</time>
      </trkpt>
      <trkpt lat="48.56832" lon="-3.68712">
        <ele>171.4</ele>
        <time>2020-06-10T14:19:11Z</time>
      </trkpt>
      <trkpt lat="48.56831" lon="-3.68705">
        <ele>171.3</ele>
        <time>2020-06-10T14:19:12Z</time>
      </trkpt>
      <trkpt lat="48.56831" lon="-3.68698">
        <ele>171.2</ele>
        <time>2020-06-10T14:19:13Z</time>
      </trkpt>
      <trkpt lat="48.5683" lon="-3.68692">
        <ele>171</ele>
        <time>2020-06-10T14:19:14Z</time>
      </trkpt>
      <trkpt lat="48.5683" lon="-3.68684">
        <ele>170.9</ele>
        <time>2020-06-10T14:19:15Z</time>
      </trkpt>
      <trkpt lat="48.5683" lon="-3.68677">
        <ele>170.8</ele>
        <time>2020-06-10T14:19:16Z</time>
      </trkpt>
      <trkpt lat="48.5683" lon="-3.68669">
        <ele>170.6</ele>
        <time>2020-06-10T14:19:17Z</time>
      </trkpt>
      <trkpt lat="48.56829" lon="-3.6866">
        <ele>170.5</ele>
        <time>2020-06-10T14:19:18Z</time>
      </trkpt>
      <trkpt lat="48.56829" lon="-3.68651">
        <ele>170.2</ele>
        <time>2020-06-10T14:19:19Z</time>
      </trkpt>
      <trkpt lat="48.56828" lon="-3.68643">
        <ele>170</ele>
        <time>2020-06-10T14:19:20Z</time>
      </trkpt>
      <trkpt lat="48.56828" lon="-3.68634">
        <ele>169.9</ele>
        <time>2020-06-10T14:19:21Z</time>
      </trkpt>
      <trkpt lat="48.56828" lon="-3.68625">
        <ele>169.7</ele>
        <time>2020-06-10T14:19:22Z</time>
      </trkpt>
      <trkpt lat="48.56826" lon="-3.68615">
        <ele>169.5</ele>
        <time>2020-06-10T14:19:23Z</time>
      </trkpt>
      <trkpt lat="48.56825" lon="-3.68605">
        <ele>169.3</ele>
        <time>2020-06-10T14:19:24Z</time>
      </trkpt>
      <trkpt lat="48.56824" lon="-3.68594">
        <ele>169.1</ele>
        <time>2020-06-10T14:19:25Z</time>
      </trkpt>
      <trkpt lat="48.56823" lon="-3.68583">
        <ele>168.9</ele>
        <time>2020-06-10T14:19:26Z</time>
      </trkpt>
      <trkpt lat="48.56822" lon="-3.68574">
        <ele>168.8</ele>
        <time>2020-06-10T14:19:27Z</time>
      </trkpt>
      <trkpt lat="48.56821" lon="-3.68564">
        <ele>168.6</ele>
        <time>2020-06-10T14:19:28Z</time>
      </trkpt>
      <trkpt lat="48.56821" lon="-3.68555">
        <ele>168.4</ele>
        <time>2020-06-10T14:19:29Z</time>
      </trkpt>
      <trkpt lat="48.5682" lon="-3.68544">
        <ele>168.3</ele>
        <time>2020-06-10T14:19:30Z</time>
      </trkpt>
      <trkpt lat="48.5682" lon="-3.68533">
        <ele>168.1</ele>
        <time>2020-06-10T14:19:31Z</time>
      </trkpt>
      <trkpt lat="48.56819" lon="-3.68522">
        <ele>168</ele>
        <time>2020-06-10T14:19:32Z</time>
      </trkpt>
      <trkpt lat="48.56819" lon="-3.68512">
        <ele>167.9</ele>
        <time>2020-06-10T14:19:33Z</time>
      </trkpt>
      <trkpt lat="48.56817" lon="-3.68501">
        <ele>167.7</ele>
        <time>2020-06-10T14:19:34Z</time>
      </trkpt>
      <trkpt lat="48.56816" lon="-3.68489">
        <ele>167.6</ele>
        <time>2020-06-10T14:19:35Z</time>
      </trkpt>
      <trkpt lat="48.56815" lon="-3.68478">
        <ele>167.4</ele>
        <time>2020-06-10T14:19:36Z</time>
      </trkpt>
      <trkpt lat="48.56814" lon="-3.68467">
        <ele>167.3</ele>
        <time>2020-06-10T14:19:37Z</time>
      </trkpt>
      <trkpt lat="48.56813" lon="-3.68457">
        <ele>167.2</ele>
        <time>2020-06-10T14:19:38Z</time>
      </trkpt>
      <trkpt lat="48.56813" lon="-3.68447">
        <ele>167.1</ele>
        <time>2020-06-10T14:19:39Z</time>
      </trkpt>
      <trkpt lat="48.56813" lon="-3.68438">
        <ele>167</ele>
        <time>2020-06-10T14:19:40Z</time>
      </trkpt>
      <trkpt lat="48.56812" lon="-3.68429">
        <ele>167</ele>
        <time>2020-06-10T14:19:41Z</time>
      </trkpt>
      <trkpt lat="48.56812" lon="-3.68421">
        <ele>166.9</ele>
        <time>2020-06-10T14:19:42Z</time>
      </trkpt>
      <trkpt lat="48.56811" lon="-3.68411">
        <ele>166.8</ele>
        <time>2020-06-10T14:19:43Z</time>
      </trkpt>
      <trkpt lat="48.5681" lon="-3.68401">
        <ele>166.8</ele>
        <time>2020-06-10T14:19:44Z</time>
      </trkpt>
      <trkpt lat="48.5681" lon="-3.68391">
        <ele>166.7</ele>
        <time>2020-06-10T14:19:45Z</time>
      </trkpt>
      <trkpt lat="48.56809" lon="-3.68381">
        <ele>166.7</ele>
        <time>2020-06-10T14:19:46Z</time>
      </trkpt>
      <trkpt lat="48.56809" lon="-3.68373">
        <ele>166.7</ele>
        <time>2020-06-10T14:19:47Z</time>
      </trkpt>
      <trkpt lat="48.56808" lon="-3.68363">
        <ele>166.6</ele>
        <time>2020-06-10T14:19:48Z</time>
      </trkpt>
      <trkpt lat="48.56808" lon="-3.68354">
        <ele>166.6</ele>
        <time>2020-06-10T14:19:49Z</time>
      </trkpt>
      <trkpt lat="48.56807" lon="-3.68344">
        <ele>166.5</ele>
        <time>2020-06-10T14:19:50Z</time>
      </trkpt>
      <trkpt lat="48.56806" lon="-3.68334">
        <ele>166.4</ele>
        <time>2020-06-10T14:19:51Z</time>
      </trkpt>
      <trkpt lat="48.56805" lon="-3.68325">
        <ele>166.3</ele>
        <time>2020-06-10T14:19:52Z</time>
      </trkpt>
      <trkpt lat="48.56804" lon="-3.68315">
        <ele>166.2</ele>
        <time>2020-06-10T14:19:53Z</time>
      </trkpt>
      <trkpt lat="48.56803" lon="-3.68306">
        <ele>166.2</ele>
        <time>2020-06-10T14:19:54Z</time>
      </trkpt>
      <trkpt lat="48.56802" lon="-3.68297">
        <ele>166.1</ele>
        <time>2020-06-10T14:19:55Z</time>
      </trkpt>
      <trkpt lat="48.56801" lon="-3.68287">
        <ele>166.1</ele>
        <time>2020-06-10T14:19:56Z</time>
      </trkpt>
      <trkpt lat="48.568" lon="-3.68278">
        <ele>166</ele>
        <time>2020-06-10T14:19:57Z</time>
      </trkpt>
      <trkpt lat="48.56799" lon="-3.68268">
        <ele>166</ele>
        <time>2020-06-10T14:19:58Z</time>
      </trkpt>
      <trkpt lat="48.56799" lon="-3.68259">
        <ele>165.9</ele>
        <time>2020-06-10T14:19:59Z</time>
      </trkpt>
      <trkpt lat="48.56798" lon="-3.68249">
        <ele>165.8</ele>
        <time>2020-06-10T14:20:00Z</time>
      </trkpt>
      <trkpt lat="48.56797" lon="-3.6824">
        <ele>165.8</ele>
        <time>2020-06-10T14:20:01Z</time>
      </trkpt>
      <trkpt lat="48.56796" lon="-3.6823">
        <ele>165.7</ele>
        <time>2020-06-10T14:20:02Z</time>
      </trkpt>
      <trkpt lat="48.56795" lon="-3.6822">
        <ele>165.6</ele>
        <time>2020-06-10T14:20:03Z</time>
      </trkpt>
      <trkpt lat="48.56795" lon="-3.6821">
        <ele>165.5</ele>
        <time>2020-06-10T14:20:04Z</time>
      </trkpt>
      <trkpt lat="48.56793" lon="-3.682">
        <ele>165.4</ele>
        <time>2020-06-10T14:20:05Z</time>
      </trkpt>
      <trkpt lat="48.56792" lon="-3.68189">
        <ele>165.4</ele>
        <time>2020-06-10T14:20:06Z</time>
      </trkpt>
      <trkpt lat="48.56791" lon="-3.68179">
        <ele>165.3</ele>
        <time>2020-06-10T14:20:07Z</time>
      </trkpt>
      <trkpt lat="48.56791" lon="-3.68168">
        <ele>165.3</ele>
        <time>2020-06-10T14:20:08Z</time>
      </trkpt>
      <trkpt lat="48.5679" lon="-3.68158">
        <ele>165.2</ele>
        <time>2020-06-10T14:20:09Z</time>
      </trkpt>
      <trkpt lat="48.5679" lon="-3.68147">
        <ele>165.2</ele>
        <time>2020-06-10T14:20:10Z</time>
      </trkpt>
      <trkpt lat="48.56789" lon="-3.68136">
        <ele>165.2</ele>
        <time>2020-06-10T14:20:11Z</time>
      </trkpt>
      <trkpt lat="48.56789" lon="-3.68126">
        <ele>165.1</ele>
        <time>2020-06-10T14:20:12Z</time>
      </trkpt>
      <trkpt lat="48.56788" lon="-3.68116">
        <ele>165.1</ele>
        <time>2020-06-10T14:20:13Z</time>
      </trkpt>
      <trkpt lat="48.56787" lon="-3.68106">
        <ele>165.1</ele>
        <time>2020-06-10T14:20:14Z</time>
      </trkpt>
      <trkpt lat="48.56786" lon="-3.68096">
        <ele>165.1</ele>
        <time>2020-06-10T14:20:15Z</time>
      </trkpt>
      <trkpt lat="48.56785" lon="-3.68086">
        <ele>165.1</ele>
        <time>2020-06-10T14:20:16Z</time>
      </trkpt>
      <trkpt lat="48.56785" lon="-3.68077">
        <ele>165.2</ele>
        <time>2020-06-10T14:20:17Z</time>
      </trkpt>
      <trkpt lat="48.56784" lon="-3.68067">
        <ele>165.1</ele>
        <time>2020-06-10T14:20:18Z</time>
      </trkpt>
      <trkpt lat="48.56783" lon="-3.68057">
        <ele>165.1</ele>
        <time>2020-06-10T14:20:19Z</time>
      </trkpt>
      <trkpt lat="48.56782" lon="-3.68048">
        <ele>165.1</ele>
        <time>2020-06-10T14:20:20Z</time>
      </trkpt>
      <trkpt lat="48.56781" lon="-3.68039">
        <ele>165</ele>
        <time>2020-06-10T14:20:21Z</time>
      </trkpt>
      <trkpt lat="48.56781" lon="-3.6803">
        <ele>164.9</ele>
        <time>2020-06-10T14:20:22Z</time>
      </trkpt>
      <trkpt lat="48.5678" lon="-3.6802">
        <ele>164.9</ele>
        <time>2020-06-10T14:20:23Z</time>
      </trkpt>
      <trkpt lat="48.5678" lon="-3.68011">
        <ele>164.7</ele>
        <time>2020-06-10T14:20:24Z</time>
      </trkpt>
      <trkpt lat="48.5678" lon="-3.68001">
        <ele>164.5</ele>
        <time>2020-06-10T14:20:25Z</time>
      </trkpt>
      <trkpt lat="48.56779" lon="-3.67991">
        <ele>164.4</ele>
        <time>2020-06-10T14:20:26Z</time>
      </trkpt>
      <trkpt lat="48.56778" lon="-3.67981">
        <ele>164.3</ele>
        <time>2020-06-10T14:20:27Z</time>
      </trkpt>
      <trkpt lat="48.56778" lon="-3.67971">
        <ele>164.2</ele>
        <time>2020-06-10T14:20:28Z</time>
      </trkpt>
      <trkpt lat="48.56777" lon="-3.67961">
        <ele>164.1</ele>
        <time>2020-06-10T14:20:29Z</time>
      </trkpt>
      <trkpt lat="48.56776" lon="-3.67951">
        <ele>164</ele>
        <time>2020-06-10T14:20:30Z</time>
      </trkpt>
      <trkpt lat="48.56775" lon="-3.67941">
        <ele>163.8</ele>
        <time>2020-06-10T14:20:31Z</time>
      </trkpt>
      <trkpt lat="48.56775" lon="-3.67931">
        <ele>163.6</ele>
        <time>2020-06-10T14:20:32Z</time>
      </trkpt>
      <trkpt lat="48.56774" lon="-3.6792">
        <ele>163.4</ele>
        <time>2020-06-10T14:20:33Z</time>
      </trkpt>
      <trkpt lat="48.56774" lon="-3.6791">
        <ele>163.1</ele>
        <time>2020-06-10T14:20:34Z</time>
      </trkpt>
      <trkpt lat="48.56773" lon="-3.67899">
        <ele>162.9</ele>
        <time>2020-06-10T14:20:35Z</time>
      </trkpt>
      <trkpt lat="48.56772" lon="-3.67888">
        <ele>162.6</ele>
        <time>2020-06-10T14:20:36Z</time>
      </trkpt>
      <trkpt lat="48.56772" lon="-3.67877">
        <ele>162.3</ele>
        <time>2020-06-10T14:20:37Z</time>
      </trkpt>
      <trkpt lat="48.56771" lon="-3.67866">
        <ele>162</ele>
        <time>2020-06-10T14:20:38Z</time>
      </trkpt>
      <trkpt lat="48.5677" lon="-3.67855">
        <ele>161.7</ele>
        <time>2020-06-10T14:20:39Z</time>
      </trkpt>
      <trkpt lat="48.56769" lon="-3.67844">
        <ele>161.4</ele>
        <time>2020-06-10T14:20:40Z</time>
      </trkpt>
      <trkpt lat="48.56769" lon="-3.67833">
        <ele>161.1</ele>
        <time>2020-06-10T14:20:41Z</time>
      </trkpt>
      <trkpt lat="48.56767" lon="-3.67823">
        <ele>160.8</ele>
        <time>2020-06-10T14:20:42Z</time>
      </trkpt>
      <trkpt lat="48.56766" lon="-3.67813">
        <ele>160.5</ele>
        <time>2020-06-10T14:20:43Z</time>
      </trkpt>
      <trkpt lat="48.56765" lon="-3.67803">
        <ele>160.2</ele>
        <time>2020-06-10T14:20:44Z</time>
      </trkpt>
      <trkpt lat="48.56764" lon="-3.67793">
        <ele>159.9</ele>
        <time>2020-06-10T14:20:45Z</time>
      </trkpt>
      <trkpt lat="48.56763" lon="-3.67784">
        <ele>159.6</ele>
        <time>2020-06-10T14:20:46Z</time>
      </trkpt>
      <trkpt lat="48.56762" lon="-3.67774">
        <ele>159.3</ele>
        <time>2020-06-10T14:20:47Z</time>
      </trkpt>
      <trkpt lat="48.56762" lon="-3.67765">
        <ele>159</ele>
        <time>2020-06-10T14:20:48Z</time>
      </trkpt>
      <trkpt lat="48.56761" lon="-3.67755">
        <ele>158.7</ele>
        <time>2020-06-10T14:20:49Z</time>
      </trkpt>
      <trkpt lat="48.5676" lon="-3.67746">
        <ele>158.3</ele>
        <time>2020-06-10T14:20:50Z</time>
      </trkpt>
      <trkpt lat="48.56759" lon="-3.67736">
        <ele>158</ele>
        <time>2020-06-10T14:20:51Z</time>
      </trkpt>
      <trkpt lat="48.56759" lon="-3.67727">
        <ele>157.7</ele>
        <time>2020-06-10T14:20:52Z</time>
      </trkpt>
      <trkpt lat="48.56758" lon="-3.67716">
        <ele>157.3</ele>
        <time>2020-06-10T14:20:53Z</time>
      </trkpt>
      <trkpt lat="48.56758" lon="-3.67706">
        <ele>156.9</ele>
        <time>2020-06-10T14:20:54Z</time>
      </trkpt>
      <trkpt lat="48.56757" lon="-3.67695">
        <ele>156.5</ele>
        <time>2020-06-10T14:20:55Z</time>
      </trkpt>
      <trkpt lat="48.56757" lon="-3.67683">
        <ele>156.1</ele>
        <time>2020-06-10T14:20:56Z</time>
      </trkpt>
      <trkpt lat="48.56756" lon="-3.67672">
        <ele>155.7</ele>
        <time>2020-06-10T14:20:57Z</time>
      </trkpt>
      <trkpt lat="48.56755" lon="-3.6766">
        <ele>155.3</ele>
        <time>2020-06-10T14:20:58Z</time>
      </trkpt>
      <trkpt lat="48.56755" lon="-3.67648">
        <ele>154.9</ele>
        <time>2020-06-10T14:20:59Z</time>
      </trkpt>
      <trkpt lat="48.56755" lon="-3.67636">
        <ele>154.5</ele>
        <time>2020-06-10T14:21:00Z</time>
      </trkpt>
      <trkpt lat="48.56754" lon="-3.67625">
        <ele>154</ele>
        <time>2020-06-10T14:21:01Z</time>
      </trkpt>
      <trkpt lat="48.56753" lon="-3.67613">
        <ele>153.6</ele>
        <time>2020-06-10T14:21:02Z</time>
      </trkpt>
      <trkpt lat="48.56752" lon="-3.676">
        <ele>153.1</ele>
        <time>2020-06-10T14:21:03Z</time>
      </trkpt>
      <trkpt lat="48.56751" lon="-3.67588">
        <ele>152.7</ele>
        <time>2020-06-10T14:21:04Z</time>
      </trkpt>
      <trkpt lat="48.5675" lon="-3.67575">
        <ele>152.2</ele>
        <time>2020-06-10T14:21:05Z</time>
      </trkpt>
      <trkpt lat="48.5675" lon="-3.67562">
        <ele>151.8</ele>
        <time>2020-06-10T14:21:06Z</time>
      </trkpt>
      <trkpt lat="48.56749" lon="-3.67549">
        <ele>151.3</ele>
        <time>2020-06-10T14:21:07Z</time>
      </trkpt>
      <trkpt lat="48.56748" lon="-3.67536">
        <ele>150.9</ele>
        <time>2020-06-10T14:21:08Z</time>
      </trkpt>
      <trkpt lat="48.56748" lon="-3.67523">
        <ele>150.4</ele>
        <time>2020-06-10T14:21:09Z</time>
      </trkpt>
      <trkpt lat="48.56747" lon="-3.67511">
        <ele>150</ele>
        <time>2020-06-10T14:21:10Z</time>
      </trkpt>
      <trkpt lat="48.56746" lon="-3.67498">
        <ele>149.6</ele>
        <time>2020-06-10T14:21:11Z</time>
      </trkpt>
      <trkpt lat="48.56745" lon="-3.67486">
        <ele>149.3</ele>
        <time>2020-06-10T14:21:12Z</time>
      </trkpt>
      <trkpt lat="48.56744" lon="-3.67474">
        <ele>148.9</ele>
        <time>2020-06-10T14:21:13Z</time>
      </trkpt>
      <trkpt lat="48.56743" lon="-3.67462">
        <ele>148.5</ele>
        <time>2020-06-10T14:21:14Z</time>
      </trkpt>
      <trkpt lat="48.56743" lon="-3.67451">
        <ele>148.1</ele>
        <time>2020-06-10T14:21:15Z</time>
      </trkpt>
      <trkpt lat="48.56742" lon="-3.67439">
        <ele>147.8</ele>
        <time>2020-06-10T14:21:16Z</time>
      </trkpt>
      <trkpt lat="48.56741" lon="-3.67426">
        <ele>147.4</ele>
        <time>2020-06-10T14:21:17Z</time>
      </trkpt>
      <trkpt lat="48.5674" lon="-3.67414">
        <ele>147</ele>
        <time>2020-06-10T14:21:18Z</time>
      </trkpt>
      <trkpt lat="48.56739" lon="-3.67401">
        <ele>146.5</ele>
        <time>2020-06-10T14:21:19Z</time>
      </trkpt>
      <trkpt lat="48.56738" lon="-3.67387">
        <ele>146</ele>
        <time>2020-06-10T14:21:20Z</time>
      </trkpt>
      <trkpt lat="48.56737" lon="-3.67373">
        <ele>145.2</ele>
        <time>2020-06-10T14:21:21Z</time>
      </trkpt>
      <trkpt lat="48.56736" lon="-3.6736">
        <ele>144.6</ele>
        <time>2020-06-10T14:21:22Z</time>
      </trkpt>
      <trkpt lat="48.56734" lon="-3.67345">
        <ele>144</ele>
        <time>2020-06-10T14:21:23Z</time>
      </trkpt>
      <trkpt lat="48.56732" lon="-3.6733">
        <ele>143.5</ele>
        <time>2020-06-10T14:21:24Z</time>
      </trkpt>
      <trkpt lat="48.56731" lon="-3.67315">
        <ele>143.1</ele>
        <time>2020-06-10T14:21:25Z</time>
      </trkpt>
      <trkpt lat="48.56729" lon="-3.67298">
        <ele>142.9</ele>
        <time>2020-06-10T14:21:26Z</time>
      </trkpt>
      <trkpt lat="48.56728" lon="-3.67282">
        <ele>142.8</ele>
        <time>2020-06-10T14:21:27Z</time>
      </trkpt>
      <trkpt lat="48.56727" lon="-3.67265">
        <ele>142.7</ele>
        <time>2020-06-10T14:21:28Z</time>
      </trkpt>
      <trkpt lat="48.56726" lon="-3.67248">
        <ele>142.8</ele>
        <time>2020-06-10T14:21:29Z</time>
      </trkpt>
      <trkpt lat="48.56725" lon="-3.67233">
        <ele>143.3</ele>
        <time>2020-06-10T14:21:30Z</time>
      </trkpt>
      <trkpt lat="48.56725" lon="-3.67217">
        <ele>143.9</ele>
        <time>2020-06-10T14:21:31Z</time>
      </trkpt>
      <trkpt lat="48.56724" lon="-3.67202">
        <ele>144.4</ele>
        <time>2020-06-10T14:21:32Z</time>
      </trkpt>
      <trkpt lat="48.56723" lon="-3.67187">
        <ele>145</ele>
        <time>2020-06-10T14:21:33Z</time>
      </trkpt>
      <trkpt lat="48.56722" lon="-3.67173">
        <ele>145.7</ele>
        <time>2020-06-10T14:21:34Z</time>
      </trkpt>
      <trkpt lat="48.56722" lon="-3.6716">
        <ele>146.3</ele>
        <time>2020-06-10T14:21:35Z</time>
      </trkpt>
      <trkpt lat="48.56721" lon="-3.67147">
        <ele>146.9</ele>
        <time>2020-06-10T14:21:36Z</time>
      </trkpt>
      <trkpt lat="48.56721" lon="-3.67134">
        <ele>147.5</ele>
        <time>2020-06-10T14:21:37Z</time>
      </trkpt>
      <trkpt lat="48.5672" lon="-3.67122">
        <ele>148.1</ele>
        <time>2020-06-10T14:21:38Z</time>
      </trkpt>
      <trkpt lat="48.56719" lon="-3.67111">
        <ele>148.7</ele>
        <time>2020-06-10T14:21:39Z</time>
      </trkpt>
      <trkpt lat="48.56718" lon="-3.671">
        <ele>149.3</ele>
        <time>2020-06-10T14:21:40Z</time>
      </trkpt>
      <trkpt lat="48.56717" lon="-3.67089">
        <ele>149.9</ele>
        <time>2020-06-10T14:21:41Z</time>
      </trkpt>
      <trkpt lat="48.56716" lon="-3.67079">
        <ele>150.5</ele>
        <time>2020-06-10T14:21:42Z</time>
      </trkpt>
      <trkpt lat="48.56715" lon="-3.67068">
        <ele>151.1</ele>
        <time>2020-06-10T14:21:43Z</time>
      </trkpt>
      <trkpt lat="48.56715" lon="-3.67058">
        <ele>151.7</ele>
        <time>2020-06-10T14:21:44Z</time>
      </trkpt>
      <trkpt lat="48.56714" lon="-3.67048">
        <ele>152.3</ele>
        <time>2020-06-10T14:21:45Z</time>
      </trkpt>
      <trkpt lat="48.56713" lon="-3.67039">
        <ele>152.8</ele>
        <time>2020-06-10T14:21:46Z</time>
      </trkpt>
      <trkpt lat="48.56712" lon="-3.67031">
        <ele>153.3</ele>
        <time>2020-06-10T14:21:47Z</time>
      </trkpt>
      <trkpt lat="48.56711" lon="-3.67023">
        <ele>153.7</ele>
        <time>2020-06-10T14:21:48Z</time>
      </trkpt>
      <trkpt lat="48.5671" lon="-3.67015">
        <ele>154.1</ele>
        <time>2020-06-10T14:21:49Z</time>
      </trkpt>
      <trkpt lat="48.56709" lon="-3.67008">
        <ele>154.5</ele>
        <time>2020-06-10T14:21:50Z</time>
      </trkpt>
      <trkpt lat="48.56709" lon="-3.67001">
        <ele>154.9</ele>
        <time>2020-06-10T14:21:51Z</time>
      </trkpt>
      <trkpt lat="48.56708" lon="-3.66994">
        <ele>155.2</ele>
        <time>2020-06-10T14:21:52Z</time>
      </trkpt>
      <trkpt lat="48.56708" lon="-3.66988">
        <ele>155.6</ele>
        <time>2020-06-10T14:21:53Z</time>
      </trkpt>
      <trkpt lat="48.56707" lon="-3.66982">
        <ele>155.9</ele>
        <time>2020-06-10T14:21:54Z</time>
      </trkpt>
      <trkpt lat="48.56706" lon="-3.66976">
        <ele>156.2</ele>
        <time>2020-06-10T14:21:55Z</time>
      </trkpt>
      <trkpt lat="48.56706" lon="-3.6697">
        <ele>156.5</ele>
        <time>2020-06-10T14:21:56Z</time>
      </trkpt>
      <trkpt lat="48.56706" lon="-3.66965">
        <ele>156.8</ele>
        <time>2020-06-10T14:21:57Z</time>
      </trkpt>
      <trkpt lat="48.56705" lon="-3.66959">
        <ele>157.1</ele>
        <time>2020-06-10T14:21:58Z</time>
      </trkpt>
      <trkpt lat="48.56705" lon="-3.66953">
        <ele>157.4</ele>
        <time>2020-06-10T14:21:59Z</time>
      </trkpt>
      <trkpt lat="48.56705" lon="-3.66948">
        <ele>157.6</ele>
        <time>2020-06-10T14:22:00Z</time>
      </trkpt>
      <trkpt lat="48.56705" lon="-3.66943">
        <ele>157.8</ele>
        <time>2020-06-10T14:22:01Z</time>
      </trkpt>
      <trkpt lat="48.56704" lon="-3.66939">
        <ele>158</ele>
        <time>2020-06-10T14:22:02Z</time>
      </trkpt>
      <trkpt lat="48.56704" lon="-3.66934">
        <ele>158.1</ele>
        <time>2020-06-10T14:22:03Z</time>
      </trkpt>
      <trkpt lat="48.56704" lon="-3.66929">
        <ele>158.3</ele>
        <time>2020-06-10T14:22:04Z</time>
      </trkpt>
      <trkpt lat="48.56703" lon="-3.66924">
        <ele>158.4</ele>
        <time>2020-06-10T14:22:05Z</time>
      </trkpt>
      <trkpt lat="48.56703" lon="-3.66918">
        <ele>158.6</ele>
        <time>2020-06-10T14:22:06Z</time>
      </trkpt>
      <trkpt lat="48.56703" lon="-3.66913">
        <ele>158.7</ele>
        <time>2020-06-10T14:22:07Z</time>
      </trkpt>
      <trkpt lat="48.56703" lon="-3.66907">
        <ele>158.8</ele>
        <time>2020-06-10T14:22:08Z</time>
      </trkpt>
      <trkpt lat="48.56703" lon="-3.66902">
        <ele>159</ele>
        <time>2020-06-10T14:22:09Z</time>
      </trkpt>
      <trkpt lat="48.56703" lon="-3.66896">
        <ele>159.1</ele>
        <time>2020-06-10T14:22:10Z</time>
      </trkpt>
      <trkpt lat="48.56703" lon="-3.66894">
        <ele>159.2</ele>
        <time>2020-06-10T14:22:11Z</time>
      </trkpt>
      <trkpt lat="48.56702" lon="-3.66888">
        <ele>159.3</ele>
        <time>2020-06-10T14:22:12Z</time>
      </trkpt>
      <trkpt lat="48.56703" lon="-3.66883">
        <ele>159.4</ele>
        <time>2020-06-10T14:22:13Z</time>
      </trkpt>
      <trkpt lat="48.56703" lon="-3.66881">
        <ele>159.4</ele>
        <time>2020-06-10T14:22:14Z</time>
      </trkpt>
      <trkpt lat="48.56703" lon="-3.66875">
        <ele>159.5</ele>
        <time>2020-06-10T14:22:15Z</time>
      </trkpt>
      <trkpt lat="48.56702" lon="-3.66869">
        <ele>159.6</ele>
        <time>2020-06-10T14:22:16Z</time>
      </trkpt>
      <trkpt lat="48.56702" lon="-3.66867">
        <ele>159.6</ele>
        <time>2020-06-10T14:22:17Z</time>
      </trkpt>
      <trkpt lat="48.56701" lon="-3.66862">
        <ele>159.7</ele>
        <time>2020-06-10T14:22:18Z</time>
      </trkpt>
      <trkpt lat="48.56701" lon="-3.6686">
        <ele>159.7</ele>
        <time>2020-06-10T14:22:19Z</time>
      </trkpt>
      <trkpt lat="48.56701" lon="-3.66855">
        <ele>159.7</ele>
        <time>2020-06-10T14:22:20Z</time>
      </trkpt>
      <trkpt lat="48.567" lon="-3.66851">
        <ele>159.8</ele>
        <time>2020-06-10T14:22:21Z</time>
      </trkpt>
      <trkpt lat="48.56699" lon="-3.66846">
        <ele>159.8</ele>
        <time>2020-06-10T14:22:22Z</time>
      </trkpt>
      <trkpt lat="48.56699" lon="-3.66844">
        <ele>159.8</ele>
        <time>2020-06-10T14:22:23Z</time>
      </trkpt>
      <trkpt lat="48.56699" lon="-3.66839">
        <ele>159.8</ele>
        <time>2020-06-10T14:22:24Z</time>
      </trkpt>
      <trkpt lat="48.56699" lon="-3.66837">
        <ele>159.8</ele>
        <time>2020-06-10T14:22:25Z</time>
      </trkpt>
      <trkpt lat="48.56699" lon="-3.66832">
        <ele>159.9</ele>
        <time>2020-06-10T14:22:26Z</time>
      </trkpt>
      <trkpt lat="48.56699" lon="-3.66828">
        <ele>159.9</ele>
        <time>2020-06-10T14:22:27Z</time>
      </trkpt>
      <trkpt lat="48.56699" lon="-3.66823">
        <ele>159.9</ele>
        <time>2020-06-10T14:22:28Z</time>
      </trkpt>
      <trkpt lat="48.56698" lon="-3.66817">
        <ele>159.9</ele>
        <time>2020-06-10T14:22:29Z</time>
      </trkpt>
      <trkpt lat="48.56698" lon="-3.66812">
        <ele>159.8</ele>
        <time>2020-06-10T14:22:30Z</time>
      </trkpt>
      <trkpt lat="48.56697" lon="-3.66807">
        <ele>159.8</ele>
        <time>2020-06-10T14:22:31Z</time>
      </trkpt>
      <trkpt lat="48.56697" lon="-3.66799">
        <ele>159.7</ele>
        <time>2020-06-10T14:22:32Z</time>
      </trkpt>
      <trkpt lat="48.56697" lon="-3.66793">
        <ele>159.6</ele>
        <time>2020-06-10T14:22:33Z</time>
      </trkpt>
      <trkpt lat="48.56697" lon="-3.66787">
        <ele>159.6</ele>
        <time>2020-06-10T14:22:34Z</time>
      </trkpt>
      <trkpt lat="48.56696" lon="-3.6678">
        <ele>159.5</ele>
        <time>2020-06-10T14:22:35Z</time>
      </trkpt>
      <trkpt lat="48.56695" lon="-3.66774">
        <ele>159.5</ele>
        <time>2020-06-10T14:22:36Z</time>
      </trkpt>
      <trkpt lat="48.56695" lon="-3.66769">
        <ele>159.5</ele>
        <time>2020-06-10T14:22:37Z</time>
      </trkpt>
      <trkpt lat="48.56695" lon="-3.66764">
        <ele>159.4</ele>
        <time>2020-06-10T14:22:38Z</time>
      </trkpt>
      <trkpt lat="48.56695" lon="-3.66758">
        <ele>159.4</ele>
        <time>2020-06-10T14:22:39Z</time>
      </trkpt>
      <trkpt lat="48.56695" lon="-3.66753">
        <ele>159.4</ele>
        <time>2020-06-10T14:22:40Z</time>
      </trkpt>
      <trkpt lat="48.56696" lon="-3.66746">
        <ele>159.3</ele>
        <time>2020-06-10T14:22:41Z</time>
      </trkpt>
      <trkpt lat="48.56695" lon="-3.66739">
        <ele>159.2</ele>
        <time>2020-06-10T14:22:42Z</time>
      </trkpt>
      <trkpt lat="48.56694" lon="-3.66733">
        <ele>159.1</ele>
        <time>2020-06-10T14:22:43Z</time>
      </trkpt>
      <trkpt lat="48.56693" lon="-3.66724">
        <ele>159</ele>
        <time>2020-06-10T14:22:44Z</time>
      </trkpt>
      <trkpt lat="48.56691" lon="-3.66718">
        <ele>158.9</ele>
        <time>2020-06-10T14:22:45Z</time>
      </trkpt>
      <trkpt lat="48.56691" lon="-3.66712">
        <ele>158.8</ele>
        <time>2020-06-10T14:22:46Z</time>
      </trkpt>
      <trkpt lat="48.56691" lon="-3.66707">
        <ele>158.7</ele>
        <time>2020-06-10T14:22:47Z</time>
      </trkpt>
      <trkpt lat="48.56691" lon="-3.66702">
        <ele>158.6</ele>
        <time>2020-06-10T14:22:48Z</time>
      </trkpt>
      <trkpt lat="48.56691" lon="-3.66696">
        <ele>158.5</ele>
        <time>2020-06-10T14:22:49Z</time>
      </trkpt>
      <trkpt lat="48.56691" lon="-3.66691">
        <ele>158.4</ele>
        <time>2020-06-10T14:22:50Z</time>
      </trkpt>
      <trkpt lat="48.56691" lon="-3.66685">
        <ele>158.3</ele>
        <time>2020-06-10T14:22:51Z</time>
      </trkpt>
      <trkpt lat="48.56691" lon="-3.6668">
        <ele>158.2</ele>
        <time>2020-06-10T14:22:52Z</time>
      </trkpt>
      <trkpt lat="48.5669" lon="-3.66673">
        <ele>158</ele>
        <time>2020-06-10T14:22:53Z</time>
      </trkpt>
      <trkpt lat="48.5669" lon="-3.66666">
        <ele>157.9</ele>
        <time>2020-06-10T14:22:54Z</time>
      </trkpt>
      <trkpt lat="48.5669" lon="-3.66657">
        <ele>157.7</ele>
        <time>2020-06-10T14:22:55Z</time>
      </trkpt>
      <trkpt lat="48.56689" lon="-3.66649">
        <ele>157.5</ele>
        <time>2020-06-10T14:22:56Z</time>
      </trkpt>
      <trkpt lat="48.56688" lon="-3.66641">
        <ele>157.3</ele>
        <time>2020-06-10T14:22:57Z</time>
      </trkpt>
      <trkpt lat="48.56688" lon="-3.66633">
        <ele>157</ele>
        <time>2020-06-10T14:22:58Z</time>
      </trkpt>
      <trkpt lat="48.56688" lon="-3.66622">
        <ele>156.7</ele>
        <time>2020-06-10T14:22:59Z</time>
      </trkpt>
      <trkpt lat="48.56687" lon="-3.66613">
        <ele>156.4</ele>
        <time>2020-06-10T14:23:00Z</time>
      </trkpt>
      <trkpt lat="48.56686" lon="-3.66604">
        <ele>156.1</ele>
        <time>2020-06-10T14:23:01Z</time>
      </trkpt>
      <trkpt lat="48.56685" lon="-3.66593">
        <ele>155.8</ele>
        <time>2020-06-10T14:23:02Z</time>
      </trkpt>
      <trkpt lat="48.56684" lon="-3.66584">
        <ele>155.6</ele>
        <time>2020-06-10T14:23:03Z</time>
      </trkpt>
      <trkpt lat="48.56683" lon="-3.66573">
        <ele>155.2</ele>
        <time>2020-06-10T14:23:04Z</time>
      </trkpt>
      <trkpt lat="48.56682" lon="-3.66563">
        <ele>154.9</ele>
        <time>2020-06-10T14:23:05Z</time>
      </trkpt>
      <trkpt lat="48.56681" lon="-3.6655">
        <ele>154.5</ele>
        <time>2020-06-10T14:23:06Z</time>
      </trkpt>
      <trkpt lat="48.5668" lon="-3.66539">
        <ele>154.2</ele>
        <time>2020-06-10T14:23:07Z</time>
      </trkpt>
      <trkpt lat="48.5668" lon="-3.66526">
        <ele>153.8</ele>
        <time>2020-06-10T14:23:08Z</time>
      </trkpt>
      <trkpt lat="48.56679" lon="-3.66514">
        <ele>153.3</ele>
        <time>2020-06-10T14:23:09Z</time>
      </trkpt>
      <trkpt lat="48.56678" lon="-3.66502">
        <ele>152.9</ele>
        <time>2020-06-10T14:23:10Z</time>
      </trkpt>
      <trkpt lat="48.56677" lon="-3.6649">
        <ele>152.6</ele>
        <time>2020-06-10T14:23:11Z</time>
      </trkpt>
      <trkpt lat="48.56677" lon="-3.66477">
        <ele>152.1</ele>
        <time>2020-06-10T14:23:12Z</time>
      </trkpt>
      <trkpt lat="48.56676" lon="-3.66465">
        <ele>151.7</ele>
        <time>2020-06-10T14:23:13Z</time>
      </trkpt>
      <trkpt lat="48.56675" lon="-3.66452">
        <ele>151.3</ele>
        <time>2020-06-10T14:23:14Z</time>
      </trkpt>
      <trkpt lat="48.56674" lon="-3.66439">
        <ele>150.8</ele>
        <time>2020-06-10T14:23:15Z</time>
      </trkpt>
      <trkpt lat="48.56673" lon="-3.66426">
        <ele>150.3</ele>
        <time>2020-06-10T14:23:16Z</time>
      </trkpt>
      <trkpt lat="48.56671" lon="-3.66412">
        <ele>149.8</ele>
        <time>2020-06-10T14:23:17Z</time>
      </trkpt>
      <trkpt lat="48.5667" lon="-3.66398">
        <ele>149.3</ele>
        <time>2020-06-10T14:23:18Z</time>
      </trkpt>
      <trkpt lat="48.56668" lon="-3.66384">
        <ele>148.4</ele>
        <time>2020-06-10T14:23:19Z</time>
      </trkpt>
      <trkpt lat="48.56667" lon="-3.6637">
        <ele>147.4</ele>
        <time>2020-06-10T14:23:20Z</time>
      </trkpt>
      <trkpt lat="48.56665" lon="-3.66355">
        <ele>146.6</ele>
        <time>2020-06-10T14:23:21Z</time>
      </trkpt>
      <trkpt lat="48.56664" lon="-3.66339">
        <ele>145.8</ele>
        <time>2020-06-10T14:23:22Z</time>
      </trkpt>
      <trkpt lat="48.56663" lon="-3.66324">
        <ele>144.8</ele>
        <time>2020-06-10T14:23:23Z</time>
      </trkpt>
      <trkpt lat="48.56662" lon="-3.66307">
        <ele>143.5</ele>
        <time>2020-06-10T14:23:24Z</time>
      </trkpt>
      <trkpt lat="48.5666" lon="-3.6629">
        <ele>141.9</ele>
        <time>2020-06-10T14:23:25Z</time>
      </trkpt>
      <trkpt lat="48.56659" lon="-3.66273">
        <ele>140.1</ele>
        <time>2020-06-10T14:23:26Z</time>
      </trkpt>
      <trkpt lat="48.56657" lon="-3.66256">
        <ele>138.2</ele>
        <time>2020-06-10T14:23:27Z</time>
      </trkpt>
      <trkpt lat="48.56656" lon="-3.66239">
        <ele>136.3</ele>
        <time>2020-06-10T14:23:28Z</time>
      </trkpt>
      <trkpt lat="48.56655" lon="-3.66222">
        <ele>134.4</ele>
        <time>2020-06-10T14:23:29Z</time>
      </trkpt>
      <trkpt lat="48.56653" lon="-3.66205">
        <ele>132.5</ele>
        <time>2020-06-10T14:23:30Z</time>
      </trkpt>
      <trkpt lat="48.56652" lon="-3.66186">
        <ele>130.7</ele>
        <time>2020-06-10T14:23:31Z</time>
      </trkpt>
      <trkpt lat="48.5665" lon="-3.66167">
        <ele>129.1</ele>
        <time>2020-06-10T14:23:32Z</time>
      </trkpt>
      <trkpt lat="48.56649" lon="-3.66148">
        <ele>127.6</ele>
        <time>2020-06-10T14:23:33Z</time>
      </trkpt>
      <trkpt lat="48.56649" lon="-3.66128">
        <ele>126.3</ele>
        <time>2020-06-10T14:23:34Z</time>
      </trkpt>
      <trkpt lat="48.56647" lon="-3.66108">
        <ele>125.3</ele>
        <time>2020-06-10T14:23:35Z</time>
      </trkpt>
      <trkpt lat="48.56646" lon="-3.66088">
        <ele>124.6</ele>
        <time>2020-06-10T14:23:36Z</time>
      </trkpt>
      <trkpt lat="48.56645" lon="-3.66069">
        <ele>124.1</ele>
        <time>2020-06-10T14:23:37Z</time>
      </trkpt>
      <trkpt lat="48.56645" lon="-3.6605">
        <ele>123.8</ele>
        <time>2020-06-10T14:23:38Z</time>
      </trkpt>
      <trkpt lat="48.56644" lon="-3.66032">
        <ele>123.7</ele>
        <time>2020-06-10T14:23:39Z</time>
      </trkpt>
      <trkpt lat="48.56643" lon="-3.66016">
        <ele>123.7</ele>
        <time>2020-06-10T14:23:40Z</time>
      </trkpt>
      <trkpt lat="48.56642" lon="-3.66">
        <ele>123.9</ele>
        <time>2020-06-10T14:23:41Z</time>
      </trkpt>
      <trkpt lat="48.56641" lon="-3.65984">
        <ele>124.2</ele>
        <time>2020-06-10T14:23:42Z</time>
      </trkpt>
      <trkpt lat="48.5664" lon="-3.65969">
        <ele>124.5</ele>
        <time>2020-06-10T14:23:43Z</time>
      </trkpt>
      <trkpt lat="48.56638" lon="-3.65956">
        <ele>124.8</ele>
        <time>2020-06-10T14:23:44Z</time>
      </trkpt>
      <trkpt lat="48.56637" lon="-3.65944">
        <ele>125.1</ele>
        <time>2020-06-10T14:23:45Z</time>
      </trkpt>
      <trkpt lat="48.56636" lon="-3.65932">
        <ele>125.3</ele>
        <time>2020-06-10T14:23:46Z</time>
      </trkpt>
      <trkpt lat="48.56635" lon="-3.6592">
        <ele>125.6</ele>
        <time>2020-06-10T14:23:47Z</time>
      </trkpt>
      <trkpt lat="48.56635" lon="-3.6591">
        <ele>125.9</ele>
        <time>2020-06-10T14:23:48Z</time>
      </trkpt>
      <trkpt lat="48.56634" lon="-3.659">
        <ele>126.2</ele>
        <time>2020-06-10T14:23:49Z</time>
      </trkpt>
      <trkpt lat="48.56633" lon="-3.6589">
        <ele>126.5</ele>
        <time>2020-06-10T14:23:50Z</time>
      </trkpt>
      <trkpt lat="48.56633" lon="-3.65881">
        <ele>126.8</ele>
        <time>2020-06-10T14:23:51Z</time>
      </trkpt>
      <trkpt lat="48.56632" lon="-3.65873">
        <ele>127.1</ele>
        <time>2020-06-10T14:23:52Z</time>
      </trkpt>
      <trkpt lat="48.56631" lon="-3.65864">
        <ele>127.5</ele>
        <time>2020-06-10T14:23:53Z</time>
      </trkpt>
      <trkpt lat="48.5663" lon="-3.65856">
        <ele>127.8</ele>
        <time>2020-06-10T14:23:54Z</time>
      </trkpt>
      <trkpt lat="48.5663" lon="-3.65848">
        <ele>128.1</ele>
        <time>2020-06-10T14:23:55Z</time>
      </trkpt>
      <trkpt lat="48.56629" lon="-3.65841">
        <ele>128.3</ele>
        <time>2020-06-10T14:23:56Z</time>
      </trkpt>
      <trkpt lat="48.56628" lon="-3.65834">
        <ele>128.5</ele>
        <time>2020-06-10T14:23:57Z</time>
      </trkpt>
      <trkpt lat="48.56628" lon="-3.65827">
        <ele>128.7</ele>
        <time>2020-06-10T14:23:58Z</time>
      </trkpt>
      <trkpt lat="48.56628" lon="-3.65821">
        <ele>128.9</ele>
        <time>2020-06-10T14:23:59Z</time>
      </trkpt>
      <trkpt lat="48.56628" lon="-3.65813">
        <ele>129.1</ele>
        <time>2020-06-10T14:24:00Z</time>
      </trkpt>
      <trkpt lat="48.56627" lon="-3.65806">
        <ele>129.3</ele>
        <time>2020-06-10T14:24:01Z</time>
      </trkpt>
      <trkpt lat="48.56627" lon="-3.65798">
        <ele>129.5</ele>
        <time>2020-06-10T14:24:02Z</time>
      </trkpt>
      <trkpt lat="48.56627" lon="-3.6579">
        <ele>129.6</ele>
        <time>2020-06-10T14:24:03Z</time>
      </trkpt>
      <trkpt lat="48.56627" lon="-3.65781">
        <ele>129.8</ele>
        <time>2020-06-10T14:24:04Z</time>
      </trkpt>
      <trkpt lat="48.56626" lon="-3.65772">
        <ele>130</ele>
        <time>2020-06-10T14:24:05Z</time>
      </trkpt>
      <trkpt lat="48.56626" lon="-3.65764">
        <ele>130.2</ele>
        <time>2020-06-10T14:24:06Z</time>
      </trkpt>
      <trkpt lat="48.56625" lon="-3.65755">
        <ele>130.4</ele>
        <time>2020-06-10T14:24:07Z</time>
      </trkpt>
      <trkpt lat="48.56624" lon="-3.65746">
        <ele>130.7</ele>
        <time>2020-06-10T14:24:08Z</time>
      </trkpt>
      <trkpt lat="48.56624" lon="-3.65736">
        <ele>130.9</ele>
        <time>2020-06-10T14:24:09Z</time>
      </trkpt>
      <trkpt lat="48.56623" lon="-3.65727">
        <ele>131.2</ele>
        <time>2020-06-10T14:24:10Z</time>
      </trkpt>
      <trkpt lat="48.56623" lon="-3.65718">
        <ele>131.6</ele>
        <time>2020-06-10T14:24:11Z</time>
      </trkpt>
      <trkpt lat="48.56623" lon="-3.65709">
        <ele>132</ele>
        <time>2020-06-10T14:24:12Z</time>
      </trkpt>
      <trkpt lat="48.56622" lon="-3.657">
        <ele>132.5</ele>
        <time>2020-06-10T14:24:13Z</time>
      </trkpt>
      <trkpt lat="48.56622" lon="-3.65692">
        <ele>132.9</ele>
        <time>2020-06-10T14:24:14Z</time>
      </trkpt>
      <trkpt lat="48.56621" lon="-3.65684">
        <ele>133.3</ele>
        <time>2020-06-10T14:24:15Z</time>
      </trkpt>
      <trkpt lat="48.56621" lon="-3.65677">
        <ele>133.7</ele>
        <time>2020-06-10T14:24:16Z</time>
      </trkpt>
      <trkpt lat="48.5662" lon="-3.6567">
        <ele>134.1</ele>
        <time>2020-06-10T14:24:17Z</time>
      </trkpt>
      <trkpt lat="48.5662" lon="-3.65663">
        <ele>134.4</ele>
        <time>2020-06-10T14:24:18Z</time>
      </trkpt>
      <trkpt lat="48.5662" lon="-3.65657">
        <ele>134.8</ele>
        <time>2020-06-10T14:24:19Z</time>
      </trkpt>
      <trkpt lat="48.56618" lon="-3.65651">
        <ele>135.2</ele>
        <time>2020-06-10T14:24:20Z</time>
      </trkpt>
      <trkpt lat="48.56618" lon="-3.65645">
        <ele>135.5</ele>
        <time>2020-06-10T14:24:21Z</time>
      </trkpt>
      <trkpt lat="48.56616" lon="-3.65639">
        <ele>136</ele>
        <time>2020-06-10T14:24:22Z</time>
      </trkpt>
      <trkpt lat="48.56616" lon="-3.65634">
        <ele>136.3</ele>
        <time>2020-06-10T14:24:23Z</time>
      </trkpt>
      <trkpt lat="48.56616" lon="-3.65629">
        <ele>136.7</ele>
        <time>2020-06-10T14:24:24Z</time>
      </trkpt>
      <trkpt lat="48.56616" lon="-3.65625">
        <ele>137</ele>
        <time>2020-06-10T14:24:25Z</time>
      </trkpt>
      <trkpt lat="48.56616" lon="-3.65621">
        <ele>137.3</ele>
        <time>2020-06-10T14:24:26Z</time>
      </trkpt>
      <trkpt lat="48.56616" lon="-3.65616">
        <ele>137.6</ele>
        <time>2020-06-10T14:24:27Z</time>
      </trkpt>
      <trkpt lat="48.56616" lon="-3.65612">
        <ele>137.9</ele>
        <time>2020-06-10T14:24:28Z</time>
      </trkpt>
      <trkpt lat="48.56616" lon="-3.65608">
        <ele>138.2</ele>
        <time>2020-06-10T14:24:29Z</time>
      </trkpt>
      <trkpt lat="48.56615" lon="-3.65602">
        <ele>138.6</ele>
        <time>2020-06-10T14:24:30Z</time>
      </trkpt>
      <trkpt lat="48.56614" lon="-3.656">
        <ele>138.7</ele>
        <time>2020-06-10T14:24:31Z</time>
      </trkpt>
      <trkpt lat="48.56615" lon="-3.65596">
        <ele>139</ele>
        <time>2020-06-10T14:24:32Z</time>
      </trkpt>
      <trkpt lat="48.56615" lon="-3.65591">
        <ele>139.4</ele>
        <time>2020-06-10T14:24:33Z</time>
      </trkpt>
      <trkpt lat="48.56614" lon="-3.65589">
        <ele>139.6</ele>
        <time>2020-06-10T14:24:34Z</time>
      </trkpt>
      <trkpt lat="48.56612" lon="-3.65585">
        <ele>140</ele>
        <time>2020-06-10T14:24:35Z</time>
      </trkpt>
      <trkpt lat="48.56611" lon="-3.65579">
        <ele>140.4</ele>
        <time>2020-06-10T14:24:36Z</time>
      </trkpt>
      <trkpt lat="48.56611" lon="-3.65577">
        <ele>140.6</ele>
        <time>2020-06-10T14:24:37Z</time>
      </trkpt>
      <trkpt lat="48.5661" lon="-3.65572">
        <ele>141</ele>
        <time>2020-06-10T14:24:38Z</time>
      </trkpt>
      <trkpt lat="48.5661" lon="-3.6557">
        <ele>141.1</ele>
        <time>2020-06-10T14:24:39Z</time>
      </trkpt>
      <trkpt lat="48.5661" lon="-3.65565">
        <ele>141.5</ele>
        <time>2020-06-10T14:24:40Z</time>
      </trkpt>
      <trkpt lat="48.56609" lon="-3.65563">
        <ele>141.7</ele>
        <time>2020-06-10T14:24:41Z</time>
      </trkpt>
      <trkpt lat="48.56609" lon="-3.65558">
        <ele>142</ele>
        <time>2020-06-10T14:24:42Z</time>
      </trkpt>
      <trkpt lat="48.56608" lon="-3.65553">
        <ele>142.4</ele>
        <time>2020-06-10T14:24:43Z</time>
      </trkpt>
      <trkpt lat="48.56608" lon="-3.65549">
        <ele>142.7</ele>
        <time>2020-06-10T14:24:44Z</time>
      </trkpt>
      <trkpt lat="48.56608" lon="-3.65543">
        <ele>143.1</ele>
        <time>2020-06-10T14:24:45Z</time>
      </trkpt>
      <trkpt lat="48.56608" lon="-3.65541">
        <ele>143.3</ele>
        <time>2020-06-10T14:24:46Z</time>
      </trkpt>
      <trkpt lat="48.56607" lon="-3.65537">
        <ele>143.6</ele>
        <time>2020-06-10T14:24:47Z</time>
      </trkpt>
      <trkpt lat="48.56607" lon="-3.65535">
        <ele>143.7</ele>
        <time>2020-06-10T14:24:48Z</time>
      </trkpt>
      <trkpt lat="48.56606" lon="-3.6553">
        <ele>144.1</ele>
        <time>2020-06-10T14:24:49Z</time>
      </trkpt>
      <trkpt lat="48.56606" lon="-3.65528">
        <ele>144.3</ele>
        <time>2020-06-10T14:24:50Z</time>
      </trkpt>
      <trkpt lat="48.56606" lon="-3.65522">
        <ele>144.6</ele>
        <time>2020-06-10T14:24:51Z</time>
      </trkpt>
      <trkpt lat="48.56605" lon="-3.6552">
        <ele>144.8</ele>
        <time>2020-06-10T14:24:52Z</time>
      </trkpt>
      <trkpt lat="48.56604" lon="-3.65516">
        <ele>145.1</ele>
        <time>2020-06-10T14:24:53Z</time>
      </trkpt>
      <trkpt lat="48.56604" lon="-3.65515">
        <ele>145.1</ele>
        <time>2020-06-10T14:24:54Z</time>
      </trkpt>
      <trkpt lat="48.56604" lon="-3.6551">
        <ele>145.4</ele>
        <time>2020-06-10T14:24:55Z</time>
      </trkpt>
      <trkpt lat="48.56604" lon="-3.65509">
        <ele>145.5</ele>
        <time>2020-06-10T14:24:56Z</time>
      </trkpt>
      <trkpt lat="48.56604" lon="-3.65504">
        <ele>145.8</ele>
        <time>2020-06-10T14:24:57Z</time>
      </trkpt>
      <trkpt lat="48.56603" lon="-3.65502">
        <ele>145.9</ele>
        <time>2020-06-10T14:24:58Z</time>
      </trkpt>
      <trkpt lat="48.56603" lon="-3.65497">
        <ele>146.2</ele>
        <time>2020-06-10T14:24:59Z</time>
      </trkpt>
      <trkpt lat="48.56604" lon="-3.65495">
        <ele>146.3</ele>
        <time>2020-06-10T14:25:00Z</time>
      </trkpt>
      <trkpt lat="48.56604" lon="-3.6549">
        <ele>146.5</ele>
        <time>2020-06-10T14:25:01Z</time>
      </trkpt>
      <trkpt lat="48.56604" lon="-3.65489">
        <ele>146.6</ele>
        <time>2020-06-10T14:25:02Z</time>
      </trkpt>
      <trkpt lat="48.56604" lon="-3.65485">
        <ele>146.8</ele>
        <time>2020-06-10T14:25:03Z</time>
      </trkpt>
      <trkpt lat="48.56603" lon="-3.65481">
        <ele>147</ele>
        <time>2020-06-10T14:25:04Z</time>
      </trkpt>
      <trkpt lat="48.56603" lon="-3.65475">
        <ele>147.2</ele>
        <time>2020-06-10T14:25:05Z</time>
      </trkpt>
      <trkpt lat="48.56602" lon="-3.65473">
        <ele>147.3</ele>
        <time>2020-06-10T14:25:06Z</time>
      </trkpt>
      <trkpt lat="48.56601" lon="-3.65467">
        <ele>147.6</ele>
        <time>2020-06-10T14:25:07Z</time>
      </trkpt>
      <trkpt lat="48.56601" lon="-3.65466">
        <ele>147.7</ele>
        <time>2020-06-10T14:25:08Z</time>
      </trkpt>
      <trkpt lat="48.56601" lon="-3.6546">
        <ele>147.9</ele>
        <time>2020-06-10T14:25:09Z</time>
      </trkpt>
      <trkpt lat="48.56601" lon="-3.65458">
        <ele>148</ele>
        <time>2020-06-10T14:25:10Z</time>
      </trkpt>
      <trkpt lat="48.56601" lon="-3.65452">
        <ele>148.3</ele>
        <time>2020-06-10T14:25:11Z</time>
      </trkpt>
      <trkpt lat="48.56601" lon="-3.6545">
        <ele>148.3</ele>
        <time>2020-06-10T14:25:12Z</time>
      </trkpt>
      <trkpt lat="48.566" lon="-3.65444">
        <ele>148.6</ele>
        <time>2020-06-10T14:25:13Z</time>
      </trkpt>
      <trkpt lat="48.566" lon="-3.65442">
        <ele>148.7</ele>
        <time>2020-06-10T14:25:14Z</time>
      </trkpt>
      <trkpt lat="48.566" lon="-3.65438">
        <ele>148.9</ele>
        <time>2020-06-10T14:25:15Z</time>
      </trkpt>
      <trkpt lat="48.566" lon="-3.65433">
        <ele>149.1</ele>
        <time>2020-06-10T14:25:16Z</time>
      </trkpt>
      <trkpt lat="48.56599" lon="-3.65431">
        <ele>149.2</ele>
        <time>2020-06-10T14:25:17Z</time>
      </trkpt>
      <trkpt lat="48.56599" lon="-3.65427">
        <ele>149.4</ele>
        <time>2020-06-10T14:25:18Z</time>
      </trkpt>
      <trkpt lat="48.56598" lon="-3.65426">
        <ele>149.5</ele>
        <time>2020-06-10T14:25:19Z</time>
      </trkpt>
      <trkpt lat="48.56598" lon="-3.6542">
        <ele>149.7</ele>
        <time>2020-06-10T14:25:20Z</time>
      </trkpt>
      <trkpt lat="48.56598" lon="-3.65418">
        <ele>149.8</ele>
        <time>2020-06-10T14:25:21Z</time>
      </trkpt>
      <trkpt lat="48.56598" lon="-3.65413">
        <ele>150</ele>
        <time>2020-06-10T14:25:22Z</time>
      </trkpt>
      <trkpt lat="48.56598" lon="-3.65412">
        <ele>150.1</ele>
        <time>2020-06-10T14:25:23Z</time>
      </trkpt>
      <trkpt lat="48.56597" lon="-3.65407">
        <ele>150.4</ele>
        <time>2020-06-10T14:25:24Z</time>
      </trkpt>
      <trkpt lat="48.56597" lon="-3.65405">
        <ele>150.5</ele>
        <time>2020-06-10T14:25:25Z</time>
      </trkpt>
      <trkpt lat="48.56596" lon="-3.654">
        <ele>150.7</ele>
        <time>2020-06-10T14:25:26Z</time>
      </trkpt>
      <trkpt lat="48.56596" lon="-3.65399">
        <ele>150.8</ele>
        <time>2020-06-10T14:25:27Z</time>
      </trkpt>
      <trkpt lat="48.56596" lon="-3.65394">
        <ele>151.1</ele>
        <time>2020-06-10T14:25:28Z</time>
      </trkpt>
      <trkpt lat="48.56596" lon="-3.65392">
        <ele>151.2</ele>
        <time>2020-06-10T14:25:29Z</time>
      </trkpt>
      <trkpt lat="48.56595" lon="-3.65387">
        <ele>151.7</ele>
        <time>2020-06-10T14:25:30Z</time>
      </trkpt>
      <trkpt lat="48.56595" lon="-3.65386">
        <ele>151.7</ele>
        <time>2020-06-10T14:25:31Z</time>
      </trkpt>
      <trkpt lat="48.56595" lon="-3.65381">
        <ele>151.6</ele>
        <time>2020-06-10T14:25:32Z</time>
      </trkpt>
      <trkpt lat="48.56595" lon="-3.65379">
        <ele>151.6</ele>
        <time>2020-06-10T14:25:33Z</time>
      </trkpt>
      <trkpt lat="48.56594" lon="-3.65374">
        <ele>151.7</ele>
        <time>2020-06-10T14:25:34Z</time>
      </trkpt>
      <trkpt lat="48.56593" lon="-3.65372">
        <ele>151.8</ele>
        <time>2020-06-10T14:25:35Z</time>
      </trkpt>
      <trkpt lat="48.56593" lon="-3.65367">
        <ele>152</ele>
        <time>2020-06-10T14:25:36Z</time>
      </trkpt>
      <trkpt lat="48.56593" lon="-3.65365">
        <ele>152.1</ele>
        <time>2020-06-10T14:25:37Z</time>
      </trkpt>
      <trkpt lat="48.56593" lon="-3.6536">
        <ele>152.3</ele>
        <time>2020-06-10T14:25:38Z</time>
      </trkpt>
      <trkpt lat="48.56593" lon="-3.65358">
        <ele>152.4</ele>
        <time>2020-06-10T14:25:39Z</time>
      </trkpt>
      <trkpt lat="48.56593" lon="-3.65353">
        <ele>152.6</ele>
        <time>2020-06-10T14:25:40Z</time>
      </trkpt>
      <trkpt lat="48.56593" lon="-3.65348">
        <ele>152.8</ele>
        <time>2020-06-10T14:25:41Z</time>
      </trkpt>
      <trkpt lat="48.56593" lon="-3.65346">
        <ele>152.8</ele>
        <time>2020-06-10T14:25:42Z</time>
      </trkpt>
      <trkpt lat="48.56593" lon="-3.65341">
        <ele>153</ele>
        <time>2020-06-10T14:25:43Z</time>
      </trkpt>
      <trkpt lat="48.56593" lon="-3.65339">
        <ele>153.1</ele>
        <time>2020-06-10T14:25:44Z</time>
      </trkpt>
      <trkpt lat="48.56592" lon="-3.65334">
        <ele>153.2</ele>
        <time>2020-06-10T14:25:45Z</time>
      </trkpt>
      <trkpt lat="48.56592" lon="-3.65333">
        <ele>153.3</ele>
        <time>2020-06-10T14:25:46Z</time>
      </trkpt>
      <trkpt lat="48.56591" lon="-3.65327">
        <ele>153.4</ele>
        <time>2020-06-10T14:25:47Z</time>
      </trkpt>
      <trkpt lat="48.56591" lon="-3.65325">
        <ele>153.5</ele>
        <time>2020-06-10T14:25:48Z</time>
      </trkpt>
      <trkpt lat="48.56591" lon="-3.6532">
        <ele>153.6</ele>
        <time>2020-06-10T14:25:49Z</time>
      </trkpt>
      <trkpt lat="48.5659" lon="-3.65318">
        <ele>153.7</ele>
        <time>2020-06-10T14:25:50Z</time>
      </trkpt>
      <trkpt lat="48.5659" lon="-3.65313">
        <ele>153.8</ele>
        <time>2020-06-10T14:25:51Z</time>
      </trkpt>
      <trkpt lat="48.5659" lon="-3.65311">
        <ele>153.9</ele>
        <time>2020-06-10T14:25:52Z</time>
      </trkpt>
      <trkpt lat="48.5659" lon="-3.65307">
        <ele>154</ele>
        <time>2020-06-10T14:25:53Z</time>
      </trkpt>
      <trkpt lat="48.56589" lon="-3.65305">
        <ele>154</ele>
        <time>2020-06-10T14:25:54Z</time>
      </trkpt>
      <trkpt lat="48.56589" lon="-3.65301">
        <ele>154.1</ele>
        <time>2020-06-10T14:25:55Z</time>
      </trkpt>
      <trkpt lat="48.56589" lon="-3.65299">
        <ele>154.2</ele>
        <time>2020-06-10T14:25:56Z</time>
      </trkpt>
      <trkpt lat="48.56589" lon="-3.65294">
        <ele>154.3</ele>
        <time>2020-06-10T14:25:57Z</time>
      </trkpt>
      <trkpt lat="48.56588" lon="-3.65292">
        <ele>154.3</ele>
        <time>2020-06-10T14:25:58Z</time>
      </trkpt>
      <trkpt lat="48.56588" lon="-3.65287">
        <ele>154.4</ele>
        <time>2020-06-10T14:25:59Z</time>
      </trkpt>
      <trkpt lat="48.56588" lon="-3.65286">
        <ele>154.5</ele>
        <time>2020-06-10T14:26:00Z</time>
      </trkpt>
      <trkpt lat="48.56587" lon="-3.6528">
        <ele>154.6</ele>
        <time>2020-06-10T14:26:01Z</time>
      </trkpt>
      <trkpt lat="48.56587" lon="-3.65279">
        <ele>154.7</ele>
        <time>2020-06-10T14:26:02Z</time>
      </trkpt>
      <trkpt lat="48.56587" lon="-3.65273">
        <ele>154.8</ele>
        <time>2020-06-10T14:26:03Z</time>
      </trkpt>
      <trkpt lat="48.56587" lon="-3.65271">
        <ele>154.8</ele>
        <time>2020-06-10T14:26:04Z</time>
      </trkpt>
      <trkpt lat="48.56588" lon="-3.65268">
        <ele>154.9</ele>
        <time>2020-06-10T14:26:05Z</time>
      </trkpt>
      <trkpt lat="48.56588" lon="-3.65266">
        <ele>154.9</ele>
        <time>2020-06-10T14:26:06Z</time>
      </trkpt>
      <trkpt lat="48.5659" lon="-3.65263">
        <ele>155</ele>
        <time>2020-06-10T14:26:07Z</time>
      </trkpt>
      <trkpt lat="48.56591" lon="-3.65262">
        <ele>155</ele>
        <time>2020-06-10T14:26:08Z</time>
      </trkpt>
      <trkpt lat="48.56593" lon="-3.65258">
        <ele>155.1</ele>
        <time>2020-06-10T14:26:09Z</time>
      </trkpt>
      <trkpt lat="48.56593" lon="-3.65257">
        <ele>155.1</ele>
        <time>2020-06-10T14:26:10Z</time>
      </trkpt>
      <trkpt lat="48.56594" lon="-3.65255">
        <ele>155.1</ele>
        <time>2020-06-10T14:26:11Z</time>
      </trkpt>
      <trkpt lat="48.56593" lon="-3.65253">
        <ele>155.2</ele>
        <time>2020-06-10T14:26:12Z</time>
      </trkpt>
      <trkpt lat="48.56592" lon="-3.65251">
        <ele>155.2</ele>
        <time>2020-06-10T14:26:13Z</time>
      </trkpt>
      <trkpt lat="48.56591" lon="-3.65249">
        <ele>155.2</ele>
        <time>2020-06-10T14:26:14Z</time>
      </trkpt>
      <trkpt lat="48.5659" lon="-3.65247">
        <ele>155.2</ele>
        <time>2020-06-10T14:26:15Z</time>
      </trkpt>
      <trkpt lat="48.56589" lon="-3.65245">
        <ele>155.3</ele>
        <time>2020-06-10T14:26:16Z</time>
      </trkpt>
      <trkpt lat="48.56589" lon="-3.65244">
        <ele>155.3</ele>
        <time>2020-06-10T14:26:17Z</time>
      </trkpt>
      <trkpt lat="48.56589" lon="-3.65243">
        <ele>155.3</ele>
        <time>2020-06-10T14:26:18Z</time>
      </trkpt>
      <trkpt lat="48.56588" lon="-3.6524">
        <ele>155.3</ele>
        <time>2020-06-10T14:26:19Z</time>
      </trkpt>
      <trkpt lat="48.56588" lon="-3.65239">
        <ele>155.3</ele>
        <time>2020-06-10T14:26:20Z</time>
      </trkpt>
      <trkpt lat="48.56587" lon="-3.65238">
        <ele>155.3</ele>
        <time>2020-06-10T14:26:21Z</time>
      </trkpt>
      <trkpt lat="48.56587" lon="-3.65237">
        <ele>155.3</ele>
        <time>2020-06-10T14:26:22Z</time>
      </trkpt>
      <trkpt lat="48.56587" lon="-3.65236">
        <ele>155.4</ele>
        <time>2020-06-10T14:26:23Z</time>
      </trkpt>
      <trkpt lat="48.56586" lon="-3.65235">
        <ele>155.4</ele>
        <time>2020-06-10T14:26:24Z</time>
      </trkpt>
      <trkpt lat="48.56586" lon="-3.65234">
        <ele>155.4</ele>
        <time>2020-06-10T14:26:25Z</time>
      </trkpt>
      <trkpt lat="48.56586" lon="-3.65233">
        <ele>155.4</ele>
        <time>2020-06-10T14:26:26Z</time>
      </trkpt>
      <trkpt lat="48.56585" lon="-3.65232">
        <ele>155.4</ele>
        <time>2020-06-10T14:26:27Z</time>
      </trkpt>
      <trkpt lat="48.56585" lon="-3.65231">
        <ele>155.4</ele>
        <time>2020-06-10T14:26:28Z</time>
      </trkpt>
      <trkpt lat="48.56585" lon="-3.6523">
        <ele>155.4</ele>
        <time>2020-06-10T14:26:29Z</time>
      </trkpt>
      <trkpt lat="48.56585" lon="-3.65229">
        <ele>155.4</ele>
        <time>2020-06-10T14:26:51Z</time>
      </trkpt>
      <trkpt lat="48.56584" lon="-3.65229">
        <ele>155.4</ele>
        <time>2020-06-10T14:26:52Z</time>
      </trkpt>
      <trkpt lat="48.56584" lon="-3.65224">
        <ele>155.5</ele>
        <time>2020-06-10T14:26:53Z</time>
      </trkpt>
      <trkpt lat="48.56582" lon="-3.65218">
        <ele>155.5</ele>
        <time>2020-06-10T14:26:54Z</time>
      </trkpt>
      <trkpt lat="48.56581" lon="-3.65216">
        <ele>155.5</ele>
        <time>2020-06-10T14:26:55Z</time>
      </trkpt>
      <trkpt lat="48.56581" lon="-3.65211">
        <ele>155.6</ele>
        <time>2020-06-10T14:26:56Z</time>
      </trkpt>
      <trkpt lat="48.56581" lon="-3.65208">
        <ele>155.6</ele>
        <time>2020-06-10T14:26:57Z</time>
      </trkpt>
      <trkpt lat="48.56581" lon="-3.65203">
        <ele>155.7</ele>
        <time>2020-06-10T14:26:58Z</time>
      </trkpt>
      <trkpt lat="48.56582" lon="-3.65201">
        <ele>155.7</ele>
        <time>2020-06-10T14:26:59Z</time>
      </trkpt>
      <trkpt lat="48.56582" lon="-3.65199">
        <ele>155.7</ele>
        <time>2020-06-10T14:27:00Z</time>
      </trkpt>
      <trkpt lat="48.56582" lon="-3.65197">
        <ele>155.7</ele>
        <time>2020-06-10T14:27:01Z</time>
      </trkpt>
      <trkpt lat="48.56582" lon="-3.65192">
        <ele>155.8</ele>
        <time>2020-06-10T14:27:02Z</time>
      </trkpt>
      <trkpt lat="48.56582" lon="-3.6519">
        <ele>155.8</ele>
        <time>2020-06-10T14:27:03Z</time>
      </trkpt>
      <trkpt lat="48.56581" lon="-3.65185">
        <ele>155.8</ele>
        <time>2020-06-10T14:27:04Z</time>
      </trkpt>
      <trkpt lat="48.5658" lon="-3.65183">
        <ele>155.8</ele>
        <time>2020-06-10T14:27:05Z</time>
      </trkpt>
      <trkpt lat="48.5658" lon="-3.65179">
        <ele>155.8</ele>
        <time>2020-06-10T14:27:06Z</time>
      </trkpt>
      <trkpt lat="48.5658" lon="-3.65177">
        <ele>155.8</ele>
        <time>2020-06-10T14:27:07Z</time>
      </trkpt>
      <trkpt lat="48.56579" lon="-3.65175">
        <ele>155.9</ele>
        <time>2020-06-10T14:27:08Z</time>
      </trkpt>
      <trkpt lat="48.56579" lon="-3.65173">
        <ele>155.9</ele>
        <time>2020-06-10T14:27:09Z</time>
      </trkpt>
      <trkpt lat="48.56579" lon="-3.6517">
        <ele>155.9</ele>
        <time>2020-06-10T14:27:10Z</time>
      </trkpt>
      <trkpt lat="48.56578" lon="-3.65168">
        <ele>155.9</ele>
        <time>2020-06-10T14:27:11Z</time>
      </trkpt>
      <trkpt lat="48.56578" lon="-3.65167">
        <ele>155.9</ele>
        <time>2020-06-10T14:27:12Z</time>
      </trkpt>
      <trkpt lat="48.56578" lon="-3.65166">
        <ele>155.9</ele>
        <time>2020-06-10T14:27:13Z</time>
      </trkpt>
      <trkpt lat="48.56578" lon="-3.65165">
        <ele>155.9</ele>
        <time>2020-06-10T14:27:14Z</time>
      </trkpt>
      <trkpt lat="48.56578" lon="-3.65164">
        <ele>155.9</ele>
        <time>2020-06-10T14:27:15Z</time>
      </trkpt>
      <trkpt lat="48.56578" lon="-3.65163">
        <ele>155.9</ele>
        <time>2020-06-10T14:27:16Z</time>
      </trkpt>
      <trkpt lat="48.56579" lon="-3.65163">
        <ele>155.9</ele>
        <time>2020-06-10T14:27:17Z</time>
      </trkpt>
      <trkpt lat="48.56579" lon="-3.65162">
        <ele>155.9</ele>
        <time>2020-06-10T14:27:18Z</time>
      </trkpt>
      <trkpt lat="48.56579" lon="-3.65161">
        <ele>155.9</ele>
        <time>2020-06-10T14:27:19Z</time>
      </trkpt>
      <trkpt lat="48.56579" lon="-3.6516">
        <ele>155.9</ele>
        <time>2020-06-10T14:27:20Z</time>
      </trkpt>
      <trkpt lat="48.56579" lon="-3.65159">
        <ele>155.9</ele>
        <time>2020-06-10T14:27:21Z</time>
      </trkpt>
      <trkpt lat="48.56579" lon="-3.65159">
        <ele>155.9</ele>
        <time>2020-06-10T14:27:22Z</time>
      </trkpt>
      <trkpt lat="48.56579" lon="-3.65158">
        <ele>155.9</ele>
        <time>2020-06-10T14:27:33Z</time>
      </trkpt>
      <trkpt lat="48.56579" lon="-3.65157">
        <ele>155.9</ele>
        <time>2020-06-10T14:27:34Z</time>
      </trkpt>
      <trkpt lat="48.56579" lon="-3.65156">
        <ele>155.9</ele>
        <time>2020-06-10T14:27:35Z</time>
      </trkpt>
      <trkpt lat="48.56579" lon="-3.65154">
        <ele>155.9</ele>
        <time>2020-06-10T14:27:36Z</time>
      </trkpt>
      <trkpt lat="48.56578" lon="-3.65152">
        <ele>155.9</ele>
        <time>2020-06-10T14:27:37Z</time>
      </trkpt>
      <trkpt lat="48.56578" lon="-3.6515">
        <ele>155.9</ele>
        <time>2020-06-10T14:27:38Z</time>
      </trkpt>
      <trkpt lat="48.56578" lon="-3.65147">
        <ele>155.9</ele>
        <time>2020-06-10T14:27:39Z</time>
      </trkpt>
      <trkpt lat="48.56578" lon="-3.65145">
        <ele>155.9</ele>
        <time>2020-06-10T14:27:40Z</time>
      </trkpt>
      <trkpt lat="48.56577" lon="-3.65143">
        <ele>155.9</ele>
        <time>2020-06-10T14:27:41Z</time>
      </trkpt>
      <trkpt lat="48.56577" lon="-3.65142">
        <ele>155.9</ele>
        <time>2020-06-10T14:27:42Z</time>
      </trkpt>
      <trkpt lat="48.56577" lon="-3.6514">
        <ele>155.9</ele>
        <time>2020-06-10T14:27:43Z</time>
      </trkpt>
      <trkpt lat="48.56576" lon="-3.65138">
        <ele>155.9</ele>
        <time>2020-06-10T14:27:44Z</time>
      </trkpt>
      <trkpt lat="48.56576" lon="-3.65136">
        <ele>155.9</ele>
        <time>2020-06-10T14:27:45Z</time>
      </trkpt>
      <trkpt lat="48.56576" lon="-3.65133">
        <ele>155.9</ele>
        <time>2020-06-10T14:27:46Z</time>
      </trkpt>
      <trkpt lat="48.56575" lon="-3.65132">
        <ele>155.9</ele>
        <time>2020-06-10T14:27:47Z</time>
      </trkpt>
      <trkpt lat="48.56575" lon="-3.65129">
        <ele>155.9</ele>
        <time>2020-06-10T14:27:48Z</time>
      </trkpt>
      <trkpt lat="48.56574" lon="-3.65125">
        <ele>155.9</ele>
        <time>2020-06-10T14:27:49Z</time>
      </trkpt>
      <trkpt lat="48.56573" lon="-3.65123">
        <ele>155.9</ele>
        <time>2020-06-10T14:27:50Z</time>
      </trkpt>
      <trkpt lat="48.56573" lon="-3.65119">
        <ele>155.8</ele>
        <time>2020-06-10T14:27:51Z</time>
      </trkpt>
      <trkpt lat="48.56573" lon="-3.65118">
        <ele>155.8</ele>
        <time>2020-06-10T14:27:52Z</time>
      </trkpt>
      <trkpt lat="48.56572" lon="-3.65117">
        <ele>155.8</ele>
        <time>2020-06-10T14:27:53Z</time>
      </trkpt>
      <trkpt lat="48.56572" lon="-3.65118">
        <ele>155.8</ele>
        <time>2020-06-10T14:27:54Z</time>
      </trkpt>
      <trkpt lat="48.56572" lon="-3.65119">
        <ele>155.8</ele>
        <time>2020-06-10T14:27:55Z</time>
      </trkpt>
      <trkpt lat="48.56571" lon="-3.6512">
        <ele>155.8</ele>
        <time>2020-06-10T14:27:56Z</time>
      </trkpt>
      <trkpt lat="48.56571" lon="-3.6512">
        <ele>155.8</ele>
        <time>2020-06-10T14:27:57Z</time>
      </trkpt>
      <trkpt lat="48.56571" lon="-3.65121">
        <ele>155.8</ele>
        <time>2020-06-10T14:27:58Z</time>
      </trkpt>
      <trkpt lat="48.5657" lon="-3.6512">
        <ele>155.8</ele>
        <time>2020-06-10T14:27:59Z</time>
      </trkpt>
      <trkpt lat="48.5657" lon="-3.65119">
        <ele>155.8</ele>
        <time>2020-06-10T14:28:00Z</time>
      </trkpt>
      <trkpt lat="48.5657" lon="-3.65118">
        <ele>155.8</ele>
        <time>2020-06-10T14:28:01Z</time>
      </trkpt>
      <trkpt lat="48.5657" lon="-3.65117">
        <ele>155.8</ele>
        <time>2020-06-10T14:28:02Z</time>
      </trkpt>
      <trkpt lat="48.5657" lon="-3.65116">
        <ele>155.8</ele>
        <time>2020-06-10T14:28:03Z</time>
      </trkpt>
      <trkpt lat="48.56569" lon="-3.65115">
        <ele>155.8</ele>
        <time>2020-06-10T14:32:11Z</time>
      </trkpt>
      <trkpt lat="48.56569" lon="-3.65114">
        <ele>155.8</ele>
        <time>2020-06-10T14:32:12Z</time>
      </trkpt>
      <trkpt lat="48.56569" lon="-3.65113">
        <ele>155.8</ele>
        <time>2020-06-10T14:32:13Z</time>
      </trkpt>
      <trkpt lat="48.56569" lon="-3.65112">
        <ele>155.8</ele>
        <time>2020-06-10T14:32:14Z</time>
      </trkpt>
      <trkpt lat="48.56569" lon="-3.65111">
        <ele>155.7</ele>
        <time>2020-06-10T14:32:15Z</time>
      </trkpt>
      <trkpt lat="48.56568" lon="-3.6511">
        <ele>155.7</ele>
        <time>2020-06-10T14:32:16Z</time>
      </trkpt>
      <trkpt lat="48.56568" lon="-3.65109">
        <ele>155.7</ele>
        <time>2020-06-10T14:32:17Z</time>
      </trkpt>
      <trkpt lat="48.5657" lon="-3.65105">
        <ele>155.7</ele>
        <time>2020-06-10T14:32:18Z</time>
      </trkpt>
      <trkpt lat="48.5657" lon="-3.65104">
        <ele>155.7</ele>
        <time>2020-06-10T14:32:19Z</time>
      </trkpt>
      <trkpt lat="48.56571" lon="-3.65103">
        <ele>155.7</ele>
        <time>2020-06-10T14:32:20Z</time>
      </trkpt>
      <trkpt lat="48.56571" lon="-3.65103">
        <ele>155.7</ele>
        <time>2020-06-10T14:32:21Z</time>
      </trkpt>
      <trkpt lat="48.56571" lon="-3.65101">
        <ele>155.7</ele>
        <time>2020-06-10T14:32:22Z</time>
      </trkpt>
      <trkpt lat="48.56571" lon="-3.65097">
        <ele>155.7</ele>
        <time>2020-06-10T14:32:23Z</time>
      </trkpt>
      <trkpt lat="48.56571" lon="-3.65095">
        <ele>155.7</ele>
        <time>2020-06-10T14:32:24Z</time>
      </trkpt>
      <trkpt lat="48.56571" lon="-3.6509">
        <ele>155.6</ele>
        <time>2020-06-10T14:32:25Z</time>
      </trkpt>
      <trkpt lat="48.56571" lon="-3.65088">
        <ele>155.6</ele>
        <time>2020-06-10T14:32:26Z</time>
      </trkpt>
      <trkpt lat="48.5657" lon="-3.65083">
        <ele>155.6</ele>
        <time>2020-06-10T14:32:27Z</time>
      </trkpt>
      <trkpt lat="48.56569" lon="-3.65078">
        <ele>155.6</ele>
        <time>2020-06-10T14:32:28Z</time>
      </trkpt>
      <trkpt lat="48.56568" lon="-3.65072">
        <ele>155.5</ele>
        <time>2020-06-10T14:32:29Z</time>
      </trkpt>
      <trkpt lat="48.56567" lon="-3.65067">
        <ele>155.5</ele>
        <time>2020-06-10T14:32:30Z</time>
      </trkpt>
      <trkpt lat="48.56566" lon="-3.65059">
        <ele>155.5</ele>
        <time>2020-06-10T14:32:31Z</time>
      </trkpt>
      <trkpt lat="48.56565" lon="-3.65053">
        <ele>155.4</ele>
        <time>2020-06-10T14:32:32Z</time>
      </trkpt>
      <trkpt lat="48.56564" lon="-3.65046">
        <ele>155.4</ele>
        <time>2020-06-10T14:32:33Z</time>
      </trkpt>
      <trkpt lat="48.56564" lon="-3.65041">
        <ele>155.3</ele>
        <time>2020-06-10T14:32:34Z</time>
      </trkpt>
      <trkpt lat="48.56564" lon="-3.65033">
        <ele>155.3</ele>
        <time>2020-06-10T14:32:35Z</time>
      </trkpt>
      <trkpt lat="48.56565" lon="-3.65026">
        <ele>155.2</ele>
        <time>2020-06-10T14:32:36Z</time>
      </trkpt>
      <trkpt lat="48.56564" lon="-3.6502">
        <ele>155.1</ele>
        <time>2020-06-10T14:32:37Z</time>
      </trkpt>
      <trkpt lat="48.56564" lon="-3.65012">
        <ele>155.1</ele>
        <time>2020-06-10T14:32:38Z</time>
      </trkpt>
      <trkpt lat="48.56564" lon="-3.65005">
        <ele>155</ele>
        <time>2020-06-10T14:32:39Z</time>
      </trkpt>
      <trkpt lat="48.56563" lon="-3.64998">
        <ele>154.9</ele>
        <time>2020-06-10T14:32:40Z</time>
      </trkpt>
      <trkpt lat="48.56563" lon="-3.6499">
        <ele>154.9</ele>
        <time>2020-06-10T14:32:41Z</time>
      </trkpt>
      <trkpt lat="48.56562" lon="-3.64984">
        <ele>154.8</ele>
        <time>2020-06-10T14:32:42Z</time>
      </trkpt>
      <trkpt lat="48.56562" lon="-3.64976">
        <ele>154.7</ele>
        <time>2020-06-10T14:32:43Z</time>
      </trkpt>
      <trkpt lat="48.56561" lon="-3.6497">
        <ele>154.7</ele>
        <time>2020-06-10T14:32:44Z</time>
      </trkpt>
      <trkpt lat="48.56561" lon="-3.64963">
        <ele>154.6</ele>
        <time>2020-06-10T14:32:45Z</time>
      </trkpt>
      <trkpt lat="48.5656" lon="-3.64956">
        <ele>154.6</ele>
        <time>2020-06-10T14:32:46Z</time>
      </trkpt>
      <trkpt lat="48.5656" lon="-3.64949">
        <ele>154.5</ele>
        <time>2020-06-10T14:32:47Z</time>
      </trkpt>
      <trkpt lat="48.5656" lon="-3.64943">
        <ele>154.5</ele>
        <time>2020-06-10T14:32:48Z</time>
      </trkpt>
      <trkpt lat="48.56559" lon="-3.64936">
        <ele>154.4</ele>
        <time>2020-06-10T14:32:49Z</time>
      </trkpt>
      <trkpt lat="48.56559" lon="-3.6493">
        <ele>154.3</ele>
        <time>2020-06-10T14:32:50Z</time>
      </trkpt>
      <trkpt lat="48.56559" lon="-3.64925">
        <ele>154.2</ele>
        <time>2020-06-10T14:32:51Z</time>
      </trkpt>
      <trkpt lat="48.56558" lon="-3.6492">
        <ele>154.2</ele>
        <time>2020-06-10T14:32:52Z</time>
      </trkpt>
      <trkpt lat="48.56558" lon="-3.64915">
        <ele>154.1</ele>
        <time>2020-06-10T14:32:53Z</time>
      </trkpt>
      <trkpt lat="48.56558" lon="-3.6491">
        <ele>154.1</ele>
        <time>2020-06-10T14:32:54Z</time>
      </trkpt>
      <trkpt lat="48.56558" lon="-3.64904">
        <ele>154</ele>
        <time>2020-06-10T14:32:55Z</time>
      </trkpt>
      <trkpt lat="48.56558" lon="-3.649">
        <ele>154</ele>
        <time>2020-06-10T14:32:56Z</time>
      </trkpt>
      <trkpt lat="48.56559" lon="-3.64892">
        <ele>153.8</ele>
        <time>2020-06-10T14:32:57Z</time>
      </trkpt>
      <trkpt lat="48.56558" lon="-3.64886">
        <ele>153.7</ele>
        <time>2020-06-10T14:32:58Z</time>
      </trkpt>
      <trkpt lat="48.56558" lon="-3.64878">
        <ele>153.5</ele>
        <time>2020-06-10T14:32:59Z</time>
      </trkpt>
      <trkpt lat="48.56557" lon="-3.64871">
        <ele>153.2</ele>
        <time>2020-06-10T14:33:00Z</time>
      </trkpt>
      <trkpt lat="48.56558" lon="-3.64864">
        <ele>153</ele>
        <time>2020-06-10T14:33:01Z</time>
      </trkpt>
      <trkpt lat="48.56559" lon="-3.64856">
        <ele>152.7</ele>
        <time>2020-06-10T14:33:02Z</time>
      </trkpt>
      <trkpt lat="48.56559" lon="-3.6485">
        <ele>152.5</ele>
        <time>2020-06-10T14:33:03Z</time>
      </trkpt>
      <trkpt lat="48.5656" lon="-3.64844">
        <ele>152.2</ele>
        <time>2020-06-10T14:33:04Z</time>
      </trkpt>
      <trkpt lat="48.56561" lon="-3.64838">
        <ele>152</ele>
        <time>2020-06-10T14:33:05Z</time>
      </trkpt>
      <trkpt lat="48.56562" lon="-3.64833">
        <ele>151.7</ele>
        <time>2020-06-10T14:33:06Z</time>
      </trkpt>
      <trkpt lat="48.56562" lon="-3.64827">
        <ele>151.5</ele>
        <time>2020-06-10T14:33:07Z</time>
      </trkpt>
      <trkpt lat="48.56563" lon="-3.6482">
        <ele>151.2</ele>
        <time>2020-06-10T14:33:08Z</time>
      </trkpt>
      <trkpt lat="48.56563" lon="-3.64814">
        <ele>150.9</ele>
        <time>2020-06-10T14:33:09Z</time>
      </trkpt>
      <trkpt lat="48.56563" lon="-3.64807">
        <ele>150.5</ele>
        <time>2020-06-10T14:33:10Z</time>
      </trkpt>
      <trkpt lat="48.56564" lon="-3.64799">
        <ele>150.1</ele>
        <time>2020-06-10T14:33:11Z</time>
      </trkpt>
      <trkpt lat="48.56564" lon="-3.6479">
        <ele>149.6</ele>
        <time>2020-06-10T14:33:12Z</time>
      </trkpt>
      <trkpt lat="48.56564" lon="-3.6478">
        <ele>149.1</ele>
        <time>2020-06-10T14:33:13Z</time>
      </trkpt>
      <trkpt lat="48.56564" lon="-3.64769">
        <ele>148.5</ele>
        <time>2020-06-10T14:33:14Z</time>
      </trkpt>
      <trkpt lat="48.56564" lon="-3.64758">
        <ele>147.9</ele>
        <time>2020-06-10T14:33:15Z</time>
      </trkpt>
      <trkpt lat="48.56565" lon="-3.64745">
        <ele>147.3</ele>
        <time>2020-06-10T14:33:16Z</time>
      </trkpt>
      <trkpt lat="48.56565" lon="-3.64731">
        <ele>146.6</ele>
        <time>2020-06-10T14:33:17Z</time>
      </trkpt>
      <trkpt lat="48.56565" lon="-3.64715">
        <ele>145.8</ele>
        <time>2020-06-10T14:33:18Z</time>
      </trkpt>
      <trkpt lat="48.56566" lon="-3.64698">
        <ele>144.8</ele>
        <time>2020-06-10T14:33:19Z</time>
      </trkpt>
      <trkpt lat="48.56567" lon="-3.64681">
        <ele>143.7</ele>
        <time>2020-06-10T14:33:20Z</time>
      </trkpt>
      <trkpt lat="48.56568" lon="-3.64665">
        <ele>142.6</ele>
        <time>2020-06-10T14:33:21Z</time>
      </trkpt>
      <trkpt lat="48.56569" lon="-3.64648">
        <ele>141.5</ele>
        <time>2020-06-10T14:33:22Z</time>
      </trkpt>
      <trkpt lat="48.56569" lon="-3.6463">
        <ele>140.3</ele>
        <time>2020-06-10T14:33:23Z</time>
      </trkpt>
      <trkpt lat="48.56569" lon="-3.64611">
        <ele>139</ele>
        <time>2020-06-10T14:33:24Z</time>
      </trkpt>
      <trkpt lat="48.56569" lon="-3.64593">
        <ele>137.6</ele>
        <time>2020-06-10T14:33:25Z</time>
      </trkpt>
      <trkpt lat="48.5657" lon="-3.64575">
        <ele>136.1</ele>
        <time>2020-06-10T14:33:26Z</time>
      </trkpt>
      <trkpt lat="48.5657" lon="-3.64556">
        <ele>134.5</ele>
        <time>2020-06-10T14:33:27Z</time>
      </trkpt>
      <trkpt lat="48.56571" lon="-3.64537">
        <ele>133</ele>
        <time>2020-06-10T14:33:28Z</time>
      </trkpt>
      <trkpt lat="48.56572" lon="-3.64517">
        <ele>131.4</ele>
        <time>2020-06-10T14:33:29Z</time>
      </trkpt>
      <trkpt lat="48.56573" lon="-3.64496">
        <ele>129.6</ele>
        <time>2020-06-10T14:33:30Z</time>
      </trkpt>
      <trkpt lat="48.56575" lon="-3.64474">
        <ele>127.7</ele>
        <time>2020-06-10T14:33:31Z</time>
      </trkpt>
      <trkpt lat="48.56577" lon="-3.64451">
        <ele>125.9</ele>
        <time>2020-06-10T14:33:32Z</time>
      </trkpt>
      <trkpt lat="48.56578" lon="-3.64428">
        <ele>124.2</ele>
        <time>2020-06-10T14:33:33Z</time>
      </trkpt>
      <trkpt lat="48.56586" lon="-3.64403">
        <ele>122.2</ele>
        <time>2020-06-10T14:33:34Z</time>
      </trkpt>
      <trkpt lat="48.56588" lon="-3.64375">
        <ele>120.2</ele>
        <time>2020-06-10T14:33:35Z</time>
      </trkpt>
      <trkpt lat="48.5659" lon="-3.64347">
        <ele>118.2</ele>
        <time>2020-06-10T14:33:36Z</time>
      </trkpt>
      <trkpt lat="48.56591" lon="-3.6432">
        <ele>116.3</ele>
        <time>2020-06-10T14:33:37Z</time>
      </trkpt>
      <trkpt lat="48.56591" lon="-3.64295">
        <ele>114.5</ele>
        <time>2020-06-10T14:33:38Z</time>
      </trkpt>
      <trkpt lat="48.5659" lon="-3.64273">
        <ele>112.9</ele>
        <time>2020-06-10T14:33:39Z</time>
      </trkpt>
      <trkpt lat="48.56589" lon="-3.64255">
        <ele>111.6</ele>
        <time>2020-06-10T14:33:40Z</time>
      </trkpt>
      <trkpt lat="48.56586" lon="-3.64239">
        <ele>110.2</ele>
        <time>2020-06-10T14:33:41Z</time>
      </trkpt>
      <trkpt lat="48.56583" lon="-3.64222">
        <ele>108.7</ele>
        <time>2020-06-10T14:33:42Z</time>
      </trkpt>
      <trkpt lat="48.56577" lon="-3.64209">
        <ele>107.2</ele>
        <time>2020-06-10T14:33:43Z</time>
      </trkpt>
      <trkpt lat="48.56571" lon="-3.64199">
        <ele>105.9</ele>
        <time>2020-06-10T14:33:44Z</time>
      </trkpt>
      <trkpt lat="48.56561" lon="-3.6419">
        <ele>104.3</ele>
        <time>2020-06-10T14:33:45Z</time>
      </trkpt>
      <trkpt lat="48.56551" lon="-3.6418">
        <ele>102.8</ele>
        <time>2020-06-10T14:33:46Z</time>
      </trkpt>
      <trkpt lat="48.56543" lon="-3.6417">
        <ele>101.2</ele>
        <time>2020-06-10T14:33:47Z</time>
      </trkpt>
      <trkpt lat="48.56533" lon="-3.64162">
        <ele>99.7</ele>
        <time>2020-06-10T14:33:48Z</time>
      </trkpt>
      <trkpt lat="48.56526" lon="-3.64151">
        <ele>98.2</ele>
        <time>2020-06-10T14:33:49Z</time>
      </trkpt>
      <trkpt lat="48.56517" lon="-3.64142">
        <ele>96.8</ele>
        <time>2020-06-10T14:33:50Z</time>
      </trkpt>
      <trkpt lat="48.56514" lon="-3.6413">
        <ele>95.7</ele>
        <time>2020-06-10T14:33:51Z</time>
      </trkpt>
      <trkpt lat="48.5651" lon="-3.64116">
        <ele>94.3</ele>
        <time>2020-06-10T14:33:52Z</time>
      </trkpt>
      <trkpt lat="48.56509" lon="-3.64102">
        <ele>93.1</ele>
        <time>2020-06-10T14:33:53Z</time>
      </trkpt>
      <trkpt lat="48.56509" lon="-3.64089">
        <ele>92</ele>
        <time>2020-06-10T14:33:54Z</time>
      </trkpt>
      <trkpt lat="48.56511" lon="-3.64075">
        <ele>90.9</ele>
        <time>2020-06-10T14:33:55Z</time>
      </trkpt>
      <trkpt lat="48.56514" lon="-3.64063">
        <ele>89.7</ele>
        <time>2020-06-10T14:33:56Z</time>
      </trkpt>
      <trkpt lat="48.56517" lon="-3.6405">
        <ele>88.6</ele>
        <time>2020-06-10T14:33:57Z</time>
      </trkpt>
      <trkpt lat="48.56517" lon="-3.64038">
        <ele>87.5</ele>
        <time>2020-06-10T14:33:58Z</time>
      </trkpt>
      <trkpt lat="48.56519" lon="-3.64024">
        <ele>86.4</ele>
        <time>2020-06-10T14:33:59Z</time>
      </trkpt>
      <trkpt lat="48.5652" lon="-3.64012">
        <ele>85.5</ele>
        <time>2020-06-10T14:34:00Z</time>
      </trkpt>
      <trkpt lat="48.56521" lon="-3.64001">
        <ele>84.8</ele>
        <time>2020-06-10T14:34:01Z</time>
      </trkpt>
      <trkpt lat="48.56525" lon="-3.63992">
        <ele>84.1</ele>
        <time>2020-06-10T14:34:02Z</time>
      </trkpt>
      <trkpt lat="48.56528" lon="-3.63978">
        <ele>83.4</ele>
        <time>2020-06-10T14:34:03Z</time>
      </trkpt>
      <trkpt lat="48.5653" lon="-3.63965">
        <ele>82.8</ele>
        <time>2020-06-10T14:34:04Z</time>
      </trkpt>
      <trkpt lat="48.56531" lon="-3.63951">
        <ele>82.3</ele>
        <time>2020-06-10T14:34:05Z</time>
      </trkpt>
      <trkpt lat="48.56531" lon="-3.6394">
        <ele>81.9</ele>
        <time>2020-06-10T14:34:06Z</time>
      </trkpt>
      <trkpt lat="48.56532" lon="-3.6393">
        <ele>81.6</ele>
        <time>2020-06-10T14:34:07Z</time>
      </trkpt>
      <trkpt lat="48.56535" lon="-3.63921">
        <ele>81.1</ele>
        <time>2020-06-10T14:34:08Z</time>
      </trkpt>
      <trkpt lat="48.56538" lon="-3.63914">
        <ele>80.8</ele>
        <time>2020-06-10T14:34:10Z</time>
      </trkpt>
      <trkpt lat="48.5654" lon="-3.63906">
        <ele>80.6</ele>
        <time>2020-06-10T14:34:11Z</time>
      </trkpt>
      <trkpt lat="48.56541" lon="-3.639">
        <ele>80.4</ele>
        <time>2020-06-10T14:34:12Z</time>
      </trkpt>
      <trkpt lat="48.56541" lon="-3.63894">
        <ele>80.2</ele>
        <time>2020-06-10T14:34:13Z</time>
      </trkpt>
      <trkpt lat="48.5654" lon="-3.63887">
        <ele>80.1</ele>
        <time>2020-06-10T14:34:14Z</time>
      </trkpt>
      <trkpt lat="48.56537" lon="-3.63882">
        <ele>79.9</ele>
        <time>2020-06-10T14:34:15Z</time>
      </trkpt>
      <trkpt lat="48.56536" lon="-3.63877">
        <ele>79.9</ele>
        <time>2020-06-10T14:34:16Z</time>
      </trkpt>
      <trkpt lat="48.56536" lon="-3.63871">
        <ele>79.9</ele>
        <time>2020-06-10T14:34:17Z</time>
      </trkpt>
      <trkpt lat="48.56535" lon="-3.63864">
        <ele>79.9</ele>
        <time>2020-06-10T14:34:18Z</time>
      </trkpt>
      <trkpt lat="48.56535" lon="-3.63856">
        <ele>79.9</ele>
        <time>2020-06-10T14:34:19Z</time>
      </trkpt>
      <trkpt lat="48.56534" lon="-3.6385">
        <ele>80</ele>
        <time>2020-06-10T14:34:20Z</time>
      </trkpt>
      <trkpt lat="48.56533" lon="-3.63844">
        <ele>80</ele>
        <time>2020-06-10T14:34:21Z</time>
      </trkpt>
      <trkpt lat="48.56531" lon="-3.63839">
        <ele>80</ele>
        <time>2020-06-10T14:34:22Z</time>
      </trkpt>
      <trkpt lat="48.56529" lon="-3.63832">
        <ele>80</ele>
        <time>2020-06-10T14:34:23Z</time>
      </trkpt>
      <trkpt lat="48.56527" lon="-3.63829">
        <ele>80.1</ele>
        <time>2020-06-10T14:34:24Z</time>
      </trkpt>
      <trkpt lat="48.56526" lon="-3.63824">
        <ele>80.1</ele>
        <time>2020-06-10T14:34:25Z</time>
      </trkpt>
      <trkpt lat="48.56525" lon="-3.63818">
        <ele>80.1</ele>
        <time>2020-06-10T14:34:26Z</time>
      </trkpt>
      <trkpt lat="48.56522" lon="-3.63814">
        <ele>80.2</ele>
        <time>2020-06-10T14:34:27Z</time>
      </trkpt>
      <trkpt lat="48.5652" lon="-3.63807">
        <ele>80.2</ele>
        <time>2020-06-10T14:34:28Z</time>
      </trkpt>
      <trkpt lat="48.56519" lon="-3.63801">
        <ele>80.2</ele>
        <time>2020-06-10T14:34:29Z</time>
      </trkpt>
      <trkpt lat="48.56517" lon="-3.63797">
        <ele>80.3</ele>
        <time>2020-06-10T14:34:30Z</time>
      </trkpt>
      <trkpt lat="48.56516" lon="-3.63789">
        <ele>80.3</ele>
        <time>2020-06-10T14:34:31Z</time>
      </trkpt>
      <trkpt lat="48.56512" lon="-3.63787">
        <ele>80.3</ele>
        <time>2020-06-10T14:34:32Z</time>
      </trkpt>
      <trkpt lat="48.5651" lon="-3.63784">
        <ele>80.4</ele>
        <time>2020-06-10T14:34:33Z</time>
      </trkpt>
      <trkpt lat="48.56509" lon="-3.63783">
        <ele>80.4</ele>
        <time>2020-06-10T14:34:34Z</time>
      </trkpt>
      <trkpt lat="48.56507" lon="-3.63781">
        <ele>80.4</ele>
        <time>2020-06-10T14:34:35Z</time>
      </trkpt>
      <trkpt lat="48.56506" lon="-3.6378">
        <ele>80.4</ele>
        <time>2020-06-10T14:34:36Z</time>
      </trkpt>
      <trkpt lat="48.56505" lon="-3.63776">
        <ele>80.5</ele>
        <time>2020-06-10T14:34:37Z</time>
      </trkpt>
      <trkpt lat="48.56505" lon="-3.63773">
        <ele>80.5</ele>
        <time>2020-06-10T14:34:38Z</time>
      </trkpt>
      <trkpt lat="48.56504" lon="-3.63768">
        <ele>80.5</ele>
        <time>2020-06-10T14:34:39Z</time>
      </trkpt>
      <trkpt lat="48.56504" lon="-3.63762">
        <ele>80.6</ele>
        <time>2020-06-10T14:34:40Z</time>
      </trkpt>
      <trkpt lat="48.56504" lon="-3.6376">
        <ele>80.6</ele>
        <time>2020-06-10T14:34:41Z</time>
      </trkpt>
      <trkpt lat="48.56503" lon="-3.63756">
        <ele>80.6</ele>
        <time>2020-06-10T14:34:42Z</time>
      </trkpt>
      <trkpt lat="48.56503" lon="-3.6375">
        <ele>80.6</ele>
        <time>2020-06-10T14:34:43Z</time>
      </trkpt>
      <trkpt lat="48.56505" lon="-3.63747">
        <ele>80.6</ele>
        <time>2020-06-10T14:34:44Z</time>
      </trkpt>
      <trkpt lat="48.56501" lon="-3.63748">
        <ele>80.6</ele>
        <time>2020-06-10T14:34:45Z</time>
      </trkpt>
      <trkpt lat="48.565" lon="-3.63748">
        <ele>80.6</ele>
        <time>2020-06-10T14:34:46Z</time>
      </trkpt>
      <trkpt lat="48.56499" lon="-3.63745">
        <ele>80.6</ele>
        <time>2020-06-10T14:34:47Z</time>
      </trkpt>
      <trkpt lat="48.56498" lon="-3.63744">
        <ele>80.6</ele>
        <time>2020-06-10T14:34:48Z</time>
      </trkpt>
      <trkpt lat="48.56497" lon="-3.63741">
        <ele>80.6</ele>
        <time>2020-06-10T14:34:49Z</time>
      </trkpt>
      <trkpt lat="48.56495" lon="-3.63741">
        <ele>80.6</ele>
        <time>2020-06-10T14:34:50Z</time>
      </trkpt>
      <trkpt lat="48.56496" lon="-3.63739">
        <ele>80.6</ele>
        <time>2020-06-10T14:34:51Z</time>
      </trkpt>
      <trkpt lat="48.56495" lon="-3.63737">
        <ele>80.6</ele>
        <time>2020-06-10T14:34:52Z</time>
      </trkpt>
      <trkpt lat="48.56494" lon="-3.63734">
        <ele>80.6</ele>
        <time>2020-06-10T14:34:53Z</time>
      </trkpt>
      <trkpt lat="48.56494" lon="-3.63732">
        <ele>80.6</ele>
        <time>2020-06-10T14:34:54Z</time>
      </trkpt>
      <trkpt lat="48.56494" lon="-3.63735">
        <ele>80.6</ele>
        <time>2020-06-10T14:34:55Z</time>
      </trkpt>
      <trkpt lat="48.56493" lon="-3.63736">
        <ele>80.6</ele>
        <time>2020-06-10T14:34:56Z</time>
      </trkpt>
      <trkpt lat="48.56492" lon="-3.63737">
        <ele>80.6</ele>
        <time>2020-06-10T14:34:57Z</time>
      </trkpt>
      <trkpt lat="48.56493" lon="-3.63741">
        <ele>80.7</ele>
        <time>2020-06-10T14:34:58Z</time>
      </trkpt>
      <trkpt lat="48.56492" lon="-3.63741">
        <ele>80.7</ele>
        <time>2020-06-10T14:34:59Z</time>
      </trkpt>
      <trkpt lat="48.56491" lon="-3.6374">
        <ele>80.7</ele>
        <time>2020-06-10T14:35:00Z</time>
      </trkpt>
      <trkpt lat="48.56491" lon="-3.63737">
        <ele>80.7</ele>
        <time>2020-06-10T14:35:01Z</time>
      </trkpt>
      <trkpt lat="48.5649" lon="-3.63736">
        <ele>80.7</ele>
        <time>2020-06-10T14:35:02Z</time>
      </trkpt>
      <trkpt lat="48.56489" lon="-3.63735">
        <ele>80.7</ele>
        <time>2020-06-10T14:35:03Z</time>
      </trkpt>
      <trkpt lat="48.56487" lon="-3.6373">
        <ele>80.7</ele>
        <time>2020-06-10T14:35:04Z</time>
      </trkpt>
      <trkpt lat="48.56486" lon="-3.63728">
        <ele>80.7</ele>
        <time>2020-06-10T14:35:05Z</time>
      </trkpt>
      <trkpt lat="48.56484" lon="-3.63724">
        <ele>80.8</ele>
        <time>2020-06-10T14:35:06Z</time>
      </trkpt>
      <trkpt lat="48.56483" lon="-3.63724">
        <ele>80.8</ele>
        <time>2020-06-10T14:35:07Z</time>
      </trkpt>
      <trkpt lat="48.56482" lon="-3.6372">
        <ele>80.8</ele>
        <time>2020-06-10T14:35:08Z</time>
      </trkpt>
      <trkpt lat="48.56481" lon="-3.63719">
        <ele>80.8</ele>
        <time>2020-06-10T14:35:09Z</time>
      </trkpt>
      <trkpt lat="48.5648" lon="-3.63718">
        <ele>80.8</ele>
        <time>2020-06-10T14:35:10Z</time>
      </trkpt>
      <trkpt lat="48.56479" lon="-3.63718">
        <ele>80.9</ele>
        <time>2020-06-10T14:35:11Z</time>
      </trkpt>
      <trkpt lat="48.56478" lon="-3.63717">
        <ele>80.9</ele>
        <time>2020-06-10T14:35:12Z</time>
      </trkpt>
      <trkpt lat="48.56477" lon="-3.63717">
        <ele>80.9</ele>
        <time>2020-06-10T14:35:13Z</time>
      </trkpt>
      <trkpt lat="48.56478" lon="-3.63718">
        <ele>80.9</ele>
        <time>2020-06-10T14:35:14Z</time>
      </trkpt>
      <trkpt lat="48.56478" lon="-3.63717">
        <ele>80.9</ele>
        <time>2020-06-10T14:35:15Z</time>
      </trkpt>
      <trkpt lat="48.56478" lon="-3.63716">
        <ele>80.9</ele>
        <time>2020-06-10T14:35:16Z</time>
      </trkpt>
      <trkpt lat="48.56479" lon="-3.63715">
        <ele>80.9</ele>
        <time>2020-06-10T14:35:17Z</time>
      </trkpt>
      <trkpt lat="48.56479" lon="-3.63715">
        <ele>80.9</ele>
        <time>2020-06-10T14:35:18Z</time>
      </trkpt>
      <trkpt lat="48.56477" lon="-3.63715">
        <ele>80.9</ele>
        <time>2020-06-10T14:35:19Z</time>
      </trkpt>
      <trkpt lat="48.56475" lon="-3.63715">
        <ele>81</ele>
        <time>2020-06-10T14:35:20Z</time>
      </trkpt>
      <trkpt lat="48.56476" lon="-3.63715">
        <ele>81</ele>
        <time>2020-06-10T14:35:21Z</time>
      </trkpt>
      <trkpt lat="48.56475" lon="-3.63717">
        <ele>81</ele>
        <time>2020-06-10T14:35:22Z</time>
      </trkpt>
      <trkpt lat="48.56476" lon="-3.6372">
        <ele>81</ele>
        <time>2020-06-10T14:35:23Z</time>
      </trkpt>
      <trkpt lat="48.56475" lon="-3.63718">
        <ele>81</ele>
        <time>2020-06-10T14:36:20Z</time>
      </trkpt>
      <trkpt lat="48.56474" lon="-3.63715">
        <ele>81.1</ele>
        <time>2020-06-10T14:36:21Z</time>
      </trkpt>
      <trkpt lat="48.56472" lon="-3.6371">
        <ele>81.1</ele>
        <time>2020-06-10T14:36:22Z</time>
      </trkpt>
      <trkpt lat="48.56472" lon="-3.63708">
        <ele>81.1</ele>
        <time>2020-06-10T14:36:23Z</time>
      </trkpt>
      <trkpt lat="48.5647" lon="-3.63704">
        <ele>81.2</ele>
        <time>2020-06-10T14:36:24Z</time>
      </trkpt>
      <trkpt lat="48.5647" lon="-3.63699">
        <ele>81.2</ele>
        <time>2020-06-10T14:36:25Z</time>
      </trkpt>
      <trkpt lat="48.5647" lon="-3.63694">
        <ele>81.2</ele>
        <time>2020-06-10T14:36:26Z</time>
      </trkpt>
      <trkpt lat="48.56469" lon="-3.6369">
        <ele>81.3</ele>
        <time>2020-06-10T14:36:27Z</time>
      </trkpt>
      <trkpt lat="48.56468" lon="-3.63686">
        <ele>81.3</ele>
        <time>2020-06-10T14:36:28Z</time>
      </trkpt>
      <trkpt lat="48.56466" lon="-3.63682">
        <ele>81.3</ele>
        <time>2020-06-10T14:36:29Z</time>
      </trkpt>
      <trkpt lat="48.56464" lon="-3.63679">
        <ele>81.4</ele>
        <time>2020-06-10T14:36:30Z</time>
      </trkpt>
      <trkpt lat="48.56462" lon="-3.63675">
        <ele>81.4</ele>
        <time>2020-06-10T14:36:31Z</time>
      </trkpt>
      <trkpt lat="48.56461" lon="-3.63671">
        <ele>81.4</ele>
        <time>2020-06-10T14:36:32Z</time>
      </trkpt>
      <trkpt lat="48.56459" lon="-3.63668">
        <ele>81.4</ele>
        <time>2020-06-10T14:36:33Z</time>
      </trkpt>
      <trkpt lat="48.56457" lon="-3.63663">
        <ele>81.5</ele>
        <time>2020-06-10T14:36:34Z</time>
      </trkpt>
      <trkpt lat="48.56455" lon="-3.63658">
        <ele>81.5</ele>
        <time>2020-06-10T14:36:35Z</time>
      </trkpt>
      <trkpt lat="48.56454" lon="-3.63654">
        <ele>81.5</ele>
        <time>2020-06-10T14:36:36Z</time>
      </trkpt>
      <trkpt lat="48.56452" lon="-3.63649">
        <ele>81.6</ele>
        <time>2020-06-10T14:36:37Z</time>
      </trkpt>
      <trkpt lat="48.56451" lon="-3.63645">
        <ele>81.6</ele>
        <time>2020-06-10T14:36:38Z</time>
      </trkpt>
      <trkpt lat="48.56449" lon="-3.6364">
        <ele>81.6</ele>
        <time>2020-06-10T14:36:39Z</time>
      </trkpt>
      <trkpt lat="48.56447" lon="-3.63636">
        <ele>81.7</ele>
        <time>2020-06-10T14:36:40Z</time>
      </trkpt>
      <trkpt lat="48.56445" lon="-3.63632">
        <ele>81.8</ele>
        <time>2020-06-10T14:36:41Z</time>
      </trkpt>
      <trkpt lat="48.56443" lon="-3.63627">
        <ele>81.8</ele>
        <time>2020-06-10T14:36:42Z</time>
      </trkpt>
      <trkpt lat="48.56441" lon="-3.63623">
        <ele>81.9</ele>
        <time>2020-06-10T14:36:43Z</time>
      </trkpt>
      <trkpt lat="48.56439" lon="-3.63619">
        <ele>82</ele>
        <time>2020-06-10T14:36:44Z</time>
      </trkpt>
      <trkpt lat="48.56437" lon="-3.63614">
        <ele>82.1</ele>
        <time>2020-06-10T14:36:45Z</time>
      </trkpt>
      <trkpt lat="48.56434" lon="-3.6361">
        <ele>82.2</ele>
        <time>2020-06-10T14:36:46Z</time>
      </trkpt>
      <trkpt lat="48.56431" lon="-3.63606">
        <ele>82.4</ele>
        <time>2020-06-10T14:36:47Z</time>
      </trkpt>
      <trkpt lat="48.56429" lon="-3.63601">
        <ele>82.5</ele>
        <time>2020-06-10T14:36:48Z</time>
      </trkpt>
      <trkpt lat="48.56427" lon="-3.63596">
        <ele>82.6</ele>
        <time>2020-06-10T14:36:49Z</time>
      </trkpt>
      <trkpt lat="48.56425" lon="-3.63591">
        <ele>82.7</ele>
        <time>2020-06-10T14:36:50Z</time>
      </trkpt>
      <trkpt lat="48.56423" lon="-3.63586">
        <ele>82.9</ele>
        <time>2020-06-10T14:36:51Z</time>
      </trkpt>
      <trkpt lat="48.56421" lon="-3.63581">
        <ele>83</ele>
        <time>2020-06-10T14:36:52Z</time>
      </trkpt>
      <trkpt lat="48.56419" lon="-3.63576">
        <ele>83.1</ele>
        <time>2020-06-10T14:36:53Z</time>
      </trkpt>
      <trkpt lat="48.56418" lon="-3.63571">
        <ele>83.2</ele>
        <time>2020-06-10T14:36:54Z</time>
      </trkpt>
      <trkpt lat="48.56416" lon="-3.63567">
        <ele>83.4</ele>
        <time>2020-06-10T14:36:55Z</time>
      </trkpt>
      <trkpt lat="48.56413" lon="-3.63562">
        <ele>83.5</ele>
        <time>2020-06-10T14:36:56Z</time>
      </trkpt>
      <trkpt lat="48.56411" lon="-3.63557">
        <ele>83.6</ele>
        <time>2020-06-10T14:36:57Z</time>
      </trkpt>
      <trkpt lat="48.5641" lon="-3.63552">
        <ele>83.8</ele>
        <time>2020-06-10T14:36:58Z</time>
      </trkpt>
      <trkpt lat="48.56408" lon="-3.63547">
        <ele>83.9</ele>
        <time>2020-06-10T14:36:59Z</time>
      </trkpt>
      <trkpt lat="48.56406" lon="-3.63543">
        <ele>84</ele>
        <time>2020-06-10T14:37:00Z</time>
      </trkpt>
      <trkpt lat="48.56404" lon="-3.63538">
        <ele>84.2</ele>
        <time>2020-06-10T14:37:01Z</time>
      </trkpt>
      <trkpt lat="48.56402" lon="-3.63534">
        <ele>84.3</ele>
        <time>2020-06-10T14:37:02Z</time>
      </trkpt>
      <trkpt lat="48.564" lon="-3.6353">
        <ele>84.4</ele>
        <time>2020-06-10T14:37:03Z</time>
      </trkpt>
      <trkpt lat="48.56398" lon="-3.63526">
        <ele>84.4</ele>
        <time>2020-06-10T14:37:04Z</time>
      </trkpt>
      <trkpt lat="48.56396" lon="-3.63522">
        <ele>84.6</ele>
        <time>2020-06-10T14:37:05Z</time>
      </trkpt>
      <trkpt lat="48.56393" lon="-3.63518">
        <ele>84.6</ele>
        <time>2020-06-10T14:37:06Z</time>
      </trkpt>
      <trkpt lat="48.56391" lon="-3.63514">
        <ele>84.7</ele>
        <time>2020-06-10T14:37:07Z</time>
      </trkpt>
      <trkpt lat="48.56389" lon="-3.63509">
        <ele>84.8</ele>
        <time>2020-06-10T14:37:08Z</time>
      </trkpt>
      <trkpt lat="48.56386" lon="-3.63505">
        <ele>85</ele>
        <time>2020-06-10T14:37:09Z</time>
      </trkpt>
      <trkpt lat="48.56384" lon="-3.63501">
        <ele>85.1</ele>
        <time>2020-06-10T14:37:10Z</time>
      </trkpt>
      <trkpt lat="48.56381" lon="-3.63497">
        <ele>85.2</ele>
        <time>2020-06-10T14:37:11Z</time>
      </trkpt>
      <trkpt lat="48.56378" lon="-3.63492">
        <ele>85.3</ele>
        <time>2020-06-10T14:37:12Z</time>
      </trkpt>
      <trkpt lat="48.56376" lon="-3.63487">
        <ele>85.4</ele>
        <time>2020-06-10T14:37:13Z</time>
      </trkpt>
      <trkpt lat="48.56374" lon="-3.63483">
        <ele>85.5</ele>
        <time>2020-06-10T14:37:14Z</time>
      </trkpt>
      <trkpt lat="48.56371" lon="-3.63479">
        <ele>85.7</ele>
        <time>2020-06-10T14:37:15Z</time>
      </trkpt>
      <trkpt lat="48.56369" lon="-3.63476">
        <ele>85.8</ele>
        <time>2020-06-10T14:37:16Z</time>
      </trkpt>
      <trkpt lat="48.56366" lon="-3.63472">
        <ele>85.9</ele>
        <time>2020-06-10T14:37:17Z</time>
      </trkpt>
      <trkpt lat="48.56363" lon="-3.63469">
        <ele>86</ele>
        <time>2020-06-10T14:37:18Z</time>
      </trkpt>
      <trkpt lat="48.5636" lon="-3.63465">
        <ele>86.1</ele>
        <time>2020-06-10T14:37:19Z</time>
      </trkpt>
      <trkpt lat="48.56358" lon="-3.63461">
        <ele>86.2</ele>
        <time>2020-06-10T14:37:20Z</time>
      </trkpt>
      <trkpt lat="48.56355" lon="-3.63456">
        <ele>86.3</ele>
        <time>2020-06-10T14:37:21Z</time>
      </trkpt>
      <trkpt lat="48.56353" lon="-3.63452">
        <ele>86.4</ele>
        <time>2020-06-10T14:37:22Z</time>
      </trkpt>
      <trkpt lat="48.5635" lon="-3.63448">
        <ele>86.5</ele>
        <time>2020-06-10T14:37:23Z</time>
      </trkpt>
      <trkpt lat="48.56348" lon="-3.63444">
        <ele>86.6</ele>
        <time>2020-06-10T14:37:24Z</time>
      </trkpt>
      <trkpt lat="48.56345" lon="-3.63441">
        <ele>86.7</ele>
        <time>2020-06-10T14:37:25Z</time>
      </trkpt>
      <trkpt lat="48.56343" lon="-3.63437">
        <ele>86.8</ele>
        <time>2020-06-10T14:37:26Z</time>
      </trkpt>
      <trkpt lat="48.5634" lon="-3.63433">
        <ele>86.9</ele>
        <time>2020-06-10T14:37:27Z</time>
      </trkpt>
      <trkpt lat="48.56338" lon="-3.6343">
        <ele>87</ele>
        <time>2020-06-10T14:37:28Z</time>
      </trkpt>
      <trkpt lat="48.56335" lon="-3.63426">
        <ele>87.1</ele>
        <time>2020-06-10T14:37:29Z</time>
      </trkpt>
      <trkpt lat="48.56332" lon="-3.63421">
        <ele>87.2</ele>
        <time>2020-06-10T14:37:30Z</time>
      </trkpt>
      <trkpt lat="48.56329" lon="-3.63418">
        <ele>87.3</ele>
        <time>2020-06-10T14:37:31Z</time>
      </trkpt>
      <trkpt lat="48.56326" lon="-3.63414">
        <ele>87.4</ele>
        <time>2020-06-10T14:37:32Z</time>
      </trkpt>
      <trkpt lat="48.56323" lon="-3.6341">
        <ele>87.5</ele>
        <time>2020-06-10T14:37:33Z</time>
      </trkpt>
      <trkpt lat="48.5632" lon="-3.63407">
        <ele>87.6</ele>
        <time>2020-06-10T14:37:34Z</time>
      </trkpt>
      <trkpt lat="48.56317" lon="-3.63404">
        <ele>87.7</ele>
        <time>2020-06-10T14:37:35Z</time>
      </trkpt>
      <trkpt lat="48.56314" lon="-3.63401">
        <ele>87.7</ele>
        <time>2020-06-10T14:37:36Z</time>
      </trkpt>
      <trkpt lat="48.56311" lon="-3.63398">
        <ele>87.8</ele>
        <time>2020-06-10T14:37:37Z</time>
      </trkpt>
      <trkpt lat="48.56308" lon="-3.63395">
        <ele>87.9</ele>
        <time>2020-06-10T14:37:38Z</time>
      </trkpt>
      <trkpt lat="48.56305" lon="-3.63392">
        <ele>88</ele>
        <time>2020-06-10T14:37:39Z</time>
      </trkpt>
      <trkpt lat="48.56302" lon="-3.6339">
        <ele>88.1</ele>
        <time>2020-06-10T14:37:40Z</time>
      </trkpt>
      <trkpt lat="48.56299" lon="-3.63388">
        <ele>88.1</ele>
        <time>2020-06-10T14:37:41Z</time>
      </trkpt>
      <trkpt lat="48.56296" lon="-3.63386">
        <ele>88.2</ele>
        <time>2020-06-10T14:37:42Z</time>
      </trkpt>
      <trkpt lat="48.56292" lon="-3.63384">
        <ele>88.2</ele>
        <time>2020-06-10T14:37:43Z</time>
      </trkpt>
      <trkpt lat="48.5629" lon="-3.63382">
        <ele>88.5</ele>
        <time>2020-06-10T14:37:44Z</time>
      </trkpt>
      <trkpt lat="48.56287" lon="-3.6338">
        <ele>88.6</ele>
        <time>2020-06-10T14:37:45Z</time>
      </trkpt>
      <trkpt lat="48.56284" lon="-3.63378">
        <ele>88.7</ele>
        <time>2020-06-10T14:37:46Z</time>
      </trkpt>
      <trkpt lat="48.56281" lon="-3.63376">
        <ele>88.8</ele>
        <time>2020-06-10T14:37:47Z</time>
      </trkpt>
      <trkpt lat="48.56277" lon="-3.63373">
        <ele>89</ele>
        <time>2020-06-10T14:37:48Z</time>
      </trkpt>
      <trkpt lat="48.56274" lon="-3.63371">
        <ele>89.1</ele>
        <time>2020-06-10T14:37:49Z</time>
      </trkpt>
      <trkpt lat="48.5627" lon="-3.63368">
        <ele>89.2</ele>
        <time>2020-06-10T14:37:50Z</time>
      </trkpt>
      <trkpt lat="48.56267" lon="-3.63366">
        <ele>89.4</ele>
        <time>2020-06-10T14:37:51Z</time>
      </trkpt>
      <trkpt lat="48.56263" lon="-3.63363">
        <ele>89.5</ele>
        <time>2020-06-10T14:37:52Z</time>
      </trkpt>
      <trkpt lat="48.56259" lon="-3.63361">
        <ele>89.7</ele>
        <time>2020-06-10T14:37:53Z</time>
      </trkpt>
      <trkpt lat="48.56256" lon="-3.63359">
        <ele>89.8</ele>
        <time>2020-06-10T14:37:54Z</time>
      </trkpt>
      <trkpt lat="48.56253" lon="-3.63357">
        <ele>89.9</ele>
        <time>2020-06-10T14:37:55Z</time>
      </trkpt>
      <trkpt lat="48.5625" lon="-3.63353">
        <ele>90.1</ele>
        <time>2020-06-10T14:37:56Z</time>
      </trkpt>
      <trkpt lat="48.56246" lon="-3.6335">
        <ele>90.3</ele>
        <time>2020-06-10T14:37:57Z</time>
      </trkpt>
      <trkpt lat="48.56242" lon="-3.63347">
        <ele>90.4</ele>
        <time>2020-06-10T14:37:58Z</time>
      </trkpt>
      <trkpt lat="48.56238" lon="-3.63343">
        <ele>90.6</ele>
        <time>2020-06-10T14:37:59Z</time>
      </trkpt>
      <trkpt lat="48.56234" lon="-3.6334">
        <ele>90.8</ele>
        <time>2020-06-10T14:38:00Z</time>
      </trkpt>
      <trkpt lat="48.5623" lon="-3.63336">
        <ele>90.9</ele>
        <time>2020-06-10T14:38:01Z</time>
      </trkpt>
      <trkpt lat="48.56227" lon="-3.63334">
        <ele>91</ele>
        <time>2020-06-10T14:38:02Z</time>
      </trkpt>
      <trkpt lat="48.56224" lon="-3.6333">
        <ele>91.1</ele>
        <time>2020-06-10T14:38:03Z</time>
      </trkpt>
      <trkpt lat="48.56221" lon="-3.63327">
        <ele>91.3</ele>
        <time>2020-06-10T14:38:04Z</time>
      </trkpt>
      <trkpt lat="48.56217" lon="-3.63323">
        <ele>91.5</ele>
        <time>2020-06-10T14:38:05Z</time>
      </trkpt>
      <trkpt lat="48.56214" lon="-3.6332">
        <ele>91.6</ele>
        <time>2020-06-10T14:38:06Z</time>
      </trkpt>
      <trkpt lat="48.56211" lon="-3.63317">
        <ele>91.7</ele>
        <time>2020-06-10T14:38:07Z</time>
      </trkpt>
      <trkpt lat="48.56209" lon="-3.63314">
        <ele>91.8</ele>
        <time>2020-06-10T14:38:08Z</time>
      </trkpt>
      <trkpt lat="48.56206" lon="-3.6331">
        <ele>92</ele>
        <time>2020-06-10T14:38:09Z</time>
      </trkpt>
      <trkpt lat="48.56205" lon="-3.63309">
        <ele>92</ele>
        <time>2020-06-10T14:38:10Z</time>
      </trkpt>
      <trkpt lat="48.56202" lon="-3.63305">
        <ele>92.2</ele>
        <time>2020-06-10T14:38:11Z</time>
      </trkpt>
      <trkpt lat="48.562" lon="-3.63302">
        <ele>92.3</ele>
        <time>2020-06-10T14:38:12Z</time>
      </trkpt>
      <trkpt lat="48.56197" lon="-3.63299">
        <ele>92.4</ele>
        <time>2020-06-10T14:38:13Z</time>
      </trkpt>
      <trkpt lat="48.56193" lon="-3.63295">
        <ele>92.5</ele>
        <time>2020-06-10T14:38:14Z</time>
      </trkpt>
      <trkpt lat="48.5619" lon="-3.6329">
        <ele>92.6</ele>
        <time>2020-06-10T14:38:15Z</time>
      </trkpt>
      <trkpt lat="48.56187" lon="-3.63287">
        <ele>92.8</ele>
        <time>2020-06-10T14:38:16Z</time>
      </trkpt>
      <trkpt lat="48.56185" lon="-3.63284">
        <ele>92.8</ele>
        <time>2020-06-10T14:38:17Z</time>
      </trkpt>
      <trkpt lat="48.56182" lon="-3.6328">
        <ele>93</ele>
        <time>2020-06-10T14:38:18Z</time>
      </trkpt>
      <trkpt lat="48.56179" lon="-3.63274">
        <ele>93.2</ele>
        <time>2020-06-10T14:38:19Z</time>
      </trkpt>
      <trkpt lat="48.56176" lon="-3.63269">
        <ele>93.3</ele>
        <time>2020-06-10T14:38:20Z</time>
      </trkpt>
      <trkpt lat="48.56173" lon="-3.63266">
        <ele>93.5</ele>
        <time>2020-06-10T14:38:21Z</time>
      </trkpt>
      <trkpt lat="48.56171" lon="-3.63262">
        <ele>93.6</ele>
        <time>2020-06-10T14:38:22Z</time>
      </trkpt>
      <trkpt lat="48.56169" lon="-3.63258">
        <ele>93.7</ele>
        <time>2020-06-10T14:38:23Z</time>
      </trkpt>
      <trkpt lat="48.56166" lon="-3.63253">
        <ele>93.9</ele>
        <time>2020-06-10T14:38:24Z</time>
      </trkpt>
      <trkpt lat="48.56164" lon="-3.6325">
        <ele>94</ele>
        <time>2020-06-10T14:38:25Z</time>
      </trkpt>
      <trkpt lat="48.56162" lon="-3.63245">
        <ele>94.1</ele>
        <time>2020-06-10T14:38:26Z</time>
      </trkpt>
      <trkpt lat="48.5616" lon="-3.63241">
        <ele>94.3</ele>
        <time>2020-06-10T14:38:27Z</time>
      </trkpt>
      <trkpt lat="48.56158" lon="-3.63237">
        <ele>94.4</ele>
        <time>2020-06-10T14:38:28Z</time>
      </trkpt>
      <trkpt lat="48.56156" lon="-3.63232">
        <ele>94.5</ele>
        <time>2020-06-10T14:38:29Z</time>
      </trkpt>
      <trkpt lat="48.56154" lon="-3.63227">
        <ele>94.6</ele>
        <time>2020-06-10T14:38:30Z</time>
      </trkpt>
      <trkpt lat="48.56151" lon="-3.63221">
        <ele>94.8</ele>
        <time>2020-06-10T14:38:31Z</time>
      </trkpt>
      <trkpt lat="48.56149" lon="-3.63217">
        <ele>94.9</ele>
        <time>2020-06-10T14:38:32Z</time>
      </trkpt>
      <trkpt lat="48.56147" lon="-3.63213">
        <ele>95</ele>
        <time>2020-06-10T14:38:33Z</time>
      </trkpt>
      <trkpt lat="48.56145" lon="-3.63208">
        <ele>95.1</ele>
        <time>2020-06-10T14:38:34Z</time>
      </trkpt>
      <trkpt lat="48.56143" lon="-3.63204">
        <ele>95.2</ele>
        <time>2020-06-10T14:38:35Z</time>
      </trkpt>
      <trkpt lat="48.5614" lon="-3.63198">
        <ele>95.3</ele>
        <time>2020-06-10T14:38:36Z</time>
      </trkpt>
      <trkpt lat="48.56138" lon="-3.63195">
        <ele>95.4</ele>
        <time>2020-06-10T14:38:37Z</time>
      </trkpt>
      <trkpt lat="48.56135" lon="-3.63189">
        <ele>95.6</ele>
        <time>2020-06-10T14:38:38Z</time>
      </trkpt>
      <trkpt lat="48.56132" lon="-3.63185">
        <ele>95.7</ele>
        <time>2020-06-10T14:38:39Z</time>
      </trkpt>
      <trkpt lat="48.5613" lon="-3.6318">
        <ele>95.8</ele>
        <time>2020-06-10T14:38:40Z</time>
      </trkpt>
      <trkpt lat="48.56128" lon="-3.63174">
        <ele>96</ele>
        <time>2020-06-10T14:38:41Z</time>
      </trkpt>
      <trkpt lat="48.56126" lon="-3.63169">
        <ele>96.1</ele>
        <time>2020-06-10T14:38:42Z</time>
      </trkpt>
      <trkpt lat="48.56124" lon="-3.63165">
        <ele>96.2</ele>
        <time>2020-06-10T14:38:43Z</time>
      </trkpt>
      <trkpt lat="48.56122" lon="-3.6316">
        <ele>96.3</ele>
        <time>2020-06-10T14:38:44Z</time>
      </trkpt>
      <trkpt lat="48.56119" lon="-3.63153">
        <ele>96.5</ele>
        <time>2020-06-10T14:38:45Z</time>
      </trkpt>
      <trkpt lat="48.56117" lon="-3.63147">
        <ele>96.6</ele>
        <time>2020-06-10T14:38:46Z</time>
      </trkpt>
      <trkpt lat="48.56114" lon="-3.63139">
        <ele>96.8</ele>
        <time>2020-06-10T14:38:47Z</time>
      </trkpt>
      <trkpt lat="48.56111" lon="-3.63133">
        <ele>97</ele>
        <time>2020-06-10T14:38:48Z</time>
      </trkpt>
      <trkpt lat="48.56109" lon="-3.63128">
        <ele>97.1</ele>
        <time>2020-06-10T14:38:49Z</time>
      </trkpt>
      <trkpt lat="48.56107" lon="-3.63125">
        <ele>97.3</ele>
        <time>2020-06-10T14:38:50Z</time>
      </trkpt>
      <trkpt lat="48.56105" lon="-3.63121">
        <ele>97.4</ele>
        <time>2020-06-10T14:38:51Z</time>
      </trkpt>
      <trkpt lat="48.56102" lon="-3.63115">
        <ele>97.6</ele>
        <time>2020-06-10T14:38:52Z</time>
      </trkpt>
      <trkpt lat="48.561" lon="-3.63112">
        <ele>97.7</ele>
        <time>2020-06-10T14:38:53Z</time>
      </trkpt>
      <trkpt lat="48.56099" lon="-3.63107">
        <ele>97.8</ele>
        <time>2020-06-10T14:38:54Z</time>
      </trkpt>
      <trkpt lat="48.56096" lon="-3.63101">
        <ele>98</ele>
        <time>2020-06-10T14:38:55Z</time>
      </trkpt>
      <trkpt lat="48.56096" lon="-3.63099">
        <ele>98.1</ele>
        <time>2020-06-10T14:38:56Z</time>
      </trkpt>
      <trkpt lat="48.56094" lon="-3.63095">
        <ele>98.2</ele>
        <time>2020-06-10T14:38:57Z</time>
      </trkpt>
      <trkpt lat="48.56091" lon="-3.6309">
        <ele>98.4</ele>
        <time>2020-06-10T14:38:58Z</time>
      </trkpt>
      <trkpt lat="48.56088" lon="-3.63085">
        <ele>98.5</ele>
        <time>2020-06-10T14:38:59Z</time>
      </trkpt>
      <trkpt lat="48.56086" lon="-3.63082">
        <ele>98.6</ele>
        <time>2020-06-10T14:39:00Z</time>
      </trkpt>
      <trkpt lat="48.56084" lon="-3.63077">
        <ele>98.8</ele>
        <time>2020-06-10T14:39:01Z</time>
      </trkpt>
      <trkpt lat="48.56081" lon="-3.6307">
        <ele>99</ele>
        <time>2020-06-10T14:39:02Z</time>
      </trkpt>
      <trkpt lat="48.56079" lon="-3.63064">
        <ele>99.2</ele>
        <time>2020-06-10T14:39:03Z</time>
      </trkpt>
      <trkpt lat="48.56076" lon="-3.63057">
        <ele>99.4</ele>
        <time>2020-06-10T14:39:04Z</time>
      </trkpt>
      <trkpt lat="48.56074" lon="-3.63053">
        <ele>99.5</ele>
        <time>2020-06-10T14:39:05Z</time>
      </trkpt>
      <trkpt lat="48.56072" lon="-3.63048">
        <ele>99.7</ele>
        <time>2020-06-10T14:39:06Z</time>
      </trkpt>
      <trkpt lat="48.56071" lon="-3.63042">
        <ele>99.9</ele>
        <time>2020-06-10T14:39:07Z</time>
      </trkpt>
      <trkpt lat="48.56069" lon="-3.63038">
        <ele>100</ele>
        <time>2020-06-10T14:39:08Z</time>
      </trkpt>
      <trkpt lat="48.56067" lon="-3.63031">
        <ele>100.2</ele>
        <time>2020-06-10T14:39:09Z</time>
      </trkpt>
      <trkpt lat="48.56066" lon="-3.63026">
        <ele>100.4</ele>
        <time>2020-06-10T14:39:10Z</time>
      </trkpt>
      <trkpt lat="48.56064" lon="-3.6302">
        <ele>100.6</ele>
        <time>2020-06-10T14:39:11Z</time>
      </trkpt>
      <trkpt lat="48.56063" lon="-3.63014">
        <ele>100.7</ele>
        <time>2020-06-10T14:39:12Z</time>
      </trkpt>
      <trkpt lat="48.56063" lon="-3.63009">
        <ele>100.9</ele>
        <time>2020-06-10T14:39:13Z</time>
      </trkpt>
      <trkpt lat="48.56062" lon="-3.63003">
        <ele>101</ele>
        <time>2020-06-10T14:39:14Z</time>
      </trkpt>
      <trkpt lat="48.5606" lon="-3.62998">
        <ele>101.2</ele>
        <time>2020-06-10T14:39:15Z</time>
      </trkpt>
      <trkpt lat="48.56059" lon="-3.62994">
        <ele>101.3</ele>
        <time>2020-06-10T14:39:16Z</time>
      </trkpt>
      <trkpt lat="48.56058" lon="-3.62989">
        <ele>101.5</ele>
        <time>2020-06-10T14:39:17Z</time>
      </trkpt>
      <trkpt lat="48.56057" lon="-3.62983">
        <ele>101.7</ele>
        <time>2020-06-10T14:39:18Z</time>
      </trkpt>
      <trkpt lat="48.56055" lon="-3.62975">
        <ele>101.9</ele>
        <time>2020-06-10T14:39:19Z</time>
      </trkpt>
      <trkpt lat="48.56054" lon="-3.62967">
        <ele>102.2</ele>
        <time>2020-06-10T14:39:20Z</time>
      </trkpt>
      <trkpt lat="48.56053" lon="-3.62961">
        <ele>102.4</ele>
        <time>2020-06-10T14:39:21Z</time>
      </trkpt>
      <trkpt lat="48.56052" lon="-3.62957">
        <ele>102.5</ele>
        <time>2020-06-10T14:39:22Z</time>
      </trkpt>
      <trkpt lat="48.56052" lon="-3.62952">
        <ele>102.7</ele>
        <time>2020-06-10T14:39:23Z</time>
      </trkpt>
      <trkpt lat="48.56051" lon="-3.62946">
        <ele>102.8</ele>
        <time>2020-06-10T14:39:24Z</time>
      </trkpt>
      <trkpt lat="48.5605" lon="-3.6294">
        <ele>103</ele>
        <time>2020-06-10T14:39:25Z</time>
      </trkpt>
      <trkpt lat="48.56049" lon="-3.62934">
        <ele>103.2</ele>
        <time>2020-06-10T14:39:26Z</time>
      </trkpt>
      <trkpt lat="48.56049" lon="-3.62929">
        <ele>103.3</ele>
        <time>2020-06-10T14:39:27Z</time>
      </trkpt>
      <trkpt lat="48.56048" lon="-3.62923">
        <ele>103.5</ele>
        <time>2020-06-10T14:39:28Z</time>
      </trkpt>
      <trkpt lat="48.56047" lon="-3.62918">
        <ele>103.6</ele>
        <time>2020-06-10T14:39:29Z</time>
      </trkpt>
      <trkpt lat="48.56046" lon="-3.62914">
        <ele>103.8</ele>
        <time>2020-06-10T14:39:30Z</time>
      </trkpt>
      <trkpt lat="48.56045" lon="-3.62908">
        <ele>104</ele>
        <time>2020-06-10T14:39:31Z</time>
      </trkpt>
      <trkpt lat="48.56045" lon="-3.62902">
        <ele>104.2</ele>
        <time>2020-06-10T14:39:32Z</time>
      </trkpt>
      <trkpt lat="48.56045" lon="-3.62898">
        <ele>104.3</ele>
        <time>2020-06-10T14:39:33Z</time>
      </trkpt>
      <trkpt lat="48.56046" lon="-3.6289">
        <ele>104.6</ele>
        <time>2020-06-10T14:39:34Z</time>
      </trkpt>
      <trkpt lat="48.56046" lon="-3.62886">
        <ele>104.7</ele>
        <time>2020-06-10T14:39:35Z</time>
      </trkpt>
      <trkpt lat="48.56047" lon="-3.6288">
        <ele>104.9</ele>
        <time>2020-06-10T14:39:36Z</time>
      </trkpt>
      <trkpt lat="48.56047" lon="-3.62874">
        <ele>105.1</ele>
        <time>2020-06-10T14:39:37Z</time>
      </trkpt>
      <trkpt lat="48.56048" lon="-3.62868">
        <ele>105.3</ele>
        <time>2020-06-10T14:39:38Z</time>
      </trkpt>
      <trkpt lat="48.56048" lon="-3.62864">
        <ele>105.4</ele>
        <time>2020-06-10T14:39:39Z</time>
      </trkpt>
      <trkpt lat="48.56049" lon="-3.62859">
        <ele>105.6</ele>
        <time>2020-06-10T14:39:40Z</time>
      </trkpt>
      <trkpt lat="48.5605" lon="-3.62854">
        <ele>105.7</ele>
        <time>2020-06-10T14:39:41Z</time>
      </trkpt>
      <trkpt lat="48.5605" lon="-3.62847">
        <ele>105.9</ele>
        <time>2020-06-10T14:39:42Z</time>
      </trkpt>
      <trkpt lat="48.5605" lon="-3.6284">
        <ele>106.1</ele>
        <time>2020-06-10T14:39:43Z</time>
      </trkpt>
      <trkpt lat="48.56051" lon="-3.62833">
        <ele>106.4</ele>
        <time>2020-06-10T14:39:44Z</time>
      </trkpt>
      <trkpt lat="48.56052" lon="-3.62827">
        <ele>106.6</ele>
        <time>2020-06-10T14:39:45Z</time>
      </trkpt>
      <trkpt lat="48.56051" lon="-3.62821">
        <ele>106.7</ele>
        <time>2020-06-10T14:39:46Z</time>
      </trkpt>
      <trkpt lat="48.56052" lon="-3.62818">
        <ele>106.8</ele>
        <time>2020-06-10T14:39:47Z</time>
      </trkpt>
      <trkpt lat="48.56053" lon="-3.62811">
        <ele>107</ele>
        <time>2020-06-10T14:39:48Z</time>
      </trkpt>
      <trkpt lat="48.56054" lon="-3.62806">
        <ele>107.2</ele>
        <time>2020-06-10T14:39:49Z</time>
      </trkpt>
      <trkpt lat="48.56054" lon="-3.628">
        <ele>107.3</ele>
        <time>2020-06-10T14:39:50Z</time>
      </trkpt>
      <trkpt lat="48.56055" lon="-3.62795">
        <ele>107.5</ele>
        <time>2020-06-10T14:39:51Z</time>
      </trkpt>
      <trkpt lat="48.56056" lon="-3.62789">
        <ele>107.7</ele>
        <time>2020-06-10T14:39:52Z</time>
      </trkpt>
      <trkpt lat="48.56056" lon="-3.62784">
        <ele>107.9</ele>
        <time>2020-06-10T14:39:53Z</time>
      </trkpt>
      <trkpt lat="48.56057" lon="-3.62781">
        <ele>108</ele>
        <time>2020-06-10T14:39:54Z</time>
      </trkpt>
      <trkpt lat="48.56057" lon="-3.62777">
        <ele>108.1</ele>
        <time>2020-06-10T14:39:55Z</time>
      </trkpt>
      <trkpt lat="48.56059" lon="-3.62772">
        <ele>108.3</ele>
        <time>2020-06-10T14:39:56Z</time>
      </trkpt>
      <trkpt lat="48.5606" lon="-3.62767">
        <ele>108.4</ele>
        <time>2020-06-10T14:39:57Z</time>
      </trkpt>
      <trkpt lat="48.56061" lon="-3.62762">
        <ele>108.6</ele>
        <time>2020-06-10T14:39:58Z</time>
      </trkpt>
      <trkpt lat="48.56064" lon="-3.62756">
        <ele>108.9</ele>
        <time>2020-06-10T14:39:59Z</time>
      </trkpt>
      <trkpt lat="48.56064" lon="-3.62752">
        <ele>109</ele>
        <time>2020-06-10T14:40:00Z</time>
      </trkpt>
      <trkpt lat="48.56066" lon="-3.62746">
        <ele>109.2</ele>
        <time>2020-06-10T14:40:01Z</time>
      </trkpt>
      <trkpt lat="48.56067" lon="-3.62741">
        <ele>109.4</ele>
        <time>2020-06-10T14:40:02Z</time>
      </trkpt>
      <trkpt lat="48.56069" lon="-3.62734">
        <ele>109.6</ele>
        <time>2020-06-10T14:40:03Z</time>
      </trkpt>
      <trkpt lat="48.5607" lon="-3.62728">
        <ele>109.8</ele>
        <time>2020-06-10T14:40:04Z</time>
      </trkpt>
      <trkpt lat="48.56071" lon="-3.62722">
        <ele>110</ele>
        <time>2020-06-10T14:40:05Z</time>
      </trkpt>
      <trkpt lat="48.56072" lon="-3.62716">
        <ele>110.3</ele>
        <time>2020-06-10T14:40:06Z</time>
      </trkpt>
      <trkpt lat="48.56073" lon="-3.6271">
        <ele>110.6</ele>
        <time>2020-06-10T14:40:07Z</time>
      </trkpt>
      <trkpt lat="48.56075" lon="-3.62705">
        <ele>110.8</ele>
        <time>2020-06-10T14:40:08Z</time>
      </trkpt>
      <trkpt lat="48.56077" lon="-3.62701">
        <ele>111</ele>
        <time>2020-06-10T14:40:09Z</time>
      </trkpt>
      <trkpt lat="48.56079" lon="-3.62696">
        <ele>111.3</ele>
        <time>2020-06-10T14:40:10Z</time>
      </trkpt>
      <trkpt lat="48.56081" lon="-3.62692">
        <ele>111.5</ele>
        <time>2020-06-10T14:40:11Z</time>
      </trkpt>
      <trkpt lat="48.56082" lon="-3.62689">
        <ele>111.6</ele>
        <time>2020-06-10T14:40:12Z</time>
      </trkpt>
      <trkpt lat="48.56083" lon="-3.62685">
        <ele>111.7</ele>
        <time>2020-06-10T14:40:13Z</time>
      </trkpt>
      <trkpt lat="48.56085" lon="-3.62681">
        <ele>111.9</ele>
        <time>2020-06-10T14:40:14Z</time>
      </trkpt>
      <trkpt lat="48.56087" lon="-3.62676">
        <ele>112.1</ele>
        <time>2020-06-10T14:40:15Z</time>
      </trkpt>
      <trkpt lat="48.56088" lon="-3.62671">
        <ele>112.2</ele>
        <time>2020-06-10T14:40:16Z</time>
      </trkpt>
      <trkpt lat="48.56091" lon="-3.62666">
        <ele>112.4</ele>
        <time>2020-06-10T14:40:17Z</time>
      </trkpt>
      <trkpt lat="48.56093" lon="-3.6266">
        <ele>112.6</ele>
        <time>2020-06-10T14:40:18Z</time>
      </trkpt>
      <trkpt lat="48.56095" lon="-3.62655">
        <ele>112.9</ele>
        <time>2020-06-10T14:40:19Z</time>
      </trkpt>
      <trkpt lat="48.56098" lon="-3.62649">
        <ele>113.1</ele>
        <time>2020-06-10T14:40:20Z</time>
      </trkpt>
      <trkpt lat="48.56099" lon="-3.62643">
        <ele>113.3</ele>
        <time>2020-06-10T14:40:21Z</time>
      </trkpt>
      <trkpt lat="48.56101" lon="-3.62638">
        <ele>113.5</ele>
        <time>2020-06-10T14:40:22Z</time>
      </trkpt>
      <trkpt lat="48.56102" lon="-3.62636">
        <ele>113.6</ele>
        <time>2020-06-10T14:40:23Z</time>
      </trkpt>
      <trkpt lat="48.56104" lon="-3.62631">
        <ele>113.8</ele>
        <time>2020-06-10T14:40:24Z</time>
      </trkpt>
      <trkpt lat="48.56106" lon="-3.62625">
        <ele>113.9</ele>
        <time>2020-06-10T14:40:25Z</time>
      </trkpt>
      <trkpt lat="48.56108" lon="-3.62621">
        <ele>114.1</ele>
        <time>2020-06-10T14:40:26Z</time>
      </trkpt>
      <trkpt lat="48.5611" lon="-3.62617">
        <ele>114.3</ele>
        <time>2020-06-10T14:40:27Z</time>
      </trkpt>
      <trkpt lat="48.56113" lon="-3.62612">
        <ele>114.5</ele>
        <time>2020-06-10T14:40:28Z</time>
      </trkpt>
      <trkpt lat="48.56114" lon="-3.62608">
        <ele>114.7</ele>
        <time>2020-06-10T14:40:29Z</time>
      </trkpt>
      <trkpt lat="48.56116" lon="-3.62603">
        <ele>114.9</ele>
        <time>2020-06-10T14:40:30Z</time>
      </trkpt>
      <trkpt lat="48.56118" lon="-3.62597">
        <ele>115.1</ele>
        <time>2020-06-10T14:40:31Z</time>
      </trkpt>
      <trkpt lat="48.56121" lon="-3.62592">
        <ele>115.3</ele>
        <time>2020-06-10T14:40:32Z</time>
      </trkpt>
      <trkpt lat="48.56124" lon="-3.62586">
        <ele>115.6</ele>
        <time>2020-06-10T14:40:33Z</time>
      </trkpt>
      <trkpt lat="48.56125" lon="-3.62583">
        <ele>115.7</ele>
        <time>2020-06-10T14:40:34Z</time>
      </trkpt>
      <trkpt lat="48.56128" lon="-3.62579">
        <ele>115.9</ele>
        <time>2020-06-10T14:40:35Z</time>
      </trkpt>
      <trkpt lat="48.5613" lon="-3.62574">
        <ele>116.1</ele>
        <time>2020-06-10T14:40:36Z</time>
      </trkpt>
      <trkpt lat="48.56133" lon="-3.62568">
        <ele>116.3</ele>
        <time>2020-06-10T14:40:37Z</time>
      </trkpt>
      <trkpt lat="48.56135" lon="-3.62563">
        <ele>116.5</ele>
        <time>2020-06-10T14:40:38Z</time>
      </trkpt>
      <trkpt lat="48.56137" lon="-3.62559">
        <ele>116.7</ele>
        <time>2020-06-10T14:40:39Z</time>
      </trkpt>
      <trkpt lat="48.56139" lon="-3.62554">
        <ele>116.9</ele>
        <time>2020-06-10T14:40:40Z</time>
      </trkpt>
      <trkpt lat="48.56142" lon="-3.62549">
        <ele>117.1</ele>
        <time>2020-06-10T14:40:41Z</time>
      </trkpt>
      <trkpt lat="48.56144" lon="-3.62546">
        <ele>117.3</ele>
        <time>2020-06-10T14:40:42Z</time>
      </trkpt>
      <trkpt lat="48.56145" lon="-3.62542">
        <ele>117.4</ele>
        <time>2020-06-10T14:40:43Z</time>
      </trkpt>
      <trkpt lat="48.56147" lon="-3.62538">
        <ele>117.6</ele>
        <time>2020-06-10T14:40:44Z</time>
      </trkpt>
      <trkpt lat="48.56149" lon="-3.62534">
        <ele>117.7</ele>
        <time>2020-06-10T14:40:45Z</time>
      </trkpt>
      <trkpt lat="48.56151" lon="-3.62529">
        <ele>117.9</ele>
        <time>2020-06-10T14:40:46Z</time>
      </trkpt>
      <trkpt lat="48.56153" lon="-3.62525">
        <ele>118</ele>
        <time>2020-06-10T14:40:47Z</time>
      </trkpt>
      <trkpt lat="48.56155" lon="-3.6252">
        <ele>118.2</ele>
        <time>2020-06-10T14:40:48Z</time>
      </trkpt>
      <trkpt lat="48.56158" lon="-3.62514">
        <ele>118.4</ele>
        <time>2020-06-10T14:40:49Z</time>
      </trkpt>
      <trkpt lat="48.5616" lon="-3.62509">
        <ele>118.6</ele>
        <time>2020-06-10T14:40:50Z</time>
      </trkpt>
      <trkpt lat="48.56162" lon="-3.62504">
        <ele>118.8</ele>
        <time>2020-06-10T14:40:51Z</time>
      </trkpt>
      <trkpt lat="48.56165" lon="-3.625">
        <ele>118.9</ele>
        <time>2020-06-10T14:40:52Z</time>
      </trkpt>
      <trkpt lat="48.56167" lon="-3.62495">
        <ele>119.1</ele>
        <time>2020-06-10T14:40:53Z</time>
      </trkpt>
      <trkpt lat="48.56169" lon="-3.62492">
        <ele>119.2</ele>
        <time>2020-06-10T14:40:54Z</time>
      </trkpt>
      <trkpt lat="48.56172" lon="-3.62486">
        <ele>119.5</ele>
        <time>2020-06-10T14:40:55Z</time>
      </trkpt>
      <trkpt lat="48.56173" lon="-3.62482">
        <ele>119.6</ele>
        <time>2020-06-10T14:40:56Z</time>
      </trkpt>
      <trkpt lat="48.56175" lon="-3.62477">
        <ele>119.8</ele>
        <time>2020-06-10T14:40:57Z</time>
      </trkpt>
      <trkpt lat="48.56177" lon="-3.62474">
        <ele>119.9</ele>
        <time>2020-06-10T14:40:58Z</time>
      </trkpt>
      <trkpt lat="48.5618" lon="-3.62469">
        <ele>120.1</ele>
        <time>2020-06-10T14:40:59Z</time>
      </trkpt>
      <trkpt lat="48.56182" lon="-3.62465">
        <ele>120.3</ele>
        <time>2020-06-10T14:41:00Z</time>
      </trkpt>
      <trkpt lat="48.56184" lon="-3.62461">
        <ele>120.4</ele>
        <time>2020-06-10T14:41:01Z</time>
      </trkpt>
      <trkpt lat="48.56185" lon="-3.62457">
        <ele>120.6</ele>
        <time>2020-06-10T14:41:02Z</time>
      </trkpt>
      <trkpt lat="48.56186" lon="-3.62453">
        <ele>120.7</ele>
        <time>2020-06-10T14:41:03Z</time>
      </trkpt>
      <trkpt lat="48.56188" lon="-3.62449">
        <ele>120.9</ele>
        <time>2020-06-10T14:41:04Z</time>
      </trkpt>
      <trkpt lat="48.56189" lon="-3.62444">
        <ele>121</ele>
        <time>2020-06-10T14:41:05Z</time>
      </trkpt>
      <trkpt lat="48.56193" lon="-3.62439">
        <ele>121.2</ele>
        <time>2020-06-10T14:41:06Z</time>
      </trkpt>
      <trkpt lat="48.56195" lon="-3.62436">
        <ele>121.4</ele>
        <time>2020-06-10T14:41:07Z</time>
      </trkpt>
      <trkpt lat="48.56197" lon="-3.62431">
        <ele>121.6</ele>
        <time>2020-06-10T14:41:08Z</time>
      </trkpt>
      <trkpt lat="48.56199" lon="-3.62426">
        <ele>121.7</ele>
        <time>2020-06-10T14:41:09Z</time>
      </trkpt>
      <trkpt lat="48.562" lon="-3.62422">
        <ele>121.9</ele>
        <time>2020-06-10T14:41:10Z</time>
      </trkpt>
      <trkpt lat="48.56202" lon="-3.62418">
        <ele>122</ele>
        <time>2020-06-10T14:41:11Z</time>
      </trkpt>
      <trkpt lat="48.56203" lon="-3.62414">
        <ele>122.2</ele>
        <time>2020-06-10T14:41:12Z</time>
      </trkpt>
      <trkpt lat="48.56204" lon="-3.62409">
        <ele>122.3</ele>
        <time>2020-06-10T14:41:13Z</time>
      </trkpt>
      <trkpt lat="48.56206" lon="-3.62404">
        <ele>122.5</ele>
        <time>2020-06-10T14:41:14Z</time>
      </trkpt>
      <trkpt lat="48.56208" lon="-3.62396">
        <ele>122.8</ele>
        <time>2020-06-10T14:41:15Z</time>
      </trkpt>
      <trkpt lat="48.56211" lon="-3.62391">
        <ele>123</ele>
        <time>2020-06-10T14:41:16Z</time>
      </trkpt>
      <trkpt lat="48.56213" lon="-3.62386">
        <ele>123.3</ele>
        <time>2020-06-10T14:41:17Z</time>
      </trkpt>
      <trkpt lat="48.56216" lon="-3.62382">
        <ele>123.5</ele>
        <time>2020-06-10T14:41:18Z</time>
      </trkpt>
      <trkpt lat="48.56218" lon="-3.62378">
        <ele>123.6</ele>
        <time>2020-06-10T14:41:19Z</time>
      </trkpt>
      <trkpt lat="48.5622" lon="-3.62374">
        <ele>123.8</ele>
        <time>2020-06-10T14:41:20Z</time>
      </trkpt>
      <trkpt lat="48.56222" lon="-3.62368">
        <ele>124</ele>
        <time>2020-06-10T14:41:21Z</time>
      </trkpt>
      <trkpt lat="48.56223" lon="-3.62363">
        <ele>124.2</ele>
        <time>2020-06-10T14:41:22Z</time>
      </trkpt>
      <trkpt lat="48.56224" lon="-3.62359">
        <ele>124.3</ele>
        <time>2020-06-10T14:41:23Z</time>
      </trkpt>
      <trkpt lat="48.56225" lon="-3.62354">
        <ele>124.4</ele>
        <time>2020-06-10T14:41:24Z</time>
      </trkpt>
      <trkpt lat="48.56226" lon="-3.62349">
        <ele>124.6</ele>
        <time>2020-06-10T14:41:25Z</time>
      </trkpt>
      <trkpt lat="48.56226" lon="-3.62342">
        <ele>124.8</ele>
        <time>2020-06-10T14:41:26Z</time>
      </trkpt>
      <trkpt lat="48.56227" lon="-3.62336">
        <ele>125</ele>
        <time>2020-06-10T14:41:27Z</time>
      </trkpt>
      <trkpt lat="48.56227" lon="-3.6233">
        <ele>125.2</ele>
        <time>2020-06-10T14:41:28Z</time>
      </trkpt>
      <trkpt lat="48.56228" lon="-3.62323">
        <ele>125.4</ele>
        <time>2020-06-10T14:41:29Z</time>
      </trkpt>
      <trkpt lat="48.56229" lon="-3.6232">
        <ele>125.5</ele>
        <time>2020-06-10T14:41:30Z</time>
      </trkpt>
      <trkpt lat="48.56229" lon="-3.62315">
        <ele>125.7</ele>
        <time>2020-06-10T14:41:31Z</time>
      </trkpt>
      <trkpt lat="48.5623" lon="-3.62309">
        <ele>125.9</ele>
        <time>2020-06-10T14:41:32Z</time>
      </trkpt>
      <trkpt lat="48.5623" lon="-3.62304">
        <ele>126.1</ele>
        <time>2020-06-10T14:41:33Z</time>
      </trkpt>
      <trkpt lat="48.56231" lon="-3.62298">
        <ele>126.3</ele>
        <time>2020-06-10T14:41:34Z</time>
      </trkpt>
      <trkpt lat="48.56231" lon="-3.62291">
        <ele>126.5</ele>
        <time>2020-06-10T14:41:35Z</time>
      </trkpt>
      <trkpt lat="48.56232" lon="-3.62283">
        <ele>126.8</ele>
        <time>2020-06-10T14:41:36Z</time>
      </trkpt>
      <trkpt lat="48.56232" lon="-3.62278">
        <ele>127</ele>
        <time>2020-06-10T14:41:37Z</time>
      </trkpt>
      <trkpt lat="48.56233" lon="-3.62272">
        <ele>127.3</ele>
        <time>2020-06-10T14:41:38Z</time>
      </trkpt>
      <trkpt lat="48.56233" lon="-3.6227">
        <ele>127.3</ele>
        <time>2020-06-10T14:41:39Z</time>
      </trkpt>
      <trkpt lat="48.56233" lon="-3.62263">
        <ele>127.6</ele>
        <time>2020-06-10T14:41:40Z</time>
      </trkpt>
      <trkpt lat="48.56232" lon="-3.6226">
        <ele>127.7</ele>
        <time>2020-06-10T14:41:41Z</time>
      </trkpt>
      <trkpt lat="48.56232" lon="-3.62253">
        <ele>128</ele>
        <time>2020-06-10T14:41:42Z</time>
      </trkpt>
      <trkpt lat="48.56231" lon="-3.62246">
        <ele>128.2</ele>
        <time>2020-06-10T14:41:43Z</time>
      </trkpt>
      <trkpt lat="48.5623" lon="-3.62241">
        <ele>128.4</ele>
        <time>2020-06-10T14:41:44Z</time>
      </trkpt>
      <trkpt lat="48.56231" lon="-3.62236">
        <ele>128.6</ele>
        <time>2020-06-10T14:41:45Z</time>
      </trkpt>
      <trkpt lat="48.56231" lon="-3.62231">
        <ele>128.8</ele>
        <time>2020-06-10T14:41:46Z</time>
      </trkpt>
      <trkpt lat="48.56231" lon="-3.62224">
        <ele>129</ele>
        <time>2020-06-10T14:41:47Z</time>
      </trkpt>
      <trkpt lat="48.5623" lon="-3.62219">
        <ele>129.3</ele>
        <time>2020-06-10T14:41:48Z</time>
      </trkpt>
      <trkpt lat="48.56229" lon="-3.62214">
        <ele>129.5</ele>
        <time>2020-06-10T14:41:49Z</time>
      </trkpt>
      <trkpt lat="48.56227" lon="-3.62208">
        <ele>129.6</ele>
        <time>2020-06-10T14:41:50Z</time>
      </trkpt>
      <trkpt lat="48.56227" lon="-3.62203">
        <ele>129.8</ele>
        <time>2020-06-10T14:41:51Z</time>
      </trkpt>
      <trkpt lat="48.56226" lon="-3.62197">
        <ele>130</ele>
        <time>2020-06-10T14:41:52Z</time>
      </trkpt>
      <trkpt lat="48.56226" lon="-3.62194">
        <ele>130.1</ele>
        <time>2020-06-10T14:41:53Z</time>
      </trkpt>
      <trkpt lat="48.56227" lon="-3.62189">
        <ele>130.2</ele>
        <time>2020-06-10T14:41:54Z</time>
      </trkpt>
      <trkpt lat="48.56226" lon="-3.62183">
        <ele>130.4</ele>
        <time>2020-06-10T14:41:55Z</time>
      </trkpt>
      <trkpt lat="48.56225" lon="-3.62177">
        <ele>130.6</ele>
        <time>2020-06-10T14:41:56Z</time>
      </trkpt>
      <trkpt lat="48.56226" lon="-3.62171">
        <ele>130.9</ele>
        <time>2020-06-10T14:41:57Z</time>
      </trkpt>
      <trkpt lat="48.56226" lon="-3.62167">
        <ele>131</ele>
        <time>2020-06-10T14:41:58Z</time>
      </trkpt>
      <trkpt lat="48.56226" lon="-3.62163">
        <ele>131.1</ele>
        <time>2020-06-10T14:41:59Z</time>
      </trkpt>
      <trkpt lat="48.56226" lon="-3.62156">
        <ele>131.4</ele>
        <time>2020-06-10T14:42:00Z</time>
      </trkpt>
      <trkpt lat="48.56226" lon="-3.62154">
        <ele>131.5</ele>
        <time>2020-06-10T14:42:01Z</time>
      </trkpt>
      <trkpt lat="48.56225" lon="-3.62147">
        <ele>131.7</ele>
        <time>2020-06-10T14:42:02Z</time>
      </trkpt>
      <trkpt lat="48.56225" lon="-3.62142">
        <ele>131.9</ele>
        <time>2020-06-10T14:42:03Z</time>
      </trkpt>
      <trkpt lat="48.56225" lon="-3.62136">
        <ele>132.1</ele>
        <time>2020-06-10T14:42:04Z</time>
      </trkpt>
      <trkpt lat="48.56224" lon="-3.62129">
        <ele>132.3</ele>
        <time>2020-06-10T14:42:05Z</time>
      </trkpt>
      <trkpt lat="48.56223" lon="-3.62124">
        <ele>132.5</ele>
        <time>2020-06-10T14:42:06Z</time>
      </trkpt>
      <trkpt lat="48.56224" lon="-3.62118">
        <ele>132.7</ele>
        <time>2020-06-10T14:42:07Z</time>
      </trkpt>
      <trkpt lat="48.56223" lon="-3.62113">
        <ele>132.9</ele>
        <time>2020-06-10T14:42:08Z</time>
      </trkpt>
      <trkpt lat="48.56223" lon="-3.62107">
        <ele>133.1</ele>
        <time>2020-06-10T14:42:09Z</time>
      </trkpt>
      <trkpt lat="48.56222" lon="-3.62102">
        <ele>133.3</ele>
        <time>2020-06-10T14:42:10Z</time>
      </trkpt>
      <trkpt lat="48.56222" lon="-3.62096">
        <ele>133.5</ele>
        <time>2020-06-10T14:42:11Z</time>
      </trkpt>
      <trkpt lat="48.56222" lon="-3.6209">
        <ele>133.7</ele>
        <time>2020-06-10T14:42:12Z</time>
      </trkpt>
      <trkpt lat="48.56222" lon="-3.62084">
        <ele>133.9</ele>
        <time>2020-06-10T14:42:13Z</time>
      </trkpt>
      <trkpt lat="48.56222" lon="-3.62078">
        <ele>134.2</ele>
        <time>2020-06-10T14:42:14Z</time>
      </trkpt>
      <trkpt lat="48.56222" lon="-3.62072">
        <ele>134.4</ele>
        <time>2020-06-10T14:42:15Z</time>
      </trkpt>
      <trkpt lat="48.56223" lon="-3.62066">
        <ele>134.6</ele>
        <time>2020-06-10T14:42:16Z</time>
      </trkpt>
      <trkpt lat="48.56223" lon="-3.6206">
        <ele>134.8</ele>
        <time>2020-06-10T14:42:17Z</time>
      </trkpt>
      <trkpt lat="48.56223" lon="-3.62055">
        <ele>135</ele>
        <time>2020-06-10T14:42:18Z</time>
      </trkpt>
      <trkpt lat="48.56223" lon="-3.62049">
        <ele>135.2</ele>
        <time>2020-06-10T14:42:19Z</time>
      </trkpt>
      <trkpt lat="48.56223" lon="-3.62045">
        <ele>135.3</ele>
        <time>2020-06-10T14:42:20Z</time>
      </trkpt>
      <trkpt lat="48.56223" lon="-3.62039">
        <ele>135.5</ele>
        <time>2020-06-10T14:42:21Z</time>
      </trkpt>
      <trkpt lat="48.56224" lon="-3.62033">
        <ele>135.7</ele>
        <time>2020-06-10T14:42:22Z</time>
      </trkpt>
      <trkpt lat="48.56224" lon="-3.62028">
        <ele>135.9</ele>
        <time>2020-06-10T14:42:23Z</time>
      </trkpt>
      <trkpt lat="48.56224" lon="-3.62023">
        <ele>136</ele>
        <time>2020-06-10T14:42:24Z</time>
      </trkpt>
      <trkpt lat="48.56225" lon="-3.62017">
        <ele>136.3</ele>
        <time>2020-06-10T14:42:25Z</time>
      </trkpt>
      <trkpt lat="48.56226" lon="-3.62011">
        <ele>136.5</ele>
        <time>2020-06-10T14:42:26Z</time>
      </trkpt>
      <trkpt lat="48.56226" lon="-3.62005">
        <ele>136.6</ele>
        <time>2020-06-10T14:42:27Z</time>
      </trkpt>
      <trkpt lat="48.56227" lon="-3.62">
        <ele>136.8</ele>
        <time>2020-06-10T14:42:28Z</time>
      </trkpt>
      <trkpt lat="48.56228" lon="-3.61994">
        <ele>137</ele>
        <time>2020-06-10T14:42:29Z</time>
      </trkpt>
      <trkpt lat="48.56228" lon="-3.61989">
        <ele>137.1</ele>
        <time>2020-06-10T14:42:30Z</time>
      </trkpt>
      <trkpt lat="48.5623" lon="-3.61984">
        <ele>137.3</ele>
        <time>2020-06-10T14:42:31Z</time>
      </trkpt>
      <trkpt lat="48.56231" lon="-3.61979">
        <ele>137.4</ele>
        <time>2020-06-10T14:42:32Z</time>
      </trkpt>
      <trkpt lat="48.56231" lon="-3.61974">
        <ele>137.6</ele>
        <time>2020-06-10T14:42:33Z</time>
      </trkpt>
      <trkpt lat="48.56232" lon="-3.61968">
        <ele>137.8</ele>
        <time>2020-06-10T14:42:34Z</time>
      </trkpt>
      <trkpt lat="48.56234" lon="-3.61962">
        <ele>138</ele>
        <time>2020-06-10T14:42:35Z</time>
      </trkpt>
      <trkpt lat="48.56235" lon="-3.61957">
        <ele>138.1</ele>
        <time>2020-06-10T14:42:36Z</time>
      </trkpt>
      <trkpt lat="48.56239" lon="-3.61953">
        <ele>138.4</ele>
        <time>2020-06-10T14:42:37Z</time>
      </trkpt>
      <trkpt lat="48.56241" lon="-3.61948">
        <ele>138.6</ele>
        <time>2020-06-10T14:42:38Z</time>
      </trkpt>
      <trkpt lat="48.56242" lon="-3.61943">
        <ele>138.8</ele>
        <time>2020-06-10T14:42:39Z</time>
      </trkpt>
      <trkpt lat="48.56243" lon="-3.61938">
        <ele>138.9</ele>
        <time>2020-06-10T14:42:40Z</time>
      </trkpt>
      <trkpt lat="48.56245" lon="-3.61932">
        <ele>139.1</ele>
        <time>2020-06-10T14:42:41Z</time>
      </trkpt>
      <trkpt lat="48.56245" lon="-3.61927">
        <ele>139.3</ele>
        <time>2020-06-10T14:42:42Z</time>
      </trkpt>
      <trkpt lat="48.56247" lon="-3.61923">
        <ele>139.5</ele>
        <time>2020-06-10T14:42:43Z</time>
      </trkpt>
      <trkpt lat="48.56249" lon="-3.61918">
        <ele>139.6</ele>
        <time>2020-06-10T14:42:44Z</time>
      </trkpt>
      <trkpt lat="48.5625" lon="-3.61912">
        <ele>139.8</ele>
        <time>2020-06-10T14:42:45Z</time>
      </trkpt>
      <trkpt lat="48.56252" lon="-3.61908">
        <ele>140</ele>
        <time>2020-06-10T14:42:46Z</time>
      </trkpt>
      <trkpt lat="48.56255" lon="-3.61904">
        <ele>140.2</ele>
        <time>2020-06-10T14:42:47Z</time>
      </trkpt>
      <trkpt lat="48.56257" lon="-3.61899">
        <ele>140.4</ele>
        <time>2020-06-10T14:42:48Z</time>
      </trkpt>
      <trkpt lat="48.56258" lon="-3.61894">
        <ele>140.6</ele>
        <time>2020-06-10T14:42:49Z</time>
      </trkpt>
      <trkpt lat="48.5626" lon="-3.6189">
        <ele>140.7</ele>
        <time>2020-06-10T14:42:50Z</time>
      </trkpt>
      <trkpt lat="48.56261" lon="-3.61885">
        <ele>140.9</ele>
        <time>2020-06-10T14:42:51Z</time>
      </trkpt>
      <trkpt lat="48.56263" lon="-3.6188">
        <ele>141.1</ele>
        <time>2020-06-10T14:42:52Z</time>
      </trkpt>
      <trkpt lat="48.56265" lon="-3.61876">
        <ele>141.3</ele>
        <time>2020-06-10T14:42:53Z</time>
      </trkpt>
      <trkpt lat="48.56267" lon="-3.61871">
        <ele>141.4</ele>
        <time>2020-06-10T14:42:54Z</time>
      </trkpt>
      <trkpt lat="48.56268" lon="-3.61867">
        <ele>141.6</ele>
        <time>2020-06-10T14:42:55Z</time>
      </trkpt>
      <trkpt lat="48.56269" lon="-3.61863">
        <ele>141.7</ele>
        <time>2020-06-10T14:42:56Z</time>
      </trkpt>
      <trkpt lat="48.56271" lon="-3.61858">
        <ele>141.9</ele>
        <time>2020-06-10T14:42:57Z</time>
      </trkpt>
      <trkpt lat="48.56275" lon="-3.61853">
        <ele>142.1</ele>
        <time>2020-06-10T14:42:58Z</time>
      </trkpt>
      <trkpt lat="48.56278" lon="-3.61849">
        <ele>142.3</ele>
        <time>2020-06-10T14:42:59Z</time>
      </trkpt>
      <trkpt lat="48.56281" lon="-3.61843">
        <ele>142.6</ele>
        <time>2020-06-10T14:43:00Z</time>
      </trkpt>
      <trkpt lat="48.56284" lon="-3.61837">
        <ele>142.8</ele>
        <time>2020-06-10T14:43:01Z</time>
      </trkpt>
      <trkpt lat="48.56286" lon="-3.61832">
        <ele>143</ele>
        <time>2020-06-10T14:43:02Z</time>
      </trkpt>
      <trkpt lat="48.56287" lon="-3.61828">
        <ele>143.2</ele>
        <time>2020-06-10T14:43:03Z</time>
      </trkpt>
      <trkpt lat="48.5629" lon="-3.61824">
        <ele>143.4</ele>
        <time>2020-06-10T14:43:04Z</time>
      </trkpt>
      <trkpt lat="48.56292" lon="-3.6182">
        <ele>143.5</ele>
        <time>2020-06-10T14:43:05Z</time>
      </trkpt>
      <trkpt lat="48.56296" lon="-3.61815">
        <ele>143.8</ele>
        <time>2020-06-10T14:43:06Z</time>
      </trkpt>
      <trkpt lat="48.56298" lon="-3.6181">
        <ele>144</ele>
        <time>2020-06-10T14:43:07Z</time>
      </trkpt>
      <trkpt lat="48.56301" lon="-3.61805">
        <ele>144.2</ele>
        <time>2020-06-10T14:43:08Z</time>
      </trkpt>
      <trkpt lat="48.56305" lon="-3.61801">
        <ele>144.3</ele>
        <time>2020-06-10T14:43:09Z</time>
      </trkpt>
      <trkpt lat="48.56308" lon="-3.61798">
        <ele>144.5</ele>
        <time>2020-06-10T14:43:10Z</time>
      </trkpt>
      <trkpt lat="48.5631" lon="-3.61795">
        <ele>144.6</ele>
        <time>2020-06-10T14:43:11Z</time>
      </trkpt>
      <trkpt lat="48.56313" lon="-3.61791">
        <ele>144.8</ele>
        <time>2020-06-10T14:43:12Z</time>
      </trkpt>
      <trkpt lat="48.56316" lon="-3.61787">
        <ele>145</ele>
        <time>2020-06-10T14:43:13Z</time>
      </trkpt>
      <trkpt lat="48.56319" lon="-3.61785">
        <ele>145.1</ele>
        <time>2020-06-10T14:43:14Z</time>
      </trkpt>
      <trkpt lat="48.56321" lon="-3.61781">
        <ele>145.3</ele>
        <time>2020-06-10T14:43:15Z</time>
      </trkpt>
      <trkpt lat="48.56324" lon="-3.61778">
        <ele>145.5</ele>
        <time>2020-06-10T14:43:16Z</time>
      </trkpt>
      <trkpt lat="48.56327" lon="-3.61775">
        <ele>145.7</ele>
        <time>2020-06-10T14:43:17Z</time>
      </trkpt>
      <trkpt lat="48.5633" lon="-3.61771">
        <ele>145.9</ele>
        <time>2020-06-10T14:43:18Z</time>
      </trkpt>
      <trkpt lat="48.56334" lon="-3.61766">
        <ele>146.1</ele>
        <time>2020-06-10T14:43:19Z</time>
      </trkpt>
      <trkpt lat="48.56338" lon="-3.61761">
        <ele>146.3</ele>
        <time>2020-06-10T14:43:20Z</time>
      </trkpt>
      <trkpt lat="48.56342" lon="-3.61757">
        <ele>146.6</ele>
        <time>2020-06-10T14:43:21Z</time>
      </trkpt>
      <trkpt lat="48.56344" lon="-3.61753">
        <ele>146.8</ele>
        <time>2020-06-10T14:43:22Z</time>
      </trkpt>
      <trkpt lat="48.56347" lon="-3.6175">
        <ele>146.9</ele>
        <time>2020-06-10T14:43:23Z</time>
      </trkpt>
      <trkpt lat="48.5635" lon="-3.61748">
        <ele>147.1</ele>
        <time>2020-06-10T14:43:24Z</time>
      </trkpt>
      <trkpt lat="48.56352" lon="-3.61745">
        <ele>147.2</ele>
        <time>2020-06-10T14:43:25Z</time>
      </trkpt>
      <trkpt lat="48.56355" lon="-3.61742">
        <ele>147.4</ele>
        <time>2020-06-10T14:43:26Z</time>
      </trkpt>
      <trkpt lat="48.56358" lon="-3.61739">
        <ele>147.5</ele>
        <time>2020-06-10T14:43:27Z</time>
      </trkpt>
      <trkpt lat="48.56362" lon="-3.61736">
        <ele>147.7</ele>
        <time>2020-06-10T14:43:28Z</time>
      </trkpt>
      <trkpt lat="48.56365" lon="-3.61732">
        <ele>147.8</ele>
        <time>2020-06-10T14:43:29Z</time>
      </trkpt>
      <trkpt lat="48.56369" lon="-3.61729">
        <ele>148</ele>
        <time>2020-06-10T14:43:30Z</time>
      </trkpt>
      <trkpt lat="48.56373" lon="-3.61727">
        <ele>148.2</ele>
        <time>2020-06-10T14:43:31Z</time>
      </trkpt>
      <trkpt lat="48.56377" lon="-3.61724">
        <ele>148.4</ele>
        <time>2020-06-10T14:43:32Z</time>
      </trkpt>
      <trkpt lat="48.56381" lon="-3.61721">
        <ele>148.6</ele>
        <time>2020-06-10T14:43:33Z</time>
      </trkpt>
      <trkpt lat="48.56385" lon="-3.61718">
        <ele>148.7</ele>
        <time>2020-06-10T14:43:34Z</time>
      </trkpt>
      <trkpt lat="48.56389" lon="-3.61715">
        <ele>148.9</ele>
        <time>2020-06-10T14:43:35Z</time>
      </trkpt>
      <trkpt lat="48.56393" lon="-3.61711">
        <ele>149.1</ele>
        <time>2020-06-10T14:43:36Z</time>
      </trkpt>
      <trkpt lat="48.56396" lon="-3.61708">
        <ele>149.3</ele>
        <time>2020-06-10T14:43:37Z</time>
      </trkpt>
      <trkpt lat="48.56399" lon="-3.61704">
        <ele>149.4</ele>
        <time>2020-06-10T14:43:38Z</time>
      </trkpt>
      <trkpt lat="48.56402" lon="-3.61701">
        <ele>149.6</ele>
        <time>2020-06-10T14:43:39Z</time>
      </trkpt>
      <trkpt lat="48.56406" lon="-3.61698">
        <ele>149.7</ele>
        <time>2020-06-10T14:43:40Z</time>
      </trkpt>
      <trkpt lat="48.56409" lon="-3.61695">
        <ele>149.9</ele>
        <time>2020-06-10T14:43:41Z</time>
      </trkpt>
      <trkpt lat="48.56413" lon="-3.61693">
        <ele>150</ele>
        <time>2020-06-10T14:43:42Z</time>
      </trkpt>
      <trkpt lat="48.56417" lon="-3.6169">
        <ele>150.2</ele>
        <time>2020-06-10T14:43:43Z</time>
      </trkpt>
      <trkpt lat="48.5642" lon="-3.61687">
        <ele>150.3</ele>
        <time>2020-06-10T14:43:44Z</time>
      </trkpt>
      <trkpt lat="48.56423" lon="-3.61684">
        <ele>150.4</ele>
        <time>2020-06-10T14:43:45Z</time>
      </trkpt>
      <trkpt lat="48.56428" lon="-3.61681">
        <ele>150.6</ele>
        <time>2020-06-10T14:43:46Z</time>
      </trkpt>
      <trkpt lat="48.56432" lon="-3.61677">
        <ele>150.8</ele>
        <time>2020-06-10T14:43:47Z</time>
      </trkpt>
      <trkpt lat="48.56436" lon="-3.61674">
        <ele>151</ele>
        <time>2020-06-10T14:43:48Z</time>
      </trkpt>
      <trkpt lat="48.5644" lon="-3.61671">
        <ele>151.1</ele>
        <time>2020-06-10T14:43:49Z</time>
      </trkpt>
      <trkpt lat="48.56443" lon="-3.61668">
        <ele>151.3</ele>
        <time>2020-06-10T14:43:50Z</time>
      </trkpt>
      <trkpt lat="48.56446" lon="-3.61666">
        <ele>151.4</ele>
        <time>2020-06-10T14:43:51Z</time>
      </trkpt>
      <trkpt lat="48.5645" lon="-3.61662">
        <ele>151.5</ele>
        <time>2020-06-10T14:43:52Z</time>
      </trkpt>
      <trkpt lat="48.56453" lon="-3.6166">
        <ele>151.7</ele>
        <time>2020-06-10T14:43:53Z</time>
      </trkpt>
      <trkpt lat="48.56456" lon="-3.61657">
        <ele>151.8</ele>
        <time>2020-06-10T14:43:54Z</time>
      </trkpt>
      <trkpt lat="48.56458" lon="-3.61655">
        <ele>151.9</ele>
        <time>2020-06-10T14:43:55Z</time>
      </trkpt>
      <trkpt lat="48.56462" lon="-3.61651">
        <ele>152</ele>
        <time>2020-06-10T14:43:56Z</time>
      </trkpt>
      <trkpt lat="48.56465" lon="-3.61647">
        <ele>152.1</ele>
        <time>2020-06-10T14:43:57Z</time>
      </trkpt>
      <trkpt lat="48.56469" lon="-3.61643">
        <ele>152.3</ele>
        <time>2020-06-10T14:43:58Z</time>
      </trkpt>
      <trkpt lat="48.56473" lon="-3.61641">
        <ele>152.4</ele>
        <time>2020-06-10T14:43:59Z</time>
      </trkpt>
      <trkpt lat="48.56477" lon="-3.61638">
        <ele>152.6</ele>
        <time>2020-06-10T14:44:00Z</time>
      </trkpt>
      <trkpt lat="48.56481" lon="-3.61633">
        <ele>152.7</ele>
        <time>2020-06-10T14:44:01Z</time>
      </trkpt>
      <trkpt lat="48.56485" lon="-3.61629">
        <ele>152.9</ele>
        <time>2020-06-10T14:44:02Z</time>
      </trkpt>
      <trkpt lat="48.56489" lon="-3.61624">
        <ele>153.1</ele>
        <time>2020-06-10T14:44:03Z</time>
      </trkpt>
      <trkpt lat="48.56493" lon="-3.6162">
        <ele>153.3</ele>
        <time>2020-06-10T14:44:04Z</time>
      </trkpt>
      <trkpt lat="48.56497" lon="-3.61615">
        <ele>153.6</ele>
        <time>2020-06-10T14:44:05Z</time>
      </trkpt>
      <trkpt lat="48.565" lon="-3.61609">
        <ele>153.8</ele>
        <time>2020-06-10T14:44:06Z</time>
      </trkpt>
      <trkpt lat="48.56503" lon="-3.61604">
        <ele>153.9</ele>
        <time>2020-06-10T14:44:07Z</time>
      </trkpt>
      <trkpt lat="48.56506" lon="-3.61599">
        <ele>154.1</ele>
        <time>2020-06-10T14:44:08Z</time>
      </trkpt>
      <trkpt lat="48.56508" lon="-3.61593">
        <ele>154.3</ele>
        <time>2020-06-10T14:44:09Z</time>
      </trkpt>
      <trkpt lat="48.5651" lon="-3.61588">
        <ele>154.5</ele>
        <time>2020-06-10T14:44:10Z</time>
      </trkpt>
      <trkpt lat="48.56512" lon="-3.61582">
        <ele>154.6</ele>
        <time>2020-06-10T14:44:11Z</time>
      </trkpt>
      <trkpt lat="48.56514" lon="-3.61576">
        <ele>154.8</ele>
        <time>2020-06-10T14:44:12Z</time>
      </trkpt>
      <trkpt lat="48.56516" lon="-3.6157">
        <ele>155</ele>
        <time>2020-06-10T14:44:13Z</time>
      </trkpt>
      <trkpt lat="48.56517" lon="-3.61563">
        <ele>155.2</ele>
        <time>2020-06-10T14:44:14Z</time>
      </trkpt>
      <trkpt lat="48.56518" lon="-3.61556">
        <ele>155.4</ele>
        <time>2020-06-10T14:44:15Z</time>
      </trkpt>
      <trkpt lat="48.5652" lon="-3.61551">
        <ele>155.6</ele>
        <time>2020-06-10T14:44:16Z</time>
      </trkpt>
      <trkpt lat="48.56521" lon="-3.61545">
        <ele>155.8</ele>
        <time>2020-06-10T14:44:17Z</time>
      </trkpt>
      <trkpt lat="48.56523" lon="-3.6154">
        <ele>155.9</ele>
        <time>2020-06-10T14:44:18Z</time>
      </trkpt>
      <trkpt lat="48.56524" lon="-3.61534">
        <ele>156.1</ele>
        <time>2020-06-10T14:44:19Z</time>
      </trkpt>
      <trkpt lat="48.56525" lon="-3.61528">
        <ele>156.3</ele>
        <time>2020-06-10T14:44:20Z</time>
      </trkpt>
      <trkpt lat="48.56525" lon="-3.61522">
        <ele>156.5</ele>
        <time>2020-06-10T14:44:21Z</time>
      </trkpt>
      <trkpt lat="48.56524" lon="-3.61516">
        <ele>156.7</ele>
        <time>2020-06-10T14:44:22Z</time>
      </trkpt>
      <trkpt lat="48.56525" lon="-3.61511">
        <ele>156.8</ele>
        <time>2020-06-10T14:44:23Z</time>
      </trkpt>
      <trkpt lat="48.56525" lon="-3.61505">
        <ele>157</ele>
        <time>2020-06-10T14:44:24Z</time>
      </trkpt>
      <trkpt lat="48.56526" lon="-3.61499">
        <ele>157.2</ele>
        <time>2020-06-10T14:44:25Z</time>
      </trkpt>
      <trkpt lat="48.56526" lon="-3.61493">
        <ele>157.4</ele>
        <time>2020-06-10T14:44:26Z</time>
      </trkpt>
      <trkpt lat="48.56526" lon="-3.61487">
        <ele>157.6</ele>
        <time>2020-06-10T14:44:27Z</time>
      </trkpt>
      <trkpt lat="48.56527" lon="-3.61481">
        <ele>157.8</ele>
        <time>2020-06-10T14:44:28Z</time>
      </trkpt>
      <trkpt lat="48.56527" lon="-3.61476">
        <ele>157.9</ele>
        <time>2020-06-10T14:44:29Z</time>
      </trkpt>
      <trkpt lat="48.56528" lon="-3.6147">
        <ele>158.1</ele>
        <time>2020-06-10T14:44:30Z</time>
      </trkpt>
      <trkpt lat="48.56528" lon="-3.61464">
        <ele>158.3</ele>
        <time>2020-06-10T14:44:31Z</time>
      </trkpt>
      <trkpt lat="48.56529" lon="-3.61458">
        <ele>158.5</ele>
        <time>2020-06-10T14:44:32Z</time>
      </trkpt>
      <trkpt lat="48.5653" lon="-3.61452">
        <ele>158.7</ele>
        <time>2020-06-10T14:44:33Z</time>
      </trkpt>
      <trkpt lat="48.56531" lon="-3.61447">
        <ele>158.8</ele>
        <time>2020-06-10T14:44:34Z</time>
      </trkpt>
      <trkpt lat="48.56531" lon="-3.61441">
        <ele>159</ele>
        <time>2020-06-10T14:44:35Z</time>
      </trkpt>
      <trkpt lat="48.56532" lon="-3.61435">
        <ele>159.2</ele>
        <time>2020-06-10T14:44:36Z</time>
      </trkpt>
      <trkpt lat="48.56532" lon="-3.61429">
        <ele>159.4</ele>
        <time>2020-06-10T14:44:37Z</time>
      </trkpt>
      <trkpt lat="48.56533" lon="-3.61423">
        <ele>159.6</ele>
        <time>2020-06-10T14:44:38Z</time>
      </trkpt>
      <trkpt lat="48.56534" lon="-3.61417">
        <ele>159.7</ele>
        <time>2020-06-10T14:44:39Z</time>
      </trkpt>
      <trkpt lat="48.56534" lon="-3.61411">
        <ele>159.9</ele>
        <time>2020-06-10T14:44:40Z</time>
      </trkpt>
      <trkpt lat="48.56535" lon="-3.61404">
        <ele>160.1</ele>
        <time>2020-06-10T14:44:41Z</time>
      </trkpt>
      <trkpt lat="48.56536" lon="-3.61398">
        <ele>160.3</ele>
        <time>2020-06-10T14:44:42Z</time>
      </trkpt>
      <trkpt lat="48.56537" lon="-3.61392">
        <ele>160.5</ele>
        <time>2020-06-10T14:44:43Z</time>
      </trkpt>
      <trkpt lat="48.56538" lon="-3.61387">
        <ele>160.7</ele>
        <time>2020-06-10T14:44:44Z</time>
      </trkpt>
      <trkpt lat="48.56539" lon="-3.61381">
        <ele>160.8</ele>
        <time>2020-06-10T14:44:45Z</time>
      </trkpt>
      <trkpt lat="48.56539" lon="-3.61375">
        <ele>161</ele>
        <time>2020-06-10T14:44:46Z</time>
      </trkpt>
      <trkpt lat="48.5654" lon="-3.61369">
        <ele>161.2</ele>
        <time>2020-06-10T14:44:47Z</time>
      </trkpt>
      <trkpt lat="48.56541" lon="-3.61364">
        <ele>161.4</ele>
        <time>2020-06-10T14:44:48Z</time>
      </trkpt>
      <trkpt lat="48.56541" lon="-3.61358">
        <ele>161.5</ele>
        <time>2020-06-10T14:44:49Z</time>
      </trkpt>
      <trkpt lat="48.56542" lon="-3.61352">
        <ele>161.7</ele>
        <time>2020-06-10T14:44:50Z</time>
      </trkpt>
      <trkpt lat="48.56541" lon="-3.61345">
        <ele>161.9</ele>
        <time>2020-06-10T14:44:51Z</time>
      </trkpt>
      <trkpt lat="48.56542" lon="-3.61339">
        <ele>162.1</ele>
        <time>2020-06-10T14:44:52Z</time>
      </trkpt>
      <trkpt lat="48.56543" lon="-3.61333">
        <ele>162.3</ele>
        <time>2020-06-10T14:44:53Z</time>
      </trkpt>
      <trkpt lat="48.56543" lon="-3.61327">
        <ele>162.5</ele>
        <time>2020-06-10T14:44:54Z</time>
      </trkpt>
      <trkpt lat="48.56544" lon="-3.61322">
        <ele>162.7</ele>
        <time>2020-06-10T14:44:55Z</time>
      </trkpt>
      <trkpt lat="48.56545" lon="-3.61316">
        <ele>162.8</ele>
        <time>2020-06-10T14:44:56Z</time>
      </trkpt>
      <trkpt lat="48.56545" lon="-3.61312">
        <ele>163</ele>
        <time>2020-06-10T14:44:57Z</time>
      </trkpt>
      <trkpt lat="48.56546" lon="-3.61307">
        <ele>163.1</ele>
        <time>2020-06-10T14:44:58Z</time>
      </trkpt>
      <trkpt lat="48.56547" lon="-3.61302">
        <ele>163.3</ele>
        <time>2020-06-10T14:44:59Z</time>
      </trkpt>
      <trkpt lat="48.56548" lon="-3.61297">
        <ele>163.5</ele>
        <time>2020-06-10T14:45:00Z</time>
      </trkpt>
      <trkpt lat="48.5655" lon="-3.61291">
        <ele>163.7</ele>
        <time>2020-06-10T14:45:01Z</time>
      </trkpt>
      <trkpt lat="48.56551" lon="-3.61285">
        <ele>163.9</ele>
        <time>2020-06-10T14:45:02Z</time>
      </trkpt>
      <trkpt lat="48.56552" lon="-3.61279">
        <ele>164.1</ele>
        <time>2020-06-10T14:45:03Z</time>
      </trkpt>
      <trkpt lat="48.56553" lon="-3.61274">
        <ele>164.3</ele>
        <time>2020-06-10T14:45:04Z</time>
      </trkpt>
      <trkpt lat="48.56555" lon="-3.61268">
        <ele>164.5</ele>
        <time>2020-06-10T14:45:05Z</time>
      </trkpt>
      <trkpt lat="48.56557" lon="-3.61263">
        <ele>164.7</ele>
        <time>2020-06-10T14:45:06Z</time>
      </trkpt>
      <trkpt lat="48.56558" lon="-3.61258">
        <ele>164.9</ele>
        <time>2020-06-10T14:45:07Z</time>
      </trkpt>
      <trkpt lat="48.5656" lon="-3.61253">
        <ele>165.1</ele>
        <time>2020-06-10T14:45:08Z</time>
      </trkpt>
      <trkpt lat="48.56562" lon="-3.61245">
        <ele>165.3</ele>
        <time>2020-06-10T14:45:09Z</time>
      </trkpt>
      <trkpt lat="48.56563" lon="-3.61239">
        <ele>165.6</ele>
        <time>2020-06-10T14:45:10Z</time>
      </trkpt>
      <trkpt lat="48.56565" lon="-3.61235">
        <ele>165.8</ele>
        <time>2020-06-10T14:45:11Z</time>
      </trkpt>
      <trkpt lat="48.56567" lon="-3.61229">
        <ele>166</ele>
        <time>2020-06-10T14:45:12Z</time>
      </trkpt>
      <trkpt lat="48.56569" lon="-3.61224">
        <ele>166.2</ele>
        <time>2020-06-10T14:45:13Z</time>
      </trkpt>
      <trkpt lat="48.56571" lon="-3.61219">
        <ele>166.3</ele>
        <time>2020-06-10T14:45:14Z</time>
      </trkpt>
      <trkpt lat="48.56573" lon="-3.61215">
        <ele>166.5</ele>
        <time>2020-06-10T14:45:15Z</time>
      </trkpt>
      <trkpt lat="48.56575" lon="-3.61208">
        <ele>166.7</ele>
        <time>2020-06-10T14:45:16Z</time>
      </trkpt>
      <trkpt lat="48.56576" lon="-3.61204">
        <ele>166.8</ele>
        <time>2020-06-10T14:45:17Z</time>
      </trkpt>
      <trkpt lat="48.56577" lon="-3.612">
        <ele>167</ele>
        <time>2020-06-10T14:45:18Z</time>
      </trkpt>
      <trkpt lat="48.5658" lon="-3.61195">
        <ele>167.2</ele>
        <time>2020-06-10T14:45:19Z</time>
      </trkpt>
      <trkpt lat="48.56581" lon="-3.6119">
        <ele>167.3</ele>
        <time>2020-06-10T14:45:20Z</time>
      </trkpt>
      <trkpt lat="48.56583" lon="-3.61185">
        <ele>167.4</ele>
        <time>2020-06-10T14:45:21Z</time>
      </trkpt>
      <trkpt lat="48.56585" lon="-3.6118">
        <ele>167.6</ele>
        <time>2020-06-10T14:45:22Z</time>
      </trkpt>
      <trkpt lat="48.56587" lon="-3.61173">
        <ele>167.8</ele>
        <time>2020-06-10T14:45:23Z</time>
      </trkpt>
      <trkpt lat="48.56589" lon="-3.61167">
        <ele>168</ele>
        <time>2020-06-10T14:45:24Z</time>
      </trkpt>
      <trkpt lat="48.56591" lon="-3.61161">
        <ele>168.2</ele>
        <time>2020-06-10T14:45:25Z</time>
      </trkpt>
      <trkpt lat="48.56591" lon="-3.61152">
        <ele>168.4</ele>
        <time>2020-06-10T14:45:26Z</time>
      </trkpt>
      <trkpt lat="48.56593" lon="-3.61145">
        <ele>168.7</ele>
        <time>2020-06-10T14:45:27Z</time>
      </trkpt>
      <trkpt lat="48.56596" lon="-3.61139">
        <ele>168.9</ele>
        <time>2020-06-10T14:45:28Z</time>
      </trkpt>
      <trkpt lat="48.56598" lon="-3.61133">
        <ele>169.1</ele>
        <time>2020-06-10T14:45:29Z</time>
      </trkpt>
      <trkpt lat="48.566" lon="-3.61127">
        <ele>169.2</ele>
        <time>2020-06-10T14:45:30Z</time>
      </trkpt>
      <trkpt lat="48.56602" lon="-3.61121">
        <ele>169.4</ele>
        <time>2020-06-10T14:45:31Z</time>
      </trkpt>
      <trkpt lat="48.56605" lon="-3.61116">
        <ele>169.6</ele>
        <time>2020-06-10T14:45:32Z</time>
      </trkpt>
      <trkpt lat="48.56607" lon="-3.6111">
        <ele>169.8</ele>
        <time>2020-06-10T14:45:33Z</time>
      </trkpt>
      <trkpt lat="48.56611" lon="-3.61103">
        <ele>170</ele>
        <time>2020-06-10T14:45:34Z</time>
      </trkpt>
      <trkpt lat="48.56613" lon="-3.61097">
        <ele>170.2</ele>
        <time>2020-06-10T14:45:35Z</time>
      </trkpt>
      <trkpt lat="48.56615" lon="-3.61091">
        <ele>170.3</ele>
        <time>2020-06-10T14:45:36Z</time>
      </trkpt>
      <trkpt lat="48.56618" lon="-3.61085">
        <ele>170.5</ele>
        <time>2020-06-10T14:45:37Z</time>
      </trkpt>
      <trkpt lat="48.56621" lon="-3.61079">
        <ele>170.7</ele>
        <time>2020-06-10T14:45:38Z</time>
      </trkpt>
      <trkpt lat="48.56623" lon="-3.61074">
        <ele>170.8</ele>
        <time>2020-06-10T14:45:39Z</time>
      </trkpt>
      <trkpt lat="48.56625" lon="-3.61067">
        <ele>171</ele>
        <time>2020-06-10T14:45:40Z</time>
      </trkpt>
      <trkpt lat="48.56628" lon="-3.6106">
        <ele>171.2</ele>
        <time>2020-06-10T14:45:41Z</time>
      </trkpt>
      <trkpt lat="48.5663" lon="-3.61053">
        <ele>171.4</ele>
        <time>2020-06-10T14:45:42Z</time>
      </trkpt>
      <trkpt lat="48.56632" lon="-3.61047">
        <ele>171.5</ele>
        <time>2020-06-10T14:45:43Z</time>
      </trkpt>
      <trkpt lat="48.56635" lon="-3.6104">
        <ele>171.7</ele>
        <time>2020-06-10T14:45:44Z</time>
      </trkpt>
      <trkpt lat="48.56639" lon="-3.61032">
        <ele>171.8</ele>
        <time>2020-06-10T14:45:45Z</time>
      </trkpt>
      <trkpt lat="48.5664" lon="-3.61025">
        <ele>172</ele>
        <time>2020-06-10T14:45:46Z</time>
      </trkpt>
      <trkpt lat="48.56642" lon="-3.61018">
        <ele>172.1</ele>
        <time>2020-06-10T14:45:47Z</time>
      </trkpt>
      <trkpt lat="48.56645" lon="-3.61011">
        <ele>172.2</ele>
        <time>2020-06-10T14:45:48Z</time>
      </trkpt>
      <trkpt lat="48.56647" lon="-3.61005">
        <ele>172.3</ele>
        <time>2020-06-10T14:45:49Z</time>
      </trkpt>
      <trkpt lat="48.56651" lon="-3.60998">
        <ele>172.5</ele>
        <time>2020-06-10T14:45:50Z</time>
      </trkpt>
      <trkpt lat="48.56655" lon="-3.60991">
        <ele>172.6</ele>
        <time>2020-06-10T14:45:51Z</time>
      </trkpt>
      <trkpt lat="48.56657" lon="-3.60986">
        <ele>172.7</ele>
        <time>2020-06-10T14:45:52Z</time>
      </trkpt>
      <trkpt lat="48.56661" lon="-3.60982">
        <ele>172.8</ele>
        <time>2020-06-10T14:45:53Z</time>
      </trkpt>
      <trkpt lat="48.56663" lon="-3.60978">
        <ele>172.8</ele>
        <time>2020-06-10T14:45:54Z</time>
      </trkpt>
      <trkpt lat="48.56664" lon="-3.60976">
        <ele>172.8</ele>
        <time>2020-06-10T14:45:55Z</time>
      </trkpt>
      <trkpt lat="48.56665" lon="-3.60971">
        <ele>172.9</ele>
        <time>2020-06-10T14:45:56Z</time>
      </trkpt>
      <trkpt lat="48.56667" lon="-3.60966">
        <ele>173</ele>
        <time>2020-06-10T14:45:57Z</time>
      </trkpt>
      <trkpt lat="48.56671" lon="-3.6096">
        <ele>173.1</ele>
        <time>2020-06-10T14:45:58Z</time>
      </trkpt>
      <trkpt lat="48.56674" lon="-3.60954">
        <ele>173.1</ele>
        <time>2020-06-10T14:45:59Z</time>
      </trkpt>
      <trkpt lat="48.56675" lon="-3.60947">
        <ele>173.2</ele>
        <time>2020-06-10T14:46:00Z</time>
      </trkpt>
      <trkpt lat="48.56677" lon="-3.60939">
        <ele>173.3</ele>
        <time>2020-06-10T14:46:01Z</time>
      </trkpt>
      <trkpt lat="48.56679" lon="-3.60933">
        <ele>173.4</ele>
        <time>2020-06-10T14:46:02Z</time>
      </trkpt>
      <trkpt lat="48.56681" lon="-3.60927">
        <ele>173.5</ele>
        <time>2020-06-10T14:46:03Z</time>
      </trkpt>
      <trkpt lat="48.56684" lon="-3.60922">
        <ele>173.6</ele>
        <time>2020-06-10T14:46:04Z</time>
      </trkpt>
      <trkpt lat="48.56686" lon="-3.60918">
        <ele>173.7</ele>
        <time>2020-06-10T14:46:05Z</time>
      </trkpt>
      <trkpt lat="48.56687" lon="-3.60914">
        <ele>173.7</ele>
        <time>2020-06-10T14:46:06Z</time>
      </trkpt>
      <trkpt lat="48.5669" lon="-3.6091">
        <ele>173.7</ele>
        <time>2020-06-10T14:46:07Z</time>
      </trkpt>
      <trkpt lat="48.56693" lon="-3.60906">
        <ele>173.8</ele>
        <time>2020-06-10T14:46:08Z</time>
      </trkpt>
      <trkpt lat="48.56695" lon="-3.60902">
        <ele>173.8</ele>
        <time>2020-06-10T14:46:09Z</time>
      </trkpt>
      <trkpt lat="48.56696" lon="-3.60897">
        <ele>173.8</ele>
        <time>2020-06-10T14:46:10Z</time>
      </trkpt>
      <trkpt lat="48.56697" lon="-3.60895">
        <ele>173.8</ele>
        <time>2020-06-10T14:46:11Z</time>
      </trkpt>
      <trkpt lat="48.56698" lon="-3.60891">
        <ele>173.8</ele>
        <time>2020-06-10T14:46:12Z</time>
      </trkpt>
      <trkpt lat="48.567" lon="-3.60886">
        <ele>173.8</ele>
        <time>2020-06-10T14:46:13Z</time>
      </trkpt>
      <trkpt lat="48.56702" lon="-3.60882">
        <ele>173.8</ele>
        <time>2020-06-10T14:46:14Z</time>
      </trkpt>
      <trkpt lat="48.56702" lon="-3.60881">
        <ele>173.8</ele>
        <time>2020-06-10T14:46:15Z</time>
      </trkpt>
      <trkpt lat="48.56703" lon="-3.60878">
        <ele>173.8</ele>
        <time>2020-06-10T14:46:16Z</time>
      </trkpt>
      <trkpt lat="48.56703" lon="-3.60877">
        <ele>173.8</ele>
        <time>2020-06-10T14:46:17Z</time>
      </trkpt>
      <trkpt lat="48.56702" lon="-3.60877">
        <ele>173.8</ele>
        <time>2020-06-10T14:46:18Z</time>
      </trkpt>
      <trkpt lat="48.56701" lon="-3.60876">
        <ele>173.8</ele>
        <time>2020-06-10T14:46:19Z</time>
      </trkpt>
      <trkpt lat="48.56702" lon="-3.60875">
        <ele>173.8</ele>
        <time>2020-06-10T14:46:20Z</time>
      </trkpt>
      <trkpt lat="48.56702" lon="-3.60873">
        <ele>173.8</ele>
        <time>2020-06-10T14:46:21Z</time>
      </trkpt>
      <trkpt lat="48.56702" lon="-3.60872">
        <ele>173.8</ele>
        <time>2020-06-10T14:46:22Z</time>
      </trkpt>
      <trkpt lat="48.56702" lon="-3.60871">
        <ele>173.8</ele>
        <time>2020-06-10T14:46:23Z</time>
      </trkpt>
      <trkpt lat="48.56703" lon="-3.6087">
        <ele>173.8</ele>
        <time>2020-06-10T14:46:24Z</time>
      </trkpt>
      <trkpt lat="48.56703" lon="-3.60869">
        <ele>173.8</ele>
        <time>2020-06-10T14:46:25Z</time>
      </trkpt>
      <trkpt lat="48.56703" lon="-3.60868">
        <ele>173.8</ele>
        <time>2020-06-10T14:46:26Z</time>
      </trkpt>
      <trkpt lat="48.56703" lon="-3.60867">
        <ele>173.8</ele>
        <time>2020-06-10T14:46:27Z</time>
      </trkpt>
      <trkpt lat="48.56703" lon="-3.60866">
        <ele>173.8</ele>
        <time>2020-06-10T14:51:18Z</time>
      </trkpt>
      <trkpt lat="48.56704" lon="-3.60865">
        <ele>173.8</ele>
        <time>2020-06-10T14:51:19Z</time>
      </trkpt>
      <trkpt lat="48.56706" lon="-3.6086">
        <ele>173.8</ele>
        <time>2020-06-10T14:51:20Z</time>
      </trkpt>
      <trkpt lat="48.56707" lon="-3.60856">
        <ele>173.8</ele>
        <time>2020-06-10T14:51:21Z</time>
      </trkpt>
      <trkpt lat="48.5671" lon="-3.60851">
        <ele>173.8</ele>
        <time>2020-06-10T14:51:22Z</time>
      </trkpt>
      <trkpt lat="48.56713" lon="-3.60848">
        <ele>173.8</ele>
        <time>2020-06-10T14:51:23Z</time>
      </trkpt>
      <trkpt lat="48.56714" lon="-3.60844">
        <ele>173.8</ele>
        <time>2020-06-10T14:51:24Z</time>
      </trkpt>
      <trkpt lat="48.56716" lon="-3.6084">
        <ele>173.8</ele>
        <time>2020-06-10T14:51:25Z</time>
      </trkpt>
      <trkpt lat="48.56718" lon="-3.60836">
        <ele>173.8</ele>
        <time>2020-06-10T14:51:26Z</time>
      </trkpt>
      <trkpt lat="48.56719" lon="-3.60834">
        <ele>173.8</ele>
        <time>2020-06-10T14:51:27Z</time>
      </trkpt>
      <trkpt lat="48.56721" lon="-3.60829">
        <ele>173.8</ele>
        <time>2020-06-10T14:51:28Z</time>
      </trkpt>
      <trkpt lat="48.56721" lon="-3.60827">
        <ele>173.8</ele>
        <time>2020-06-10T14:51:29Z</time>
      </trkpt>
      <trkpt lat="48.56723" lon="-3.60822">
        <ele>173.8</ele>
        <time>2020-06-10T14:51:30Z</time>
      </trkpt>
      <trkpt lat="48.56724" lon="-3.6082">
        <ele>173.8</ele>
        <time>2020-06-10T14:51:31Z</time>
      </trkpt>
      <trkpt lat="48.56725" lon="-3.60816">
        <ele>173.7</ele>
        <time>2020-06-10T14:51:32Z</time>
      </trkpt>
      <trkpt lat="48.56726" lon="-3.60811">
        <ele>173.7</ele>
        <time>2020-06-10T14:51:33Z</time>
      </trkpt>
      <trkpt lat="48.56726" lon="-3.6081">
        <ele>173.7</ele>
        <time>2020-06-10T14:51:34Z</time>
      </trkpt>
      <trkpt lat="48.56727" lon="-3.60805">
        <ele>173.7</ele>
        <time>2020-06-10T14:51:35Z</time>
      </trkpt>
      <trkpt lat="48.56727" lon="-3.60803">
        <ele>173.7</ele>
        <time>2020-06-10T14:51:36Z</time>
      </trkpt>
      <trkpt lat="48.56728" lon="-3.60799">
        <ele>173.6</ele>
        <time>2020-06-10T14:51:37Z</time>
      </trkpt>
      <trkpt lat="48.56728" lon="-3.60794">
        <ele>173.6</ele>
        <time>2020-06-10T14:51:38Z</time>
      </trkpt>
      <trkpt lat="48.56729" lon="-3.60791">
        <ele>173.6</ele>
        <time>2020-06-10T14:51:39Z</time>
      </trkpt>
      <trkpt lat="48.56729" lon="-3.60787">
        <ele>173.6</ele>
        <time>2020-06-10T14:51:40Z</time>
      </trkpt>
      <trkpt lat="48.5673" lon="-3.60783">
        <ele>173.6</ele>
        <time>2020-06-10T14:51:41Z</time>
      </trkpt>
      <trkpt lat="48.56731" lon="-3.60778">
        <ele>173.5</ele>
        <time>2020-06-10T14:51:42Z</time>
      </trkpt>
      <trkpt lat="48.56732" lon="-3.60772">
        <ele>173.5</ele>
        <time>2020-06-10T14:51:43Z</time>
      </trkpt>
      <trkpt lat="48.56733" lon="-3.6077">
        <ele>173.5</ele>
        <time>2020-06-10T14:51:44Z</time>
      </trkpt>
      <trkpt lat="48.56733" lon="-3.60765">
        <ele>173.5</ele>
        <time>2020-06-10T14:51:45Z</time>
      </trkpt>
      <trkpt lat="48.56733" lon="-3.60763">
        <ele>173.4</ele>
        <time>2020-06-10T14:51:46Z</time>
      </trkpt>
      <trkpt lat="48.56734" lon="-3.60757">
        <ele>173.4</ele>
        <time>2020-06-10T14:51:47Z</time>
      </trkpt>
      <trkpt lat="48.56734" lon="-3.60755">
        <ele>173.4</ele>
        <time>2020-06-10T14:51:48Z</time>
      </trkpt>
      <trkpt lat="48.56735" lon="-3.6075">
        <ele>173.4</ele>
        <time>2020-06-10T14:51:49Z</time>
      </trkpt>
      <trkpt lat="48.56735" lon="-3.60748">
        <ele>173.4</ele>
        <time>2020-06-10T14:51:50Z</time>
      </trkpt>
      <trkpt lat="48.56736" lon="-3.60743">
        <ele>173.4</ele>
        <time>2020-06-10T14:51:51Z</time>
      </trkpt>
      <trkpt lat="48.56736" lon="-3.60736">
        <ele>173.4</ele>
        <time>2020-06-10T14:51:52Z</time>
      </trkpt>
      <trkpt lat="48.56736" lon="-3.60734">
        <ele>173.4</ele>
        <time>2020-06-10T14:51:53Z</time>
      </trkpt>
      <trkpt lat="48.56736" lon="-3.60729">
        <ele>173.4</ele>
        <time>2020-06-10T14:51:54Z</time>
      </trkpt>
      <trkpt lat="48.56736" lon="-3.60724">
        <ele>173.4</ele>
        <time>2020-06-10T14:51:55Z</time>
      </trkpt>
      <trkpt lat="48.56736" lon="-3.60719">
        <ele>173.4</ele>
        <time>2020-06-10T14:51:56Z</time>
      </trkpt>
      <trkpt lat="48.56737" lon="-3.60714">
        <ele>173.4</ele>
        <time>2020-06-10T14:51:57Z</time>
      </trkpt>
      <trkpt lat="48.56737" lon="-3.60709">
        <ele>173.4</ele>
        <time>2020-06-10T14:51:58Z</time>
      </trkpt>
      <trkpt lat="48.56738" lon="-3.60705">
        <ele>173.4</ele>
        <time>2020-06-10T14:51:59Z</time>
      </trkpt>
      <trkpt lat="48.56738" lon="-3.607">
        <ele>173.4</ele>
        <time>2020-06-10T14:52:00Z</time>
      </trkpt>
      <trkpt lat="48.56738" lon="-3.60696">
        <ele>173.4</ele>
        <time>2020-06-10T14:52:01Z</time>
      </trkpt>
      <trkpt lat="48.56738" lon="-3.60691">
        <ele>173.4</ele>
        <time>2020-06-10T14:52:02Z</time>
      </trkpt>
      <trkpt lat="48.56738" lon="-3.60686">
        <ele>173.4</ele>
        <time>2020-06-10T14:52:03Z</time>
      </trkpt>
      <trkpt lat="48.56738" lon="-3.60682">
        <ele>173.4</ele>
        <time>2020-06-10T14:52:04Z</time>
      </trkpt>
      <trkpt lat="48.56737" lon="-3.60677">
        <ele>173.4</ele>
        <time>2020-06-10T14:52:05Z</time>
      </trkpt>
      <trkpt lat="48.56737" lon="-3.60672">
        <ele>173.4</ele>
        <time>2020-06-10T14:52:06Z</time>
      </trkpt>
      <trkpt lat="48.56736" lon="-3.60668">
        <ele>173.4</ele>
        <time>2020-06-10T14:52:07Z</time>
      </trkpt>
      <trkpt lat="48.56736" lon="-3.60663">
        <ele>173.4</ele>
        <time>2020-06-10T14:52:08Z</time>
      </trkpt>
      <trkpt lat="48.56735" lon="-3.60658">
        <ele>173.4</ele>
        <time>2020-06-10T14:52:09Z</time>
      </trkpt>
      <trkpt lat="48.56735" lon="-3.60653">
        <ele>173.4</ele>
        <time>2020-06-10T14:52:10Z</time>
      </trkpt>
      <trkpt lat="48.56736" lon="-3.60648">
        <ele>173.4</ele>
        <time>2020-06-10T14:52:11Z</time>
      </trkpt>
      <trkpt lat="48.56736" lon="-3.60643">
        <ele>173.4</ele>
        <time>2020-06-10T14:52:12Z</time>
      </trkpt>
      <trkpt lat="48.56736" lon="-3.60638">
        <ele>173.3</ele>
        <time>2020-06-10T14:52:13Z</time>
      </trkpt>
      <trkpt lat="48.56735" lon="-3.60633">
        <ele>173.3</ele>
        <time>2020-06-10T14:52:14Z</time>
      </trkpt>
      <trkpt lat="48.56736" lon="-3.60628">
        <ele>173.3</ele>
        <time>2020-06-10T14:52:15Z</time>
      </trkpt>
      <trkpt lat="48.56736" lon="-3.60623">
        <ele>173.3</ele>
        <time>2020-06-10T14:52:16Z</time>
      </trkpt>
      <trkpt lat="48.56736" lon="-3.60618">
        <ele>173.3</ele>
        <time>2020-06-10T14:52:17Z</time>
      </trkpt>
      <trkpt lat="48.56736" lon="-3.60613">
        <ele>173.2</ele>
        <time>2020-06-10T14:52:18Z</time>
      </trkpt>
      <trkpt lat="48.56736" lon="-3.60608">
        <ele>173.2</ele>
        <time>2020-06-10T14:52:19Z</time>
      </trkpt>
      <trkpt lat="48.56737" lon="-3.60603">
        <ele>173.2</ele>
        <time>2020-06-10T14:52:20Z</time>
      </trkpt>
      <trkpt lat="48.56736" lon="-3.60598">
        <ele>173.2</ele>
        <time>2020-06-10T14:52:21Z</time>
      </trkpt>
      <trkpt lat="48.56735" lon="-3.60593">
        <ele>173.1</ele>
        <time>2020-06-10T14:52:22Z</time>
      </trkpt>
      <trkpt lat="48.56734" lon="-3.60587">
        <ele>173.1</ele>
        <time>2020-06-10T14:52:23Z</time>
      </trkpt>
      <trkpt lat="48.56734" lon="-3.60583">
        <ele>173.1</ele>
        <time>2020-06-10T14:52:24Z</time>
      </trkpt>
      <trkpt lat="48.56735" lon="-3.60577">
        <ele>173</ele>
        <time>2020-06-10T14:52:25Z</time>
      </trkpt>
      <trkpt lat="48.56736" lon="-3.60571">
        <ele>173</ele>
        <time>2020-06-10T14:52:26Z</time>
      </trkpt>
      <trkpt lat="48.56735" lon="-3.60565">
        <ele>172.9</ele>
        <time>2020-06-10T14:52:27Z</time>
      </trkpt>
      <trkpt lat="48.56735" lon="-3.6056">
        <ele>172.9</ele>
        <time>2020-06-10T14:52:28Z</time>
      </trkpt>
      <trkpt lat="48.56734" lon="-3.60555">
        <ele>172.8</ele>
        <time>2020-06-10T14:52:29Z</time>
      </trkpt>
      <trkpt lat="48.56734" lon="-3.60551">
        <ele>172.8</ele>
        <time>2020-06-10T14:52:30Z</time>
      </trkpt>
      <trkpt lat="48.56734" lon="-3.60545">
        <ele>172.7</ele>
        <time>2020-06-10T14:52:31Z</time>
      </trkpt>
      <trkpt lat="48.56734" lon="-3.60543">
        <ele>172.7</ele>
        <time>2020-06-10T14:52:32Z</time>
      </trkpt>
      <trkpt lat="48.56734" lon="-3.60539">
        <ele>172.7</ele>
        <time>2020-06-10T14:52:33Z</time>
      </trkpt>
      <trkpt lat="48.56734" lon="-3.60538">
        <ele>172.6</ele>
        <time>2020-06-10T14:52:34Z</time>
      </trkpt>
      <trkpt lat="48.56734" lon="-3.60536">
        <ele>172.6</ele>
        <time>2020-06-10T14:52:35Z</time>
      </trkpt>
      <trkpt lat="48.56734" lon="-3.60533">
        <ele>172.6</ele>
        <time>2020-06-10T14:52:36Z</time>
      </trkpt>
      <trkpt lat="48.56734" lon="-3.60528">
        <ele>172.5</ele>
        <time>2020-06-10T14:52:37Z</time>
      </trkpt>
      <trkpt lat="48.56734" lon="-3.60526">
        <ele>172.4</ele>
        <time>2020-06-10T14:52:38Z</time>
      </trkpt>
      <trkpt lat="48.56734" lon="-3.60521">
        <ele>172.3</ele>
        <time>2020-06-10T14:52:39Z</time>
      </trkpt>
      <trkpt lat="48.56734" lon="-3.60516">
        <ele>172.1</ele>
        <time>2020-06-10T14:52:40Z</time>
      </trkpt>
      <trkpt lat="48.56735" lon="-3.6051">
        <ele>172</ele>
        <time>2020-06-10T14:52:41Z</time>
      </trkpt>
      <trkpt lat="48.56735" lon="-3.60504">
        <ele>171.8</ele>
        <time>2020-06-10T14:52:42Z</time>
      </trkpt>
      <trkpt lat="48.56735" lon="-3.60497">
        <ele>171.6</ele>
        <time>2020-06-10T14:52:43Z</time>
      </trkpt>
      <trkpt lat="48.56736" lon="-3.6049">
        <ele>171.4</ele>
        <time>2020-06-10T14:52:44Z</time>
      </trkpt>
      <trkpt lat="48.56735" lon="-3.60482">
        <ele>171.2</ele>
        <time>2020-06-10T14:52:45Z</time>
      </trkpt>
      <trkpt lat="48.56736" lon="-3.60474">
        <ele>171</ele>
        <time>2020-06-10T14:52:46Z</time>
      </trkpt>
      <trkpt lat="48.56736" lon="-3.60466">
        <ele>170.8</ele>
        <time>2020-06-10T14:52:47Z</time>
      </trkpt>
      <trkpt lat="48.56736" lon="-3.60458">
        <ele>170.7</ele>
        <time>2020-06-10T14:52:48Z</time>
      </trkpt>
      <trkpt lat="48.56735" lon="-3.60449">
        <ele>170.6</ele>
        <time>2020-06-10T14:52:49Z</time>
      </trkpt>
      <trkpt lat="48.56735" lon="-3.6044">
        <ele>170.4</ele>
        <time>2020-06-10T14:52:50Z</time>
      </trkpt>
      <trkpt lat="48.56735" lon="-3.60431">
        <ele>170.3</ele>
        <time>2020-06-10T14:52:51Z</time>
      </trkpt>
      <trkpt lat="48.56735" lon="-3.60422">
        <ele>170.2</ele>
        <time>2020-06-10T14:52:52Z</time>
      </trkpt>
      <trkpt lat="48.56736" lon="-3.60413">
        <ele>170.2</ele>
        <time>2020-06-10T14:52:53Z</time>
      </trkpt>
      <trkpt lat="48.56736" lon="-3.60404">
        <ele>170.1</ele>
        <time>2020-06-10T14:52:54Z</time>
      </trkpt>
      <trkpt lat="48.56737" lon="-3.60395">
        <ele>170.1</ele>
        <time>2020-06-10T14:52:55Z</time>
      </trkpt>
      <trkpt lat="48.56737" lon="-3.60387">
        <ele>170.1</ele>
        <time>2020-06-10T14:52:56Z</time>
      </trkpt>
      <trkpt lat="48.56738" lon="-3.60378">
        <ele>170.1</ele>
        <time>2020-06-10T14:52:57Z</time>
      </trkpt>
      <trkpt lat="48.56739" lon="-3.60369">
        <ele>170.1</ele>
        <time>2020-06-10T14:52:58Z</time>
      </trkpt>
      <trkpt lat="48.56739" lon="-3.6036">
        <ele>170.1</ele>
        <time>2020-06-10T14:52:59Z</time>
      </trkpt>
      <trkpt lat="48.56739" lon="-3.60352">
        <ele>170.1</ele>
        <time>2020-06-10T14:53:00Z</time>
      </trkpt>
      <trkpt lat="48.56739" lon="-3.60343">
        <ele>170.2</ele>
        <time>2020-06-10T14:53:01Z</time>
      </trkpt>
      <trkpt lat="48.56739" lon="-3.60334">
        <ele>170.2</ele>
        <time>2020-06-10T14:53:02Z</time>
      </trkpt>
      <trkpt lat="48.56739" lon="-3.60326">
        <ele>170.2</ele>
        <time>2020-06-10T14:53:03Z</time>
      </trkpt>
      <trkpt lat="48.56739" lon="-3.60317">
        <ele>170.3</ele>
        <time>2020-06-10T14:53:04Z</time>
      </trkpt>
      <trkpt lat="48.56739" lon="-3.60308">
        <ele>170.3</ele>
        <time>2020-06-10T14:53:05Z</time>
      </trkpt>
      <trkpt lat="48.56739" lon="-3.603">
        <ele>170.4</ele>
        <time>2020-06-10T14:53:06Z</time>
      </trkpt>
      <trkpt lat="48.56739" lon="-3.60291">
        <ele>170.6</ele>
        <time>2020-06-10T14:53:07Z</time>
      </trkpt>
      <trkpt lat="48.56738" lon="-3.60282">
        <ele>170.7</ele>
        <time>2020-06-10T14:53:08Z</time>
      </trkpt>
      <trkpt lat="48.56738" lon="-3.60274">
        <ele>170.8</ele>
        <time>2020-06-10T14:53:09Z</time>
      </trkpt>
      <trkpt lat="48.56738" lon="-3.60266">
        <ele>171</ele>
        <time>2020-06-10T14:53:10Z</time>
      </trkpt>
      <trkpt lat="48.56739" lon="-3.60258">
        <ele>171.1</ele>
        <time>2020-06-10T14:53:11Z</time>
      </trkpt>
      <trkpt lat="48.56739" lon="-3.6025">
        <ele>171.3</ele>
        <time>2020-06-10T14:53:12Z</time>
      </trkpt>
      <trkpt lat="48.56739" lon="-3.60242">
        <ele>171.4</ele>
        <time>2020-06-10T14:53:13Z</time>
      </trkpt>
      <trkpt lat="48.56739" lon="-3.60234">
        <ele>171.6</ele>
        <time>2020-06-10T14:53:14Z</time>
      </trkpt>
      <trkpt lat="48.56739" lon="-3.60226">
        <ele>171.8</ele>
        <time>2020-06-10T14:53:15Z</time>
      </trkpt>
      <trkpt lat="48.56739" lon="-3.60219">
        <ele>172</ele>
        <time>2020-06-10T14:53:16Z</time>
      </trkpt>
      <trkpt lat="48.56738" lon="-3.60212">
        <ele>172.1</ele>
        <time>2020-06-10T14:53:17Z</time>
      </trkpt>
      <trkpt lat="48.56737" lon="-3.60204">
        <ele>172.3</ele>
        <time>2020-06-10T14:53:18Z</time>
      </trkpt>
      <trkpt lat="48.56736" lon="-3.60197">
        <ele>172.5</ele>
        <time>2020-06-10T14:53:19Z</time>
      </trkpt>
      <trkpt lat="48.56736" lon="-3.60189">
        <ele>172.7</ele>
        <time>2020-06-10T14:53:20Z</time>
      </trkpt>
      <trkpt lat="48.56736" lon="-3.60182">
        <ele>172.9</ele>
        <time>2020-06-10T14:53:21Z</time>
      </trkpt>
      <trkpt lat="48.56737" lon="-3.60174">
        <ele>173.1</ele>
        <time>2020-06-10T14:53:22Z</time>
      </trkpt>
      <trkpt lat="48.56737" lon="-3.60167">
        <ele>173.3</ele>
        <time>2020-06-10T14:53:23Z</time>
      </trkpt>
      <trkpt lat="48.56737" lon="-3.60159">
        <ele>173.5</ele>
        <time>2020-06-10T14:53:24Z</time>
      </trkpt>
      <trkpt lat="48.56737" lon="-3.60152">
        <ele>173.7</ele>
        <time>2020-06-10T14:53:25Z</time>
      </trkpt>
      <trkpt lat="48.56737" lon="-3.60144">
        <ele>173.8</ele>
        <time>2020-06-10T14:53:26Z</time>
      </trkpt>
      <trkpt lat="48.56737" lon="-3.60137">
        <ele>174</ele>
        <time>2020-06-10T14:53:27Z</time>
      </trkpt>
      <trkpt lat="48.56736" lon="-3.6013">
        <ele>174.2</ele>
        <time>2020-06-10T14:53:28Z</time>
      </trkpt>
      <trkpt lat="48.56736" lon="-3.60122">
        <ele>174.4</ele>
        <time>2020-06-10T14:53:29Z</time>
      </trkpt>
      <trkpt lat="48.56736" lon="-3.60115">
        <ele>174.6</ele>
        <time>2020-06-10T14:53:30Z</time>
      </trkpt>
      <trkpt lat="48.56736" lon="-3.60108">
        <ele>174.8</ele>
        <time>2020-06-10T14:53:31Z</time>
      </trkpt>
      <trkpt lat="48.56736" lon="-3.601">
        <ele>175</ele>
        <time>2020-06-10T14:53:32Z</time>
      </trkpt>
      <trkpt lat="48.56736" lon="-3.60093">
        <ele>175.2</ele>
        <time>2020-06-10T14:53:33Z</time>
      </trkpt>
      <trkpt lat="48.56735" lon="-3.60085">
        <ele>175.4</ele>
        <time>2020-06-10T14:53:34Z</time>
      </trkpt>
      <trkpt lat="48.56735" lon="-3.60078">
        <ele>175.6</ele>
        <time>2020-06-10T14:53:35Z</time>
      </trkpt>
      <trkpt lat="48.56734" lon="-3.60072">
        <ele>175.7</ele>
        <time>2020-06-10T14:53:36Z</time>
      </trkpt>
      <trkpt lat="48.56733" lon="-3.60065">
        <ele>175.9</ele>
        <time>2020-06-10T14:53:37Z</time>
      </trkpt>
      <trkpt lat="48.56733" lon="-3.60058">
        <ele>176.1</ele>
        <time>2020-06-10T14:53:38Z</time>
      </trkpt>
      <trkpt lat="48.56733" lon="-3.60052">
        <ele>176.2</ele>
        <time>2020-06-10T14:53:39Z</time>
      </trkpt>
      <trkpt lat="48.56733" lon="-3.60045">
        <ele>176.4</ele>
        <time>2020-06-10T14:53:40Z</time>
      </trkpt>
      <trkpt lat="48.56734" lon="-3.60038">
        <ele>176.6</ele>
        <time>2020-06-10T14:53:41Z</time>
      </trkpt>
      <trkpt lat="48.56733" lon="-3.60033">
        <ele>176.7</ele>
        <time>2020-06-10T14:53:42Z</time>
      </trkpt>
      <trkpt lat="48.56734" lon="-3.60025">
        <ele>176.9</ele>
        <time>2020-06-10T14:53:43Z</time>
      </trkpt>
      <trkpt lat="48.56734" lon="-3.60018">
        <ele>177.1</ele>
        <time>2020-06-10T14:53:44Z</time>
      </trkpt>
      <trkpt lat="48.56734" lon="-3.60012">
        <ele>177.2</ele>
        <time>2020-06-10T14:53:45Z</time>
      </trkpt>
      <trkpt lat="48.56733" lon="-3.60007">
        <ele>177.3</ele>
        <time>2020-06-10T14:53:46Z</time>
      </trkpt>
      <trkpt lat="48.56734" lon="-3.60001">
        <ele>177.5</ele>
        <time>2020-06-10T14:53:47Z</time>
      </trkpt>
      <trkpt lat="48.56734" lon="-3.59993">
        <ele>177.6</ele>
        <time>2020-06-10T14:53:48Z</time>
      </trkpt>
      <trkpt lat="48.56734" lon="-3.59986">
        <ele>177.7</ele>
        <time>2020-06-10T14:53:49Z</time>
      </trkpt>
      <trkpt lat="48.56734" lon="-3.59981">
        <ele>177.8</ele>
        <time>2020-06-10T14:53:50Z</time>
      </trkpt>
      <trkpt lat="48.56734" lon="-3.59976">
        <ele>177.9</ele>
        <time>2020-06-10T14:53:51Z</time>
      </trkpt>
      <trkpt lat="48.56734" lon="-3.5997">
        <ele>178</ele>
        <time>2020-06-10T14:53:52Z</time>
      </trkpt>
      <trkpt lat="48.56734" lon="-3.59964">
        <ele>178.1</ele>
        <time>2020-06-10T14:53:53Z</time>
      </trkpt>
      <trkpt lat="48.56735" lon="-3.59957">
        <ele>178.1</ele>
        <time>2020-06-10T14:53:54Z</time>
      </trkpt>
      <trkpt lat="48.56736" lon="-3.59951">
        <ele>178.2</ele>
        <time>2020-06-10T14:53:55Z</time>
      </trkpt>
      <trkpt lat="48.56737" lon="-3.59944">
        <ele>178.2</ele>
        <time>2020-06-10T14:53:56Z</time>
      </trkpt>
      <trkpt lat="48.56738" lon="-3.59937">
        <ele>178.2</ele>
        <time>2020-06-10T14:53:57Z</time>
      </trkpt>
      <trkpt lat="48.56739" lon="-3.59931">
        <ele>178.2</ele>
        <time>2020-06-10T14:53:58Z</time>
      </trkpt>
      <trkpt lat="48.56741" lon="-3.59924">
        <ele>178.2</ele>
        <time>2020-06-10T14:53:59Z</time>
      </trkpt>
      <trkpt lat="48.56742" lon="-3.59916">
        <ele>178.1</ele>
        <time>2020-06-10T14:54:00Z</time>
      </trkpt>
      <trkpt lat="48.56744" lon="-3.5991">
        <ele>178.1</ele>
        <time>2020-06-10T14:54:01Z</time>
      </trkpt>
      <trkpt lat="48.56745" lon="-3.59903">
        <ele>178</ele>
        <time>2020-06-10T14:54:02Z</time>
      </trkpt>
      <trkpt lat="48.56745" lon="-3.59897">
        <ele>178</ele>
        <time>2020-06-10T14:54:03Z</time>
      </trkpt>
      <trkpt lat="48.56746" lon="-3.5989">
        <ele>177.9</ele>
        <time>2020-06-10T14:54:04Z</time>
      </trkpt>
      <trkpt lat="48.56747" lon="-3.59885">
        <ele>177.8</ele>
        <time>2020-06-10T14:54:05Z</time>
      </trkpt>
      <trkpt lat="48.56748" lon="-3.59877">
        <ele>177.6</ele>
        <time>2020-06-10T14:54:06Z</time>
      </trkpt>
      <trkpt lat="48.56749" lon="-3.5987">
        <ele>177.4</ele>
        <time>2020-06-10T14:54:07Z</time>
      </trkpt>
      <trkpt lat="48.5675" lon="-3.59862">
        <ele>177</ele>
        <time>2020-06-10T14:54:08Z</time>
      </trkpt>
      <trkpt lat="48.56751" lon="-3.59852">
        <ele>176.7</ele>
        <time>2020-06-10T14:54:09Z</time>
      </trkpt>
      <trkpt lat="48.56752" lon="-3.59843">
        <ele>176.5</ele>
        <time>2020-06-10T14:54:10Z</time>
      </trkpt>
      <trkpt lat="48.56753" lon="-3.59833">
        <ele>176.2</ele>
        <time>2020-06-10T14:54:11Z</time>
      </trkpt>
      <trkpt lat="48.56754" lon="-3.59823">
        <ele>175.8</ele>
        <time>2020-06-10T14:54:12Z</time>
      </trkpt>
      <trkpt lat="48.56755" lon="-3.59813">
        <ele>175.5</ele>
        <time>2020-06-10T14:54:13Z</time>
      </trkpt>
      <trkpt lat="48.56757" lon="-3.59803">
        <ele>175</ele>
        <time>2020-06-10T14:54:14Z</time>
      </trkpt>
      <trkpt lat="48.56758" lon="-3.59793">
        <ele>174.5</ele>
        <time>2020-06-10T14:54:15Z</time>
      </trkpt>
      <trkpt lat="48.56758" lon="-3.59784">
        <ele>174</ele>
        <time>2020-06-10T14:54:16Z</time>
      </trkpt>
      <trkpt lat="48.5676" lon="-3.59771">
        <ele>173.3</ele>
        <time>2020-06-10T14:54:17Z</time>
      </trkpt>
      <trkpt lat="48.56762" lon="-3.59758">
        <ele>172.4</ele>
        <time>2020-06-10T14:54:18Z</time>
      </trkpt>
      <trkpt lat="48.56764" lon="-3.59744">
        <ele>171.4</ele>
        <time>2020-06-10T14:54:19Z</time>
      </trkpt>
      <trkpt lat="48.56766" lon="-3.59729">
        <ele>170.3</ele>
        <time>2020-06-10T14:54:20Z</time>
      </trkpt>
      <trkpt lat="48.56767" lon="-3.59714">
        <ele>169.1</ele>
        <time>2020-06-10T14:54:21Z</time>
      </trkpt>
      <trkpt lat="48.56769" lon="-3.59698">
        <ele>167.8</ele>
        <time>2020-06-10T14:54:22Z</time>
      </trkpt>
      <trkpt lat="48.56771" lon="-3.59682">
        <ele>166.5</ele>
        <time>2020-06-10T14:54:23Z</time>
      </trkpt>
      <trkpt lat="48.56773" lon="-3.59665">
        <ele>165.2</ele>
        <time>2020-06-10T14:54:24Z</time>
      </trkpt>
      <trkpt lat="48.56775" lon="-3.59648">
        <ele>164.1</ele>
        <time>2020-06-10T14:54:25Z</time>
      </trkpt>
      <trkpt lat="48.56776" lon="-3.59631">
        <ele>163.3</ele>
        <time>2020-06-10T14:54:26Z</time>
      </trkpt>
      <trkpt lat="48.56778" lon="-3.59613">
        <ele>162.6</ele>
        <time>2020-06-10T14:54:27Z</time>
      </trkpt>
      <trkpt lat="48.56779" lon="-3.59595">
        <ele>161.9</ele>
        <time>2020-06-10T14:54:28Z</time>
      </trkpt>
      <trkpt lat="48.56779" lon="-3.59577">
        <ele>161.5</ele>
        <time>2020-06-10T14:54:29Z</time>
      </trkpt>
      <trkpt lat="48.56779" lon="-3.5956">
        <ele>161.2</ele>
        <time>2020-06-10T14:54:30Z</time>
      </trkpt>
      <trkpt lat="48.5678" lon="-3.59544">
        <ele>161.3</ele>
        <time>2020-06-10T14:54:31Z</time>
      </trkpt>
      <trkpt lat="48.5678" lon="-3.59528">
        <ele>161.4</ele>
        <time>2020-06-10T14:54:32Z</time>
      </trkpt>
      <trkpt lat="48.5678" lon="-3.59512">
        <ele>161.7</ele>
        <time>2020-06-10T14:54:33Z</time>
      </trkpt>
      <trkpt lat="48.5678" lon="-3.59497">
        <ele>162.1</ele>
        <time>2020-06-10T14:54:34Z</time>
      </trkpt>
      <trkpt lat="48.56779" lon="-3.59483">
        <ele>162.6</ele>
        <time>2020-06-10T14:54:35Z</time>
      </trkpt>
      <trkpt lat="48.5678" lon="-3.5947">
        <ele>163.2</ele>
        <time>2020-06-10T14:54:36Z</time>
      </trkpt>
      <trkpt lat="48.5678" lon="-3.59458">
        <ele>163.8</ele>
        <time>2020-06-10T14:54:37Z</time>
      </trkpt>
      <trkpt lat="48.56779" lon="-3.59446">
        <ele>164.4</ele>
        <time>2020-06-10T14:54:38Z</time>
      </trkpt>
      <trkpt lat="48.5678" lon="-3.59436">
        <ele>165</ele>
        <time>2020-06-10T14:54:39Z</time>
      </trkpt>
      <trkpt lat="48.5678" lon="-3.59425">
        <ele>165.6</ele>
        <time>2020-06-10T14:54:40Z</time>
      </trkpt>
      <trkpt lat="48.56779" lon="-3.59416">
        <ele>166.1</ele>
        <time>2020-06-10T14:54:41Z</time>
      </trkpt>
      <trkpt lat="48.56779" lon="-3.59407">
        <ele>166.7</ele>
        <time>2020-06-10T14:54:42Z</time>
      </trkpt>
      <trkpt lat="48.56779" lon="-3.59399">
        <ele>167.2</ele>
        <time>2020-06-10T14:54:43Z</time>
      </trkpt>
      <trkpt lat="48.56779" lon="-3.59391">
        <ele>167.7</ele>
        <time>2020-06-10T14:54:44Z</time>
      </trkpt>
      <trkpt lat="48.56778" lon="-3.59383">
        <ele>168.2</ele>
        <time>2020-06-10T14:54:45Z</time>
      </trkpt>
      <trkpt lat="48.56778" lon="-3.59376">
        <ele>168.6</ele>
        <time>2020-06-10T14:54:46Z</time>
      </trkpt>
      <trkpt lat="48.56778" lon="-3.59369">
        <ele>169</ele>
        <time>2020-06-10T14:54:47Z</time>
      </trkpt>
      <trkpt lat="48.56779" lon="-3.59362">
        <ele>169.5</ele>
        <time>2020-06-10T14:54:48Z</time>
      </trkpt>
      <trkpt lat="48.56779" lon="-3.59356">
        <ele>169.8</ele>
        <time>2020-06-10T14:54:49Z</time>
      </trkpt>
      <trkpt lat="48.56778" lon="-3.5935">
        <ele>170.1</ele>
        <time>2020-06-10T14:54:50Z</time>
      </trkpt>
      <trkpt lat="48.56778" lon="-3.59344">
        <ele>170.5</ele>
        <time>2020-06-10T14:54:51Z</time>
      </trkpt>
      <trkpt lat="48.56777" lon="-3.59337">
        <ele>170.8</ele>
        <time>2020-06-10T14:54:52Z</time>
      </trkpt>
      <trkpt lat="48.56776" lon="-3.59331">
        <ele>171.1</ele>
        <time>2020-06-10T14:54:53Z</time>
      </trkpt>
      <trkpt lat="48.56775" lon="-3.59325">
        <ele>171.4</ele>
        <time>2020-06-10T14:54:54Z</time>
      </trkpt>
      <trkpt lat="48.56774" lon="-3.5932">
        <ele>171.7</ele>
        <time>2020-06-10T14:54:55Z</time>
      </trkpt>
      <trkpt lat="48.56773" lon="-3.59314">
        <ele>172</ele>
        <time>2020-06-10T14:54:56Z</time>
      </trkpt>
      <trkpt lat="48.56771" lon="-3.59309">
        <ele>172.2</ele>
        <time>2020-06-10T14:54:57Z</time>
      </trkpt>
      <trkpt lat="48.5677" lon="-3.59304">
        <ele>172.4</ele>
        <time>2020-06-10T14:54:58Z</time>
      </trkpt>
      <trkpt lat="48.56769" lon="-3.59298">
        <ele>172.7</ele>
        <time>2020-06-10T14:54:59Z</time>
      </trkpt>
      <trkpt lat="48.56769" lon="-3.59293">
        <ele>172.9</ele>
        <time>2020-06-10T14:55:00Z</time>
      </trkpt>
      <trkpt lat="48.56768" lon="-3.59288">
        <ele>173.1</ele>
        <time>2020-06-10T14:55:01Z</time>
      </trkpt>
      <trkpt lat="48.56768" lon="-3.59282">
        <ele>173.4</ele>
        <time>2020-06-10T14:55:02Z</time>
      </trkpt>
      <trkpt lat="48.56768" lon="-3.59279">
        <ele>173.5</ele>
        <time>2020-06-10T14:55:03Z</time>
      </trkpt>
      <trkpt lat="48.56768" lon="-3.59275">
        <ele>173.7</ele>
        <time>2020-06-10T14:55:04Z</time>
      </trkpt>
      <trkpt lat="48.56767" lon="-3.5927">
        <ele>173.8</ele>
        <time>2020-06-10T14:55:05Z</time>
      </trkpt>
      <trkpt lat="48.56767" lon="-3.59265">
        <ele>174</ele>
        <time>2020-06-10T14:55:06Z</time>
      </trkpt>
      <trkpt lat="48.56767" lon="-3.59258">
        <ele>174.2</ele>
        <time>2020-06-10T14:55:07Z</time>
      </trkpt>
      <trkpt lat="48.56767" lon="-3.59253">
        <ele>174.4</ele>
        <time>2020-06-10T14:55:08Z</time>
      </trkpt>
      <trkpt lat="48.56767" lon="-3.59247">
        <ele>174.6</ele>
        <time>2020-06-10T14:55:09Z</time>
      </trkpt>
      <trkpt lat="48.56767" lon="-3.5924">
        <ele>174.9</ele>
        <time>2020-06-10T14:55:10Z</time>
      </trkpt>
      <trkpt lat="48.56766" lon="-3.59233">
        <ele>175.1</ele>
        <time>2020-06-10T14:55:11Z</time>
      </trkpt>
      <trkpt lat="48.56766" lon="-3.59226">
        <ele>175.3</ele>
        <time>2020-06-10T14:55:12Z</time>
      </trkpt>
      <trkpt lat="48.56765" lon="-3.59219">
        <ele>175.6</ele>
        <time>2020-06-10T14:55:13Z</time>
      </trkpt>
      <trkpt lat="48.56764" lon="-3.59213">
        <ele>175.7</ele>
        <time>2020-06-10T14:55:14Z</time>
      </trkpt>
      <trkpt lat="48.56765" lon="-3.59207">
        <ele>175.9</ele>
        <time>2020-06-10T14:55:15Z</time>
      </trkpt>
      <trkpt lat="48.56765" lon="-3.59201">
        <ele>176.2</ele>
        <time>2020-06-10T14:55:16Z</time>
      </trkpt>
      <trkpt lat="48.56764" lon="-3.59196">
        <ele>176.3</ele>
        <time>2020-06-10T14:55:17Z</time>
      </trkpt>
      <trkpt lat="48.56764" lon="-3.5919">
        <ele>176.6</ele>
        <time>2020-06-10T14:55:18Z</time>
      </trkpt>
      <trkpt lat="48.56764" lon="-3.59181">
        <ele>176.8</ele>
        <time>2020-06-10T14:55:19Z</time>
      </trkpt>
      <trkpt lat="48.56764" lon="-3.59177">
        <ele>177</ele>
        <time>2020-06-10T14:55:20Z</time>
      </trkpt>
      <trkpt lat="48.56764" lon="-3.5917">
        <ele>177.2</ele>
        <time>2020-06-10T14:55:21Z</time>
      </trkpt>
      <trkpt lat="48.56764" lon="-3.59164">
        <ele>177.4</ele>
        <time>2020-06-10T14:55:22Z</time>
      </trkpt>
      <trkpt lat="48.56764" lon="-3.59157">
        <ele>177.7</ele>
        <time>2020-06-10T14:55:23Z</time>
      </trkpt>
      <trkpt lat="48.56763" lon="-3.5915">
        <ele>178</ele>
        <time>2020-06-10T14:55:24Z</time>
      </trkpt>
      <trkpt lat="48.56764" lon="-3.59146">
        <ele>178.2</ele>
        <time>2020-06-10T14:55:25Z</time>
      </trkpt>
      <trkpt lat="48.56763" lon="-3.5914">
        <ele>178.4</ele>
        <time>2020-06-10T14:55:26Z</time>
      </trkpt>
      <trkpt lat="48.56763" lon="-3.59134">
        <ele>178.7</ele>
        <time>2020-06-10T14:55:27Z</time>
      </trkpt>
      <trkpt lat="48.56763" lon="-3.5913">
        <ele>178.9</ele>
        <time>2020-06-10T14:55:28Z</time>
      </trkpt>
      <trkpt lat="48.56762" lon="-3.59124">
        <ele>179.1</ele>
        <time>2020-06-10T14:55:29Z</time>
      </trkpt>
      <trkpt lat="48.56762" lon="-3.59119">
        <ele>179.4</ele>
        <time>2020-06-10T14:55:30Z</time>
      </trkpt>
      <trkpt lat="48.56762" lon="-3.59114">
        <ele>179.6</ele>
        <time>2020-06-10T14:55:31Z</time>
      </trkpt>
      <trkpt lat="48.56762" lon="-3.59108">
        <ele>179.9</ele>
        <time>2020-06-10T14:55:32Z</time>
      </trkpt>
      <trkpt lat="48.56762" lon="-3.59101">
        <ele>180.3</ele>
        <time>2020-06-10T14:55:33Z</time>
      </trkpt>
      <trkpt lat="48.56762" lon="-3.59095">
        <ele>180.6</ele>
        <time>2020-06-10T14:55:34Z</time>
      </trkpt>
      <trkpt lat="48.56762" lon="-3.59087">
        <ele>181.1</ele>
        <time>2020-06-10T14:55:35Z</time>
      </trkpt>
      <trkpt lat="48.56762" lon="-3.5908">
        <ele>181.4</ele>
        <time>2020-06-10T14:55:36Z</time>
      </trkpt>
      <trkpt lat="48.56762" lon="-3.59075">
        <ele>181.7</ele>
        <time>2020-06-10T14:55:37Z</time>
      </trkpt>
      <trkpt lat="48.56763" lon="-3.59071">
        <ele>181.9</ele>
        <time>2020-06-10T14:55:38Z</time>
      </trkpt>
      <trkpt lat="48.56764" lon="-3.59063">
        <ele>182.3</ele>
        <time>2020-06-10T14:55:39Z</time>
      </trkpt>
      <trkpt lat="48.56764" lon="-3.59058">
        <ele>182.6</ele>
        <time>2020-06-10T14:55:40Z</time>
      </trkpt>
      <trkpt lat="48.56764" lon="-3.59054">
        <ele>182.8</ele>
        <time>2020-06-10T14:55:41Z</time>
      </trkpt>
      <trkpt lat="48.56764" lon="-3.5905">
        <ele>183</ele>
        <time>2020-06-10T14:55:42Z</time>
      </trkpt>
      <trkpt lat="48.56764" lon="-3.59044">
        <ele>183.3</ele>
        <time>2020-06-10T14:55:43Z</time>
      </trkpt>
      <trkpt lat="48.56764" lon="-3.59038">
        <ele>183.6</ele>
        <time>2020-06-10T14:55:44Z</time>
      </trkpt>
      <trkpt lat="48.56764" lon="-3.59031">
        <ele>184</ele>
        <time>2020-06-10T14:55:45Z</time>
      </trkpt>
      <trkpt lat="48.56764" lon="-3.59027">
        <ele>184.3</ele>
        <time>2020-06-10T14:55:46Z</time>
      </trkpt>
      <trkpt lat="48.56765" lon="-3.59022">
        <ele>184.5</ele>
        <time>2020-06-10T14:55:47Z</time>
      </trkpt>
      <trkpt lat="48.56764" lon="-3.59018">
        <ele>184.8</ele>
        <time>2020-06-10T14:55:48Z</time>
      </trkpt>
      <trkpt lat="48.56764" lon="-3.59013">
        <ele>185</ele>
        <time>2020-06-10T14:55:49Z</time>
      </trkpt>
      <trkpt lat="48.56763" lon="-3.59007">
        <ele>185.3</ele>
        <time>2020-06-10T14:55:50Z</time>
      </trkpt>
      <trkpt lat="48.56763" lon="-3.59002">
        <ele>185.6</ele>
        <time>2020-06-10T14:55:51Z</time>
      </trkpt>
      <trkpt lat="48.56763" lon="-3.58996">
        <ele>185.9</ele>
        <time>2020-06-10T14:55:52Z</time>
      </trkpt>
      <trkpt lat="48.56763" lon="-3.58994">
        <ele>186</ele>
        <time>2020-06-10T14:55:53Z</time>
      </trkpt>
      <trkpt lat="48.56762" lon="-3.58988">
        <ele>186.3</ele>
        <time>2020-06-10T14:55:54Z</time>
      </trkpt>
      <trkpt lat="48.56762" lon="-3.58982">
        <ele>186.6</ele>
        <time>2020-06-10T14:55:55Z</time>
      </trkpt>
      <trkpt lat="48.56762" lon="-3.58977">
        <ele>186.9</ele>
        <time>2020-06-10T14:55:56Z</time>
      </trkpt>
      <trkpt lat="48.56762" lon="-3.58971">
        <ele>187.1</ele>
        <time>2020-06-10T14:55:57Z</time>
      </trkpt>
      <trkpt lat="48.56761" lon="-3.58965">
        <ele>187.4</ele>
        <time>2020-06-10T14:55:58Z</time>
      </trkpt>
      <trkpt lat="48.56762" lon="-3.58961">
        <ele>187.6</ele>
        <time>2020-06-10T14:55:59Z</time>
      </trkpt>
      <trkpt lat="48.56762" lon="-3.58956">
        <ele>187.8</ele>
        <time>2020-06-10T14:56:00Z</time>
      </trkpt>
      <trkpt lat="48.56761" lon="-3.58951">
        <ele>188</ele>
        <time>2020-06-10T14:56:01Z</time>
      </trkpt>
      <trkpt lat="48.56761" lon="-3.58946">
        <ele>188.2</ele>
        <time>2020-06-10T14:56:02Z</time>
      </trkpt>
      <trkpt lat="48.5676" lon="-3.5894">
        <ele>188.4</ele>
        <time>2020-06-10T14:56:03Z</time>
      </trkpt>
      <trkpt lat="48.5676" lon="-3.58935">
        <ele>188.6</ele>
        <time>2020-06-10T14:56:04Z</time>
      </trkpt>
      <trkpt lat="48.5676" lon="-3.58929">
        <ele>188.8</ele>
        <time>2020-06-10T14:56:05Z</time>
      </trkpt>
      <trkpt lat="48.5676" lon="-3.58922">
        <ele>189</ele>
        <time>2020-06-10T14:56:06Z</time>
      </trkpt>
      <trkpt lat="48.5676" lon="-3.5892">
        <ele>189.1</ele>
        <time>2020-06-10T14:56:07Z</time>
      </trkpt>
      <trkpt lat="48.5676" lon="-3.58915">
        <ele>189.2</ele>
        <time>2020-06-10T14:56:08Z</time>
      </trkpt>
      <trkpt lat="48.5676" lon="-3.58914">
        <ele>189.3</ele>
        <time>2020-06-10T14:56:09Z</time>
      </trkpt>
      <trkpt lat="48.56759" lon="-3.5891">
        <ele>189.4</ele>
        <time>2020-06-10T14:56:10Z</time>
      </trkpt>
      <trkpt lat="48.56759" lon="-3.58904">
        <ele>189.5</ele>
        <time>2020-06-10T14:56:11Z</time>
      </trkpt>
      <trkpt lat="48.56759" lon="-3.58902">
        <ele>189.5</ele>
        <time>2020-06-10T14:56:12Z</time>
      </trkpt>
      <trkpt lat="48.56759" lon="-3.58898">
        <ele>189.6</ele>
        <time>2020-06-10T14:56:13Z</time>
      </trkpt>
      <trkpt lat="48.56758" lon="-3.58892">
        <ele>189.6</ele>
        <time>2020-06-10T14:56:14Z</time>
      </trkpt>
      <trkpt lat="48.56758" lon="-3.5889">
        <ele>189.6</ele>
        <time>2020-06-10T14:56:15Z</time>
      </trkpt>
      <trkpt lat="48.56758" lon="-3.58883">
        <ele>189.6</ele>
        <time>2020-06-10T14:56:16Z</time>
      </trkpt>
      <trkpt lat="48.56758" lon="-3.5888">
        <ele>189.6</ele>
        <time>2020-06-10T14:56:17Z</time>
      </trkpt>
      <trkpt lat="48.56757" lon="-3.58876">
        <ele>189.6</ele>
        <time>2020-06-10T14:56:18Z</time>
      </trkpt>
      <trkpt lat="48.56756" lon="-3.58871">
        <ele>189.5</ele>
        <time>2020-06-10T14:56:19Z</time>
      </trkpt>
      <trkpt lat="48.56755" lon="-3.58866">
        <ele>189.5</ele>
        <time>2020-06-10T14:56:20Z</time>
      </trkpt>
      <trkpt lat="48.56755" lon="-3.58864">
        <ele>189.5</ele>
        <time>2020-06-10T14:56:21Z</time>
      </trkpt>
      <trkpt lat="48.56754" lon="-3.58859">
        <ele>189.4</ele>
        <time>2020-06-10T14:56:22Z</time>
      </trkpt>
      <trkpt lat="48.56755" lon="-3.58852">
        <ele>189.5</ele>
        <time>2020-06-10T14:56:23Z</time>
      </trkpt>
      <trkpt lat="48.56754" lon="-3.5885">
        <ele>189.6</ele>
        <time>2020-06-10T14:56:24Z</time>
      </trkpt>
      <trkpt lat="48.56754" lon="-3.58844">
        <ele>189.6</ele>
        <time>2020-06-10T14:56:25Z</time>
      </trkpt>
      <trkpt lat="48.56754" lon="-3.58843">
        <ele>189.6</ele>
        <time>2020-06-10T14:56:26Z</time>
      </trkpt>
      <trkpt lat="48.56753" lon="-3.58838">
        <ele>189.6</ele>
        <time>2020-06-10T14:56:27Z</time>
      </trkpt>
      <trkpt lat="48.56752" lon="-3.58831">
        <ele>189.7</ele>
        <time>2020-06-10T14:56:28Z</time>
      </trkpt>
      <trkpt lat="48.56752" lon="-3.58828">
        <ele>189.7</ele>
        <time>2020-06-10T14:56:29Z</time>
      </trkpt>
      <trkpt lat="48.56752" lon="-3.58822">
        <ele>189.6</ele>
        <time>2020-06-10T14:56:30Z</time>
      </trkpt>
      <trkpt lat="48.56751" lon="-3.58818">
        <ele>189.6</ele>
        <time>2020-06-10T14:56:31Z</time>
      </trkpt>
      <trkpt lat="48.5675" lon="-3.58814">
        <ele>189.5</ele>
        <time>2020-06-10T14:56:32Z</time>
      </trkpt>
      <trkpt lat="48.56749" lon="-3.58809">
        <ele>189.5</ele>
        <time>2020-06-10T14:56:33Z</time>
      </trkpt>
      <trkpt lat="48.56749" lon="-3.58804">
        <ele>189.4</ele>
        <time>2020-06-10T14:56:34Z</time>
      </trkpt>
      <trkpt lat="48.56748" lon="-3.588">
        <ele>189.4</ele>
        <time>2020-06-10T14:56:35Z</time>
      </trkpt>
      <trkpt lat="48.56748" lon="-3.58792">
        <ele>189.2</ele>
        <time>2020-06-10T14:56:36Z</time>
      </trkpt>
      <trkpt lat="48.56747" lon="-3.58784">
        <ele>189</ele>
        <time>2020-06-10T14:56:37Z</time>
      </trkpt>
      <trkpt lat="48.56746" lon="-3.58779">
        <ele>188.9</ele>
        <time>2020-06-10T14:56:38Z</time>
      </trkpt>
      <trkpt lat="48.56746" lon="-3.58772">
        <ele>188.7</ele>
        <time>2020-06-10T14:56:39Z</time>
      </trkpt>
      <trkpt lat="48.56746" lon="-3.58764">
        <ele>188.6</ele>
        <time>2020-06-10T14:56:40Z</time>
      </trkpt>
      <trkpt lat="48.56746" lon="-3.58756">
        <ele>188.4</ele>
        <time>2020-06-10T14:56:41Z</time>
      </trkpt>
      <trkpt lat="48.56746" lon="-3.58747">
        <ele>188.1</ele>
        <time>2020-06-10T14:56:42Z</time>
      </trkpt>
      <trkpt lat="48.56746" lon="-3.58739">
        <ele>187.9</ele>
        <time>2020-06-10T14:56:43Z</time>
      </trkpt>
      <trkpt lat="48.56745" lon="-3.5873">
        <ele>187.7</ele>
        <time>2020-06-10T14:56:44Z</time>
      </trkpt>
      <trkpt lat="48.56745" lon="-3.58721">
        <ele>187.4</ele>
        <time>2020-06-10T14:56:45Z</time>
      </trkpt>
      <trkpt lat="48.56744" lon="-3.5871">
        <ele>187</ele>
        <time>2020-06-10T14:56:46Z</time>
      </trkpt>
      <trkpt lat="48.56744" lon="-3.58697">
        <ele>186.5</ele>
        <time>2020-06-10T14:56:47Z</time>
      </trkpt>
      <trkpt lat="48.56744" lon="-3.58685">
        <ele>186</ele>
        <time>2020-06-10T14:56:48Z</time>
      </trkpt>
      <trkpt lat="48.56743" lon="-3.58672">
        <ele>185.5</ele>
        <time>2020-06-10T14:56:49Z</time>
      </trkpt>
      <trkpt lat="48.56742" lon="-3.58659">
        <ele>185</ele>
        <time>2020-06-10T14:56:50Z</time>
      </trkpt>
      <trkpt lat="48.56743" lon="-3.58645">
        <ele>184.4</ele>
        <time>2020-06-10T14:56:51Z</time>
      </trkpt>
      <trkpt lat="48.56742" lon="-3.58631">
        <ele>183.8</ele>
        <time>2020-06-10T14:56:52Z</time>
      </trkpt>
      <trkpt lat="48.56741" lon="-3.58617">
        <ele>183.2</ele>
        <time>2020-06-10T14:56:53Z</time>
      </trkpt>
      <trkpt lat="48.56741" lon="-3.58601">
        <ele>182.6</ele>
        <time>2020-06-10T14:56:54Z</time>
      </trkpt>
      <trkpt lat="48.5674" lon="-3.58585">
        <ele>182.2</ele>
        <time>2020-06-10T14:56:55Z</time>
      </trkpt>
      <trkpt lat="48.56739" lon="-3.58569">
        <ele>181.7</ele>
        <time>2020-06-10T14:56:56Z</time>
      </trkpt>
      <trkpt lat="48.56739" lon="-3.58553">
        <ele>181.3</ele>
        <time>2020-06-10T14:56:57Z</time>
      </trkpt>
      <trkpt lat="48.56738" lon="-3.58537">
        <ele>180.9</ele>
        <time>2020-06-10T14:56:58Z</time>
      </trkpt>
      <trkpt lat="48.56737" lon="-3.5852">
        <ele>180.6</ele>
        <time>2020-06-10T14:56:59Z</time>
      </trkpt>
      <trkpt lat="48.56736" lon="-3.58503">
        <ele>180.3</ele>
        <time>2020-06-10T14:57:00Z</time>
      </trkpt>
      <trkpt lat="48.56735" lon="-3.58486">
        <ele>180</ele>
        <time>2020-06-10T14:57:01Z</time>
      </trkpt>
      <trkpt lat="48.56734" lon="-3.5847">
        <ele>179.6</ele>
        <time>2020-06-10T14:57:02Z</time>
      </trkpt>
      <trkpt lat="48.56733" lon="-3.58452">
        <ele>179.3</ele>
        <time>2020-06-10T14:57:03Z</time>
      </trkpt>
      <trkpt lat="48.56732" lon="-3.58435">
        <ele>179</ele>
        <time>2020-06-10T14:57:04Z</time>
      </trkpt>
      <trkpt lat="48.56732" lon="-3.58418">
        <ele>178.6</ele>
        <time>2020-06-10T14:57:05Z</time>
      </trkpt>
      <trkpt lat="48.56731" lon="-3.58401">
        <ele>178.2</ele>
        <time>2020-06-10T14:57:06Z</time>
      </trkpt>
      <trkpt lat="48.5673" lon="-3.58383">
        <ele>177.7</ele>
        <time>2020-06-10T14:57:07Z</time>
      </trkpt>
      <trkpt lat="48.56729" lon="-3.58366">
        <ele>177.4</ele>
        <time>2020-06-10T14:57:08Z</time>
      </trkpt>
      <trkpt lat="48.56728" lon="-3.58347">
        <ele>177.2</ele>
        <time>2020-06-10T14:57:09Z</time>
      </trkpt>
      <trkpt lat="48.56727" lon="-3.58329">
        <ele>177</ele>
        <time>2020-06-10T14:57:10Z</time>
      </trkpt>
      <trkpt lat="48.56727" lon="-3.58311">
        <ele>176.9</ele>
        <time>2020-06-10T14:57:11Z</time>
      </trkpt>
      <trkpt lat="48.56726" lon="-3.58294">
        <ele>176.9</ele>
        <time>2020-06-10T14:57:12Z</time>
      </trkpt>
      <trkpt lat="48.56725" lon="-3.58276">
        <ele>177</ele>
        <time>2020-06-10T14:57:13Z</time>
      </trkpt>
      <trkpt lat="48.56723" lon="-3.58259">
        <ele>177.4</ele>
        <time>2020-06-10T14:57:14Z</time>
      </trkpt>
      <trkpt lat="48.56723" lon="-3.58242">
        <ele>177.9</ele>
        <time>2020-06-10T14:57:15Z</time>
      </trkpt>
      <trkpt lat="48.56722" lon="-3.58226">
        <ele>178.4</ele>
        <time>2020-06-10T14:57:16Z</time>
      </trkpt>
      <trkpt lat="48.56721" lon="-3.58211">
        <ele>179.1</ele>
        <time>2020-06-10T14:57:17Z</time>
      </trkpt>
      <trkpt lat="48.5672" lon="-3.58196">
        <ele>179.8</ele>
        <time>2020-06-10T14:57:18Z</time>
      </trkpt>
      <trkpt lat="48.56719" lon="-3.58181">
        <ele>180.6</ele>
        <time>2020-06-10T14:57:19Z</time>
      </trkpt>
      <trkpt lat="48.56718" lon="-3.58168">
        <ele>181.4</ele>
        <time>2020-06-10T14:57:20Z</time>
      </trkpt>
      <trkpt lat="48.56717" lon="-3.58155">
        <ele>182.2</ele>
        <time>2020-06-10T14:57:21Z</time>
      </trkpt>
      <trkpt lat="48.56715" lon="-3.58144">
        <ele>183</ele>
        <time>2020-06-10T14:57:22Z</time>
      </trkpt>
      <trkpt lat="48.56715" lon="-3.58133">
        <ele>183.7</ele>
        <time>2020-06-10T14:57:23Z</time>
      </trkpt>
      <trkpt lat="48.56714" lon="-3.58122">
        <ele>184.4</ele>
        <time>2020-06-10T14:57:24Z</time>
      </trkpt>
      <trkpt lat="48.56714" lon="-3.58113">
        <ele>185</ele>
        <time>2020-06-10T14:57:25Z</time>
      </trkpt>
      <trkpt lat="48.56714" lon="-3.58104">
        <ele>185.5</ele>
        <time>2020-06-10T14:57:26Z</time>
      </trkpt>
      <trkpt lat="48.56713" lon="-3.58095">
        <ele>186</ele>
        <time>2020-06-10T14:57:27Z</time>
      </trkpt>
      <trkpt lat="48.56712" lon="-3.58087">
        <ele>186.4</ele>
        <time>2020-06-10T14:57:28Z</time>
      </trkpt>
      <trkpt lat="48.56712" lon="-3.5808">
        <ele>186.8</ele>
        <time>2020-06-10T14:57:29Z</time>
      </trkpt>
      <trkpt lat="48.56712" lon="-3.58072">
        <ele>187.2</ele>
        <time>2020-06-10T14:57:30Z</time>
      </trkpt>
      <trkpt lat="48.56711" lon="-3.58066">
        <ele>187.5</ele>
        <time>2020-06-10T14:57:31Z</time>
      </trkpt>
      <trkpt lat="48.56711" lon="-3.58059">
        <ele>187.8</ele>
        <time>2020-06-10T14:57:32Z</time>
      </trkpt>
      <trkpt lat="48.5671" lon="-3.58053">
        <ele>188.1</ele>
        <time>2020-06-10T14:57:33Z</time>
      </trkpt>
      <trkpt lat="48.5671" lon="-3.58047">
        <ele>188.4</ele>
        <time>2020-06-10T14:57:34Z</time>
      </trkpt>
      <trkpt lat="48.5671" lon="-3.58041">
        <ele>188.6</ele>
        <time>2020-06-10T14:57:35Z</time>
      </trkpt>
      <trkpt lat="48.56709" lon="-3.58035">
        <ele>188.9</ele>
        <time>2020-06-10T14:57:36Z</time>
      </trkpt>
      <trkpt lat="48.56709" lon="-3.5803">
        <ele>189.1</ele>
        <time>2020-06-10T14:57:37Z</time>
      </trkpt>
      <trkpt lat="48.56708" lon="-3.58025">
        <ele>189.3</ele>
        <time>2020-06-10T14:57:38Z</time>
      </trkpt>
      <trkpt lat="48.56707" lon="-3.58019">
        <ele>189.4</ele>
        <time>2020-06-10T14:57:39Z</time>
      </trkpt>
      <trkpt lat="48.56707" lon="-3.58014">
        <ele>189.6</ele>
        <time>2020-06-10T14:57:40Z</time>
      </trkpt>
      <trkpt lat="48.56707" lon="-3.58009">
        <ele>189.7</ele>
        <time>2020-06-10T14:57:41Z</time>
      </trkpt>
      <trkpt lat="48.56706" lon="-3.58004">
        <ele>189.9</ele>
        <time>2020-06-10T14:57:42Z</time>
      </trkpt>
      <trkpt lat="48.56706" lon="-3.57998">
        <ele>190</ele>
        <time>2020-06-10T14:57:43Z</time>
      </trkpt>
      <trkpt lat="48.56706" lon="-3.57993">
        <ele>190.2</ele>
        <time>2020-06-10T14:57:44Z</time>
      </trkpt>
      <trkpt lat="48.56706" lon="-3.57988">
        <ele>190.3</ele>
        <time>2020-06-10T14:57:45Z</time>
      </trkpt>
      <trkpt lat="48.56706" lon="-3.57983">
        <ele>190.4</ele>
        <time>2020-06-10T14:57:46Z</time>
      </trkpt>
      <trkpt lat="48.56706" lon="-3.57978">
        <ele>190.5</ele>
        <time>2020-06-10T14:57:47Z</time>
      </trkpt>
      <trkpt lat="48.56705" lon="-3.57973">
        <ele>190.6</ele>
        <time>2020-06-10T14:57:48Z</time>
      </trkpt>
      <trkpt lat="48.56705" lon="-3.57969">
        <ele>190.7</ele>
        <time>2020-06-10T14:57:49Z</time>
      </trkpt>
      <trkpt lat="48.56705" lon="-3.57964">
        <ele>190.8</ele>
        <time>2020-06-10T14:57:50Z</time>
      </trkpt>
      <trkpt lat="48.56704" lon="-3.57959">
        <ele>190.9</ele>
        <time>2020-06-10T14:57:51Z</time>
      </trkpt>
      <trkpt lat="48.56704" lon="-3.57955">
        <ele>191</ele>
        <time>2020-06-10T14:57:52Z</time>
      </trkpt>
      <trkpt lat="48.56705" lon="-3.5795">
        <ele>191.1</ele>
        <time>2020-06-10T14:57:53Z</time>
      </trkpt>
      <trkpt lat="48.56704" lon="-3.57946">
        <ele>191.2</ele>
        <time>2020-06-10T14:57:54Z</time>
      </trkpt>
      <trkpt lat="48.56704" lon="-3.57942">
        <ele>191.2</ele>
        <time>2020-06-10T14:57:55Z</time>
      </trkpt>
      <trkpt lat="48.56704" lon="-3.57937">
        <ele>191.3</ele>
        <time>2020-06-10T14:57:56Z</time>
      </trkpt>
      <trkpt lat="48.56704" lon="-3.57933">
        <ele>191.4</ele>
        <time>2020-06-10T14:57:57Z</time>
      </trkpt>
      <trkpt lat="48.56704" lon="-3.57929">
        <ele>191.4</ele>
        <time>2020-06-10T14:57:58Z</time>
      </trkpt>
      <trkpt lat="48.56703" lon="-3.57924">
        <ele>191.5</ele>
        <time>2020-06-10T14:57:59Z</time>
      </trkpt>
      <trkpt lat="48.56704" lon="-3.5792">
        <ele>191.6</ele>
        <time>2020-06-10T14:58:00Z</time>
      </trkpt>
      <trkpt lat="48.56703" lon="-3.57914">
        <ele>191.6</ele>
        <time>2020-06-10T14:58:01Z</time>
      </trkpt>
      <trkpt lat="48.56703" lon="-3.57912">
        <ele>191.6</ele>
        <time>2020-06-10T14:58:02Z</time>
      </trkpt>
      <trkpt lat="48.56703" lon="-3.57909">
        <ele>191.7</ele>
        <time>2020-06-10T14:58:03Z</time>
      </trkpt>
      <trkpt lat="48.56704" lon="-3.57907">
        <ele>191.7</ele>
        <time>2020-06-10T14:58:04Z</time>
      </trkpt>
      <trkpt lat="48.56703" lon="-3.57906">
        <ele>191.7</ele>
        <time>2020-06-10T14:58:05Z</time>
      </trkpt>
      <trkpt lat="48.56702" lon="-3.57905">
        <ele>191.7</ele>
        <time>2020-06-10T14:58:06Z</time>
      </trkpt>
      <trkpt lat="48.56702" lon="-3.57905">
        <ele>191.7</ele>
        <time>2020-06-10T14:58:07Z</time>
      </trkpt>
      <trkpt lat="48.56701" lon="-3.57905">
        <ele>191.7</ele>
        <time>2020-06-10T14:58:08Z</time>
      </trkpt>
      <trkpt lat="48.56701" lon="-3.57904">
        <ele>191.7</ele>
        <time>2020-06-10T14:58:09Z</time>
      </trkpt>
      <trkpt lat="48.56701" lon="-3.57904">
        <ele>191.7</ele>
        <time>2020-06-10T14:58:10Z</time>
      </trkpt>
      <trkpt lat="48.567" lon="-3.57903">
        <ele>191.7</ele>
        <time>2020-06-10T14:58:11Z</time>
      </trkpt>
      <trkpt lat="48.567" lon="-3.57903">
        <ele>191.7</ele>
        <time>2020-06-10T14:58:12Z</time>
      </trkpt>
      <trkpt lat="48.567" lon="-3.57902">
        <ele>191.7</ele>
        <time>2020-06-10T14:58:13Z</time>
      </trkpt>
      <trkpt lat="48.56699" lon="-3.57902">
        <ele>191.7</ele>
        <time>2020-06-10T14:58:14Z</time>
      </trkpt>
      <trkpt lat="48.56699" lon="-3.57901">
        <ele>191.7</ele>
        <time>2020-06-10T14:58:15Z</time>
      </trkpt>
      <trkpt lat="48.56698" lon="-3.57901">
        <ele>191.7</ele>
        <time>2020-06-10T14:58:16Z</time>
      </trkpt>
      <trkpt lat="48.56698" lon="-3.579">
        <ele>191.7</ele>
        <time>2020-06-10T14:58:25Z</time>
      </trkpt>
      <trkpt lat="48.56698" lon="-3.579">
        <ele>191.7</ele>
        <time>2020-06-10T14:58:26Z</time>
      </trkpt>
      <trkpt lat="48.56697" lon="-3.579">
        <ele>191.7</ele>
        <time>2020-06-10T14:58:27Z</time>
      </trkpt>
      <trkpt lat="48.56698" lon="-3.57894">
        <ele>191.7</ele>
        <time>2020-06-10T14:58:28Z</time>
      </trkpt>
      <trkpt lat="48.56698" lon="-3.57892">
        <ele>191.7</ele>
        <time>2020-06-10T14:58:29Z</time>
      </trkpt>
      <trkpt lat="48.56698" lon="-3.57886">
        <ele>191.8</ele>
        <time>2020-06-10T14:58:30Z</time>
      </trkpt>
      <trkpt lat="48.56698" lon="-3.57884">
        <ele>191.8</ele>
        <time>2020-06-10T14:58:31Z</time>
      </trkpt>
      <trkpt lat="48.56699" lon="-3.57879">
        <ele>191.8</ele>
        <time>2020-06-10T14:58:32Z</time>
      </trkpt>
      <trkpt lat="48.567" lon="-3.57875">
        <ele>191.8</ele>
        <time>2020-06-10T14:58:33Z</time>
      </trkpt>
      <trkpt lat="48.567" lon="-3.5787">
        <ele>191.8</ele>
        <time>2020-06-10T14:58:34Z</time>
      </trkpt>
      <trkpt lat="48.567" lon="-3.57865">
        <ele>191.8</ele>
        <time>2020-06-10T14:58:35Z</time>
      </trkpt>
      <trkpt lat="48.567" lon="-3.57859">
        <ele>191.8</ele>
        <time>2020-06-10T14:58:36Z</time>
      </trkpt>
      <trkpt lat="48.567" lon="-3.57854">
        <ele>191.8</ele>
        <time>2020-06-10T14:58:37Z</time>
      </trkpt>
      <trkpt lat="48.567" lon="-3.57849">
        <ele>191.8</ele>
        <time>2020-06-10T14:58:38Z</time>
      </trkpt>
      <trkpt lat="48.567" lon="-3.57843">
        <ele>191.8</ele>
        <time>2020-06-10T14:58:39Z</time>
      </trkpt>
      <trkpt lat="48.567" lon="-3.57838">
        <ele>191.8</ele>
        <time>2020-06-10T14:58:40Z</time>
      </trkpt>
      <trkpt lat="48.567" lon="-3.57833">
        <ele>191.8</ele>
        <time>2020-06-10T14:58:41Z</time>
      </trkpt>
      <trkpt lat="48.56699" lon="-3.57828">
        <ele>191.8</ele>
        <time>2020-06-10T14:58:42Z</time>
      </trkpt>
      <trkpt lat="48.56699" lon="-3.57823">
        <ele>191.8</ele>
        <time>2020-06-10T14:58:43Z</time>
      </trkpt>
      <trkpt lat="48.56699" lon="-3.57818">
        <ele>191.8</ele>
        <time>2020-06-10T14:58:44Z</time>
      </trkpt>
      <trkpt lat="48.56698" lon="-3.57813">
        <ele>191.7</ele>
        <time>2020-06-10T14:58:45Z</time>
      </trkpt>
      <trkpt lat="48.56699" lon="-3.57807">
        <ele>191.7</ele>
        <time>2020-06-10T14:58:46Z</time>
      </trkpt>
      <trkpt lat="48.56698" lon="-3.57802">
        <ele>191.7</ele>
        <time>2020-06-10T14:58:47Z</time>
      </trkpt>
      <trkpt lat="48.56698" lon="-3.57796">
        <ele>191.7</ele>
        <time>2020-06-10T14:58:48Z</time>
      </trkpt>
      <trkpt lat="48.56698" lon="-3.57791">
        <ele>191.7</ele>
        <time>2020-06-10T14:58:49Z</time>
      </trkpt>
      <trkpt lat="48.56697" lon="-3.57785">
        <ele>191.6</ele>
        <time>2020-06-10T14:58:50Z</time>
      </trkpt>
      <trkpt lat="48.56696" lon="-3.57779">
        <ele>191.6</ele>
        <time>2020-06-10T14:58:51Z</time>
      </trkpt>
      <trkpt lat="48.56696" lon="-3.57774">
        <ele>191.6</ele>
        <time>2020-06-10T14:58:52Z</time>
      </trkpt>
      <trkpt lat="48.56696" lon="-3.57768">
        <ele>191.6</ele>
        <time>2020-06-10T14:58:53Z</time>
      </trkpt>
      <trkpt lat="48.56695" lon="-3.57761">
        <ele>191.6</ele>
        <time>2020-06-10T14:58:54Z</time>
      </trkpt>
      <trkpt lat="48.56695" lon="-3.57754">
        <ele>191.5</ele>
        <time>2020-06-10T14:58:55Z</time>
      </trkpt>
      <trkpt lat="48.56694" lon="-3.57747">
        <ele>191.5</ele>
        <time>2020-06-10T14:58:56Z</time>
      </trkpt>
      <trkpt lat="48.56694" lon="-3.57739">
        <ele>191.5</ele>
        <time>2020-06-10T14:58:57Z</time>
      </trkpt>
      <trkpt lat="48.56694" lon="-3.57732">
        <ele>191.5</ele>
        <time>2020-06-10T14:58:58Z</time>
      </trkpt>
      <trkpt lat="48.56694" lon="-3.57724">
        <ele>191.6</ele>
        <time>2020-06-10T14:58:59Z</time>
      </trkpt>
      <trkpt lat="48.56693" lon="-3.57716">
        <ele>191.5</ele>
        <time>2020-06-10T14:59:00Z</time>
      </trkpt>
      <trkpt lat="48.56693" lon="-3.57708">
        <ele>191.5</ele>
        <time>2020-06-10T14:59:01Z</time>
      </trkpt>
      <trkpt lat="48.56693" lon="-3.577">
        <ele>191.5</ele>
        <time>2020-06-10T14:59:02Z</time>
      </trkpt>
      <trkpt lat="48.56694" lon="-3.57692">
        <ele>191.5</ele>
        <time>2020-06-10T14:59:03Z</time>
      </trkpt>
      <trkpt lat="48.56695" lon="-3.57685">
        <ele>191.6</ele>
        <time>2020-06-10T14:59:04Z</time>
      </trkpt>
      <trkpt lat="48.56695" lon="-3.57677">
        <ele>191.6</ele>
        <time>2020-06-10T14:59:05Z</time>
      </trkpt>
      <trkpt lat="48.56695" lon="-3.5767">
        <ele>191.7</ele>
        <time>2020-06-10T14:59:06Z</time>
      </trkpt>
      <trkpt lat="48.56694" lon="-3.57662">
        <ele>191.7</ele>
        <time>2020-06-10T14:59:07Z</time>
      </trkpt>
      <trkpt lat="48.56694" lon="-3.57655">
        <ele>191.8</ele>
        <time>2020-06-10T14:59:08Z</time>
      </trkpt>
      <trkpt lat="48.56692" lon="-3.57647">
        <ele>191.9</ele>
        <time>2020-06-10T14:59:09Z</time>
      </trkpt>
      <trkpt lat="48.56691" lon="-3.5764">
        <ele>192</ele>
        <time>2020-06-10T14:59:10Z</time>
      </trkpt>
      <trkpt lat="48.56691" lon="-3.57632">
        <ele>192.1</ele>
        <time>2020-06-10T14:59:11Z</time>
      </trkpt>
      <trkpt lat="48.5669" lon="-3.57624">
        <ele>192.2</ele>
        <time>2020-06-10T14:59:12Z</time>
      </trkpt>
      <trkpt lat="48.5669" lon="-3.57616">
        <ele>192.2</ele>
        <time>2020-06-10T14:59:13Z</time>
      </trkpt>
      <trkpt lat="48.5669" lon="-3.57608">
        <ele>192.3</ele>
        <time>2020-06-10T14:59:14Z</time>
      </trkpt>
      <trkpt lat="48.5669" lon="-3.576">
        <ele>192.4</ele>
        <time>2020-06-10T14:59:15Z</time>
      </trkpt>
      <trkpt lat="48.5669" lon="-3.57592">
        <ele>192.4</ele>
        <time>2020-06-10T14:59:16Z</time>
      </trkpt>
      <trkpt lat="48.5669" lon="-3.57585">
        <ele>192.5</ele>
        <time>2020-06-10T14:59:17Z</time>
      </trkpt>
      <trkpt lat="48.56689" lon="-3.57577">
        <ele>192.6</ele>
        <time>2020-06-10T14:59:18Z</time>
      </trkpt>
      <trkpt lat="48.56688" lon="-3.5757">
        <ele>192.7</ele>
        <time>2020-06-10T14:59:19Z</time>
      </trkpt>
      <trkpt lat="48.56687" lon="-3.57563">
        <ele>192.8</ele>
        <time>2020-06-10T14:59:20Z</time>
      </trkpt>
      <trkpt lat="48.56687" lon="-3.57556">
        <ele>192.9</ele>
        <time>2020-06-10T14:59:21Z</time>
      </trkpt>
      <trkpt lat="48.56686" lon="-3.57549">
        <ele>193</ele>
        <time>2020-06-10T14:59:22Z</time>
      </trkpt>
      <trkpt lat="48.56686" lon="-3.57541">
        <ele>193.1</ele>
        <time>2020-06-10T14:59:23Z</time>
      </trkpt>
      <trkpt lat="48.56685" lon="-3.57533">
        <ele>193.2</ele>
        <time>2020-06-10T14:59:24Z</time>
      </trkpt>
      <trkpt lat="48.56684" lon="-3.57525">
        <ele>193.3</ele>
        <time>2020-06-10T14:59:25Z</time>
      </trkpt>
      <trkpt lat="48.56684" lon="-3.57517">
        <ele>193.4</ele>
        <time>2020-06-10T14:59:26Z</time>
      </trkpt>
      <trkpt lat="48.56684" lon="-3.5751">
        <ele>193.5</ele>
        <time>2020-06-10T14:59:27Z</time>
      </trkpt>
      <trkpt lat="48.56685" lon="-3.57502">
        <ele>193.6</ele>
        <time>2020-06-10T14:59:28Z</time>
      </trkpt>
      <trkpt lat="48.56684" lon="-3.57494">
        <ele>193.7</ele>
        <time>2020-06-10T14:59:29Z</time>
      </trkpt>
      <trkpt lat="48.56684" lon="-3.57487">
        <ele>193.8</ele>
        <time>2020-06-10T14:59:30Z</time>
      </trkpt>
      <trkpt lat="48.56683" lon="-3.5748">
        <ele>194</ele>
        <time>2020-06-10T14:59:31Z</time>
      </trkpt>
      <trkpt lat="48.56683" lon="-3.57473">
        <ele>194.1</ele>
        <time>2020-06-10T14:59:32Z</time>
      </trkpt>
      <trkpt lat="48.56683" lon="-3.57466">
        <ele>194.2</ele>
        <time>2020-06-10T14:59:33Z</time>
      </trkpt>
      <trkpt lat="48.56683" lon="-3.57459">
        <ele>194.3</ele>
        <time>2020-06-10T14:59:34Z</time>
      </trkpt>
      <trkpt lat="48.56683" lon="-3.57452">
        <ele>194.3</ele>
        <time>2020-06-10T14:59:35Z</time>
      </trkpt>
      <trkpt lat="48.56683" lon="-3.57446">
        <ele>194.4</ele>
        <time>2020-06-10T14:59:36Z</time>
      </trkpt>
      <trkpt lat="48.56683" lon="-3.57439">
        <ele>194.4</ele>
        <time>2020-06-10T14:59:37Z</time>
      </trkpt>
      <trkpt lat="48.56683" lon="-3.57432">
        <ele>194.5</ele>
        <time>2020-06-10T14:59:38Z</time>
      </trkpt>
      <trkpt lat="48.56682" lon="-3.57426">
        <ele>194.5</ele>
        <time>2020-06-10T14:59:39Z</time>
      </trkpt>
      <trkpt lat="48.56682" lon="-3.5742">
        <ele>194.5</ele>
        <time>2020-06-10T14:59:40Z</time>
      </trkpt>
      <trkpt lat="48.56681" lon="-3.57414">
        <ele>194.5</ele>
        <time>2020-06-10T14:59:41Z</time>
      </trkpt>
      <trkpt lat="48.5668" lon="-3.57408">
        <ele>194.5</ele>
        <time>2020-06-10T14:59:42Z</time>
      </trkpt>
      <trkpt lat="48.5668" lon="-3.57403">
        <ele>194.5</ele>
        <time>2020-06-10T14:59:43Z</time>
      </trkpt>
      <trkpt lat="48.56679" lon="-3.57397">
        <ele>194.5</ele>
        <time>2020-06-10T14:59:44Z</time>
      </trkpt>
      <trkpt lat="48.56678" lon="-3.57391">
        <ele>194.5</ele>
        <time>2020-06-10T14:59:45Z</time>
      </trkpt>
      <trkpt lat="48.56678" lon="-3.57385">
        <ele>194.5</ele>
        <time>2020-06-10T14:59:46Z</time>
      </trkpt>
      <trkpt lat="48.56677" lon="-3.5738">
        <ele>194.5</ele>
        <time>2020-06-10T14:59:47Z</time>
      </trkpt>
      <trkpt lat="48.56677" lon="-3.57374">
        <ele>194.4</ele>
        <time>2020-06-10T14:59:48Z</time>
      </trkpt>
      <trkpt lat="48.56676" lon="-3.57368">
        <ele>194.4</ele>
        <time>2020-06-10T14:59:49Z</time>
      </trkpt>
      <trkpt lat="48.56675" lon="-3.57362">
        <ele>194.3</ele>
        <time>2020-06-10T14:59:50Z</time>
      </trkpt>
      <trkpt lat="48.56675" lon="-3.57356">
        <ele>194.2</ele>
        <time>2020-06-10T14:59:51Z</time>
      </trkpt>
      <trkpt lat="48.56675" lon="-3.5735">
        <ele>194.1</ele>
        <time>2020-06-10T14:59:52Z</time>
      </trkpt>
      <trkpt lat="48.56674" lon="-3.57344">
        <ele>194</ele>
        <time>2020-06-10T14:59:53Z</time>
      </trkpt>
      <trkpt lat="48.56673" lon="-3.57338">
        <ele>193.9</ele>
        <time>2020-06-10T14:59:54Z</time>
      </trkpt>
      <trkpt lat="48.56673" lon="-3.57332">
        <ele>193.8</ele>
        <time>2020-06-10T14:59:55Z</time>
      </trkpt>
      <trkpt lat="48.56672" lon="-3.57327">
        <ele>193.8</ele>
        <time>2020-06-10T14:59:56Z</time>
      </trkpt>
      <trkpt lat="48.56671" lon="-3.57323">
        <ele>193.7</ele>
        <time>2020-06-10T14:59:57Z</time>
      </trkpt>
      <trkpt lat="48.56671" lon="-3.57319">
        <ele>193.6</ele>
        <time>2020-06-10T14:59:58Z</time>
      </trkpt>
      <trkpt lat="48.56671" lon="-3.57316">
        <ele>193.6</ele>
        <time>2020-06-10T14:59:59Z</time>
      </trkpt>
      <trkpt lat="48.56671" lon="-3.57314">
        <ele>193.5</ele>
        <time>2020-06-10T15:00:00Z</time>
      </trkpt>
      <trkpt lat="48.56671" lon="-3.57314">
        <ele>193.5</ele>
        <time>2020-06-10T15:00:01Z</time>
      </trkpt>
      <trkpt lat="48.56671" lon="-3.57314">
        <ele>193.5</ele>
        <time>2020-06-10T15:00:02Z</time>
      </trkpt>
      <trkpt lat="48.5667" lon="-3.57314">
        <ele>193.5</ele>
        <time>2020-06-10T15:00:03Z</time>
      </trkpt>
      <trkpt lat="48.5667" lon="-3.57314">
        <ele>193.5</ele>
        <time>2020-06-10T15:00:04Z</time>
      </trkpt>
      <trkpt lat="48.5667" lon="-3.57313">
        <ele>193.5</ele>
        <time>2020-06-10T15:00:05Z</time>
      </trkpt>
      <trkpt lat="48.5667" lon="-3.57313">
        <ele>193.5</ele>
        <time>2020-06-10T15:00:06Z</time>
      </trkpt>
      <trkpt lat="48.5667" lon="-3.57313">
        <ele>193.5</ele>
        <time>2020-06-10T15:00:07Z</time>
      </trkpt>
      <trkpt lat="48.5667" lon="-3.57313">
        <ele>193.5</ele>
        <time>2020-06-10T15:00:08Z</time>
      </trkpt>
      <trkpt lat="48.5667" lon="-3.57313">
        <ele>193.5</ele>
        <time>2020-06-10T15:00:09Z</time>
      </trkpt>
      <trkpt lat="48.56669" lon="-3.57313">
        <ele>193.5</ele>
        <time>2020-06-10T15:00:10Z</time>
      </trkpt>
      <trkpt lat="48.56669" lon="-3.57312">
        <ele>193.5</ele>
        <time>2020-06-10T15:00:11Z</time>
      </trkpt>
      <trkpt lat="48.56675" lon="-3.57301">
        <ele>193.2</ele>
        <time>2020-06-10T15:00:47Z</time>
      </trkpt>
      <trkpt lat="48.56674" lon="-3.57296">
        <ele>193.1</ele>
        <time>2020-06-10T15:00:48Z</time>
      </trkpt>
      <trkpt lat="48.56673" lon="-3.57291">
        <ele>193</ele>
        <time>2020-06-10T15:00:49Z</time>
      </trkpt>
      <trkpt lat="48.56673" lon="-3.57285">
        <ele>192.9</ele>
        <time>2020-06-10T15:00:50Z</time>
      </trkpt>
      <trkpt lat="48.56673" lon="-3.57278">
        <ele>192.8</ele>
        <time>2020-06-10T15:00:51Z</time>
      </trkpt>
      <trkpt lat="48.56673" lon="-3.57272">
        <ele>192.6</ele>
        <time>2020-06-10T15:00:52Z</time>
      </trkpt>
      <trkpt lat="48.56673" lon="-3.57265">
        <ele>192.5</ele>
        <time>2020-06-10T15:00:53Z</time>
      </trkpt>
      <trkpt lat="48.56673" lon="-3.57258">
        <ele>192.3</ele>
        <time>2020-06-10T15:00:54Z</time>
      </trkpt>
      <trkpt lat="48.56673" lon="-3.5725">
        <ele>192.1</ele>
        <time>2020-06-10T15:00:55Z</time>
      </trkpt>
      <trkpt lat="48.56673" lon="-3.57242">
        <ele>191.9</ele>
        <time>2020-06-10T15:00:56Z</time>
      </trkpt>
      <trkpt lat="48.56673" lon="-3.57233">
        <ele>191.6</ele>
        <time>2020-06-10T15:00:57Z</time>
      </trkpt>
      <trkpt lat="48.56673" lon="-3.57224">
        <ele>191.3</ele>
        <time>2020-06-10T15:00:58Z</time>
      </trkpt>
      <trkpt lat="48.56673" lon="-3.57214">
        <ele>191</ele>
        <time>2020-06-10T15:00:59Z</time>
      </trkpt>
      <trkpt lat="48.56673" lon="-3.57204">
        <ele>190.6</ele>
        <time>2020-06-10T15:01:00Z</time>
      </trkpt>
      <trkpt lat="48.56674" lon="-3.57194">
        <ele>190.2</ele>
        <time>2020-06-10T15:01:01Z</time>
      </trkpt>
      <trkpt lat="48.56674" lon="-3.57183">
        <ele>189.8</ele>
        <time>2020-06-10T15:01:02Z</time>
      </trkpt>
      <trkpt lat="48.56675" lon="-3.57172">
        <ele>189.4</ele>
        <time>2020-06-10T15:01:03Z</time>
      </trkpt>
      <trkpt lat="48.56676" lon="-3.5716">
        <ele>188.9</ele>
        <time>2020-06-10T15:01:04Z</time>
      </trkpt>
      <trkpt lat="48.56677" lon="-3.57147">
        <ele>188.5</ele>
        <time>2020-06-10T15:01:05Z</time>
      </trkpt>
      <trkpt lat="48.56677" lon="-3.57135">
        <ele>188.1</ele>
        <time>2020-06-10T15:01:06Z</time>
      </trkpt>
      <trkpt lat="48.56678" lon="-3.57121">
        <ele>187.6</ele>
        <time>2020-06-10T15:01:07Z</time>
      </trkpt>
      <trkpt lat="48.56678" lon="-3.57108">
        <ele>187.2</ele>
        <time>2020-06-10T15:01:08Z</time>
      </trkpt>
      <trkpt lat="48.56678" lon="-3.57094">
        <ele>186.7</ele>
        <time>2020-06-10T15:01:09Z</time>
      </trkpt>
      <trkpt lat="48.56678" lon="-3.5708">
        <ele>186.2</ele>
        <time>2020-06-10T15:01:10Z</time>
      </trkpt>
      <trkpt lat="48.56678" lon="-3.57066">
        <ele>185.8</ele>
        <time>2020-06-10T15:01:11Z</time>
      </trkpt>
      <trkpt lat="48.56677" lon="-3.57051">
        <ele>185.3</ele>
        <time>2020-06-10T15:01:12Z</time>
      </trkpt>
      <trkpt lat="48.56676" lon="-3.57037">
        <ele>184.9</ele>
        <time>2020-06-10T15:01:13Z</time>
      </trkpt>
      <trkpt lat="48.56676" lon="-3.57022">
        <ele>184.5</ele>
        <time>2020-06-10T15:01:14Z</time>
      </trkpt>
      <trkpt lat="48.56675" lon="-3.57007">
        <ele>184.1</ele>
        <time>2020-06-10T15:01:15Z</time>
      </trkpt>
      <trkpt lat="48.56674" lon="-3.56992">
        <ele>183.6</ele>
        <time>2020-06-10T15:01:16Z</time>
      </trkpt>
      <trkpt lat="48.56673" lon="-3.56977">
        <ele>183.2</ele>
        <time>2020-06-10T15:01:17Z</time>
      </trkpt>
      <trkpt lat="48.56671" lon="-3.56962">
        <ele>182.6</ele>
        <time>2020-06-10T15:01:18Z</time>
      </trkpt>
      <trkpt lat="48.56667" lon="-3.56948">
        <ele>182.1</ele>
        <time>2020-06-10T15:01:19Z</time>
      </trkpt>
      <trkpt lat="48.56664" lon="-3.56933">
        <ele>181.6</ele>
        <time>2020-06-10T15:01:20Z</time>
      </trkpt>
      <trkpt lat="48.56661" lon="-3.56918">
        <ele>181.1</ele>
        <time>2020-06-10T15:01:21Z</time>
      </trkpt>
      <trkpt lat="48.56658" lon="-3.56903">
        <ele>180.6</ele>
        <time>2020-06-10T15:01:22Z</time>
      </trkpt>
      <trkpt lat="48.56655" lon="-3.56888">
        <ele>180.2</ele>
        <time>2020-06-10T15:01:23Z</time>
      </trkpt>
      <trkpt lat="48.56652" lon="-3.56872">
        <ele>179.7</ele>
        <time>2020-06-10T15:01:24Z</time>
      </trkpt>
      <trkpt lat="48.56648" lon="-3.56857">
        <ele>179.2</ele>
        <time>2020-06-10T15:01:25Z</time>
      </trkpt>
      <trkpt lat="48.56645" lon="-3.56842">
        <ele>178.8</ele>
        <time>2020-06-10T15:01:26Z</time>
      </trkpt>
      <trkpt lat="48.56642" lon="-3.56826">
        <ele>178.4</ele>
        <time>2020-06-10T15:01:27Z</time>
      </trkpt>
      <trkpt lat="48.5664" lon="-3.56811">
        <ele>178.1</ele>
        <time>2020-06-10T15:01:28Z</time>
      </trkpt>
      <trkpt lat="48.56637" lon="-3.56795">
        <ele>177.8</ele>
        <time>2020-06-10T15:01:29Z</time>
      </trkpt>
      <trkpt lat="48.56635" lon="-3.56779">
        <ele>177.6</ele>
        <time>2020-06-10T15:01:30Z</time>
      </trkpt>
      <trkpt lat="48.56634" lon="-3.56764">
        <ele>177.5</ele>
        <time>2020-06-10T15:01:31Z</time>
      </trkpt>
      <trkpt lat="48.56632" lon="-3.56748">
        <ele>177.5</ele>
        <time>2020-06-10T15:01:32Z</time>
      </trkpt>
      <trkpt lat="48.56632" lon="-3.56733">
        <ele>177.4</ele>
        <time>2020-06-10T15:01:33Z</time>
      </trkpt>
      <trkpt lat="48.56631" lon="-3.56719">
        <ele>177.4</ele>
        <time>2020-06-10T15:01:34Z</time>
      </trkpt>
      <trkpt lat="48.56632" lon="-3.56704">
        <ele>177.3</ele>
        <time>2020-06-10T15:01:35Z</time>
      </trkpt>
      <trkpt lat="48.56632" lon="-3.5669">
        <ele>177.3</ele>
        <time>2020-06-10T15:01:36Z</time>
      </trkpt>
      <trkpt lat="48.56634" lon="-3.56677">
        <ele>177.2</ele>
        <time>2020-06-10T15:01:37Z</time>
      </trkpt>
      <trkpt lat="48.56635" lon="-3.56663">
        <ele>177.2</ele>
        <time>2020-06-10T15:01:38Z</time>
      </trkpt>
      <trkpt lat="48.56637" lon="-3.5665">
        <ele>177.2</ele>
        <time>2020-06-10T15:01:39Z</time>
      </trkpt>
      <trkpt lat="48.56638" lon="-3.56637">
        <ele>177.2</ele>
        <time>2020-06-10T15:01:40Z</time>
      </trkpt>
      <trkpt lat="48.56641" lon="-3.56625">
        <ele>177.2</ele>
        <time>2020-06-10T15:01:41Z</time>
      </trkpt>
      <trkpt lat="48.56643" lon="-3.56612">
        <ele>177.3</ele>
        <time>2020-06-10T15:01:42Z</time>
      </trkpt>
      <trkpt lat="48.56645" lon="-3.566">
        <ele>177.4</ele>
        <time>2020-06-10T15:01:43Z</time>
      </trkpt>
      <trkpt lat="48.56648" lon="-3.56589">
        <ele>177.4</ele>
        <time>2020-06-10T15:01:44Z</time>
      </trkpt>
      <trkpt lat="48.56651" lon="-3.56579">
        <ele>177.5</ele>
        <time>2020-06-10T15:01:45Z</time>
      </trkpt>
      <trkpt lat="48.56655" lon="-3.56569">
        <ele>177.6</ele>
        <time>2020-06-10T15:01:46Z</time>
      </trkpt>
      <trkpt lat="48.56658" lon="-3.5656">
        <ele>177.7</ele>
        <time>2020-06-10T15:01:47Z</time>
      </trkpt>
      <trkpt lat="48.56661" lon="-3.56552">
        <ele>177.7</ele>
        <time>2020-06-10T15:01:48Z</time>
      </trkpt>
      <trkpt lat="48.56664" lon="-3.56543">
        <ele>177.7</ele>
        <time>2020-06-10T15:01:49Z</time>
      </trkpt>
      <trkpt lat="48.56667" lon="-3.56534">
        <ele>177.7</ele>
        <time>2020-06-10T15:01:50Z</time>
      </trkpt>
      <trkpt lat="48.56669" lon="-3.56524">
        <ele>177.7</ele>
        <time>2020-06-10T15:01:51Z</time>
      </trkpt>
      <trkpt lat="48.56672" lon="-3.56515">
        <ele>177.8</ele>
        <time>2020-06-10T15:01:52Z</time>
      </trkpt>
      <trkpt lat="48.56674" lon="-3.56506">
        <ele>177.8</ele>
        <time>2020-06-10T15:01:53Z</time>
      </trkpt>
      <trkpt lat="48.56676" lon="-3.56497">
        <ele>177.8</ele>
        <time>2020-06-10T15:01:54Z</time>
      </trkpt>
      <trkpt lat="48.56678" lon="-3.56489">
        <ele>177.9</ele>
        <time>2020-06-10T15:01:55Z</time>
      </trkpt>
      <trkpt lat="48.56679" lon="-3.56479">
        <ele>177.9</ele>
        <time>2020-06-10T15:01:56Z</time>
      </trkpt>
      <trkpt lat="48.56681" lon="-3.5647">
        <ele>177.9</ele>
        <time>2020-06-10T15:01:57Z</time>
      </trkpt>
      <trkpt lat="48.56682" lon="-3.5646">
        <ele>177.9</ele>
        <time>2020-06-10T15:01:58Z</time>
      </trkpt>
      <trkpt lat="48.56684" lon="-3.56451">
        <ele>177.9</ele>
        <time>2020-06-10T15:01:59Z</time>
      </trkpt>
      <trkpt lat="48.56686" lon="-3.56442">
        <ele>177.9</ele>
        <time>2020-06-10T15:02:00Z</time>
      </trkpt>
      <trkpt lat="48.56687" lon="-3.56432">
        <ele>177.9</ele>
        <time>2020-06-10T15:02:01Z</time>
      </trkpt>
      <trkpt lat="48.56689" lon="-3.56423">
        <ele>177.9</ele>
        <time>2020-06-10T15:02:02Z</time>
      </trkpt>
      <trkpt lat="48.5669" lon="-3.56413">
        <ele>177.9</ele>
        <time>2020-06-10T15:02:03Z</time>
      </trkpt>
      <trkpt lat="48.56692" lon="-3.56404">
        <ele>177.9</ele>
        <time>2020-06-10T15:02:04Z</time>
      </trkpt>
      <trkpt lat="48.56693" lon="-3.56395">
        <ele>177.8</ele>
        <time>2020-06-10T15:02:05Z</time>
      </trkpt>
      <trkpt lat="48.56695" lon="-3.56386">
        <ele>177.8</ele>
        <time>2020-06-10T15:02:06Z</time>
      </trkpt>
      <trkpt lat="48.56697" lon="-3.56376">
        <ele>177.8</ele>
        <time>2020-06-10T15:02:07Z</time>
      </trkpt>
      <trkpt lat="48.56698" lon="-3.56367">
        <ele>177.8</ele>
        <time>2020-06-10T15:02:08Z</time>
      </trkpt>
      <trkpt lat="48.56699" lon="-3.56358">
        <ele>177.8</ele>
        <time>2020-06-10T15:02:09Z</time>
      </trkpt>
      <trkpt lat="48.567" lon="-3.56349">
        <ele>177.8</ele>
        <time>2020-06-10T15:02:10Z</time>
      </trkpt>
      <trkpt lat="48.56701" lon="-3.5634">
        <ele>177.8</ele>
        <time>2020-06-10T15:02:11Z</time>
      </trkpt>
      <trkpt lat="48.56702" lon="-3.56331">
        <ele>177.8</ele>
        <time>2020-06-10T15:02:12Z</time>
      </trkpt>
      <trkpt lat="48.56704" lon="-3.56322">
        <ele>177.8</ele>
        <time>2020-06-10T15:02:13Z</time>
      </trkpt>
      <trkpt lat="48.56705" lon="-3.56313">
        <ele>177.8</ele>
        <time>2020-06-10T15:02:14Z</time>
      </trkpt>
      <trkpt lat="48.56706" lon="-3.56304">
        <ele>177.8</ele>
        <time>2020-06-10T15:02:15Z</time>
      </trkpt>
      <trkpt lat="48.56707" lon="-3.56295">
        <ele>177.9</ele>
        <time>2020-06-10T15:02:16Z</time>
      </trkpt>
      <trkpt lat="48.56708" lon="-3.56287">
        <ele>177.9</ele>
        <time>2020-06-10T15:02:17Z</time>
      </trkpt>
      <trkpt lat="48.5671" lon="-3.56278">
        <ele>177.9</ele>
        <time>2020-06-10T15:02:18Z</time>
      </trkpt>
      <trkpt lat="48.5671" lon="-3.56269">
        <ele>177.9</ele>
        <time>2020-06-10T15:02:19Z</time>
      </trkpt>
      <trkpt lat="48.5671" lon="-3.5626">
        <ele>177.9</ele>
        <time>2020-06-10T15:02:20Z</time>
      </trkpt>
      <trkpt lat="48.56711" lon="-3.56252">
        <ele>177.9</ele>
        <time>2020-06-10T15:02:21Z</time>
      </trkpt>
      <trkpt lat="48.56711" lon="-3.56244">
        <ele>177.9</ele>
        <time>2020-06-10T15:02:22Z</time>
      </trkpt>
      <trkpt lat="48.56712" lon="-3.56236">
        <ele>177.9</ele>
        <time>2020-06-10T15:02:23Z</time>
      </trkpt>
      <trkpt lat="48.56713" lon="-3.56228">
        <ele>177.9</ele>
        <time>2020-06-10T15:02:24Z</time>
      </trkpt>
      <trkpt lat="48.56714" lon="-3.5622">
        <ele>178</ele>
        <time>2020-06-10T15:02:25Z</time>
      </trkpt>
      <trkpt lat="48.56715" lon="-3.56212">
        <ele>178</ele>
        <time>2020-06-10T15:02:26Z</time>
      </trkpt>
      <trkpt lat="48.56715" lon="-3.56203">
        <ele>178</ele>
        <time>2020-06-10T15:02:27Z</time>
      </trkpt>
      <trkpt lat="48.56716" lon="-3.56195">
        <ele>178</ele>
        <time>2020-06-10T15:02:28Z</time>
      </trkpt>
      <trkpt lat="48.56717" lon="-3.56186">
        <ele>178</ele>
        <time>2020-06-10T15:02:29Z</time>
      </trkpt>
      <trkpt lat="48.56718" lon="-3.56177">
        <ele>178.1</ele>
        <time>2020-06-10T15:02:30Z</time>
      </trkpt>
      <trkpt lat="48.56719" lon="-3.56169">
        <ele>178.1</ele>
        <time>2020-06-10T15:02:31Z</time>
      </trkpt>
      <trkpt lat="48.5672" lon="-3.5616">
        <ele>178.1</ele>
        <time>2020-06-10T15:02:32Z</time>
      </trkpt>
      <trkpt lat="48.56721" lon="-3.56152">
        <ele>178.1</ele>
        <time>2020-06-10T15:02:33Z</time>
      </trkpt>
      <trkpt lat="48.56722" lon="-3.56143">
        <ele>178.2</ele>
        <time>2020-06-10T15:02:34Z</time>
      </trkpt>
      <trkpt lat="48.56724" lon="-3.56135">
        <ele>178.2</ele>
        <time>2020-06-10T15:02:35Z</time>
      </trkpt>
      <trkpt lat="48.56725" lon="-3.56126">
        <ele>178.3</ele>
        <time>2020-06-10T15:02:36Z</time>
      </trkpt>
      <trkpt lat="48.56726" lon="-3.56118">
        <ele>178.3</ele>
        <time>2020-06-10T15:02:37Z</time>
      </trkpt>
      <trkpt lat="48.56727" lon="-3.56109">
        <ele>178.4</ele>
        <time>2020-06-10T15:02:38Z</time>
      </trkpt>
      <trkpt lat="48.56727" lon="-3.561">
        <ele>178.5</ele>
        <time>2020-06-10T15:02:39Z</time>
      </trkpt>
      <trkpt lat="48.56728" lon="-3.56092">
        <ele>178.5</ele>
        <time>2020-06-10T15:02:40Z</time>
      </trkpt>
      <trkpt lat="48.56729" lon="-3.56083">
        <ele>178.5</ele>
        <time>2020-06-10T15:02:41Z</time>
      </trkpt>
      <trkpt lat="48.56729" lon="-3.56074">
        <ele>178.5</ele>
        <time>2020-06-10T15:02:42Z</time>
      </trkpt>
      <trkpt lat="48.5673" lon="-3.56065">
        <ele>178.4</ele>
        <time>2020-06-10T15:02:43Z</time>
      </trkpt>
      <trkpt lat="48.56731" lon="-3.56056">
        <ele>178.4</ele>
        <time>2020-06-10T15:02:44Z</time>
      </trkpt>
      <trkpt lat="48.56732" lon="-3.56048">
        <ele>178.4</ele>
        <time>2020-06-10T15:02:45Z</time>
      </trkpt>
      <trkpt lat="48.56733" lon="-3.56039">
        <ele>178.4</ele>
        <time>2020-06-10T15:02:46Z</time>
      </trkpt>
      <trkpt lat="48.56733" lon="-3.56031">
        <ele>178.4</ele>
        <time>2020-06-10T15:02:47Z</time>
      </trkpt>
      <trkpt lat="48.56734" lon="-3.56022">
        <ele>178.4</ele>
        <time>2020-06-10T15:02:48Z</time>
      </trkpt>
      <trkpt lat="48.56734" lon="-3.56014">
        <ele>178.4</ele>
        <time>2020-06-10T15:02:49Z</time>
      </trkpt>
      <trkpt lat="48.56734" lon="-3.56005">
        <ele>178.4</ele>
        <time>2020-06-10T15:02:50Z</time>
      </trkpt>
      <trkpt lat="48.56734" lon="-3.55997">
        <ele>178.4</ele>
        <time>2020-06-10T15:02:51Z</time>
      </trkpt>
      <trkpt lat="48.56734" lon="-3.55988">
        <ele>178.4</ele>
        <time>2020-06-10T15:02:52Z</time>
      </trkpt>
      <trkpt lat="48.56734" lon="-3.55979">
        <ele>178.4</ele>
        <time>2020-06-10T15:02:53Z</time>
      </trkpt>
      <trkpt lat="48.56734" lon="-3.5597">
        <ele>178.4</ele>
        <time>2020-06-10T15:02:54Z</time>
      </trkpt>
      <trkpt lat="48.56735" lon="-3.55961">
        <ele>178.3</ele>
        <time>2020-06-10T15:02:55Z</time>
      </trkpt>
      <trkpt lat="48.56735" lon="-3.55951">
        <ele>178.3</ele>
        <time>2020-06-10T15:02:56Z</time>
      </trkpt>
      <trkpt lat="48.56735" lon="-3.55942">
        <ele>178.3</ele>
        <time>2020-06-10T15:02:57Z</time>
      </trkpt>
      <trkpt lat="48.56735" lon="-3.55933">
        <ele>178.2</ele>
        <time>2020-06-10T15:02:58Z</time>
      </trkpt>
      <trkpt lat="48.56735" lon="-3.55924">
        <ele>178.2</ele>
        <time>2020-06-10T15:02:59Z</time>
      </trkpt>
      <trkpt lat="48.56735" lon="-3.55914">
        <ele>178.2</ele>
        <time>2020-06-10T15:03:00Z</time>
      </trkpt>
      <trkpt lat="48.56734" lon="-3.55905">
        <ele>178.1</ele>
        <time>2020-06-10T15:03:01Z</time>
      </trkpt>
      <trkpt lat="48.56734" lon="-3.55896">
        <ele>178.1</ele>
        <time>2020-06-10T15:03:02Z</time>
      </trkpt>
      <trkpt lat="48.56734" lon="-3.55887">
        <ele>178.1</ele>
        <time>2020-06-10T15:03:03Z</time>
      </trkpt>
      <trkpt lat="48.56734" lon="-3.55877">
        <ele>178</ele>
        <time>2020-06-10T15:03:04Z</time>
      </trkpt>
      <trkpt lat="48.56734" lon="-3.55868">
        <ele>178</ele>
        <time>2020-06-10T15:03:05Z</time>
      </trkpt>
      <trkpt lat="48.56733" lon="-3.55859">
        <ele>178</ele>
        <time>2020-06-10T15:03:06Z</time>
      </trkpt>
      <trkpt lat="48.56733" lon="-3.5585">
        <ele>178</ele>
        <time>2020-06-10T15:03:07Z</time>
      </trkpt>
      <trkpt lat="48.56733" lon="-3.5584">
        <ele>178</ele>
        <time>2020-06-10T15:03:08Z</time>
      </trkpt>
      <trkpt lat="48.56733" lon="-3.55831">
        <ele>178</ele>
        <time>2020-06-10T15:03:09Z</time>
      </trkpt>
      <trkpt lat="48.56733" lon="-3.55822">
        <ele>178</ele>
        <time>2020-06-10T15:03:10Z</time>
      </trkpt>
      <trkpt lat="48.56732" lon="-3.55812">
        <ele>178.1</ele>
        <time>2020-06-10T15:03:11Z</time>
      </trkpt>
      <trkpt lat="48.56732" lon="-3.55803">
        <ele>178.1</ele>
        <time>2020-06-10T15:03:12Z</time>
      </trkpt>
      <trkpt lat="48.56732" lon="-3.55794">
        <ele>178.1</ele>
        <time>2020-06-10T15:03:13Z</time>
      </trkpt>
      <trkpt lat="48.56732" lon="-3.55785">
        <ele>178.2</ele>
        <time>2020-06-10T15:03:14Z</time>
      </trkpt>
      <trkpt lat="48.56732" lon="-3.55776">
        <ele>178.2</ele>
        <time>2020-06-10T15:03:15Z</time>
      </trkpt>
      <trkpt lat="48.56732" lon="-3.55767">
        <ele>178.3</ele>
        <time>2020-06-10T15:03:16Z</time>
      </trkpt>
      <trkpt lat="48.56732" lon="-3.55758">
        <ele>178.4</ele>
        <time>2020-06-10T15:03:17Z</time>
      </trkpt>
      <trkpt lat="48.56731" lon="-3.55749">
        <ele>178.5</ele>
        <time>2020-06-10T15:03:18Z</time>
      </trkpt>
      <trkpt lat="48.56731" lon="-3.55741">
        <ele>178.5</ele>
        <time>2020-06-10T15:03:19Z</time>
      </trkpt>
      <trkpt lat="48.5673" lon="-3.55732">
        <ele>178.5</ele>
        <time>2020-06-10T15:03:20Z</time>
      </trkpt>
      <trkpt lat="48.56729" lon="-3.55723">
        <ele>178.5</ele>
        <time>2020-06-10T15:03:21Z</time>
      </trkpt>
      <trkpt lat="48.56727" lon="-3.55715">
        <ele>178.5</ele>
        <time>2020-06-10T15:03:22Z</time>
      </trkpt>
      <trkpt lat="48.56726" lon="-3.55706">
        <ele>178.5</ele>
        <time>2020-06-10T15:03:23Z</time>
      </trkpt>
      <trkpt lat="48.56726" lon="-3.55698">
        <ele>178.6</ele>
        <time>2020-06-10T15:03:24Z</time>
      </trkpt>
      <trkpt lat="48.56726" lon="-3.55689">
        <ele>178.6</ele>
        <time>2020-06-10T15:03:25Z</time>
      </trkpt>
      <trkpt lat="48.56725" lon="-3.55681">
        <ele>178.7</ele>
        <time>2020-06-10T15:03:26Z</time>
      </trkpt>
      <trkpt lat="48.56725" lon="-3.55672">
        <ele>178.7</ele>
        <time>2020-06-10T15:03:27Z</time>
      </trkpt>
      <trkpt lat="48.56724" lon="-3.55664">
        <ele>178.7</ele>
        <time>2020-06-10T15:03:28Z</time>
      </trkpt>
      <trkpt lat="48.56723" lon="-3.55655">
        <ele>178.8</ele>
        <time>2020-06-10T15:03:29Z</time>
      </trkpt>
      <trkpt lat="48.56723" lon="-3.55647">
        <ele>178.8</ele>
        <time>2020-06-10T15:03:30Z</time>
      </trkpt>
      <trkpt lat="48.56722" lon="-3.55639">
        <ele>178.8</ele>
        <time>2020-06-10T15:03:31Z</time>
      </trkpt>
      <trkpt lat="48.56722" lon="-3.5563">
        <ele>178.9</ele>
        <time>2020-06-10T15:03:32Z</time>
      </trkpt>
      <trkpt lat="48.56721" lon="-3.55622">
        <ele>178.9</ele>
        <time>2020-06-10T15:03:33Z</time>
      </trkpt>
      <trkpt lat="48.56721" lon="-3.55613">
        <ele>178.9</ele>
        <time>2020-06-10T15:03:34Z</time>
      </trkpt>
      <trkpt lat="48.56721" lon="-3.55605">
        <ele>178.9</ele>
        <time>2020-06-10T15:03:35Z</time>
      </trkpt>
      <trkpt lat="48.5672" lon="-3.55596">
        <ele>179</ele>
        <time>2020-06-10T15:03:36Z</time>
      </trkpt>
      <trkpt lat="48.56719" lon="-3.55587">
        <ele>179</ele>
        <time>2020-06-10T15:03:37Z</time>
      </trkpt>
      <trkpt lat="48.56718" lon="-3.55578">
        <ele>179.1</ele>
        <time>2020-06-10T15:03:38Z</time>
      </trkpt>
      <trkpt lat="48.56717" lon="-3.5557">
        <ele>179.1</ele>
        <time>2020-06-10T15:03:39Z</time>
      </trkpt>
      <trkpt lat="48.56718" lon="-3.55561">
        <ele>179.2</ele>
        <time>2020-06-10T15:03:40Z</time>
      </trkpt>
      <trkpt lat="48.56718" lon="-3.55552">
        <ele>179.3</ele>
        <time>2020-06-10T15:03:41Z</time>
      </trkpt>
      <trkpt lat="48.56717" lon="-3.55544">
        <ele>179.4</ele>
        <time>2020-06-10T15:03:42Z</time>
      </trkpt>
      <trkpt lat="48.56716" lon="-3.55535">
        <ele>179.5</ele>
        <time>2020-06-10T15:03:43Z</time>
      </trkpt>
      <trkpt lat="48.56714" lon="-3.55526">
        <ele>179.6</ele>
        <time>2020-06-10T15:03:44Z</time>
      </trkpt>
      <trkpt lat="48.56713" lon="-3.55517">
        <ele>179.6</ele>
        <time>2020-06-10T15:03:45Z</time>
      </trkpt>
      <trkpt lat="48.56712" lon="-3.55508">
        <ele>179.7</ele>
        <time>2020-06-10T15:03:46Z</time>
      </trkpt>
      <trkpt lat="48.56712" lon="-3.55499">
        <ele>179.8</ele>
        <time>2020-06-10T15:03:47Z</time>
      </trkpt>
      <trkpt lat="48.56711" lon="-3.55491">
        <ele>179.8</ele>
        <time>2020-06-10T15:03:48Z</time>
      </trkpt>
      <trkpt lat="48.5671" lon="-3.55484">
        <ele>179.9</ele>
        <time>2020-06-10T15:03:49Z</time>
      </trkpt>
      <trkpt lat="48.56709" lon="-3.55475">
        <ele>179.9</ele>
        <time>2020-06-10T15:03:50Z</time>
      </trkpt>
      <trkpt lat="48.56709" lon="-3.55467">
        <ele>180</ele>
        <time>2020-06-10T15:03:51Z</time>
      </trkpt>
      <trkpt lat="48.56709" lon="-3.55459">
        <ele>180.1</ele>
        <time>2020-06-10T15:03:52Z</time>
      </trkpt>
      <trkpt lat="48.56708" lon="-3.55449">
        <ele>180.2</ele>
        <time>2020-06-10T15:03:53Z</time>
      </trkpt>
      <trkpt lat="48.56707" lon="-3.5544">
        <ele>180.2</ele>
        <time>2020-06-10T15:03:54Z</time>
      </trkpt>
      <trkpt lat="48.56706" lon="-3.55431">
        <ele>180.3</ele>
        <time>2020-06-10T15:03:55Z</time>
      </trkpt>
      <trkpt lat="48.56705" lon="-3.55423">
        <ele>180.4</ele>
        <time>2020-06-10T15:03:56Z</time>
      </trkpt>
      <trkpt lat="48.56705" lon="-3.55414">
        <ele>180.5</ele>
        <time>2020-06-10T15:03:57Z</time>
      </trkpt>
      <trkpt lat="48.56704" lon="-3.55406">
        <ele>180.6</ele>
        <time>2020-06-10T15:03:58Z</time>
      </trkpt>
      <trkpt lat="48.56704" lon="-3.55398">
        <ele>180.7</ele>
        <time>2020-06-10T15:03:59Z</time>
      </trkpt>
      <trkpt lat="48.56703" lon="-3.55391">
        <ele>180.8</ele>
        <time>2020-06-10T15:04:00Z</time>
      </trkpt>
      <trkpt lat="48.56703" lon="-3.55382">
        <ele>180.9</ele>
        <time>2020-06-10T15:04:01Z</time>
      </trkpt>
      <trkpt lat="48.56702" lon="-3.55373">
        <ele>181</ele>
        <time>2020-06-10T15:04:02Z</time>
      </trkpt>
      <trkpt lat="48.56701" lon="-3.55366">
        <ele>181.1</ele>
        <time>2020-06-10T15:04:03Z</time>
      </trkpt>
      <trkpt lat="48.56701" lon="-3.55359">
        <ele>181.1</ele>
        <time>2020-06-10T15:04:04Z</time>
      </trkpt>
      <trkpt lat="48.56701" lon="-3.55351">
        <ele>181.2</ele>
        <time>2020-06-10T15:04:05Z</time>
      </trkpt>
      <trkpt lat="48.56701" lon="-3.55343">
        <ele>181.3</ele>
        <time>2020-06-10T15:04:06Z</time>
      </trkpt>
      <trkpt lat="48.567" lon="-3.55336">
        <ele>181.3</ele>
        <time>2020-06-10T15:04:07Z</time>
      </trkpt>
      <trkpt lat="48.56701" lon="-3.55329">
        <ele>181.4</ele>
        <time>2020-06-10T15:04:08Z</time>
      </trkpt>
      <trkpt lat="48.56701" lon="-3.55321">
        <ele>181.4</ele>
        <time>2020-06-10T15:04:09Z</time>
      </trkpt>
      <trkpt lat="48.567" lon="-3.55312">
        <ele>181.5</ele>
        <time>2020-06-10T15:04:10Z</time>
      </trkpt>
      <trkpt lat="48.567" lon="-3.55306">
        <ele>181.6</ele>
        <time>2020-06-10T15:04:11Z</time>
      </trkpt>
      <trkpt lat="48.567" lon="-3.55296">
        <ele>181.7</ele>
        <time>2020-06-10T15:04:12Z</time>
      </trkpt>
      <trkpt lat="48.56699" lon="-3.55288">
        <ele>181.7</ele>
        <time>2020-06-10T15:04:13Z</time>
      </trkpt>
      <trkpt lat="48.56699" lon="-3.55279">
        <ele>181.7</ele>
        <time>2020-06-10T15:04:14Z</time>
      </trkpt>
      <trkpt lat="48.56699" lon="-3.55272">
        <ele>181.8</ele>
        <time>2020-06-10T15:04:15Z</time>
      </trkpt>
      <trkpt lat="48.56699" lon="-3.55262">
        <ele>181.8</ele>
        <time>2020-06-10T15:04:16Z</time>
      </trkpt>
      <trkpt lat="48.56698" lon="-3.55254">
        <ele>181.8</ele>
        <time>2020-06-10T15:04:17Z</time>
      </trkpt>
      <trkpt lat="48.56696" lon="-3.55246">
        <ele>181.9</ele>
        <time>2020-06-10T15:04:18Z</time>
      </trkpt>
      <trkpt lat="48.56695" lon="-3.55237">
        <ele>181.9</ele>
        <time>2020-06-10T15:04:19Z</time>
      </trkpt>
      <trkpt lat="48.56695" lon="-3.55229">
        <ele>181.9</ele>
        <time>2020-06-10T15:04:20Z</time>
      </trkpt>
      <trkpt lat="48.56694" lon="-3.55222">
        <ele>182</ele>
        <time>2020-06-10T15:04:21Z</time>
      </trkpt>
      <trkpt lat="48.56693" lon="-3.55215">
        <ele>182</ele>
        <time>2020-06-10T15:04:22Z</time>
      </trkpt>
      <trkpt lat="48.56692" lon="-3.55204">
        <ele>182.1</ele>
        <time>2020-06-10T15:04:23Z</time>
      </trkpt>
      <trkpt lat="48.56691" lon="-3.55196">
        <ele>182.2</ele>
        <time>2020-06-10T15:04:24Z</time>
      </trkpt>
      <trkpt lat="48.5669" lon="-3.55189">
        <ele>182.3</ele>
        <time>2020-06-10T15:04:25Z</time>
      </trkpt>
      <trkpt lat="48.56689" lon="-3.55183">
        <ele>182.3</ele>
        <time>2020-06-10T15:04:26Z</time>
      </trkpt>
      <trkpt lat="48.56689" lon="-3.55174">
        <ele>182.4</ele>
        <time>2020-06-10T15:04:27Z</time>
      </trkpt>
      <trkpt lat="48.56688" lon="-3.55166">
        <ele>182.5</ele>
        <time>2020-06-10T15:04:28Z</time>
      </trkpt>
      <trkpt lat="48.56687" lon="-3.55159">
        <ele>182.5</ele>
        <time>2020-06-10T15:04:29Z</time>
      </trkpt>
      <trkpt lat="48.56686" lon="-3.5515">
        <ele>182.6</ele>
        <time>2020-06-10T15:04:30Z</time>
      </trkpt>
      <trkpt lat="48.56685" lon="-3.55143">
        <ele>182.7</ele>
        <time>2020-06-10T15:04:31Z</time>
      </trkpt>
      <trkpt lat="48.56683" lon="-3.55134">
        <ele>182.8</ele>
        <time>2020-06-10T15:04:32Z</time>
      </trkpt>
      <trkpt lat="48.56682" lon="-3.55126">
        <ele>182.9</ele>
        <time>2020-06-10T15:04:33Z</time>
      </trkpt>
      <trkpt lat="48.5668" lon="-3.55118">
        <ele>182.9</ele>
        <time>2020-06-10T15:04:34Z</time>
      </trkpt>
      <trkpt lat="48.56679" lon="-3.5511">
        <ele>183</ele>
        <time>2020-06-10T15:04:35Z</time>
      </trkpt>
      <trkpt lat="48.56678" lon="-3.55103">
        <ele>183.1</ele>
        <time>2020-06-10T15:04:36Z</time>
      </trkpt>
      <trkpt lat="48.56676" lon="-3.55097">
        <ele>183.1</ele>
        <time>2020-06-10T15:04:37Z</time>
      </trkpt>
      <trkpt lat="48.56675" lon="-3.5509">
        <ele>183.1</ele>
        <time>2020-06-10T15:04:38Z</time>
      </trkpt>
      <trkpt lat="48.56673" lon="-3.55082">
        <ele>183.2</ele>
        <time>2020-06-10T15:04:39Z</time>
      </trkpt>
      <trkpt lat="48.56673" lon="-3.55074">
        <ele>183.2</ele>
        <time>2020-06-10T15:04:40Z</time>
      </trkpt>
      <trkpt lat="48.56671" lon="-3.55067">
        <ele>183.2</ele>
        <time>2020-06-10T15:04:41Z</time>
      </trkpt>
      <trkpt lat="48.56669" lon="-3.55059">
        <ele>183.3</ele>
        <time>2020-06-10T15:04:42Z</time>
      </trkpt>
      <trkpt lat="48.56667" lon="-3.5505">
        <ele>183.3</ele>
        <time>2020-06-10T15:04:43Z</time>
      </trkpt>
      <trkpt lat="48.56665" lon="-3.55042">
        <ele>183.3</ele>
        <time>2020-06-10T15:04:44Z</time>
      </trkpt>
      <trkpt lat="48.56663" lon="-3.55034">
        <ele>183.4</ele>
        <time>2020-06-10T15:04:45Z</time>
      </trkpt>
      <trkpt lat="48.56662" lon="-3.55026">
        <ele>183.4</ele>
        <time>2020-06-10T15:04:46Z</time>
      </trkpt>
      <trkpt lat="48.5666" lon="-3.55016">
        <ele>183.5</ele>
        <time>2020-06-10T15:04:47Z</time>
      </trkpt>
      <trkpt lat="48.56659" lon="-3.55008">
        <ele>183.5</ele>
        <time>2020-06-10T15:04:48Z</time>
      </trkpt>
      <trkpt lat="48.56657" lon="-3.54999">
        <ele>183.6</ele>
        <time>2020-06-10T15:04:49Z</time>
      </trkpt>
      <trkpt lat="48.56655" lon="-3.54991">
        <ele>183.6</ele>
        <time>2020-06-10T15:04:50Z</time>
      </trkpt>
      <trkpt lat="48.56653" lon="-3.54983">
        <ele>183.7</ele>
        <time>2020-06-10T15:04:51Z</time>
      </trkpt>
      <trkpt lat="48.5665" lon="-3.54975">
        <ele>183.7</ele>
        <time>2020-06-10T15:04:52Z</time>
      </trkpt>
      <trkpt lat="48.56647" lon="-3.54967">
        <ele>183.8</ele>
        <time>2020-06-10T15:04:53Z</time>
      </trkpt>
      <trkpt lat="48.56645" lon="-3.54959">
        <ele>183.8</ele>
        <time>2020-06-10T15:04:54Z</time>
      </trkpt>
      <trkpt lat="48.56643" lon="-3.54951">
        <ele>183.9</ele>
        <time>2020-06-10T15:04:55Z</time>
      </trkpt>
      <trkpt lat="48.56641" lon="-3.54942">
        <ele>183.9</ele>
        <time>2020-06-10T15:04:56Z</time>
      </trkpt>
      <trkpt lat="48.56639" lon="-3.54935">
        <ele>184</ele>
        <time>2020-06-10T15:04:57Z</time>
      </trkpt>
      <trkpt lat="48.56637" lon="-3.54927">
        <ele>184</ele>
        <time>2020-06-10T15:04:58Z</time>
      </trkpt>
      <trkpt lat="48.56635" lon="-3.54919">
        <ele>184.1</ele>
        <time>2020-06-10T15:04:59Z</time>
      </trkpt>
      <trkpt lat="48.56633" lon="-3.5491">
        <ele>184.2</ele>
        <time>2020-06-10T15:05:00Z</time>
      </trkpt>
      <trkpt lat="48.56631" lon="-3.54903">
        <ele>184.3</ele>
        <time>2020-06-10T15:05:01Z</time>
      </trkpt>
      <trkpt lat="48.5663" lon="-3.54897">
        <ele>184.3</ele>
        <time>2020-06-10T15:05:02Z</time>
      </trkpt>
      <trkpt lat="48.56628" lon="-3.54889">
        <ele>184.4</ele>
        <time>2020-06-10T15:05:03Z</time>
      </trkpt>
      <trkpt lat="48.56625" lon="-3.54882">
        <ele>184.5</ele>
        <time>2020-06-10T15:05:04Z</time>
      </trkpt>
      <trkpt lat="48.56623" lon="-3.54874">
        <ele>184.4</ele>
        <time>2020-06-10T15:05:05Z</time>
      </trkpt>
      <trkpt lat="48.56621" lon="-3.54866">
        <ele>184.4</ele>
        <time>2020-06-10T15:05:06Z</time>
      </trkpt>
      <trkpt lat="48.5662" lon="-3.54861">
        <ele>184.3</ele>
        <time>2020-06-10T15:05:07Z</time>
      </trkpt>
      <trkpt lat="48.56618" lon="-3.54854">
        <ele>184.3</ele>
        <time>2020-06-10T15:05:08Z</time>
      </trkpt>
      <trkpt lat="48.56616" lon="-3.54848">
        <ele>184.3</ele>
        <time>2020-06-10T15:05:09Z</time>
      </trkpt>
      <trkpt lat="48.56615" lon="-3.5484">
        <ele>184.3</ele>
        <time>2020-06-10T15:05:10Z</time>
      </trkpt>
      <trkpt lat="48.56613" lon="-3.54834">
        <ele>184.4</ele>
        <time>2020-06-10T15:05:11Z</time>
      </trkpt>
      <trkpt lat="48.5661" lon="-3.54827">
        <ele>184.4</ele>
        <time>2020-06-10T15:05:12Z</time>
      </trkpt>
      <trkpt lat="48.56608" lon="-3.54822">
        <ele>184.5</ele>
        <time>2020-06-10T15:05:13Z</time>
      </trkpt>
      <trkpt lat="48.56606" lon="-3.54815">
        <ele>184.5</ele>
        <time>2020-06-10T15:05:14Z</time>
      </trkpt>
      <trkpt lat="48.56604" lon="-3.5481">
        <ele>184.6</ele>
        <time>2020-06-10T15:05:15Z</time>
      </trkpt>
      <trkpt lat="48.56602" lon="-3.54804">
        <ele>184.6</ele>
        <time>2020-06-10T15:05:16Z</time>
      </trkpt>
      <trkpt lat="48.566" lon="-3.54794">
        <ele>184.7</ele>
        <time>2020-06-10T15:05:17Z</time>
      </trkpt>
      <trkpt lat="48.56598" lon="-3.54785">
        <ele>184.8</ele>
        <time>2020-06-10T15:05:18Z</time>
      </trkpt>
      <trkpt lat="48.56596" lon="-3.54777">
        <ele>184.9</ele>
        <time>2020-06-10T15:05:19Z</time>
      </trkpt>
      <trkpt lat="48.56593" lon="-3.5477">
        <ele>185</ele>
        <time>2020-06-10T15:05:20Z</time>
      </trkpt>
      <trkpt lat="48.56591" lon="-3.54763">
        <ele>185</ele>
        <time>2020-06-10T15:05:21Z</time>
      </trkpt>
      <trkpt lat="48.56588" lon="-3.54755">
        <ele>185.1</ele>
        <time>2020-06-10T15:05:22Z</time>
      </trkpt>
      <trkpt lat="48.56586" lon="-3.54747">
        <ele>185.2</ele>
        <time>2020-06-10T15:05:23Z</time>
      </trkpt>
      <trkpt lat="48.56584" lon="-3.5474">
        <ele>185.2</ele>
        <time>2020-06-10T15:05:24Z</time>
      </trkpt>
      <trkpt lat="48.56581" lon="-3.54732">
        <ele>185.3</ele>
        <time>2020-06-10T15:05:25Z</time>
      </trkpt>
      <trkpt lat="48.56579" lon="-3.54726">
        <ele>185.3</ele>
        <time>2020-06-10T15:05:26Z</time>
      </trkpt>
      <trkpt lat="48.56576" lon="-3.5472">
        <ele>185.4</ele>
        <time>2020-06-10T15:05:27Z</time>
      </trkpt>
      <trkpt lat="48.56573" lon="-3.54712">
        <ele>185.4</ele>
        <time>2020-06-10T15:05:28Z</time>
      </trkpt>
      <trkpt lat="48.56571" lon="-3.54705">
        <ele>185.5</ele>
        <time>2020-06-10T15:05:29Z</time>
      </trkpt>
      <trkpt lat="48.56569" lon="-3.54699">
        <ele>185.5</ele>
        <time>2020-06-10T15:05:30Z</time>
      </trkpt>
      <trkpt lat="48.56566" lon="-3.54691">
        <ele>185.6</ele>
        <time>2020-06-10T15:05:31Z</time>
      </trkpt>
      <trkpt lat="48.56564" lon="-3.54686">
        <ele>185.6</ele>
        <time>2020-06-10T15:05:32Z</time>
      </trkpt>
      <trkpt lat="48.56562" lon="-3.5468">
        <ele>185.7</ele>
        <time>2020-06-10T15:05:33Z</time>
      </trkpt>
      <trkpt lat="48.56559" lon="-3.54673">
        <ele>185.7</ele>
        <time>2020-06-10T15:05:34Z</time>
      </trkpt>
      <trkpt lat="48.56556" lon="-3.54667">
        <ele>185.8</ele>
        <time>2020-06-10T15:05:35Z</time>
      </trkpt>
      <trkpt lat="48.56553" lon="-3.5466">
        <ele>185.8</ele>
        <time>2020-06-10T15:05:36Z</time>
      </trkpt>
      <trkpt lat="48.56551" lon="-3.54652">
        <ele>185.9</ele>
        <time>2020-06-10T15:05:37Z</time>
      </trkpt>
      <trkpt lat="48.56549" lon="-3.54644">
        <ele>186</ele>
        <time>2020-06-10T15:05:38Z</time>
      </trkpt>
      <trkpt lat="48.56547" lon="-3.54638">
        <ele>186</ele>
        <time>2020-06-10T15:05:39Z</time>
      </trkpt>
      <trkpt lat="48.56545" lon="-3.54634">
        <ele>186.1</ele>
        <time>2020-06-10T15:05:40Z</time>
      </trkpt>
      <trkpt lat="48.56542" lon="-3.5463">
        <ele>186.1</ele>
        <time>2020-06-10T15:05:41Z</time>
      </trkpt>
      <trkpt lat="48.56539" lon="-3.54624">
        <ele>186.2</ele>
        <time>2020-06-10T15:05:42Z</time>
      </trkpt>
      <trkpt lat="48.56536" lon="-3.54617">
        <ele>186.3</ele>
        <time>2020-06-10T15:05:43Z</time>
      </trkpt>
      <trkpt lat="48.56533" lon="-3.54609">
        <ele>186.3</ele>
        <time>2020-06-10T15:05:44Z</time>
      </trkpt>
      <trkpt lat="48.5653" lon="-3.54603">
        <ele>186.3</ele>
        <time>2020-06-10T15:05:45Z</time>
      </trkpt>
      <trkpt lat="48.56526" lon="-3.54595">
        <ele>186.2</ele>
        <time>2020-06-10T15:05:46Z</time>
      </trkpt>
      <trkpt lat="48.56523" lon="-3.54586">
        <ele>186.2</ele>
        <time>2020-06-10T15:05:47Z</time>
      </trkpt>
      <trkpt lat="48.5652" lon="-3.54578">
        <ele>186.2</ele>
        <time>2020-06-10T15:05:48Z</time>
      </trkpt>
      <trkpt lat="48.56518" lon="-3.54573">
        <ele>186.2</ele>
        <time>2020-06-10T15:05:49Z</time>
      </trkpt>
      <trkpt lat="48.56515" lon="-3.54567">
        <ele>186.2</ele>
        <time>2020-06-10T15:05:50Z</time>
      </trkpt>
      <trkpt lat="48.56512" lon="-3.54561">
        <ele>186.2</ele>
        <time>2020-06-10T15:05:51Z</time>
      </trkpt>
      <trkpt lat="48.56509" lon="-3.54555">
        <ele>186.3</ele>
        <time>2020-06-10T15:05:52Z</time>
      </trkpt>
      <trkpt lat="48.56506" lon="-3.54547">
        <ele>186.3</ele>
        <time>2020-06-10T15:05:53Z</time>
      </trkpt>
      <trkpt lat="48.56503" lon="-3.54542">
        <ele>186.4</ele>
        <time>2020-06-10T15:05:54Z</time>
      </trkpt>
      <trkpt lat="48.565" lon="-3.54536">
        <ele>186.4</ele>
        <time>2020-06-10T15:05:55Z</time>
      </trkpt>
      <trkpt lat="48.56497" lon="-3.54533">
        <ele>186.5</ele>
        <time>2020-06-10T15:05:56Z</time>
      </trkpt>
      <trkpt lat="48.56494" lon="-3.54527">
        <ele>186.5</ele>
        <time>2020-06-10T15:05:57Z</time>
      </trkpt>
      <trkpt lat="48.56492" lon="-3.54523">
        <ele>186.6</ele>
        <time>2020-06-10T15:05:58Z</time>
      </trkpt>
      <trkpt lat="48.5649" lon="-3.54518">
        <ele>186.6</ele>
        <time>2020-06-10T15:05:59Z</time>
      </trkpt>
      <trkpt lat="48.56488" lon="-3.54513">
        <ele>186.7</ele>
        <time>2020-06-10T15:06:00Z</time>
      </trkpt>
      <trkpt lat="48.56485" lon="-3.54508">
        <ele>186.7</ele>
        <time>2020-06-10T15:06:01Z</time>
      </trkpt>
      <trkpt lat="48.56483" lon="-3.54503">
        <ele>186.8</ele>
        <time>2020-06-10T15:06:02Z</time>
      </trkpt>
      <trkpt lat="48.56481" lon="-3.54498">
        <ele>186.9</ele>
        <time>2020-06-10T15:06:03Z</time>
      </trkpt>
      <trkpt lat="48.56478" lon="-3.54491">
        <ele>187</ele>
        <time>2020-06-10T15:06:04Z</time>
      </trkpt>
      <trkpt lat="48.56475" lon="-3.54485">
        <ele>187.1</ele>
        <time>2020-06-10T15:06:05Z</time>
      </trkpt>
      <trkpt lat="48.56473" lon="-3.54481">
        <ele>187.3</ele>
        <time>2020-06-10T15:06:06Z</time>
      </trkpt>
      <trkpt lat="48.56471" lon="-3.54475">
        <ele>187.4</ele>
        <time>2020-06-10T15:06:07Z</time>
      </trkpt>
      <trkpt lat="48.56468" lon="-3.54469">
        <ele>187.5</ele>
        <time>2020-06-10T15:06:08Z</time>
      </trkpt>
      <trkpt lat="48.56465" lon="-3.54465">
        <ele>187.7</ele>
        <time>2020-06-10T15:06:09Z</time>
      </trkpt>
      <trkpt lat="48.56461" lon="-3.54459">
        <ele>187.9</ele>
        <time>2020-06-10T15:06:10Z</time>
      </trkpt>
      <trkpt lat="48.56458" lon="-3.54454">
        <ele>188</ele>
        <time>2020-06-10T15:06:11Z</time>
      </trkpt>
      <trkpt lat="48.56455" lon="-3.54451">
        <ele>188.2</ele>
        <time>2020-06-10T15:06:12Z</time>
      </trkpt>
      <trkpt lat="48.56453" lon="-3.54446">
        <ele>188.3</ele>
        <time>2020-06-10T15:06:13Z</time>
      </trkpt>
      <trkpt lat="48.56452" lon="-3.54442">
        <ele>188.5</ele>
        <time>2020-06-10T15:06:14Z</time>
      </trkpt>
      <trkpt lat="48.56451" lon="-3.54437">
        <ele>188.6</ele>
        <time>2020-06-10T15:06:15Z</time>
      </trkpt>
      <trkpt lat="48.5645" lon="-3.54432">
        <ele>188.8</ele>
        <time>2020-06-10T15:06:16Z</time>
      </trkpt>
      <trkpt lat="48.5645" lon="-3.54426">
        <ele>188.9</ele>
        <time>2020-06-10T15:06:17Z</time>
      </trkpt>
      <trkpt lat="48.56452" lon="-3.54422">
        <ele>189.1</ele>
        <time>2020-06-10T15:06:18Z</time>
      </trkpt>
      <trkpt lat="48.56455" lon="-3.54419">
        <ele>189.2</ele>
        <time>2020-06-10T15:06:19Z</time>
      </trkpt>
      <trkpt lat="48.56458" lon="-3.54416">
        <ele>189.3</ele>
        <time>2020-06-10T15:06:20Z</time>
      </trkpt>
      <trkpt lat="48.56462" lon="-3.54412">
        <ele>189.3</ele>
        <time>2020-06-10T15:06:21Z</time>
      </trkpt>
      <trkpt lat="48.56466" lon="-3.54409">
        <ele>189.4</ele>
        <time>2020-06-10T15:06:22Z</time>
      </trkpt>
      <trkpt lat="48.56469" lon="-3.54405">
        <ele>189.4</ele>
        <time>2020-06-10T15:06:23Z</time>
      </trkpt>
      <trkpt lat="48.56473" lon="-3.54405">
        <ele>189.4</ele>
        <time>2020-06-10T15:06:24Z</time>
      </trkpt>
      <trkpt lat="48.56477" lon="-3.54401">
        <ele>189.5</ele>
        <time>2020-06-10T15:06:25Z</time>
      </trkpt>
      <trkpt lat="48.56481" lon="-3.54401">
        <ele>189.5</ele>
        <time>2020-06-10T15:06:26Z</time>
      </trkpt>
      <trkpt lat="48.56485" lon="-3.54399">
        <ele>189.6</ele>
        <time>2020-06-10T15:06:27Z</time>
      </trkpt>
      <trkpt lat="48.56488" lon="-3.54397">
        <ele>189.7</ele>
        <time>2020-06-10T15:06:28Z</time>
      </trkpt>
      <trkpt lat="48.56492" lon="-3.54395">
        <ele>189.8</ele>
        <time>2020-06-10T15:06:29Z</time>
      </trkpt>
      <trkpt lat="48.56495" lon="-3.54393">
        <ele>189.9</ele>
        <time>2020-06-10T15:06:30Z</time>
      </trkpt>
      <trkpt lat="48.56498" lon="-3.54391">
        <ele>189.9</ele>
        <time>2020-06-10T15:06:31Z</time>
      </trkpt>
      <trkpt lat="48.565" lon="-3.5439">
        <ele>190</ele>
        <time>2020-06-10T15:06:32Z</time>
      </trkpt>
      <trkpt lat="48.56503" lon="-3.54389">
        <ele>190.1</ele>
        <time>2020-06-10T15:06:33Z</time>
      </trkpt>
      <trkpt lat="48.56506" lon="-3.54387">
        <ele>190.1</ele>
        <time>2020-06-10T15:06:34Z</time>
      </trkpt>
      <trkpt lat="48.56508" lon="-3.54387">
        <ele>190.2</ele>
        <time>2020-06-10T15:06:35Z</time>
      </trkpt>
      <trkpt lat="48.56509" lon="-3.54387">
        <ele>190.2</ele>
        <time>2020-06-10T15:06:36Z</time>
      </trkpt>
      <trkpt lat="48.56509" lon="-3.54386">
        <ele>190.2</ele>
        <time>2020-06-10T15:06:37Z</time>
      </trkpt>
      <trkpt lat="48.56509" lon="-3.54386">
        <ele>190.2</ele>
        <time>2020-06-10T15:06:38Z</time>
      </trkpt>
      <trkpt lat="48.56509" lon="-3.54386">
        <ele>190.2</ele>
        <time>2020-06-10T15:06:39Z</time>
      </trkpt>
      <trkpt lat="48.5651" lon="-3.54385">
        <ele>190.2</ele>
        <time>2020-06-10T15:06:40Z</time>
      </trkpt>
      <trkpt lat="48.5651" lon="-3.54385">
        <ele>190.2</ele>
        <time>2020-06-10T15:06:41Z</time>
      </trkpt>
      <trkpt lat="48.5651" lon="-3.54385">
        <ele>190.2</ele>
        <time>2020-06-10T15:06:42Z</time>
      </trkpt>
      <trkpt lat="48.56511" lon="-3.54385">
        <ele>190.2</ele>
        <time>2020-06-10T15:06:43Z</time>
      </trkpt>
      <trkpt lat="48.56511" lon="-3.54384">
        <ele>190.2</ele>
        <time>2020-06-10T15:06:44Z</time>
      </trkpt>
      <trkpt lat="48.56511" lon="-3.54384">
        <ele>190.2</ele>
        <time>2020-06-10T15:06:45Z</time>
      </trkpt>
      <trkpt lat="48.56512" lon="-3.54384">
        <ele>190.2</ele>
        <time>2020-06-10T15:06:46Z</time>
      </trkpt>
      <trkpt lat="48.56512" lon="-3.54384">
        <ele>190.3</ele>
        <time>2020-06-10T15:06:47Z</time>
      </trkpt>
      <trkpt lat="48.56512" lon="-3.54383">
        <ele>190.3</ele>
        <time>2020-06-10T15:07:14Z</time>
      </trkpt>
      <trkpt lat="48.56512" lon="-3.54383">
        <ele>190.3</ele>
        <time>2020-06-10T15:07:15Z</time>
      </trkpt>
      <trkpt lat="48.56516" lon="-3.54382">
        <ele>190.3</ele>
        <time>2020-06-10T15:07:16Z</time>
      </trkpt>
      <trkpt lat="48.56517" lon="-3.54382">
        <ele>190.3</ele>
        <time>2020-06-10T15:07:17Z</time>
      </trkpt>
      <trkpt lat="48.56521" lon="-3.54378">
        <ele>190.4</ele>
        <time>2020-06-10T15:07:18Z</time>
      </trkpt>
      <trkpt lat="48.56522" lon="-3.54376">
        <ele>190.4</ele>
        <time>2020-06-10T15:07:19Z</time>
      </trkpt>
      <trkpt lat="48.56525" lon="-3.54373">
        <ele>190.5</ele>
        <time>2020-06-10T15:07:20Z</time>
      </trkpt>
      <trkpt lat="48.56528" lon="-3.54371">
        <ele>190.6</ele>
        <time>2020-06-10T15:07:21Z</time>
      </trkpt>
      <trkpt lat="48.56531" lon="-3.54369">
        <ele>190.6</ele>
        <time>2020-06-10T15:07:22Z</time>
      </trkpt>
      <trkpt lat="48.56534" lon="-3.54367">
        <ele>190.7</ele>
        <time>2020-06-10T15:07:23Z</time>
      </trkpt>
      <trkpt lat="48.56537" lon="-3.54365">
        <ele>190.7</ele>
        <time>2020-06-10T15:07:24Z</time>
      </trkpt>
      <trkpt lat="48.5654" lon="-3.54364">
        <ele>190.7</ele>
        <time>2020-06-10T15:07:25Z</time>
      </trkpt>
      <trkpt lat="48.56543" lon="-3.54362">
        <ele>190.8</ele>
        <time>2020-06-10T15:07:26Z</time>
      </trkpt>
      <trkpt lat="48.56547" lon="-3.54361">
        <ele>190.8</ele>
        <time>2020-06-10T15:07:27Z</time>
      </trkpt>
      <trkpt lat="48.56548" lon="-3.54361">
        <ele>190.9</ele>
        <time>2020-06-10T15:07:28Z</time>
      </trkpt>
      <trkpt lat="48.56552" lon="-3.54361">
        <ele>190.9</ele>
        <time>2020-06-10T15:07:29Z</time>
      </trkpt>
      <trkpt lat="48.56556" lon="-3.5436">
        <ele>191</ele>
        <time>2020-06-10T15:07:30Z</time>
      </trkpt>
      <trkpt lat="48.56559" lon="-3.54359">
        <ele>191</ele>
        <time>2020-06-10T15:07:31Z</time>
      </trkpt>
      <trkpt lat="48.56563" lon="-3.54358">
        <ele>191.1</ele>
        <time>2020-06-10T15:07:32Z</time>
      </trkpt>
      <trkpt lat="48.56565" lon="-3.54358">
        <ele>191.1</ele>
        <time>2020-06-10T15:07:33Z</time>
      </trkpt>
      <trkpt lat="48.56568" lon="-3.54356">
        <ele>191.2</ele>
        <time>2020-06-10T15:07:34Z</time>
      </trkpt>
      <trkpt lat="48.56572" lon="-3.54354">
        <ele>191.2</ele>
        <time>2020-06-10T15:07:35Z</time>
      </trkpt>
      <trkpt lat="48.56575" lon="-3.54352">
        <ele>191.2</ele>
        <time>2020-06-10T15:07:36Z</time>
      </trkpt>
      <trkpt lat="48.56578" lon="-3.54351">
        <ele>191.3</ele>
        <time>2020-06-10T15:07:37Z</time>
      </trkpt>
      <trkpt lat="48.56581" lon="-3.54351">
        <ele>191.3</ele>
        <time>2020-06-10T15:07:38Z</time>
      </trkpt>
      <trkpt lat="48.56584" lon="-3.54351">
        <ele>191.3</ele>
        <time>2020-06-10T15:07:39Z</time>
      </trkpt>
      <trkpt lat="48.56587" lon="-3.5435">
        <ele>191.3</ele>
        <time>2020-06-10T15:07:40Z</time>
      </trkpt>
      <trkpt lat="48.5659" lon="-3.54349">
        <ele>191.3</ele>
        <time>2020-06-10T15:07:41Z</time>
      </trkpt>
      <trkpt lat="48.56594" lon="-3.54349">
        <ele>191.4</ele>
        <time>2020-06-10T15:07:42Z</time>
      </trkpt>
      <trkpt lat="48.56597" lon="-3.54347">
        <ele>191.4</ele>
        <time>2020-06-10T15:07:43Z</time>
      </trkpt>
      <trkpt lat="48.566" lon="-3.54347">
        <ele>191.4</ele>
        <time>2020-06-10T15:07:44Z</time>
      </trkpt>
      <trkpt lat="48.56603" lon="-3.54346">
        <ele>191.3</ele>
        <time>2020-06-10T15:07:45Z</time>
      </trkpt>
      <trkpt lat="48.56606" lon="-3.54345">
        <ele>191.3</ele>
        <time>2020-06-10T15:07:46Z</time>
      </trkpt>
      <trkpt lat="48.56609" lon="-3.54344">
        <ele>191.3</ele>
        <time>2020-06-10T15:07:47Z</time>
      </trkpt>
      <trkpt lat="48.56612" lon="-3.54343">
        <ele>191.3</ele>
        <time>2020-06-10T15:07:48Z</time>
      </trkpt>
      <trkpt lat="48.56616" lon="-3.5434">
        <ele>191.3</ele>
        <time>2020-06-10T15:07:49Z</time>
      </trkpt>
      <trkpt lat="48.56617" lon="-3.54339">
        <ele>191.3</ele>
        <time>2020-06-10T15:07:50Z</time>
      </trkpt>
      <trkpt lat="48.5662" lon="-3.54338">
        <ele>191.3</ele>
        <time>2020-06-10T15:07:51Z</time>
      </trkpt>
      <trkpt lat="48.56622" lon="-3.54335">
        <ele>191.3</ele>
        <time>2020-06-10T15:07:52Z</time>
      </trkpt>
      <trkpt lat="48.56626" lon="-3.54332">
        <ele>191.3</ele>
        <time>2020-06-10T15:07:53Z</time>
      </trkpt>
      <trkpt lat="48.56627" lon="-3.5433">
        <ele>191.3</ele>
        <time>2020-06-10T15:07:54Z</time>
      </trkpt>
      <trkpt lat="48.56629" lon="-3.54326">
        <ele>191.3</ele>
        <time>2020-06-10T15:07:55Z</time>
      </trkpt>
      <trkpt lat="48.56629" lon="-3.54324">
        <ele>191.2</ele>
        <time>2020-06-10T15:07:56Z</time>
      </trkpt>
      <trkpt lat="48.5663" lon="-3.54318">
        <ele>191.2</ele>
        <time>2020-06-10T15:07:57Z</time>
      </trkpt>
      <trkpt lat="48.56631" lon="-3.54313">
        <ele>191.2</ele>
        <time>2020-06-10T15:07:58Z</time>
      </trkpt>
      <trkpt lat="48.5663" lon="-3.54307">
        <ele>191.2</ele>
        <time>2020-06-10T15:07:59Z</time>
      </trkpt>
      <trkpt lat="48.5663" lon="-3.54305">
        <ele>191.2</ele>
        <time>2020-06-10T15:08:00Z</time>
      </trkpt>
      <trkpt lat="48.5663" lon="-3.54301">
        <ele>191.3</ele>
        <time>2020-06-10T15:08:01Z</time>
      </trkpt>
      <trkpt lat="48.5663" lon="-3.54295">
        <ele>191.3</ele>
        <time>2020-06-10T15:08:02Z</time>
      </trkpt>
      <trkpt lat="48.56629" lon="-3.5429">
        <ele>191.3</ele>
        <time>2020-06-10T15:08:03Z</time>
      </trkpt>
      <trkpt lat="48.56629" lon="-3.54285">
        <ele>191.3</ele>
        <time>2020-06-10T15:08:04Z</time>
      </trkpt>
      <trkpt lat="48.56628" lon="-3.5428">
        <ele>191.4</ele>
        <time>2020-06-10T15:08:05Z</time>
      </trkpt>
      <trkpt lat="48.56627" lon="-3.54276">
        <ele>191.4</ele>
        <time>2020-06-10T15:08:06Z</time>
      </trkpt>
      <trkpt lat="48.56627" lon="-3.5427">
        <ele>191.5</ele>
        <time>2020-06-10T15:08:07Z</time>
      </trkpt>
      <trkpt lat="48.56626" lon="-3.54265">
        <ele>191.7</ele>
        <time>2020-06-10T15:08:08Z</time>
      </trkpt>
      <trkpt lat="48.56626" lon="-3.5426">
        <ele>191.8</ele>
        <time>2020-06-10T15:08:09Z</time>
      </trkpt>
      <trkpt lat="48.56625" lon="-3.54255">
        <ele>191.9</ele>
        <time>2020-06-10T15:08:10Z</time>
      </trkpt>
      <trkpt lat="48.56626" lon="-3.54251">
        <ele>192</ele>
        <time>2020-06-10T15:08:11Z</time>
      </trkpt>
      <trkpt lat="48.56626" lon="-3.54246">
        <ele>192.1</ele>
        <time>2020-06-10T15:08:12Z</time>
      </trkpt>
      <trkpt lat="48.56626" lon="-3.5424">
        <ele>192.2</ele>
        <time>2020-06-10T15:08:13Z</time>
      </trkpt>
      <trkpt lat="48.56626" lon="-3.54234">
        <ele>192.4</ele>
        <time>2020-06-10T15:08:14Z</time>
      </trkpt>
      <trkpt lat="48.56626" lon="-3.54229">
        <ele>192.5</ele>
        <time>2020-06-10T15:08:15Z</time>
      </trkpt>
      <trkpt lat="48.56626" lon="-3.54224">
        <ele>192.7</ele>
        <time>2020-06-10T15:08:16Z</time>
      </trkpt>
      <trkpt lat="48.56625" lon="-3.5422">
        <ele>192.8</ele>
        <time>2020-06-10T15:08:17Z</time>
      </trkpt>
      <trkpt lat="48.56624" lon="-3.54216">
        <ele>192.9</ele>
        <time>2020-06-10T15:08:18Z</time>
      </trkpt>
      <trkpt lat="48.56624" lon="-3.54211">
        <ele>193.1</ele>
        <time>2020-06-10T15:08:19Z</time>
      </trkpt>
      <trkpt lat="48.56623" lon="-3.54204">
        <ele>193.4</ele>
        <time>2020-06-10T15:08:20Z</time>
      </trkpt>
      <trkpt lat="48.56623" lon="-3.54201">
        <ele>193.5</ele>
        <time>2020-06-10T15:08:21Z</time>
      </trkpt>
      <trkpt lat="48.56623" lon="-3.54197">
        <ele>193.7</ele>
        <time>2020-06-10T15:08:22Z</time>
      </trkpt>
      <trkpt lat="48.56622" lon="-3.54191">
        <ele>193.9</ele>
        <time>2020-06-10T15:08:23Z</time>
      </trkpt>
      <trkpt lat="48.56622" lon="-3.5419">
        <ele>193.9</ele>
        <time>2020-06-10T15:08:24Z</time>
      </trkpt>
      <trkpt lat="48.56621" lon="-3.54185">
        <ele>194.1</ele>
        <time>2020-06-10T15:08:25Z</time>
      </trkpt>
      <trkpt lat="48.56619" lon="-3.54181">
        <ele>194.4</ele>
        <time>2020-06-10T15:08:26Z</time>
      </trkpt>
      <trkpt lat="48.56618" lon="-3.54176">
        <ele>194.5</ele>
        <time>2020-06-10T15:08:27Z</time>
      </trkpt>
      <trkpt lat="48.56618" lon="-3.5417">
        <ele>194.8</ele>
        <time>2020-06-10T15:08:28Z</time>
      </trkpt>
      <trkpt lat="48.56618" lon="-3.54168">
        <ele>194.8</ele>
        <time>2020-06-10T15:08:29Z</time>
      </trkpt>
      <trkpt lat="48.56618" lon="-3.54164">
        <ele>195.2</ele>
        <time>2020-06-10T15:08:30Z</time>
      </trkpt>
      <trkpt lat="48.56618" lon="-3.54163">
        <ele>195.2</ele>
        <time>2020-06-10T15:08:31Z</time>
      </trkpt>
      <trkpt lat="48.56618" lon="-3.54158">
        <ele>195.4</ele>
        <time>2020-06-10T15:08:32Z</time>
      </trkpt>
      <trkpt lat="48.56618" lon="-3.54156">
        <ele>195.5</ele>
        <time>2020-06-10T15:08:33Z</time>
      </trkpt>
      <trkpt lat="48.56618" lon="-3.54151">
        <ele>195.7</ele>
        <time>2020-06-10T15:08:34Z</time>
      </trkpt>
      <trkpt lat="48.56618" lon="-3.54149">
        <ele>195.8</ele>
        <time>2020-06-10T15:08:35Z</time>
      </trkpt>
      <trkpt lat="48.56618" lon="-3.54144">
        <ele>196</ele>
        <time>2020-06-10T15:08:36Z</time>
      </trkpt>
      <trkpt lat="48.56619" lon="-3.54143">
        <ele>196</ele>
        <time>2020-06-10T15:08:37Z</time>
      </trkpt>
      <trkpt lat="48.56618" lon="-3.54137">
        <ele>196.2</ele>
        <time>2020-06-10T15:08:38Z</time>
      </trkpt>
      <trkpt lat="48.56618" lon="-3.54135">
        <ele>196.3</ele>
        <time>2020-06-10T15:08:39Z</time>
      </trkpt>
      <trkpt lat="48.56618" lon="-3.54129">
        <ele>196.6</ele>
        <time>2020-06-10T15:08:40Z</time>
      </trkpt>
      <trkpt lat="48.56619" lon="-3.54127">
        <ele>196.7</ele>
        <time>2020-06-10T15:08:41Z</time>
      </trkpt>
      <trkpt lat="48.56619" lon="-3.54122">
        <ele>196.9</ele>
        <time>2020-06-10T15:08:42Z</time>
      </trkpt>
      <trkpt lat="48.56619" lon="-3.5412">
        <ele>196.9</ele>
        <time>2020-06-10T15:08:43Z</time>
      </trkpt>
      <trkpt lat="48.56619" lon="-3.54116">
        <ele>197.1</ele>
        <time>2020-06-10T15:08:44Z</time>
      </trkpt>
      <trkpt lat="48.56618" lon="-3.54115">
        <ele>197.2</ele>
        <time>2020-06-10T15:08:45Z</time>
      </trkpt>
      <trkpt lat="48.56618" lon="-3.54109">
        <ele>197.4</ele>
        <time>2020-06-10T15:08:46Z</time>
      </trkpt>
      <trkpt lat="48.56617" lon="-3.54107">
        <ele>197.5</ele>
        <time>2020-06-10T15:08:47Z</time>
      </trkpt>
      <trkpt lat="48.56617" lon="-3.54101">
        <ele>197.7</ele>
        <time>2020-06-10T15:08:48Z</time>
      </trkpt>
      <trkpt lat="48.56617" lon="-3.54099">
        <ele>197.8</ele>
        <time>2020-06-10T15:08:49Z</time>
      </trkpt>
      <trkpt lat="48.56616" lon="-3.54093">
        <ele>198.1</ele>
        <time>2020-06-10T15:08:50Z</time>
      </trkpt>
      <trkpt lat="48.56616" lon="-3.54091">
        <ele>198.2</ele>
        <time>2020-06-10T15:08:51Z</time>
      </trkpt>
      <trkpt lat="48.56616" lon="-3.54087">
        <ele>198.3</ele>
        <time>2020-06-10T15:08:52Z</time>
      </trkpt>
      <trkpt lat="48.56615" lon="-3.54083">
        <ele>198.5</ele>
        <time>2020-06-10T15:08:53Z</time>
      </trkpt>
      <trkpt lat="48.56615" lon="-3.54078">
        <ele>198.7</ele>
        <time>2020-06-10T15:08:54Z</time>
      </trkpt>
      <trkpt lat="48.56614" lon="-3.54074">
        <ele>198.9</ele>
        <time>2020-06-10T15:08:55Z</time>
      </trkpt>
      <trkpt lat="48.56614" lon="-3.5407">
        <ele>199</ele>
        <time>2020-06-10T15:08:56Z</time>
      </trkpt>
      <trkpt lat="48.56614" lon="-3.54066">
        <ele>199.2</ele>
        <time>2020-06-10T15:08:57Z</time>
      </trkpt>
      <trkpt lat="48.56613" lon="-3.5406">
        <ele>199.3</ele>
        <time>2020-06-10T15:08:58Z</time>
      </trkpt>
      <trkpt lat="48.56613" lon="-3.54058">
        <ele>199.4</ele>
        <time>2020-06-10T15:08:59Z</time>
      </trkpt>
      <trkpt lat="48.56613" lon="-3.54054">
        <ele>199.6</ele>
        <time>2020-06-10T15:09:00Z</time>
      </trkpt>
      <trkpt lat="48.56613" lon="-3.54048">
        <ele>199.8</ele>
        <time>2020-06-10T15:09:01Z</time>
      </trkpt>
      <trkpt lat="48.56613" lon="-3.54046">
        <ele>199.9</ele>
        <time>2020-06-10T15:09:02Z</time>
      </trkpt>
      <trkpt lat="48.56612" lon="-3.54042">
        <ele>200.2</ele>
        <time>2020-06-10T15:09:03Z</time>
      </trkpt>
      <trkpt lat="48.56612" lon="-3.54037">
        <ele>200.5</ele>
        <time>2020-06-10T15:09:04Z</time>
      </trkpt>
      <trkpt lat="48.56612" lon="-3.54035">
        <ele>200.5</ele>
        <time>2020-06-10T15:09:05Z</time>
      </trkpt>
      <trkpt lat="48.56612" lon="-3.54029">
        <ele>200.9</ele>
        <time>2020-06-10T15:09:06Z</time>
      </trkpt>
      <trkpt lat="48.56611" lon="-3.54027">
        <ele>201</ele>
        <time>2020-06-10T15:09:07Z</time>
      </trkpt>
      <trkpt lat="48.56612" lon="-3.54023">
        <ele>201.2</ele>
        <time>2020-06-10T15:09:08Z</time>
      </trkpt>
      <trkpt lat="48.56612" lon="-3.54018">
        <ele>201.4</ele>
        <time>2020-06-10T15:09:09Z</time>
      </trkpt>
      <trkpt lat="48.56611" lon="-3.54016">
        <ele>201.5</ele>
        <time>2020-06-10T15:09:10Z</time>
      </trkpt>
      <trkpt lat="48.56611" lon="-3.54011">
        <ele>201.7</ele>
        <time>2020-06-10T15:09:11Z</time>
      </trkpt>
      <trkpt lat="48.56611" lon="-3.54009">
        <ele>201.8</ele>
        <time>2020-06-10T15:09:12Z</time>
      </trkpt>
      <trkpt lat="48.5661" lon="-3.54005">
        <ele>202</ele>
        <time>2020-06-10T15:09:13Z</time>
      </trkpt>
      <trkpt lat="48.5661" lon="-3.54001">
        <ele>202.2</ele>
        <time>2020-06-10T15:09:14Z</time>
      </trkpt>
      <trkpt lat="48.56609" lon="-3.53997">
        <ele>202.3</ele>
        <time>2020-06-10T15:09:15Z</time>
      </trkpt>
      <trkpt lat="48.5661" lon="-3.53991">
        <ele>202.5</ele>
        <time>2020-06-10T15:09:16Z</time>
      </trkpt>
      <trkpt lat="48.5661" lon="-3.53989">
        <ele>202.6</ele>
        <time>2020-06-10T15:09:17Z</time>
      </trkpt>
      <trkpt lat="48.56609" lon="-3.53985">
        <ele>202.8</ele>
        <time>2020-06-10T15:09:18Z</time>
      </trkpt>
      <trkpt lat="48.56609" lon="-3.53981">
        <ele>202.9</ele>
        <time>2020-06-10T15:09:19Z</time>
      </trkpt>
      <trkpt lat="48.56609" lon="-3.53977">
        <ele>203.1</ele>
        <time>2020-06-10T15:09:20Z</time>
      </trkpt>
      <trkpt lat="48.56608" lon="-3.53971">
        <ele>203.4</ele>
        <time>2020-06-10T15:09:21Z</time>
      </trkpt>
      <trkpt lat="48.56607" lon="-3.53969">
        <ele>203.4</ele>
        <time>2020-06-10T15:09:22Z</time>
      </trkpt>
      <trkpt lat="48.56607" lon="-3.53963">
        <ele>203.7</ele>
        <time>2020-06-10T15:09:23Z</time>
      </trkpt>
      <trkpt lat="48.56608" lon="-3.53961">
        <ele>203.7</ele>
        <time>2020-06-10T15:09:24Z</time>
      </trkpt>
      <trkpt lat="48.56608" lon="-3.53957">
        <ele>203.9</ele>
        <time>2020-06-10T15:09:25Z</time>
      </trkpt>
      <trkpt lat="48.56607" lon="-3.53953">
        <ele>204.1</ele>
        <time>2020-06-10T15:09:26Z</time>
      </trkpt>
      <trkpt lat="48.56606" lon="-3.53947">
        <ele>204.3</ele>
        <time>2020-06-10T15:09:27Z</time>
      </trkpt>
      <trkpt lat="48.56606" lon="-3.53945">
        <ele>204.4</ele>
        <time>2020-06-10T15:09:28Z</time>
      </trkpt>
      <trkpt lat="48.56605" lon="-3.53939">
        <ele>204.6</ele>
        <time>2020-06-10T15:09:29Z</time>
      </trkpt>
      <trkpt lat="48.56604" lon="-3.53937">
        <ele>204.7</ele>
        <time>2020-06-10T15:09:30Z</time>
      </trkpt>
      <trkpt lat="48.56603" lon="-3.53932">
        <ele>204.9</ele>
        <time>2020-06-10T15:09:31Z</time>
      </trkpt>
      <trkpt lat="48.56602" lon="-3.53927">
        <ele>205.1</ele>
        <time>2020-06-10T15:09:32Z</time>
      </trkpt>
      <trkpt lat="48.56601" lon="-3.53923">
        <ele>205.2</ele>
        <time>2020-06-10T15:09:33Z</time>
      </trkpt>
      <trkpt lat="48.566" lon="-3.53918">
        <ele>205.4</ele>
        <time>2020-06-10T15:09:34Z</time>
      </trkpt>
      <trkpt lat="48.566" lon="-3.53914">
        <ele>205.5</ele>
        <time>2020-06-10T15:09:35Z</time>
      </trkpt>
      <trkpt lat="48.56599" lon="-3.5391">
        <ele>205.6</ele>
        <time>2020-06-10T15:09:36Z</time>
      </trkpt>
      <trkpt lat="48.56598" lon="-3.53905">
        <ele>205.7</ele>
        <time>2020-06-10T15:09:37Z</time>
      </trkpt>
      <trkpt lat="48.56598" lon="-3.53901">
        <ele>205.9</ele>
        <time>2020-06-10T15:09:38Z</time>
      </trkpt>
      <trkpt lat="48.56598" lon="-3.53896">
        <ele>206</ele>
        <time>2020-06-10T15:09:39Z</time>
      </trkpt>
      <trkpt lat="48.56598" lon="-3.53891">
        <ele>206.2</ele>
        <time>2020-06-10T15:09:40Z</time>
      </trkpt>
      <trkpt lat="48.56598" lon="-3.53886">
        <ele>206.3</ele>
        <time>2020-06-10T15:09:41Z</time>
      </trkpt>
      <trkpt lat="48.56598" lon="-3.5388">
        <ele>206.5</ele>
        <time>2020-06-10T15:09:42Z</time>
      </trkpt>
      <trkpt lat="48.56598" lon="-3.53879">
        <ele>206.5</ele>
        <time>2020-06-10T15:09:43Z</time>
      </trkpt>
      <trkpt lat="48.56597" lon="-3.53875">
        <ele>206.6</ele>
        <time>2020-06-10T15:09:44Z</time>
      </trkpt>
      <trkpt lat="48.56596" lon="-3.5387">
        <ele>206.7</ele>
        <time>2020-06-10T15:09:45Z</time>
      </trkpt>
      <trkpt lat="48.56595" lon="-3.53865">
        <ele>206.8</ele>
        <time>2020-06-10T15:09:46Z</time>
      </trkpt>
      <trkpt lat="48.56595" lon="-3.53864">
        <ele>206.9</ele>
        <time>2020-06-10T15:09:47Z</time>
      </trkpt>
      <trkpt lat="48.56595" lon="-3.53859">
        <ele>207</ele>
        <time>2020-06-10T15:09:48Z</time>
      </trkpt>
      <trkpt lat="48.56594" lon="-3.53858">
        <ele>207</ele>
        <time>2020-06-10T15:09:49Z</time>
      </trkpt>
      <trkpt lat="48.56594" lon="-3.53853">
        <ele>207.1</ele>
        <time>2020-06-10T15:09:50Z</time>
      </trkpt>
      <trkpt lat="48.56593" lon="-3.53851">
        <ele>207.1</ele>
        <time>2020-06-10T15:09:51Z</time>
      </trkpt>
      <trkpt lat="48.56593" lon="-3.53848">
        <ele>207.1</ele>
        <time>2020-06-10T15:09:52Z</time>
      </trkpt>
      <trkpt lat="48.56593" lon="-3.53846">
        <ele>207.2</ele>
        <time>2020-06-10T15:09:53Z</time>
      </trkpt>
      <trkpt lat="48.56592" lon="-3.53842">
        <ele>207.2</ele>
        <time>2020-06-10T15:09:54Z</time>
      </trkpt>
      <trkpt lat="48.56592" lon="-3.5384">
        <ele>207.2</ele>
        <time>2020-06-10T15:09:55Z</time>
      </trkpt>
      <trkpt lat="48.56593" lon="-3.53839">
        <ele>207.3</ele>
        <time>2020-06-10T15:09:56Z</time>
      </trkpt>
      <trkpt lat="48.56592" lon="-3.53836">
        <ele>207.3</ele>
        <time>2020-06-10T15:09:57Z</time>
      </trkpt>
      <trkpt lat="48.56592" lon="-3.53832">
        <ele>207.4</ele>
        <time>2020-06-10T15:09:58Z</time>
      </trkpt>
      <trkpt lat="48.56592" lon="-3.5383">
        <ele>207.4</ele>
        <time>2020-06-10T15:09:59Z</time>
      </trkpt>
      <trkpt lat="48.56592" lon="-3.53826">
        <ele>207.4</ele>
        <time>2020-06-10T15:10:00Z</time>
      </trkpt>
      <trkpt lat="48.56591" lon="-3.53824">
        <ele>207.4</ele>
        <time>2020-06-10T15:10:01Z</time>
      </trkpt>
      <trkpt lat="48.5659" lon="-3.5382">
        <ele>207.5</ele>
        <time>2020-06-10T15:10:02Z</time>
      </trkpt>
      <trkpt lat="48.56589" lon="-3.53818">
        <ele>207.5</ele>
        <time>2020-06-10T15:10:03Z</time>
      </trkpt>
      <trkpt lat="48.56589" lon="-3.53814">
        <ele>207.5</ele>
        <time>2020-06-10T15:10:04Z</time>
      </trkpt>
      <trkpt lat="48.56588" lon="-3.53813">
        <ele>207.6</ele>
        <time>2020-06-10T15:10:05Z</time>
      </trkpt>
      <trkpt lat="48.56587" lon="-3.53809">
        <ele>207.6</ele>
        <time>2020-06-10T15:10:06Z</time>
      </trkpt>
      <trkpt lat="48.56588" lon="-3.53806">
        <ele>207.6</ele>
        <time>2020-06-10T15:10:07Z</time>
      </trkpt>
      <trkpt lat="48.56588" lon="-3.53804">
        <ele>207.6</ele>
        <time>2020-06-10T15:10:08Z</time>
      </trkpt>
      <trkpt lat="48.56587" lon="-3.53801">
        <ele>207.6</ele>
        <time>2020-06-10T15:10:09Z</time>
      </trkpt>
      <trkpt lat="48.56587" lon="-3.53799">
        <ele>207.6</ele>
        <time>2020-06-10T15:10:10Z</time>
      </trkpt>
      <trkpt lat="48.56586" lon="-3.53794">
        <ele>207.6</ele>
        <time>2020-06-10T15:10:11Z</time>
      </trkpt>
      <trkpt lat="48.56585" lon="-3.53792">
        <ele>207.6</ele>
        <time>2020-06-10T15:10:12Z</time>
      </trkpt>
      <trkpt lat="48.56585" lon="-3.53787">
        <ele>207.6</ele>
        <time>2020-06-10T15:10:13Z</time>
      </trkpt>
      <trkpt lat="48.56585" lon="-3.53785">
        <ele>207.6</ele>
        <time>2020-06-10T15:10:14Z</time>
      </trkpt>
      <trkpt lat="48.56585" lon="-3.53783">
        <ele>207.6</ele>
        <time>2020-06-10T15:10:15Z</time>
      </trkpt>
      <trkpt lat="48.56584" lon="-3.53781">
        <ele>207.6</ele>
        <time>2020-06-10T15:10:16Z</time>
      </trkpt>
      <trkpt lat="48.56584" lon="-3.5378">
        <ele>207.6</ele>
        <time>2020-06-10T15:10:17Z</time>
      </trkpt>
      <trkpt lat="48.56584" lon="-3.53781">
        <ele>207.6</ele>
        <time>2020-06-10T15:10:18Z</time>
      </trkpt>
      <trkpt lat="48.56584" lon="-3.53782">
        <ele>207.6</ele>
        <time>2020-06-10T15:10:19Z</time>
      </trkpt>
      <trkpt lat="48.56584" lon="-3.53781">
        <ele>207.6</ele>
        <time>2020-06-10T15:10:20Z</time>
      </trkpt>
      <trkpt lat="48.56584" lon="-3.53781">
        <ele>207.6</ele>
        <time>2020-06-10T15:10:21Z</time>
      </trkpt>
      <trkpt lat="48.56584" lon="-3.53782">
        <ele>207.5</ele>
        <time>2020-06-10T15:10:22Z</time>
      </trkpt>
      <trkpt lat="48.56584" lon="-3.53782">
        <ele>207.5</ele>
        <time>2020-06-10T15:10:23Z</time>
      </trkpt>
      <trkpt lat="48.56584" lon="-3.53781">
        <ele>207.5</ele>
        <time>2020-06-10T15:10:24Z</time>
      </trkpt>
      <trkpt lat="48.56584" lon="-3.53781">
        <ele>207.5</ele>
        <time>2020-06-10T15:10:25Z</time>
      </trkpt>
      <trkpt lat="48.56584" lon="-3.53781">
        <ele>207.5</ele>
        <time>2020-06-10T15:10:26Z</time>
      </trkpt>
      <trkpt lat="48.56584" lon="-3.53778">
        <ele>207.5</ele>
        <time>2020-06-10T15:10:27Z</time>
      </trkpt>
      <trkpt lat="48.56583" lon="-3.53771">
        <ele>207.5</ele>
        <time>2020-06-10T15:10:29Z</time>
      </trkpt>
      <trkpt lat="48.56583" lon="-3.53766">
        <ele>207.4</ele>
        <time>2020-06-10T15:10:30Z</time>
      </trkpt>
      <trkpt lat="48.56582" lon="-3.53761">
        <ele>207.3</ele>
        <time>2020-06-10T15:10:31Z</time>
      </trkpt>
      <trkpt lat="48.56581" lon="-3.53755">
        <ele>207.3</ele>
        <time>2020-06-10T15:10:32Z</time>
      </trkpt>
      <trkpt lat="48.56581" lon="-3.53748">
        <ele>207.1</ele>
        <time>2020-06-10T15:10:33Z</time>
      </trkpt>
      <trkpt lat="48.56581" lon="-3.53741">
        <ele>207</ele>
        <time>2020-06-10T15:10:34Z</time>
      </trkpt>
      <trkpt lat="48.5658" lon="-3.53735">
        <ele>206.9</ele>
        <time>2020-06-10T15:10:35Z</time>
      </trkpt>
      <trkpt lat="48.5658" lon="-3.53728">
        <ele>206.7</ele>
        <time>2020-06-10T15:10:36Z</time>
      </trkpt>
      <trkpt lat="48.56579" lon="-3.53722">
        <ele>206.6</ele>
        <time>2020-06-10T15:10:37Z</time>
      </trkpt>
      <trkpt lat="48.5658" lon="-3.53717">
        <ele>206.5</ele>
        <time>2020-06-10T15:10:38Z</time>
      </trkpt>
      <trkpt lat="48.5658" lon="-3.53714">
        <ele>206.4</ele>
        <time>2020-06-10T15:10:39Z</time>
      </trkpt>
      <trkpt lat="48.5658" lon="-3.53713">
        <ele>206.4</ele>
        <time>2020-06-10T15:10:40Z</time>
      </trkpt>
      <trkpt lat="48.5658" lon="-3.53712">
        <ele>206.4</ele>
        <time>2020-06-10T15:10:41Z</time>
      </trkpt>
      <trkpt lat="48.56579" lon="-3.53711">
        <ele>206.3</ele>
        <time>2020-06-10T15:10:42Z</time>
      </trkpt>
      <trkpt lat="48.5658" lon="-3.53711">
        <ele>206.3</ele>
        <time>2020-06-10T15:10:43Z</time>
      </trkpt>
      <trkpt lat="48.56579" lon="-3.53709">
        <ele>206.3</ele>
        <time>2020-06-10T15:10:44Z</time>
      </trkpt>
      <trkpt lat="48.56579" lon="-3.53708">
        <ele>206.2</ele>
        <time>2020-06-10T15:10:45Z</time>
      </trkpt>
      <trkpt lat="48.56578" lon="-3.53709">
        <ele>206.2</ele>
        <time>2020-06-10T15:10:46Z</time>
      </trkpt>
      <trkpt lat="48.56578" lon="-3.53709">
        <ele>206.2</ele>
        <time>2020-06-10T15:10:47Z</time>
      </trkpt>
      <trkpt lat="48.56578" lon="-3.53708">
        <ele>206.2</ele>
        <time>2020-06-10T15:10:48Z</time>
      </trkpt>
      <trkpt lat="48.56578" lon="-3.53707">
        <ele>206.2</ele>
        <time>2020-06-10T15:10:49Z</time>
      </trkpt>
      <trkpt lat="48.56578" lon="-3.53704">
        <ele>206.1</ele>
        <time>2020-06-10T15:10:50Z</time>
      </trkpt>
      <trkpt lat="48.56579" lon="-3.53702">
        <ele>206</ele>
        <time>2020-06-10T15:10:51Z</time>
      </trkpt>
      <trkpt lat="48.56579" lon="-3.537">
        <ele>206</ele>
        <time>2020-06-10T15:10:52Z</time>
      </trkpt>
      <trkpt lat="48.5658" lon="-3.53696">
        <ele>205.9</ele>
        <time>2020-06-10T15:10:53Z</time>
      </trkpt>
      <trkpt lat="48.5658" lon="-3.53695">
        <ele>205.9</ele>
        <time>2020-06-10T15:10:54Z</time>
      </trkpt>
      <trkpt lat="48.5658" lon="-3.5369">
        <ele>205.8</ele>
        <time>2020-06-10T15:10:55Z</time>
      </trkpt>
      <trkpt lat="48.56579" lon="-3.53684">
        <ele>205.7</ele>
        <time>2020-06-10T15:10:56Z</time>
      </trkpt>
      <trkpt lat="48.56579" lon="-3.53677">
        <ele>205.5</ele>
        <time>2020-06-10T15:10:57Z</time>
      </trkpt>
      <trkpt lat="48.5658" lon="-3.5367">
        <ele>205.3</ele>
        <time>2020-06-10T15:10:58Z</time>
      </trkpt>
      <trkpt lat="48.5658" lon="-3.53664">
        <ele>205.2</ele>
        <time>2020-06-10T15:10:59Z</time>
      </trkpt>
      <trkpt lat="48.56579" lon="-3.53659">
        <ele>205.1</ele>
        <time>2020-06-10T15:11:00Z</time>
      </trkpt>
      <trkpt lat="48.56579" lon="-3.53654">
        <ele>204.9</ele>
        <time>2020-06-10T15:11:01Z</time>
      </trkpt>
      <trkpt lat="48.56578" lon="-3.53647">
        <ele>204.8</ele>
        <time>2020-06-10T15:11:02Z</time>
      </trkpt>
      <trkpt lat="48.56576" lon="-3.5364">
        <ele>204.6</ele>
        <time>2020-06-10T15:11:03Z</time>
      </trkpt>
      <trkpt lat="48.56575" lon="-3.53631">
        <ele>204.4</ele>
        <time>2020-06-10T15:11:04Z</time>
      </trkpt>
      <trkpt lat="48.56574" lon="-3.53623">
        <ele>204.1</ele>
        <time>2020-06-10T15:11:05Z</time>
      </trkpt>
      <trkpt lat="48.56572" lon="-3.53614">
        <ele>203.9</ele>
        <time>2020-06-10T15:11:06Z</time>
      </trkpt>
      <trkpt lat="48.56571" lon="-3.53605">
        <ele>203.7</ele>
        <time>2020-06-10T15:11:07Z</time>
      </trkpt>
      <trkpt lat="48.5657" lon="-3.53596">
        <ele>203.4</ele>
        <time>2020-06-10T15:11:08Z</time>
      </trkpt>
      <trkpt lat="48.56569" lon="-3.53588">
        <ele>203.3</ele>
        <time>2020-06-10T15:11:09Z</time>
      </trkpt>
      <trkpt lat="48.56567" lon="-3.5358">
        <ele>203.1</ele>
        <time>2020-06-10T15:11:10Z</time>
      </trkpt>
      <trkpt lat="48.56568" lon="-3.53572">
        <ele>202.9</ele>
        <time>2020-06-10T15:11:11Z</time>
      </trkpt>
      <trkpt lat="48.56567" lon="-3.53561">
        <ele>202.7</ele>
        <time>2020-06-10T15:11:12Z</time>
      </trkpt>
      <trkpt lat="48.56566" lon="-3.53553">
        <ele>202.6</ele>
        <time>2020-06-10T15:11:13Z</time>
      </trkpt>
      <trkpt lat="48.56565" lon="-3.53543">
        <ele>202.5</ele>
        <time>2020-06-10T15:11:14Z</time>
      </trkpt>
      <trkpt lat="48.56564" lon="-3.53533">
        <ele>202.4</ele>
        <time>2020-06-10T15:11:15Z</time>
      </trkpt>
      <trkpt lat="48.56564" lon="-3.53524">
        <ele>202.3</ele>
        <time>2020-06-10T15:11:16Z</time>
      </trkpt>
      <trkpt lat="48.56563" lon="-3.53513">
        <ele>202.1</ele>
        <time>2020-06-10T15:11:17Z</time>
      </trkpt>
      <trkpt lat="48.56562" lon="-3.53502">
        <ele>201.8</ele>
        <time>2020-06-10T15:11:18Z</time>
      </trkpt>
      <trkpt lat="48.56561" lon="-3.5349">
        <ele>201.6</ele>
        <time>2020-06-10T15:11:19Z</time>
      </trkpt>
      <trkpt lat="48.5656" lon="-3.53479">
        <ele>201.4</ele>
        <time>2020-06-10T15:11:20Z</time>
      </trkpt>
      <trkpt lat="48.56558" lon="-3.53469">
        <ele>201.3</ele>
        <time>2020-06-10T15:11:21Z</time>
      </trkpt>
      <trkpt lat="48.56556" lon="-3.5346">
        <ele>201.2</ele>
        <time>2020-06-10T15:11:22Z</time>
      </trkpt>
      <trkpt lat="48.56555" lon="-3.5345">
        <ele>201.2</ele>
        <time>2020-06-10T15:11:23Z</time>
      </trkpt>
      <trkpt lat="48.56553" lon="-3.5344">
        <ele>201.1</ele>
        <time>2020-06-10T15:11:24Z</time>
      </trkpt>
      <trkpt lat="48.56552" lon="-3.53431">
        <ele>201.1</ele>
        <time>2020-06-10T15:11:25Z</time>
      </trkpt>
      <trkpt lat="48.56552" lon="-3.53421">
        <ele>201</ele>
        <time>2020-06-10T15:11:26Z</time>
      </trkpt>
      <trkpt lat="48.56551" lon="-3.53412">
        <ele>201</ele>
        <time>2020-06-10T15:11:27Z</time>
      </trkpt>
      <trkpt lat="48.56551" lon="-3.53403">
        <ele>201</ele>
        <time>2020-06-10T15:11:28Z</time>
      </trkpt>
      <trkpt lat="48.5655" lon="-3.53394">
        <ele>201</ele>
        <time>2020-06-10T15:11:29Z</time>
      </trkpt>
      <trkpt lat="48.56549" lon="-3.53386">
        <ele>201</ele>
        <time>2020-06-10T15:11:30Z</time>
      </trkpt>
      <trkpt lat="48.56547" lon="-3.53377">
        <ele>201</ele>
        <time>2020-06-10T15:11:31Z</time>
      </trkpt>
      <trkpt lat="48.56546" lon="-3.53369">
        <ele>201</ele>
        <time>2020-06-10T15:11:32Z</time>
      </trkpt>
      <trkpt lat="48.56546" lon="-3.53363">
        <ele>201</ele>
        <time>2020-06-10T15:11:33Z</time>
      </trkpt>
      <trkpt lat="48.56545" lon="-3.53355">
        <ele>201</ele>
        <time>2020-06-10T15:11:34Z</time>
      </trkpt>
      <trkpt lat="48.56544" lon="-3.53348">
        <ele>201</ele>
        <time>2020-06-10T15:11:35Z</time>
      </trkpt>
      <trkpt lat="48.56544" lon="-3.53338">
        <ele>201</ele>
        <time>2020-06-10T15:11:36Z</time>
      </trkpt>
      <trkpt lat="48.56543" lon="-3.5333">
        <ele>201</ele>
        <time>2020-06-10T15:11:37Z</time>
      </trkpt>
      <trkpt lat="48.56543" lon="-3.53322">
        <ele>201</ele>
        <time>2020-06-10T15:11:38Z</time>
      </trkpt>
      <trkpt lat="48.56542" lon="-3.53314">
        <ele>201</ele>
        <time>2020-06-10T15:11:39Z</time>
      </trkpt>
      <trkpt lat="48.56541" lon="-3.53307">
        <ele>201</ele>
        <time>2020-06-10T15:11:40Z</time>
      </trkpt>
      <trkpt lat="48.5654" lon="-3.533">
        <ele>201</ele>
        <time>2020-06-10T15:11:41Z</time>
      </trkpt>
      <trkpt lat="48.56539" lon="-3.53292">
        <ele>201.1</ele>
        <time>2020-06-10T15:11:42Z</time>
      </trkpt>
      <trkpt lat="48.56538" lon="-3.53285">
        <ele>201.1</ele>
        <time>2020-06-10T15:11:43Z</time>
      </trkpt>
      <trkpt lat="48.56538" lon="-3.53277">
        <ele>201.2</ele>
        <time>2020-06-10T15:11:44Z</time>
      </trkpt>
      <trkpt lat="48.56537" lon="-3.53269">
        <ele>201.2</ele>
        <time>2020-06-10T15:11:45Z</time>
      </trkpt>
      <trkpt lat="48.56537" lon="-3.53264">
        <ele>201.3</ele>
        <time>2020-06-10T15:11:46Z</time>
      </trkpt>
      <trkpt lat="48.56537" lon="-3.53259">
        <ele>201.3</ele>
        <time>2020-06-10T15:11:47Z</time>
      </trkpt>
      <trkpt lat="48.56536" lon="-3.53253">
        <ele>201.4</ele>
        <time>2020-06-10T15:11:48Z</time>
      </trkpt>
      <trkpt lat="48.56535" lon="-3.53245">
        <ele>201.4</ele>
        <time>2020-06-10T15:11:49Z</time>
      </trkpt>
      <trkpt lat="48.56535" lon="-3.53237">
        <ele>201.5</ele>
        <time>2020-06-10T15:11:50Z</time>
      </trkpt>
      <trkpt lat="48.56534" lon="-3.53229">
        <ele>201.5</ele>
        <time>2020-06-10T15:11:51Z</time>
      </trkpt>
      <trkpt lat="48.56533" lon="-3.53222">
        <ele>201.5</ele>
        <time>2020-06-10T15:11:52Z</time>
      </trkpt>
      <trkpt lat="48.56533" lon="-3.53216">
        <ele>201.5</ele>
        <time>2020-06-10T15:11:53Z</time>
      </trkpt>
      <trkpt lat="48.56532" lon="-3.53208">
        <ele>201.5</ele>
        <time>2020-06-10T15:11:54Z</time>
      </trkpt>
      <trkpt lat="48.56531" lon="-3.53199">
        <ele>201.5</ele>
        <time>2020-06-10T15:11:55Z</time>
      </trkpt>
      <trkpt lat="48.56531" lon="-3.53193">
        <ele>201.4</ele>
        <time>2020-06-10T15:11:56Z</time>
      </trkpt>
      <trkpt lat="48.5653" lon="-3.53187">
        <ele>201.4</ele>
        <time>2020-06-10T15:11:57Z</time>
      </trkpt>
      <trkpt lat="48.56528" lon="-3.53179">
        <ele>201.4</ele>
        <time>2020-06-10T15:11:58Z</time>
      </trkpt>
      <trkpt lat="48.56528" lon="-3.53173">
        <ele>201.3</ele>
        <time>2020-06-10T15:11:59Z</time>
      </trkpt>
      <trkpt lat="48.56527" lon="-3.53165">
        <ele>201.3</ele>
        <time>2020-06-10T15:12:00Z</time>
      </trkpt>
      <trkpt lat="48.56526" lon="-3.53157">
        <ele>201.2</ele>
        <time>2020-06-10T15:12:01Z</time>
      </trkpt>
      <trkpt lat="48.56526" lon="-3.53149">
        <ele>201.2</ele>
        <time>2020-06-10T15:12:02Z</time>
      </trkpt>
      <trkpt lat="48.56525" lon="-3.53141">
        <ele>201.1</ele>
        <time>2020-06-10T15:12:03Z</time>
      </trkpt>
      <trkpt lat="48.56525" lon="-3.53135">
        <ele>201.1</ele>
        <time>2020-06-10T15:12:04Z</time>
      </trkpt>
      <trkpt lat="48.56524" lon="-3.53131">
        <ele>201.1</ele>
        <time>2020-06-10T15:12:05Z</time>
      </trkpt>
      <trkpt lat="48.56523" lon="-3.53124">
        <ele>201</ele>
        <time>2020-06-10T15:12:06Z</time>
      </trkpt>
      <trkpt lat="48.56522" lon="-3.53118">
        <ele>201</ele>
        <time>2020-06-10T15:12:07Z</time>
      </trkpt>
      <trkpt lat="48.5652" lon="-3.53111">
        <ele>200.9</ele>
        <time>2020-06-10T15:12:08Z</time>
      </trkpt>
      <trkpt lat="48.56519" lon="-3.53104">
        <ele>200.9</ele>
        <time>2020-06-10T15:12:09Z</time>
      </trkpt>
      <trkpt lat="48.56519" lon="-3.53097">
        <ele>200.8</ele>
        <time>2020-06-10T15:12:10Z</time>
      </trkpt>
      <trkpt lat="48.56518" lon="-3.5309">
        <ele>200.8</ele>
        <time>2020-06-10T15:12:11Z</time>
      </trkpt>
      <trkpt lat="48.56518" lon="-3.53083">
        <ele>200.7</ele>
        <time>2020-06-10T15:12:12Z</time>
      </trkpt>
      <trkpt lat="48.56517" lon="-3.53077">
        <ele>200.7</ele>
        <time>2020-06-10T15:12:13Z</time>
      </trkpt>
      <trkpt lat="48.56516" lon="-3.5307">
        <ele>200.6</ele>
        <time>2020-06-10T15:12:14Z</time>
      </trkpt>
      <trkpt lat="48.56516" lon="-3.53064">
        <ele>200.6</ele>
        <time>2020-06-10T15:12:15Z</time>
      </trkpt>
      <trkpt lat="48.56515" lon="-3.53057">
        <ele>200.5</ele>
        <time>2020-06-10T15:12:16Z</time>
      </trkpt>
      <trkpt lat="48.56515" lon="-3.5305">
        <ele>200.5</ele>
        <time>2020-06-10T15:12:17Z</time>
      </trkpt>
      <trkpt lat="48.56515" lon="-3.53044">
        <ele>200.4</ele>
        <time>2020-06-10T15:12:18Z</time>
      </trkpt>
      <trkpt lat="48.56514" lon="-3.53037">
        <ele>200.4</ele>
        <time>2020-06-10T15:12:19Z</time>
      </trkpt>
      <trkpt lat="48.56513" lon="-3.53031">
        <ele>200.3</ele>
        <time>2020-06-10T15:12:20Z</time>
      </trkpt>
      <trkpt lat="48.56512" lon="-3.53024">
        <ele>200.3</ele>
        <time>2020-06-10T15:12:21Z</time>
      </trkpt>
      <trkpt lat="48.56512" lon="-3.53018">
        <ele>200.2</ele>
        <time>2020-06-10T15:12:22Z</time>
      </trkpt>
      <trkpt lat="48.56512" lon="-3.53012">
        <ele>200.2</ele>
        <time>2020-06-10T15:12:23Z</time>
      </trkpt>
      <trkpt lat="48.5651" lon="-3.53006">
        <ele>200.1</ele>
        <time>2020-06-10T15:12:24Z</time>
      </trkpt>
      <trkpt lat="48.56508" lon="-3.52999">
        <ele>200.1</ele>
        <time>2020-06-10T15:12:25Z</time>
      </trkpt>
      <trkpt lat="48.56507" lon="-3.52993">
        <ele>200</ele>
        <time>2020-06-10T15:12:26Z</time>
      </trkpt>
      <trkpt lat="48.56506" lon="-3.52987">
        <ele>200</ele>
        <time>2020-06-10T15:12:27Z</time>
      </trkpt>
      <trkpt lat="48.56503" lon="-3.52981">
        <ele>200</ele>
        <time>2020-06-10T15:12:28Z</time>
      </trkpt>
      <trkpt lat="48.56503" lon="-3.52974">
        <ele>199.9</ele>
        <time>2020-06-10T15:12:29Z</time>
      </trkpt>
      <trkpt lat="48.56502" lon="-3.52968">
        <ele>199.9</ele>
        <time>2020-06-10T15:12:30Z</time>
      </trkpt>
      <trkpt lat="48.56502" lon="-3.52961">
        <ele>199.9</ele>
        <time>2020-06-10T15:12:31Z</time>
      </trkpt>
      <trkpt lat="48.56502" lon="-3.52955">
        <ele>199.8</ele>
        <time>2020-06-10T15:12:32Z</time>
      </trkpt>
      <trkpt lat="48.56501" lon="-3.52949">
        <ele>199.8</ele>
        <time>2020-06-10T15:12:33Z</time>
      </trkpt>
      <trkpt lat="48.565" lon="-3.52943">
        <ele>199.8</ele>
        <time>2020-06-10T15:12:34Z</time>
      </trkpt>
      <trkpt lat="48.565" lon="-3.52938">
        <ele>199.8</ele>
        <time>2020-06-10T15:12:35Z</time>
      </trkpt>
      <trkpt lat="48.565" lon="-3.52933">
        <ele>199.8</ele>
        <time>2020-06-10T15:12:36Z</time>
      </trkpt>
      <trkpt lat="48.565" lon="-3.52928">
        <ele>199.7</ele>
        <time>2020-06-10T15:12:37Z</time>
      </trkpt>
      <trkpt lat="48.565" lon="-3.52923">
        <ele>199.7</ele>
        <time>2020-06-10T15:12:38Z</time>
      </trkpt>
      <trkpt lat="48.56499" lon="-3.52919">
        <ele>199.7</ele>
        <time>2020-06-10T15:12:39Z</time>
      </trkpt>
      <trkpt lat="48.56499" lon="-3.52915">
        <ele>199.7</ele>
        <time>2020-06-10T15:12:40Z</time>
      </trkpt>
      <trkpt lat="48.56498" lon="-3.5291">
        <ele>199.6</ele>
        <time>2020-06-10T15:12:41Z</time>
      </trkpt>
      <trkpt lat="48.56497" lon="-3.52906">
        <ele>199.6</ele>
        <time>2020-06-10T15:12:42Z</time>
      </trkpt>
      <trkpt lat="48.56496" lon="-3.52902">
        <ele>199.6</ele>
        <time>2020-06-10T15:12:43Z</time>
      </trkpt>
      <trkpt lat="48.56496" lon="-3.52897">
        <ele>199.5</ele>
        <time>2020-06-10T15:12:44Z</time>
      </trkpt>
      <trkpt lat="48.56495" lon="-3.52892">
        <ele>199.5</ele>
        <time>2020-06-10T15:12:45Z</time>
      </trkpt>
      <trkpt lat="48.56495" lon="-3.52888">
        <ele>199.4</ele>
        <time>2020-06-10T15:12:46Z</time>
      </trkpt>
      <trkpt lat="48.56494" lon="-3.52883">
        <ele>199.3</ele>
        <time>2020-06-10T15:12:47Z</time>
      </trkpt>
      <trkpt lat="48.56494" lon="-3.52879">
        <ele>199.3</ele>
        <time>2020-06-10T15:12:48Z</time>
      </trkpt>
      <trkpt lat="48.56493" lon="-3.52874">
        <ele>199.3</ele>
        <time>2020-06-10T15:12:49Z</time>
      </trkpt>
      <trkpt lat="48.56492" lon="-3.5287">
        <ele>199.3</ele>
        <time>2020-06-10T15:12:50Z</time>
      </trkpt>
      <trkpt lat="48.56491" lon="-3.52866">
        <ele>199.3</ele>
        <time>2020-06-10T15:12:51Z</time>
      </trkpt>
      <trkpt lat="48.56491" lon="-3.52861">
        <ele>199.3</ele>
        <time>2020-06-10T15:12:52Z</time>
      </trkpt>
      <trkpt lat="48.56491" lon="-3.52857">
        <ele>199.3</ele>
        <time>2020-06-10T15:12:53Z</time>
      </trkpt>
      <trkpt lat="48.56492" lon="-3.52852">
        <ele>199.2</ele>
        <time>2020-06-10T15:12:54Z</time>
      </trkpt>
      <trkpt lat="48.56492" lon="-3.52848">
        <ele>199.2</ele>
        <time>2020-06-10T15:12:55Z</time>
      </trkpt>
      <trkpt lat="48.56492" lon="-3.52842">
        <ele>199.2</ele>
        <time>2020-06-10T15:12:56Z</time>
      </trkpt>
      <trkpt lat="48.56491" lon="-3.5284">
        <ele>199.2</ele>
        <time>2020-06-10T15:12:57Z</time>
      </trkpt>
      <trkpt lat="48.5649" lon="-3.52835">
        <ele>199.2</ele>
        <time>2020-06-10T15:12:58Z</time>
      </trkpt>
      <trkpt lat="48.56489" lon="-3.52834">
        <ele>199.2</ele>
        <time>2020-06-10T15:12:59Z</time>
      </trkpt>
      <trkpt lat="48.56488" lon="-3.52828">
        <ele>199.1</ele>
        <time>2020-06-10T15:13:00Z</time>
      </trkpt>
      <trkpt lat="48.56488" lon="-3.52826">
        <ele>199.1</ele>
        <time>2020-06-10T15:13:01Z</time>
      </trkpt>
      <trkpt lat="48.56488" lon="-3.5282">
        <ele>199.1</ele>
        <time>2020-06-10T15:13:02Z</time>
      </trkpt>
      <trkpt lat="48.56488" lon="-3.52818">
        <ele>199.1</ele>
        <time>2020-06-10T15:13:03Z</time>
      </trkpt>
      <trkpt lat="48.56487" lon="-3.52812">
        <ele>199</ele>
        <time>2020-06-10T15:13:04Z</time>
      </trkpt>
      <trkpt lat="48.56487" lon="-3.5281">
        <ele>199</ele>
        <time>2020-06-10T15:13:05Z</time>
      </trkpt>
      <trkpt lat="48.56486" lon="-3.52805">
        <ele>198.9</ele>
        <time>2020-06-10T15:13:06Z</time>
      </trkpt>
      <trkpt lat="48.56486" lon="-3.52803">
        <ele>198.9</ele>
        <time>2020-06-10T15:13:07Z</time>
      </trkpt>
      <trkpt lat="48.56486" lon="-3.52801">
        <ele>198.9</ele>
        <time>2020-06-10T15:13:08Z</time>
      </trkpt>
      <trkpt lat="48.56486" lon="-3.52798">
        <ele>198.8</ele>
        <time>2020-06-10T15:13:09Z</time>
      </trkpt>
      <trkpt lat="48.56484" lon="-3.52795">
        <ele>198.8</ele>
        <time>2020-06-10T15:13:10Z</time>
      </trkpt>
      <trkpt lat="48.56484" lon="-3.52794">
        <ele>198.7</ele>
        <time>2020-06-10T15:13:11Z</time>
      </trkpt>
      <trkpt lat="48.56483" lon="-3.52789">
        <ele>198.7</ele>
        <time>2020-06-10T15:13:12Z</time>
      </trkpt>
      <trkpt lat="48.56484" lon="-3.52788">
        <ele>198.6</ele>
        <time>2020-06-10T15:13:13Z</time>
      </trkpt>
      <trkpt lat="48.56483" lon="-3.52785">
        <ele>198.6</ele>
        <time>2020-06-10T15:13:14Z</time>
      </trkpt>
      <trkpt lat="48.56482" lon="-3.52784">
        <ele>198.5</ele>
        <time>2020-06-10T15:13:15Z</time>
      </trkpt>
      <trkpt lat="48.5648" lon="-3.52782">
        <ele>198.5</ele>
        <time>2020-06-10T15:13:16Z</time>
      </trkpt>
      <trkpt lat="48.5648" lon="-3.52779">
        <ele>198.4</ele>
        <time>2020-06-10T15:13:17Z</time>
      </trkpt>
      <trkpt lat="48.56481" lon="-3.52775">
        <ele>198.4</ele>
        <time>2020-06-10T15:13:18Z</time>
      </trkpt>
      <trkpt lat="48.56481" lon="-3.52773">
        <ele>198.3</ele>
        <time>2020-06-10T15:13:19Z</time>
      </trkpt>
      <trkpt lat="48.56481" lon="-3.52768">
        <ele>198.2</ele>
        <time>2020-06-10T15:13:20Z</time>
      </trkpt>
      <trkpt lat="48.5648" lon="-3.52766">
        <ele>198.2</ele>
        <time>2020-06-10T15:13:21Z</time>
      </trkpt>
      <trkpt lat="48.5648" lon="-3.52761">
        <ele>198.1</ele>
        <time>2020-06-10T15:13:22Z</time>
      </trkpt>
      <trkpt lat="48.5648" lon="-3.5276">
        <ele>198.1</ele>
        <time>2020-06-10T15:13:23Z</time>
      </trkpt>
      <trkpt lat="48.5648" lon="-3.52757">
        <ele>198</ele>
        <time>2020-06-10T15:13:24Z</time>
      </trkpt>
      <trkpt lat="48.5648" lon="-3.52756">
        <ele>198</ele>
        <time>2020-06-10T15:13:25Z</time>
      </trkpt>
      <trkpt lat="48.56479" lon="-3.52756">
        <ele>198</ele>
        <time>2020-06-10T15:13:26Z</time>
      </trkpt>
      <trkpt lat="48.56479" lon="-3.52756">
        <ele>198</ele>
        <time>2020-06-10T15:13:27Z</time>
      </trkpt>
      <trkpt lat="48.56478" lon="-3.52757">
        <ele>197.9</ele>
        <time>2020-06-10T15:13:28Z</time>
      </trkpt>
      <trkpt lat="48.56478" lon="-3.52757">
        <ele>197.9</ele>
        <time>2020-06-10T15:13:29Z</time>
      </trkpt>
      <trkpt lat="48.56477" lon="-3.52758">
        <ele>197.9</ele>
        <time>2020-06-10T15:13:30Z</time>
      </trkpt>
      <trkpt lat="48.56477" lon="-3.52755">
        <ele>197.8</ele>
        <time>2020-06-10T15:13:31Z</time>
      </trkpt>
      <trkpt lat="48.56478" lon="-3.52752">
        <ele>197.8</ele>
        <time>2020-06-10T15:13:32Z</time>
      </trkpt>
      <trkpt lat="48.56478" lon="-3.52749">
        <ele>197.7</ele>
        <time>2020-06-10T15:13:33Z</time>
      </trkpt>
      <trkpt lat="48.56478" lon="-3.52747">
        <ele>197.6</ele>
        <time>2020-06-10T15:13:34Z</time>
      </trkpt>
      <trkpt lat="48.56478" lon="-3.52744">
        <ele>197.6</ele>
        <time>2020-06-10T15:13:35Z</time>
      </trkpt>
      <trkpt lat="48.56478" lon="-3.52741">
        <ele>197.5</ele>
        <time>2020-06-10T15:13:36Z</time>
      </trkpt>
      <trkpt lat="48.56479" lon="-3.52738">
        <ele>197.4</ele>
        <time>2020-06-10T15:15:34Z</time>
      </trkpt>
      <trkpt lat="48.56479" lon="-3.52735">
        <ele>197.4</ele>
        <time>2020-06-10T15:15:35Z</time>
      </trkpt>
      <trkpt lat="48.56479" lon="-3.5273">
        <ele>197.2</ele>
        <time>2020-06-10T15:15:36Z</time>
      </trkpt>
      <trkpt lat="48.56479" lon="-3.52724">
        <ele>197</ele>
        <time>2020-06-10T15:15:37Z</time>
      </trkpt>
      <trkpt lat="48.56478" lon="-3.52717">
        <ele>196.9</ele>
        <time>2020-06-10T15:15:38Z</time>
      </trkpt>
      <trkpt lat="48.56477" lon="-3.5271">
        <ele>196.7</ele>
        <time>2020-06-10T15:15:39Z</time>
      </trkpt>
      <trkpt lat="48.56476" lon="-3.52703">
        <ele>196.4</ele>
        <time>2020-06-10T15:15:40Z</time>
      </trkpt>
      <trkpt lat="48.56475" lon="-3.52696">
        <ele>196.1</ele>
        <time>2020-06-10T15:15:41Z</time>
      </trkpt>
      <trkpt lat="48.56474" lon="-3.52688">
        <ele>195.9</ele>
        <time>2020-06-10T15:15:42Z</time>
      </trkpt>
      <trkpt lat="48.56473" lon="-3.5268">
        <ele>195.5</ele>
        <time>2020-06-10T15:15:43Z</time>
      </trkpt>
      <trkpt lat="48.56472" lon="-3.52671">
        <ele>195.2</ele>
        <time>2020-06-10T15:15:44Z</time>
      </trkpt>
      <trkpt lat="48.56471" lon="-3.52662">
        <ele>194.8</ele>
        <time>2020-06-10T15:15:45Z</time>
      </trkpt>
      <trkpt lat="48.5647" lon="-3.52652">
        <ele>194.3</ele>
        <time>2020-06-10T15:15:46Z</time>
      </trkpt>
      <trkpt lat="48.56469" lon="-3.52642">
        <ele>193.8</ele>
        <time>2020-06-10T15:15:47Z</time>
      </trkpt>
      <trkpt lat="48.56467" lon="-3.52631">
        <ele>193.3</ele>
        <time>2020-06-10T15:15:48Z</time>
      </trkpt>
      <trkpt lat="48.56465" lon="-3.52619">
        <ele>192.8</ele>
        <time>2020-06-10T15:15:49Z</time>
      </trkpt>
      <trkpt lat="48.56464" lon="-3.52607">
        <ele>192.2</ele>
        <time>2020-06-10T15:15:50Z</time>
      </trkpt>
      <trkpt lat="48.56462" lon="-3.52593">
        <ele>191.5</ele>
        <time>2020-06-10T15:15:51Z</time>
      </trkpt>
      <trkpt lat="48.56461" lon="-3.52579">
        <ele>190.8</ele>
        <time>2020-06-10T15:15:52Z</time>
      </trkpt>
      <trkpt lat="48.56459" lon="-3.52563">
        <ele>190.1</ele>
        <time>2020-06-10T15:15:53Z</time>
      </trkpt>
      <trkpt lat="48.56457" lon="-3.52548">
        <ele>189.4</ele>
        <time>2020-06-10T15:15:54Z</time>
      </trkpt>
      <trkpt lat="48.56455" lon="-3.52531">
        <ele>188.7</ele>
        <time>2020-06-10T15:15:55Z</time>
      </trkpt>
      <trkpt lat="48.56453" lon="-3.52512">
        <ele>187.9</ele>
        <time>2020-06-10T15:15:56Z</time>
      </trkpt>
      <trkpt lat="48.56451" lon="-3.52493">
        <ele>187.2</ele>
        <time>2020-06-10T15:15:57Z</time>
      </trkpt>
      <trkpt lat="48.56448" lon="-3.52476">
        <ele>186.5</ele>
        <time>2020-06-10T15:15:58Z</time>
      </trkpt>
      <trkpt lat="48.56446" lon="-3.52457">
        <ele>185.9</ele>
        <time>2020-06-10T15:15:59Z</time>
      </trkpt>
      <trkpt lat="48.56444" lon="-3.52439">
        <ele>185.3</ele>
        <time>2020-06-10T15:16:00Z</time>
      </trkpt>
      <trkpt lat="48.56443" lon="-3.5242">
        <ele>184.7</ele>
        <time>2020-06-10T15:16:01Z</time>
      </trkpt>
      <trkpt lat="48.56441" lon="-3.52402">
        <ele>184.2</ele>
        <time>2020-06-10T15:16:02Z</time>
      </trkpt>
      <trkpt lat="48.56438" lon="-3.52384">
        <ele>183.6</ele>
        <time>2020-06-10T15:16:03Z</time>
      </trkpt>
      <trkpt lat="48.56436" lon="-3.52366">
        <ele>183.1</ele>
        <time>2020-06-10T15:16:04Z</time>
      </trkpt>
      <trkpt lat="48.56434" lon="-3.52347">
        <ele>182.6</ele>
        <time>2020-06-10T15:16:05Z</time>
      </trkpt>
      <trkpt lat="48.56432" lon="-3.52329">
        <ele>182.2</ele>
        <time>2020-06-10T15:16:06Z</time>
      </trkpt>
      <trkpt lat="48.5643" lon="-3.5231">
        <ele>181.7</ele>
        <time>2020-06-10T15:16:07Z</time>
      </trkpt>
      <trkpt lat="48.56428" lon="-3.52292">
        <ele>181.3</ele>
        <time>2020-06-10T15:16:08Z</time>
      </trkpt>
      <trkpt lat="48.56426" lon="-3.52273">
        <ele>181</ele>
        <time>2020-06-10T15:16:09Z</time>
      </trkpt>
      <trkpt lat="48.56424" lon="-3.52255">
        <ele>180.8</ele>
        <time>2020-06-10T15:16:10Z</time>
      </trkpt>
      <trkpt lat="48.56423" lon="-3.52237">
        <ele>180.7</ele>
        <time>2020-06-10T15:16:11Z</time>
      </trkpt>
      <trkpt lat="48.56421" lon="-3.5222">
        <ele>180.6</ele>
        <time>2020-06-10T15:16:12Z</time>
      </trkpt>
      <trkpt lat="48.5642" lon="-3.52203">
        <ele>180.6</ele>
        <time>2020-06-10T15:16:13Z</time>
      </trkpt>
      <trkpt lat="48.56418" lon="-3.52187">
        <ele>180.7</ele>
        <time>2020-06-10T15:16:14Z</time>
      </trkpt>
      <trkpt lat="48.56417" lon="-3.52171">
        <ele>180.7</ele>
        <time>2020-06-10T15:16:15Z</time>
      </trkpt>
      <trkpt lat="48.56416" lon="-3.52156">
        <ele>180.7</ele>
        <time>2020-06-10T15:16:16Z</time>
      </trkpt>
      <trkpt lat="48.56415" lon="-3.5214">
        <ele>180.7</ele>
        <time>2020-06-10T15:16:17Z</time>
      </trkpt>
      <trkpt lat="48.56414" lon="-3.52125">
        <ele>180.7</ele>
        <time>2020-06-10T15:16:18Z</time>
      </trkpt>
      <trkpt lat="48.56413" lon="-3.52111">
        <ele>180.7</ele>
        <time>2020-06-10T15:16:19Z</time>
      </trkpt>
      <trkpt lat="48.56412" lon="-3.52097">
        <ele>180.7</ele>
        <time>2020-06-10T15:16:20Z</time>
      </trkpt>
      <trkpt lat="48.56411" lon="-3.52083">
        <ele>180.7</ele>
        <time>2020-06-10T15:16:21Z</time>
      </trkpt>
      <trkpt lat="48.5641" lon="-3.52069">
        <ele>180.7</ele>
        <time>2020-06-10T15:16:22Z</time>
      </trkpt>
      <trkpt lat="48.56409" lon="-3.52055">
        <ele>180.7</ele>
        <time>2020-06-10T15:16:23Z</time>
      </trkpt>
      <trkpt lat="48.56408" lon="-3.52043">
        <ele>180.7</ele>
        <time>2020-06-10T15:16:24Z</time>
      </trkpt>
      <trkpt lat="48.56406" lon="-3.5203">
        <ele>180.8</ele>
        <time>2020-06-10T15:16:25Z</time>
      </trkpt>
      <trkpt lat="48.56405" lon="-3.52017">
        <ele>180.8</ele>
        <time>2020-06-10T15:16:26Z</time>
      </trkpt>
      <trkpt lat="48.56403" lon="-3.52005">
        <ele>180.8</ele>
        <time>2020-06-10T15:16:27Z</time>
      </trkpt>
      <trkpt lat="48.56402" lon="-3.51993">
        <ele>180.8</ele>
        <time>2020-06-10T15:16:28Z</time>
      </trkpt>
      <trkpt lat="48.564" lon="-3.5198">
        <ele>180.8</ele>
        <time>2020-06-10T15:16:29Z</time>
      </trkpt>
      <trkpt lat="48.56399" lon="-3.51968">
        <ele>180.8</ele>
        <time>2020-06-10T15:16:30Z</time>
      </trkpt>
      <trkpt lat="48.56397" lon="-3.51955">
        <ele>180.8</ele>
        <time>2020-06-10T15:16:31Z</time>
      </trkpt>
      <trkpt lat="48.56396" lon="-3.51943">
        <ele>180.7</ele>
        <time>2020-06-10T15:16:32Z</time>
      </trkpt>
      <trkpt lat="48.56394" lon="-3.5193">
        <ele>180.7</ele>
        <time>2020-06-10T15:16:33Z</time>
      </trkpt>
      <trkpt lat="48.56394" lon="-3.51917">
        <ele>180.7</ele>
        <time>2020-06-10T15:16:34Z</time>
      </trkpt>
      <trkpt lat="48.56393" lon="-3.51905">
        <ele>180.7</ele>
        <time>2020-06-10T15:16:35Z</time>
      </trkpt>
      <trkpt lat="48.56391" lon="-3.51892">
        <ele>180.7</ele>
        <time>2020-06-10T15:16:36Z</time>
      </trkpt>
      <trkpt lat="48.5639" lon="-3.5188">
        <ele>180.7</ele>
        <time>2020-06-10T15:16:37Z</time>
      </trkpt>
      <trkpt lat="48.56388" lon="-3.51868">
        <ele>180.6</ele>
        <time>2020-06-10T15:16:38Z</time>
      </trkpt>
      <trkpt lat="48.56387" lon="-3.51855">
        <ele>180.6</ele>
        <time>2020-06-10T15:16:39Z</time>
      </trkpt>
      <trkpt lat="48.56386" lon="-3.51844">
        <ele>180.6</ele>
        <time>2020-06-10T15:16:40Z</time>
      </trkpt>
      <trkpt lat="48.56384" lon="-3.51831">
        <ele>180.5</ele>
        <time>2020-06-10T15:16:41Z</time>
      </trkpt>
      <trkpt lat="48.56384" lon="-3.51819">
        <ele>180.5</ele>
        <time>2020-06-10T15:16:42Z</time>
      </trkpt>
      <trkpt lat="48.56383" lon="-3.51807">
        <ele>180.5</ele>
        <time>2020-06-10T15:16:43Z</time>
      </trkpt>
      <trkpt lat="48.56382" lon="-3.51794">
        <ele>180.6</ele>
        <time>2020-06-10T15:16:44Z</time>
      </trkpt>
      <trkpt lat="48.56381" lon="-3.51782">
        <ele>180.5</ele>
        <time>2020-06-10T15:16:45Z</time>
      </trkpt>
      <trkpt lat="48.5638" lon="-3.5177">
        <ele>180.4</ele>
        <time>2020-06-10T15:16:46Z</time>
      </trkpt>
      <trkpt lat="48.56378" lon="-3.51759">
        <ele>180.4</ele>
        <time>2020-06-10T15:16:47Z</time>
      </trkpt>
      <trkpt lat="48.56377" lon="-3.51747">
        <ele>180.4</ele>
        <time>2020-06-10T15:16:48Z</time>
      </trkpt>
      <trkpt lat="48.56375" lon="-3.51735">
        <ele>180.4</ele>
        <time>2020-06-10T15:16:49Z</time>
      </trkpt>
      <trkpt lat="48.56374" lon="-3.51723">
        <ele>180.4</ele>
        <time>2020-06-10T15:16:50Z</time>
      </trkpt>
      <trkpt lat="48.56372" lon="-3.51711">
        <ele>180.4</ele>
        <time>2020-06-10T15:16:51Z</time>
      </trkpt>
      <trkpt lat="48.56371" lon="-3.51699">
        <ele>180.5</ele>
        <time>2020-06-10T15:16:52Z</time>
      </trkpt>
      <trkpt lat="48.5637" lon="-3.51688">
        <ele>180.5</ele>
        <time>2020-06-10T15:16:53Z</time>
      </trkpt>
      <trkpt lat="48.56369" lon="-3.51676">
        <ele>180.6</ele>
        <time>2020-06-10T15:16:54Z</time>
      </trkpt>
      <trkpt lat="48.56367" lon="-3.51665">
        <ele>180.8</ele>
        <time>2020-06-10T15:16:55Z</time>
      </trkpt>
      <trkpt lat="48.56366" lon="-3.51654">
        <ele>180.9</ele>
        <time>2020-06-10T15:16:56Z</time>
      </trkpt>
      <trkpt lat="48.56365" lon="-3.51643">
        <ele>181</ele>
        <time>2020-06-10T15:16:57Z</time>
      </trkpt>
      <trkpt lat="48.56364" lon="-3.51632">
        <ele>181.1</ele>
        <time>2020-06-10T15:16:58Z</time>
      </trkpt>
      <trkpt lat="48.56363" lon="-3.51621">
        <ele>181.3</ele>
        <time>2020-06-10T15:16:59Z</time>
      </trkpt>
      <trkpt lat="48.56361" lon="-3.51611">
        <ele>181.4</ele>
        <time>2020-06-10T15:17:00Z</time>
      </trkpt>
      <trkpt lat="48.5636" lon="-3.51601">
        <ele>181.5</ele>
        <time>2020-06-10T15:17:01Z</time>
      </trkpt>
      <trkpt lat="48.56359" lon="-3.51592">
        <ele>181.5</ele>
        <time>2020-06-10T15:17:02Z</time>
      </trkpt>
      <trkpt lat="48.56358" lon="-3.51583">
        <ele>181.6</ele>
        <time>2020-06-10T15:17:03Z</time>
      </trkpt>
      <trkpt lat="48.56357" lon="-3.51573">
        <ele>181.7</ele>
        <time>2020-06-10T15:17:04Z</time>
      </trkpt>
      <trkpt lat="48.56355" lon="-3.51565">
        <ele>181.7</ele>
        <time>2020-06-10T15:17:05Z</time>
      </trkpt>
      <trkpt lat="48.56354" lon="-3.51556">
        <ele>181.8</ele>
        <time>2020-06-10T15:17:06Z</time>
      </trkpt>
      <trkpt lat="48.56353" lon="-3.51548">
        <ele>181.9</ele>
        <time>2020-06-10T15:17:07Z</time>
      </trkpt>
      <trkpt lat="48.56353" lon="-3.5154">
        <ele>181.9</ele>
        <time>2020-06-10T15:17:08Z</time>
      </trkpt>
      <trkpt lat="48.56351" lon="-3.51532">
        <ele>182</ele>
        <time>2020-06-10T15:17:09Z</time>
      </trkpt>
      <trkpt lat="48.5635" lon="-3.51524">
        <ele>182</ele>
        <time>2020-06-10T15:17:10Z</time>
      </trkpt>
      <trkpt lat="48.56349" lon="-3.51515">
        <ele>182.1</ele>
        <time>2020-06-10T15:17:11Z</time>
      </trkpt>
      <trkpt lat="48.56348" lon="-3.51507">
        <ele>182.1</ele>
        <time>2020-06-10T15:17:12Z</time>
      </trkpt>
      <trkpt lat="48.56347" lon="-3.51498">
        <ele>182.1</ele>
        <time>2020-06-10T15:17:13Z</time>
      </trkpt>
      <trkpt lat="48.56346" lon="-3.5149">
        <ele>182.1</ele>
        <time>2020-06-10T15:17:14Z</time>
      </trkpt>
      <trkpt lat="48.56345" lon="-3.51481">
        <ele>182.1</ele>
        <time>2020-06-10T15:17:15Z</time>
      </trkpt>
      <trkpt lat="48.56344" lon="-3.51473">
        <ele>182.1</ele>
        <time>2020-06-10T15:17:16Z</time>
      </trkpt>
      <trkpt lat="48.56343" lon="-3.51464">
        <ele>182</ele>
        <time>2020-06-10T15:17:17Z</time>
      </trkpt>
      <trkpt lat="48.56342" lon="-3.51456">
        <ele>181.9</ele>
        <time>2020-06-10T15:17:18Z</time>
      </trkpt>
      <trkpt lat="48.56342" lon="-3.51448">
        <ele>181.8</ele>
        <time>2020-06-10T15:17:19Z</time>
      </trkpt>
      <trkpt lat="48.56341" lon="-3.51439">
        <ele>181.7</ele>
        <time>2020-06-10T15:17:20Z</time>
      </trkpt>
      <trkpt lat="48.5634" lon="-3.51431">
        <ele>181.6</ele>
        <time>2020-06-10T15:17:21Z</time>
      </trkpt>
      <trkpt lat="48.5634" lon="-3.51422">
        <ele>181.5</ele>
        <time>2020-06-10T15:17:22Z</time>
      </trkpt>
      <trkpt lat="48.56339" lon="-3.51413">
        <ele>181.4</ele>
        <time>2020-06-10T15:17:23Z</time>
      </trkpt>
      <trkpt lat="48.56338" lon="-3.51404">
        <ele>181.2</ele>
        <time>2020-06-10T15:17:24Z</time>
      </trkpt>
      <trkpt lat="48.56338" lon="-3.51395">
        <ele>181.1</ele>
        <time>2020-06-10T15:17:25Z</time>
      </trkpt>
      <trkpt lat="48.56337" lon="-3.51386">
        <ele>181</ele>
        <time>2020-06-10T15:17:26Z</time>
      </trkpt>
      <trkpt lat="48.56336" lon="-3.51377">
        <ele>180.8</ele>
        <time>2020-06-10T15:17:27Z</time>
      </trkpt>
      <trkpt lat="48.56335" lon="-3.51368">
        <ele>180.7</ele>
        <time>2020-06-10T15:17:28Z</time>
      </trkpt>
      <trkpt lat="48.56334" lon="-3.51359">
        <ele>180.5</ele>
        <time>2020-06-10T15:17:29Z</time>
      </trkpt>
      <trkpt lat="48.56333" lon="-3.5135">
        <ele>180.3</ele>
        <time>2020-06-10T15:17:30Z</time>
      </trkpt>
      <trkpt lat="48.56333" lon="-3.5134">
        <ele>180.1</ele>
        <time>2020-06-10T15:17:31Z</time>
      </trkpt>
      <trkpt lat="48.56332" lon="-3.5133">
        <ele>179.9</ele>
        <time>2020-06-10T15:17:32Z</time>
      </trkpt>
      <trkpt lat="48.5633" lon="-3.51319">
        <ele>179.8</ele>
        <time>2020-06-10T15:17:33Z</time>
      </trkpt>
      <trkpt lat="48.5633" lon="-3.51308">
        <ele>179.6</ele>
        <time>2020-06-10T15:17:34Z</time>
      </trkpt>
      <trkpt lat="48.56329" lon="-3.51297">
        <ele>179.4</ele>
        <time>2020-06-10T15:17:35Z</time>
      </trkpt>
      <trkpt lat="48.56328" lon="-3.51286">
        <ele>179.2</ele>
        <time>2020-06-10T15:17:36Z</time>
      </trkpt>
      <trkpt lat="48.56328" lon="-3.51274">
        <ele>179</ele>
        <time>2020-06-10T15:17:37Z</time>
      </trkpt>
      <trkpt lat="48.56327" lon="-3.51263">
        <ele>178.8</ele>
        <time>2020-06-10T15:17:38Z</time>
      </trkpt>
      <trkpt lat="48.56326" lon="-3.51252">
        <ele>178.4</ele>
        <time>2020-06-10T15:17:39Z</time>
      </trkpt>
      <trkpt lat="48.56325" lon="-3.51241">
        <ele>178.1</ele>
        <time>2020-06-10T15:17:40Z</time>
      </trkpt>
      <trkpt lat="48.56324" lon="-3.51229">
        <ele>177.8</ele>
        <time>2020-06-10T15:17:41Z</time>
      </trkpt>
      <trkpt lat="48.56323" lon="-3.51217">
        <ele>177.4</ele>
        <time>2020-06-10T15:17:42Z</time>
      </trkpt>
      <trkpt lat="48.56322" lon="-3.51205">
        <ele>177.1</ele>
        <time>2020-06-10T15:17:43Z</time>
      </trkpt>
      <trkpt lat="48.56321" lon="-3.51192">
        <ele>176.8</ele>
        <time>2020-06-10T15:17:44Z</time>
      </trkpt>
      <trkpt lat="48.5632" lon="-3.5118">
        <ele>176.4</ele>
        <time>2020-06-10T15:17:45Z</time>
      </trkpt>
      <trkpt lat="48.56319" lon="-3.51166">
        <ele>176</ele>
        <time>2020-06-10T15:17:46Z</time>
      </trkpt>
      <trkpt lat="48.56317" lon="-3.51153">
        <ele>175.5</ele>
        <time>2020-06-10T15:17:47Z</time>
      </trkpt>
      <trkpt lat="48.56316" lon="-3.51139">
        <ele>175.1</ele>
        <time>2020-06-10T15:17:48Z</time>
      </trkpt>
      <trkpt lat="48.56315" lon="-3.51125">
        <ele>174.6</ele>
        <time>2020-06-10T15:17:49Z</time>
      </trkpt>
      <trkpt lat="48.56313" lon="-3.51111">
        <ele>174.2</ele>
        <time>2020-06-10T15:17:50Z</time>
      </trkpt>
      <trkpt lat="48.56311" lon="-3.51096">
        <ele>173.7</ele>
        <time>2020-06-10T15:17:51Z</time>
      </trkpt>
      <trkpt lat="48.5631" lon="-3.51081">
        <ele>173.2</ele>
        <time>2020-06-10T15:17:52Z</time>
      </trkpt>
      <trkpt lat="48.56308" lon="-3.51066">
        <ele>172.8</ele>
        <time>2020-06-10T15:17:53Z</time>
      </trkpt>
      <trkpt lat="48.56307" lon="-3.51052">
        <ele>172.4</ele>
        <time>2020-06-10T15:17:54Z</time>
      </trkpt>
      <trkpt lat="48.56307" lon="-3.51037">
        <ele>172</ele>
        <time>2020-06-10T15:17:55Z</time>
      </trkpt>
      <trkpt lat="48.56305" lon="-3.51023">
        <ele>171.7</ele>
        <time>2020-06-10T15:17:56Z</time>
      </trkpt>
      <trkpt lat="48.56304" lon="-3.51008">
        <ele>171.3</ele>
        <time>2020-06-10T15:17:57Z</time>
      </trkpt>
      <trkpt lat="48.56303" lon="-3.50993">
        <ele>171</ele>
        <time>2020-06-10T15:17:58Z</time>
      </trkpt>
      <trkpt lat="48.56301" lon="-3.50979">
        <ele>170.8</ele>
        <time>2020-06-10T15:17:59Z</time>
      </trkpt>
      <trkpt lat="48.56299" lon="-3.50965">
        <ele>170.6</ele>
        <time>2020-06-10T15:18:00Z</time>
      </trkpt>
      <trkpt lat="48.56298" lon="-3.50952">
        <ele>170.4</ele>
        <time>2020-06-10T15:18:01Z</time>
      </trkpt>
      <trkpt lat="48.56296" lon="-3.50939">
        <ele>170.3</ele>
        <time>2020-06-10T15:18:02Z</time>
      </trkpt>
      <trkpt lat="48.56295" lon="-3.50926">
        <ele>170.3</ele>
        <time>2020-06-10T15:18:03Z</time>
      </trkpt>
      <trkpt lat="48.56294" lon="-3.50914">
        <ele>170.3</ele>
        <time>2020-06-10T15:18:04Z</time>
      </trkpt>
      <trkpt lat="48.56293" lon="-3.50902">
        <ele>170.4</ele>
        <time>2020-06-10T15:18:05Z</time>
      </trkpt>
      <trkpt lat="48.56292" lon="-3.5089">
        <ele>170.5</ele>
        <time>2020-06-10T15:18:06Z</time>
      </trkpt>
      <trkpt lat="48.56291" lon="-3.50879">
        <ele>170.6</ele>
        <time>2020-06-10T15:18:07Z</time>
      </trkpt>
      <trkpt lat="48.5629" lon="-3.50869">
        <ele>170.8</ele>
        <time>2020-06-10T15:18:08Z</time>
      </trkpt>
      <trkpt lat="48.56289" lon="-3.50859">
        <ele>171.1</ele>
        <time>2020-06-10T15:18:09Z</time>
      </trkpt>
      <trkpt lat="48.56287" lon="-3.5085">
        <ele>171.3</ele>
        <time>2020-06-10T15:18:10Z</time>
      </trkpt>
      <trkpt lat="48.56286" lon="-3.50841">
        <ele>171.7</ele>
        <time>2020-06-10T15:18:11Z</time>
      </trkpt>
      <trkpt lat="48.56285" lon="-3.50831">
        <ele>172</ele>
        <time>2020-06-10T15:18:12Z</time>
      </trkpt>
      <trkpt lat="48.56283" lon="-3.50821">
        <ele>172</ele>
        <time>2020-06-10T15:18:13Z</time>
      </trkpt>
      <trkpt lat="48.56281" lon="-3.50812">
        <ele>172</ele>
        <time>2020-06-10T15:18:14Z</time>
      </trkpt>
      <trkpt lat="48.56279" lon="-3.50803">
        <ele>172.1</ele>
        <time>2020-06-10T15:18:15Z</time>
      </trkpt>
      <trkpt lat="48.56278" lon="-3.50793">
        <ele>172.1</ele>
        <time>2020-06-10T15:18:16Z</time>
      </trkpt>
      <trkpt lat="48.56276" lon="-3.50784">
        <ele>172.2</ele>
        <time>2020-06-10T15:18:17Z</time>
      </trkpt>
      <trkpt lat="48.56274" lon="-3.50774">
        <ele>172.3</ele>
        <time>2020-06-10T15:18:18Z</time>
      </trkpt>
      <trkpt lat="48.56273" lon="-3.50764">
        <ele>172.5</ele>
        <time>2020-06-10T15:18:19Z</time>
      </trkpt>
      <trkpt lat="48.56272" lon="-3.50755">
        <ele>172.6</ele>
        <time>2020-06-10T15:18:20Z</time>
      </trkpt>
      <trkpt lat="48.56271" lon="-3.50745">
        <ele>172.8</ele>
        <time>2020-06-10T15:18:21Z</time>
      </trkpt>
      <trkpt lat="48.5627" lon="-3.50735">
        <ele>173</ele>
        <time>2020-06-10T15:18:22Z</time>
      </trkpt>
      <trkpt lat="48.56269" lon="-3.50724">
        <ele>173.1</ele>
        <time>2020-06-10T15:18:23Z</time>
      </trkpt>
      <trkpt lat="48.56267" lon="-3.50714">
        <ele>173.3</ele>
        <time>2020-06-10T15:18:24Z</time>
      </trkpt>
      <trkpt lat="48.56266" lon="-3.50704">
        <ele>173.5</ele>
        <time>2020-06-10T15:18:25Z</time>
      </trkpt>
      <trkpt lat="48.56265" lon="-3.50694">
        <ele>173.8</ele>
        <time>2020-06-10T15:18:26Z</time>
      </trkpt>
      <trkpt lat="48.56265" lon="-3.50684">
        <ele>174.1</ele>
        <time>2020-06-10T15:18:27Z</time>
      </trkpt>
      <trkpt lat="48.56264" lon="-3.50675">
        <ele>174.3</ele>
        <time>2020-06-10T15:18:28Z</time>
      </trkpt>
      <trkpt lat="48.56263" lon="-3.50666">
        <ele>174.6</ele>
        <time>2020-06-10T15:18:29Z</time>
      </trkpt>
      <trkpt lat="48.56262" lon="-3.50658">
        <ele>174.8</ele>
        <time>2020-06-10T15:18:30Z</time>
      </trkpt>
      <trkpt lat="48.56262" lon="-3.5065">
        <ele>175.1</ele>
        <time>2020-06-10T15:18:31Z</time>
      </trkpt>
      <trkpt lat="48.56261" lon="-3.50642">
        <ele>175.3</ele>
        <time>2020-06-10T15:18:32Z</time>
      </trkpt>
      <trkpt lat="48.5626" lon="-3.50634">
        <ele>175.6</ele>
        <time>2020-06-10T15:18:33Z</time>
      </trkpt>
      <trkpt lat="48.56259" lon="-3.50627">
        <ele>175.9</ele>
        <time>2020-06-10T15:18:34Z</time>
      </trkpt>
      <trkpt lat="48.56259" lon="-3.50619">
        <ele>176.2</ele>
        <time>2020-06-10T15:18:35Z</time>
      </trkpt>
      <trkpt lat="48.56259" lon="-3.50611">
        <ele>176.5</ele>
        <time>2020-06-10T15:18:36Z</time>
      </trkpt>
      <trkpt lat="48.56259" lon="-3.50602">
        <ele>176.8</ele>
        <time>2020-06-10T15:18:37Z</time>
      </trkpt>
      <trkpt lat="48.56258" lon="-3.50594">
        <ele>177.1</ele>
        <time>2020-06-10T15:18:38Z</time>
      </trkpt>
      <trkpt lat="48.56257" lon="-3.50586">
        <ele>177.5</ele>
        <time>2020-06-10T15:18:39Z</time>
      </trkpt>
      <trkpt lat="48.56256" lon="-3.50577">
        <ele>177.8</ele>
        <time>2020-06-10T15:18:40Z</time>
      </trkpt>
      <trkpt lat="48.56255" lon="-3.50569">
        <ele>178.2</ele>
        <time>2020-06-10T15:18:41Z</time>
      </trkpt>
      <trkpt lat="48.56255" lon="-3.50562">
        <ele>178.5</ele>
        <time>2020-06-10T15:18:42Z</time>
      </trkpt>
      <trkpt lat="48.56254" lon="-3.50554">
        <ele>178.9</ele>
        <time>2020-06-10T15:18:43Z</time>
      </trkpt>
      <trkpt lat="48.56253" lon="-3.50545">
        <ele>179.3</ele>
        <time>2020-06-10T15:18:44Z</time>
      </trkpt>
      <trkpt lat="48.56253" lon="-3.50538">
        <ele>179.6</ele>
        <time>2020-06-10T15:18:45Z</time>
      </trkpt>
      <trkpt lat="48.56252" lon="-3.50529">
        <ele>180</ele>
        <time>2020-06-10T15:18:46Z</time>
      </trkpt>
      <trkpt lat="48.56252" lon="-3.50519">
        <ele>180.5</ele>
        <time>2020-06-10T15:18:47Z</time>
      </trkpt>
      <trkpt lat="48.56252" lon="-3.50512">
        <ele>180.8</ele>
        <time>2020-06-10T15:18:48Z</time>
      </trkpt>
      <trkpt lat="48.5625" lon="-3.50505">
        <ele>181.2</ele>
        <time>2020-06-10T15:18:49Z</time>
      </trkpt>
      <trkpt lat="48.56249" lon="-3.50497">
        <ele>181.6</ele>
        <time>2020-06-10T15:18:50Z</time>
      </trkpt>
      <trkpt lat="48.56248" lon="-3.50489">
        <ele>182</ele>
        <time>2020-06-10T15:18:51Z</time>
      </trkpt>
      <trkpt lat="48.56247" lon="-3.50481">
        <ele>182.4</ele>
        <time>2020-06-10T15:18:52Z</time>
      </trkpt>
      <trkpt lat="48.56246" lon="-3.50474">
        <ele>182.7</ele>
        <time>2020-06-10T15:18:53Z</time>
      </trkpt>
      <trkpt lat="48.56245" lon="-3.50467">
        <ele>183.1</ele>
        <time>2020-06-10T15:18:54Z</time>
      </trkpt>
      <trkpt lat="48.56244" lon="-3.50459">
        <ele>183.5</ele>
        <time>2020-06-10T15:18:55Z</time>
      </trkpt>
      <trkpt lat="48.56243" lon="-3.50452">
        <ele>183.7</ele>
        <time>2020-06-10T15:18:56Z</time>
      </trkpt>
      <trkpt lat="48.56243" lon="-3.50445">
        <ele>184</ele>
        <time>2020-06-10T15:18:57Z</time>
      </trkpt>
      <trkpt lat="48.56242" lon="-3.50439">
        <ele>184.3</ele>
        <time>2020-06-10T15:18:58Z</time>
      </trkpt>
      <trkpt lat="48.56242" lon="-3.50433">
        <ele>184.5</ele>
        <time>2020-06-10T15:18:59Z</time>
      </trkpt>
      <trkpt lat="48.56241" lon="-3.50426">
        <ele>184.8</ele>
        <time>2020-06-10T15:19:00Z</time>
      </trkpt>
      <trkpt lat="48.56241" lon="-3.5042">
        <ele>185.1</ele>
        <time>2020-06-10T15:19:01Z</time>
      </trkpt>
      <trkpt lat="48.5624" lon="-3.50414">
        <ele>185.4</ele>
        <time>2020-06-10T15:19:02Z</time>
      </trkpt>
      <trkpt lat="48.56239" lon="-3.50408">
        <ele>185.6</ele>
        <time>2020-06-10T15:19:03Z</time>
      </trkpt>
      <trkpt lat="48.56238" lon="-3.50401">
        <ele>185.9</ele>
        <time>2020-06-10T15:19:04Z</time>
      </trkpt>
      <trkpt lat="48.56237" lon="-3.50395">
        <ele>186.1</ele>
        <time>2020-06-10T15:19:05Z</time>
      </trkpt>
      <trkpt lat="48.56237" lon="-3.50388">
        <ele>186.4</ele>
        <time>2020-06-10T15:19:06Z</time>
      </trkpt>
      <trkpt lat="48.56236" lon="-3.50382">
        <ele>186.7</ele>
        <time>2020-06-10T15:19:07Z</time>
      </trkpt>
      <trkpt lat="48.56235" lon="-3.50376">
        <ele>186.9</ele>
        <time>2020-06-10T15:19:08Z</time>
      </trkpt>
      <trkpt lat="48.56234" lon="-3.50369">
        <ele>187.1</ele>
        <time>2020-06-10T15:19:09Z</time>
      </trkpt>
      <trkpt lat="48.56233" lon="-3.50363">
        <ele>187.3</ele>
        <time>2020-06-10T15:19:10Z</time>
      </trkpt>
      <trkpt lat="48.56233" lon="-3.50354">
        <ele>187.6</ele>
        <time>2020-06-10T15:19:11Z</time>
      </trkpt>
      <trkpt lat="48.56232" lon="-3.50348">
        <ele>187.7</ele>
        <time>2020-06-10T15:19:12Z</time>
      </trkpt>
      <trkpt lat="48.56231" lon="-3.50343">
        <ele>187.9</ele>
        <time>2020-06-10T15:19:13Z</time>
      </trkpt>
      <trkpt lat="48.5623" lon="-3.50336">
        <ele>188.1</ele>
        <time>2020-06-10T15:19:14Z</time>
      </trkpt>
      <trkpt lat="48.5623" lon="-3.5033">
        <ele>188.2</ele>
        <time>2020-06-10T15:19:15Z</time>
      </trkpt>
      <trkpt lat="48.56229" lon="-3.50323">
        <ele>188.4</ele>
        <time>2020-06-10T15:19:16Z</time>
      </trkpt>
      <trkpt lat="48.56228" lon="-3.50316">
        <ele>188.5</ele>
        <time>2020-06-10T15:19:17Z</time>
      </trkpt>
      <trkpt lat="48.56227" lon="-3.5031">
        <ele>188.7</ele>
        <time>2020-06-10T15:19:18Z</time>
      </trkpt>
      <trkpt lat="48.56226" lon="-3.50305">
        <ele>188.8</ele>
        <time>2020-06-10T15:19:19Z</time>
      </trkpt>
      <trkpt lat="48.56226" lon="-3.503">
        <ele>188.9</ele>
        <time>2020-06-10T15:19:20Z</time>
      </trkpt>
      <trkpt lat="48.56225" lon="-3.50294">
        <ele>189</ele>
        <time>2020-06-10T15:19:21Z</time>
      </trkpt>
      <trkpt lat="48.56224" lon="-3.5029">
        <ele>189.1</ele>
        <time>2020-06-10T15:19:22Z</time>
      </trkpt>
      <trkpt lat="48.56224" lon="-3.50283">
        <ele>189.3</ele>
        <time>2020-06-10T15:19:23Z</time>
      </trkpt>
      <trkpt lat="48.56223" lon="-3.50277">
        <ele>189.4</ele>
        <time>2020-06-10T15:19:24Z</time>
      </trkpt>
      <trkpt lat="48.56222" lon="-3.50271">
        <ele>189.5</ele>
        <time>2020-06-10T15:19:25Z</time>
      </trkpt>
      <trkpt lat="48.56221" lon="-3.50265">
        <ele>189.7</ele>
        <time>2020-06-10T15:19:26Z</time>
      </trkpt>
      <trkpt lat="48.56221" lon="-3.50259">
        <ele>189.8</ele>
        <time>2020-06-10T15:19:27Z</time>
      </trkpt>
      <trkpt lat="48.5622" lon="-3.50252">
        <ele>189.9</ele>
        <time>2020-06-10T15:19:28Z</time>
      </trkpt>
      <trkpt lat="48.56219" lon="-3.50247">
        <ele>190.1</ele>
        <time>2020-06-10T15:19:29Z</time>
      </trkpt>
      <trkpt lat="48.56219" lon="-3.50241">
        <ele>190.2</ele>
        <time>2020-06-10T15:19:30Z</time>
      </trkpt>
      <trkpt lat="48.56218" lon="-3.50234">
        <ele>190.4</ele>
        <time>2020-06-10T15:19:31Z</time>
      </trkpt>
      <trkpt lat="48.56217" lon="-3.50227">
        <ele>190.6</ele>
        <time>2020-06-10T15:19:32Z</time>
      </trkpt>
      <trkpt lat="48.56216" lon="-3.50219">
        <ele>190.7</ele>
        <time>2020-06-10T15:19:33Z</time>
      </trkpt>
      <trkpt lat="48.56216" lon="-3.50212">
        <ele>190.9</ele>
        <time>2020-06-10T15:19:34Z</time>
      </trkpt>
      <trkpt lat="48.56215" lon="-3.50206">
        <ele>191</ele>
        <time>2020-06-10T15:19:35Z</time>
      </trkpt>
      <trkpt lat="48.56214" lon="-3.50199">
        <ele>191.1</ele>
        <time>2020-06-10T15:19:36Z</time>
      </trkpt>
      <trkpt lat="48.56214" lon="-3.50193">
        <ele>191.1</ele>
        <time>2020-06-10T15:19:37Z</time>
      </trkpt>
      <trkpt lat="48.56213" lon="-3.50186">
        <ele>191.2</ele>
        <time>2020-06-10T15:19:38Z</time>
      </trkpt>
      <trkpt lat="48.56213" lon="-3.5018">
        <ele>191.3</ele>
        <time>2020-06-10T15:19:39Z</time>
      </trkpt>
      <trkpt lat="48.56212" lon="-3.50176">
        <ele>191.4</ele>
        <time>2020-06-10T15:19:40Z</time>
      </trkpt>
      <trkpt lat="48.56211" lon="-3.50168">
        <ele>191.5</ele>
        <time>2020-06-10T15:19:41Z</time>
      </trkpt>
      <trkpt lat="48.56211" lon="-3.50161">
        <ele>191.7</ele>
        <time>2020-06-10T15:19:42Z</time>
      </trkpt>
      <trkpt lat="48.5621" lon="-3.50154">
        <ele>191.8</ele>
        <time>2020-06-10T15:19:43Z</time>
      </trkpt>
      <trkpt lat="48.56209" lon="-3.50149">
        <ele>191.9</ele>
        <time>2020-06-10T15:19:44Z</time>
      </trkpt>
      <trkpt lat="48.56208" lon="-3.50142">
        <ele>192.1</ele>
        <time>2020-06-10T15:19:45Z</time>
      </trkpt>
      <trkpt lat="48.56208" lon="-3.50136">
        <ele>192.2</ele>
        <time>2020-06-10T15:19:46Z</time>
      </trkpt>
      <trkpt lat="48.56207" lon="-3.50133">
        <ele>192.2</ele>
        <time>2020-06-10T15:19:47Z</time>
      </trkpt>
      <trkpt lat="48.56207" lon="-3.50126">
        <ele>192.4</ele>
        <time>2020-06-10T15:19:48Z</time>
      </trkpt>
      <trkpt lat="48.56206" lon="-3.50119">
        <ele>192.5</ele>
        <time>2020-06-10T15:19:49Z</time>
      </trkpt>
      <trkpt lat="48.56205" lon="-3.50111">
        <ele>192.7</ele>
        <time>2020-06-10T15:19:50Z</time>
      </trkpt>
      <trkpt lat="48.56204" lon="-3.50104">
        <ele>192.8</ele>
        <time>2020-06-10T15:19:51Z</time>
      </trkpt>
      <trkpt lat="48.56204" lon="-3.50098">
        <ele>192.9</ele>
        <time>2020-06-10T15:19:52Z</time>
      </trkpt>
      <trkpt lat="48.56203" lon="-3.50091">
        <ele>193</ele>
        <time>2020-06-10T15:19:53Z</time>
      </trkpt>
      <trkpt lat="48.56202" lon="-3.50085">
        <ele>193.1</ele>
        <time>2020-06-10T15:19:54Z</time>
      </trkpt>
      <trkpt lat="48.56202" lon="-3.5008">
        <ele>193.2</ele>
        <time>2020-06-10T15:19:55Z</time>
      </trkpt>
      <trkpt lat="48.56202" lon="-3.50076">
        <ele>193.2</ele>
        <time>2020-06-10T15:19:56Z</time>
      </trkpt>
      <trkpt lat="48.56201" lon="-3.5007">
        <ele>193.3</ele>
        <time>2020-06-10T15:19:57Z</time>
      </trkpt>
      <trkpt lat="48.56201" lon="-3.50063">
        <ele>193.4</ele>
        <time>2020-06-10T15:19:58Z</time>
      </trkpt>
      <trkpt lat="48.56201" lon="-3.50057">
        <ele>193.5</ele>
        <time>2020-06-10T15:19:59Z</time>
      </trkpt>
      <trkpt lat="48.562" lon="-3.50051">
        <ele>193.5</ele>
        <time>2020-06-10T15:20:00Z</time>
      </trkpt>
      <trkpt lat="48.562" lon="-3.50046">
        <ele>193.6</ele>
        <time>2020-06-10T15:20:01Z</time>
      </trkpt>
      <trkpt lat="48.56199" lon="-3.50041">
        <ele>193.6</ele>
        <time>2020-06-10T15:20:02Z</time>
      </trkpt>
      <trkpt lat="48.56198" lon="-3.50037">
        <ele>193.6</ele>
        <time>2020-06-10T15:20:03Z</time>
      </trkpt>
      <trkpt lat="48.56198" lon="-3.50032">
        <ele>193.6</ele>
        <time>2020-06-10T15:20:04Z</time>
      </trkpt>
      <trkpt lat="48.56197" lon="-3.50027">
        <ele>193.6</ele>
        <time>2020-06-10T15:20:05Z</time>
      </trkpt>
      <trkpt lat="48.56197" lon="-3.50022">
        <ele>193.6</ele>
        <time>2020-06-10T15:20:06Z</time>
      </trkpt>
      <trkpt lat="48.56196" lon="-3.50017">
        <ele>193.7</ele>
        <time>2020-06-10T15:20:07Z</time>
      </trkpt>
      <trkpt lat="48.56196" lon="-3.50011">
        <ele>193.7</ele>
        <time>2020-06-10T15:20:08Z</time>
      </trkpt>
      <trkpt lat="48.56196" lon="-3.50009">
        <ele>193.7</ele>
        <time>2020-06-10T15:20:09Z</time>
      </trkpt>
      <trkpt lat="48.56195" lon="-3.50005">
        <ele>193.7</ele>
        <time>2020-06-10T15:20:10Z</time>
      </trkpt>
      <trkpt lat="48.56193" lon="-3.49998">
        <ele>193.7</ele>
        <time>2020-06-10T15:20:11Z</time>
      </trkpt>
      <trkpt lat="48.56191" lon="-3.4999">
        <ele>193.8</ele>
        <time>2020-06-10T15:20:12Z</time>
      </trkpt>
      <trkpt lat="48.5619" lon="-3.49984">
        <ele>193.8</ele>
        <time>2020-06-10T15:20:13Z</time>
      </trkpt>
      <trkpt lat="48.56189" lon="-3.49978">
        <ele>193.8</ele>
        <time>2020-06-10T15:20:14Z</time>
      </trkpt>
      <trkpt lat="48.56188" lon="-3.49974">
        <ele>193.8</ele>
        <time>2020-06-10T15:20:15Z</time>
      </trkpt>
      <trkpt lat="48.56188" lon="-3.49969">
        <ele>193.9</ele>
        <time>2020-06-10T15:20:16Z</time>
      </trkpt>
      <trkpt lat="48.56188" lon="-3.49967">
        <ele>193.9</ele>
        <time>2020-06-10T15:20:17Z</time>
      </trkpt>
      <trkpt lat="48.56188" lon="-3.49964">
        <ele>193.9</ele>
        <time>2020-06-10T15:20:18Z</time>
      </trkpt>
      <trkpt lat="48.56189" lon="-3.49963">
        <ele>193.9</ele>
        <time>2020-06-10T15:20:19Z</time>
      </trkpt>
      <trkpt lat="48.56189" lon="-3.49961">
        <ele>193.9</ele>
        <time>2020-06-10T15:20:20Z</time>
      </trkpt>
      <trkpt lat="48.56188" lon="-3.49957">
        <ele>193.9</ele>
        <time>2020-06-10T15:20:21Z</time>
      </trkpt>
      <trkpt lat="48.56188" lon="-3.49953">
        <ele>193.9</ele>
        <time>2020-06-10T15:20:22Z</time>
      </trkpt>
      <trkpt lat="48.56187" lon="-3.49951">
        <ele>193.9</ele>
        <time>2020-06-10T15:20:23Z</time>
      </trkpt>
      <trkpt lat="48.56186" lon="-3.49946">
        <ele>194</ele>
        <time>2020-06-10T15:20:24Z</time>
      </trkpt>
      <trkpt lat="48.56184" lon="-3.49942">
        <ele>194</ele>
        <time>2020-06-10T15:20:25Z</time>
      </trkpt>
      <trkpt lat="48.56184" lon="-3.49939">
        <ele>194</ele>
        <time>2020-06-10T15:20:26Z</time>
      </trkpt>
      <trkpt lat="48.56183" lon="-3.49937">
        <ele>194</ele>
        <time>2020-06-10T15:20:27Z</time>
      </trkpt>
      <trkpt lat="48.56182" lon="-3.49936">
        <ele>194</ele>
        <time>2020-06-10T15:20:28Z</time>
      </trkpt>
      <trkpt lat="48.56182" lon="-3.49936">
        <ele>194</ele>
        <time>2020-06-10T15:20:29Z</time>
      </trkpt>
      <trkpt lat="48.56182" lon="-3.49937">
        <ele>194</ele>
        <time>2020-06-10T15:20:30Z</time>
      </trkpt>
      <trkpt lat="48.56182" lon="-3.49938">
        <ele>194</ele>
        <time>2020-06-10T15:20:31Z</time>
      </trkpt>
      <trkpt lat="48.56182" lon="-3.49938">
        <ele>194</ele>
        <time>2020-06-10T15:20:32Z</time>
      </trkpt>
      <trkpt lat="48.56182" lon="-3.49937">
        <ele>194</ele>
        <time>2020-06-10T15:20:33Z</time>
      </trkpt>
      <trkpt lat="48.56182" lon="-3.49938">
        <ele>194</ele>
        <time>2020-06-10T15:20:34Z</time>
      </trkpt>
      <trkpt lat="48.56181" lon="-3.49938">
        <ele>193.9</ele>
        <time>2020-06-10T15:20:35Z</time>
      </trkpt>
      <trkpt lat="48.56181" lon="-3.49938">
        <ele>193.9</ele>
        <time>2020-06-10T15:20:36Z</time>
      </trkpt>
      <trkpt lat="48.56181" lon="-3.49938">
        <ele>193.9</ele>
        <time>2020-06-10T15:20:37Z</time>
      </trkpt>
      <trkpt lat="48.56181" lon="-3.49938">
        <ele>193.9</ele>
        <time>2020-06-10T15:20:38Z</time>
      </trkpt>
      <trkpt lat="48.56181" lon="-3.49937">
        <ele>193.9</ele>
        <time>2020-06-10T15:20:39Z</time>
      </trkpt>
      <trkpt lat="48.56181" lon="-3.49937">
        <ele>193.9</ele>
        <time>2020-06-10T15:20:40Z</time>
      </trkpt>
      <trkpt lat="48.5618" lon="-3.49937">
        <ele>193.9</ele>
        <time>2020-06-10T15:20:43Z</time>
      </trkpt>
      <trkpt lat="48.5618" lon="-3.49935">
        <ele>193.9</ele>
        <time>2020-06-10T15:20:44Z</time>
      </trkpt>
      <trkpt lat="48.5618" lon="-3.49931">
        <ele>193.9</ele>
        <time>2020-06-10T15:20:45Z</time>
      </trkpt>
      <trkpt lat="48.5618" lon="-3.49926">
        <ele>193.8</ele>
        <time>2020-06-10T15:20:46Z</time>
      </trkpt>
      <trkpt lat="48.5618" lon="-3.49924">
        <ele>193.8</ele>
        <time>2020-06-10T15:20:47Z</time>
      </trkpt>
      <trkpt lat="48.5618" lon="-3.4992">
        <ele>193.7</ele>
        <time>2020-06-10T15:20:48Z</time>
      </trkpt>
      <trkpt lat="48.5618" lon="-3.49916">
        <ele>193.5</ele>
        <time>2020-06-10T15:20:49Z</time>
      </trkpt>
      <trkpt lat="48.56181" lon="-3.49911">
        <ele>193.4</ele>
        <time>2020-06-10T15:20:50Z</time>
      </trkpt>
      <trkpt lat="48.56181" lon="-3.49906">
        <ele>193.3</ele>
        <time>2020-06-10T15:20:51Z</time>
      </trkpt>
      <trkpt lat="48.56181" lon="-3.49901">
        <ele>193.1</ele>
        <time>2020-06-10T15:20:52Z</time>
      </trkpt>
      <trkpt lat="48.56181" lon="-3.49893">
        <ele>192.9</ele>
        <time>2020-06-10T15:20:53Z</time>
      </trkpt>
      <trkpt lat="48.56181" lon="-3.49886">
        <ele>192.6</ele>
        <time>2020-06-10T15:20:54Z</time>
      </trkpt>
      <trkpt lat="48.56179" lon="-3.49875">
        <ele>192.2</ele>
        <time>2020-06-10T15:20:55Z</time>
      </trkpt>
      <trkpt lat="48.56178" lon="-3.49864">
        <ele>191.7</ele>
        <time>2020-06-10T15:20:56Z</time>
      </trkpt>
      <trkpt lat="48.56177" lon="-3.49852">
        <ele>191.2</ele>
        <time>2020-06-10T15:20:57Z</time>
      </trkpt>
      <trkpt lat="48.56175" lon="-3.49839">
        <ele>190.5</ele>
        <time>2020-06-10T15:20:58Z</time>
      </trkpt>
      <trkpt lat="48.56174" lon="-3.49826">
        <ele>189.2</ele>
        <time>2020-06-10T15:20:59Z</time>
      </trkpt>
      <trkpt lat="48.56172" lon="-3.49811">
        <ele>188.5</ele>
        <time>2020-06-10T15:21:00Z</time>
      </trkpt>
      <trkpt lat="48.5617" lon="-3.49796">
        <ele>187.7</ele>
        <time>2020-06-10T15:21:01Z</time>
      </trkpt>
      <trkpt lat="48.56169" lon="-3.4978">
        <ele>186.9</ele>
        <time>2020-06-10T15:21:02Z</time>
      </trkpt>
      <trkpt lat="48.56167" lon="-3.49764">
        <ele>186</ele>
        <time>2020-06-10T15:21:03Z</time>
      </trkpt>
      <trkpt lat="48.56165" lon="-3.49747">
        <ele>185.1</ele>
        <time>2020-06-10T15:21:04Z</time>
      </trkpt>
      <trkpt lat="48.56163" lon="-3.49729">
        <ele>184.2</ele>
        <time>2020-06-10T15:21:05Z</time>
      </trkpt>
      <trkpt lat="48.56161" lon="-3.4971">
        <ele>183.3</ele>
        <time>2020-06-10T15:21:06Z</time>
      </trkpt>
      <trkpt lat="48.5616" lon="-3.4969">
        <ele>182.3</ele>
        <time>2020-06-10T15:21:07Z</time>
      </trkpt>
      <trkpt lat="48.56158" lon="-3.4967">
        <ele>181.2</ele>
        <time>2020-06-10T15:21:08Z</time>
      </trkpt>
      <trkpt lat="48.56157" lon="-3.4965">
        <ele>180</ele>
        <time>2020-06-10T15:21:09Z</time>
      </trkpt>
      <trkpt lat="48.56155" lon="-3.4963">
        <ele>178.7</ele>
        <time>2020-06-10T15:21:10Z</time>
      </trkpt>
      <trkpt lat="48.56153" lon="-3.49609">
        <ele>177.3</ele>
        <time>2020-06-10T15:21:11Z</time>
      </trkpt>
      <trkpt lat="48.56151" lon="-3.49586">
        <ele>175.8</ele>
        <time>2020-06-10T15:21:12Z</time>
      </trkpt>
      <trkpt lat="48.56149" lon="-3.49565">
        <ele>174.4</ele>
        <time>2020-06-10T15:21:13Z</time>
      </trkpt>
      <trkpt lat="48.56147" lon="-3.49543">
        <ele>173</ele>
        <time>2020-06-10T15:21:14Z</time>
      </trkpt>
      <trkpt lat="48.56145" lon="-3.49521">
        <ele>171.7</ele>
        <time>2020-06-10T15:21:15Z</time>
      </trkpt>
      <trkpt lat="48.56143" lon="-3.49498">
        <ele>170.7</ele>
        <time>2020-06-10T15:21:16Z</time>
      </trkpt>
      <trkpt lat="48.56141" lon="-3.49477">
        <ele>169.8</ele>
        <time>2020-06-10T15:21:17Z</time>
      </trkpt>
      <trkpt lat="48.56139" lon="-3.49456">
        <ele>169</ele>
        <time>2020-06-10T15:21:18Z</time>
      </trkpt>
      <trkpt lat="48.56136" lon="-3.49433">
        <ele>168.2</ele>
        <time>2020-06-10T15:21:19Z</time>
      </trkpt>
      <trkpt lat="48.56134" lon="-3.4941">
        <ele>167.5</ele>
        <time>2020-06-10T15:21:20Z</time>
      </trkpt>
      <trkpt lat="48.56132" lon="-3.49388">
        <ele>167</ele>
        <time>2020-06-10T15:21:21Z</time>
      </trkpt>
      <trkpt lat="48.5613" lon="-3.49368">
        <ele>166.8</ele>
        <time>2020-06-10T15:21:22Z</time>
      </trkpt>
      <trkpt lat="48.56128" lon="-3.49347">
        <ele>166.8</ele>
        <time>2020-06-10T15:21:23Z</time>
      </trkpt>
      <trkpt lat="48.56127" lon="-3.49327">
        <ele>166.9</ele>
        <time>2020-06-10T15:21:24Z</time>
      </trkpt>
      <trkpt lat="48.56127" lon="-3.49308">
        <ele>167.2</ele>
        <time>2020-06-10T15:21:25Z</time>
      </trkpt>
      <trkpt lat="48.56126" lon="-3.49291">
        <ele>167.4</ele>
        <time>2020-06-10T15:21:26Z</time>
      </trkpt>
      <trkpt lat="48.56126" lon="-3.49274">
        <ele>167.6</ele>
        <time>2020-06-10T15:21:27Z</time>
      </trkpt>
      <trkpt lat="48.56126" lon="-3.49257">
        <ele>167.9</ele>
        <time>2020-06-10T15:21:28Z</time>
      </trkpt>
      <trkpt lat="48.56126" lon="-3.49242">
        <ele>168</ele>
        <time>2020-06-10T15:21:29Z</time>
      </trkpt>
      <trkpt lat="48.56126" lon="-3.49227">
        <ele>168</ele>
        <time>2020-06-10T15:21:30Z</time>
      </trkpt>
      <trkpt lat="48.56127" lon="-3.49212">
        <ele>168.1</ele>
        <time>2020-06-10T15:21:31Z</time>
      </trkpt>
      <trkpt lat="48.56126" lon="-3.49199">
        <ele>168.3</ele>
        <time>2020-06-10T15:21:32Z</time>
      </trkpt>
      <trkpt lat="48.56127" lon="-3.49185">
        <ele>168.4</ele>
        <time>2020-06-10T15:21:33Z</time>
      </trkpt>
      <trkpt lat="48.56126" lon="-3.49173">
        <ele>168.5</ele>
        <time>2020-06-10T15:21:34Z</time>
      </trkpt>
      <trkpt lat="48.56125" lon="-3.49161">
        <ele>168.7</ele>
        <time>2020-06-10T15:21:35Z</time>
      </trkpt>
      <trkpt lat="48.56125" lon="-3.49149">
        <ele>168.8</ele>
        <time>2020-06-10T15:21:36Z</time>
      </trkpt>
      <trkpt lat="48.56124" lon="-3.49138">
        <ele>168.9</ele>
        <time>2020-06-10T15:21:37Z</time>
      </trkpt>
      <trkpt lat="48.56123" lon="-3.49127">
        <ele>168.9</ele>
        <time>2020-06-10T15:21:38Z</time>
      </trkpt>
      <trkpt lat="48.56122" lon="-3.49116">
        <ele>169</ele>
        <time>2020-06-10T15:21:39Z</time>
      </trkpt>
      <trkpt lat="48.56121" lon="-3.49106">
        <ele>169.1</ele>
        <time>2020-06-10T15:21:40Z</time>
      </trkpt>
      <trkpt lat="48.56119" lon="-3.49097">
        <ele>169.1</ele>
        <time>2020-06-10T15:21:41Z</time>
      </trkpt>
      <trkpt lat="48.56118" lon="-3.49087">
        <ele>169.1</ele>
        <time>2020-06-10T15:21:42Z</time>
      </trkpt>
      <trkpt lat="48.56117" lon="-3.49078">
        <ele>169.2</ele>
        <time>2020-06-10T15:21:43Z</time>
      </trkpt>
      <trkpt lat="48.56116" lon="-3.49069">
        <ele>169.2</ele>
        <time>2020-06-10T15:21:44Z</time>
      </trkpt>
      <trkpt lat="48.56115" lon="-3.4906">
        <ele>169.2</ele>
        <time>2020-06-10T15:21:45Z</time>
      </trkpt>
      <trkpt lat="48.56113" lon="-3.49051">
        <ele>169.1</ele>
        <time>2020-06-10T15:21:46Z</time>
      </trkpt>
      <trkpt lat="48.56112" lon="-3.49043">
        <ele>169</ele>
        <time>2020-06-10T15:21:47Z</time>
      </trkpt>
      <trkpt lat="48.56111" lon="-3.49035">
        <ele>169</ele>
        <time>2020-06-10T15:21:48Z</time>
      </trkpt>
      <trkpt lat="48.5611" lon="-3.49027">
        <ele>169</ele>
        <time>2020-06-10T15:21:49Z</time>
      </trkpt>
      <trkpt lat="48.56109" lon="-3.49019">
        <ele>168.8</ele>
        <time>2020-06-10T15:21:50Z</time>
      </trkpt>
      <trkpt lat="48.56108" lon="-3.4901">
        <ele>168.7</ele>
        <time>2020-06-10T15:21:51Z</time>
      </trkpt>
      <trkpt lat="48.56107" lon="-3.49002">
        <ele>168.6</ele>
        <time>2020-06-10T15:21:52Z</time>
      </trkpt>
      <trkpt lat="48.56107" lon="-3.48993">
        <ele>168.4</ele>
        <time>2020-06-10T15:21:53Z</time>
      </trkpt>
      <trkpt lat="48.56105" lon="-3.48984">
        <ele>168.3</ele>
        <time>2020-06-10T15:21:54Z</time>
      </trkpt>
      <trkpt lat="48.56104" lon="-3.48975">
        <ele>168.2</ele>
        <time>2020-06-10T15:21:55Z</time>
      </trkpt>
      <trkpt lat="48.56103" lon="-3.48964">
        <ele>168.1</ele>
        <time>2020-06-10T15:21:56Z</time>
      </trkpt>
      <trkpt lat="48.56102" lon="-3.48954">
        <ele>168</ele>
        <time>2020-06-10T15:21:57Z</time>
      </trkpt>
      <trkpt lat="48.56101" lon="-3.48943">
        <ele>167.9</ele>
        <time>2020-06-10T15:21:58Z</time>
      </trkpt>
      <trkpt lat="48.56099" lon="-3.48931">
        <ele>167.8</ele>
        <time>2020-06-10T15:21:59Z</time>
      </trkpt>
      <trkpt lat="48.56099" lon="-3.48919">
        <ele>167.6</ele>
        <time>2020-06-10T15:22:00Z</time>
      </trkpt>
      <trkpt lat="48.56099" lon="-3.48907">
        <ele>167.5</ele>
        <time>2020-06-10T15:22:01Z</time>
      </trkpt>
      <trkpt lat="48.56098" lon="-3.48894">
        <ele>167.4</ele>
        <time>2020-06-10T15:22:02Z</time>
      </trkpt>
      <trkpt lat="48.56096" lon="-3.48882">
        <ele>167.3</ele>
        <time>2020-06-10T15:22:03Z</time>
      </trkpt>
      <trkpt lat="48.56095" lon="-3.48869">
        <ele>167.2</ele>
        <time>2020-06-10T15:22:04Z</time>
      </trkpt>
      <trkpt lat="48.56094" lon="-3.48856">
        <ele>167</ele>
        <time>2020-06-10T15:22:05Z</time>
      </trkpt>
      <trkpt lat="48.56093" lon="-3.48842">
        <ele>166.8</ele>
        <time>2020-06-10T15:22:06Z</time>
      </trkpt>
      <trkpt lat="48.56092" lon="-3.48828">
        <ele>166.6</ele>
        <time>2020-06-10T15:22:07Z</time>
      </trkpt>
      <trkpt lat="48.56091" lon="-3.48813">
        <ele>166.5</ele>
        <time>2020-06-10T15:22:08Z</time>
      </trkpt>
      <trkpt lat="48.5609" lon="-3.48799">
        <ele>166.3</ele>
        <time>2020-06-10T15:22:09Z</time>
      </trkpt>
      <trkpt lat="48.56089" lon="-3.48784">
        <ele>166.1</ele>
        <time>2020-06-10T15:22:10Z</time>
      </trkpt>
      <trkpt lat="48.56088" lon="-3.48769">
        <ele>165.9</ele>
        <time>2020-06-10T15:22:11Z</time>
      </trkpt>
      <trkpt lat="48.56087" lon="-3.48755">
        <ele>165.7</ele>
        <time>2020-06-10T15:22:12Z</time>
      </trkpt>
      <trkpt lat="48.56086" lon="-3.48739">
        <ele>165.4</ele>
        <time>2020-06-10T15:22:13Z</time>
      </trkpt>
      <trkpt lat="48.56085" lon="-3.48723">
        <ele>165.1</ele>
        <time>2020-06-10T15:22:14Z</time>
      </trkpt>
      <trkpt lat="48.56084" lon="-3.48708">
        <ele>164.8</ele>
        <time>2020-06-10T15:22:15Z</time>
      </trkpt>
      <trkpt lat="48.56083" lon="-3.48692">
        <ele>164.5</ele>
        <time>2020-06-10T15:22:16Z</time>
      </trkpt>
      <trkpt lat="48.56081" lon="-3.48677">
        <ele>164.2</ele>
        <time>2020-06-10T15:22:17Z</time>
      </trkpt>
      <trkpt lat="48.56079" lon="-3.48661">
        <ele>163.9</ele>
        <time>2020-06-10T15:22:18Z</time>
      </trkpt>
      <trkpt lat="48.56077" lon="-3.48646">
        <ele>163.7</ele>
        <time>2020-06-10T15:22:19Z</time>
      </trkpt>
      <trkpt lat="48.56075" lon="-3.4863">
        <ele>163.5</ele>
        <time>2020-06-10T15:22:20Z</time>
      </trkpt>
      <trkpt lat="48.56074" lon="-3.48615">
        <ele>163.3</ele>
        <time>2020-06-10T15:22:21Z</time>
      </trkpt>
      <trkpt lat="48.56073" lon="-3.486">
        <ele>163</ele>
        <time>2020-06-10T15:22:22Z</time>
      </trkpt>
      <trkpt lat="48.56071" lon="-3.48586">
        <ele>162.8</ele>
        <time>2020-06-10T15:22:23Z</time>
      </trkpt>
      <trkpt lat="48.5607" lon="-3.48571">
        <ele>162.6</ele>
        <time>2020-06-10T15:22:24Z</time>
      </trkpt>
      <trkpt lat="48.56068" lon="-3.48555">
        <ele>162.4</ele>
        <time>2020-06-10T15:22:25Z</time>
      </trkpt>
      <trkpt lat="48.56067" lon="-3.4854">
        <ele>162.1</ele>
        <time>2020-06-10T15:22:26Z</time>
      </trkpt>
      <trkpt lat="48.56065" lon="-3.48525">
        <ele>161.9</ele>
        <time>2020-06-10T15:22:27Z</time>
      </trkpt>
      <trkpt lat="48.56064" lon="-3.4851">
        <ele>161.6</ele>
        <time>2020-06-10T15:22:28Z</time>
      </trkpt>
      <trkpt lat="48.56062" lon="-3.48496">
        <ele>161.4</ele>
        <time>2020-06-10T15:22:29Z</time>
      </trkpt>
      <trkpt lat="48.56061" lon="-3.48481">
        <ele>161.2</ele>
        <time>2020-06-10T15:22:30Z</time>
      </trkpt>
      <trkpt lat="48.56059" lon="-3.48467">
        <ele>160.9</ele>
        <time>2020-06-10T15:22:31Z</time>
      </trkpt>
      <trkpt lat="48.56058" lon="-3.48453">
        <ele>160.7</ele>
        <time>2020-06-10T15:22:32Z</time>
      </trkpt>
      <trkpt lat="48.56056" lon="-3.48439">
        <ele>160.4</ele>
        <time>2020-06-10T15:22:33Z</time>
      </trkpt>
      <trkpt lat="48.56055" lon="-3.48424">
        <ele>160.2</ele>
        <time>2020-06-10T15:22:34Z</time>
      </trkpt>
      <trkpt lat="48.56054" lon="-3.48409">
        <ele>160</ele>
        <time>2020-06-10T15:22:35Z</time>
      </trkpt>
      <trkpt lat="48.56053" lon="-3.48394">
        <ele>159.7</ele>
        <time>2020-06-10T15:22:36Z</time>
      </trkpt>
      <trkpt lat="48.56052" lon="-3.48378">
        <ele>159.4</ele>
        <time>2020-06-10T15:22:37Z</time>
      </trkpt>
      <trkpt lat="48.5605" lon="-3.48363">
        <ele>159.1</ele>
        <time>2020-06-10T15:22:38Z</time>
      </trkpt>
      <trkpt lat="48.56048" lon="-3.48348">
        <ele>158.8</ele>
        <time>2020-06-10T15:22:39Z</time>
      </trkpt>
      <trkpt lat="48.56047" lon="-3.48333">
        <ele>158.5</ele>
        <time>2020-06-10T15:22:40Z</time>
      </trkpt>
      <trkpt lat="48.56046" lon="-3.48318">
        <ele>158.1</ele>
        <time>2020-06-10T15:22:41Z</time>
      </trkpt>
      <trkpt lat="48.56045" lon="-3.48302">
        <ele>157.8</ele>
        <time>2020-06-10T15:22:42Z</time>
      </trkpt>
      <trkpt lat="48.56044" lon="-3.48287">
        <ele>157.4</ele>
        <time>2020-06-10T15:22:43Z</time>
      </trkpt>
      <trkpt lat="48.56042" lon="-3.48272">
        <ele>157</ele>
        <time>2020-06-10T15:22:44Z</time>
      </trkpt>
      <trkpt lat="48.56041" lon="-3.48256">
        <ele>156.5</ele>
        <time>2020-06-10T15:22:45Z</time>
      </trkpt>
      <trkpt lat="48.56039" lon="-3.4824">
        <ele>155.9</ele>
        <time>2020-06-10T15:22:46Z</time>
      </trkpt>
      <trkpt lat="48.56038" lon="-3.48225">
        <ele>155.1</ele>
        <time>2020-06-10T15:22:47Z</time>
      </trkpt>
      <trkpt lat="48.56036" lon="-3.48209">
        <ele>154.3</ele>
        <time>2020-06-10T15:22:48Z</time>
      </trkpt>
      <trkpt lat="48.56035" lon="-3.48193">
        <ele>153.4</ele>
        <time>2020-06-10T15:22:49Z</time>
      </trkpt>
      <trkpt lat="48.56034" lon="-3.48175">
        <ele>152.6</ele>
        <time>2020-06-10T15:22:50Z</time>
      </trkpt>
      <trkpt lat="48.56032" lon="-3.48157">
        <ele>152</ele>
        <time>2020-06-10T15:22:51Z</time>
      </trkpt>
      <trkpt lat="48.5603" lon="-3.4814">
        <ele>151.3</ele>
        <time>2020-06-10T15:22:52Z</time>
      </trkpt>
      <trkpt lat="48.56029" lon="-3.48123">
        <ele>150.7</ele>
        <time>2020-06-10T15:22:53Z</time>
      </trkpt>
      <trkpt lat="48.56027" lon="-3.48106">
        <ele>150.2</ele>
        <time>2020-06-10T15:22:54Z</time>
      </trkpt>
      <trkpt lat="48.56025" lon="-3.48089">
        <ele>149.9</ele>
        <time>2020-06-10T15:22:55Z</time>
      </trkpt>
      <trkpt lat="48.56024" lon="-3.48072">
        <ele>149.8</ele>
        <time>2020-06-10T15:22:56Z</time>
      </trkpt>
      <trkpt lat="48.56022" lon="-3.48056">
        <ele>149.7</ele>
        <time>2020-06-10T15:22:57Z</time>
      </trkpt>
      <trkpt lat="48.56021" lon="-3.4804">
        <ele>149.6</ele>
        <time>2020-06-10T15:22:58Z</time>
      </trkpt>
      <trkpt lat="48.56019" lon="-3.48024">
        <ele>149.5</ele>
        <time>2020-06-10T15:22:59Z</time>
      </trkpt>
      <trkpt lat="48.56017" lon="-3.48009">
        <ele>149.6</ele>
        <time>2020-06-10T15:23:00Z</time>
      </trkpt>
      <trkpt lat="48.56016" lon="-3.47994">
        <ele>149.7</ele>
        <time>2020-06-10T15:23:01Z</time>
      </trkpt>
      <trkpt lat="48.56015" lon="-3.4798">
        <ele>149.9</ele>
        <time>2020-06-10T15:23:02Z</time>
      </trkpt>
      <trkpt lat="48.56014" lon="-3.47967">
        <ele>150.1</ele>
        <time>2020-06-10T15:23:03Z</time>
      </trkpt>
      <trkpt lat="48.56013" lon="-3.47954">
        <ele>150.3</ele>
        <time>2020-06-10T15:23:04Z</time>
      </trkpt>
      <trkpt lat="48.56012" lon="-3.47941">
        <ele>150.6</ele>
        <time>2020-06-10T15:23:05Z</time>
      </trkpt>
      <trkpt lat="48.56011" lon="-3.47928">
        <ele>151</ele>
        <time>2020-06-10T15:23:06Z</time>
      </trkpt>
      <trkpt lat="48.5601" lon="-3.47916">
        <ele>151.5</ele>
        <time>2020-06-10T15:23:07Z</time>
      </trkpt>
      <trkpt lat="48.5601" lon="-3.47905">
        <ele>151.9</ele>
        <time>2020-06-10T15:23:08Z</time>
      </trkpt>
      <trkpt lat="48.56009" lon="-3.47894">
        <ele>152.3</ele>
        <time>2020-06-10T15:23:09Z</time>
      </trkpt>
      <trkpt lat="48.56008" lon="-3.47883">
        <ele>152.8</ele>
        <time>2020-06-10T15:23:10Z</time>
      </trkpt>
      <trkpt lat="48.56008" lon="-3.47873">
        <ele>153.2</ele>
        <time>2020-06-10T15:23:11Z</time>
      </trkpt>
      <trkpt lat="48.56007" lon="-3.47864">
        <ele>153.6</ele>
        <time>2020-06-10T15:23:12Z</time>
      </trkpt>
      <trkpt lat="48.56007" lon="-3.47855">
        <ele>154</ele>
        <time>2020-06-10T15:23:13Z</time>
      </trkpt>
      <trkpt lat="48.56006" lon="-3.47847">
        <ele>154.5</ele>
        <time>2020-06-10T15:23:14Z</time>
      </trkpt>
      <trkpt lat="48.56006" lon="-3.47839">
        <ele>154.9</ele>
        <time>2020-06-10T15:23:15Z</time>
      </trkpt>
      <trkpt lat="48.56005" lon="-3.47831">
        <ele>155.4</ele>
        <time>2020-06-10T15:23:16Z</time>
      </trkpt>
      <trkpt lat="48.56004" lon="-3.47825">
        <ele>155.8</ele>
        <time>2020-06-10T15:23:17Z</time>
      </trkpt>
      <trkpt lat="48.56004" lon="-3.47819">
        <ele>156.2</ele>
        <time>2020-06-10T15:23:18Z</time>
      </trkpt>
      <trkpt lat="48.56003" lon="-3.47814">
        <ele>156.6</ele>
        <time>2020-06-10T15:23:19Z</time>
      </trkpt>
      <trkpt lat="48.56003" lon="-3.47809">
        <ele>156.9</ele>
        <time>2020-06-10T15:23:20Z</time>
      </trkpt>
      <trkpt lat="48.56002" lon="-3.47804">
        <ele>157.2</ele>
        <time>2020-06-10T15:23:21Z</time>
      </trkpt>
      <trkpt lat="48.56002" lon="-3.478">
        <ele>157.5</ele>
        <time>2020-06-10T15:23:22Z</time>
      </trkpt>
      <trkpt lat="48.56001" lon="-3.47796">
        <ele>157.9</ele>
        <time>2020-06-10T15:23:23Z</time>
      </trkpt>
      <trkpt lat="48.56001" lon="-3.47791">
        <ele>158.3</ele>
        <time>2020-06-10T15:23:24Z</time>
      </trkpt>
      <trkpt lat="48.56" lon="-3.47786">
        <ele>158.8</ele>
        <time>2020-06-10T15:23:25Z</time>
      </trkpt>
      <trkpt lat="48.56" lon="-3.47784">
        <ele>158.9</ele>
        <time>2020-06-10T15:23:26Z</time>
      </trkpt>
      <trkpt lat="48.55999" lon="-3.4778">
        <ele>159.2</ele>
        <time>2020-06-10T15:23:27Z</time>
      </trkpt>
      <trkpt lat="48.55998" lon="-3.47774">
        <ele>159.7</ele>
        <time>2020-06-10T15:23:28Z</time>
      </trkpt>
      <trkpt lat="48.55998" lon="-3.47772">
        <ele>159.9</ele>
        <time>2020-06-10T15:23:29Z</time>
      </trkpt>
      <trkpt lat="48.55997" lon="-3.47767">
        <ele>160.3</ele>
        <time>2020-06-10T15:23:30Z</time>
      </trkpt>
      <trkpt lat="48.55997" lon="-3.47765">
        <ele>160.4</ele>
        <time>2020-06-10T15:23:31Z</time>
      </trkpt>
      <trkpt lat="48.55996" lon="-3.4776">
        <ele>160.8</ele>
        <time>2020-06-10T15:23:32Z</time>
      </trkpt>
      <trkpt lat="48.55995" lon="-3.47755">
        <ele>161.2</ele>
        <time>2020-06-10T15:23:33Z</time>
      </trkpt>
      <trkpt lat="48.55994" lon="-3.47748">
        <ele>161.8</ele>
        <time>2020-06-10T15:23:34Z</time>
      </trkpt>
      <trkpt lat="48.55994" lon="-3.47745">
        <ele>162</ele>
        <time>2020-06-10T15:23:35Z</time>
      </trkpt>
      <trkpt lat="48.55993" lon="-3.47741">
        <ele>162.3</ele>
        <time>2020-06-10T15:23:36Z</time>
      </trkpt>
      <trkpt lat="48.55993" lon="-3.47736">
        <ele>162.7</ele>
        <time>2020-06-10T15:23:37Z</time>
      </trkpt>
      <trkpt lat="48.55993" lon="-3.47734">
        <ele>162.8</ele>
        <time>2020-06-10T15:23:38Z</time>
      </trkpt>
      <trkpt lat="48.55992" lon="-3.4773">
        <ele>163.1</ele>
        <time>2020-06-10T15:23:39Z</time>
      </trkpt>
      <trkpt lat="48.55992" lon="-3.47728">
        <ele>163.3</ele>
        <time>2020-06-10T15:23:40Z</time>
      </trkpt>
      <trkpt lat="48.55992" lon="-3.47725">
        <ele>163.5</ele>
        <time>2020-06-10T15:23:41Z</time>
      </trkpt>
      <trkpt lat="48.55991" lon="-3.47723">
        <ele>163.6</ele>
        <time>2020-06-10T15:23:42Z</time>
      </trkpt>
      <trkpt lat="48.55991" lon="-3.47718">
        <ele>164</ele>
        <time>2020-06-10T15:23:43Z</time>
      </trkpt>
      <trkpt lat="48.5599" lon="-3.47716">
        <ele>164.2</ele>
        <time>2020-06-10T15:23:44Z</time>
      </trkpt>
      <trkpt lat="48.5599" lon="-3.47712">
        <ele>164.4</ele>
        <time>2020-06-10T15:23:45Z</time>
      </trkpt>
      <trkpt lat="48.55989" lon="-3.4771">
        <ele>164.5</ele>
        <time>2020-06-10T15:23:46Z</time>
      </trkpt>
      <trkpt lat="48.55989" lon="-3.47709">
        <ele>164.7</ele>
        <time>2020-06-10T15:23:47Z</time>
      </trkpt>
      <trkpt lat="48.55989" lon="-3.47706">
        <ele>164.9</ele>
        <time>2020-06-10T15:23:48Z</time>
      </trkpt>
      <trkpt lat="48.55988" lon="-3.47701">
        <ele>165.2</ele>
        <time>2020-06-10T15:23:49Z</time>
      </trkpt>
      <trkpt lat="48.55988" lon="-3.477">
        <ele>165.3</ele>
        <time>2020-06-10T15:23:50Z</time>
      </trkpt>
      <trkpt lat="48.55987" lon="-3.47693">
        <ele>165.8</ele>
        <time>2020-06-10T15:23:51Z</time>
      </trkpt>
      <trkpt lat="48.55987" lon="-3.47691">
        <ele>166</ele>
        <time>2020-06-10T15:23:52Z</time>
      </trkpt>
      <trkpt lat="48.55986" lon="-3.47685">
        <ele>166.4</ele>
        <time>2020-06-10T15:23:53Z</time>
      </trkpt>
      <trkpt lat="48.55986" lon="-3.47683">
        <ele>166.5</ele>
        <time>2020-06-10T15:23:54Z</time>
      </trkpt>
      <trkpt lat="48.55986" lon="-3.47681">
        <ele>166.6</ele>
        <time>2020-06-10T15:23:55Z</time>
      </trkpt>
      <trkpt lat="48.55985" lon="-3.47679">
        <ele>166.8</ele>
        <time>2020-06-10T15:23:56Z</time>
      </trkpt>
      <trkpt lat="48.55985" lon="-3.47674">
        <ele>167.2</ele>
        <time>2020-06-10T15:23:57Z</time>
      </trkpt>
      <trkpt lat="48.55984" lon="-3.47672">
        <ele>167.3</ele>
        <time>2020-06-10T15:23:58Z</time>
      </trkpt>
      <trkpt lat="48.55983" lon="-3.47666">
        <ele>167.7</ele>
        <time>2020-06-10T15:23:59Z</time>
      </trkpt>
      <trkpt lat="48.55983" lon="-3.47663">
        <ele>167.9</ele>
        <time>2020-06-10T15:24:00Z</time>
      </trkpt>
      <trkpt lat="48.55982" lon="-3.47659">
        <ele>168.2</ele>
        <time>2020-06-10T15:24:01Z</time>
      </trkpt>
      <trkpt lat="48.55981" lon="-3.47653">
        <ele>168.6</ele>
        <time>2020-06-10T15:24:02Z</time>
      </trkpt>
      <trkpt lat="48.55981" lon="-3.47652">
        <ele>168.7</ele>
        <time>2020-06-10T15:24:03Z</time>
      </trkpt>
      <trkpt lat="48.5598" lon="-3.47647">
        <ele>169.1</ele>
        <time>2020-06-10T15:24:04Z</time>
      </trkpt>
      <trkpt lat="48.5598" lon="-3.47646">
        <ele>169.2</ele>
        <time>2020-06-10T15:24:05Z</time>
      </trkpt>
      <trkpt lat="48.55979" lon="-3.47641">
        <ele>169.6</ele>
        <time>2020-06-10T15:24:06Z</time>
      </trkpt>
      <trkpt lat="48.55979" lon="-3.47638">
        <ele>169.7</ele>
        <time>2020-06-10T15:24:07Z</time>
      </trkpt>
      <trkpt lat="48.55978" lon="-3.47633">
        <ele>170.1</ele>
        <time>2020-06-10T15:24:08Z</time>
      </trkpt>
      <trkpt lat="48.55978" lon="-3.47632">
        <ele>170.2</ele>
        <time>2020-06-10T15:24:09Z</time>
      </trkpt>
      <trkpt lat="48.55978" lon="-3.47628">
        <ele>170.5</ele>
        <time>2020-06-10T15:24:10Z</time>
      </trkpt>
      <trkpt lat="48.55978" lon="-3.47626">
        <ele>170.6</ele>
        <time>2020-06-10T15:24:11Z</time>
      </trkpt>
      <trkpt lat="48.55978" lon="-3.47621">
        <ele>171</ele>
        <time>2020-06-10T15:24:12Z</time>
      </trkpt>
      <trkpt lat="48.55977" lon="-3.47619">
        <ele>171.1</ele>
        <time>2020-06-10T15:24:13Z</time>
      </trkpt>
      <trkpt lat="48.55977" lon="-3.47616">
        <ele>171.3</ele>
        <time>2020-06-10T15:24:14Z</time>
      </trkpt>
      <trkpt lat="48.55977" lon="-3.47614">
        <ele>171.4</ele>
        <time>2020-06-10T15:24:15Z</time>
      </trkpt>
      <trkpt lat="48.55977" lon="-3.47613">
        <ele>171.5</ele>
        <time>2020-06-10T15:24:16Z</time>
      </trkpt>
      <trkpt lat="48.55976" lon="-3.4761">
        <ele>171.7</ele>
        <time>2020-06-10T15:24:17Z</time>
      </trkpt>
      <trkpt lat="48.55976" lon="-3.47605">
        <ele>172</ele>
        <time>2020-06-10T15:24:18Z</time>
      </trkpt>
      <trkpt lat="48.55976" lon="-3.47601">
        <ele>172.3</ele>
        <time>2020-06-10T15:24:19Z</time>
      </trkpt>
      <trkpt lat="48.55976" lon="-3.476">
        <ele>172.4</ele>
        <time>2020-06-10T15:24:20Z</time>
      </trkpt>
      <trkpt lat="48.55976" lon="-3.47596">
        <ele>172.7</ele>
        <time>2020-06-10T15:24:21Z</time>
      </trkpt>
      <trkpt lat="48.55975" lon="-3.47594">
        <ele>172.8</ele>
        <time>2020-06-10T15:24:22Z</time>
      </trkpt>
      <trkpt lat="48.55975" lon="-3.47589">
        <ele>173.1</ele>
        <time>2020-06-10T15:24:23Z</time>
      </trkpt>
      <trkpt lat="48.55974" lon="-3.47587">
        <ele>173.2</ele>
        <time>2020-06-10T15:24:24Z</time>
      </trkpt>
      <trkpt lat="48.55974" lon="-3.47582">
        <ele>173.5</ele>
        <time>2020-06-10T15:24:25Z</time>
      </trkpt>
      <trkpt lat="48.55974" lon="-3.47577">
        <ele>173.8</ele>
        <time>2020-06-10T15:24:26Z</time>
      </trkpt>
      <trkpt lat="48.55974" lon="-3.47575">
        <ele>174</ele>
        <time>2020-06-10T15:24:27Z</time>
      </trkpt>
      <trkpt lat="48.55974" lon="-3.47569">
        <ele>174.3</ele>
        <time>2020-06-10T15:24:28Z</time>
      </trkpt>
      <trkpt lat="48.55974" lon="-3.47568">
        <ele>174.4</ele>
        <time>2020-06-10T15:24:29Z</time>
      </trkpt>
      <trkpt lat="48.55974" lon="-3.47562">
        <ele>174.7</ele>
        <time>2020-06-10T15:24:30Z</time>
      </trkpt>
      <trkpt lat="48.55973" lon="-3.47561">
        <ele>174.8</ele>
        <time>2020-06-10T15:24:31Z</time>
      </trkpt>
      <trkpt lat="48.55973" lon="-3.47555">
        <ele>175.1</ele>
        <time>2020-06-10T15:24:32Z</time>
      </trkpt>
      <trkpt lat="48.55972" lon="-3.47553">
        <ele>175.2</ele>
        <time>2020-06-10T15:24:33Z</time>
      </trkpt>
      <trkpt lat="48.55971" lon="-3.47548">
        <ele>175.5</ele>
        <time>2020-06-10T15:24:34Z</time>
      </trkpt>
      <trkpt lat="48.55971" lon="-3.47546">
        <ele>175.5</ele>
        <time>2020-06-10T15:24:35Z</time>
      </trkpt>
      <trkpt lat="48.55971" lon="-3.47541">
        <ele>175.7</ele>
        <time>2020-06-10T15:24:36Z</time>
      </trkpt>
      <trkpt lat="48.5597" lon="-3.47536">
        <ele>175.9</ele>
        <time>2020-06-10T15:24:37Z</time>
      </trkpt>
      <trkpt lat="48.5597" lon="-3.47531">
        <ele>176.1</ele>
        <time>2020-06-10T15:24:38Z</time>
      </trkpt>
      <trkpt lat="48.55969" lon="-3.47527">
        <ele>176.2</ele>
        <time>2020-06-10T15:24:39Z</time>
      </trkpt>
      <trkpt lat="48.55969" lon="-3.47522">
        <ele>176.3</ele>
        <time>2020-06-10T15:24:40Z</time>
      </trkpt>
      <trkpt lat="48.55968" lon="-3.47518">
        <ele>176.5</ele>
        <time>2020-06-10T15:24:41Z</time>
      </trkpt>
      <trkpt lat="48.55968" lon="-3.47517">
        <ele>176.5</ele>
        <time>2020-06-10T15:24:42Z</time>
      </trkpt>
      <trkpt lat="48.55968" lon="-3.47512">
        <ele>176.7</ele>
        <time>2020-06-10T15:24:43Z</time>
      </trkpt>
      <trkpt lat="48.55968" lon="-3.47511">
        <ele>176.7</ele>
        <time>2020-06-10T15:24:44Z</time>
      </trkpt>
      <trkpt lat="48.55967" lon="-3.47507">
        <ele>176.8</ele>
        <time>2020-06-10T15:24:45Z</time>
      </trkpt>
      <trkpt lat="48.55967" lon="-3.47505">
        <ele>176.9</ele>
        <time>2020-06-10T15:24:46Z</time>
      </trkpt>
      <trkpt lat="48.55966" lon="-3.47501">
        <ele>177</ele>
        <time>2020-06-10T15:24:47Z</time>
      </trkpt>
      <trkpt lat="48.55966" lon="-3.475">
        <ele>177.1</ele>
        <time>2020-06-10T15:24:48Z</time>
      </trkpt>
      <trkpt lat="48.55966" lon="-3.47495">
        <ele>177.2</ele>
        <time>2020-06-10T15:24:49Z</time>
      </trkpt>
      <trkpt lat="48.55966" lon="-3.47494">
        <ele>177.2</ele>
        <time>2020-06-10T15:24:50Z</time>
      </trkpt>
      <trkpt lat="48.55965" lon="-3.47493">
        <ele>177.3</ele>
        <time>2020-06-10T15:24:51Z</time>
      </trkpt>
      <trkpt lat="48.55965" lon="-3.4749">
        <ele>177.3</ele>
        <time>2020-06-10T15:24:52Z</time>
      </trkpt>
      <trkpt lat="48.55965" lon="-3.47485">
        <ele>177.5</ele>
        <time>2020-06-10T15:24:53Z</time>
      </trkpt>
      <trkpt lat="48.55965" lon="-3.47483">
        <ele>177.5</ele>
        <time>2020-06-10T15:24:54Z</time>
      </trkpt>
      <trkpt lat="48.55964" lon="-3.47478">
        <ele>177.6</ele>
        <time>2020-06-10T15:24:55Z</time>
      </trkpt>
      <trkpt lat="48.55964" lon="-3.47476">
        <ele>177.6</ele>
        <time>2020-06-10T15:24:56Z</time>
      </trkpt>
      <trkpt lat="48.55964" lon="-3.4747">
        <ele>177.7</ele>
        <time>2020-06-10T15:24:57Z</time>
      </trkpt>
      <trkpt lat="48.55963" lon="-3.47468">
        <ele>177.8</ele>
        <time>2020-06-10T15:24:58Z</time>
      </trkpt>
      <trkpt lat="48.55963" lon="-3.47463">
        <ele>177.9</ele>
        <time>2020-06-10T15:24:59Z</time>
      </trkpt>
      <trkpt lat="48.55963" lon="-3.47461">
        <ele>177.9</ele>
        <time>2020-06-10T15:25:00Z</time>
      </trkpt>
      <trkpt lat="48.55962" lon="-3.47457">
        <ele>178</ele>
        <time>2020-06-10T15:25:01Z</time>
      </trkpt>
      <trkpt lat="48.55962" lon="-3.47453">
        <ele>178.1</ele>
        <time>2020-06-10T15:25:02Z</time>
      </trkpt>
      <trkpt lat="48.55962" lon="-3.47451">
        <ele>178.1</ele>
        <time>2020-06-10T15:25:03Z</time>
      </trkpt>
      <trkpt lat="48.55961" lon="-3.47444">
        <ele>178.2</ele>
        <time>2020-06-10T15:25:04Z</time>
      </trkpt>
      <trkpt lat="48.55961" lon="-3.47439">
        <ele>178.2</ele>
        <time>2020-06-10T15:25:05Z</time>
      </trkpt>
      <trkpt lat="48.5596" lon="-3.47437">
        <ele>178.3</ele>
        <time>2020-06-10T15:25:06Z</time>
      </trkpt>
      <trkpt lat="48.5596" lon="-3.47431">
        <ele>178.3</ele>
        <time>2020-06-10T15:25:07Z</time>
      </trkpt>
      <trkpt lat="48.55959" lon="-3.47429">
        <ele>178.3</ele>
        <time>2020-06-10T15:25:08Z</time>
      </trkpt>
      <trkpt lat="48.55959" lon="-3.47424">
        <ele>178.4</ele>
        <time>2020-06-10T15:25:09Z</time>
      </trkpt>
      <trkpt lat="48.55959" lon="-3.47422">
        <ele>178.4</ele>
        <time>2020-06-10T15:25:10Z</time>
      </trkpt>
      <trkpt lat="48.55958" lon="-3.47417">
        <ele>178.4</ele>
        <time>2020-06-10T15:25:11Z</time>
      </trkpt>
      <trkpt lat="48.55958" lon="-3.47415">
        <ele>178.4</ele>
        <time>2020-06-10T15:25:12Z</time>
      </trkpt>
      <trkpt lat="48.55958" lon="-3.47411">
        <ele>178.5</ele>
        <time>2020-06-10T15:25:13Z</time>
      </trkpt>
      <trkpt lat="48.55958" lon="-3.47407">
        <ele>178.5</ele>
        <time>2020-06-10T15:25:14Z</time>
      </trkpt>
      <trkpt lat="48.55958" lon="-3.47405">
        <ele>178.5</ele>
        <time>2020-06-10T15:25:15Z</time>
      </trkpt>
      <trkpt lat="48.55958" lon="-3.47401">
        <ele>178.5</ele>
        <time>2020-06-10T15:25:16Z</time>
      </trkpt>
      <trkpt lat="48.55958" lon="-3.47396">
        <ele>178.5</ele>
        <time>2020-06-10T15:25:17Z</time>
      </trkpt>
      <trkpt lat="48.55957" lon="-3.47391">
        <ele>178.5</ele>
        <time>2020-06-10T15:25:18Z</time>
      </trkpt>
      <trkpt lat="48.55956" lon="-3.47386">
        <ele>178.5</ele>
        <time>2020-06-10T15:25:19Z</time>
      </trkpt>
      <trkpt lat="48.55957" lon="-3.47386">
        <ele>178.5</ele>
        <time>2020-06-10T15:25:20Z</time>
      </trkpt>
      <trkpt lat="48.55956" lon="-3.47382">
        <ele>178.5</ele>
        <time>2020-06-10T15:25:21Z</time>
      </trkpt>
      <trkpt lat="48.55956" lon="-3.47378">
        <ele>178.5</ele>
        <time>2020-06-10T15:25:22Z</time>
      </trkpt>
      <trkpt lat="48.55955" lon="-3.47373">
        <ele>178.5</ele>
        <time>2020-06-10T15:25:23Z</time>
      </trkpt>
      <trkpt lat="48.55955" lon="-3.47368">
        <ele>178.4</ele>
        <time>2020-06-10T15:25:24Z</time>
      </trkpt>
      <trkpt lat="48.55955" lon="-3.47365">
        <ele>178.4</ele>
        <time>2020-06-10T15:25:25Z</time>
      </trkpt>
      <trkpt lat="48.55954" lon="-3.4736">
        <ele>178.4</ele>
        <time>2020-06-10T15:25:26Z</time>
      </trkpt>
      <trkpt lat="48.55954" lon="-3.47359">
        <ele>178.4</ele>
        <time>2020-06-10T15:25:27Z</time>
      </trkpt>
      <trkpt lat="48.55953" lon="-3.47354">
        <ele>178.3</ele>
        <time>2020-06-10T15:25:28Z</time>
      </trkpt>
      <trkpt lat="48.55953" lon="-3.47352">
        <ele>178.3</ele>
        <time>2020-06-10T15:25:29Z</time>
      </trkpt>
      <trkpt lat="48.55953" lon="-3.47347">
        <ele>178.3</ele>
        <time>2020-06-10T15:25:30Z</time>
      </trkpt>
      <trkpt lat="48.55953" lon="-3.47346">
        <ele>178.3</ele>
        <time>2020-06-10T15:25:31Z</time>
      </trkpt>
      <trkpt lat="48.55952" lon="-3.47341">
        <ele>178.3</ele>
        <time>2020-06-10T15:25:32Z</time>
      </trkpt>
      <trkpt lat="48.55952" lon="-3.47337">
        <ele>178.2</ele>
        <time>2020-06-10T15:25:33Z</time>
      </trkpt>
      <trkpt lat="48.55951" lon="-3.47331">
        <ele>178.2</ele>
        <time>2020-06-10T15:25:34Z</time>
      </trkpt>
      <trkpt lat="48.5595" lon="-3.47326">
        <ele>178.2</ele>
        <time>2020-06-10T15:25:35Z</time>
      </trkpt>
      <trkpt lat="48.5595" lon="-3.47321">
        <ele>178.1</ele>
        <time>2020-06-10T15:25:36Z</time>
      </trkpt>
      <trkpt lat="48.5595" lon="-3.47319">
        <ele>178.1</ele>
        <time>2020-06-10T15:25:37Z</time>
      </trkpt>
      <trkpt lat="48.55949" lon="-3.47312">
        <ele>178.1</ele>
        <time>2020-06-10T15:25:38Z</time>
      </trkpt>
      <trkpt lat="48.55949" lon="-3.4731">
        <ele>178.1</ele>
        <time>2020-06-10T15:25:39Z</time>
      </trkpt>
      <trkpt lat="48.55949" lon="-3.47304">
        <ele>178</ele>
        <time>2020-06-10T15:25:40Z</time>
      </trkpt>
      <trkpt lat="48.55949" lon="-3.47302">
        <ele>178</ele>
        <time>2020-06-10T15:25:41Z</time>
      </trkpt>
      <trkpt lat="48.55948" lon="-3.47297">
        <ele>178</ele>
        <time>2020-06-10T15:25:42Z</time>
      </trkpt>
      <trkpt lat="48.55948" lon="-3.4729">
        <ele>178</ele>
        <time>2020-06-10T15:25:43Z</time>
      </trkpt>
      <trkpt lat="48.55948" lon="-3.47288">
        <ele>177.9</ele>
        <time>2020-06-10T15:25:44Z</time>
      </trkpt>
      <trkpt lat="48.55947" lon="-3.47281">
        <ele>177.9</ele>
        <time>2020-06-10T15:25:45Z</time>
      </trkpt>
      <trkpt lat="48.55947" lon="-3.47274">
        <ele>177.9</ele>
        <time>2020-06-10T15:25:46Z</time>
      </trkpt>
      <trkpt lat="48.55946" lon="-3.47267">
        <ele>177.9</ele>
        <time>2020-06-10T15:25:47Z</time>
      </trkpt>
      <trkpt lat="48.55945" lon="-3.47261">
        <ele>177.9</ele>
        <time>2020-06-10T15:25:48Z</time>
      </trkpt>
      <trkpt lat="48.55945" lon="-3.47253">
        <ele>177.9</ele>
        <time>2020-06-10T15:25:49Z</time>
      </trkpt>
      <trkpt lat="48.55944" lon="-3.47246">
        <ele>177.9</ele>
        <time>2020-06-10T15:25:50Z</time>
      </trkpt>
      <trkpt lat="48.55943" lon="-3.47238">
        <ele>177.9</ele>
        <time>2020-06-10T15:25:51Z</time>
      </trkpt>
      <trkpt lat="48.55943" lon="-3.4723">
        <ele>178</ele>
        <time>2020-06-10T15:25:52Z</time>
      </trkpt>
      <trkpt lat="48.55942" lon="-3.47223">
        <ele>178</ele>
        <time>2020-06-10T15:25:53Z</time>
      </trkpt>
      <trkpt lat="48.55942" lon="-3.47215">
        <ele>178</ele>
        <time>2020-06-10T15:25:54Z</time>
      </trkpt>
      <trkpt lat="48.55942" lon="-3.47207">
        <ele>178.1</ele>
        <time>2020-06-10T15:25:55Z</time>
      </trkpt>
      <trkpt lat="48.55941" lon="-3.47198">
        <ele>178.1</ele>
        <time>2020-06-10T15:25:56Z</time>
      </trkpt>
      <trkpt lat="48.5594" lon="-3.47188">
        <ele>178.1</ele>
        <time>2020-06-10T15:25:57Z</time>
      </trkpt>
      <trkpt lat="48.5594" lon="-3.47178">
        <ele>178.1</ele>
        <time>2020-06-10T15:25:58Z</time>
      </trkpt>
      <trkpt lat="48.55939" lon="-3.47168">
        <ele>178.2</ele>
        <time>2020-06-10T15:25:59Z</time>
      </trkpt>
      <trkpt lat="48.55938" lon="-3.47162">
        <ele>178.2</ele>
        <time>2020-06-10T15:26:00Z</time>
      </trkpt>
      <trkpt lat="48.55937" lon="-3.47153">
        <ele>178.3</ele>
        <time>2020-06-10T15:26:01Z</time>
      </trkpt>
      <trkpt lat="48.55937" lon="-3.47148">
        <ele>178.4</ele>
        <time>2020-06-10T15:26:02Z</time>
      </trkpt>
      <trkpt lat="48.55936" lon="-3.47139">
        <ele>178.6</ele>
        <time>2020-06-10T15:26:03Z</time>
      </trkpt>
      <trkpt lat="48.55935" lon="-3.47132">
        <ele>178.7</ele>
        <time>2020-06-10T15:26:04Z</time>
      </trkpt>
      <trkpt lat="48.55935" lon="-3.47123">
        <ele>178.9</ele>
        <time>2020-06-10T15:26:05Z</time>
      </trkpt>
      <trkpt lat="48.55934" lon="-3.47117">
        <ele>179</ele>
        <time>2020-06-10T15:26:06Z</time>
      </trkpt>
      <trkpt lat="48.55933" lon="-3.4711">
        <ele>179.2</ele>
        <time>2020-06-10T15:26:07Z</time>
      </trkpt>
      <trkpt lat="48.55933" lon="-3.47102">
        <ele>179.4</ele>
        <time>2020-06-10T15:26:08Z</time>
      </trkpt>
      <trkpt lat="48.55932" lon="-3.47097">
        <ele>179.6</ele>
        <time>2020-06-10T15:26:09Z</time>
      </trkpt>
      <trkpt lat="48.55931" lon="-3.4709">
        <ele>179.8</ele>
        <time>2020-06-10T15:26:10Z</time>
      </trkpt>
      <trkpt lat="48.5593" lon="-3.47083">
        <ele>180</ele>
        <time>2020-06-10T15:26:11Z</time>
      </trkpt>
      <trkpt lat="48.5593" lon="-3.47075">
        <ele>180.3</ele>
        <time>2020-06-10T15:26:12Z</time>
      </trkpt>
      <trkpt lat="48.55929" lon="-3.47071">
        <ele>180.4</ele>
        <time>2020-06-10T15:26:13Z</time>
      </trkpt>
      <trkpt lat="48.55929" lon="-3.47065">
        <ele>180.6</ele>
        <time>2020-06-10T15:26:14Z</time>
      </trkpt>
      <trkpt lat="48.55928" lon="-3.47058">
        <ele>180.8</ele>
        <time>2020-06-10T15:26:15Z</time>
      </trkpt>
      <trkpt lat="48.55927" lon="-3.4705">
        <ele>181.1</ele>
        <time>2020-06-10T15:26:16Z</time>
      </trkpt>
      <trkpt lat="48.55927" lon="-3.47043">
        <ele>181.3</ele>
        <time>2020-06-10T15:26:17Z</time>
      </trkpt>
      <trkpt lat="48.55926" lon="-3.47037">
        <ele>181.5</ele>
        <time>2020-06-10T15:26:18Z</time>
      </trkpt>
      <trkpt lat="48.55926" lon="-3.47031">
        <ele>181.7</ele>
        <time>2020-06-10T15:26:19Z</time>
      </trkpt>
      <trkpt lat="48.55925" lon="-3.47024">
        <ele>181.9</ele>
        <time>2020-06-10T15:26:20Z</time>
      </trkpt>
      <trkpt lat="48.55925" lon="-3.4702">
        <ele>182</ele>
        <time>2020-06-10T15:26:21Z</time>
      </trkpt>
      <trkpt lat="48.55924" lon="-3.47015">
        <ele>182.2</ele>
        <time>2020-06-10T15:26:22Z</time>
      </trkpt>
      <trkpt lat="48.55924" lon="-3.47008">
        <ele>182.5</ele>
        <time>2020-06-10T15:26:23Z</time>
      </trkpt>
      <trkpt lat="48.55923" lon="-3.47001">
        <ele>182.8</ele>
        <time>2020-06-10T15:26:24Z</time>
      </trkpt>
      <trkpt lat="48.55923" lon="-3.46995">
        <ele>183</ele>
        <time>2020-06-10T15:26:25Z</time>
      </trkpt>
      <trkpt lat="48.55923" lon="-3.4699">
        <ele>183.3</ele>
        <time>2020-06-10T15:26:26Z</time>
      </trkpt>
      <trkpt lat="48.55922" lon="-3.46982">
        <ele>183.6</ele>
        <time>2020-06-10T15:26:27Z</time>
      </trkpt>
      <trkpt lat="48.55921" lon="-3.46977">
        <ele>183.9</ele>
        <time>2020-06-10T15:26:28Z</time>
      </trkpt>
      <trkpt lat="48.55921" lon="-3.4697">
        <ele>184.2</ele>
        <time>2020-06-10T15:26:29Z</time>
      </trkpt>
      <trkpt lat="48.5592" lon="-3.46963">
        <ele>184.5</ele>
        <time>2020-06-10T15:26:30Z</time>
      </trkpt>
      <trkpt lat="48.5592" lon="-3.46957">
        <ele>184.8</ele>
        <time>2020-06-10T15:26:31Z</time>
      </trkpt>
      <trkpt lat="48.5592" lon="-3.46951">
        <ele>185.1</ele>
        <time>2020-06-10T15:26:32Z</time>
      </trkpt>
      <trkpt lat="48.55919" lon="-3.46947">
        <ele>185.3</ele>
        <time>2020-06-10T15:26:33Z</time>
      </trkpt>
      <trkpt lat="48.55919" lon="-3.46941">
        <ele>185.6</ele>
        <time>2020-06-10T15:26:34Z</time>
      </trkpt>
      <trkpt lat="48.55918" lon="-3.46935">
        <ele>186</ele>
        <time>2020-06-10T15:26:35Z</time>
      </trkpt>
      <trkpt lat="48.55918" lon="-3.46928">
        <ele>186.3</ele>
        <time>2020-06-10T15:26:36Z</time>
      </trkpt>
      <trkpt lat="48.55917" lon="-3.46926">
        <ele>186.5</ele>
        <time>2020-06-10T15:26:37Z</time>
      </trkpt>
      <trkpt lat="48.55917" lon="-3.46921">
        <ele>186.7</ele>
        <time>2020-06-10T15:26:38Z</time>
      </trkpt>
      <trkpt lat="48.55916" lon="-3.46914">
        <ele>187.1</ele>
        <time>2020-06-10T15:26:39Z</time>
      </trkpt>
      <trkpt lat="48.55915" lon="-3.46911">
        <ele>187.3</ele>
        <time>2020-06-10T15:26:40Z</time>
      </trkpt>
      <trkpt lat="48.55914" lon="-3.46907">
        <ele>187.6</ele>
        <time>2020-06-10T15:26:41Z</time>
      </trkpt>
      <trkpt lat="48.55913" lon="-3.46903">
        <ele>187.8</ele>
        <time>2020-06-10T15:26:42Z</time>
      </trkpt>
      <trkpt lat="48.55913" lon="-3.46898">
        <ele>188.1</ele>
        <time>2020-06-10T15:26:43Z</time>
      </trkpt>
      <trkpt lat="48.55912" lon="-3.46893">
        <ele>188.4</ele>
        <time>2020-06-10T15:26:44Z</time>
      </trkpt>
      <trkpt lat="48.55911" lon="-3.46887">
        <ele>188.7</ele>
        <time>2020-06-10T15:26:45Z</time>
      </trkpt>
      <trkpt lat="48.55911" lon="-3.46881">
        <ele>189.1</ele>
        <time>2020-06-10T15:26:46Z</time>
      </trkpt>
      <trkpt lat="48.5591" lon="-3.4688">
        <ele>189.2</ele>
        <time>2020-06-10T15:26:47Z</time>
      </trkpt>
      <trkpt lat="48.5591" lon="-3.46875">
        <ele>189.5</ele>
        <time>2020-06-10T15:26:48Z</time>
      </trkpt>
      <trkpt lat="48.5591" lon="-3.4687">
        <ele>189.7</ele>
        <time>2020-06-10T15:26:49Z</time>
      </trkpt>
      <trkpt lat="48.5591" lon="-3.46864">
        <ele>189.9</ele>
        <time>2020-06-10T15:26:50Z</time>
      </trkpt>
      <trkpt lat="48.55909" lon="-3.4686">
        <ele>190.1</ele>
        <time>2020-06-10T15:26:51Z</time>
      </trkpt>
      <trkpt lat="48.55909" lon="-3.46855">
        <ele>190.3</ele>
        <time>2020-06-10T15:26:52Z</time>
      </trkpt>
      <trkpt lat="48.55908" lon="-3.4685">
        <ele>190.5</ele>
        <time>2020-06-10T15:26:53Z</time>
      </trkpt>
      <trkpt lat="48.55907" lon="-3.46844">
        <ele>190.8</ele>
        <time>2020-06-10T15:26:54Z</time>
      </trkpt>
      <trkpt lat="48.55907" lon="-3.46842">
        <ele>190.8</ele>
        <time>2020-06-10T15:26:55Z</time>
      </trkpt>
      <trkpt lat="48.55906" lon="-3.46837">
        <ele>191.4</ele>
        <time>2020-06-10T15:26:56Z</time>
      </trkpt>
      <trkpt lat="48.55906" lon="-3.46833">
        <ele>191.7</ele>
        <time>2020-06-10T15:26:57Z</time>
      </trkpt>
      <trkpt lat="48.55906" lon="-3.46827">
        <ele>192.1</ele>
        <time>2020-06-10T15:26:58Z</time>
      </trkpt>
      <trkpt lat="48.55906" lon="-3.46825">
        <ele>192.2</ele>
        <time>2020-06-10T15:26:59Z</time>
      </trkpt>
      <trkpt lat="48.55906" lon="-3.4682">
        <ele>192.6</ele>
        <time>2020-06-10T15:27:00Z</time>
      </trkpt>
      <trkpt lat="48.55906" lon="-3.46815">
        <ele>192.9</ele>
        <time>2020-06-10T15:27:01Z</time>
      </trkpt>
      <trkpt lat="48.55906" lon="-3.46814">
        <ele>193</ele>
        <time>2020-06-10T15:27:02Z</time>
      </trkpt>
      <trkpt lat="48.55905" lon="-3.46808">
        <ele>193.4</ele>
        <time>2020-06-10T15:27:03Z</time>
      </trkpt>
      <trkpt lat="48.55905" lon="-3.46807">
        <ele>193.5</ele>
        <time>2020-06-10T15:27:04Z</time>
      </trkpt>
      <trkpt lat="48.55904" lon="-3.46802">
        <ele>193.9</ele>
        <time>2020-06-10T15:27:05Z</time>
      </trkpt>
      <trkpt lat="48.55904" lon="-3.46801">
        <ele>194</ele>
        <time>2020-06-10T15:27:06Z</time>
      </trkpt>
      <trkpt lat="48.55904" lon="-3.46796">
        <ele>194.3</ele>
        <time>2020-06-10T15:27:07Z</time>
      </trkpt>
      <trkpt lat="48.55903" lon="-3.46795">
        <ele>194.4</ele>
        <time>2020-06-10T15:27:08Z</time>
      </trkpt>
      <trkpt lat="48.55903" lon="-3.4679">
        <ele>194.8</ele>
        <time>2020-06-10T15:27:09Z</time>
      </trkpt>
      <trkpt lat="48.55903" lon="-3.46788">
        <ele>195</ele>
        <time>2020-06-10T15:27:10Z</time>
      </trkpt>
      <trkpt lat="48.55902" lon="-3.46786">
        <ele>195.2</ele>
        <time>2020-06-10T15:27:11Z</time>
      </trkpt>
      <trkpt lat="48.55902" lon="-3.46784">
        <ele>195.3</ele>
        <time>2020-06-10T15:27:12Z</time>
      </trkpt>
      <trkpt lat="48.55901" lon="-3.46779">
        <ele>195.7</ele>
        <time>2020-06-10T15:27:13Z</time>
      </trkpt>
      <trkpt lat="48.55901" lon="-3.46777">
        <ele>195.8</ele>
        <time>2020-06-10T15:27:14Z</time>
      </trkpt>
      <trkpt lat="48.559" lon="-3.46773">
        <ele>196.2</ele>
        <time>2020-06-10T15:27:15Z</time>
      </trkpt>
      <trkpt lat="48.559" lon="-3.46771">
        <ele>196.3</ele>
        <time>2020-06-10T15:27:16Z</time>
      </trkpt>
      <trkpt lat="48.559" lon="-3.46765">
        <ele>196.8</ele>
        <time>2020-06-10T15:27:17Z</time>
      </trkpt>
      <trkpt lat="48.55899" lon="-3.46763">
        <ele>196.9</ele>
        <time>2020-06-10T15:27:18Z</time>
      </trkpt>
      <trkpt lat="48.55898" lon="-3.46758">
        <ele>197.4</ele>
        <time>2020-06-10T15:27:19Z</time>
      </trkpt>
      <trkpt lat="48.55898" lon="-3.46757">
        <ele>197.5</ele>
        <time>2020-06-10T15:27:20Z</time>
      </trkpt>
      <trkpt lat="48.55897" lon="-3.46753">
        <ele>197.8</ele>
        <time>2020-06-10T15:27:21Z</time>
      </trkpt>
      <trkpt lat="48.55897" lon="-3.46751">
        <ele>197.9</ele>
        <time>2020-06-10T15:27:22Z</time>
      </trkpt>
      <trkpt lat="48.55897" lon="-3.46749">
        <ele>198.1</ele>
        <time>2020-06-10T15:27:23Z</time>
      </trkpt>
      <trkpt lat="48.55897" lon="-3.46746">
        <ele>198.3</ele>
        <time>2020-06-10T15:27:24Z</time>
      </trkpt>
      <trkpt lat="48.55897" lon="-3.46743">
        <ele>198.6</ele>
        <time>2020-06-10T15:27:25Z</time>
      </trkpt>
      <trkpt lat="48.55897" lon="-3.46742">
        <ele>198.7</ele>
        <time>2020-06-10T15:27:26Z</time>
      </trkpt>
      <trkpt lat="48.55897" lon="-3.4674">
        <ele>198.8</ele>
        <time>2020-06-10T15:27:27Z</time>
      </trkpt>
      <trkpt lat="48.55897" lon="-3.46738">
        <ele>199</ele>
        <time>2020-06-10T15:27:28Z</time>
      </trkpt>
      <trkpt lat="48.55897" lon="-3.46735">
        <ele>199.2</ele>
        <time>2020-06-10T15:27:29Z</time>
      </trkpt>
      <trkpt lat="48.55896" lon="-3.4673">
        <ele>199.6</ele>
        <time>2020-06-10T15:27:30Z</time>
      </trkpt>
      <trkpt lat="48.55896" lon="-3.46729">
        <ele>199.7</ele>
        <time>2020-06-10T15:27:31Z</time>
      </trkpt>
      <trkpt lat="48.55896" lon="-3.46727">
        <ele>199.8</ele>
        <time>2020-06-10T15:27:32Z</time>
      </trkpt>
      <trkpt lat="48.55896" lon="-3.46724">
        <ele>200.1</ele>
        <time>2020-06-10T15:27:33Z</time>
      </trkpt>
      <trkpt lat="48.55895" lon="-3.46719">
        <ele>200.5</ele>
        <time>2020-06-10T15:27:34Z</time>
      </trkpt>
      <trkpt lat="48.55895" lon="-3.46718">
        <ele>200.6</ele>
        <time>2020-06-10T15:27:35Z</time>
      </trkpt>
      <trkpt lat="48.55895" lon="-3.46716">
        <ele>200.8</ele>
        <time>2020-06-10T15:27:36Z</time>
      </trkpt>
      <trkpt lat="48.55895" lon="-3.46713">
        <ele>200.9</ele>
        <time>2020-06-10T15:27:37Z</time>
      </trkpt>
      <trkpt lat="48.55895" lon="-3.46711">
        <ele>201.1</ele>
        <time>2020-06-10T15:27:38Z</time>
      </trkpt>
      <trkpt lat="48.55895" lon="-3.46709">
        <ele>201.3</ele>
        <time>2020-06-10T15:27:39Z</time>
      </trkpt>
      <trkpt lat="48.55895" lon="-3.46705">
        <ele>201.6</ele>
        <time>2020-06-10T15:27:40Z</time>
      </trkpt>
      <trkpt lat="48.55895" lon="-3.46703">
        <ele>201.7</ele>
        <time>2020-06-10T15:27:41Z</time>
      </trkpt>
      <trkpt lat="48.55894" lon="-3.467">
        <ele>202</ele>
        <time>2020-06-10T15:27:42Z</time>
      </trkpt>
      <trkpt lat="48.55894" lon="-3.46699">
        <ele>202.1</ele>
        <time>2020-06-10T15:27:43Z</time>
      </trkpt>
      <trkpt lat="48.55894" lon="-3.46697">
        <ele>202.2</ele>
        <time>2020-06-10T15:27:44Z</time>
      </trkpt>
      <trkpt lat="48.55893" lon="-3.46693">
        <ele>202.6</ele>
        <time>2020-06-10T15:27:45Z</time>
      </trkpt>
      <trkpt lat="48.55893" lon="-3.46691">
        <ele>202.7</ele>
        <time>2020-06-10T15:27:46Z</time>
      </trkpt>
      <trkpt lat="48.55893" lon="-3.46689">
        <ele>202.9</ele>
        <time>2020-06-10T15:27:47Z</time>
      </trkpt>
      <trkpt lat="48.55892" lon="-3.46687">
        <ele>203.1</ele>
        <time>2020-06-10T15:27:48Z</time>
      </trkpt>
      <trkpt lat="48.55892" lon="-3.46684">
        <ele>203.3</ele>
        <time>2020-06-10T15:27:49Z</time>
      </trkpt>
      <trkpt lat="48.55892" lon="-3.46682">
        <ele>203.5</ele>
        <time>2020-06-10T15:27:50Z</time>
      </trkpt>
      <trkpt lat="48.55892" lon="-3.46681">
        <ele>203.6</ele>
        <time>2020-06-10T15:27:51Z</time>
      </trkpt>
      <trkpt lat="48.55892" lon="-3.46676">
        <ele>204</ele>
        <time>2020-06-10T15:27:52Z</time>
      </trkpt>
      <trkpt lat="48.55891" lon="-3.46675">
        <ele>204.1</ele>
        <time>2020-06-10T15:27:53Z</time>
      </trkpt>
      <trkpt lat="48.55891" lon="-3.46672">
        <ele>204.3</ele>
        <time>2020-06-10T15:27:54Z</time>
      </trkpt>
      <trkpt lat="48.55891" lon="-3.46669">
        <ele>204.5</ele>
        <time>2020-06-10T15:27:55Z</time>
      </trkpt>
      <trkpt lat="48.5589" lon="-3.46665">
        <ele>204.8</ele>
        <time>2020-06-10T15:27:56Z</time>
      </trkpt>
      <trkpt lat="48.5589" lon="-3.46664">
        <ele>204.9</ele>
        <time>2020-06-10T15:27:57Z</time>
      </trkpt>
      <trkpt lat="48.5589" lon="-3.46659">
        <ele>205.2</ele>
        <time>2020-06-10T15:27:58Z</time>
      </trkpt>
      <trkpt lat="48.55889" lon="-3.46657">
        <ele>205.3</ele>
        <time>2020-06-10T15:27:59Z</time>
      </trkpt>
      <trkpt lat="48.55889" lon="-3.46653">
        <ele>205.6</ele>
        <time>2020-06-10T15:28:00Z</time>
      </trkpt>
      <trkpt lat="48.55889" lon="-3.46651">
        <ele>205.8</ele>
        <time>2020-06-10T15:28:01Z</time>
      </trkpt>
      <trkpt lat="48.55889" lon="-3.46649">
        <ele>206</ele>
        <time>2020-06-10T15:28:02Z</time>
      </trkpt>
      <trkpt lat="48.55889" lon="-3.46646">
        <ele>206.2</ele>
        <time>2020-06-10T15:28:03Z</time>
      </trkpt>
      <trkpt lat="48.55888" lon="-3.46642">
        <ele>206.4</ele>
        <time>2020-06-10T15:28:04Z</time>
      </trkpt>
      <trkpt lat="48.55888" lon="-3.4664">
        <ele>206.6</ele>
        <time>2020-06-10T15:28:05Z</time>
      </trkpt>
      <trkpt lat="48.55888" lon="-3.46639">
        <ele>206.6</ele>
        <time>2020-06-10T15:28:06Z</time>
      </trkpt>
      <trkpt lat="48.55888" lon="-3.46636">
        <ele>206.8</ele>
        <time>2020-06-10T15:28:07Z</time>
      </trkpt>
      <trkpt lat="48.55887" lon="-3.46631">
        <ele>207.1</ele>
        <time>2020-06-10T15:28:08Z</time>
      </trkpt>
      <trkpt lat="48.55887" lon="-3.4663">
        <ele>207.2</ele>
        <time>2020-06-10T15:28:09Z</time>
      </trkpt>
      <trkpt lat="48.55887" lon="-3.46626">
        <ele>207.5</ele>
        <time>2020-06-10T15:28:10Z</time>
      </trkpt>
      <trkpt lat="48.55887" lon="-3.46624">
        <ele>207.6</ele>
        <time>2020-06-10T15:28:11Z</time>
      </trkpt>
      <trkpt lat="48.55886" lon="-3.46619">
        <ele>208</ele>
        <time>2020-06-10T15:28:12Z</time>
      </trkpt>
      <trkpt lat="48.55886" lon="-3.46618">
        <ele>208.1</ele>
        <time>2020-06-10T15:28:13Z</time>
      </trkpt>
      <trkpt lat="48.55885" lon="-3.46612">
        <ele>208.4</ele>
        <time>2020-06-10T15:28:14Z</time>
      </trkpt>
      <trkpt lat="48.55885" lon="-3.46611">
        <ele>208.6</ele>
        <time>2020-06-10T15:28:15Z</time>
      </trkpt>
      <trkpt lat="48.55884" lon="-3.46606">
        <ele>208.9</ele>
        <time>2020-06-10T15:28:16Z</time>
      </trkpt>
      <trkpt lat="48.55884" lon="-3.46605">
        <ele>208.9</ele>
        <time>2020-06-10T15:28:17Z</time>
      </trkpt>
      <trkpt lat="48.55883" lon="-3.466">
        <ele>209.3</ele>
        <time>2020-06-10T15:28:18Z</time>
      </trkpt>
      <trkpt lat="48.55883" lon="-3.46599">
        <ele>209.4</ele>
        <time>2020-06-10T15:28:19Z</time>
      </trkpt>
      <trkpt lat="48.55883" lon="-3.46594">
        <ele>209.7</ele>
        <time>2020-06-10T15:28:20Z</time>
      </trkpt>
      <trkpt lat="48.55882" lon="-3.46593">
        <ele>209.8</ele>
        <time>2020-06-10T15:28:21Z</time>
      </trkpt>
      <trkpt lat="48.55882" lon="-3.46591">
        <ele>209.9</ele>
        <time>2020-06-10T15:28:22Z</time>
      </trkpt>
      <trkpt lat="48.55882" lon="-3.46588">
        <ele>210.1</ele>
        <time>2020-06-10T15:28:23Z</time>
      </trkpt>
      <trkpt lat="48.55882" lon="-3.46587">
        <ele>210.2</ele>
        <time>2020-06-10T15:28:24Z</time>
      </trkpt>
      <trkpt lat="48.55881" lon="-3.46584">
        <ele>210.4</ele>
        <time>2020-06-10T15:28:25Z</time>
      </trkpt>
      <trkpt lat="48.55881" lon="-3.4658">
        <ele>210.7</ele>
        <time>2020-06-10T15:28:26Z</time>
      </trkpt>
      <trkpt lat="48.55881" lon="-3.46578">
        <ele>210.8</ele>
        <time>2020-06-10T15:28:27Z</time>
      </trkpt>
      <trkpt lat="48.55881" lon="-3.46574">
        <ele>211.1</ele>
        <time>2020-06-10T15:28:28Z</time>
      </trkpt>
      <trkpt lat="48.55881" lon="-3.46572">
        <ele>211.2</ele>
        <time>2020-06-10T15:28:29Z</time>
      </trkpt>
      <trkpt lat="48.5588" lon="-3.46567">
        <ele>211.5</ele>
        <time>2020-06-10T15:28:30Z</time>
      </trkpt>
      <trkpt lat="48.5588" lon="-3.46565">
        <ele>211.6</ele>
        <time>2020-06-10T15:28:31Z</time>
      </trkpt>
      <trkpt lat="48.5588" lon="-3.4656">
        <ele>211.9</ele>
        <time>2020-06-10T15:28:32Z</time>
      </trkpt>
      <trkpt lat="48.5588" lon="-3.46558">
        <ele>212.1</ele>
        <time>2020-06-10T15:28:33Z</time>
      </trkpt>
      <trkpt lat="48.55879" lon="-3.46555">
        <ele>212.2</ele>
        <time>2020-06-10T15:28:34Z</time>
      </trkpt>
      <trkpt lat="48.55879" lon="-3.46553">
        <ele>212.4</ele>
        <time>2020-06-10T15:28:35Z</time>
      </trkpt>
      <trkpt lat="48.55879" lon="-3.46547">
        <ele>212.7</ele>
        <time>2020-06-10T15:28:36Z</time>
      </trkpt>
      <trkpt lat="48.55878" lon="-3.46546">
        <ele>212.8</ele>
        <time>2020-06-10T15:28:37Z</time>
      </trkpt>
      <trkpt lat="48.55877" lon="-3.46544">
        <ele>213</ele>
        <time>2020-06-10T15:28:38Z</time>
      </trkpt>
      <trkpt lat="48.55877" lon="-3.46542">
        <ele>213.1</ele>
        <time>2020-06-10T15:28:39Z</time>
      </trkpt>
      <trkpt lat="48.55876" lon="-3.46537">
        <ele>213.4</ele>
        <time>2020-06-10T15:28:40Z</time>
      </trkpt>
      <trkpt lat="48.55876" lon="-3.46536">
        <ele>213.5</ele>
        <time>2020-06-10T15:28:41Z</time>
      </trkpt>
      <trkpt lat="48.55875" lon="-3.4653">
        <ele>213.9</ele>
        <time>2020-06-10T15:28:42Z</time>
      </trkpt>
      <trkpt lat="48.55875" lon="-3.46528">
        <ele>214</ele>
        <time>2020-06-10T15:28:43Z</time>
      </trkpt>
      <trkpt lat="48.55874" lon="-3.46523">
        <ele>214.3</ele>
        <time>2020-06-10T15:28:44Z</time>
      </trkpt>
      <trkpt lat="48.55874" lon="-3.46521">
        <ele>214.4</ele>
        <time>2020-06-10T15:28:45Z</time>
      </trkpt>
      <trkpt lat="48.55874" lon="-3.46516">
        <ele>214.7</ele>
        <time>2020-06-10T15:28:46Z</time>
      </trkpt>
      <trkpt lat="48.55874" lon="-3.46515">
        <ele>214.8</ele>
        <time>2020-06-10T15:28:47Z</time>
      </trkpt>
      <trkpt lat="48.55874" lon="-3.4651">
        <ele>215.1</ele>
        <time>2020-06-10T15:28:48Z</time>
      </trkpt>
      <trkpt lat="48.55874" lon="-3.46509">
        <ele>215.2</ele>
        <time>2020-06-10T15:28:49Z</time>
      </trkpt>
      <trkpt lat="48.55874" lon="-3.46504">
        <ele>215.5</ele>
        <time>2020-06-10T15:28:50Z</time>
      </trkpt>
      <trkpt lat="48.55874" lon="-3.46502">
        <ele>215.6</ele>
        <time>2020-06-10T15:28:51Z</time>
      </trkpt>
      <trkpt lat="48.55873" lon="-3.46498">
        <ele>215.9</ele>
        <time>2020-06-10T15:28:52Z</time>
      </trkpt>
      <trkpt lat="48.55873" lon="-3.46497">
        <ele>215.9</ele>
        <time>2020-06-10T15:28:53Z</time>
      </trkpt>
      <trkpt lat="48.55873" lon="-3.46492">
        <ele>216.2</ele>
        <time>2020-06-10T15:28:54Z</time>
      </trkpt>
      <trkpt lat="48.55872" lon="-3.46489">
        <ele>216.3</ele>
        <time>2020-06-10T15:28:55Z</time>
      </trkpt>
      <trkpt lat="48.55872" lon="-3.46485">
        <ele>216.6</ele>
        <time>2020-06-10T15:28:56Z</time>
      </trkpt>
      <trkpt lat="48.55871" lon="-3.46483">
        <ele>216.7</ele>
        <time>2020-06-10T15:28:57Z</time>
      </trkpt>
      <trkpt lat="48.55871" lon="-3.46477">
        <ele>217</ele>
        <time>2020-06-10T15:28:58Z</time>
      </trkpt>
      <trkpt lat="48.5587" lon="-3.46475">
        <ele>217.1</ele>
        <time>2020-06-10T15:28:59Z</time>
      </trkpt>
      <trkpt lat="48.5587" lon="-3.46469">
        <ele>217.4</ele>
        <time>2020-06-10T15:29:00Z</time>
      </trkpt>
      <trkpt lat="48.55869" lon="-3.46467">
        <ele>217.6</ele>
        <time>2020-06-10T15:29:01Z</time>
      </trkpt>
      <trkpt lat="48.55869" lon="-3.46461">
        <ele>217.9</ele>
        <time>2020-06-10T15:29:02Z</time>
      </trkpt>
      <trkpt lat="48.55869" lon="-3.46459">
        <ele>217.9</ele>
        <time>2020-06-10T15:29:03Z</time>
      </trkpt>
      <trkpt lat="48.55869" lon="-3.46457">
        <ele>218.1</ele>
        <time>2020-06-10T15:29:04Z</time>
      </trkpt>
      <trkpt lat="48.55868" lon="-3.46454">
        <ele>218.2</ele>
        <time>2020-06-10T15:29:05Z</time>
      </trkpt>
      <trkpt lat="48.55867" lon="-3.46449">
        <ele>218.4</ele>
        <time>2020-06-10T15:29:06Z</time>
      </trkpt>
      <trkpt lat="48.55867" lon="-3.46447">
        <ele>218.5</ele>
        <time>2020-06-10T15:29:07Z</time>
      </trkpt>
      <trkpt lat="48.55866" lon="-3.46442">
        <ele>218.7</ele>
        <time>2020-06-10T15:29:08Z</time>
      </trkpt>
      <trkpt lat="48.55866" lon="-3.4644">
        <ele>218.8</ele>
        <time>2020-06-10T15:29:09Z</time>
      </trkpt>
      <trkpt lat="48.55866" lon="-3.46435">
        <ele>218.9</ele>
        <time>2020-06-10T15:29:10Z</time>
      </trkpt>
      <trkpt lat="48.55866" lon="-3.46433">
        <ele>219</ele>
        <time>2020-06-10T15:29:11Z</time>
      </trkpt>
      <trkpt lat="48.55865" lon="-3.46428">
        <ele>219.2</ele>
        <time>2020-06-10T15:29:12Z</time>
      </trkpt>
      <trkpt lat="48.55865" lon="-3.46426">
        <ele>219.2</ele>
        <time>2020-06-10T15:29:13Z</time>
      </trkpt>
      <trkpt lat="48.55865" lon="-3.46421">
        <ele>219.4</ele>
        <time>2020-06-10T15:29:14Z</time>
      </trkpt>
      <trkpt lat="48.55865" lon="-3.46415">
        <ele>219.5</ele>
        <time>2020-06-10T15:29:15Z</time>
      </trkpt>
      <trkpt lat="48.55865" lon="-3.46413">
        <ele>219.6</ele>
        <time>2020-06-10T15:29:16Z</time>
      </trkpt>
      <trkpt lat="48.55864" lon="-3.46409">
        <ele>219.7</ele>
        <time>2020-06-10T15:29:17Z</time>
      </trkpt>
      <trkpt lat="48.55864" lon="-3.46404">
        <ele>219.8</ele>
        <time>2020-06-10T15:29:18Z</time>
      </trkpt>
      <trkpt lat="48.55864" lon="-3.46404">
        <ele>219.9</ele>
        <time>2020-06-10T15:29:19Z</time>
      </trkpt>
      <trkpt lat="48.55864" lon="-3.46403">
        <ele>219.9</ele>
        <time>2020-06-10T15:29:20Z</time>
      </trkpt>
      <trkpt lat="48.55864" lon="-3.46398">
        <ele>220</ele>
        <time>2020-06-10T15:29:21Z</time>
      </trkpt>
      <trkpt lat="48.55863" lon="-3.46394">
        <ele>220.1</ele>
        <time>2020-06-10T15:29:22Z</time>
      </trkpt>
      <trkpt lat="48.55862" lon="-3.46388">
        <ele>220.2</ele>
        <time>2020-06-10T15:29:23Z</time>
      </trkpt>
      <trkpt lat="48.55861" lon="-3.46387">
        <ele>220.6</ele>
        <time>2020-06-10T15:29:24Z</time>
      </trkpt>
      <trkpt lat="48.55861" lon="-3.46384">
        <ele>220.6</ele>
        <time>2020-06-10T15:29:25Z</time>
      </trkpt>
      <trkpt lat="48.5586" lon="-3.46382">
        <ele>220.5</ele>
        <time>2020-06-10T15:29:26Z</time>
      </trkpt>
      <trkpt lat="48.5586" lon="-3.46381">
        <ele>220.5</ele>
        <time>2020-06-10T15:29:27Z</time>
      </trkpt>
      <trkpt lat="48.55859" lon="-3.46378">
        <ele>220.4</ele>
        <time>2020-06-10T15:29:28Z</time>
      </trkpt>
      <trkpt lat="48.55859" lon="-3.46377">
        <ele>220.4</ele>
        <time>2020-06-10T15:29:29Z</time>
      </trkpt>
      <trkpt lat="48.55859" lon="-3.46375">
        <ele>220.4</ele>
        <time>2020-06-10T15:29:30Z</time>
      </trkpt>
      <trkpt lat="48.55859" lon="-3.46373">
        <ele>220.4</ele>
        <time>2020-06-10T15:29:31Z</time>
      </trkpt>
      <trkpt lat="48.55859" lon="-3.46371">
        <ele>220.3</ele>
        <time>2020-06-10T15:29:32Z</time>
      </trkpt>
      <trkpt lat="48.55858" lon="-3.4637">
        <ele>220.3</ele>
        <time>2020-06-10T15:29:33Z</time>
      </trkpt>
      <trkpt lat="48.55858" lon="-3.46368">
        <ele>220.3</ele>
        <time>2020-06-10T15:29:34Z</time>
      </trkpt>
      <trkpt lat="48.55858" lon="-3.46367">
        <ele>220.2</ele>
        <time>2020-06-10T15:29:35Z</time>
      </trkpt>
      <trkpt lat="48.55858" lon="-3.46367">
        <ele>220.2</ele>
        <time>2020-06-10T15:29:36Z</time>
      </trkpt>
      <trkpt lat="48.55858" lon="-3.46367">
        <ele>220.2</ele>
        <time>2020-06-10T15:29:37Z</time>
      </trkpt>
      <trkpt lat="48.55858" lon="-3.46367">
        <ele>220.2</ele>
        <time>2020-06-10T15:29:38Z</time>
      </trkpt>
      <trkpt lat="48.55858" lon="-3.46368">
        <ele>220.2</ele>
        <time>2020-06-10T15:29:39Z</time>
      </trkpt>
      <trkpt lat="48.55858" lon="-3.46368">
        <ele>220.2</ele>
        <time>2020-06-10T15:29:40Z</time>
      </trkpt>
      <trkpt lat="48.55858" lon="-3.46366">
        <ele>220.1</ele>
        <time>2020-06-10T15:29:41Z</time>
      </trkpt>
      <trkpt lat="48.55858" lon="-3.46366">
        <ele>220.1</ele>
        <time>2020-06-10T15:29:42Z</time>
      </trkpt>
      <trkpt lat="48.55858" lon="-3.46365">
        <ele>220.1</ele>
        <time>2020-06-10T15:29:43Z</time>
      </trkpt>
      <trkpt lat="48.55858" lon="-3.46365">
        <ele>220.1</ele>
        <time>2020-06-10T15:29:44Z</time>
      </trkpt>
      <trkpt lat="48.55857" lon="-3.46366">
        <ele>220.1</ele>
        <time>2020-06-10T15:29:45Z</time>
      </trkpt>
      <trkpt lat="48.55856" lon="-3.46367">
        <ele>220</ele>
        <time>2020-06-10T15:29:46Z</time>
      </trkpt>
      <trkpt lat="48.55857" lon="-3.46359">
        <ele>219.8</ele>
        <time>2020-06-10T15:34:24Z</time>
      </trkpt>
      <trkpt lat="48.55856" lon="-3.46355">
        <ele>219.7</ele>
        <time>2020-06-10T15:34:25Z</time>
      </trkpt>
      <trkpt lat="48.55856" lon="-3.4635">
        <ele>219.5</ele>
        <time>2020-06-10T15:34:26Z</time>
      </trkpt>
      <trkpt lat="48.55856" lon="-3.46345">
        <ele>219.4</ele>
        <time>2020-06-10T15:34:27Z</time>
      </trkpt>
      <trkpt lat="48.55855" lon="-3.46339">
        <ele>219.2</ele>
        <time>2020-06-10T15:34:28Z</time>
      </trkpt>
      <trkpt lat="48.55854" lon="-3.46334">
        <ele>219</ele>
        <time>2020-06-10T15:34:29Z</time>
      </trkpt>
      <trkpt lat="48.55854" lon="-3.46327">
        <ele>218.7</ele>
        <time>2020-06-10T15:34:30Z</time>
      </trkpt>
      <trkpt lat="48.55854" lon="-3.4632">
        <ele>218.4</ele>
        <time>2020-06-10T15:34:31Z</time>
      </trkpt>
      <trkpt lat="48.55853" lon="-3.46312">
        <ele>218</ele>
        <time>2020-06-10T15:34:32Z</time>
      </trkpt>
      <trkpt lat="48.55853" lon="-3.46303">
        <ele>217.6</ele>
        <time>2020-06-10T15:34:33Z</time>
      </trkpt>
      <trkpt lat="48.55852" lon="-3.46294">
        <ele>217.2</ele>
        <time>2020-06-10T15:34:34Z</time>
      </trkpt>
      <trkpt lat="48.5585" lon="-3.46285">
        <ele>216.7</ele>
        <time>2020-06-10T15:34:35Z</time>
      </trkpt>
      <trkpt lat="48.55849" lon="-3.46274">
        <ele>216.2</ele>
        <time>2020-06-10T15:34:36Z</time>
      </trkpt>
      <trkpt lat="48.55848" lon="-3.46263">
        <ele>215.7</ele>
        <time>2020-06-10T15:34:37Z</time>
      </trkpt>
      <trkpt lat="48.55848" lon="-3.46251">
        <ele>215.1</ele>
        <time>2020-06-10T15:34:38Z</time>
      </trkpt>
      <trkpt lat="48.55847" lon="-3.46237">
        <ele>214.4</ele>
        <time>2020-06-10T15:34:39Z</time>
      </trkpt>
      <trkpt lat="48.55846" lon="-3.46223">
        <ele>213.6</ele>
        <time>2020-06-10T15:34:40Z</time>
      </trkpt>
      <trkpt lat="48.55845" lon="-3.46208">
        <ele>212.9</ele>
        <time>2020-06-10T15:34:41Z</time>
      </trkpt>
      <trkpt lat="48.55844" lon="-3.46194">
        <ele>212.1</ele>
        <time>2020-06-10T15:34:42Z</time>
      </trkpt>
      <trkpt lat="48.55842" lon="-3.46178">
        <ele>211.2</ele>
        <time>2020-06-10T15:34:43Z</time>
      </trkpt>
      <trkpt lat="48.55841" lon="-3.46163">
        <ele>210.3</ele>
        <time>2020-06-10T15:34:44Z</time>
      </trkpt>
      <trkpt lat="48.5584" lon="-3.46147">
        <ele>209.3</ele>
        <time>2020-06-10T15:34:45Z</time>
      </trkpt>
      <trkpt lat="48.55839" lon="-3.46131">
        <ele>208.2</ele>
        <time>2020-06-10T15:34:46Z</time>
      </trkpt>
      <trkpt lat="48.55838" lon="-3.46114">
        <ele>207.1</ele>
        <time>2020-06-10T15:34:47Z</time>
      </trkpt>
      <trkpt lat="48.55837" lon="-3.46096">
        <ele>206</ele>
        <time>2020-06-10T15:34:48Z</time>
      </trkpt>
      <trkpt lat="48.55835" lon="-3.46078">
        <ele>204.9</ele>
        <time>2020-06-10T15:34:49Z</time>
      </trkpt>
      <trkpt lat="48.55833" lon="-3.4606">
        <ele>203.7</ele>
        <time>2020-06-10T15:34:50Z</time>
      </trkpt>
      <trkpt lat="48.55831" lon="-3.46042">
        <ele>202.6</ele>
        <time>2020-06-10T15:34:51Z</time>
      </trkpt>
      <trkpt lat="48.5583" lon="-3.46023">
        <ele>201.6</ele>
        <time>2020-06-10T15:34:52Z</time>
      </trkpt>
      <trkpt lat="48.55828" lon="-3.46004">
        <ele>200.5</ele>
        <time>2020-06-10T15:34:53Z</time>
      </trkpt>
      <trkpt lat="48.55826" lon="-3.45985">
        <ele>199.5</ele>
        <time>2020-06-10T15:34:54Z</time>
      </trkpt>
      <trkpt lat="48.55824" lon="-3.45965">
        <ele>198.3</ele>
        <time>2020-06-10T15:34:55Z</time>
      </trkpt>
      <trkpt lat="48.55823" lon="-3.45946">
        <ele>197.2</ele>
        <time>2020-06-10T15:34:56Z</time>
      </trkpt>
      <trkpt lat="48.5582" lon="-3.45927">
        <ele>196.3</ele>
        <time>2020-06-10T15:34:57Z</time>
      </trkpt>
      <trkpt lat="48.55818" lon="-3.45908">
        <ele>195.4</ele>
        <time>2020-06-10T15:34:58Z</time>
      </trkpt>
      <trkpt lat="48.55816" lon="-3.45889">
        <ele>194.6</ele>
        <time>2020-06-10T15:34:59Z</time>
      </trkpt>
      <trkpt lat="48.55814" lon="-3.4587">
        <ele>194</ele>
        <time>2020-06-10T15:35:00Z</time>
      </trkpt>
      <trkpt lat="48.55812" lon="-3.45851">
        <ele>193.4</ele>
        <time>2020-06-10T15:35:01Z</time>
      </trkpt>
      <trkpt lat="48.5581" lon="-3.45832">
        <ele>193.1</ele>
        <time>2020-06-10T15:35:02Z</time>
      </trkpt>
      <trkpt lat="48.55808" lon="-3.45814">
        <ele>192.8</ele>
        <time>2020-06-10T15:35:03Z</time>
      </trkpt>
      <trkpt lat="48.55806" lon="-3.45797">
        <ele>192.6</ele>
        <time>2020-06-10T15:35:04Z</time>
      </trkpt>
      <trkpt lat="48.55805" lon="-3.4578">
        <ele>192.5</ele>
        <time>2020-06-10T15:35:05Z</time>
      </trkpt>
      <trkpt lat="48.55804" lon="-3.45763">
        <ele>191.9</ele>
        <time>2020-06-10T15:35:06Z</time>
      </trkpt>
      <trkpt lat="48.55802" lon="-3.45746">
        <ele>191.5</ele>
        <time>2020-06-10T15:35:07Z</time>
      </trkpt>
      <trkpt lat="48.55801" lon="-3.45729">
        <ele>191.2</ele>
        <time>2020-06-10T15:35:08Z</time>
      </trkpt>
      <trkpt lat="48.55799" lon="-3.45713">
        <ele>191</ele>
        <time>2020-06-10T15:35:09Z</time>
      </trkpt>
      <trkpt lat="48.55798" lon="-3.45697">
        <ele>190.8</ele>
        <time>2020-06-10T15:35:10Z</time>
      </trkpt>
      <trkpt lat="48.55796" lon="-3.4568">
        <ele>190.7</ele>
        <time>2020-06-10T15:35:11Z</time>
      </trkpt>
      <trkpt lat="48.55795" lon="-3.45664">
        <ele>190.6</ele>
        <time>2020-06-10T15:35:12Z</time>
      </trkpt>
      <trkpt lat="48.55794" lon="-3.45649">
        <ele>190.5</ele>
        <time>2020-06-10T15:35:13Z</time>
      </trkpt>
      <trkpt lat="48.55792" lon="-3.45633">
        <ele>190.4</ele>
        <time>2020-06-10T15:35:14Z</time>
      </trkpt>
      <trkpt lat="48.55791" lon="-3.45617">
        <ele>190.4</ele>
        <time>2020-06-10T15:35:15Z</time>
      </trkpt>
      <trkpt lat="48.55789" lon="-3.45601">
        <ele>190.3</ele>
        <time>2020-06-10T15:35:16Z</time>
      </trkpt>
      <trkpt lat="48.55788" lon="-3.45585">
        <ele>190.3</ele>
        <time>2020-06-10T15:35:17Z</time>
      </trkpt>
      <trkpt lat="48.55787" lon="-3.45569">
        <ele>190.2</ele>
        <time>2020-06-10T15:35:18Z</time>
      </trkpt>
      <trkpt lat="48.55785" lon="-3.45554">
        <ele>190.2</ele>
        <time>2020-06-10T15:35:19Z</time>
      </trkpt>
      <trkpt lat="48.55784" lon="-3.45539">
        <ele>190.1</ele>
        <time>2020-06-10T15:35:20Z</time>
      </trkpt>
      <trkpt lat="48.55783" lon="-3.45524">
        <ele>190</ele>
        <time>2020-06-10T15:35:21Z</time>
      </trkpt>
      <trkpt lat="48.55782" lon="-3.45509">
        <ele>190</ele>
        <time>2020-06-10T15:35:22Z</time>
      </trkpt>
      <trkpt lat="48.5578" lon="-3.45494">
        <ele>189.9</ele>
        <time>2020-06-10T15:35:23Z</time>
      </trkpt>
      <trkpt lat="48.55778" lon="-3.45479">
        <ele>190</ele>
        <time>2020-06-10T15:35:24Z</time>
      </trkpt>
      <trkpt lat="48.55777" lon="-3.45464">
        <ele>190</ele>
        <time>2020-06-10T15:35:25Z</time>
      </trkpt>
      <trkpt lat="48.55775" lon="-3.4545">
        <ele>190</ele>
        <time>2020-06-10T15:35:26Z</time>
      </trkpt>
      <trkpt lat="48.55773" lon="-3.45435">
        <ele>190.1</ele>
        <time>2020-06-10T15:35:27Z</time>
      </trkpt>
      <trkpt lat="48.55772" lon="-3.4542">
        <ele>190.2</ele>
        <time>2020-06-10T15:35:28Z</time>
      </trkpt>
      <trkpt lat="48.55771" lon="-3.45406">
        <ele>190.3</ele>
        <time>2020-06-10T15:35:29Z</time>
      </trkpt>
      <trkpt lat="48.55769" lon="-3.45392">
        <ele>190.5</ele>
        <time>2020-06-10T15:35:30Z</time>
      </trkpt>
      <trkpt lat="48.55768" lon="-3.45378">
        <ele>190.7</ele>
        <time>2020-06-10T15:35:31Z</time>
      </trkpt>
      <trkpt lat="48.55767" lon="-3.45364">
        <ele>191</ele>
        <time>2020-06-10T15:35:32Z</time>
      </trkpt>
      <trkpt lat="48.55765" lon="-3.45351">
        <ele>191.3</ele>
        <time>2020-06-10T15:35:33Z</time>
      </trkpt>
      <trkpt lat="48.55764" lon="-3.45338">
        <ele>191.6</ele>
        <time>2020-06-10T15:35:34Z</time>
      </trkpt>
      <trkpt lat="48.55763" lon="-3.45325">
        <ele>192</ele>
        <time>2020-06-10T15:35:35Z</time>
      </trkpt>
      <trkpt lat="48.55763" lon="-3.45313">
        <ele>192.4</ele>
        <time>2020-06-10T15:35:36Z</time>
      </trkpt>
      <trkpt lat="48.55762" lon="-3.45302">
        <ele>192.8</ele>
        <time>2020-06-10T15:35:37Z</time>
      </trkpt>
      <trkpt lat="48.55761" lon="-3.4529">
        <ele>193.1</ele>
        <time>2020-06-10T15:35:38Z</time>
      </trkpt>
      <trkpt lat="48.5576" lon="-3.4528">
        <ele>193.3</ele>
        <time>2020-06-10T15:35:39Z</time>
      </trkpt>
      <trkpt lat="48.55759" lon="-3.4527">
        <ele>193.4</ele>
        <time>2020-06-10T15:35:40Z</time>
      </trkpt>
      <trkpt lat="48.55758" lon="-3.4526">
        <ele>193.6</ele>
        <time>2020-06-10T15:35:41Z</time>
      </trkpt>
      <trkpt lat="48.55757" lon="-3.4525">
        <ele>193.8</ele>
        <time>2020-06-10T15:35:42Z</time>
      </trkpt>
      <trkpt lat="48.55756" lon="-3.4524">
        <ele>194</ele>
        <time>2020-06-10T15:35:43Z</time>
      </trkpt>
      <trkpt lat="48.55755" lon="-3.4523">
        <ele>194.2</ele>
        <time>2020-06-10T15:35:44Z</time>
      </trkpt>
      <trkpt lat="48.55754" lon="-3.45221">
        <ele>194.5</ele>
        <time>2020-06-10T15:35:45Z</time>
      </trkpt>
      <trkpt lat="48.55752" lon="-3.45212">
        <ele>194.7</ele>
        <time>2020-06-10T15:35:46Z</time>
      </trkpt>
      <trkpt lat="48.55751" lon="-3.45203">
        <ele>195</ele>
        <time>2020-06-10T15:35:47Z</time>
      </trkpt>
      <trkpt lat="48.5575" lon="-3.45195">
        <ele>195.3</ele>
        <time>2020-06-10T15:35:48Z</time>
      </trkpt>
      <trkpt lat="48.5575" lon="-3.45186">
        <ele>195.5</ele>
        <time>2020-06-10T15:35:49Z</time>
      </trkpt>
      <trkpt lat="48.55749" lon="-3.45178">
        <ele>195.8</ele>
        <time>2020-06-10T15:35:50Z</time>
      </trkpt>
      <trkpt lat="48.55748" lon="-3.4517">
        <ele>196</ele>
        <time>2020-06-10T15:35:51Z</time>
      </trkpt>
      <trkpt lat="48.55748" lon="-3.45163">
        <ele>196.3</ele>
        <time>2020-06-10T15:35:52Z</time>
      </trkpt>
      <trkpt lat="48.55747" lon="-3.45155">
        <ele>196.5</ele>
        <time>2020-06-10T15:35:53Z</time>
      </trkpt>
      <trkpt lat="48.55747" lon="-3.45147">
        <ele>196.8</ele>
        <time>2020-06-10T15:35:54Z</time>
      </trkpt>
      <trkpt lat="48.55746" lon="-3.45139">
        <ele>197</ele>
        <time>2020-06-10T15:35:55Z</time>
      </trkpt>
      <trkpt lat="48.55746" lon="-3.45131">
        <ele>197.2</ele>
        <time>2020-06-10T15:35:56Z</time>
      </trkpt>
      <trkpt lat="48.55745" lon="-3.45124">
        <ele>197.4</ele>
        <time>2020-06-10T15:35:57Z</time>
      </trkpt>
      <trkpt lat="48.55744" lon="-3.45117">
        <ele>197.6</ele>
        <time>2020-06-10T15:35:58Z</time>
      </trkpt>
      <trkpt lat="48.55743" lon="-3.45109">
        <ele>197.7</ele>
        <time>2020-06-10T15:35:59Z</time>
      </trkpt>
      <trkpt lat="48.55742" lon="-3.45102">
        <ele>197.9</ele>
        <time>2020-06-10T15:36:00Z</time>
      </trkpt>
      <trkpt lat="48.55742" lon="-3.45095">
        <ele>198</ele>
        <time>2020-06-10T15:36:01Z</time>
      </trkpt>
      <trkpt lat="48.55741" lon="-3.45086">
        <ele>198.2</ele>
        <time>2020-06-10T15:36:02Z</time>
      </trkpt>
      <trkpt lat="48.5574" lon="-3.45078">
        <ele>198.3</ele>
        <time>2020-06-10T15:36:03Z</time>
      </trkpt>
      <trkpt lat="48.55739" lon="-3.45071">
        <ele>198.4</ele>
        <time>2020-06-10T15:36:04Z</time>
      </trkpt>
      <trkpt lat="48.55738" lon="-3.45061">
        <ele>198.6</ele>
        <time>2020-06-10T15:36:05Z</time>
      </trkpt>
      <trkpt lat="48.55737" lon="-3.45055">
        <ele>198.7</ele>
        <time>2020-06-10T15:36:06Z</time>
      </trkpt>
      <trkpt lat="48.55736" lon="-3.45046">
        <ele>198.8</ele>
        <time>2020-06-10T15:36:07Z</time>
      </trkpt>
      <trkpt lat="48.55735" lon="-3.45037">
        <ele>199</ele>
        <time>2020-06-10T15:36:08Z</time>
      </trkpt>
      <trkpt lat="48.55734" lon="-3.4503">
        <ele>199.1</ele>
        <time>2020-06-10T15:36:09Z</time>
      </trkpt>
      <trkpt lat="48.55734" lon="-3.45023">
        <ele>199.2</ele>
        <time>2020-06-10T15:36:10Z</time>
      </trkpt>
      <trkpt lat="48.55733" lon="-3.45014">
        <ele>199.4</ele>
        <time>2020-06-10T15:36:11Z</time>
      </trkpt>
      <trkpt lat="48.55733" lon="-3.45007">
        <ele>199.5</ele>
        <time>2020-06-10T15:36:12Z</time>
      </trkpt>
      <trkpt lat="48.55732" lon="-3.44999">
        <ele>199.5</ele>
        <time>2020-06-10T15:36:13Z</time>
      </trkpt>
      <trkpt lat="48.55732" lon="-3.44992">
        <ele>199.6</ele>
        <time>2020-06-10T15:36:14Z</time>
      </trkpt>
      <trkpt lat="48.55731" lon="-3.44984">
        <ele>199.7</ele>
        <time>2020-06-10T15:36:15Z</time>
      </trkpt>
      <trkpt lat="48.5573" lon="-3.44976">
        <ele>199.7</ele>
        <time>2020-06-10T15:36:16Z</time>
      </trkpt>
      <trkpt lat="48.55729" lon="-3.44968">
        <ele>199.7</ele>
        <time>2020-06-10T15:36:17Z</time>
      </trkpt>
      <trkpt lat="48.55728" lon="-3.44961">
        <ele>199.8</ele>
        <time>2020-06-10T15:36:18Z</time>
      </trkpt>
      <trkpt lat="48.55727" lon="-3.44953">
        <ele>199.8</ele>
        <time>2020-06-10T15:36:19Z</time>
      </trkpt>
      <trkpt lat="48.55727" lon="-3.44946">
        <ele>199.8</ele>
        <time>2020-06-10T15:36:20Z</time>
      </trkpt>
      <trkpt lat="48.55726" lon="-3.44939">
        <ele>199.8</ele>
        <time>2020-06-10T15:36:21Z</time>
      </trkpt>
      <trkpt lat="48.55725" lon="-3.44932">
        <ele>199.9</ele>
        <time>2020-06-10T15:36:22Z</time>
      </trkpt>
      <trkpt lat="48.55725" lon="-3.44925">
        <ele>199.9</ele>
        <time>2020-06-10T15:36:23Z</time>
      </trkpt>
      <trkpt lat="48.55724" lon="-3.44917">
        <ele>200</ele>
        <time>2020-06-10T15:36:24Z</time>
      </trkpt>
      <trkpt lat="48.55723" lon="-3.4491">
        <ele>200.1</ele>
        <time>2020-06-10T15:36:25Z</time>
      </trkpt>
      <trkpt lat="48.55723" lon="-3.44902">
        <ele>200.1</ele>
        <time>2020-06-10T15:36:26Z</time>
      </trkpt>
      <trkpt lat="48.55722" lon="-3.44896">
        <ele>200.1</ele>
        <time>2020-06-10T15:36:27Z</time>
      </trkpt>
      <trkpt lat="48.55722" lon="-3.44889">
        <ele>200.2</ele>
        <time>2020-06-10T15:36:28Z</time>
      </trkpt>
      <trkpt lat="48.55721" lon="-3.44882">
        <ele>200.2</ele>
        <time>2020-06-10T15:36:29Z</time>
      </trkpt>
      <trkpt lat="48.5572" lon="-3.44874">
        <ele>200.1</ele>
        <time>2020-06-10T15:36:30Z</time>
      </trkpt>
      <trkpt lat="48.55719" lon="-3.44868">
        <ele>200.1</ele>
        <time>2020-06-10T15:36:31Z</time>
      </trkpt>
      <trkpt lat="48.55718" lon="-3.4486">
        <ele>200.1</ele>
        <time>2020-06-10T15:36:32Z</time>
      </trkpt>
      <trkpt lat="48.55717" lon="-3.44853">
        <ele>200.1</ele>
        <time>2020-06-10T15:36:33Z</time>
      </trkpt>
      <trkpt lat="48.55716" lon="-3.44845">
        <ele>200.1</ele>
        <time>2020-06-10T15:36:34Z</time>
      </trkpt>
      <trkpt lat="48.55715" lon="-3.44835">
        <ele>200.2</ele>
        <time>2020-06-10T15:36:35Z</time>
      </trkpt>
      <trkpt lat="48.55714" lon="-3.44826">
        <ele>200.2</ele>
        <time>2020-06-10T15:36:36Z</time>
      </trkpt>
      <trkpt lat="48.55713" lon="-3.44817">
        <ele>200.3</ele>
        <time>2020-06-10T15:36:37Z</time>
      </trkpt>
      <trkpt lat="48.55712" lon="-3.44808">
        <ele>200.3</ele>
        <time>2020-06-10T15:36:38Z</time>
      </trkpt>
      <trkpt lat="48.55712" lon="-3.448">
        <ele>200.4</ele>
        <time>2020-06-10T15:36:39Z</time>
      </trkpt>
      <trkpt lat="48.55711" lon="-3.44791">
        <ele>200.5</ele>
        <time>2020-06-10T15:36:40Z</time>
      </trkpt>
      <trkpt lat="48.5571" lon="-3.44783">
        <ele>200.6</ele>
        <time>2020-06-10T15:36:41Z</time>
      </trkpt>
      <trkpt lat="48.55709" lon="-3.44773">
        <ele>200.7</ele>
        <time>2020-06-10T15:36:42Z</time>
      </trkpt>
      <trkpt lat="48.55709" lon="-3.44766">
        <ele>200.7</ele>
        <time>2020-06-10T15:36:43Z</time>
      </trkpt>
      <trkpt lat="48.55708" lon="-3.44759">
        <ele>200.8</ele>
        <time>2020-06-10T15:36:44Z</time>
      </trkpt>
      <trkpt lat="48.55708" lon="-3.44752">
        <ele>200.9</ele>
        <time>2020-06-10T15:36:45Z</time>
      </trkpt>
      <trkpt lat="48.55708" lon="-3.44745">
        <ele>201</ele>
        <time>2020-06-10T15:36:46Z</time>
      </trkpt>
      <trkpt lat="48.55708" lon="-3.44736">
        <ele>201.1</ele>
        <time>2020-06-10T15:36:47Z</time>
      </trkpt>
      <trkpt lat="48.55708" lon="-3.4473">
        <ele>201.2</ele>
        <time>2020-06-10T15:36:48Z</time>
      </trkpt>
      <trkpt lat="48.55708" lon="-3.44723">
        <ele>201.3</ele>
        <time>2020-06-10T15:36:49Z</time>
      </trkpt>
      <trkpt lat="48.55707" lon="-3.44716">
        <ele>201.3</ele>
        <time>2020-06-10T15:36:50Z</time>
      </trkpt>
      <trkpt lat="48.55707" lon="-3.44707">
        <ele>201.1</ele>
        <time>2020-06-10T15:36:51Z</time>
      </trkpt>
      <trkpt lat="48.55707" lon="-3.447">
        <ele>201.1</ele>
        <time>2020-06-10T15:36:52Z</time>
      </trkpt>
      <trkpt lat="48.55707" lon="-3.44693">
        <ele>201.1</ele>
        <time>2020-06-10T15:36:53Z</time>
      </trkpt>
      <trkpt lat="48.55707" lon="-3.44686">
        <ele>201.1</ele>
        <time>2020-06-10T15:36:54Z</time>
      </trkpt>
      <trkpt lat="48.55706" lon="-3.4468">
        <ele>201.1</ele>
        <time>2020-06-10T15:36:55Z</time>
      </trkpt>
      <trkpt lat="48.55704" lon="-3.44672">
        <ele>201.1</ele>
        <time>2020-06-10T15:36:56Z</time>
      </trkpt>
      <trkpt lat="48.55701" lon="-3.44664">
        <ele>201.1</ele>
        <time>2020-06-10T15:36:57Z</time>
      </trkpt>
      <trkpt lat="48.55699" lon="-3.44658">
        <ele>201.2</ele>
        <time>2020-06-10T15:36:58Z</time>
      </trkpt>
      <trkpt lat="48.55697" lon="-3.4465">
        <ele>201.2</ele>
        <time>2020-06-10T15:36:59Z</time>
      </trkpt>
      <trkpt lat="48.55695" lon="-3.44643">
        <ele>201.2</ele>
        <time>2020-06-10T15:37:00Z</time>
      </trkpt>
      <trkpt lat="48.55693" lon="-3.44636">
        <ele>201.2</ele>
        <time>2020-06-10T15:37:01Z</time>
      </trkpt>
      <trkpt lat="48.55692" lon="-3.44631">
        <ele>201.3</ele>
        <time>2020-06-10T15:37:02Z</time>
      </trkpt>
      <trkpt lat="48.5569" lon="-3.44624">
        <ele>201.4</ele>
        <time>2020-06-10T15:37:03Z</time>
      </trkpt>
      <trkpt lat="48.55688" lon="-3.44617">
        <ele>201.6</ele>
        <time>2020-06-10T15:37:04Z</time>
      </trkpt>
      <trkpt lat="48.55685" lon="-3.44609">
        <ele>201.8</ele>
        <time>2020-06-10T15:37:05Z</time>
      </trkpt>
      <trkpt lat="48.55682" lon="-3.44601">
        <ele>202</ele>
        <time>2020-06-10T15:37:06Z</time>
      </trkpt>
      <trkpt lat="48.5568" lon="-3.44595">
        <ele>202.2</ele>
        <time>2020-06-10T15:37:07Z</time>
      </trkpt>
      <trkpt lat="48.55677" lon="-3.44587">
        <ele>202.3</ele>
        <time>2020-06-10T15:37:08Z</time>
      </trkpt>
      <trkpt lat="48.55675" lon="-3.44579">
        <ele>202.5</ele>
        <time>2020-06-10T15:37:09Z</time>
      </trkpt>
      <trkpt lat="48.55672" lon="-3.44572">
        <ele>202.7</ele>
        <time>2020-06-10T15:37:10Z</time>
      </trkpt>
      <trkpt lat="48.5567" lon="-3.44564">
        <ele>203</ele>
        <time>2020-06-10T15:37:11Z</time>
      </trkpt>
      <trkpt lat="48.55668" lon="-3.44557">
        <ele>203</ele>
        <time>2020-06-10T15:37:12Z</time>
      </trkpt>
      <trkpt lat="48.55666" lon="-3.44551">
        <ele>202.9</ele>
        <time>2020-06-10T15:37:13Z</time>
      </trkpt>
      <trkpt lat="48.55663" lon="-3.44544">
        <ele>202.9</ele>
        <time>2020-06-10T15:37:14Z</time>
      </trkpt>
      <trkpt lat="48.55661" lon="-3.44539">
        <ele>202.9</ele>
        <time>2020-06-10T15:37:15Z</time>
      </trkpt>
      <trkpt lat="48.55659" lon="-3.44534">
        <ele>202.9</ele>
        <time>2020-06-10T15:37:16Z</time>
      </trkpt>
      <trkpt lat="48.55657" lon="-3.44528">
        <ele>202.9</ele>
        <time>2020-06-10T15:37:17Z</time>
      </trkpt>
      <trkpt lat="48.55655" lon="-3.44524">
        <ele>203</ele>
        <time>2020-06-10T15:37:18Z</time>
      </trkpt>
      <trkpt lat="48.55653" lon="-3.4452">
        <ele>203.1</ele>
        <time>2020-06-10T15:37:19Z</time>
      </trkpt>
      <trkpt lat="48.5565" lon="-3.44516">
        <ele>203.2</ele>
        <time>2020-06-10T15:37:20Z</time>
      </trkpt>
      <trkpt lat="48.55649" lon="-3.44514">
        <ele>203.2</ele>
        <time>2020-06-10T15:37:21Z</time>
      </trkpt>
      <trkpt lat="48.55648" lon="-3.44513">
        <ele>203.3</ele>
        <time>2020-06-10T15:37:22Z</time>
      </trkpt>
      <trkpt lat="48.55648" lon="-3.44511">
        <ele>203.3</ele>
        <time>2020-06-10T15:37:23Z</time>
      </trkpt>
      <trkpt lat="48.55648" lon="-3.4451">
        <ele>203.3</ele>
        <time>2020-06-10T15:37:24Z</time>
      </trkpt>
      <trkpt lat="48.55647" lon="-3.4451">
        <ele>203.3</ele>
        <time>2020-06-10T15:37:25Z</time>
      </trkpt>
      <trkpt lat="48.55648" lon="-3.4451">
        <ele>203.3</ele>
        <time>2020-06-10T15:37:26Z</time>
      </trkpt>
      <trkpt lat="48.55648" lon="-3.44509">
        <ele>203.3</ele>
        <time>2020-06-10T15:37:27Z</time>
      </trkpt>
      <trkpt lat="48.55648" lon="-3.44509">
        <ele>203.3</ele>
        <time>2020-06-10T15:37:28Z</time>
      </trkpt>
      <trkpt lat="48.55648" lon="-3.44509">
        <ele>203.3</ele>
        <time>2020-06-10T15:37:29Z</time>
      </trkpt>
      <trkpt lat="48.55648" lon="-3.44509">
        <ele>203.3</ele>
        <time>2020-06-10T15:37:30Z</time>
      </trkpt>
      <trkpt lat="48.55648" lon="-3.4451">
        <ele>203.4</ele>
        <time>2020-06-10T15:37:31Z</time>
      </trkpt>
      <trkpt lat="48.55648" lon="-3.4451">
        <ele>203.4</ele>
        <time>2020-06-10T15:37:32Z</time>
      </trkpt>
      <trkpt lat="48.55648" lon="-3.4451">
        <ele>203.4</ele>
        <time>2020-06-10T15:37:33Z</time>
      </trkpt>
      <trkpt lat="48.55648" lon="-3.44511">
        <ele>203.4</ele>
        <time>2020-06-10T15:37:34Z</time>
      </trkpt>
      <trkpt lat="48.55648" lon="-3.4451">
        <ele>203.4</ele>
        <time>2020-06-10T15:37:35Z</time>
      </trkpt>
      <trkpt lat="48.55649" lon="-3.44509">
        <ele>203.4</ele>
        <time>2020-06-10T15:37:36Z</time>
      </trkpt>
      <trkpt lat="48.55649" lon="-3.44507">
        <ele>203.4</ele>
        <time>2020-06-10T15:37:37Z</time>
      </trkpt>
      <trkpt lat="48.55649" lon="-3.44506">
        <ele>203.4</ele>
        <time>2020-06-10T15:37:38Z</time>
      </trkpt>
      <trkpt lat="48.55648" lon="-3.44501">
        <ele>203.5</ele>
        <time>2020-06-10T15:37:39Z</time>
      </trkpt>
      <trkpt lat="48.55647" lon="-3.44497">
        <ele>203.5</ele>
        <time>2020-06-10T15:37:40Z</time>
      </trkpt>
      <trkpt lat="48.55646" lon="-3.44496">
        <ele>203.5</ele>
        <time>2020-06-10T15:37:41Z</time>
      </trkpt>
      <trkpt lat="48.55645" lon="-3.44491">
        <ele>203.5</ele>
        <time>2020-06-10T15:37:42Z</time>
      </trkpt>
      <trkpt lat="48.55644" lon="-3.44486">
        <ele>203.5</ele>
        <time>2020-06-10T15:37:43Z</time>
      </trkpt>
      <trkpt lat="48.55643" lon="-3.44481">
        <ele>203.5</ele>
        <time>2020-06-10T15:37:44Z</time>
      </trkpt>
      <trkpt lat="48.55642" lon="-3.44476">
        <ele>203.5</ele>
        <time>2020-06-10T15:37:45Z</time>
      </trkpt>
      <trkpt lat="48.55642" lon="-3.44475">
        <ele>203.5</ele>
        <time>2020-06-10T15:37:46Z</time>
      </trkpt>
      <trkpt lat="48.55641" lon="-3.44469">
        <ele>203.5</ele>
        <time>2020-06-10T15:37:47Z</time>
      </trkpt>
      <trkpt lat="48.5564" lon="-3.44468">
        <ele>203.4</ele>
        <time>2020-06-10T15:37:48Z</time>
      </trkpt>
      <trkpt lat="48.55639" lon="-3.44464">
        <ele>203.4</ele>
        <time>2020-06-10T15:37:49Z</time>
      </trkpt>
      <trkpt lat="48.55639" lon="-3.44458">
        <ele>203.4</ele>
        <time>2020-06-10T15:37:50Z</time>
      </trkpt>
      <trkpt lat="48.55638" lon="-3.44453">
        <ele>203.3</ele>
        <time>2020-06-10T15:37:51Z</time>
      </trkpt>
      <trkpt lat="48.55636" lon="-3.44449">
        <ele>203.3</ele>
        <time>2020-06-10T15:37:52Z</time>
      </trkpt>
      <trkpt lat="48.55634" lon="-3.44444">
        <ele>203.2</ele>
        <time>2020-06-10T15:37:53Z</time>
      </trkpt>
      <trkpt lat="48.55633" lon="-3.44443">
        <ele>203.2</ele>
        <time>2020-06-10T15:37:54Z</time>
      </trkpt>
      <trkpt lat="48.55633" lon="-3.44443">
        <ele>203.2</ele>
        <time>2020-06-10T15:37:55Z</time>
      </trkpt>
      <trkpt lat="48.55633" lon="-3.44442">
        <ele>203.2</ele>
        <time>2020-06-10T15:37:56Z</time>
      </trkpt>
      <trkpt lat="48.55632" lon="-3.44441">
        <ele>203.2</ele>
        <time>2020-06-10T15:37:57Z</time>
      </trkpt>
      <trkpt lat="48.55632" lon="-3.4444">
        <ele>203.1</ele>
        <time>2020-06-10T15:37:58Z</time>
      </trkpt>
      <trkpt lat="48.55631" lon="-3.4444">
        <ele>203.1</ele>
        <time>2020-06-10T15:37:59Z</time>
      </trkpt>
      <trkpt lat="48.55631" lon="-3.4444">
        <ele>203.1</ele>
        <time>2020-06-10T15:38:00Z</time>
      </trkpt>
      <trkpt lat="48.55631" lon="-3.44441">
        <ele>203.1</ele>
        <time>2020-06-10T15:38:01Z</time>
      </trkpt>
      <trkpt lat="48.55631" lon="-3.44442">
        <ele>203.1</ele>
        <time>2020-06-10T15:38:02Z</time>
      </trkpt>
      <trkpt lat="48.55631" lon="-3.44442">
        <ele>203.1</ele>
        <time>2020-06-10T15:38:03Z</time>
      </trkpt>
      <trkpt lat="48.55631" lon="-3.44442">
        <ele>203.1</ele>
        <time>2020-06-10T15:38:04Z</time>
      </trkpt>
      <trkpt lat="48.55631" lon="-3.44443">
        <ele>203.1</ele>
        <time>2020-06-10T15:38:05Z</time>
      </trkpt>
      <trkpt lat="48.55631" lon="-3.44443">
        <ele>203.1</ele>
        <time>2020-06-10T15:38:06Z</time>
      </trkpt>
      <trkpt lat="48.55631" lon="-3.44443">
        <ele>203.1</ele>
        <time>2020-06-10T15:38:07Z</time>
      </trkpt>
      <trkpt lat="48.55631" lon="-3.44443">
        <ele>203.1</ele>
        <time>2020-06-10T15:38:08Z</time>
      </trkpt>
      <trkpt lat="48.55631" lon="-3.44443">
        <ele>203.1</ele>
        <time>2020-06-10T15:38:09Z</time>
      </trkpt>
      <trkpt lat="48.55622" lon="-3.44437">
        <ele>202.9</ele>
        <time>2020-06-10T15:50:59Z</time>
      </trkpt>
      <trkpt lat="48.55621" lon="-3.44437">
        <ele>202.8</ele>
        <time>2020-06-10T15:51:00Z</time>
      </trkpt>
      <trkpt lat="48.5562" lon="-3.44436">
        <ele>202.8</ele>
        <time>2020-06-10T15:51:01Z</time>
      </trkpt>
      <trkpt lat="48.5562" lon="-3.44434">
        <ele>202.8</ele>
        <time>2020-06-10T15:51:02Z</time>
      </trkpt>
      <trkpt lat="48.5562" lon="-3.4443">
        <ele>202.7</ele>
        <time>2020-06-10T15:51:03Z</time>
      </trkpt>
      <trkpt lat="48.55619" lon="-3.44428">
        <ele>202.7</ele>
        <time>2020-06-10T15:51:04Z</time>
      </trkpt>
      <trkpt lat="48.55618" lon="-3.44424">
        <ele>202.6</ele>
        <time>2020-06-10T15:51:05Z</time>
      </trkpt>
      <trkpt lat="48.55616" lon="-3.4442">
        <ele>202.5</ele>
        <time>2020-06-10T15:51:06Z</time>
      </trkpt>
      <trkpt lat="48.55615" lon="-3.44414">
        <ele>202.4</ele>
        <time>2020-06-10T15:51:07Z</time>
      </trkpt>
      <trkpt lat="48.55614" lon="-3.44412">
        <ele>202.3</ele>
        <time>2020-06-10T15:51:08Z</time>
      </trkpt>
      <trkpt lat="48.55613" lon="-3.44408">
        <ele>202.2</ele>
        <time>2020-06-10T15:51:09Z</time>
      </trkpt>
      <trkpt lat="48.55613" lon="-3.44406">
        <ele>202.2</ele>
        <time>2020-06-10T15:51:10Z</time>
      </trkpt>
      <trkpt lat="48.55612" lon="-3.44401">
        <ele>202.1</ele>
        <time>2020-06-10T15:51:11Z</time>
      </trkpt>
      <trkpt lat="48.55612" lon="-3.44398">
        <ele>202</ele>
        <time>2020-06-10T15:51:12Z</time>
      </trkpt>
      <trkpt lat="48.55611" lon="-3.44393">
        <ele>201.9</ele>
        <time>2020-06-10T15:51:13Z</time>
      </trkpt>
      <trkpt lat="48.5561" lon="-3.44389">
        <ele>201.8</ele>
        <time>2020-06-10T15:51:14Z</time>
      </trkpt>
      <trkpt lat="48.55609" lon="-3.44384">
        <ele>201.7</ele>
        <time>2020-06-10T15:51:15Z</time>
      </trkpt>
      <trkpt lat="48.55608" lon="-3.44382">
        <ele>201.7</ele>
        <time>2020-06-10T15:51:16Z</time>
      </trkpt>
      <trkpt lat="48.55607" lon="-3.44377">
        <ele>201.5</ele>
        <time>2020-06-10T15:51:17Z</time>
      </trkpt>
      <trkpt lat="48.55605" lon="-3.44372">
        <ele>201.3</ele>
        <time>2020-06-10T15:51:18Z</time>
      </trkpt>
      <trkpt lat="48.55603" lon="-3.44368">
        <ele>201.2</ele>
        <time>2020-06-10T15:51:19Z</time>
      </trkpt>
      <trkpt lat="48.55602" lon="-3.44362">
        <ele>201</ele>
        <time>2020-06-10T15:51:20Z</time>
      </trkpt>
      <trkpt lat="48.55602" lon="-3.44359">
        <ele>200.9</ele>
        <time>2020-06-10T15:51:21Z</time>
      </trkpt>
      <trkpt lat="48.556" lon="-3.44354">
        <ele>200.7</ele>
        <time>2020-06-10T15:51:22Z</time>
      </trkpt>
      <trkpt lat="48.55599" lon="-3.44353">
        <ele>200.6</ele>
        <time>2020-06-10T15:51:23Z</time>
      </trkpt>
      <trkpt lat="48.55596" lon="-3.44348">
        <ele>200.4</ele>
        <time>2020-06-10T15:51:24Z</time>
      </trkpt>
      <trkpt lat="48.55594" lon="-3.44342">
        <ele>200.2</ele>
        <time>2020-06-10T15:51:25Z</time>
      </trkpt>
      <trkpt lat="48.55591" lon="-3.44337">
        <ele>200</ele>
        <time>2020-06-10T15:51:26Z</time>
      </trkpt>
      <trkpt lat="48.55588" lon="-3.44331">
        <ele>199.7</ele>
        <time>2020-06-10T15:51:27Z</time>
      </trkpt>
      <trkpt lat="48.55587" lon="-3.44323">
        <ele>199.4</ele>
        <time>2020-06-10T15:51:28Z</time>
      </trkpt>
      <trkpt lat="48.55585" lon="-3.44316">
        <ele>199.1</ele>
        <time>2020-06-10T15:51:29Z</time>
      </trkpt>
      <trkpt lat="48.55584" lon="-3.4431">
        <ele>198.9</ele>
        <time>2020-06-10T15:51:30Z</time>
      </trkpt>
      <trkpt lat="48.55583" lon="-3.44303">
        <ele>198.6</ele>
        <time>2020-06-10T15:51:31Z</time>
      </trkpt>
      <trkpt lat="48.5558" lon="-3.44297">
        <ele>198.4</ele>
        <time>2020-06-10T15:51:32Z</time>
      </trkpt>
      <trkpt lat="48.55579" lon="-3.4429">
        <ele>198.1</ele>
        <time>2020-06-10T15:51:33Z</time>
      </trkpt>
      <trkpt lat="48.55577" lon="-3.44284">
        <ele>197.9</ele>
        <time>2020-06-10T15:51:34Z</time>
      </trkpt>
      <trkpt lat="48.55574" lon="-3.44277">
        <ele>197.6</ele>
        <time>2020-06-10T15:51:35Z</time>
      </trkpt>
      <trkpt lat="48.55572" lon="-3.44269">
        <ele>197.4</ele>
        <time>2020-06-10T15:51:36Z</time>
      </trkpt>
      <trkpt lat="48.5557" lon="-3.4426">
        <ele>197.1</ele>
        <time>2020-06-10T15:51:37Z</time>
      </trkpt>
      <trkpt lat="48.55568" lon="-3.44249">
        <ele>196.8</ele>
        <time>2020-06-10T15:51:38Z</time>
      </trkpt>
      <trkpt lat="48.55566" lon="-3.44239">
        <ele>196.5</ele>
        <time>2020-06-10T15:51:39Z</time>
      </trkpt>
      <trkpt lat="48.55564" lon="-3.44229">
        <ele>196.3</ele>
        <time>2020-06-10T15:51:40Z</time>
      </trkpt>
      <trkpt lat="48.55563" lon="-3.44219">
        <ele>196</ele>
        <time>2020-06-10T15:51:41Z</time>
      </trkpt>
      <trkpt lat="48.55562" lon="-3.44211">
        <ele>195.9</ele>
        <time>2020-06-10T15:51:42Z</time>
      </trkpt>
      <trkpt lat="48.55561" lon="-3.44201">
        <ele>195.6</ele>
        <time>2020-06-10T15:51:43Z</time>
      </trkpt>
      <trkpt lat="48.55559" lon="-3.4419">
        <ele>195.4</ele>
        <time>2020-06-10T15:51:44Z</time>
      </trkpt>
      <trkpt lat="48.55558" lon="-3.4418">
        <ele>195.2</ele>
        <time>2020-06-10T15:51:45Z</time>
      </trkpt>
      <trkpt lat="48.55556" lon="-3.44169">
        <ele>194.9</ele>
        <time>2020-06-10T15:51:46Z</time>
      </trkpt>
      <trkpt lat="48.55554" lon="-3.44159">
        <ele>194.7</ele>
        <time>2020-06-10T15:51:47Z</time>
      </trkpt>
      <trkpt lat="48.55552" lon="-3.44148">
        <ele>194.5</ele>
        <time>2020-06-10T15:51:48Z</time>
      </trkpt>
      <trkpt lat="48.5555" lon="-3.44138">
        <ele>194.3</ele>
        <time>2020-06-10T15:51:49Z</time>
      </trkpt>
      <trkpt lat="48.55547" lon="-3.44128">
        <ele>194.2</ele>
        <time>2020-06-10T15:51:50Z</time>
      </trkpt>
      <trkpt lat="48.55545" lon="-3.44119">
        <ele>194</ele>
        <time>2020-06-10T15:51:51Z</time>
      </trkpt>
      <trkpt lat="48.55543" lon="-3.44111">
        <ele>193.9</ele>
        <time>2020-06-10T15:51:52Z</time>
      </trkpt>
      <trkpt lat="48.5554" lon="-3.44103">
        <ele>193.8</ele>
        <time>2020-06-10T15:51:53Z</time>
      </trkpt>
      <trkpt lat="48.55538" lon="-3.44096">
        <ele>193.7</ele>
        <time>2020-06-10T15:51:54Z</time>
      </trkpt>
      <trkpt lat="48.55535" lon="-3.44089">
        <ele>193.6</ele>
        <time>2020-06-10T15:51:55Z</time>
      </trkpt>
      <trkpt lat="48.55531" lon="-3.44083">
        <ele>193.6</ele>
        <time>2020-06-10T15:51:56Z</time>
      </trkpt>
      <trkpt lat="48.55529" lon="-3.44075">
        <ele>193.4</ele>
        <time>2020-06-10T15:51:57Z</time>
      </trkpt>
      <trkpt lat="48.55529" lon="-3.44065">
        <ele>193.4</ele>
        <time>2020-06-10T15:51:58Z</time>
      </trkpt>
      <trkpt lat="48.55529" lon="-3.44057">
        <ele>193.4</ele>
        <time>2020-06-10T15:51:59Z</time>
      </trkpt>
      <trkpt lat="48.5553" lon="-3.44048">
        <ele>193.3</ele>
        <time>2020-06-10T15:52:00Z</time>
      </trkpt>
      <trkpt lat="48.55529" lon="-3.44039">
        <ele>193.3</ele>
        <time>2020-06-10T15:52:01Z</time>
      </trkpt>
      <trkpt lat="48.55528" lon="-3.4403">
        <ele>193.2</ele>
        <time>2020-06-10T15:52:02Z</time>
      </trkpt>
      <trkpt lat="48.55527" lon="-3.44021">
        <ele>193.1</ele>
        <time>2020-06-10T15:52:03Z</time>
      </trkpt>
      <trkpt lat="48.55525" lon="-3.44012">
        <ele>193.1</ele>
        <time>2020-06-10T15:52:04Z</time>
      </trkpt>
      <trkpt lat="48.55524" lon="-3.44003">
        <ele>193</ele>
        <time>2020-06-10T15:52:05Z</time>
      </trkpt>
      <trkpt lat="48.55523" lon="-3.43995">
        <ele>193</ele>
        <time>2020-06-10T15:52:06Z</time>
      </trkpt>
      <trkpt lat="48.55522" lon="-3.43986">
        <ele>192.9</ele>
        <time>2020-06-10T15:52:07Z</time>
      </trkpt>
      <trkpt lat="48.55521" lon="-3.43978">
        <ele>192.9</ele>
        <time>2020-06-10T15:52:08Z</time>
      </trkpt>
      <trkpt lat="48.55519" lon="-3.4397">
        <ele>192.8</ele>
        <time>2020-06-10T15:52:09Z</time>
      </trkpt>
      <trkpt lat="48.55517" lon="-3.43962">
        <ele>192.7</ele>
        <time>2020-06-10T15:52:10Z</time>
      </trkpt>
      <trkpt lat="48.55516" lon="-3.43953">
        <ele>192.6</ele>
        <time>2020-06-10T15:52:11Z</time>
      </trkpt>
      <trkpt lat="48.55513" lon="-3.43945">
        <ele>192.5</ele>
        <time>2020-06-10T15:52:12Z</time>
      </trkpt>
      <trkpt lat="48.55512" lon="-3.43938">
        <ele>192.5</ele>
        <time>2020-06-10T15:52:13Z</time>
      </trkpt>
      <trkpt lat="48.5551" lon="-3.43931">
        <ele>192.4</ele>
        <time>2020-06-10T15:52:14Z</time>
      </trkpt>
      <trkpt lat="48.55508" lon="-3.43924">
        <ele>192.4</ele>
        <time>2020-06-10T15:52:15Z</time>
      </trkpt>
      <trkpt lat="48.55507" lon="-3.43917">
        <ele>192.4</ele>
        <time>2020-06-10T15:52:16Z</time>
      </trkpt>
      <trkpt lat="48.55506" lon="-3.4391">
        <ele>192.4</ele>
        <time>2020-06-10T15:52:17Z</time>
      </trkpt>
      <trkpt lat="48.55505" lon="-3.43902">
        <ele>192.4</ele>
        <time>2020-06-10T15:52:18Z</time>
      </trkpt>
      <trkpt lat="48.55504" lon="-3.43894">
        <ele>192.4</ele>
        <time>2020-06-10T15:52:19Z</time>
      </trkpt>
      <trkpt lat="48.55502" lon="-3.43886">
        <ele>192.4</ele>
        <time>2020-06-10T15:52:20Z</time>
      </trkpt>
      <trkpt lat="48.55501" lon="-3.43878">
        <ele>192.2</ele>
        <time>2020-06-10T15:52:21Z</time>
      </trkpt>
      <trkpt lat="48.55499" lon="-3.4387">
        <ele>192.1</ele>
        <time>2020-06-10T15:52:22Z</time>
      </trkpt>
      <trkpt lat="48.55498" lon="-3.43863">
        <ele>191.9</ele>
        <time>2020-06-10T15:52:23Z</time>
      </trkpt>
      <trkpt lat="48.55496" lon="-3.43855">
        <ele>191.7</ele>
        <time>2020-06-10T15:52:24Z</time>
      </trkpt>
      <trkpt lat="48.55494" lon="-3.43849">
        <ele>191.6</ele>
        <time>2020-06-10T15:52:25Z</time>
      </trkpt>
      <trkpt lat="48.55493" lon="-3.43843">
        <ele>191.4</ele>
        <time>2020-06-10T15:52:26Z</time>
      </trkpt>
      <trkpt lat="48.55491" lon="-3.43839">
        <ele>191.3</ele>
        <time>2020-06-10T15:52:27Z</time>
      </trkpt>
      <trkpt lat="48.55489" lon="-3.43834">
        <ele>191.2</ele>
        <time>2020-06-10T15:52:28Z</time>
      </trkpt>
      <trkpt lat="48.55488" lon="-3.43829">
        <ele>191.1</ele>
        <time>2020-06-10T15:52:29Z</time>
      </trkpt>
      <trkpt lat="48.55487" lon="-3.43824">
        <ele>191</ele>
        <time>2020-06-10T15:52:30Z</time>
      </trkpt>
      <trkpt lat="48.55486" lon="-3.4382">
        <ele>190.9</ele>
        <time>2020-06-10T15:52:31Z</time>
      </trkpt>
      <trkpt lat="48.55487" lon="-3.43817">
        <ele>190.9</ele>
        <time>2020-06-10T15:52:32Z</time>
      </trkpt>
      <trkpt lat="48.55486" lon="-3.43816">
        <ele>190.8</ele>
        <time>2020-06-10T15:52:33Z</time>
      </trkpt>
      <trkpt lat="48.55487" lon="-3.43816">
        <ele>190.8</ele>
        <time>2020-06-10T15:52:34Z</time>
      </trkpt>
      <trkpt lat="48.55486" lon="-3.43815">
        <ele>190.8</ele>
        <time>2020-06-10T15:52:35Z</time>
      </trkpt>
      <trkpt lat="48.55486" lon="-3.43814">
        <ele>190.8</ele>
        <time>2020-06-10T15:52:36Z</time>
      </trkpt>
      <trkpt lat="48.55486" lon="-3.43813">
        <ele>190.8</ele>
        <time>2020-06-10T15:52:37Z</time>
      </trkpt>
      <trkpt lat="48.55485" lon="-3.43813">
        <ele>190.7</ele>
        <time>2020-06-10T15:52:38Z</time>
      </trkpt>
      <trkpt lat="48.55485" lon="-3.43812">
        <ele>190.7</ele>
        <time>2020-06-10T15:52:39Z</time>
      </trkpt>
      <trkpt lat="48.55484" lon="-3.43811">
        <ele>190.7</ele>
        <time>2020-06-10T15:52:40Z</time>
      </trkpt>
      <trkpt lat="48.55484" lon="-3.4381">
        <ele>190.7</ele>
        <time>2020-06-10T15:52:41Z</time>
      </trkpt>
      <trkpt lat="48.55483" lon="-3.43809">
        <ele>190.7</ele>
        <time>2020-06-10T15:52:42Z</time>
      </trkpt>
      <trkpt lat="48.55483" lon="-3.43808">
        <ele>190.6</ele>
        <time>2020-06-10T15:52:43Z</time>
      </trkpt>
      <trkpt lat="48.55482" lon="-3.43807">
        <ele>190.6</ele>
        <time>2020-06-10T15:52:44Z</time>
      </trkpt>
      <trkpt lat="48.55482" lon="-3.43807">
        <ele>190.6</ele>
        <time>2020-06-10T15:53:37Z</time>
      </trkpt>
      <trkpt lat="48.55481" lon="-3.43806">
        <ele>190.6</ele>
        <time>2020-06-10T15:53:38Z</time>
      </trkpt>
      <trkpt lat="48.5548" lon="-3.43802">
        <ele>190.5</ele>
        <time>2020-06-10T15:53:39Z</time>
      </trkpt>
      <trkpt lat="48.55479" lon="-3.43798">
        <ele>190.4</ele>
        <time>2020-06-10T15:53:40Z</time>
      </trkpt>
      <trkpt lat="48.55479" lon="-3.43794">
        <ele>190.3</ele>
        <time>2020-06-10T15:53:41Z</time>
      </trkpt>
      <trkpt lat="48.55478" lon="-3.4379">
        <ele>190.3</ele>
        <time>2020-06-10T15:53:42Z</time>
      </trkpt>
      <trkpt lat="48.55477" lon="-3.43786">
        <ele>190.2</ele>
        <time>2020-06-10T15:53:43Z</time>
      </trkpt>
      <trkpt lat="48.55476" lon="-3.43781">
        <ele>190.1</ele>
        <time>2020-06-10T15:53:44Z</time>
      </trkpt>
      <trkpt lat="48.55476" lon="-3.43776">
        <ele>190</ele>
        <time>2020-06-10T15:53:45Z</time>
      </trkpt>
      <trkpt lat="48.55475" lon="-3.43771">
        <ele>189.9</ele>
        <time>2020-06-10T15:53:46Z</time>
      </trkpt>
      <trkpt lat="48.55475" lon="-3.43765">
        <ele>189.8</ele>
        <time>2020-06-10T15:53:47Z</time>
      </trkpt>
      <trkpt lat="48.55474" lon="-3.43759">
        <ele>189.7</ele>
        <time>2020-06-10T15:53:48Z</time>
      </trkpt>
      <trkpt lat="48.55474" lon="-3.43754">
        <ele>189.6</ele>
        <time>2020-06-10T15:53:49Z</time>
      </trkpt>
      <trkpt lat="48.55473" lon="-3.43748">
        <ele>189.4</ele>
        <time>2020-06-10T15:53:50Z</time>
      </trkpt>
      <trkpt lat="48.55473" lon="-3.43743">
        <ele>189.3</ele>
        <time>2020-06-10T15:53:51Z</time>
      </trkpt>
      <trkpt lat="48.55472" lon="-3.43738">
        <ele>189.2</ele>
        <time>2020-06-10T15:53:52Z</time>
      </trkpt>
      <trkpt lat="48.55472" lon="-3.43732">
        <ele>189.1</ele>
        <time>2020-06-10T15:53:53Z</time>
      </trkpt>
      <trkpt lat="48.55471" lon="-3.43727">
        <ele>189</ele>
        <time>2020-06-10T15:53:54Z</time>
      </trkpt>
      <trkpt lat="48.55471" lon="-3.43721">
        <ele>188.8</ele>
        <time>2020-06-10T15:53:55Z</time>
      </trkpt>
      <trkpt lat="48.5547" lon="-3.43715">
        <ele>188.7</ele>
        <time>2020-06-10T15:53:56Z</time>
      </trkpt>
      <trkpt lat="48.5547" lon="-3.43709">
        <ele>188.5</ele>
        <time>2020-06-10T15:53:57Z</time>
      </trkpt>
      <trkpt lat="48.55469" lon="-3.43703">
        <ele>188.4</ele>
        <time>2020-06-10T15:53:58Z</time>
      </trkpt>
      <trkpt lat="48.55467" lon="-3.43698">
        <ele>188.2</ele>
        <time>2020-06-10T15:53:59Z</time>
      </trkpt>
      <trkpt lat="48.55466" lon="-3.43692">
        <ele>188.1</ele>
        <time>2020-06-10T15:54:00Z</time>
      </trkpt>
      <trkpt lat="48.55464" lon="-3.43686">
        <ele>187.9</ele>
        <time>2020-06-10T15:54:01Z</time>
      </trkpt>
      <trkpt lat="48.55462" lon="-3.43681">
        <ele>187.8</ele>
        <time>2020-06-10T15:54:02Z</time>
      </trkpt>
      <trkpt lat="48.55461" lon="-3.43676">
        <ele>187.7</ele>
        <time>2020-06-10T15:54:03Z</time>
      </trkpt>
      <trkpt lat="48.55461" lon="-3.43671">
        <ele>187.5</ele>
        <time>2020-06-10T15:54:04Z</time>
      </trkpt>
      <trkpt lat="48.55461" lon="-3.43665">
        <ele>187.4</ele>
        <time>2020-06-10T15:54:05Z</time>
      </trkpt>
      <trkpt lat="48.5546" lon="-3.4366">
        <ele>187.3</ele>
        <time>2020-06-10T15:54:06Z</time>
      </trkpt>
      <trkpt lat="48.5546" lon="-3.43655">
        <ele>187.1</ele>
        <time>2020-06-10T15:54:07Z</time>
      </trkpt>
      <trkpt lat="48.5546" lon="-3.4365">
        <ele>187</ele>
        <time>2020-06-10T15:54:08Z</time>
      </trkpt>
      <trkpt lat="48.55461" lon="-3.43646">
        <ele>186.9</ele>
        <time>2020-06-10T15:54:09Z</time>
      </trkpt>
      <trkpt lat="48.5546" lon="-3.43641">
        <ele>186.8</ele>
        <time>2020-06-10T15:54:10Z</time>
      </trkpt>
      <trkpt lat="48.55459" lon="-3.43637">
        <ele>186.6</ele>
        <time>2020-06-10T15:54:11Z</time>
      </trkpt>
      <trkpt lat="48.55458" lon="-3.43631">
        <ele>186.5</ele>
        <time>2020-06-10T15:54:12Z</time>
      </trkpt>
      <trkpt lat="48.55458" lon="-3.43625">
        <ele>186.3</ele>
        <time>2020-06-10T15:54:13Z</time>
      </trkpt>
      <trkpt lat="48.55457" lon="-3.43618">
        <ele>186.1</ele>
        <time>2020-06-10T15:54:14Z</time>
      </trkpt>
      <trkpt lat="48.55456" lon="-3.43611">
        <ele>185.9</ele>
        <time>2020-06-10T15:54:15Z</time>
      </trkpt>
      <trkpt lat="48.55455" lon="-3.43603">
        <ele>185.7</ele>
        <time>2020-06-10T15:54:16Z</time>
      </trkpt>
      <trkpt lat="48.55454" lon="-3.43595">
        <ele>185.5</ele>
        <time>2020-06-10T15:54:17Z</time>
      </trkpt>
      <trkpt lat="48.55452" lon="-3.43587">
        <ele>185.2</ele>
        <time>2020-06-10T15:54:18Z</time>
      </trkpt>
      <trkpt lat="48.5545" lon="-3.43579">
        <ele>185</ele>
        <time>2020-06-10T15:54:19Z</time>
      </trkpt>
      <trkpt lat="48.55448" lon="-3.43571">
        <ele>184.8</ele>
        <time>2020-06-10T15:54:20Z</time>
      </trkpt>
      <trkpt lat="48.55447" lon="-3.43562">
        <ele>184.6</ele>
        <time>2020-06-10T15:54:21Z</time>
      </trkpt>
      <trkpt lat="48.55445" lon="-3.43553">
        <ele>184.4</ele>
        <time>2020-06-10T15:54:22Z</time>
      </trkpt>
      <trkpt lat="48.55444" lon="-3.43544">
        <ele>184.3</ele>
        <time>2020-06-10T15:54:23Z</time>
      </trkpt>
      <trkpt lat="48.55442" lon="-3.43536">
        <ele>184.2</ele>
        <time>2020-06-10T15:54:24Z</time>
      </trkpt>
      <trkpt lat="48.55441" lon="-3.43527">
        <ele>184.1</ele>
        <time>2020-06-10T15:54:25Z</time>
      </trkpt>
      <trkpt lat="48.55438" lon="-3.4352">
        <ele>184</ele>
        <time>2020-06-10T15:54:26Z</time>
      </trkpt>
      <trkpt lat="48.55437" lon="-3.43512">
        <ele>183.9</ele>
        <time>2020-06-10T15:54:27Z</time>
      </trkpt>
      <trkpt lat="48.55436" lon="-3.43504">
        <ele>183.8</ele>
        <time>2020-06-10T15:54:28Z</time>
      </trkpt>
      <trkpt lat="48.55434" lon="-3.43496">
        <ele>183.7</ele>
        <time>2020-06-10T15:54:29Z</time>
      </trkpt>
      <trkpt lat="48.55432" lon="-3.43488">
        <ele>183.6</ele>
        <time>2020-06-10T15:54:30Z</time>
      </trkpt>
      <trkpt lat="48.5543" lon="-3.4348">
        <ele>183.5</ele>
        <time>2020-06-10T15:54:31Z</time>
      </trkpt>
      <trkpt lat="48.55428" lon="-3.43472">
        <ele>183.3</ele>
        <time>2020-06-10T15:54:32Z</time>
      </trkpt>
      <trkpt lat="48.55427" lon="-3.43464">
        <ele>183.2</ele>
        <time>2020-06-10T15:54:33Z</time>
      </trkpt>
      <trkpt lat="48.55425" lon="-3.43456">
        <ele>183.1</ele>
        <time>2020-06-10T15:54:34Z</time>
      </trkpt>
      <trkpt lat="48.55423" lon="-3.43448">
        <ele>183</ele>
        <time>2020-06-10T15:54:35Z</time>
      </trkpt>
      <trkpt lat="48.55422" lon="-3.4344">
        <ele>182.9</ele>
        <time>2020-06-10T15:54:36Z</time>
      </trkpt>
      <trkpt lat="48.55421" lon="-3.43432">
        <ele>182.8</ele>
        <time>2020-06-10T15:54:37Z</time>
      </trkpt>
      <trkpt lat="48.55419" lon="-3.43424">
        <ele>182.7</ele>
        <time>2020-06-10T15:54:38Z</time>
      </trkpt>
      <trkpt lat="48.55417" lon="-3.43415">
        <ele>182.6</ele>
        <time>2020-06-10T15:54:39Z</time>
      </trkpt>
      <trkpt lat="48.55415" lon="-3.43407">
        <ele>182.5</ele>
        <time>2020-06-10T15:54:40Z</time>
      </trkpt>
      <trkpt lat="48.55414" lon="-3.43398">
        <ele>182.4</ele>
        <time>2020-06-10T15:54:41Z</time>
      </trkpt>
      <trkpt lat="48.55413" lon="-3.43389">
        <ele>182.3</ele>
        <time>2020-06-10T15:54:42Z</time>
      </trkpt>
      <trkpt lat="48.55411" lon="-3.4338">
        <ele>182.1</ele>
        <time>2020-06-10T15:54:43Z</time>
      </trkpt>
      <trkpt lat="48.5541" lon="-3.43371">
        <ele>182</ele>
        <time>2020-06-10T15:54:44Z</time>
      </trkpt>
      <trkpt lat="48.55409" lon="-3.43363">
        <ele>181.9</ele>
        <time>2020-06-10T15:54:45Z</time>
      </trkpt>
      <trkpt lat="48.55407" lon="-3.43355">
        <ele>181.7</ele>
        <time>2020-06-10T15:54:46Z</time>
      </trkpt>
      <trkpt lat="48.55405" lon="-3.43348">
        <ele>181.7</ele>
        <time>2020-06-10T15:54:47Z</time>
      </trkpt>
      <trkpt lat="48.55404" lon="-3.4334">
        <ele>181.5</ele>
        <time>2020-06-10T15:54:48Z</time>
      </trkpt>
      <trkpt lat="48.55403" lon="-3.43332">
        <ele>181.4</ele>
        <time>2020-06-10T15:54:49Z</time>
      </trkpt>
      <trkpt lat="48.55402" lon="-3.43324">
        <ele>181.4</ele>
        <time>2020-06-10T15:54:50Z</time>
      </trkpt>
      <trkpt lat="48.554" lon="-3.43316">
        <ele>181.3</ele>
        <time>2020-06-10T15:54:51Z</time>
      </trkpt>
      <trkpt lat="48.55398" lon="-3.43308">
        <ele>181.3</ele>
        <time>2020-06-10T15:54:52Z</time>
      </trkpt>
      <trkpt lat="48.55396" lon="-3.433">
        <ele>181.2</ele>
        <time>2020-06-10T15:54:53Z</time>
      </trkpt>
      <trkpt lat="48.55395" lon="-3.43292">
        <ele>181.1</ele>
        <time>2020-06-10T15:54:54Z</time>
      </trkpt>
      <trkpt lat="48.55393" lon="-3.43284">
        <ele>180.9</ele>
        <time>2020-06-10T15:54:55Z</time>
      </trkpt>
      <trkpt lat="48.55391" lon="-3.43276">
        <ele>180.8</ele>
        <time>2020-06-10T15:54:56Z</time>
      </trkpt>
      <trkpt lat="48.5539" lon="-3.43268">
        <ele>180.6</ele>
        <time>2020-06-10T15:54:57Z</time>
      </trkpt>
      <trkpt lat="48.55389" lon="-3.4326">
        <ele>180.5</ele>
        <time>2020-06-10T15:54:58Z</time>
      </trkpt>
      <trkpt lat="48.55387" lon="-3.43252">
        <ele>180.3</ele>
        <time>2020-06-10T15:54:59Z</time>
      </trkpt>
      <trkpt lat="48.55386" lon="-3.43243">
        <ele>180.1</ele>
        <time>2020-06-10T15:55:00Z</time>
      </trkpt>
      <trkpt lat="48.55384" lon="-3.43235">
        <ele>179.8</ele>
        <time>2020-06-10T15:55:01Z</time>
      </trkpt>
      <trkpt lat="48.55383" lon="-3.43226">
        <ele>179.6</ele>
        <time>2020-06-10T15:55:02Z</time>
      </trkpt>
      <trkpt lat="48.55382" lon="-3.43218">
        <ele>179.3</ele>
        <time>2020-06-10T15:55:03Z</time>
      </trkpt>
      <trkpt lat="48.55381" lon="-3.4321">
        <ele>179.1</ele>
        <time>2020-06-10T15:55:04Z</time>
      </trkpt>
      <trkpt lat="48.55379" lon="-3.43201">
        <ele>178.8</ele>
        <time>2020-06-10T15:55:05Z</time>
      </trkpt>
      <trkpt lat="48.55378" lon="-3.43192">
        <ele>178.5</ele>
        <time>2020-06-10T15:55:06Z</time>
      </trkpt>
      <trkpt lat="48.55376" lon="-3.43182">
        <ele>178.3</ele>
        <time>2020-06-10T15:55:07Z</time>
      </trkpt>
      <trkpt lat="48.55374" lon="-3.43172">
        <ele>177.9</ele>
        <time>2020-06-10T15:55:08Z</time>
      </trkpt>
      <trkpt lat="48.55373" lon="-3.43162">
        <ele>177.5</ele>
        <time>2020-06-10T15:55:09Z</time>
      </trkpt>
      <trkpt lat="48.55371" lon="-3.43151">
        <ele>177.1</ele>
        <time>2020-06-10T15:55:10Z</time>
      </trkpt>
      <trkpt lat="48.55369" lon="-3.43139">
        <ele>176.7</ele>
        <time>2020-06-10T15:55:11Z</time>
      </trkpt>
      <trkpt lat="48.55367" lon="-3.43126">
        <ele>176.2</ele>
        <time>2020-06-10T15:55:12Z</time>
      </trkpt>
      <trkpt lat="48.55364" lon="-3.43113">
        <ele>175.8</ele>
        <time>2020-06-10T15:55:13Z</time>
      </trkpt>
      <trkpt lat="48.55362" lon="-3.43101">
        <ele>175.4</ele>
        <time>2020-06-10T15:55:14Z</time>
      </trkpt>
      <trkpt lat="48.55359" lon="-3.43088">
        <ele>175.1</ele>
        <time>2020-06-10T15:55:15Z</time>
      </trkpt>
      <trkpt lat="48.55357" lon="-3.43075">
        <ele>174.8</ele>
        <time>2020-06-10T15:55:16Z</time>
      </trkpt>
      <trkpt lat="48.55354" lon="-3.43063">
        <ele>174.4</ele>
        <time>2020-06-10T15:55:17Z</time>
      </trkpt>
      <trkpt lat="48.55352" lon="-3.4305">
        <ele>174.1</ele>
        <time>2020-06-10T15:55:18Z</time>
      </trkpt>
      <trkpt lat="48.5535" lon="-3.43037">
        <ele>173.9</ele>
        <time>2020-06-10T15:55:19Z</time>
      </trkpt>
      <trkpt lat="48.55348" lon="-3.43025">
        <ele>173.6</ele>
        <time>2020-06-10T15:55:20Z</time>
      </trkpt>
      <trkpt lat="48.55346" lon="-3.43012">
        <ele>173.4</ele>
        <time>2020-06-10T15:55:21Z</time>
      </trkpt>
      <trkpt lat="48.55344" lon="-3.43001">
        <ele>173.2</ele>
        <time>2020-06-10T15:55:22Z</time>
      </trkpt>
      <trkpt lat="48.55342" lon="-3.42989">
        <ele>173</ele>
        <time>2020-06-10T15:55:23Z</time>
      </trkpt>
      <trkpt lat="48.5534" lon="-3.42977">
        <ele>172.7</ele>
        <time>2020-06-10T15:55:24Z</time>
      </trkpt>
      <trkpt lat="48.55338" lon="-3.42968">
        <ele>172.5</ele>
        <time>2020-06-10T15:55:25Z</time>
      </trkpt>
      <trkpt lat="48.55337" lon="-3.42959">
        <ele>172.4</ele>
        <time>2020-06-10T15:55:26Z</time>
      </trkpt>
      <trkpt lat="48.55335" lon="-3.42951">
        <ele>172.1</ele>
        <time>2020-06-10T15:55:27Z</time>
      </trkpt>
      <trkpt lat="48.55333" lon="-3.42943">
        <ele>172</ele>
        <time>2020-06-10T15:55:28Z</time>
      </trkpt>
      <trkpt lat="48.55332" lon="-3.42935">
        <ele>171.8</ele>
        <time>2020-06-10T15:55:29Z</time>
      </trkpt>
      <trkpt lat="48.5533" lon="-3.42928">
        <ele>171.7</ele>
        <time>2020-06-10T15:55:30Z</time>
      </trkpt>
      <trkpt lat="48.55329" lon="-3.42922">
        <ele>171.5</ele>
        <time>2020-06-10T15:55:31Z</time>
      </trkpt>
      <trkpt lat="48.55327" lon="-3.42916">
        <ele>171.4</ele>
        <time>2020-06-10T15:55:32Z</time>
      </trkpt>
      <trkpt lat="48.55326" lon="-3.42909">
        <ele>171.3</ele>
        <time>2020-06-10T15:55:33Z</time>
      </trkpt>
      <trkpt lat="48.55325" lon="-3.42903">
        <ele>171.1</ele>
        <time>2020-06-10T15:55:34Z</time>
      </trkpt>
      <trkpt lat="48.55324" lon="-3.42897">
        <ele>171</ele>
        <time>2020-06-10T15:55:35Z</time>
      </trkpt>
      <trkpt lat="48.55324" lon="-3.42891">
        <ele>170.9</ele>
        <time>2020-06-10T15:55:36Z</time>
      </trkpt>
      <trkpt lat="48.55323" lon="-3.42886">
        <ele>170.8</ele>
        <time>2020-06-10T15:55:37Z</time>
      </trkpt>
      <trkpt lat="48.55323" lon="-3.42881">
        <ele>170.7</ele>
        <time>2020-06-10T15:55:38Z</time>
      </trkpt>
      <trkpt lat="48.55322" lon="-3.42876">
        <ele>170.6</ele>
        <time>2020-06-10T15:55:39Z</time>
      </trkpt>
      <trkpt lat="48.55321" lon="-3.4287">
        <ele>170.5</ele>
        <time>2020-06-10T15:55:40Z</time>
      </trkpt>
      <trkpt lat="48.55321" lon="-3.42863">
        <ele>170.3</ele>
        <time>2020-06-10T15:55:41Z</time>
      </trkpt>
      <trkpt lat="48.5532" lon="-3.42856">
        <ele>170.2</ele>
        <time>2020-06-10T15:55:42Z</time>
      </trkpt>
      <trkpt lat="48.55319" lon="-3.42848">
        <ele>170</ele>
        <time>2020-06-10T15:55:43Z</time>
      </trkpt>
      <trkpt lat="48.55318" lon="-3.42841">
        <ele>169.9</ele>
        <time>2020-06-10T15:55:44Z</time>
      </trkpt>
      <trkpt lat="48.55317" lon="-3.42834">
        <ele>169.7</ele>
        <time>2020-06-10T15:55:45Z</time>
      </trkpt>
      <trkpt lat="48.55316" lon="-3.42827">
        <ele>169.6</ele>
        <time>2020-06-10T15:55:46Z</time>
      </trkpt>
      <trkpt lat="48.55314" lon="-3.4282">
        <ele>169.5</ele>
        <time>2020-06-10T15:55:47Z</time>
      </trkpt>
      <trkpt lat="48.55312" lon="-3.42813">
        <ele>169.3</ele>
        <time>2020-06-10T15:55:48Z</time>
      </trkpt>
      <trkpt lat="48.55311" lon="-3.42805">
        <ele>169.2</ele>
        <time>2020-06-10T15:55:49Z</time>
      </trkpt>
      <trkpt lat="48.55309" lon="-3.42797">
        <ele>169</ele>
        <time>2020-06-10T15:55:50Z</time>
      </trkpt>
      <trkpt lat="48.55308" lon="-3.42789">
        <ele>168.8</ele>
        <time>2020-06-10T15:55:51Z</time>
      </trkpt>
      <trkpt lat="48.55306" lon="-3.42782">
        <ele>168.7</ele>
        <time>2020-06-10T15:55:52Z</time>
      </trkpt>
      <trkpt lat="48.55304" lon="-3.42774">
        <ele>168.5</ele>
        <time>2020-06-10T15:55:53Z</time>
      </trkpt>
      <trkpt lat="48.55303" lon="-3.42766">
        <ele>168.3</ele>
        <time>2020-06-10T15:55:54Z</time>
      </trkpt>
      <trkpt lat="48.55301" lon="-3.42759">
        <ele>168.2</ele>
        <time>2020-06-10T15:55:55Z</time>
      </trkpt>
      <trkpt lat="48.55299" lon="-3.42751">
        <ele>168</ele>
        <time>2020-06-10T15:55:56Z</time>
      </trkpt>
      <trkpt lat="48.55298" lon="-3.42744">
        <ele>167.9</ele>
        <time>2020-06-10T15:55:57Z</time>
      </trkpt>
      <trkpt lat="48.55297" lon="-3.42737">
        <ele>167.7</ele>
        <time>2020-06-10T15:55:58Z</time>
      </trkpt>
      <trkpt lat="48.55296" lon="-3.4273">
        <ele>167.6</ele>
        <time>2020-06-10T15:55:59Z</time>
      </trkpt>
      <trkpt lat="48.55295" lon="-3.42724">
        <ele>167.5</ele>
        <time>2020-06-10T15:56:00Z</time>
      </trkpt>
      <trkpt lat="48.55294" lon="-3.42718">
        <ele>167.3</ele>
        <time>2020-06-10T15:56:01Z</time>
      </trkpt>
      <trkpt lat="48.55292" lon="-3.42712">
        <ele>167.2</ele>
        <time>2020-06-10T15:56:02Z</time>
      </trkpt>
      <trkpt lat="48.55291" lon="-3.42707">
        <ele>167.1</ele>
        <time>2020-06-10T15:56:03Z</time>
      </trkpt>
      <trkpt lat="48.55291" lon="-3.42702">
        <ele>167</ele>
        <time>2020-06-10T15:56:04Z</time>
      </trkpt>
      <trkpt lat="48.5529" lon="-3.42697">
        <ele>166.9</ele>
        <time>2020-06-10T15:56:05Z</time>
      </trkpt>
      <trkpt lat="48.55289" lon="-3.42692">
        <ele>166.8</ele>
        <time>2020-06-10T15:56:06Z</time>
      </trkpt>
      <trkpt lat="48.55288" lon="-3.42687">
        <ele>166.7</ele>
        <time>2020-06-10T15:56:07Z</time>
      </trkpt>
      <trkpt lat="48.55286" lon="-3.42682">
        <ele>166.6</ele>
        <time>2020-06-10T15:56:08Z</time>
      </trkpt>
      <trkpt lat="48.55285" lon="-3.42677">
        <ele>166.5</ele>
        <time>2020-06-10T15:56:09Z</time>
      </trkpt>
      <trkpt lat="48.55284" lon="-3.42672">
        <ele>166.4</ele>
        <time>2020-06-10T15:56:10Z</time>
      </trkpt>
      <trkpt lat="48.55282" lon="-3.42667">
        <ele>166.3</ele>
        <time>2020-06-10T15:56:11Z</time>
      </trkpt>
      <trkpt lat="48.55281" lon="-3.42662">
        <ele>166.2</ele>
        <time>2020-06-10T15:56:12Z</time>
      </trkpt>
      <trkpt lat="48.55281" lon="-3.42657">
        <ele>166.1</ele>
        <time>2020-06-10T15:56:13Z</time>
      </trkpt>
      <trkpt lat="48.5528" lon="-3.42655">
        <ele>166</ele>
        <time>2020-06-10T15:56:14Z</time>
      </trkpt>
      <trkpt lat="48.55279" lon="-3.42651">
        <ele>165.9</ele>
        <time>2020-06-10T15:56:15Z</time>
      </trkpt>
      <trkpt lat="48.55278" lon="-3.42646">
        <ele>165.8</ele>
        <time>2020-06-10T15:56:16Z</time>
      </trkpt>
      <trkpt lat="48.55276" lon="-3.42642">
        <ele>165.7</ele>
        <time>2020-06-10T15:56:17Z</time>
      </trkpt>
      <trkpt lat="48.55276" lon="-3.42636">
        <ele>165.6</ele>
        <time>2020-06-10T15:56:18Z</time>
      </trkpt>
      <trkpt lat="48.55275" lon="-3.42631">
        <ele>165.5</ele>
        <time>2020-06-10T15:56:19Z</time>
      </trkpt>
      <trkpt lat="48.55274" lon="-3.42625">
        <ele>165.4</ele>
        <time>2020-06-10T15:56:20Z</time>
      </trkpt>
      <trkpt lat="48.55273" lon="-3.4262">
        <ele>165.3</ele>
        <time>2020-06-10T15:56:21Z</time>
      </trkpt>
      <trkpt lat="48.55272" lon="-3.42613">
        <ele>165.2</ele>
        <time>2020-06-10T15:56:22Z</time>
      </trkpt>
      <trkpt lat="48.55271" lon="-3.42607">
        <ele>165</ele>
        <time>2020-06-10T15:56:23Z</time>
      </trkpt>
      <trkpt lat="48.55269" lon="-3.426">
        <ele>164.9</ele>
        <time>2020-06-10T15:56:24Z</time>
      </trkpt>
      <trkpt lat="48.55268" lon="-3.42593">
        <ele>164.7</ele>
        <time>2020-06-10T15:56:25Z</time>
      </trkpt>
      <trkpt lat="48.55268" lon="-3.42585">
        <ele>164.6</ele>
        <time>2020-06-10T15:56:26Z</time>
      </trkpt>
      <trkpt lat="48.55267" lon="-3.42578">
        <ele>164.4</ele>
        <time>2020-06-10T15:56:27Z</time>
      </trkpt>
      <trkpt lat="48.55266" lon="-3.4257">
        <ele>164.3</ele>
        <time>2020-06-10T15:56:28Z</time>
      </trkpt>
      <trkpt lat="48.55265" lon="-3.42562">
        <ele>164.1</ele>
        <time>2020-06-10T15:56:29Z</time>
      </trkpt>
      <trkpt lat="48.55264" lon="-3.42554">
        <ele>164</ele>
        <time>2020-06-10T15:56:30Z</time>
      </trkpt>
      <trkpt lat="48.55263" lon="-3.42546">
        <ele>163.8</ele>
        <time>2020-06-10T15:56:31Z</time>
      </trkpt>
      <trkpt lat="48.55262" lon="-3.42538">
        <ele>163.6</ele>
        <time>2020-06-10T15:56:32Z</time>
      </trkpt>
      <trkpt lat="48.55261" lon="-3.4253">
        <ele>163.5</ele>
        <time>2020-06-10T15:56:33Z</time>
      </trkpt>
      <trkpt lat="48.5526" lon="-3.42521">
        <ele>163.3</ele>
        <time>2020-06-10T15:56:34Z</time>
      </trkpt>
      <trkpt lat="48.55259" lon="-3.42512">
        <ele>163.1</ele>
        <time>2020-06-10T15:56:35Z</time>
      </trkpt>
      <trkpt lat="48.55258" lon="-3.42502">
        <ele>162.9</ele>
        <time>2020-06-10T15:56:36Z</time>
      </trkpt>
      <trkpt lat="48.55256" lon="-3.42493">
        <ele>162.7</ele>
        <time>2020-06-10T15:56:37Z</time>
      </trkpt>
      <trkpt lat="48.55255" lon="-3.42484">
        <ele>162.5</ele>
        <time>2020-06-10T15:56:38Z</time>
      </trkpt>
      <trkpt lat="48.55254" lon="-3.42476">
        <ele>162.4</ele>
        <time>2020-06-10T15:56:39Z</time>
      </trkpt>
      <trkpt lat="48.55252" lon="-3.42468">
        <ele>162.2</ele>
        <time>2020-06-10T15:56:40Z</time>
      </trkpt>
      <trkpt lat="48.55251" lon="-3.42461">
        <ele>162.1</ele>
        <time>2020-06-10T15:56:41Z</time>
      </trkpt>
      <trkpt lat="48.5525" lon="-3.42453">
        <ele>161.9</ele>
        <time>2020-06-10T15:56:42Z</time>
      </trkpt>
      <trkpt lat="48.55249" lon="-3.42446">
        <ele>161.8</ele>
        <time>2020-06-10T15:56:43Z</time>
      </trkpt>
      <trkpt lat="48.55247" lon="-3.42438">
        <ele>161.6</ele>
        <time>2020-06-10T15:56:44Z</time>
      </trkpt>
      <trkpt lat="48.55245" lon="-3.42431">
        <ele>161</ele>
        <time>2020-06-10T15:56:45Z</time>
      </trkpt>
      <trkpt lat="48.55243" lon="-3.42423">
        <ele>160.4</ele>
        <time>2020-06-10T15:56:46Z</time>
      </trkpt>
      <trkpt lat="48.55241" lon="-3.42416">
        <ele>159.8</ele>
        <time>2020-06-10T15:56:47Z</time>
      </trkpt>
      <trkpt lat="48.55239" lon="-3.42407">
        <ele>159.2</ele>
        <time>2020-06-10T15:56:48Z</time>
      </trkpt>
      <trkpt lat="48.55237" lon="-3.42399">
        <ele>158.6</ele>
        <time>2020-06-10T15:56:49Z</time>
      </trkpt>
      <trkpt lat="48.55235" lon="-3.4239">
        <ele>158</ele>
        <time>2020-06-10T15:56:50Z</time>
      </trkpt>
      <trkpt lat="48.55234" lon="-3.42381">
        <ele>157.5</ele>
        <time>2020-06-10T15:56:51Z</time>
      </trkpt>
      <trkpt lat="48.55232" lon="-3.42373">
        <ele>157.1</ele>
        <time>2020-06-10T15:56:52Z</time>
      </trkpt>
      <trkpt lat="48.55231" lon="-3.42365">
        <ele>156.7</ele>
        <time>2020-06-10T15:56:53Z</time>
      </trkpt>
      <trkpt lat="48.5523" lon="-3.42358">
        <ele>156.2</ele>
        <time>2020-06-10T15:56:54Z</time>
      </trkpt>
      <trkpt lat="48.55228" lon="-3.42349">
        <ele>155.8</ele>
        <time>2020-06-10T15:56:55Z</time>
      </trkpt>
      <trkpt lat="48.55227" lon="-3.4234">
        <ele>155.3</ele>
        <time>2020-06-10T15:56:56Z</time>
      </trkpt>
      <trkpt lat="48.55224" lon="-3.42332">
        <ele>154.9</ele>
        <time>2020-06-10T15:56:57Z</time>
      </trkpt>
      <trkpt lat="48.55223" lon="-3.42323">
        <ele>154.6</ele>
        <time>2020-06-10T15:56:58Z</time>
      </trkpt>
      <trkpt lat="48.55221" lon="-3.42314">
        <ele>154.3</ele>
        <time>2020-06-10T15:56:59Z</time>
      </trkpt>
      <trkpt lat="48.55219" lon="-3.42306">
        <ele>154</ele>
        <time>2020-06-10T15:57:00Z</time>
      </trkpt>
      <trkpt lat="48.55217" lon="-3.42298">
        <ele>153.8</ele>
        <time>2020-06-10T15:57:01Z</time>
      </trkpt>
      <trkpt lat="48.55216" lon="-3.4229">
        <ele>153.5</ele>
        <time>2020-06-10T15:57:02Z</time>
      </trkpt>
      <trkpt lat="48.55216" lon="-3.42281">
        <ele>153.2</ele>
        <time>2020-06-10T15:57:03Z</time>
      </trkpt>
      <trkpt lat="48.55216" lon="-3.42272">
        <ele>152.9</ele>
        <time>2020-06-10T15:57:04Z</time>
      </trkpt>
      <trkpt lat="48.55216" lon="-3.42263">
        <ele>152.7</ele>
        <time>2020-06-10T15:57:05Z</time>
      </trkpt>
      <trkpt lat="48.55214" lon="-3.42255">
        <ele>151.5</ele>
        <time>2020-06-10T15:57:06Z</time>
      </trkpt>
      <trkpt lat="48.55214" lon="-3.4225">
        <ele>150.9</ele>
        <time>2020-06-10T15:57:07Z</time>
      </trkpt>
      <trkpt lat="48.55212" lon="-3.42244">
        <ele>150.3</ele>
        <time>2020-06-10T15:57:08Z</time>
      </trkpt>
      <trkpt lat="48.55211" lon="-3.42239">
        <ele>149.7</ele>
        <time>2020-06-10T15:57:09Z</time>
      </trkpt>
      <trkpt lat="48.55209" lon="-3.42233">
        <ele>149.1</ele>
        <time>2020-06-10T15:57:10Z</time>
      </trkpt>
      <trkpt lat="48.55208" lon="-3.42226">
        <ele>148.9</ele>
        <time>2020-06-10T15:57:11Z</time>
      </trkpt>
      <trkpt lat="48.55207" lon="-3.42218">
        <ele>148.7</ele>
        <time>2020-06-10T15:57:12Z</time>
      </trkpt>
      <trkpt lat="48.55204" lon="-3.42211">
        <ele>148.4</ele>
        <time>2020-06-10T15:57:13Z</time>
      </trkpt>
      <trkpt lat="48.55201" lon="-3.42203">
        <ele>148.2</ele>
        <time>2020-06-10T15:57:14Z</time>
      </trkpt>
      <trkpt lat="48.55198" lon="-3.42195">
        <ele>148</ele>
        <time>2020-06-10T15:57:15Z</time>
      </trkpt>
      <trkpt lat="48.55196" lon="-3.42186">
        <ele>147.9</ele>
        <time>2020-06-10T15:57:16Z</time>
      </trkpt>
      <trkpt lat="48.55193" lon="-3.42177">
        <ele>147.7</ele>
        <time>2020-06-10T15:57:17Z</time>
      </trkpt>
      <trkpt lat="48.55191" lon="-3.42167">
        <ele>147.7</ele>
        <time>2020-06-10T15:57:18Z</time>
      </trkpt>
      <trkpt lat="48.55189" lon="-3.42157">
        <ele>147.6</ele>
        <time>2020-06-10T15:57:19Z</time>
      </trkpt>
      <trkpt lat="48.55187" lon="-3.42147">
        <ele>147.6</ele>
        <time>2020-06-10T15:57:20Z</time>
      </trkpt>
      <trkpt lat="48.55184" lon="-3.42138">
        <ele>147.5</ele>
        <time>2020-06-10T15:57:21Z</time>
      </trkpt>
      <trkpt lat="48.55182" lon="-3.42128">
        <ele>147.5</ele>
        <time>2020-06-10T15:57:22Z</time>
      </trkpt>
      <trkpt lat="48.55181" lon="-3.42118">
        <ele>147.6</ele>
        <time>2020-06-10T15:57:23Z</time>
      </trkpt>
      <trkpt lat="48.55179" lon="-3.42108">
        <ele>147.7</ele>
        <time>2020-06-10T15:57:24Z</time>
      </trkpt>
      <trkpt lat="48.55178" lon="-3.42098">
        <ele>147.8</ele>
        <time>2020-06-10T15:57:25Z</time>
      </trkpt>
      <trkpt lat="48.55175" lon="-3.42089">
        <ele>148</ele>
        <time>2020-06-10T15:57:26Z</time>
      </trkpt>
      <trkpt lat="48.55173" lon="-3.42079">
        <ele>148.2</ele>
        <time>2020-06-10T15:57:27Z</time>
      </trkpt>
      <trkpt lat="48.55173" lon="-3.4207">
        <ele>148.5</ele>
        <time>2020-06-10T15:57:28Z</time>
      </trkpt>
      <trkpt lat="48.55172" lon="-3.4206">
        <ele>148.7</ele>
        <time>2020-06-10T15:57:29Z</time>
      </trkpt>
      <trkpt lat="48.5517" lon="-3.4205">
        <ele>149</ele>
        <time>2020-06-10T15:57:30Z</time>
      </trkpt>
      <trkpt lat="48.55168" lon="-3.42041">
        <ele>149.3</ele>
        <time>2020-06-10T15:57:31Z</time>
      </trkpt>
      <trkpt lat="48.55166" lon="-3.42032">
        <ele>149.5</ele>
        <time>2020-06-10T15:57:32Z</time>
      </trkpt>
      <trkpt lat="48.55164" lon="-3.42023">
        <ele>149.7</ele>
        <time>2020-06-10T15:57:33Z</time>
      </trkpt>
      <trkpt lat="48.55163" lon="-3.42014">
        <ele>149.9</ele>
        <time>2020-06-10T15:57:34Z</time>
      </trkpt>
      <trkpt lat="48.55161" lon="-3.42005">
        <ele>150.1</ele>
        <time>2020-06-10T15:57:35Z</time>
      </trkpt>
      <trkpt lat="48.5516" lon="-3.41997">
        <ele>150.3</ele>
        <time>2020-06-10T15:57:36Z</time>
      </trkpt>
      <trkpt lat="48.55158" lon="-3.41988">
        <ele>150.5</ele>
        <time>2020-06-10T15:57:37Z</time>
      </trkpt>
      <trkpt lat="48.55157" lon="-3.41979">
        <ele>150.7</ele>
        <time>2020-06-10T15:57:38Z</time>
      </trkpt>
      <trkpt lat="48.55155" lon="-3.41971">
        <ele>150.8</ele>
        <time>2020-06-10T15:57:39Z</time>
      </trkpt>
      <trkpt lat="48.55154" lon="-3.41963">
        <ele>151</ele>
        <time>2020-06-10T15:57:40Z</time>
      </trkpt>
      <trkpt lat="48.55152" lon="-3.41955">
        <ele>151.2</ele>
        <time>2020-06-10T15:57:41Z</time>
      </trkpt>
      <trkpt lat="48.55151" lon="-3.41946">
        <ele>151.3</ele>
        <time>2020-06-10T15:57:42Z</time>
      </trkpt>
      <trkpt lat="48.55149" lon="-3.41939">
        <ele>151.5</ele>
        <time>2020-06-10T15:57:43Z</time>
      </trkpt>
      <trkpt lat="48.55147" lon="-3.41929">
        <ele>151.8</ele>
        <time>2020-06-10T15:57:44Z</time>
      </trkpt>
      <trkpt lat="48.55145" lon="-3.4192">
        <ele>152</ele>
        <time>2020-06-10T15:57:45Z</time>
      </trkpt>
      <trkpt lat="48.55143" lon="-3.41911">
        <ele>152.2</ele>
        <time>2020-06-10T15:57:46Z</time>
      </trkpt>
      <trkpt lat="48.55141" lon="-3.41903">
        <ele>152.5</ele>
        <time>2020-06-10T15:57:47Z</time>
      </trkpt>
      <trkpt lat="48.5514" lon="-3.41897">
        <ele>152.6</ele>
        <time>2020-06-10T15:57:48Z</time>
      </trkpt>
      <trkpt lat="48.55139" lon="-3.41889">
        <ele>152.8</ele>
        <time>2020-06-10T15:57:49Z</time>
      </trkpt>
      <trkpt lat="48.55137" lon="-3.41882">
        <ele>153.1</ele>
        <time>2020-06-10T15:57:50Z</time>
      </trkpt>
      <trkpt lat="48.55136" lon="-3.41875">
        <ele>153.3</ele>
        <time>2020-06-10T15:57:51Z</time>
      </trkpt>
      <trkpt lat="48.55134" lon="-3.41868">
        <ele>153.4</ele>
        <time>2020-06-10T15:57:52Z</time>
      </trkpt>
      <trkpt lat="48.55132" lon="-3.41858">
        <ele>153.7</ele>
        <time>2020-06-10T15:57:53Z</time>
      </trkpt>
      <trkpt lat="48.55131" lon="-3.41852">
        <ele>153.8</ele>
        <time>2020-06-10T15:57:54Z</time>
      </trkpt>
      <trkpt lat="48.55129" lon="-3.41845">
        <ele>154.1</ele>
        <time>2020-06-10T15:57:55Z</time>
      </trkpt>
      <trkpt lat="48.55127" lon="-3.4184">
        <ele>154.3</ele>
        <time>2020-06-10T15:57:56Z</time>
      </trkpt>
      <trkpt lat="48.55126" lon="-3.41834">
        <ele>154.5</ele>
        <time>2020-06-10T15:57:57Z</time>
      </trkpt>
      <trkpt lat="48.55125" lon="-3.41829">
        <ele>154.7</ele>
        <time>2020-06-10T15:57:58Z</time>
      </trkpt>
      <trkpt lat="48.55124" lon="-3.41824">
        <ele>154.8</ele>
        <time>2020-06-10T15:57:59Z</time>
      </trkpt>
      <trkpt lat="48.55123" lon="-3.41819">
        <ele>154.9</ele>
        <time>2020-06-10T15:58:00Z</time>
      </trkpt>
      <trkpt lat="48.55122" lon="-3.41814">
        <ele>155</ele>
        <time>2020-06-10T15:58:01Z</time>
      </trkpt>
      <trkpt lat="48.55121" lon="-3.41808">
        <ele>155.2</ele>
        <time>2020-06-10T15:58:02Z</time>
      </trkpt>
      <trkpt lat="48.5512" lon="-3.41801">
        <ele>155.4</ele>
        <time>2020-06-10T15:58:03Z</time>
      </trkpt>
      <trkpt lat="48.5512" lon="-3.41794">
        <ele>155.5</ele>
        <time>2020-06-10T15:58:04Z</time>
      </trkpt>
      <trkpt lat="48.5512" lon="-3.41788">
        <ele>155.7</ele>
        <time>2020-06-10T15:58:05Z</time>
      </trkpt>
      <trkpt lat="48.55119" lon="-3.4178">
        <ele>155.9</ele>
        <time>2020-06-10T15:58:06Z</time>
      </trkpt>
      <trkpt lat="48.55118" lon="-3.41776">
        <ele>156</ele>
        <time>2020-06-10T15:58:07Z</time>
      </trkpt>
      <trkpt lat="48.55116" lon="-3.41773">
        <ele>156.1</ele>
        <time>2020-06-10T15:58:08Z</time>
      </trkpt>
      <trkpt lat="48.55115" lon="-3.41766">
        <ele>156.3</ele>
        <time>2020-06-10T15:58:09Z</time>
      </trkpt>
      <trkpt lat="48.55115" lon="-3.4176">
        <ele>156.5</ele>
        <time>2020-06-10T15:58:10Z</time>
      </trkpt>
      <trkpt lat="48.55114" lon="-3.41753">
        <ele>156.7</ele>
        <time>2020-06-10T15:58:11Z</time>
      </trkpt>
      <trkpt lat="48.55112" lon="-3.41748">
        <ele>156.8</ele>
        <time>2020-06-10T15:58:12Z</time>
      </trkpt>
      <trkpt lat="48.55111" lon="-3.41743">
        <ele>156.9</ele>
        <time>2020-06-10T15:58:13Z</time>
      </trkpt>
      <trkpt lat="48.5511" lon="-3.41736">
        <ele>157.1</ele>
        <time>2020-06-10T15:58:14Z</time>
      </trkpt>
      <trkpt lat="48.55109" lon="-3.4173">
        <ele>157.3</ele>
        <time>2020-06-10T15:58:15Z</time>
      </trkpt>
      <trkpt lat="48.55108" lon="-3.41723">
        <ele>157.5</ele>
        <time>2020-06-10T15:58:16Z</time>
      </trkpt>
      <trkpt lat="48.55106" lon="-3.41716">
        <ele>157.6</ele>
        <time>2020-06-10T15:58:17Z</time>
      </trkpt>
      <trkpt lat="48.55106" lon="-3.4171">
        <ele>157.8</ele>
        <time>2020-06-10T15:58:18Z</time>
      </trkpt>
      <trkpt lat="48.55105" lon="-3.41703">
        <ele>158</ele>
        <time>2020-06-10T15:58:19Z</time>
      </trkpt>
      <trkpt lat="48.55104" lon="-3.41698">
        <ele>158.1</ele>
        <time>2020-06-10T15:58:20Z</time>
      </trkpt>
      <trkpt lat="48.55103" lon="-3.41692">
        <ele>158.2</ele>
        <time>2020-06-10T15:58:21Z</time>
      </trkpt>
      <trkpt lat="48.55102" lon="-3.41687">
        <ele>158.3</ele>
        <time>2020-06-10T15:58:22Z</time>
      </trkpt>
      <trkpt lat="48.55101" lon="-3.41681">
        <ele>158.5</ele>
        <time>2020-06-10T15:58:23Z</time>
      </trkpt>
      <trkpt lat="48.551" lon="-3.41675">
        <ele>158.6</ele>
        <time>2020-06-10T15:58:24Z</time>
      </trkpt>
      <trkpt lat="48.55099" lon="-3.4167">
        <ele>158.7</ele>
        <time>2020-06-10T15:58:25Z</time>
      </trkpt>
      <trkpt lat="48.55098" lon="-3.41664">
        <ele>158.8</ele>
        <time>2020-06-10T15:58:26Z</time>
      </trkpt>
      <trkpt lat="48.55097" lon="-3.41658">
        <ele>158.9</ele>
        <time>2020-06-10T15:58:27Z</time>
      </trkpt>
      <trkpt lat="48.55096" lon="-3.41652">
        <ele>158.9</ele>
        <time>2020-06-10T15:58:28Z</time>
      </trkpt>
      <trkpt lat="48.55094" lon="-3.41647">
        <ele>159</ele>
        <time>2020-06-10T15:58:29Z</time>
      </trkpt>
      <trkpt lat="48.55093" lon="-3.41643">
        <ele>159</ele>
        <time>2020-06-10T15:58:30Z</time>
      </trkpt>
      <trkpt lat="48.55092" lon="-3.41637">
        <ele>159</ele>
        <time>2020-06-10T15:58:31Z</time>
      </trkpt>
      <trkpt lat="48.55091" lon="-3.41632">
        <ele>159</ele>
        <time>2020-06-10T15:58:32Z</time>
      </trkpt>
      <trkpt lat="48.5509" lon="-3.41627">
        <ele>159</ele>
        <time>2020-06-10T15:58:33Z</time>
      </trkpt>
      <trkpt lat="48.55089" lon="-3.4162">
        <ele>159</ele>
        <time>2020-06-10T15:58:34Z</time>
      </trkpt>
      <trkpt lat="48.55088" lon="-3.41615">
        <ele>159.1</ele>
        <time>2020-06-10T15:58:35Z</time>
      </trkpt>
      <trkpt lat="48.55087" lon="-3.41609">
        <ele>159.1</ele>
        <time>2020-06-10T15:58:36Z</time>
      </trkpt>
      <trkpt lat="48.55086" lon="-3.41603">
        <ele>159.1</ele>
        <time>2020-06-10T15:58:37Z</time>
      </trkpt>
      <trkpt lat="48.55085" lon="-3.41596">
        <ele>159.1</ele>
        <time>2020-06-10T15:58:38Z</time>
      </trkpt>
      <trkpt lat="48.55084" lon="-3.41593">
        <ele>159.1</ele>
        <time>2020-06-10T15:58:39Z</time>
      </trkpt>
      <trkpt lat="48.55082" lon="-3.41587">
        <ele>159</ele>
        <time>2020-06-10T15:58:40Z</time>
      </trkpt>
      <trkpt lat="48.55081" lon="-3.41581">
        <ele>158.9</ele>
        <time>2020-06-10T15:58:41Z</time>
      </trkpt>
      <trkpt lat="48.5508" lon="-3.41574">
        <ele>158.8</ele>
        <time>2020-06-10T15:58:42Z</time>
      </trkpt>
      <trkpt lat="48.55079" lon="-3.41568">
        <ele>158.6</ele>
        <time>2020-06-10T15:58:43Z</time>
      </trkpt>
      <trkpt lat="48.55077" lon="-3.41563">
        <ele>158.5</ele>
        <time>2020-06-10T15:58:44Z</time>
      </trkpt>
      <trkpt lat="48.55076" lon="-3.41556">
        <ele>158.3</ele>
        <time>2020-06-10T15:58:45Z</time>
      </trkpt>
      <trkpt lat="48.55075" lon="-3.41549">
        <ele>158.2</ele>
        <time>2020-06-10T15:58:46Z</time>
      </trkpt>
      <trkpt lat="48.55073" lon="-3.41542">
        <ele>158.1</ele>
        <time>2020-06-10T15:58:47Z</time>
      </trkpt>
      <trkpt lat="48.55073" lon="-3.41537">
        <ele>158</ele>
        <time>2020-06-10T15:58:48Z</time>
      </trkpt>
      <trkpt lat="48.55071" lon="-3.41532">
        <ele>157.9</ele>
        <time>2020-06-10T15:58:49Z</time>
      </trkpt>
      <trkpt lat="48.5507" lon="-3.41527">
        <ele>157.8</ele>
        <time>2020-06-10T15:58:50Z</time>
      </trkpt>
      <trkpt lat="48.55069" lon="-3.41521">
        <ele>157.6</ele>
        <time>2020-06-10T15:58:51Z</time>
      </trkpt>
      <trkpt lat="48.55068" lon="-3.41513">
        <ele>157.4</ele>
        <time>2020-06-10T15:58:52Z</time>
      </trkpt>
      <trkpt lat="48.55066" lon="-3.41509">
        <ele>157.3</ele>
        <time>2020-06-10T15:58:53Z</time>
      </trkpt>
      <trkpt lat="48.55065" lon="-3.41502">
        <ele>157.1</ele>
        <time>2020-06-10T15:58:54Z</time>
      </trkpt>
      <trkpt lat="48.55065" lon="-3.41494">
        <ele>156.9</ele>
        <time>2020-06-10T15:58:55Z</time>
      </trkpt>
      <trkpt lat="48.55064" lon="-3.41484">
        <ele>156.6</ele>
        <time>2020-06-10T15:58:56Z</time>
      </trkpt>
      <trkpt lat="48.55063" lon="-3.41475">
        <ele>156.3</ele>
        <time>2020-06-10T15:58:57Z</time>
      </trkpt>
      <trkpt lat="48.55061" lon="-3.41466">
        <ele>156</ele>
        <time>2020-06-10T15:58:58Z</time>
      </trkpt>
      <trkpt lat="48.5506" lon="-3.41456">
        <ele>155.7</ele>
        <time>2020-06-10T15:58:59Z</time>
      </trkpt>
      <trkpt lat="48.55059" lon="-3.41449">
        <ele>155.5</ele>
        <time>2020-06-10T15:59:00Z</time>
      </trkpt>
      <trkpt lat="48.55057" lon="-3.41443">
        <ele>155.2</ele>
        <time>2020-06-10T15:59:01Z</time>
      </trkpt>
      <trkpt lat="48.55055" lon="-3.41433">
        <ele>154.8</ele>
        <time>2020-06-10T15:59:02Z</time>
      </trkpt>
      <trkpt lat="48.55054" lon="-3.41423">
        <ele>154.4</ele>
        <time>2020-06-10T15:59:03Z</time>
      </trkpt>
      <trkpt lat="48.55052" lon="-3.41412">
        <ele>154</ele>
        <time>2020-06-10T15:59:04Z</time>
      </trkpt>
      <trkpt lat="48.55051" lon="-3.41402">
        <ele>153.5</ele>
        <time>2020-06-10T15:59:05Z</time>
      </trkpt>
      <trkpt lat="48.55049" lon="-3.41393">
        <ele>153.1</ele>
        <time>2020-06-10T15:59:06Z</time>
      </trkpt>
      <trkpt lat="48.55048" lon="-3.41386">
        <ele>152.8</ele>
        <time>2020-06-10T15:59:07Z</time>
      </trkpt>
      <trkpt lat="48.55047" lon="-3.4138">
        <ele>152.5</ele>
        <time>2020-06-10T15:59:08Z</time>
      </trkpt>
      <trkpt lat="48.55045" lon="-3.41371">
        <ele>152.1</ele>
        <time>2020-06-10T15:59:09Z</time>
      </trkpt>
      <trkpt lat="48.55043" lon="-3.41362">
        <ele>151.7</ele>
        <time>2020-06-10T15:59:10Z</time>
      </trkpt>
      <trkpt lat="48.55041" lon="-3.41351">
        <ele>151.2</ele>
        <time>2020-06-10T15:59:11Z</time>
      </trkpt>
      <trkpt lat="48.55039" lon="-3.41339">
        <ele>150.7</ele>
        <time>2020-06-10T15:59:12Z</time>
      </trkpt>
      <trkpt lat="48.55038" lon="-3.4133">
        <ele>150.3</ele>
        <time>2020-06-10T15:59:13Z</time>
      </trkpt>
      <trkpt lat="48.55036" lon="-3.41318">
        <ele>149.8</ele>
        <time>2020-06-10T15:59:14Z</time>
      </trkpt>
      <trkpt lat="48.55034" lon="-3.41307">
        <ele>149.4</ele>
        <time>2020-06-10T15:59:15Z</time>
      </trkpt>
      <trkpt lat="48.55032" lon="-3.41298">
        <ele>149</ele>
        <time>2020-06-10T15:59:16Z</time>
      </trkpt>
      <trkpt lat="48.5503" lon="-3.41289">
        <ele>148.7</ele>
        <time>2020-06-10T15:59:17Z</time>
      </trkpt>
      <trkpt lat="48.55028" lon="-3.41279">
        <ele>148.3</ele>
        <time>2020-06-10T15:59:18Z</time>
      </trkpt>
      <trkpt lat="48.55026" lon="-3.4127">
        <ele>148</ele>
        <time>2020-06-10T15:59:19Z</time>
      </trkpt>
      <trkpt lat="48.55025" lon="-3.4126">
        <ele>147.6</ele>
        <time>2020-06-10T15:59:20Z</time>
      </trkpt>
      <trkpt lat="48.55022" lon="-3.41251">
        <ele>147.3</ele>
        <time>2020-06-10T15:59:21Z</time>
      </trkpt>
      <trkpt lat="48.55021" lon="-3.41241">
        <ele>146.9</ele>
        <time>2020-06-10T15:59:22Z</time>
      </trkpt>
      <trkpt lat="48.55019" lon="-3.41232">
        <ele>146.7</ele>
        <time>2020-06-10T15:59:23Z</time>
      </trkpt>
      <trkpt lat="48.55018" lon="-3.41222">
        <ele>146.4</ele>
        <time>2020-06-10T15:59:24Z</time>
      </trkpt>
      <trkpt lat="48.55016" lon="-3.41213">
        <ele>146.1</ele>
        <time>2020-06-10T15:59:25Z</time>
      </trkpt>
      <trkpt lat="48.55014" lon="-3.41203">
        <ele>145.8</ele>
        <time>2020-06-10T15:59:26Z</time>
      </trkpt>
      <trkpt lat="48.55013" lon="-3.41194">
        <ele>145.5</ele>
        <time>2020-06-10T15:59:27Z</time>
      </trkpt>
      <trkpt lat="48.55012" lon="-3.41184">
        <ele>145.2</ele>
        <time>2020-06-10T15:59:28Z</time>
      </trkpt>
      <trkpt lat="48.55011" lon="-3.41175">
        <ele>144.9</ele>
        <time>2020-06-10T15:59:29Z</time>
      </trkpt>
      <trkpt lat="48.55011" lon="-3.41166">
        <ele>144.6</ele>
        <time>2020-06-10T15:59:30Z</time>
      </trkpt>
      <trkpt lat="48.5501" lon="-3.41156">
        <ele>144.3</ele>
        <time>2020-06-10T15:59:31Z</time>
      </trkpt>
      <trkpt lat="48.55009" lon="-3.41146">
        <ele>144</ele>
        <time>2020-06-10T15:59:32Z</time>
      </trkpt>
      <trkpt lat="48.55008" lon="-3.41136">
        <ele>143.7</ele>
        <time>2020-06-10T15:59:33Z</time>
      </trkpt>
      <trkpt lat="48.55007" lon="-3.41126">
        <ele>143.3</ele>
        <time>2020-06-10T15:59:34Z</time>
      </trkpt>
      <trkpt lat="48.55007" lon="-3.41116">
        <ele>143</ele>
        <time>2020-06-10T15:59:35Z</time>
      </trkpt>
      <trkpt lat="48.55008" lon="-3.41106">
        <ele>142.7</ele>
        <time>2020-06-10T15:59:36Z</time>
      </trkpt>
      <trkpt lat="48.55009" lon="-3.41095">
        <ele>142.4</ele>
        <time>2020-06-10T15:59:37Z</time>
      </trkpt>
      <trkpt lat="48.5501" lon="-3.41085">
        <ele>142.1</ele>
        <time>2020-06-10T15:59:38Z</time>
      </trkpt>
      <trkpt lat="48.55011" lon="-3.41074">
        <ele>141.8</ele>
        <time>2020-06-10T15:59:39Z</time>
      </trkpt>
      <trkpt lat="48.55012" lon="-3.41063">
        <ele>141.5</ele>
        <time>2020-06-10T15:59:40Z</time>
      </trkpt>
      <trkpt lat="48.55013" lon="-3.41052">
        <ele>141.1</ele>
        <time>2020-06-10T15:59:41Z</time>
      </trkpt>
      <trkpt lat="48.55014" lon="-3.41042">
        <ele>140.8</ele>
        <time>2020-06-10T15:59:42Z</time>
      </trkpt>
      <trkpt lat="48.55016" lon="-3.41031">
        <ele>140.5</ele>
        <time>2020-06-10T15:59:43Z</time>
      </trkpt>
      <trkpt lat="48.55017" lon="-3.4102">
        <ele>140.2</ele>
        <time>2020-06-10T15:59:44Z</time>
      </trkpt>
      <trkpt lat="48.55019" lon="-3.41009">
        <ele>139.9</ele>
        <time>2020-06-10T15:59:45Z</time>
      </trkpt>
      <trkpt lat="48.5502" lon="-3.40998">
        <ele>139.5</ele>
        <time>2020-06-10T15:59:46Z</time>
      </trkpt>
      <trkpt lat="48.55021" lon="-3.40986">
        <ele>139.1</ele>
        <time>2020-06-10T15:59:47Z</time>
      </trkpt>
      <trkpt lat="48.55022" lon="-3.40974">
        <ele>138.8</ele>
        <time>2020-06-10T15:59:48Z</time>
      </trkpt>
      <trkpt lat="48.55024" lon="-3.40962">
        <ele>138.4</ele>
        <time>2020-06-10T15:59:49Z</time>
      </trkpt>
      <trkpt lat="48.55025" lon="-3.4095">
        <ele>138.1</ele>
        <time>2020-06-10T15:59:50Z</time>
      </trkpt>
      <trkpt lat="48.55026" lon="-3.40938">
        <ele>137.8</ele>
        <time>2020-06-10T15:59:51Z</time>
      </trkpt>
      <trkpt lat="48.55027" lon="-3.40925">
        <ele>137.5</ele>
        <time>2020-06-10T15:59:52Z</time>
      </trkpt>
      <trkpt lat="48.55028" lon="-3.40913">
        <ele>137.1</ele>
        <time>2020-06-10T15:59:53Z</time>
      </trkpt>
      <trkpt lat="48.55029" lon="-3.40901">
        <ele>136.8</ele>
        <time>2020-06-10T15:59:54Z</time>
      </trkpt>
      <trkpt lat="48.5503" lon="-3.40888">
        <ele>136.5</ele>
        <time>2020-06-10T15:59:55Z</time>
      </trkpt>
      <trkpt lat="48.5503" lon="-3.40875">
        <ele>136.3</ele>
        <time>2020-06-10T15:59:56Z</time>
      </trkpt>
      <trkpt lat="48.5503" lon="-3.40861">
        <ele>136.1</ele>
        <time>2020-06-10T15:59:57Z</time>
      </trkpt>
      <trkpt lat="48.55029" lon="-3.40848">
        <ele>135.8</ele>
        <time>2020-06-10T15:59:58Z</time>
      </trkpt>
      <trkpt lat="48.55028" lon="-3.40834">
        <ele>135.6</ele>
        <time>2020-06-10T15:59:59Z</time>
      </trkpt>
      <trkpt lat="48.55026" lon="-3.40821">
        <ele>135.4</ele>
        <time>2020-06-10T16:00:00Z</time>
      </trkpt>
      <trkpt lat="48.55025" lon="-3.40808">
        <ele>135.2</ele>
        <time>2020-06-10T16:00:01Z</time>
      </trkpt>
      <trkpt lat="48.55023" lon="-3.40795">
        <ele>134.9</ele>
        <time>2020-06-10T16:00:02Z</time>
      </trkpt>
      <trkpt lat="48.55019" lon="-3.40782">
        <ele>134.7</ele>
        <time>2020-06-10T16:00:03Z</time>
      </trkpt>
      <trkpt lat="48.55016" lon="-3.4077">
        <ele>134.5</ele>
        <time>2020-06-10T16:00:04Z</time>
      </trkpt>
      <trkpt lat="48.55013" lon="-3.40758">
        <ele>134.4</ele>
        <time>2020-06-10T16:00:05Z</time>
      </trkpt>
      <trkpt lat="48.5501" lon="-3.40747">
        <ele>134.2</ele>
        <time>2020-06-10T16:00:06Z</time>
      </trkpt>
      <trkpt lat="48.55006" lon="-3.40736">
        <ele>134.1</ele>
        <time>2020-06-10T16:00:07Z</time>
      </trkpt>
      <trkpt lat="48.55002" lon="-3.40725">
        <ele>133.9</ele>
        <time>2020-06-10T16:00:08Z</time>
      </trkpt>
      <trkpt lat="48.54998" lon="-3.40714">
        <ele>133.6</ele>
        <time>2020-06-10T16:00:09Z</time>
      </trkpt>
      <trkpt lat="48.54993" lon="-3.40703">
        <ele>133.3</ele>
        <time>2020-06-10T16:00:10Z</time>
      </trkpt>
      <trkpt lat="48.54989" lon="-3.40692">
        <ele>133.1</ele>
        <time>2020-06-10T16:00:11Z</time>
      </trkpt>
      <trkpt lat="48.54985" lon="-3.40681">
        <ele>132.6</ele>
        <time>2020-06-10T16:00:12Z</time>
      </trkpt>
      <trkpt lat="48.5498" lon="-3.40671">
        <ele>132.4</ele>
        <time>2020-06-10T16:00:13Z</time>
      </trkpt>
      <trkpt lat="48.54974" lon="-3.40661">
        <ele>132.2</ele>
        <time>2020-06-10T16:00:14Z</time>
      </trkpt>
      <trkpt lat="48.54968" lon="-3.40653">
        <ele>131.9</ele>
        <time>2020-06-10T16:00:15Z</time>
      </trkpt>
      <trkpt lat="48.54961" lon="-3.40646">
        <ele>131.7</ele>
        <time>2020-06-10T16:00:16Z</time>
      </trkpt>
      <trkpt lat="48.54954" lon="-3.40638">
        <ele>131.4</ele>
        <time>2020-06-10T16:00:17Z</time>
      </trkpt>
      <trkpt lat="48.54947" lon="-3.40631">
        <ele>131.1</ele>
        <time>2020-06-10T16:00:18Z</time>
      </trkpt>
      <trkpt lat="48.5494" lon="-3.40623">
        <ele>130.7</ele>
        <time>2020-06-10T16:00:19Z</time>
      </trkpt>
      <trkpt lat="48.54933" lon="-3.40616">
        <ele>130.4</ele>
        <time>2020-06-10T16:00:20Z</time>
      </trkpt>
      <trkpt lat="48.54927" lon="-3.40608">
        <ele>130.1</ele>
        <time>2020-06-10T16:00:21Z</time>
      </trkpt>
      <trkpt lat="48.54921" lon="-3.40602">
        <ele>129.8</ele>
        <time>2020-06-10T16:00:22Z</time>
      </trkpt>
      <trkpt lat="48.54915" lon="-3.40596">
        <ele>129.5</ele>
        <time>2020-06-10T16:00:23Z</time>
      </trkpt>
      <trkpt lat="48.54909" lon="-3.4059">
        <ele>129.4</ele>
        <time>2020-06-10T16:00:24Z</time>
      </trkpt>
      <trkpt lat="48.54904" lon="-3.40585">
        <ele>129.6</ele>
        <time>2020-06-10T16:00:25Z</time>
      </trkpt>
      <trkpt lat="48.54898" lon="-3.4058">
        <ele>129.8</ele>
        <time>2020-06-10T16:00:26Z</time>
      </trkpt>
      <trkpt lat="48.54893" lon="-3.40575">
        <ele>129.8</ele>
        <time>2020-06-10T16:00:27Z</time>
      </trkpt>
      <trkpt lat="48.54888" lon="-3.4057">
        <ele>129.3</ele>
        <time>2020-06-10T16:00:28Z</time>
      </trkpt>
      <trkpt lat="48.54882" lon="-3.40566">
        <ele>128.7</ele>
        <time>2020-06-10T16:00:29Z</time>
      </trkpt>
      <trkpt lat="48.54876" lon="-3.40561">
        <ele>128</ele>
        <time>2020-06-10T16:00:30Z</time>
      </trkpt>
      <trkpt lat="48.54869" lon="-3.40555">
        <ele>127.3</ele>
        <time>2020-06-10T16:00:31Z</time>
      </trkpt>
      <trkpt lat="48.54863" lon="-3.4055">
        <ele>126.5</ele>
        <time>2020-06-10T16:00:32Z</time>
      </trkpt>
      <trkpt lat="48.54856" lon="-3.40544">
        <ele>125.7</ele>
        <time>2020-06-10T16:00:33Z</time>
      </trkpt>
      <trkpt lat="48.54849" lon="-3.40538">
        <ele>124.2</ele>
        <time>2020-06-10T16:00:34Z</time>
      </trkpt>
      <trkpt lat="48.54842" lon="-3.40533">
        <ele>123.7</ele>
        <time>2020-06-10T16:00:35Z</time>
      </trkpt>
      <trkpt lat="48.54836" lon="-3.40528">
        <ele>123.2</ele>
        <time>2020-06-10T16:00:36Z</time>
      </trkpt>
      <trkpt lat="48.5483" lon="-3.40522">
        <ele>122.8</ele>
        <time>2020-06-10T16:00:37Z</time>
      </trkpt>
      <trkpt lat="48.54824" lon="-3.40517">
        <ele>122.3</ele>
        <time>2020-06-10T16:00:38Z</time>
      </trkpt>
      <trkpt lat="48.54818" lon="-3.40512">
        <ele>121.8</ele>
        <time>2020-06-10T16:00:39Z</time>
      </trkpt>
      <trkpt lat="48.54812" lon="-3.40507">
        <ele>121.4</ele>
        <time>2020-06-10T16:00:40Z</time>
      </trkpt>
      <trkpt lat="48.54805" lon="-3.40501">
        <ele>120.9</ele>
        <time>2020-06-10T16:00:41Z</time>
      </trkpt>
      <trkpt lat="48.54799" lon="-3.40495">
        <ele>120.3</ele>
        <time>2020-06-10T16:00:42Z</time>
      </trkpt>
      <trkpt lat="48.54792" lon="-3.40488">
        <ele>119.8</ele>
        <time>2020-06-10T16:00:43Z</time>
      </trkpt>
      <trkpt lat="48.54785" lon="-3.40481">
        <ele>119.2</ele>
        <time>2020-06-10T16:00:44Z</time>
      </trkpt>
      <trkpt lat="48.54778" lon="-3.40473">
        <ele>118.7</ele>
        <time>2020-06-10T16:00:45Z</time>
      </trkpt>
      <trkpt lat="48.5477" lon="-3.40465">
        <ele>118.1</ele>
        <time>2020-06-10T16:00:46Z</time>
      </trkpt>
      <trkpt lat="48.54762" lon="-3.40457">
        <ele>117.6</ele>
        <time>2020-06-10T16:00:47Z</time>
      </trkpt>
      <trkpt lat="48.54755" lon="-3.40449">
        <ele>117</ele>
        <time>2020-06-10T16:00:48Z</time>
      </trkpt>
      <trkpt lat="48.54748" lon="-3.40439">
        <ele>116.5</ele>
        <time>2020-06-10T16:00:49Z</time>
      </trkpt>
      <trkpt lat="48.54741" lon="-3.4043">
        <ele>116</ele>
        <time>2020-06-10T16:00:50Z</time>
      </trkpt>
      <trkpt lat="48.54734" lon="-3.40421">
        <ele>115.5</ele>
        <time>2020-06-10T16:00:51Z</time>
      </trkpt>
      <trkpt lat="48.54727" lon="-3.40411">
        <ele>115</ele>
        <time>2020-06-10T16:00:52Z</time>
      </trkpt>
      <trkpt lat="48.54721" lon="-3.404">
        <ele>114.4</ele>
        <time>2020-06-10T16:00:53Z</time>
      </trkpt>
      <trkpt lat="48.54715" lon="-3.40387">
        <ele>113.9</ele>
        <time>2020-06-10T16:00:54Z</time>
      </trkpt>
      <trkpt lat="48.5471" lon="-3.40374">
        <ele>113.4</ele>
        <time>2020-06-10T16:00:55Z</time>
      </trkpt>
      <trkpt lat="48.54706" lon="-3.4036">
        <ele>113</ele>
        <time>2020-06-10T16:00:56Z</time>
      </trkpt>
      <trkpt lat="48.54702" lon="-3.40347">
        <ele>112.5</ele>
        <time>2020-06-10T16:00:57Z</time>
      </trkpt>
      <trkpt lat="48.54699" lon="-3.40333">
        <ele>112.1</ele>
        <time>2020-06-10T16:00:58Z</time>
      </trkpt>
      <trkpt lat="48.54696" lon="-3.40319">
        <ele>111.6</ele>
        <time>2020-06-10T16:00:59Z</time>
      </trkpt>
      <trkpt lat="48.5469" lon="-3.40307">
        <ele>111.1</ele>
        <time>2020-06-10T16:01:00Z</time>
      </trkpt>
      <trkpt lat="48.54683" lon="-3.40297">
        <ele>110.6</ele>
        <time>2020-06-10T16:01:01Z</time>
      </trkpt>
      <trkpt lat="48.54676" lon="-3.40287">
        <ele>110.1</ele>
        <time>2020-06-10T16:01:02Z</time>
      </trkpt>
      <trkpt lat="48.54668" lon="-3.40278">
        <ele>109.6</ele>
        <time>2020-06-10T16:01:03Z</time>
      </trkpt>
      <trkpt lat="48.5466" lon="-3.40269">
        <ele>109.1</ele>
        <time>2020-06-10T16:01:04Z</time>
      </trkpt>
      <trkpt lat="48.54653" lon="-3.40258">
        <ele>108.6</ele>
        <time>2020-06-10T16:01:05Z</time>
      </trkpt>
      <trkpt lat="48.54649" lon="-3.40246">
        <ele>108.1</ele>
        <time>2020-06-10T16:01:06Z</time>
      </trkpt>
      <trkpt lat="48.54648" lon="-3.40232">
        <ele>107.7</ele>
        <time>2020-06-10T16:01:07Z</time>
      </trkpt>
      <trkpt lat="48.54647" lon="-3.40219">
        <ele>107.2</ele>
        <time>2020-06-10T16:01:08Z</time>
      </trkpt>
      <trkpt lat="48.5465" lon="-3.40206">
        <ele>106.7</ele>
        <time>2020-06-10T16:01:09Z</time>
      </trkpt>
      <trkpt lat="48.54652" lon="-3.40193">
        <ele>106.2</ele>
        <time>2020-06-10T16:01:10Z</time>
      </trkpt>
      <trkpt lat="48.54656" lon="-3.4018">
        <ele>105.7</ele>
        <time>2020-06-10T16:01:11Z</time>
      </trkpt>
      <trkpt lat="48.5466" lon="-3.40167">
        <ele>105.2</ele>
        <time>2020-06-10T16:01:12Z</time>
      </trkpt>
      <trkpt lat="48.54666" lon="-3.40155">
        <ele>104.8</ele>
        <time>2020-06-10T16:01:13Z</time>
      </trkpt>
      <trkpt lat="48.54674" lon="-3.40148">
        <ele>104.3</ele>
        <time>2020-06-10T16:01:14Z</time>
      </trkpt>
      <trkpt lat="48.54683" lon="-3.40139">
        <ele>103.8</ele>
        <time>2020-06-10T16:01:15Z</time>
      </trkpt>
      <trkpt lat="48.5469" lon="-3.40129">
        <ele>103.4</ele>
        <time>2020-06-10T16:01:16Z</time>
      </trkpt>
      <trkpt lat="48.54698" lon="-3.40119">
        <ele>102.9</ele>
        <time>2020-06-10T16:01:17Z</time>
      </trkpt>
      <trkpt lat="48.54703" lon="-3.40107">
        <ele>102.4</ele>
        <time>2020-06-10T16:01:18Z</time>
      </trkpt>
      <trkpt lat="48.54706" lon="-3.40093">
        <ele>101.9</ele>
        <time>2020-06-10T16:01:19Z</time>
      </trkpt>
      <trkpt lat="48.54707" lon="-3.40078">
        <ele>101.4</ele>
        <time>2020-06-10T16:01:20Z</time>
      </trkpt>
      <trkpt lat="48.54707" lon="-3.40064">
        <ele>100.9</ele>
        <time>2020-06-10T16:01:21Z</time>
      </trkpt>
      <trkpt lat="48.54704" lon="-3.4005">
        <ele>100.3</ele>
        <time>2020-06-10T16:01:22Z</time>
      </trkpt>
      <trkpt lat="48.54699" lon="-3.40037">
        <ele>99.9</ele>
        <time>2020-06-10T16:01:23Z</time>
      </trkpt>
      <trkpt lat="48.54694" lon="-3.40024">
        <ele>99.3</ele>
        <time>2020-06-10T16:01:24Z</time>
      </trkpt>
      <trkpt lat="48.54689" lon="-3.40011">
        <ele>99</ele>
        <time>2020-06-10T16:01:25Z</time>
      </trkpt>
      <trkpt lat="48.54683" lon="-3.39999">
        <ele>98.8</ele>
        <time>2020-06-10T16:01:26Z</time>
      </trkpt>
      <trkpt lat="48.54677" lon="-3.39987">
        <ele>98.3</ele>
        <time>2020-06-10T16:01:27Z</time>
      </trkpt>
      <trkpt lat="48.5467" lon="-3.39977">
        <ele>97.7</ele>
        <time>2020-06-10T16:01:28Z</time>
      </trkpt>
      <trkpt lat="48.54663" lon="-3.39968">
        <ele>97.1</ele>
        <time>2020-06-10T16:01:29Z</time>
      </trkpt>
      <trkpt lat="48.54656" lon="-3.3996">
        <ele>96.5</ele>
        <time>2020-06-10T16:01:30Z</time>
      </trkpt>
      <trkpt lat="48.54648" lon="-3.39952">
        <ele>96</ele>
        <time>2020-06-10T16:01:31Z</time>
      </trkpt>
      <trkpt lat="48.5464" lon="-3.39944">
        <ele>95.4</ele>
        <time>2020-06-10T16:01:32Z</time>
      </trkpt>
      <trkpt lat="48.54632" lon="-3.39937">
        <ele>94.8</ele>
        <time>2020-06-10T16:01:33Z</time>
      </trkpt>
      <trkpt lat="48.54624" lon="-3.39931">
        <ele>94.3</ele>
        <time>2020-06-10T16:01:34Z</time>
      </trkpt>
      <trkpt lat="48.54617" lon="-3.39923">
        <ele>93.8</ele>
        <time>2020-06-10T16:01:35Z</time>
      </trkpt>
      <trkpt lat="48.54608" lon="-3.39918">
        <ele>93.3</ele>
        <time>2020-06-10T16:01:36Z</time>
      </trkpt>
      <trkpt lat="48.546" lon="-3.39912">
        <ele>92.8</ele>
        <time>2020-06-10T16:01:37Z</time>
      </trkpt>
      <trkpt lat="48.54592" lon="-3.39905">
        <ele>92.5</ele>
        <time>2020-06-10T16:01:38Z</time>
      </trkpt>
      <trkpt lat="48.54584" lon="-3.39898">
        <ele>92.3</ele>
        <time>2020-06-10T16:01:39Z</time>
      </trkpt>
      <trkpt lat="48.54577" lon="-3.39892">
        <ele>92.2</ele>
        <time>2020-06-10T16:01:40Z</time>
      </trkpt>
      <trkpt lat="48.5457" lon="-3.39886">
        <ele>92</ele>
        <time>2020-06-10T16:01:41Z</time>
      </trkpt>
      <trkpt lat="48.54564" lon="-3.39879">
        <ele>91.8</ele>
        <time>2020-06-10T16:01:42Z</time>
      </trkpt>
      <trkpt lat="48.54558" lon="-3.39872">
        <ele>91.7</ele>
        <time>2020-06-10T16:01:43Z</time>
      </trkpt>
      <trkpt lat="48.54551" lon="-3.39866">
        <ele>91.5</ele>
        <time>2020-06-10T16:01:44Z</time>
      </trkpt>
      <trkpt lat="48.54544" lon="-3.39861">
        <ele>91.5</ele>
        <time>2020-06-10T16:01:45Z</time>
      </trkpt>
      <trkpt lat="48.54538" lon="-3.39855">
        <ele>91.4</ele>
        <time>2020-06-10T16:01:46Z</time>
      </trkpt>
      <trkpt lat="48.54531" lon="-3.39849">
        <ele>91.4</ele>
        <time>2020-06-10T16:01:47Z</time>
      </trkpt>
      <trkpt lat="48.54524" lon="-3.39844">
        <ele>91.4</ele>
        <time>2020-06-10T16:01:48Z</time>
      </trkpt>
      <trkpt lat="48.54518" lon="-3.39839">
        <ele>91.3</ele>
        <time>2020-06-10T16:01:49Z</time>
      </trkpt>
      <trkpt lat="48.54512" lon="-3.39833">
        <ele>91.3</ele>
        <time>2020-06-10T16:01:50Z</time>
      </trkpt>
      <trkpt lat="48.54505" lon="-3.39828">
        <ele>91.2</ele>
        <time>2020-06-10T16:01:51Z</time>
      </trkpt>
      <trkpt lat="48.54499" lon="-3.39823">
        <ele>91.2</ele>
        <time>2020-06-10T16:01:52Z</time>
      </trkpt>
      <trkpt lat="48.54493" lon="-3.39817">
        <ele>91.2</ele>
        <time>2020-06-10T16:01:53Z</time>
      </trkpt>
      <trkpt lat="48.54488" lon="-3.39812">
        <ele>91.1</ele>
        <time>2020-06-10T16:01:54Z</time>
      </trkpt>
      <trkpt lat="48.54482" lon="-3.39807">
        <ele>91.1</ele>
        <time>2020-06-10T16:01:55Z</time>
      </trkpt>
      <trkpt lat="48.54476" lon="-3.39802">
        <ele>91.1</ele>
        <time>2020-06-10T16:01:56Z</time>
      </trkpt>
      <trkpt lat="48.5447" lon="-3.39799">
        <ele>91.1</ele>
        <time>2020-06-10T16:01:57Z</time>
      </trkpt>
      <trkpt lat="48.54464" lon="-3.39794">
        <ele>91.1</ele>
        <time>2020-06-10T16:01:58Z</time>
      </trkpt>
      <trkpt lat="48.54459" lon="-3.3979">
        <ele>91.1</ele>
        <time>2020-06-10T16:01:59Z</time>
      </trkpt>
      <trkpt lat="48.54454" lon="-3.39786">
        <ele>91.2</ele>
        <time>2020-06-10T16:02:00Z</time>
      </trkpt>
      <trkpt lat="48.54448" lon="-3.39782">
        <ele>91.2</ele>
        <time>2020-06-10T16:02:01Z</time>
      </trkpt>
      <trkpt lat="48.54444" lon="-3.39779">
        <ele>91.3</ele>
        <time>2020-06-10T16:02:02Z</time>
      </trkpt>
      <trkpt lat="48.54439" lon="-3.39776">
        <ele>91.4</ele>
        <time>2020-06-10T16:02:03Z</time>
      </trkpt>
      <trkpt lat="48.54435" lon="-3.39774">
        <ele>91.4</ele>
        <time>2020-06-10T16:02:04Z</time>
      </trkpt>
      <trkpt lat="48.54431" lon="-3.39772">
        <ele>91.5</ele>
        <time>2020-06-10T16:02:05Z</time>
      </trkpt>
      <trkpt lat="48.54426" lon="-3.3977">
        <ele>91.6</ele>
        <time>2020-06-10T16:02:06Z</time>
      </trkpt>
      <trkpt lat="48.54422" lon="-3.39769">
        <ele>91.8</ele>
        <time>2020-06-10T16:02:07Z</time>
      </trkpt>
      <trkpt lat="48.54418" lon="-3.39769">
        <ele>91.9</ele>
        <time>2020-06-10T16:02:08Z</time>
      </trkpt>
      <trkpt lat="48.54413" lon="-3.39767">
        <ele>92.1</ele>
        <time>2020-06-10T16:02:09Z</time>
      </trkpt>
      <trkpt lat="48.54408" lon="-3.39766">
        <ele>92.2</ele>
        <time>2020-06-10T16:02:10Z</time>
      </trkpt>
      <trkpt lat="48.54407" lon="-3.3976">
        <ele>92.3</ele>
        <time>2020-06-10T16:02:11Z</time>
      </trkpt>
      <trkpt lat="48.54406" lon="-3.39755">
        <ele>92.5</ele>
        <time>2020-06-10T16:02:12Z</time>
      </trkpt>
      <trkpt lat="48.54406" lon="-3.39749">
        <ele>92.7</ele>
        <time>2020-06-10T16:02:13Z</time>
      </trkpt>
      <trkpt lat="48.54406" lon="-3.39742">
        <ele>92.9</ele>
        <time>2020-06-10T16:02:14Z</time>
      </trkpt>
      <trkpt lat="48.54407" lon="-3.39736">
        <ele>93.1</ele>
        <time>2020-06-10T16:02:15Z</time>
      </trkpt>
      <trkpt lat="48.54408" lon="-3.3973">
        <ele>93.3</ele>
        <time>2020-06-10T16:02:16Z</time>
      </trkpt>
      <trkpt lat="48.54409" lon="-3.39725">
        <ele>93.4</ele>
        <time>2020-06-10T16:02:17Z</time>
      </trkpt>
      <trkpt lat="48.5441" lon="-3.39721">
        <ele>93.4</ele>
        <time>2020-06-10T16:02:18Z</time>
      </trkpt>
      <trkpt lat="48.5441" lon="-3.39716">
        <ele>93.4</ele>
        <time>2020-06-10T16:02:19Z</time>
      </trkpt>
      <trkpt lat="48.54411" lon="-3.39712">
        <ele>93.4</ele>
        <time>2020-06-10T16:02:20Z</time>
      </trkpt>
      <trkpt lat="48.54411" lon="-3.39707">
        <ele>93.4</ele>
        <time>2020-06-10T16:02:21Z</time>
      </trkpt>
      <trkpt lat="48.54412" lon="-3.39701">
        <ele>93.4</ele>
        <time>2020-06-10T16:02:22Z</time>
      </trkpt>
      <trkpt lat="48.54414" lon="-3.39695">
        <ele>93.4</ele>
        <time>2020-06-10T16:02:23Z</time>
      </trkpt>
      <trkpt lat="48.54415" lon="-3.39688">
        <ele>93.4</ele>
        <time>2020-06-10T16:02:24Z</time>
      </trkpt>
      <trkpt lat="48.54415" lon="-3.39681">
        <ele>93.4</ele>
        <time>2020-06-10T16:02:25Z</time>
      </trkpt>
      <trkpt lat="48.54416" lon="-3.39674">
        <ele>93.4</ele>
        <time>2020-06-10T16:02:26Z</time>
      </trkpt>
      <trkpt lat="48.54416" lon="-3.39668">
        <ele>93.4</ele>
        <time>2020-06-10T16:02:27Z</time>
      </trkpt>
      <trkpt lat="48.54416" lon="-3.39663">
        <ele>93.4</ele>
        <time>2020-06-10T16:02:28Z</time>
      </trkpt>
      <trkpt lat="48.54415" lon="-3.39657">
        <ele>93.4</ele>
        <time>2020-06-10T16:02:29Z</time>
      </trkpt>
      <trkpt lat="48.54415" lon="-3.39651">
        <ele>93.4</ele>
        <time>2020-06-10T16:02:30Z</time>
      </trkpt>
      <trkpt lat="48.54416" lon="-3.39645">
        <ele>93.5</ele>
        <time>2020-06-10T16:02:31Z</time>
      </trkpt>
      <trkpt lat="48.54416" lon="-3.3964">
        <ele>93.6</ele>
        <time>2020-06-10T16:02:32Z</time>
      </trkpt>
      <trkpt lat="48.54417" lon="-3.39635">
        <ele>93.7</ele>
        <time>2020-06-10T16:02:33Z</time>
      </trkpt>
      <trkpt lat="48.54418" lon="-3.39631">
        <ele>93.7</ele>
        <time>2020-06-10T16:02:34Z</time>
      </trkpt>
      <trkpt lat="48.54419" lon="-3.39627">
        <ele>93.9</ele>
        <time>2020-06-10T16:02:35Z</time>
      </trkpt>
      <trkpt lat="48.5442" lon="-3.39621">
        <ele>93.9</ele>
        <time>2020-06-10T16:02:36Z</time>
      </trkpt>
      <trkpt lat="48.54421" lon="-3.3962">
        <ele>93.9</ele>
        <time>2020-06-10T16:02:37Z</time>
      </trkpt>
      <trkpt lat="48.54424" lon="-3.39618">
        <ele>93.8</ele>
        <time>2020-06-10T16:02:38Z</time>
      </trkpt>
      <trkpt lat="48.54426" lon="-3.39618">
        <ele>93.8</ele>
        <time>2020-06-10T16:02:39Z</time>
      </trkpt>
      <trkpt lat="48.54429" lon="-3.39617">
        <ele>93.8</ele>
        <time>2020-06-10T16:02:40Z</time>
      </trkpt>
      <trkpt lat="48.54433" lon="-3.39617">
        <ele>93.8</ele>
        <time>2020-06-10T16:02:41Z</time>
      </trkpt>
      <trkpt lat="48.54434" lon="-3.39616">
        <ele>93.8</ele>
        <time>2020-06-10T16:02:42Z</time>
      </trkpt>
      <trkpt lat="48.54437" lon="-3.39616">
        <ele>93.8</ele>
        <time>2020-06-10T16:02:43Z</time>
      </trkpt>
      <trkpt lat="48.5444" lon="-3.39615">
        <ele>93.8</ele>
        <time>2020-06-10T16:02:44Z</time>
      </trkpt>
      <trkpt lat="48.54443" lon="-3.39615">
        <ele>93.8</ele>
        <time>2020-06-10T16:02:45Z</time>
      </trkpt>
      <trkpt lat="48.54445" lon="-3.39614">
        <ele>93.8</ele>
        <time>2020-06-10T16:02:46Z</time>
      </trkpt>
      <trkpt lat="48.54448" lon="-3.39612">
        <ele>93.8</ele>
        <time>2020-06-10T16:02:47Z</time>
      </trkpt>
      <trkpt lat="48.54452" lon="-3.3961">
        <ele>93.9</ele>
        <time>2020-06-10T16:02:48Z</time>
      </trkpt>
      <trkpt lat="48.54455" lon="-3.39607">
        <ele>93.9</ele>
        <time>2020-06-10T16:02:49Z</time>
      </trkpt>
      <trkpt lat="48.54458" lon="-3.39601">
        <ele>94</ele>
        <time>2020-06-10T16:02:50Z</time>
      </trkpt>
      <trkpt lat="48.54461" lon="-3.39599">
        <ele>94</ele>
        <time>2020-06-10T16:02:51Z</time>
      </trkpt>
      <trkpt lat="48.54464" lon="-3.39596">
        <ele>93.9</ele>
        <time>2020-06-10T16:02:52Z</time>
      </trkpt>
      <trkpt lat="48.54465" lon="-3.39592">
        <ele>93.9</ele>
        <time>2020-06-10T16:02:53Z</time>
      </trkpt>
      <trkpt lat="48.54467" lon="-3.39586">
        <ele>93.8</ele>
        <time>2020-06-10T16:02:54Z</time>
      </trkpt>
      <trkpt lat="48.54468" lon="-3.39585">
        <ele>93.8</ele>
        <time>2020-06-10T16:02:55Z</time>
      </trkpt>
      <trkpt lat="48.54472" lon="-3.39582">
        <ele>93.8</ele>
        <time>2020-06-10T16:02:56Z</time>
      </trkpt>
      <trkpt lat="48.54473" lon="-3.39582">
        <ele>93.7</ele>
        <time>2020-06-10T16:02:57Z</time>
      </trkpt>
      <trkpt lat="48.54477" lon="-3.3958">
        <ele>93.7</ele>
        <time>2020-06-10T16:02:58Z</time>
      </trkpt>
      <trkpt lat="48.54481" lon="-3.39582">
        <ele>93.6</ele>
        <time>2020-06-10T16:02:59Z</time>
      </trkpt>
      <trkpt lat="48.54485" lon="-3.39583">
        <ele>93.5</ele>
        <time>2020-06-10T16:03:00Z</time>
      </trkpt>
      <trkpt lat="48.5449" lon="-3.39585">
        <ele>93.5</ele>
        <time>2020-06-10T16:03:01Z</time>
      </trkpt>
      <trkpt lat="48.54494" lon="-3.39585">
        <ele>93.4</ele>
        <time>2020-06-10T16:03:02Z</time>
      </trkpt>
      <trkpt lat="48.54498" lon="-3.39586">
        <ele>93.3</ele>
        <time>2020-06-10T16:03:03Z</time>
      </trkpt>
      <trkpt lat="48.54503" lon="-3.39586">
        <ele>93.3</ele>
        <time>2020-06-10T16:03:04Z</time>
      </trkpt>
      <trkpt lat="48.54507" lon="-3.39585">
        <ele>93.3</ele>
        <time>2020-06-10T16:03:05Z</time>
      </trkpt>
      <trkpt lat="48.54512" lon="-3.39585">
        <ele>93.2</ele>
        <time>2020-06-10T16:03:06Z</time>
      </trkpt>
      <trkpt lat="48.54516" lon="-3.39585">
        <ele>93.2</ele>
        <time>2020-06-10T16:03:07Z</time>
      </trkpt>
      <trkpt lat="48.54519" lon="-3.39581">
        <ele>93.2</ele>
        <time>2020-06-10T16:03:08Z</time>
      </trkpt>
      <trkpt lat="48.54522" lon="-3.39578">
        <ele>93.2</ele>
        <time>2020-06-10T16:03:09Z</time>
      </trkpt>
      <trkpt lat="48.54525" lon="-3.39575">
        <ele>93.2</ele>
        <time>2020-06-10T16:03:10Z</time>
      </trkpt>
      <trkpt lat="48.54529" lon="-3.39574">
        <ele>93</ele>
        <time>2020-06-10T16:03:11Z</time>
      </trkpt>
      <trkpt lat="48.54533" lon="-3.39572">
        <ele>93</ele>
        <time>2020-06-10T16:03:12Z</time>
      </trkpt>
      <trkpt lat="48.54537" lon="-3.39571">
        <ele>93</ele>
        <time>2020-06-10T16:03:13Z</time>
      </trkpt>
      <trkpt lat="48.5454" lon="-3.3957">
        <ele>92.9</ele>
        <time>2020-06-10T16:03:14Z</time>
      </trkpt>
      <trkpt lat="48.54544" lon="-3.39571">
        <ele>92.9</ele>
        <time>2020-06-10T16:03:15Z</time>
      </trkpt>
      <trkpt lat="48.54548" lon="-3.39572">
        <ele>92.8</ele>
        <time>2020-06-10T16:03:16Z</time>
      </trkpt>
      <trkpt lat="48.54551" lon="-3.39571">
        <ele>92.7</ele>
        <time>2020-06-10T16:03:17Z</time>
      </trkpt>
      <trkpt lat="48.54555" lon="-3.3957">
        <ele>92.7</ele>
        <time>2020-06-10T16:03:18Z</time>
      </trkpt>
      <trkpt lat="48.54558" lon="-3.39569">
        <ele>92.6</ele>
        <time>2020-06-10T16:03:19Z</time>
      </trkpt>
      <trkpt lat="48.54562" lon="-3.39568">
        <ele>92.6</ele>
        <time>2020-06-10T16:03:20Z</time>
      </trkpt>
      <trkpt lat="48.54563" lon="-3.39567">
        <ele>92.6</ele>
        <time>2020-06-10T16:03:21Z</time>
      </trkpt>
      <trkpt lat="48.54564" lon="-3.39566">
        <ele>92.6</ele>
        <time>2020-06-10T16:03:22Z</time>
      </trkpt>
      <trkpt lat="48.54564" lon="-3.39566">
        <ele>92.6</ele>
        <time>2020-06-10T16:03:23Z</time>
      </trkpt>
      <trkpt lat="48.54564" lon="-3.39565">
        <ele>92.6</ele>
        <time>2020-06-10T16:03:24Z</time>
      </trkpt>
      <trkpt lat="48.54564" lon="-3.39565">
        <ele>92.6</ele>
        <time>2020-06-10T16:03:25Z</time>
      </trkpt>
      <trkpt lat="48.54564" lon="-3.39564">
        <ele>92.6</ele>
        <time>2020-06-10T16:03:26Z</time>
      </trkpt>
      <trkpt lat="48.54564" lon="-3.39564">
        <ele>92.6</ele>
        <time>2020-06-10T16:03:27Z</time>
      </trkpt>
      <trkpt lat="48.54565" lon="-3.39564">
        <ele>92.6</ele>
        <time>2020-06-10T16:03:28Z</time>
      </trkpt>
      <trkpt lat="48.54565" lon="-3.39565">
        <ele>92.6</ele>
        <time>2020-06-10T16:03:29Z</time>
      </trkpt>
      <trkpt lat="48.54565" lon="-3.39565">
        <ele>92.6</ele>
        <time>2020-06-10T16:03:30Z</time>
      </trkpt>
      <trkpt lat="48.54566" lon="-3.39566">
        <ele>92.6</ele>
        <time>2020-06-10T16:03:31Z</time>
      </trkpt>
      <trkpt lat="48.54566" lon="-3.39567">
        <ele>92.6</ele>
        <time>2020-06-10T16:03:32Z</time>
      </trkpt>
      <trkpt lat="48.54566" lon="-3.39567">
        <ele>92.6</ele>
        <time>2020-06-10T16:03:33Z</time>
      </trkpt>
      <trkpt lat="48.54566" lon="-3.39568">
        <ele>92.6</ele>
        <time>2020-06-10T16:03:34Z</time>
      </trkpt>
      <trkpt lat="48.54563" lon="-3.39568">
        <ele>92.7</ele>
        <time>2020-06-10T16:03:35Z</time>
      </trkpt>
      <trkpt lat="48.5456" lon="-3.39566">
        <ele>92.7</ele>
        <time>2020-06-10T16:03:36Z</time>
      </trkpt>
      <trkpt lat="48.54557" lon="-3.39565">
        <ele>92.7</ele>
        <time>2020-06-10T16:31:34Z</time>
      </trkpt>
      <trkpt lat="48.54553" lon="-3.39564">
        <ele>92.8</ele>
        <time>2020-06-10T16:31:35Z</time>
      </trkpt>
      <trkpt lat="48.54551" lon="-3.39564">
        <ele>92.8</ele>
        <time>2020-06-10T16:31:36Z</time>
      </trkpt>
      <trkpt lat="48.5455" lon="-3.39564">
        <ele>92.8</ele>
        <time>2020-06-10T16:31:37Z</time>
      </trkpt>
      <trkpt lat="48.54549" lon="-3.39564">
        <ele>92.8</ele>
        <time>2020-06-10T16:31:38Z</time>
      </trkpt>
      <trkpt lat="48.54546" lon="-3.39564">
        <ele>92.9</ele>
        <time>2020-06-10T16:31:39Z</time>
      </trkpt>
      <trkpt lat="48.54544" lon="-3.39565">
        <ele>92.9</ele>
        <time>2020-06-10T16:31:40Z</time>
      </trkpt>
      <trkpt lat="48.54542" lon="-3.39567">
        <ele>92.9</ele>
        <time>2020-06-10T16:31:41Z</time>
      </trkpt>
      <trkpt lat="48.54539" lon="-3.39569">
        <ele>92.9</ele>
        <time>2020-06-10T16:31:42Z</time>
      </trkpt>
      <trkpt lat="48.54538" lon="-3.3957">
        <ele>92.9</ele>
        <time>2020-06-10T16:31:43Z</time>
      </trkpt>
      <trkpt lat="48.54535" lon="-3.39571">
        <ele>93</ele>
        <time>2020-06-10T16:31:44Z</time>
      </trkpt>
      <trkpt lat="48.54532" lon="-3.39572">
        <ele>93</ele>
        <time>2020-06-10T16:31:45Z</time>
      </trkpt>
      <trkpt lat="48.54528" lon="-3.39575">
        <ele>93.2</ele>
        <time>2020-06-10T16:31:46Z</time>
      </trkpt>
      <trkpt lat="48.54525" lon="-3.39578">
        <ele>93.2</ele>
        <time>2020-06-10T16:31:47Z</time>
      </trkpt>
      <trkpt lat="48.54522" lon="-3.39579">
        <ele>93.2</ele>
        <time>2020-06-10T16:31:48Z</time>
      </trkpt>
      <trkpt lat="48.54519" lon="-3.3958">
        <ele>93.2</ele>
        <time>2020-06-10T16:31:49Z</time>
      </trkpt>
      <trkpt lat="48.54515" lon="-3.3958">
        <ele>93.2</ele>
        <time>2020-06-10T16:31:50Z</time>
      </trkpt>
      <trkpt lat="48.54512" lon="-3.39581">
        <ele>93.2</ele>
        <time>2020-06-10T16:31:51Z</time>
      </trkpt>
      <trkpt lat="48.54508" lon="-3.39583">
        <ele>93.3</ele>
        <time>2020-06-10T16:31:52Z</time>
      </trkpt>
      <trkpt lat="48.54505" lon="-3.39583">
        <ele>93.3</ele>
        <time>2020-06-10T16:31:53Z</time>
      </trkpt>
      <trkpt lat="48.54501" lon="-3.39584">
        <ele>93.3</ele>
        <time>2020-06-10T16:31:54Z</time>
      </trkpt>
      <trkpt lat="48.54498" lon="-3.39584">
        <ele>93.4</ele>
        <time>2020-06-10T16:31:55Z</time>
      </trkpt>
      <trkpt lat="48.54494" lon="-3.39584">
        <ele>93.4</ele>
        <time>2020-06-10T16:31:56Z</time>
      </trkpt>
      <trkpt lat="48.5449" lon="-3.39582">
        <ele>93.5</ele>
        <time>2020-06-10T16:31:57Z</time>
      </trkpt>
      <trkpt lat="48.54485" lon="-3.39581">
        <ele>93.6</ele>
        <time>2020-06-10T16:31:58Z</time>
      </trkpt>
      <trkpt lat="48.54482" lon="-3.39581">
        <ele>93.6</ele>
        <time>2020-06-10T16:31:59Z</time>
      </trkpt>
      <trkpt lat="48.54477" lon="-3.3958">
        <ele>93.7</ele>
        <time>2020-06-10T16:32:00Z</time>
      </trkpt>
      <trkpt lat="48.54474" lon="-3.39579">
        <ele>93.8</ele>
        <time>2020-06-10T16:32:01Z</time>
      </trkpt>
      <trkpt lat="48.54472" lon="-3.39579">
        <ele>93.8</ele>
        <time>2020-06-10T16:32:02Z</time>
      </trkpt>
      <trkpt lat="48.5447" lon="-3.39579">
        <ele>93.8</ele>
        <time>2020-06-10T16:32:03Z</time>
      </trkpt>
      <trkpt lat="48.54469" lon="-3.39578">
        <ele>93.8</ele>
        <time>2020-06-10T16:32:04Z</time>
      </trkpt>
      <trkpt lat="48.54467" lon="-3.39577">
        <ele>93.8</ele>
        <time>2020-06-10T16:32:05Z</time>
      </trkpt>
      <trkpt lat="48.54466" lon="-3.39577">
        <ele>93.8</ele>
        <time>2020-06-10T16:32:06Z</time>
      </trkpt>
      <trkpt lat="48.54465" lon="-3.39573">
        <ele>93.8</ele>
        <time>2020-06-10T16:32:07Z</time>
      </trkpt>
      <trkpt lat="48.54465" lon="-3.39571">
        <ele>93.8</ele>
        <time>2020-06-10T16:32:08Z</time>
      </trkpt>
      <trkpt lat="48.54465" lon="-3.3957">
        <ele>93.8</ele>
        <time>2020-06-10T16:32:09Z</time>
      </trkpt>
      <trkpt lat="48.54465" lon="-3.39564">
        <ele>93.7</ele>
        <time>2020-06-10T16:32:10Z</time>
      </trkpt>
      <trkpt lat="48.54465" lon="-3.39561">
        <ele>93.7</ele>
        <time>2020-06-10T16:32:11Z</time>
      </trkpt>
      <trkpt lat="48.54466" lon="-3.39554">
        <ele>93.7</ele>
        <time>2020-06-10T16:32:12Z</time>
      </trkpt>
      <trkpt lat="48.54466" lon="-3.39552">
        <ele>93.7</ele>
        <time>2020-06-10T16:32:13Z</time>
      </trkpt>
      <trkpt lat="48.54466" lon="-3.39547">
        <ele>93.7</ele>
        <time>2020-06-10T16:32:14Z</time>
      </trkpt>
      <trkpt lat="48.54467" lon="-3.39541">
        <ele>93.6</ele>
        <time>2020-06-10T16:32:15Z</time>
      </trkpt>
      <trkpt lat="48.54468" lon="-3.39537">
        <ele>93.6</ele>
        <time>2020-06-10T16:32:16Z</time>
      </trkpt>
      <trkpt lat="48.54468" lon="-3.39532">
        <ele>93.6</ele>
        <time>2020-06-10T16:32:17Z</time>
      </trkpt>
      <trkpt lat="48.54469" lon="-3.39527">
        <ele>93.6</ele>
        <time>2020-06-10T16:32:18Z</time>
      </trkpt>
      <trkpt lat="48.54469" lon="-3.39523">
        <ele>93.6</ele>
        <time>2020-06-10T16:32:19Z</time>
      </trkpt>
      <trkpt lat="48.54471" lon="-3.39518">
        <ele>93.6</ele>
        <time>2020-06-10T16:32:20Z</time>
      </trkpt>
      <trkpt lat="48.54472" lon="-3.39513">
        <ele>93.6</ele>
        <time>2020-06-10T16:32:21Z</time>
      </trkpt>
      <trkpt lat="48.54473" lon="-3.39507">
        <ele>93.6</ele>
        <time>2020-06-10T16:32:22Z</time>
      </trkpt>
      <trkpt lat="48.54474" lon="-3.39502">
        <ele>93.6</ele>
        <time>2020-06-10T16:32:23Z</time>
      </trkpt>
      <trkpt lat="48.54475" lon="-3.39497">
        <ele>93.6</ele>
        <time>2020-06-10T16:32:24Z</time>
      </trkpt>
      <trkpt lat="48.54477" lon="-3.39492">
        <ele>93.7</ele>
        <time>2020-06-10T16:32:25Z</time>
      </trkpt>
      <trkpt lat="48.54479" lon="-3.39487">
        <ele>93.7</ele>
        <time>2020-06-10T16:32:26Z</time>
      </trkpt>
      <trkpt lat="48.5448" lon="-3.39482">
        <ele>93.7</ele>
        <time>2020-06-10T16:32:27Z</time>
      </trkpt>
      <trkpt lat="48.54481" lon="-3.39477">
        <ele>93.8</ele>
        <time>2020-06-10T16:32:28Z</time>
      </trkpt>
      <trkpt lat="48.54482" lon="-3.39475">
        <ele>93.8</ele>
        <time>2020-06-10T16:32:29Z</time>
      </trkpt>
      <trkpt lat="48.54484" lon="-3.39471">
        <ele>93.9</ele>
        <time>2020-06-10T16:32:30Z</time>
      </trkpt>
      <trkpt lat="48.54485" lon="-3.39466">
        <ele>94</ele>
        <time>2020-06-10T16:32:31Z</time>
      </trkpt>
      <trkpt lat="48.54486" lon="-3.39462">
        <ele>94</ele>
        <time>2020-06-10T16:32:32Z</time>
      </trkpt>
      <trkpt lat="48.54488" lon="-3.39458">
        <ele>94.1</ele>
        <time>2020-06-10T16:32:33Z</time>
      </trkpt>
      <trkpt lat="48.54491" lon="-3.39451">
        <ele>94.3</ele>
        <time>2020-06-10T16:32:34Z</time>
      </trkpt>
      <trkpt lat="48.54493" lon="-3.39447">
        <ele>94.4</ele>
        <time>2020-06-10T16:32:35Z</time>
      </trkpt>
      <trkpt lat="48.54495" lon="-3.39441">
        <ele>94.5</ele>
        <time>2020-06-10T16:32:36Z</time>
      </trkpt>
      <trkpt lat="48.54496" lon="-3.39435">
        <ele>94.6</ele>
        <time>2020-06-10T16:32:37Z</time>
      </trkpt>
      <trkpt lat="48.54498" lon="-3.3943">
        <ele>94.7</ele>
        <time>2020-06-10T16:32:38Z</time>
      </trkpt>
      <trkpt lat="48.54499" lon="-3.39425">
        <ele>94.8</ele>
        <time>2020-06-10T16:32:39Z</time>
      </trkpt>
      <trkpt lat="48.54499" lon="-3.39423">
        <ele>94.8</ele>
        <time>2020-06-10T16:32:40Z</time>
      </trkpt>
      <trkpt lat="48.54501" lon="-3.39418">
        <ele>95</ele>
        <time>2020-06-10T16:32:41Z</time>
      </trkpt>
      <trkpt lat="48.54502" lon="-3.39417">
        <ele>95</ele>
        <time>2020-06-10T16:32:42Z</time>
      </trkpt>
      <trkpt lat="48.54503" lon="-3.39411">
        <ele>95.2</ele>
        <time>2020-06-10T16:32:43Z</time>
      </trkpt>
      <trkpt lat="48.54504" lon="-3.39409">
        <ele>95.2</ele>
        <time>2020-06-10T16:32:44Z</time>
      </trkpt>
      <trkpt lat="48.54506" lon="-3.39405">
        <ele>95.3</ele>
        <time>2020-06-10T16:32:45Z</time>
      </trkpt>
      <trkpt lat="48.54508" lon="-3.39403">
        <ele>95.3</ele>
        <time>2020-06-10T16:32:46Z</time>
      </trkpt>
      <trkpt lat="48.54508" lon="-3.39398">
        <ele>95.3</ele>
        <time>2020-06-10T16:32:47Z</time>
      </trkpt>
      <trkpt lat="48.5451" lon="-3.39393">
        <ele>95.1</ele>
        <time>2020-06-10T16:32:48Z</time>
      </trkpt>
      <trkpt lat="48.5451" lon="-3.39391">
        <ele>95.1</ele>
        <time>2020-06-10T16:32:49Z</time>
      </trkpt>
      <trkpt lat="48.54511" lon="-3.39387">
        <ele>95.1</ele>
        <time>2020-06-10T16:32:50Z</time>
      </trkpt>
      <trkpt lat="48.54514" lon="-3.39385">
        <ele>95.1</ele>
        <time>2020-06-10T16:32:51Z</time>
      </trkpt>
      <trkpt lat="48.54517" lon="-3.39383">
        <ele>95.4</ele>
        <time>2020-06-10T16:32:52Z</time>
      </trkpt>
      <trkpt lat="48.5452" lon="-3.3938">
        <ele>95.5</ele>
        <time>2020-06-10T16:32:53Z</time>
      </trkpt>
      <trkpt lat="48.54523" lon="-3.39376">
        <ele>95.6</ele>
        <time>2020-06-10T16:32:54Z</time>
      </trkpt>
      <trkpt lat="48.54523" lon="-3.39374">
        <ele>95.7</ele>
        <time>2020-06-10T16:32:55Z</time>
      </trkpt>
      <trkpt lat="48.54524" lon="-3.3937">
        <ele>95.8</ele>
        <time>2020-06-10T16:32:56Z</time>
      </trkpt>
      <trkpt lat="48.54528" lon="-3.39368">
        <ele>96</ele>
        <time>2020-06-10T16:32:57Z</time>
      </trkpt>
      <trkpt lat="48.54529" lon="-3.39366">
        <ele>96.1</ele>
        <time>2020-06-10T16:32:58Z</time>
      </trkpt>
      <trkpt lat="48.54531" lon="-3.39363">
        <ele>96.3</ele>
        <time>2020-06-10T16:32:59Z</time>
      </trkpt>
      <trkpt lat="48.54534" lon="-3.3936">
        <ele>96.5</ele>
        <time>2020-06-10T16:33:00Z</time>
      </trkpt>
      <trkpt lat="48.54535" lon="-3.39356">
        <ele>96.7</ele>
        <time>2020-06-10T16:33:01Z</time>
      </trkpt>
      <trkpt lat="48.54536" lon="-3.39355">
        <ele>96.8</ele>
        <time>2020-06-10T16:33:02Z</time>
      </trkpt>
      <trkpt lat="48.54538" lon="-3.39351">
        <ele>97</ele>
        <time>2020-06-10T16:33:03Z</time>
      </trkpt>
      <trkpt lat="48.54539" lon="-3.39347">
        <ele>97.2</ele>
        <time>2020-06-10T16:33:04Z</time>
      </trkpt>
      <trkpt lat="48.54541" lon="-3.39344">
        <ele>97.5</ele>
        <time>2020-06-10T16:33:05Z</time>
      </trkpt>
      <trkpt lat="48.54544" lon="-3.39341">
        <ele>97.7</ele>
        <time>2020-06-10T16:33:06Z</time>
      </trkpt>
      <trkpt lat="48.54547" lon="-3.39338">
        <ele>98</ele>
        <time>2020-06-10T16:33:07Z</time>
      </trkpt>
      <trkpt lat="48.54548" lon="-3.39336">
        <ele>98.1</ele>
        <time>2020-06-10T16:33:08Z</time>
      </trkpt>
      <trkpt lat="48.5455" lon="-3.39332">
        <ele>98.4</ele>
        <time>2020-06-10T16:33:09Z</time>
      </trkpt>
      <trkpt lat="48.5455" lon="-3.39331">
        <ele>98.5</ele>
        <time>2020-06-10T16:33:10Z</time>
      </trkpt>
      <trkpt lat="48.54552" lon="-3.39327">
        <ele>98.8</ele>
        <time>2020-06-10T16:33:11Z</time>
      </trkpt>
      <trkpt lat="48.54553" lon="-3.39326">
        <ele>98.9</ele>
        <time>2020-06-10T16:33:12Z</time>
      </trkpt>
      <trkpt lat="48.54556" lon="-3.39324">
        <ele>99.2</ele>
        <time>2020-06-10T16:33:13Z</time>
      </trkpt>
      <trkpt lat="48.54558" lon="-3.39323">
        <ele>99.3</ele>
        <time>2020-06-10T16:33:14Z</time>
      </trkpt>
      <trkpt lat="48.5456" lon="-3.3932">
        <ele>99.6</ele>
        <time>2020-06-10T16:33:15Z</time>
      </trkpt>
      <trkpt lat="48.54561" lon="-3.39318">
        <ele>99.7</ele>
        <time>2020-06-10T16:33:16Z</time>
      </trkpt>
      <trkpt lat="48.54563" lon="-3.39315">
        <ele>100.1</ele>
        <time>2020-06-10T16:33:17Z</time>
      </trkpt>
      <trkpt lat="48.54564" lon="-3.39313">
        <ele>100.2</ele>
        <time>2020-06-10T16:33:18Z</time>
      </trkpt>
      <trkpt lat="48.54566" lon="-3.3931">
        <ele>100.5</ele>
        <time>2020-06-10T16:33:19Z</time>
      </trkpt>
      <trkpt lat="48.54568" lon="-3.39308">
        <ele>100.9</ele>
        <time>2020-06-10T16:33:20Z</time>
      </trkpt>
      <trkpt lat="48.54571" lon="-3.39305">
        <ele>101.2</ele>
        <time>2020-06-10T16:33:21Z</time>
      </trkpt>
      <trkpt lat="48.54572" lon="-3.39304">
        <ele>101.4</ele>
        <time>2020-06-10T16:33:22Z</time>
      </trkpt>
      <trkpt lat="48.54575" lon="-3.39301">
        <ele>101.7</ele>
        <time>2020-06-10T16:33:23Z</time>
      </trkpt>
      <trkpt lat="48.54576" lon="-3.393">
        <ele>101.8</ele>
        <time>2020-06-10T16:33:24Z</time>
      </trkpt>
      <trkpt lat="48.54578" lon="-3.39296">
        <ele>102.2</ele>
        <time>2020-06-10T16:33:25Z</time>
      </trkpt>
      <trkpt lat="48.54578" lon="-3.39295">
        <ele>102.3</ele>
        <time>2020-06-10T16:33:26Z</time>
      </trkpt>
      <trkpt lat="48.5458" lon="-3.39291">
        <ele>102.6</ele>
        <time>2020-06-10T16:33:27Z</time>
      </trkpt>
      <trkpt lat="48.5458" lon="-3.3929">
        <ele>102.7</ele>
        <time>2020-06-10T16:33:28Z</time>
      </trkpt>
      <trkpt lat="48.54582" lon="-3.39286">
        <ele>103</ele>
        <time>2020-06-10T16:33:29Z</time>
      </trkpt>
      <trkpt lat="48.54582" lon="-3.39285">
        <ele>103.1</ele>
        <time>2020-06-10T16:33:30Z</time>
      </trkpt>
      <trkpt lat="48.54584" lon="-3.39281">
        <ele>103.4</ele>
        <time>2020-06-10T16:33:31Z</time>
      </trkpt>
      <trkpt lat="48.54585" lon="-3.3928">
        <ele>103.5</ele>
        <time>2020-06-10T16:33:32Z</time>
      </trkpt>
      <trkpt lat="48.54587" lon="-3.39276">
        <ele>103.9</ele>
        <time>2020-06-10T16:33:33Z</time>
      </trkpt>
      <trkpt lat="48.54588" lon="-3.39275">
        <ele>104</ele>
        <time>2020-06-10T16:33:34Z</time>
      </trkpt>
      <trkpt lat="48.54589" lon="-3.39271">
        <ele>104.3</ele>
        <time>2020-06-10T16:33:35Z</time>
      </trkpt>
      <trkpt lat="48.5459" lon="-3.3927">
        <ele>104.4</ele>
        <time>2020-06-10T16:33:36Z</time>
      </trkpt>
      <trkpt lat="48.54592" lon="-3.39265">
        <ele>104.8</ele>
        <time>2020-06-10T16:33:37Z</time>
      </trkpt>
      <trkpt lat="48.54593" lon="-3.39264">
        <ele>105</ele>
        <time>2020-06-10T16:33:38Z</time>
      </trkpt>
      <trkpt lat="48.54595" lon="-3.3926">
        <ele>105.3</ele>
        <time>2020-06-10T16:33:39Z</time>
      </trkpt>
      <trkpt lat="48.54595" lon="-3.39258">
        <ele>105.4</ele>
        <time>2020-06-10T16:33:40Z</time>
      </trkpt>
      <trkpt lat="48.54597" lon="-3.39255">
        <ele>105.7</ele>
        <time>2020-06-10T16:33:41Z</time>
      </trkpt>
      <trkpt lat="48.54598" lon="-3.39254">
        <ele>105.8</ele>
        <time>2020-06-10T16:33:42Z</time>
      </trkpt>
      <trkpt lat="48.54599" lon="-3.39252">
        <ele>106</ele>
        <time>2020-06-10T16:33:43Z</time>
      </trkpt>
      <trkpt lat="48.546" lon="-3.3925">
        <ele>106.1</ele>
        <time>2020-06-10T16:33:44Z</time>
      </trkpt>
      <trkpt lat="48.54602" lon="-3.39247">
        <ele>106.5</ele>
        <time>2020-06-10T16:33:45Z</time>
      </trkpt>
      <trkpt lat="48.54602" lon="-3.39245">
        <ele>106.7</ele>
        <time>2020-06-10T16:33:46Z</time>
      </trkpt>
      <trkpt lat="48.54604" lon="-3.39241">
        <ele>107.2</ele>
        <time>2020-06-10T16:33:47Z</time>
      </trkpt>
      <trkpt lat="48.54605" lon="-3.3924">
        <ele>107.3</ele>
        <time>2020-06-10T16:33:48Z</time>
      </trkpt>
      <trkpt lat="48.54607" lon="-3.39236">
        <ele>107.7</ele>
        <time>2020-06-10T16:33:49Z</time>
      </trkpt>
      <trkpt lat="48.54609" lon="-3.39234">
        <ele>108.1</ele>
        <time>2020-06-10T16:33:50Z</time>
      </trkpt>
      <trkpt lat="48.5461" lon="-3.39233">
        <ele>108.2</ele>
        <time>2020-06-10T16:33:51Z</time>
      </trkpt>
      <trkpt lat="48.54612" lon="-3.3923">
        <ele>108.6</ele>
        <time>2020-06-10T16:33:52Z</time>
      </trkpt>
      <trkpt lat="48.54613" lon="-3.39228">
        <ele>108.7</ele>
        <time>2020-06-10T16:33:53Z</time>
      </trkpt>
      <trkpt lat="48.54614" lon="-3.39224">
        <ele>109.1</ele>
        <time>2020-06-10T16:33:54Z</time>
      </trkpt>
      <trkpt lat="48.54614" lon="-3.39222">
        <ele>109.3</ele>
        <time>2020-06-10T16:33:55Z</time>
      </trkpt>
      <trkpt lat="48.54615" lon="-3.39219">
        <ele>109.5</ele>
        <time>2020-06-10T16:33:56Z</time>
      </trkpt>
      <trkpt lat="48.54616" lon="-3.39218">
        <ele>109.7</ele>
        <time>2020-06-10T16:33:57Z</time>
      </trkpt>
      <trkpt lat="48.54617" lon="-3.39216">
        <ele>109.9</ele>
        <time>2020-06-10T16:33:58Z</time>
      </trkpt>
      <trkpt lat="48.54618" lon="-3.39214">
        <ele>110.1</ele>
        <time>2020-06-10T16:33:59Z</time>
      </trkpt>
      <trkpt lat="48.54619" lon="-3.39212">
        <ele>110.3</ele>
        <time>2020-06-10T16:34:00Z</time>
      </trkpt>
      <trkpt lat="48.5462" lon="-3.39211">
        <ele>110.5</ele>
        <time>2020-06-10T16:34:01Z</time>
      </trkpt>
      <trkpt lat="48.54621" lon="-3.39208">
        <ele>110.7</ele>
        <time>2020-06-10T16:34:02Z</time>
      </trkpt>
      <trkpt lat="48.54623" lon="-3.39205">
        <ele>111.1</ele>
        <time>2020-06-10T16:34:03Z</time>
      </trkpt>
      <trkpt lat="48.54624" lon="-3.39204">
        <ele>111.2</ele>
        <time>2020-06-10T16:34:04Z</time>
      </trkpt>
      <trkpt lat="48.54625" lon="-3.39202">
        <ele>111.4</ele>
        <time>2020-06-10T16:34:05Z</time>
      </trkpt>
      <trkpt lat="48.54626" lon="-3.392">
        <ele>111.6</ele>
        <time>2020-06-10T16:34:06Z</time>
      </trkpt>
      <trkpt lat="48.54628" lon="-3.39197">
        <ele>112</ele>
        <time>2020-06-10T16:34:07Z</time>
      </trkpt>
      <trkpt lat="48.54628" lon="-3.39196">
        <ele>112.1</ele>
        <time>2020-06-10T16:34:08Z</time>
      </trkpt>
      <trkpt lat="48.5463" lon="-3.39194">
        <ele>112.4</ele>
        <time>2020-06-10T16:34:09Z</time>
      </trkpt>
      <trkpt lat="48.54631" lon="-3.39192">
        <ele>112.6</ele>
        <time>2020-06-10T16:34:10Z</time>
      </trkpt>
      <trkpt lat="48.54632" lon="-3.39189">
        <ele>112.9</ele>
        <time>2020-06-10T16:34:11Z</time>
      </trkpt>
      <trkpt lat="48.54632" lon="-3.39188">
        <ele>113</ele>
        <time>2020-06-10T16:34:12Z</time>
      </trkpt>
      <trkpt lat="48.54633" lon="-3.39187">
        <ele>113.1</ele>
        <time>2020-06-10T16:34:13Z</time>
      </trkpt>
      <trkpt lat="48.54634" lon="-3.39185">
        <ele>113.3</ele>
        <time>2020-06-10T16:34:14Z</time>
      </trkpt>
      <trkpt lat="48.54635" lon="-3.39184">
        <ele>113.5</ele>
        <time>2020-06-10T16:34:15Z</time>
      </trkpt>
      <trkpt lat="48.54636" lon="-3.39182">
        <ele>113.8</ele>
        <time>2020-06-10T16:34:16Z</time>
      </trkpt>
      <trkpt lat="48.54637" lon="-3.3918">
        <ele>114</ele>
        <time>2020-06-10T16:34:17Z</time>
      </trkpt>
      <trkpt lat="48.54639" lon="-3.39177">
        <ele>114.3</ele>
        <time>2020-06-10T16:34:18Z</time>
      </trkpt>
      <trkpt lat="48.54639" lon="-3.39175">
        <ele>114.5</ele>
        <time>2020-06-10T16:34:19Z</time>
      </trkpt>
      <trkpt lat="48.5464" lon="-3.39173">
        <ele>114.7</ele>
        <time>2020-06-10T16:34:20Z</time>
      </trkpt>
      <trkpt lat="48.54641" lon="-3.39171">
        <ele>114.9</ele>
        <time>2020-06-10T16:34:21Z</time>
      </trkpt>
      <trkpt lat="48.54642" lon="-3.39169">
        <ele>115.1</ele>
        <time>2020-06-10T16:34:22Z</time>
      </trkpt>
      <trkpt lat="48.54643" lon="-3.39167">
        <ele>115.3</ele>
        <time>2020-06-10T16:34:23Z</time>
      </trkpt>
      <trkpt lat="48.54645" lon="-3.39165">
        <ele>115.6</ele>
        <time>2020-06-10T16:34:24Z</time>
      </trkpt>
      <trkpt lat="48.54646" lon="-3.39164">
        <ele>115.8</ele>
        <time>2020-06-10T16:34:25Z</time>
      </trkpt>
      <trkpt lat="48.54646" lon="-3.39162">
        <ele>115.9</ele>
        <time>2020-06-10T16:34:26Z</time>
      </trkpt>
      <trkpt lat="48.54647" lon="-3.39161">
        <ele>116</ele>
        <time>2020-06-10T16:34:27Z</time>
      </trkpt>
      <trkpt lat="48.54648" lon="-3.3916">
        <ele>116.2</ele>
        <time>2020-06-10T16:34:28Z</time>
      </trkpt>
      <trkpt lat="48.54649" lon="-3.39158">
        <ele>116.5</ele>
        <time>2020-06-10T16:34:29Z</time>
      </trkpt>
      <trkpt lat="48.5465" lon="-3.39157">
        <ele>116.7</ele>
        <time>2020-06-10T16:34:30Z</time>
      </trkpt>
      <trkpt lat="48.54651" lon="-3.39155">
        <ele>116.8</ele>
        <time>2020-06-10T16:34:31Z</time>
      </trkpt>
      <trkpt lat="48.54653" lon="-3.39153">
        <ele>117.2</ele>
        <time>2020-06-10T16:34:32Z</time>
      </trkpt>
      <trkpt lat="48.54654" lon="-3.39152">
        <ele>117.3</ele>
        <time>2020-06-10T16:34:33Z</time>
      </trkpt>
      <trkpt lat="48.54655" lon="-3.3915">
        <ele>117.5</ele>
        <time>2020-06-10T16:34:34Z</time>
      </trkpt>
      <trkpt lat="48.54656" lon="-3.39148">
        <ele>117.7</ele>
        <time>2020-06-10T16:34:35Z</time>
      </trkpt>
      <trkpt lat="48.54658" lon="-3.39144">
        <ele>118.1</ele>
        <time>2020-06-10T16:34:36Z</time>
      </trkpt>
      <trkpt lat="48.54658" lon="-3.39143">
        <ele>118.2</ele>
        <time>2020-06-10T16:34:37Z</time>
      </trkpt>
      <trkpt lat="48.54659" lon="-3.39142">
        <ele>118.3</ele>
        <time>2020-06-10T16:34:38Z</time>
      </trkpt>
      <trkpt lat="48.5466" lon="-3.39141">
        <ele>118.5</ele>
        <time>2020-06-10T16:34:39Z</time>
      </trkpt>
      <trkpt lat="48.54661" lon="-3.3914">
        <ele>118.7</ele>
        <time>2020-06-10T16:34:40Z</time>
      </trkpt>
      <trkpt lat="48.54663" lon="-3.39137">
        <ele>119</ele>
        <time>2020-06-10T16:34:41Z</time>
      </trkpt>
      <trkpt lat="48.54664" lon="-3.39136">
        <ele>119.1</ele>
        <time>2020-06-10T16:34:42Z</time>
      </trkpt>
      <trkpt lat="48.54666" lon="-3.39133">
        <ele>119.4</ele>
        <time>2020-06-10T16:34:43Z</time>
      </trkpt>
      <trkpt lat="48.54667" lon="-3.39132">
        <ele>119.5</ele>
        <time>2020-06-10T16:34:44Z</time>
      </trkpt>
      <trkpt lat="48.54668" lon="-3.39131">
        <ele>119.7</ele>
        <time>2020-06-10T16:34:45Z</time>
      </trkpt>
      <trkpt lat="48.54669" lon="-3.39129">
        <ele>119.9</ele>
        <time>2020-06-10T16:34:46Z</time>
      </trkpt>
      <trkpt lat="48.54671" lon="-3.39128">
        <ele>120.1</ele>
        <time>2020-06-10T16:34:47Z</time>
      </trkpt>
      <trkpt lat="48.54672" lon="-3.39127">
        <ele>120.2</ele>
        <time>2020-06-10T16:34:48Z</time>
      </trkpt>
      <trkpt lat="48.54674" lon="-3.39124">
        <ele>120.5</ele>
        <time>2020-06-10T16:34:49Z</time>
      </trkpt>
      <trkpt lat="48.54675" lon="-3.39123">
        <ele>120.7</ele>
        <time>2020-06-10T16:34:50Z</time>
      </trkpt>
      <trkpt lat="48.54676" lon="-3.39122">
        <ele>120.8</ele>
        <time>2020-06-10T16:34:51Z</time>
      </trkpt>
      <trkpt lat="48.54676" lon="-3.3912">
        <ele>120.9</ele>
        <time>2020-06-10T16:34:52Z</time>
      </trkpt>
      <trkpt lat="48.54676" lon="-3.39119">
        <ele>121</ele>
        <time>2020-06-10T16:34:53Z</time>
      </trkpt>
      <trkpt lat="48.54676" lon="-3.39117">
        <ele>121.1</ele>
        <time>2020-06-10T16:34:54Z</time>
      </trkpt>
      <trkpt lat="48.54678" lon="-3.39116">
        <ele>121.3</ele>
        <time>2020-06-10T16:34:55Z</time>
      </trkpt>
      <trkpt lat="48.54679" lon="-3.39114">
        <ele>121.5</ele>
        <time>2020-06-10T16:34:56Z</time>
      </trkpt>
      <trkpt lat="48.54681" lon="-3.39113">
        <ele>121.7</ele>
        <time>2020-06-10T16:34:57Z</time>
      </trkpt>
      <trkpt lat="48.54683" lon="-3.39108">
        <ele>122</ele>
        <time>2020-06-10T16:34:58Z</time>
      </trkpt>
      <trkpt lat="48.54683" lon="-3.39106">
        <ele>122.2</ele>
        <time>2020-06-10T16:34:59Z</time>
      </trkpt>
      <trkpt lat="48.54685" lon="-3.39103">
        <ele>122.5</ele>
        <time>2020-06-10T16:35:00Z</time>
      </trkpt>
      <trkpt lat="48.54686" lon="-3.39102">
        <ele>122.6</ele>
        <time>2020-06-10T16:35:01Z</time>
      </trkpt>
      <trkpt lat="48.54688" lon="-3.39099">
        <ele>122.8</ele>
        <time>2020-06-10T16:35:02Z</time>
      </trkpt>
      <trkpt lat="48.54688" lon="-3.39098">
        <ele>122.9</ele>
        <time>2020-06-10T16:35:03Z</time>
      </trkpt>
      <trkpt lat="48.5469" lon="-3.39093">
        <ele>123.2</ele>
        <time>2020-06-10T16:35:04Z</time>
      </trkpt>
      <trkpt lat="48.54692" lon="-3.39089">
        <ele>123.5</ele>
        <time>2020-06-10T16:35:05Z</time>
      </trkpt>
      <trkpt lat="48.54692" lon="-3.39088">
        <ele>123.6</ele>
        <time>2020-06-10T16:35:06Z</time>
      </trkpt>
      <trkpt lat="48.54693" lon="-3.39083">
        <ele>123.9</ele>
        <time>2020-06-10T16:35:07Z</time>
      </trkpt>
      <trkpt lat="48.54694" lon="-3.39081">
        <ele>124.1</ele>
        <time>2020-06-10T16:35:08Z</time>
      </trkpt>
      <trkpt lat="48.54696" lon="-3.39076">
        <ele>124.4</ele>
        <time>2020-06-10T16:35:09Z</time>
      </trkpt>
      <trkpt lat="48.54696" lon="-3.39075">
        <ele>124.5</ele>
        <time>2020-06-10T16:35:10Z</time>
      </trkpt>
      <trkpt lat="48.54698" lon="-3.39074">
        <ele>124.7</ele>
        <time>2020-06-10T16:35:11Z</time>
      </trkpt>
      <trkpt lat="48.54698" lon="-3.39071">
        <ele>124.8</ele>
        <time>2020-06-10T16:35:12Z</time>
      </trkpt>
      <trkpt lat="48.547" lon="-3.39067">
        <ele>125.1</ele>
        <time>2020-06-10T16:35:13Z</time>
      </trkpt>
      <trkpt lat="48.547" lon="-3.39067">
        <ele>125.2</ele>
        <time>2020-06-10T16:35:14Z</time>
      </trkpt>
      <trkpt lat="48.54702" lon="-3.39063">
        <ele>125.5</ele>
        <time>2020-06-10T16:35:15Z</time>
      </trkpt>
      <trkpt lat="48.54703" lon="-3.39062">
        <ele>125.6</ele>
        <time>2020-06-10T16:35:16Z</time>
      </trkpt>
      <trkpt lat="48.54705" lon="-3.39058">
        <ele>125.9</ele>
        <time>2020-06-10T16:35:17Z</time>
      </trkpt>
      <trkpt lat="48.54706" lon="-3.39054">
        <ele>126.2</ele>
        <time>2020-06-10T16:35:18Z</time>
      </trkpt>
      <trkpt lat="48.54706" lon="-3.39053">
        <ele>126.3</ele>
        <time>2020-06-10T16:35:19Z</time>
      </trkpt>
      <trkpt lat="48.54708" lon="-3.39049">
        <ele>126.6</ele>
        <time>2020-06-10T16:35:20Z</time>
      </trkpt>
      <trkpt lat="48.54709" lon="-3.39048">
        <ele>126.7</ele>
        <time>2020-06-10T16:35:21Z</time>
      </trkpt>
      <trkpt lat="48.54709" lon="-3.39045">
        <ele>126.9</ele>
        <time>2020-06-10T16:35:22Z</time>
      </trkpt>
      <trkpt lat="48.5471" lon="-3.39043">
        <ele>127.1</ele>
        <time>2020-06-10T16:35:23Z</time>
      </trkpt>
      <trkpt lat="48.54712" lon="-3.3904">
        <ele>127.4</ele>
        <time>2020-06-10T16:35:24Z</time>
      </trkpt>
      <trkpt lat="48.54713" lon="-3.39038">
        <ele>127.5</ele>
        <time>2020-06-10T16:35:25Z</time>
      </trkpt>
      <trkpt lat="48.54715" lon="-3.39033">
        <ele>127.8</ele>
        <time>2020-06-10T16:35:26Z</time>
      </trkpt>
      <trkpt lat="48.54715" lon="-3.39032">
        <ele>127.9</ele>
        <time>2020-06-10T16:35:27Z</time>
      </trkpt>
      <trkpt lat="48.54716" lon="-3.39028">
        <ele>128.1</ele>
        <time>2020-06-10T16:35:28Z</time>
      </trkpt>
      <trkpt lat="48.54717" lon="-3.39026">
        <ele>128.3</ele>
        <time>2020-06-10T16:35:29Z</time>
      </trkpt>
      <trkpt lat="48.54719" lon="-3.39023">
        <ele>128.5</ele>
        <time>2020-06-10T16:35:30Z</time>
      </trkpt>
      <trkpt lat="48.5472" lon="-3.39019">
        <ele>128.8</ele>
        <time>2020-06-10T16:35:31Z</time>
      </trkpt>
      <trkpt lat="48.54721" lon="-3.39015">
        <ele>129</ele>
        <time>2020-06-10T16:35:32Z</time>
      </trkpt>
      <trkpt lat="48.54722" lon="-3.39011">
        <ele>129.3</ele>
        <time>2020-06-10T16:35:33Z</time>
      </trkpt>
      <trkpt lat="48.54722" lon="-3.39009">
        <ele>129.4</ele>
        <time>2020-06-10T16:35:34Z</time>
      </trkpt>
      <trkpt lat="48.54723" lon="-3.39004">
        <ele>129.7</ele>
        <time>2020-06-10T16:35:35Z</time>
      </trkpt>
      <trkpt lat="48.54723" lon="-3.39003">
        <ele>129.8</ele>
        <time>2020-06-10T16:35:36Z</time>
      </trkpt>
      <trkpt lat="48.54723" lon="-3.39">
        <ele>130</ele>
        <time>2020-06-10T16:35:37Z</time>
      </trkpt>
      <trkpt lat="48.54723" lon="-3.38998">
        <ele>130.1</ele>
        <time>2020-06-10T16:35:38Z</time>
      </trkpt>
      <trkpt lat="48.54723" lon="-3.38993">
        <ele>130.4</ele>
        <time>2020-06-10T16:35:39Z</time>
      </trkpt>
      <trkpt lat="48.54723" lon="-3.38992">
        <ele>130.5</ele>
        <time>2020-06-10T16:35:40Z</time>
      </trkpt>
      <trkpt lat="48.54724" lon="-3.38988">
        <ele>130.8</ele>
        <time>2020-06-10T16:35:41Z</time>
      </trkpt>
      <trkpt lat="48.54725" lon="-3.38986">
        <ele>130.9</ele>
        <time>2020-06-10T16:35:42Z</time>
      </trkpt>
      <trkpt lat="48.54725" lon="-3.38982">
        <ele>131.2</ele>
        <time>2020-06-10T16:35:43Z</time>
      </trkpt>
      <trkpt lat="48.54726" lon="-3.3898">
        <ele>131.3</ele>
        <time>2020-06-10T16:35:44Z</time>
      </trkpt>
      <trkpt lat="48.54726" lon="-3.38976">
        <ele>131.6</ele>
        <time>2020-06-10T16:35:45Z</time>
      </trkpt>
      <trkpt lat="48.54726" lon="-3.38974">
        <ele>131.7</ele>
        <time>2020-06-10T16:35:46Z</time>
      </trkpt>
      <trkpt lat="48.54727" lon="-3.38972">
        <ele>131.8</ele>
        <time>2020-06-10T16:35:47Z</time>
      </trkpt>
      <trkpt lat="48.54727" lon="-3.38969">
        <ele>132</ele>
        <time>2020-06-10T16:35:48Z</time>
      </trkpt>
      <trkpt lat="48.54727" lon="-3.38966">
        <ele>132.2</ele>
        <time>2020-06-10T16:35:49Z</time>
      </trkpt>
      <trkpt lat="48.54728" lon="-3.38964">
        <ele>132.4</ele>
        <time>2020-06-10T16:35:50Z</time>
      </trkpt>
      <trkpt lat="48.54728" lon="-3.3896">
        <ele>132.7</ele>
        <time>2020-06-10T16:35:51Z</time>
      </trkpt>
      <trkpt lat="48.54728" lon="-3.38958">
        <ele>132.8</ele>
        <time>2020-06-10T16:35:52Z</time>
      </trkpt>
      <trkpt lat="48.54728" lon="-3.38956">
        <ele>132.9</ele>
        <time>2020-06-10T16:35:53Z</time>
      </trkpt>
      <trkpt lat="48.54728" lon="-3.38954">
        <ele>133</ele>
        <time>2020-06-10T16:35:54Z</time>
      </trkpt>
      <trkpt lat="48.54727" lon="-3.38952">
        <ele>133.2</ele>
        <time>2020-06-10T16:35:55Z</time>
      </trkpt>
      <trkpt lat="48.54728" lon="-3.3895">
        <ele>133.3</ele>
        <time>2020-06-10T16:35:56Z</time>
      </trkpt>
      <trkpt lat="48.54729" lon="-3.38948">
        <ele>133.5</ele>
        <time>2020-06-10T16:35:57Z</time>
      </trkpt>
      <trkpt lat="48.54729" lon="-3.38945">
        <ele>133.7</ele>
        <time>2020-06-10T16:35:58Z</time>
      </trkpt>
      <trkpt lat="48.54729" lon="-3.3894">
        <ele>133.9</ele>
        <time>2020-06-10T16:35:59Z</time>
      </trkpt>
      <trkpt lat="48.54729" lon="-3.38939">
        <ele>134</ele>
        <time>2020-06-10T16:36:00Z</time>
      </trkpt>
      <trkpt lat="48.54729" lon="-3.38934">
        <ele>134.3</ele>
        <time>2020-06-10T16:36:01Z</time>
      </trkpt>
      <trkpt lat="48.54729" lon="-3.38932">
        <ele>134.4</ele>
        <time>2020-06-10T16:36:02Z</time>
      </trkpt>
      <trkpt lat="48.54728" lon="-3.38928">
        <ele>134.7</ele>
        <time>2020-06-10T16:36:03Z</time>
      </trkpt>
      <trkpt lat="48.54728" lon="-3.38924">
        <ele>135</ele>
        <time>2020-06-10T16:36:04Z</time>
      </trkpt>
      <trkpt lat="48.54728" lon="-3.38922">
        <ele>135.1</ele>
        <time>2020-06-10T16:36:05Z</time>
      </trkpt>
      <trkpt lat="48.54728" lon="-3.3892">
        <ele>135.3</ele>
        <time>2020-06-10T16:36:06Z</time>
      </trkpt>
      <trkpt lat="48.54729" lon="-3.38918">
        <ele>135.4</ele>
        <time>2020-06-10T16:36:07Z</time>
      </trkpt>
      <trkpt lat="48.54729" lon="-3.38914">
        <ele>135.7</ele>
        <time>2020-06-10T16:36:08Z</time>
      </trkpt>
      <trkpt lat="48.54729" lon="-3.38912">
        <ele>135.8</ele>
        <time>2020-06-10T16:36:09Z</time>
      </trkpt>
      <trkpt lat="48.54729" lon="-3.38908">
        <ele>136.1</ele>
        <time>2020-06-10T16:36:10Z</time>
      </trkpt>
      <trkpt lat="48.5473" lon="-3.38903">
        <ele>136.4</ele>
        <time>2020-06-10T16:36:11Z</time>
      </trkpt>
      <trkpt lat="48.5473" lon="-3.38902">
        <ele>136.4</ele>
        <time>2020-06-10T16:36:12Z</time>
      </trkpt>
      <trkpt lat="48.5473" lon="-3.389">
        <ele>136.6</ele>
        <time>2020-06-10T16:36:13Z</time>
      </trkpt>
      <trkpt lat="48.5473" lon="-3.38897">
        <ele>136.7</ele>
        <time>2020-06-10T16:36:14Z</time>
      </trkpt>
      <trkpt lat="48.54732" lon="-3.38893">
        <ele>137</ele>
        <time>2020-06-10T16:36:15Z</time>
      </trkpt>
      <trkpt lat="48.54733" lon="-3.38891">
        <ele>137.2</ele>
        <time>2020-06-10T16:36:16Z</time>
      </trkpt>
      <trkpt lat="48.54733" lon="-3.38887">
        <ele>137.4</ele>
        <time>2020-06-10T16:36:17Z</time>
      </trkpt>
      <trkpt lat="48.54733" lon="-3.38885">
        <ele>137.5</ele>
        <time>2020-06-10T16:36:18Z</time>
      </trkpt>
      <trkpt lat="48.54733" lon="-3.38882">
        <ele>137.7</ele>
        <time>2020-06-10T16:36:19Z</time>
      </trkpt>
      <trkpt lat="48.54733" lon="-3.3888">
        <ele>137.9</ele>
        <time>2020-06-10T16:36:20Z</time>
      </trkpt>
      <trkpt lat="48.54734" lon="-3.38875">
        <ele>138.2</ele>
        <time>2020-06-10T16:36:21Z</time>
      </trkpt>
      <trkpt lat="48.54734" lon="-3.38874">
        <ele>138.2</ele>
        <time>2020-06-10T16:36:22Z</time>
      </trkpt>
      <trkpt lat="48.54735" lon="-3.38869">
        <ele>138.5</ele>
        <time>2020-06-10T16:36:23Z</time>
      </trkpt>
      <trkpt lat="48.54735" lon="-3.38868">
        <ele>138.7</ele>
        <time>2020-06-10T16:36:24Z</time>
      </trkpt>
      <trkpt lat="48.54736" lon="-3.38863">
        <ele>139</ele>
        <time>2020-06-10T16:36:25Z</time>
      </trkpt>
      <trkpt lat="48.54735" lon="-3.38861">
        <ele>139.1</ele>
        <time>2020-06-10T16:36:26Z</time>
      </trkpt>
      <trkpt lat="48.54736" lon="-3.38856">
        <ele>139.3</ele>
        <time>2020-06-10T16:36:27Z</time>
      </trkpt>
      <trkpt lat="48.54736" lon="-3.38855">
        <ele>139.4</ele>
        <time>2020-06-10T16:36:28Z</time>
      </trkpt>
      <trkpt lat="48.54737" lon="-3.38851">
        <ele>139.7</ele>
        <time>2020-06-10T16:36:29Z</time>
      </trkpt>
      <trkpt lat="48.54738" lon="-3.38849">
        <ele>139.8</ele>
        <time>2020-06-10T16:36:30Z</time>
      </trkpt>
      <trkpt lat="48.5474" lon="-3.38846">
        <ele>140</ele>
        <time>2020-06-10T16:36:31Z</time>
      </trkpt>
      <trkpt lat="48.5474" lon="-3.38845">
        <ele>140.1</ele>
        <time>2020-06-10T16:36:32Z</time>
      </trkpt>
      <trkpt lat="48.54742" lon="-3.38842">
        <ele>140.3</ele>
        <time>2020-06-10T16:36:33Z</time>
      </trkpt>
      <trkpt lat="48.54743" lon="-3.38836">
        <ele>140.6</ele>
        <time>2020-06-10T16:36:34Z</time>
      </trkpt>
      <trkpt lat="48.54743" lon="-3.38835">
        <ele>140.7</ele>
        <time>2020-06-10T16:36:35Z</time>
      </trkpt>
      <trkpt lat="48.54744" lon="-3.38831">
        <ele>140.9</ele>
        <time>2020-06-10T16:36:36Z</time>
      </trkpt>
      <trkpt lat="48.54744" lon="-3.38829">
        <ele>141</ele>
        <time>2020-06-10T16:36:37Z</time>
      </trkpt>
      <trkpt lat="48.54745" lon="-3.38824">
        <ele>141.3</ele>
        <time>2020-06-10T16:36:38Z</time>
      </trkpt>
      <trkpt lat="48.54745" lon="-3.38822">
        <ele>141.4</ele>
        <time>2020-06-10T16:36:39Z</time>
      </trkpt>
      <trkpt lat="48.54746" lon="-3.38817">
        <ele>141.7</ele>
        <time>2020-06-10T16:36:40Z</time>
      </trkpt>
      <trkpt lat="48.54747" lon="-3.38816">
        <ele>141.8</ele>
        <time>2020-06-10T16:36:41Z</time>
      </trkpt>
      <trkpt lat="48.54748" lon="-3.38811">
        <ele>142</ele>
        <time>2020-06-10T16:36:42Z</time>
      </trkpt>
      <trkpt lat="48.54748" lon="-3.3881">
        <ele>142.1</ele>
        <time>2020-06-10T16:36:43Z</time>
      </trkpt>
      <trkpt lat="48.5475" lon="-3.38805">
        <ele>142.3</ele>
        <time>2020-06-10T16:36:44Z</time>
      </trkpt>
      <trkpt lat="48.5475" lon="-3.38803">
        <ele>142.4</ele>
        <time>2020-06-10T16:36:45Z</time>
      </trkpt>
      <trkpt lat="48.54751" lon="-3.38799">
        <ele>142.6</ele>
        <time>2020-06-10T16:36:46Z</time>
      </trkpt>
      <trkpt lat="48.54752" lon="-3.38797">
        <ele>142.7</ele>
        <time>2020-06-10T16:36:47Z</time>
      </trkpt>
      <trkpt lat="48.54754" lon="-3.38793">
        <ele>142.9</ele>
        <time>2020-06-10T16:36:48Z</time>
      </trkpt>
      <trkpt lat="48.54755" lon="-3.38791">
        <ele>143</ele>
        <time>2020-06-10T16:36:49Z</time>
      </trkpt>
      <trkpt lat="48.54756" lon="-3.38788">
        <ele>143.2</ele>
        <time>2020-06-10T16:36:50Z</time>
      </trkpt>
      <trkpt lat="48.54757" lon="-3.38786">
        <ele>143.2</ele>
        <time>2020-06-10T16:36:51Z</time>
      </trkpt>
      <trkpt lat="48.54758" lon="-3.38783">
        <ele>143.4</ele>
        <time>2020-06-10T16:36:52Z</time>
      </trkpt>
      <trkpt lat="48.54759" lon="-3.38781">
        <ele>143.5</ele>
        <time>2020-06-10T16:36:53Z</time>
      </trkpt>
      <trkpt lat="48.54761" lon="-3.38777">
        <ele>143.7</ele>
        <time>2020-06-10T16:36:54Z</time>
      </trkpt>
      <trkpt lat="48.54761" lon="-3.38775">
        <ele>143.8</ele>
        <time>2020-06-10T16:36:55Z</time>
      </trkpt>
      <trkpt lat="48.54763" lon="-3.38771">
        <ele>144</ele>
        <time>2020-06-10T16:36:56Z</time>
      </trkpt>
      <trkpt lat="48.54763" lon="-3.38769">
        <ele>144.1</ele>
        <time>2020-06-10T16:36:57Z</time>
      </trkpt>
      <trkpt lat="48.54764" lon="-3.38766">
        <ele>144.3</ele>
        <time>2020-06-10T16:36:58Z</time>
      </trkpt>
      <trkpt lat="48.54765" lon="-3.38764">
        <ele>144.4</ele>
        <time>2020-06-10T16:36:59Z</time>
      </trkpt>
      <trkpt lat="48.54767" lon="-3.38759">
        <ele>144.6</ele>
        <time>2020-06-10T16:37:00Z</time>
      </trkpt>
      <trkpt lat="48.54767" lon="-3.38758">
        <ele>144.7</ele>
        <time>2020-06-10T16:37:01Z</time>
      </trkpt>
      <trkpt lat="48.54769" lon="-3.38753">
        <ele>144.9</ele>
        <time>2020-06-10T16:37:02Z</time>
      </trkpt>
      <trkpt lat="48.5477" lon="-3.38752">
        <ele>144.9</ele>
        <time>2020-06-10T16:37:03Z</time>
      </trkpt>
      <trkpt lat="48.54771" lon="-3.38747">
        <ele>145.1</ele>
        <time>2020-06-10T16:37:04Z</time>
      </trkpt>
      <trkpt lat="48.54772" lon="-3.38746">
        <ele>145.1</ele>
        <time>2020-06-10T16:37:05Z</time>
      </trkpt>
      <trkpt lat="48.54774" lon="-3.38742">
        <ele>145.2</ele>
        <time>2020-06-10T16:37:06Z</time>
      </trkpt>
      <trkpt lat="48.54774" lon="-3.38741">
        <ele>145.2</ele>
        <time>2020-06-10T16:37:07Z</time>
      </trkpt>
      <trkpt lat="48.54776" lon="-3.38737">
        <ele>145.4</ele>
        <time>2020-06-10T16:37:08Z</time>
      </trkpt>
      <trkpt lat="48.54777" lon="-3.38736">
        <ele>145.4</ele>
        <time>2020-06-10T16:37:09Z</time>
      </trkpt>
      <trkpt lat="48.54777" lon="-3.38733">
        <ele>145.5</ele>
        <time>2020-06-10T16:37:10Z</time>
      </trkpt>
      <trkpt lat="48.54777" lon="-3.3873">
        <ele>145.6</ele>
        <time>2020-06-10T16:37:11Z</time>
      </trkpt>
      <trkpt lat="48.54778" lon="-3.38726">
        <ele>145.7</ele>
        <time>2020-06-10T16:37:12Z</time>
      </trkpt>
      <trkpt lat="48.54778" lon="-3.38725">
        <ele>145.8</ele>
        <time>2020-06-10T16:37:13Z</time>
      </trkpt>
      <trkpt lat="48.54779" lon="-3.38722">
        <ele>145.8</ele>
        <time>2020-06-10T16:37:14Z</time>
      </trkpt>
      <trkpt lat="48.5478" lon="-3.3872">
        <ele>145.9</ele>
        <time>2020-06-10T16:37:15Z</time>
      </trkpt>
      <trkpt lat="48.5478" lon="-3.38716">
        <ele>146</ele>
        <time>2020-06-10T16:37:16Z</time>
      </trkpt>
      <trkpt lat="48.5478" lon="-3.38715">
        <ele>146</ele>
        <time>2020-06-10T16:37:17Z</time>
      </trkpt>
      <trkpt lat="48.54781" lon="-3.3871">
        <ele>146.1</ele>
        <time>2020-06-10T16:37:18Z</time>
      </trkpt>
      <trkpt lat="48.54782" lon="-3.38709">
        <ele>146.2</ele>
        <time>2020-06-10T16:37:19Z</time>
      </trkpt>
      <trkpt lat="48.54784" lon="-3.38704">
        <ele>146.3</ele>
        <time>2020-06-10T16:37:20Z</time>
      </trkpt>
      <trkpt lat="48.54784" lon="-3.38703">
        <ele>146.3</ele>
        <time>2020-06-10T16:37:21Z</time>
      </trkpt>
      <trkpt lat="48.54785" lon="-3.38701">
        <ele>146.4</ele>
        <time>2020-06-10T16:37:22Z</time>
      </trkpt>
      <trkpt lat="48.54785" lon="-3.38699">
        <ele>146.4</ele>
        <time>2020-06-10T16:37:23Z</time>
      </trkpt>
      <trkpt lat="48.54786" lon="-3.38697">
        <ele>146.4</ele>
        <time>2020-06-10T16:37:24Z</time>
      </trkpt>
      <trkpt lat="48.54786" lon="-3.38696">
        <ele>146.5</ele>
        <time>2020-06-10T16:37:25Z</time>
      </trkpt>
      <trkpt lat="48.54787" lon="-3.38695">
        <ele>146.5</ele>
        <time>2020-06-10T16:37:26Z</time>
      </trkpt>
      <trkpt lat="48.54787" lon="-3.38695">
        <ele>146.5</ele>
        <time>2020-06-10T16:37:27Z</time>
      </trkpt>
      <trkpt lat="48.54787" lon="-3.38695">
        <ele>146.5</ele>
        <time>2020-06-10T16:37:28Z</time>
      </trkpt>
      <trkpt lat="48.54787" lon="-3.38695">
        <ele>146.5</ele>
        <time>2020-06-10T16:37:29Z</time>
      </trkpt>
      <trkpt lat="48.54787" lon="-3.38695">
        <ele>146.5</ele>
        <time>2020-06-10T16:37:30Z</time>
      </trkpt>
      <trkpt lat="48.54787" lon="-3.38695">
        <ele>146.5</ele>
        <time>2020-06-10T16:37:31Z</time>
      </trkpt>
      <trkpt lat="48.54787" lon="-3.38695">
        <ele>146.5</ele>
        <time>2020-06-10T16:37:32Z</time>
      </trkpt>
      <trkpt lat="48.54787" lon="-3.38695">
        <ele>146.5</ele>
        <time>2020-06-10T16:37:33Z</time>
      </trkpt>
      <trkpt lat="48.54787" lon="-3.38695">
        <ele>146.5</ele>
        <time>2020-06-10T16:37:34Z</time>
      </trkpt>
      <trkpt lat="48.54788" lon="-3.38693">
        <ele>146.6</ele>
        <time>2020-06-10T16:37:35Z</time>
      </trkpt>
      <trkpt lat="48.54788" lon="-3.38693">
        <ele>146.6</ele>
        <time>2020-06-10T16:37:36Z</time>
      </trkpt>
      <trkpt lat="48.54786" lon="-3.38691">
        <ele>146.6</ele>
        <time>2020-06-10T16:37:37Z</time>
      </trkpt>
      <trkpt lat="48.54785" lon="-3.3869">
        <ele>146.7</ele>
        <time>2020-06-10T16:37:38Z</time>
      </trkpt>
      <trkpt lat="48.54785" lon="-3.38688">
        <ele>146.7</ele>
        <time>2020-06-10T16:37:39Z</time>
      </trkpt>
      <trkpt lat="48.54784" lon="-3.38687">
        <ele>146.7</ele>
        <time>2020-06-10T16:37:40Z</time>
      </trkpt>
      <trkpt lat="48.54785" lon="-3.38686">
        <ele>146.7</ele>
        <time>2020-06-10T16:37:41Z</time>
      </trkpt>
      <trkpt lat="48.54785" lon="-3.38686">
        <ele>146.7</ele>
        <time>2020-06-10T16:37:42Z</time>
      </trkpt>
      <trkpt lat="48.54785" lon="-3.38685">
        <ele>146.7</ele>
        <time>2020-06-10T16:37:43Z</time>
      </trkpt>
      <trkpt lat="48.54786" lon="-3.38684">
        <ele>146.7</ele>
        <time>2020-06-10T16:37:44Z</time>
      </trkpt>
      <trkpt lat="48.54786" lon="-3.38684">
        <ele>146.7</ele>
        <time>2020-06-10T16:37:45Z</time>
      </trkpt>
      <trkpt lat="48.54786" lon="-3.38683">
        <ele>146.8</ele>
        <time>2020-06-10T16:37:46Z</time>
      </trkpt>
      <trkpt lat="48.54787" lon="-3.38683">
        <ele>146.8</ele>
        <time>2020-06-10T16:37:47Z</time>
      </trkpt>
      <trkpt lat="48.54787" lon="-3.38682">
        <ele>146.8</ele>
        <time>2020-06-10T16:37:48Z</time>
      </trkpt>
      <trkpt lat="48.54787" lon="-3.38682">
        <ele>146.8</ele>
        <time>2020-06-10T16:37:49Z</time>
      </trkpt>
      <trkpt lat="48.54788" lon="-3.38681">
        <ele>146.8</ele>
        <time>2020-06-10T16:37:50Z</time>
      </trkpt>
      <trkpt lat="48.54788" lon="-3.3868">
        <ele>146.8</ele>
        <time>2020-06-10T16:37:51Z</time>
      </trkpt>
      <trkpt lat="48.54788" lon="-3.3868">
        <ele>146.8</ele>
        <time>2020-06-10T16:39:25Z</time>
      </trkpt>
      <trkpt lat="48.54789" lon="-3.38679">
        <ele>146.8</ele>
        <time>2020-06-10T16:39:26Z</time>
      </trkpt>
      <trkpt lat="48.54791" lon="-3.38676">
        <ele>146.9</ele>
        <time>2020-06-10T16:39:27Z</time>
      </trkpt>
      <trkpt lat="48.54795" lon="-3.38672">
        <ele>146.9</ele>
        <time>2020-06-10T16:39:28Z</time>
      </trkpt>
      <trkpt lat="48.54797" lon="-3.38668">
        <ele>146.9</ele>
        <time>2020-06-10T16:39:29Z</time>
      </trkpt>
      <trkpt lat="48.54798" lon="-3.38663">
        <ele>147</ele>
        <time>2020-06-10T16:39:30Z</time>
      </trkpt>
      <trkpt lat="48.548" lon="-3.38658">
        <ele>147</ele>
        <time>2020-06-10T16:39:31Z</time>
      </trkpt>
      <trkpt lat="48.54801" lon="-3.38654">
        <ele>147.1</ele>
        <time>2020-06-10T16:39:32Z</time>
      </trkpt>
      <trkpt lat="48.54803" lon="-3.38649">
        <ele>147.1</ele>
        <time>2020-06-10T16:39:33Z</time>
      </trkpt>
      <trkpt lat="48.54806" lon="-3.38645">
        <ele>147.1</ele>
        <time>2020-06-10T16:39:34Z</time>
      </trkpt>
      <trkpt lat="48.54808" lon="-3.38641">
        <ele>147.2</ele>
        <time>2020-06-10T16:39:35Z</time>
      </trkpt>
      <trkpt lat="48.5481" lon="-3.38636">
        <ele>147.2</ele>
        <time>2020-06-10T16:39:36Z</time>
      </trkpt>
      <trkpt lat="48.54811" lon="-3.38629">
        <ele>147.2</ele>
        <time>2020-06-10T16:39:37Z</time>
      </trkpt>
      <trkpt lat="48.54813" lon="-3.38626">
        <ele>147.3</ele>
        <time>2020-06-10T16:39:38Z</time>
      </trkpt>
      <trkpt lat="48.54814" lon="-3.38621">
        <ele>147.3</ele>
        <time>2020-06-10T16:39:39Z</time>
      </trkpt>
      <trkpt lat="48.54816" lon="-3.38615">
        <ele>147.3</ele>
        <time>2020-06-10T16:39:40Z</time>
      </trkpt>
      <trkpt lat="48.54818" lon="-3.3861">
        <ele>147.4</ele>
        <time>2020-06-10T16:39:41Z</time>
      </trkpt>
      <trkpt lat="48.54819" lon="-3.38605">
        <ele>147.4</ele>
        <time>2020-06-10T16:39:42Z</time>
      </trkpt>
      <trkpt lat="48.5482" lon="-3.386">
        <ele>147.5</ele>
        <time>2020-06-10T16:39:43Z</time>
      </trkpt>
      <trkpt lat="48.54823" lon="-3.38596">
        <ele>147.5</ele>
        <time>2020-06-10T16:39:44Z</time>
      </trkpt>
      <trkpt lat="48.54825" lon="-3.38591">
        <ele>147.5</ele>
        <time>2020-06-10T16:39:45Z</time>
      </trkpt>
      <trkpt lat="48.54828" lon="-3.38587">
        <ele>147.6</ele>
        <time>2020-06-10T16:39:46Z</time>
      </trkpt>
      <trkpt lat="48.5483" lon="-3.38583">
        <ele>147.6</ele>
        <time>2020-06-10T16:39:47Z</time>
      </trkpt>
      <trkpt lat="48.54832" lon="-3.38577">
        <ele>147.6</ele>
        <time>2020-06-10T16:39:48Z</time>
      </trkpt>
      <trkpt lat="48.54834" lon="-3.38572">
        <ele>147.7</ele>
        <time>2020-06-10T16:39:49Z</time>
      </trkpt>
      <trkpt lat="48.54836" lon="-3.38567">
        <ele>147.7</ele>
        <time>2020-06-10T16:39:50Z</time>
      </trkpt>
      <trkpt lat="48.54837" lon="-3.3856">
        <ele>147.8</ele>
        <time>2020-06-10T16:39:51Z</time>
      </trkpt>
      <trkpt lat="48.54839" lon="-3.38554">
        <ele>147.8</ele>
        <time>2020-06-10T16:39:52Z</time>
      </trkpt>
      <trkpt lat="48.5484" lon="-3.38549">
        <ele>147.9</ele>
        <time>2020-06-10T16:39:53Z</time>
      </trkpt>
      <trkpt lat="48.54843" lon="-3.38544">
        <ele>148</ele>
        <time>2020-06-10T16:39:54Z</time>
      </trkpt>
      <trkpt lat="48.54845" lon="-3.3854">
        <ele>148</ele>
        <time>2020-06-10T16:39:55Z</time>
      </trkpt>
      <trkpt lat="48.54847" lon="-3.38536">
        <ele>148.1</ele>
        <time>2020-06-10T16:39:56Z</time>
      </trkpt>
      <trkpt lat="48.54849" lon="-3.38531">
        <ele>148.2</ele>
        <time>2020-06-10T16:39:57Z</time>
      </trkpt>
      <trkpt lat="48.5485" lon="-3.38526">
        <ele>148.3</ele>
        <time>2020-06-10T16:39:58Z</time>
      </trkpt>
      <trkpt lat="48.54852" lon="-3.38521">
        <ele>148.4</ele>
        <time>2020-06-10T16:39:59Z</time>
      </trkpt>
      <trkpt lat="48.54853" lon="-3.38516">
        <ele>148.5</ele>
        <time>2020-06-10T16:40:00Z</time>
      </trkpt>
      <trkpt lat="48.54855" lon="-3.38512">
        <ele>148.6</ele>
        <time>2020-06-10T16:40:01Z</time>
      </trkpt>
      <trkpt lat="48.54857" lon="-3.38507">
        <ele>148.8</ele>
        <time>2020-06-10T16:40:02Z</time>
      </trkpt>
      <trkpt lat="48.54858" lon="-3.38503">
        <ele>148.9</ele>
        <time>2020-06-10T16:40:03Z</time>
      </trkpt>
      <trkpt lat="48.54861" lon="-3.38501">
        <ele>149</ele>
        <time>2020-06-10T16:40:04Z</time>
      </trkpt>
      <trkpt lat="48.54863" lon="-3.38496">
        <ele>149.2</ele>
        <time>2020-06-10T16:40:05Z</time>
      </trkpt>
      <trkpt lat="48.54865" lon="-3.38491">
        <ele>149.3</ele>
        <time>2020-06-10T16:40:06Z</time>
      </trkpt>
      <trkpt lat="48.54865" lon="-3.38486">
        <ele>149.5</ele>
        <time>2020-06-10T16:40:07Z</time>
      </trkpt>
      <trkpt lat="48.54867" lon="-3.38481">
        <ele>149.6</ele>
        <time>2020-06-10T16:40:08Z</time>
      </trkpt>
      <trkpt lat="48.54868" lon="-3.38479">
        <ele>149.7</ele>
        <time>2020-06-10T16:40:09Z</time>
      </trkpt>
      <trkpt lat="48.54869" lon="-3.38475">
        <ele>149.8</ele>
        <time>2020-06-10T16:40:10Z</time>
      </trkpt>
      <trkpt lat="48.54871" lon="-3.38471">
        <ele>149.9</ele>
        <time>2020-06-10T16:40:11Z</time>
      </trkpt>
      <trkpt lat="48.54872" lon="-3.3847">
        <ele>150</ele>
        <time>2020-06-10T16:40:12Z</time>
      </trkpt>
      <trkpt lat="48.54874" lon="-3.38466">
        <ele>150.1</ele>
        <time>2020-06-10T16:40:13Z</time>
      </trkpt>
      <trkpt lat="48.54874" lon="-3.38464">
        <ele>150.1</ele>
        <time>2020-06-10T16:40:14Z</time>
      </trkpt>
      <trkpt lat="48.54876" lon="-3.38459">
        <ele>150.2</ele>
        <time>2020-06-10T16:40:15Z</time>
      </trkpt>
      <trkpt lat="48.54876" lon="-3.38457">
        <ele>150.2</ele>
        <time>2020-06-10T16:40:16Z</time>
      </trkpt>
      <trkpt lat="48.54877" lon="-3.38453">
        <ele>150.3</ele>
        <time>2020-06-10T16:40:17Z</time>
      </trkpt>
      <trkpt lat="48.54878" lon="-3.38451">
        <ele>150.3</ele>
        <time>2020-06-10T16:40:18Z</time>
      </trkpt>
      <trkpt lat="48.5488" lon="-3.38447">
        <ele>150.4</ele>
        <time>2020-06-10T16:40:19Z</time>
      </trkpt>
      <trkpt lat="48.5488" lon="-3.38445">
        <ele>150.4</ele>
        <time>2020-06-10T16:40:20Z</time>
      </trkpt>
      <trkpt lat="48.54882" lon="-3.38441">
        <ele>150.4</ele>
        <time>2020-06-10T16:40:21Z</time>
      </trkpt>
      <trkpt lat="48.54883" lon="-3.38437">
        <ele>150.4</ele>
        <time>2020-06-10T16:40:22Z</time>
      </trkpt>
      <trkpt lat="48.54885" lon="-3.38433">
        <ele>150.4</ele>
        <time>2020-06-10T16:40:23Z</time>
      </trkpt>
      <trkpt lat="48.54886" lon="-3.38428">
        <ele>150.4</ele>
        <time>2020-06-10T16:40:24Z</time>
      </trkpt>
      <trkpt lat="48.54888" lon="-3.38424">
        <ele>150.4</ele>
        <time>2020-06-10T16:40:25Z</time>
      </trkpt>
      <trkpt lat="48.5489" lon="-3.38419">
        <ele>150.4</ele>
        <time>2020-06-10T16:40:26Z</time>
      </trkpt>
      <trkpt lat="48.54892" lon="-3.38416">
        <ele>150.4</ele>
        <time>2020-06-10T16:40:27Z</time>
      </trkpt>
      <trkpt lat="48.54894" lon="-3.38411">
        <ele>150.4</ele>
        <time>2020-06-10T16:40:28Z</time>
      </trkpt>
      <trkpt lat="48.54895" lon="-3.38407">
        <ele>150.3</ele>
        <time>2020-06-10T16:40:29Z</time>
      </trkpt>
      <trkpt lat="48.54897" lon="-3.38403">
        <ele>150.3</ele>
        <time>2020-06-10T16:40:30Z</time>
      </trkpt>
      <trkpt lat="48.54898" lon="-3.38399">
        <ele>150.3</ele>
        <time>2020-06-10T16:40:31Z</time>
      </trkpt>
      <trkpt lat="48.54899" lon="-3.38395">
        <ele>150.3</ele>
        <time>2020-06-10T16:40:32Z</time>
      </trkpt>
      <trkpt lat="48.549" lon="-3.38391">
        <ele>150.2</ele>
        <time>2020-06-10T16:40:33Z</time>
      </trkpt>
      <trkpt lat="48.54901" lon="-3.38388">
        <ele>150.2</ele>
        <time>2020-06-10T16:40:34Z</time>
      </trkpt>
      <trkpt lat="48.54901" lon="-3.38386">
        <ele>150.2</ele>
        <time>2020-06-10T16:40:35Z</time>
      </trkpt>
      <trkpt lat="48.54901" lon="-3.38385">
        <ele>150.1</ele>
        <time>2020-06-10T16:40:36Z</time>
      </trkpt>
      <trkpt lat="48.54901" lon="-3.38384">
        <ele>150.1</ele>
        <time>2020-06-10T16:40:37Z</time>
      </trkpt>
      <trkpt lat="48.54901" lon="-3.38382">
        <ele>150.1</ele>
        <time>2020-06-10T16:40:38Z</time>
      </trkpt>
      <trkpt lat="48.54901" lon="-3.38381">
        <ele>150.1</ele>
        <time>2020-06-10T16:40:39Z</time>
      </trkpt>
      <trkpt lat="48.54901" lon="-3.3838">
        <ele>150.1</ele>
        <time>2020-06-10T16:40:40Z</time>
      </trkpt>
      <trkpt lat="48.54901" lon="-3.38379">
        <ele>150.1</ele>
        <time>2020-06-10T16:40:41Z</time>
      </trkpt>
      <trkpt lat="48.54901" lon="-3.38378">
        <ele>150.1</ele>
        <time>2020-06-10T16:40:42Z</time>
      </trkpt>
      <trkpt lat="48.54901" lon="-3.38377">
        <ele>150.1</ele>
        <time>2020-06-10T16:40:43Z</time>
      </trkpt>
      <trkpt lat="48.54901" lon="-3.38376">
        <ele>150</ele>
        <time>2020-06-10T16:40:44Z</time>
      </trkpt>
      <trkpt lat="48.54901" lon="-3.38375">
        <ele>150</ele>
        <time>2020-06-10T16:40:45Z</time>
      </trkpt>
      <trkpt lat="48.54901" lon="-3.38374">
        <ele>150</ele>
        <time>2020-06-10T16:40:57Z</time>
      </trkpt>
      <trkpt lat="48.54901" lon="-3.38373">
        <ele>150</ele>
        <time>2020-06-10T16:40:58Z</time>
      </trkpt>
      <trkpt lat="48.54902" lon="-3.38367">
        <ele>149.9</ele>
        <time>2020-06-10T16:40:59Z</time>
      </trkpt>
      <trkpt lat="48.54902" lon="-3.38365">
        <ele>149.9</ele>
        <time>2020-06-10T16:41:00Z</time>
      </trkpt>
      <trkpt lat="48.54904" lon="-3.3836">
        <ele>149.8</ele>
        <time>2020-06-10T16:41:01Z</time>
      </trkpt>
      <trkpt lat="48.54904" lon="-3.38358">
        <ele>149.8</ele>
        <time>2020-06-10T16:41:02Z</time>
      </trkpt>
      <trkpt lat="48.54907" lon="-3.38355">
        <ele>149.8</ele>
        <time>2020-06-10T16:41:03Z</time>
      </trkpt>
      <trkpt lat="48.54909" lon="-3.38351">
        <ele>149.8</ele>
        <time>2020-06-10T16:41:04Z</time>
      </trkpt>
      <trkpt lat="48.54911" lon="-3.38348">
        <ele>149.9</ele>
        <time>2020-06-10T16:41:05Z</time>
      </trkpt>
      <trkpt lat="48.54913" lon="-3.38343">
        <ele>149.9</ele>
        <time>2020-06-10T16:41:06Z</time>
      </trkpt>
      <trkpt lat="48.54914" lon="-3.38342">
        <ele>149.9</ele>
        <time>2020-06-10T16:41:07Z</time>
      </trkpt>
      <trkpt lat="48.54916" lon="-3.38338">
        <ele>149.9</ele>
        <time>2020-06-10T16:41:08Z</time>
      </trkpt>
      <trkpt lat="48.54918" lon="-3.38337">
        <ele>149.9</ele>
        <time>2020-06-10T16:41:09Z</time>
      </trkpt>
      <trkpt lat="48.5492" lon="-3.38333">
        <ele>149.9</ele>
        <time>2020-06-10T16:41:10Z</time>
      </trkpt>
      <trkpt lat="48.54923" lon="-3.38328">
        <ele>149.8</ele>
        <time>2020-06-10T16:41:11Z</time>
      </trkpt>
      <trkpt lat="48.54925" lon="-3.38323">
        <ele>149.8</ele>
        <time>2020-06-10T16:41:12Z</time>
      </trkpt>
      <trkpt lat="48.54927" lon="-3.38318">
        <ele>149.8</ele>
        <time>2020-06-10T16:41:13Z</time>
      </trkpt>
      <trkpt lat="48.5493" lon="-3.38314">
        <ele>149.7</ele>
        <time>2020-06-10T16:41:14Z</time>
      </trkpt>
      <trkpt lat="48.54932" lon="-3.38309">
        <ele>149.7</ele>
        <time>2020-06-10T16:41:15Z</time>
      </trkpt>
      <trkpt lat="48.54934" lon="-3.38303">
        <ele>149.6</ele>
        <time>2020-06-10T16:41:16Z</time>
      </trkpt>
      <trkpt lat="48.54936" lon="-3.38298">
        <ele>149.6</ele>
        <time>2020-06-10T16:41:17Z</time>
      </trkpt>
      <trkpt lat="48.54938" lon="-3.38292">
        <ele>149.5</ele>
        <time>2020-06-10T16:41:18Z</time>
      </trkpt>
      <trkpt lat="48.5494" lon="-3.38287">
        <ele>149.5</ele>
        <time>2020-06-10T16:41:19Z</time>
      </trkpt>
      <trkpt lat="48.54942" lon="-3.38282">
        <ele>149.4</ele>
        <time>2020-06-10T16:41:20Z</time>
      </trkpt>
      <trkpt lat="48.54944" lon="-3.38274">
        <ele>149.3</ele>
        <time>2020-06-10T16:41:21Z</time>
      </trkpt>
      <trkpt lat="48.54946" lon="-3.38269">
        <ele>149.3</ele>
        <time>2020-06-10T16:41:22Z</time>
      </trkpt>
      <trkpt lat="48.54946" lon="-3.38264">
        <ele>149.2</ele>
        <time>2020-06-10T16:41:23Z</time>
      </trkpt>
      <trkpt lat="48.54948" lon="-3.38259">
        <ele>149.1</ele>
        <time>2020-06-10T16:41:24Z</time>
      </trkpt>
      <trkpt lat="48.5495" lon="-3.38253">
        <ele>149.1</ele>
        <time>2020-06-10T16:41:25Z</time>
      </trkpt>
      <trkpt lat="48.54952" lon="-3.3825">
        <ele>149</ele>
        <time>2020-06-10T16:41:26Z</time>
      </trkpt>
      <trkpt lat="48.54954" lon="-3.38245">
        <ele>149</ele>
        <time>2020-06-10T16:41:27Z</time>
      </trkpt>
      <trkpt lat="48.54956" lon="-3.3824">
        <ele>149</ele>
        <time>2020-06-10T16:41:28Z</time>
      </trkpt>
      <trkpt lat="48.54957" lon="-3.38234">
        <ele>148.9</ele>
        <time>2020-06-10T16:41:29Z</time>
      </trkpt>
      <trkpt lat="48.5496" lon="-3.38227">
        <ele>148.8</ele>
        <time>2020-06-10T16:41:30Z</time>
      </trkpt>
      <trkpt lat="48.54963" lon="-3.3822">
        <ele>148.7</ele>
        <time>2020-06-10T16:41:31Z</time>
      </trkpt>
      <trkpt lat="48.54966" lon="-3.38215">
        <ele>148.6</ele>
        <time>2020-06-10T16:41:32Z</time>
      </trkpt>
      <trkpt lat="48.5497" lon="-3.38206">
        <ele>148.4</ele>
        <time>2020-06-10T16:41:33Z</time>
      </trkpt>
      <trkpt lat="48.54972" lon="-3.382">
        <ele>148.3</ele>
        <time>2020-06-10T16:41:34Z</time>
      </trkpt>
      <trkpt lat="48.54975" lon="-3.38192">
        <ele>148.2</ele>
        <time>2020-06-10T16:41:35Z</time>
      </trkpt>
      <trkpt lat="48.54978" lon="-3.38185">
        <ele>148</ele>
        <time>2020-06-10T16:41:36Z</time>
      </trkpt>
      <trkpt lat="48.54981" lon="-3.38177">
        <ele>147.9</ele>
        <time>2020-06-10T16:41:37Z</time>
      </trkpt>
      <trkpt lat="48.54984" lon="-3.38169">
        <ele>147.7</ele>
        <time>2020-06-10T16:41:38Z</time>
      </trkpt>
      <trkpt lat="48.54987" lon="-3.38162">
        <ele>147.5</ele>
        <time>2020-06-10T16:41:39Z</time>
      </trkpt>
      <trkpt lat="48.54989" lon="-3.38153">
        <ele>147.3</ele>
        <time>2020-06-10T16:41:40Z</time>
      </trkpt>
      <trkpt lat="48.54992" lon="-3.38145">
        <ele>147.1</ele>
        <time>2020-06-10T16:41:41Z</time>
      </trkpt>
      <trkpt lat="48.54996" lon="-3.38137">
        <ele>146.9</ele>
        <time>2020-06-10T16:41:42Z</time>
      </trkpt>
      <trkpt lat="48.54999" lon="-3.38129">
        <ele>146.6</ele>
        <time>2020-06-10T16:41:43Z</time>
      </trkpt>
      <trkpt lat="48.55003" lon="-3.3812">
        <ele>146.5</ele>
        <time>2020-06-10T16:41:44Z</time>
      </trkpt>
      <trkpt lat="48.55007" lon="-3.38111">
        <ele>146.3</ele>
        <time>2020-06-10T16:41:45Z</time>
      </trkpt>
      <trkpt lat="48.5501" lon="-3.38101">
        <ele>146.1</ele>
        <time>2020-06-10T16:41:46Z</time>
      </trkpt>
      <trkpt lat="48.55014" lon="-3.38092">
        <ele>145.9</ele>
        <time>2020-06-10T16:41:47Z</time>
      </trkpt>
      <trkpt lat="48.55017" lon="-3.38082">
        <ele>145.6</ele>
        <time>2020-06-10T16:41:48Z</time>
      </trkpt>
      <trkpt lat="48.55021" lon="-3.38072">
        <ele>145.5</ele>
        <time>2020-06-10T16:41:49Z</time>
      </trkpt>
      <trkpt lat="48.55025" lon="-3.38063">
        <ele>145.4</ele>
        <time>2020-06-10T16:41:50Z</time>
      </trkpt>
      <trkpt lat="48.55028" lon="-3.38055">
        <ele>145.3</ele>
        <time>2020-06-10T16:41:51Z</time>
      </trkpt>
      <trkpt lat="48.55032" lon="-3.38046">
        <ele>145.2</ele>
        <time>2020-06-10T16:41:52Z</time>
      </trkpt>
      <trkpt lat="48.55035" lon="-3.38037">
        <ele>145.1</ele>
        <time>2020-06-10T16:41:53Z</time>
      </trkpt>
      <trkpt lat="48.55038" lon="-3.38029">
        <ele>145</ele>
        <time>2020-06-10T16:41:54Z</time>
      </trkpt>
      <trkpt lat="48.55041" lon="-3.38021">
        <ele>144.9</ele>
        <time>2020-06-10T16:41:55Z</time>
      </trkpt>
      <trkpt lat="48.55043" lon="-3.38013">
        <ele>144.8</ele>
        <time>2020-06-10T16:41:56Z</time>
      </trkpt>
      <trkpt lat="48.55046" lon="-3.38006">
        <ele>144.8</ele>
        <time>2020-06-10T16:41:57Z</time>
      </trkpt>
      <trkpt lat="48.55048" lon="-3.37999">
        <ele>144.8</ele>
        <time>2020-06-10T16:41:58Z</time>
      </trkpt>
      <trkpt lat="48.55051" lon="-3.37992">
        <ele>144.7</ele>
        <time>2020-06-10T16:41:59Z</time>
      </trkpt>
      <trkpt lat="48.55054" lon="-3.37985">
        <ele>144.7</ele>
        <time>2020-06-10T16:42:00Z</time>
      </trkpt>
      <trkpt lat="48.55056" lon="-3.37977">
        <ele>144.7</ele>
        <time>2020-06-10T16:42:01Z</time>
      </trkpt>
      <trkpt lat="48.55059" lon="-3.37971">
        <ele>144.7</ele>
        <time>2020-06-10T16:42:02Z</time>
      </trkpt>
      <trkpt lat="48.55062" lon="-3.37964">
        <ele>144.7</ele>
        <time>2020-06-10T16:42:03Z</time>
      </trkpt>
      <trkpt lat="48.55065" lon="-3.37958">
        <ele>144.7</ele>
        <time>2020-06-10T16:42:04Z</time>
      </trkpt>
      <trkpt lat="48.55066" lon="-3.3795">
        <ele>144.7</ele>
        <time>2020-06-10T16:42:05Z</time>
      </trkpt>
      <trkpt lat="48.55069" lon="-3.37945">
        <ele>144.7</ele>
        <time>2020-06-10T16:42:06Z</time>
      </trkpt>
      <trkpt lat="48.55072" lon="-3.37939">
        <ele>144.7</ele>
        <time>2020-06-10T16:42:07Z</time>
      </trkpt>
      <trkpt lat="48.55075" lon="-3.37932">
        <ele>144.6</ele>
        <time>2020-06-10T16:42:08Z</time>
      </trkpt>
      <trkpt lat="48.55078" lon="-3.37926">
        <ele>144.6</ele>
        <time>2020-06-10T16:42:09Z</time>
      </trkpt>
      <trkpt lat="48.5508" lon="-3.37918">
        <ele>144.5</ele>
        <time>2020-06-10T16:42:10Z</time>
      </trkpt>
      <trkpt lat="48.55082" lon="-3.37912">
        <ele>144.4</ele>
        <time>2020-06-10T16:42:11Z</time>
      </trkpt>
      <trkpt lat="48.55085" lon="-3.37905">
        <ele>144.3</ele>
        <time>2020-06-10T16:42:12Z</time>
      </trkpt>
      <trkpt lat="48.55087" lon="-3.37897">
        <ele>144.2</ele>
        <time>2020-06-10T16:42:13Z</time>
      </trkpt>
      <trkpt lat="48.5509" lon="-3.3789">
        <ele>144.1</ele>
        <time>2020-06-10T16:42:14Z</time>
      </trkpt>
      <trkpt lat="48.55093" lon="-3.37883">
        <ele>143.9</ele>
        <time>2020-06-10T16:42:15Z</time>
      </trkpt>
      <trkpt lat="48.55097" lon="-3.37876">
        <ele>143.8</ele>
        <time>2020-06-10T16:42:16Z</time>
      </trkpt>
      <trkpt lat="48.551" lon="-3.37869">
        <ele>143.6</ele>
        <time>2020-06-10T16:42:17Z</time>
      </trkpt>
      <trkpt lat="48.55103" lon="-3.37862">
        <ele>143.5</ele>
        <time>2020-06-10T16:42:18Z</time>
      </trkpt>
      <trkpt lat="48.55106" lon="-3.37856">
        <ele>143.4</ele>
        <time>2020-06-10T16:42:19Z</time>
      </trkpt>
      <trkpt lat="48.55109" lon="-3.37849">
        <ele>143.2</ele>
        <time>2020-06-10T16:42:20Z</time>
      </trkpt>
      <trkpt lat="48.55111" lon="-3.37841">
        <ele>143.1</ele>
        <time>2020-06-10T16:42:21Z</time>
      </trkpt>
      <trkpt lat="48.55114" lon="-3.37833">
        <ele>142.9</ele>
        <time>2020-06-10T16:42:22Z</time>
      </trkpt>
      <trkpt lat="48.55117" lon="-3.37826">
        <ele>142.7</ele>
        <time>2020-06-10T16:42:23Z</time>
      </trkpt>
      <trkpt lat="48.55121" lon="-3.37818">
        <ele>142.6</ele>
        <time>2020-06-10T16:42:24Z</time>
      </trkpt>
      <trkpt lat="48.55124" lon="-3.3781">
        <ele>142.4</ele>
        <time>2020-06-10T16:42:25Z</time>
      </trkpt>
      <trkpt lat="48.55127" lon="-3.37801">
        <ele>142.3</ele>
        <time>2020-06-10T16:42:26Z</time>
      </trkpt>
      <trkpt lat="48.5513" lon="-3.37792">
        <ele>142.3</ele>
        <time>2020-06-10T16:42:27Z</time>
      </trkpt>
      <trkpt lat="48.55133" lon="-3.37783">
        <ele>142.3</ele>
        <time>2020-06-10T16:42:28Z</time>
      </trkpt>
      <trkpt lat="48.55135" lon="-3.37775">
        <ele>142.4</ele>
        <time>2020-06-10T16:42:29Z</time>
      </trkpt>
      <trkpt lat="48.55136" lon="-3.37766">
        <ele>142.5</ele>
        <time>2020-06-10T16:42:30Z</time>
      </trkpt>
      <trkpt lat="48.55138" lon="-3.37758">
        <ele>142.6</ele>
        <time>2020-06-10T16:42:31Z</time>
      </trkpt>
      <trkpt lat="48.55139" lon="-3.37749">
        <ele>142.7</ele>
        <time>2020-06-10T16:42:32Z</time>
      </trkpt>
      <trkpt lat="48.5514" lon="-3.37742">
        <ele>142.8</ele>
        <time>2020-06-10T16:42:33Z</time>
      </trkpt>
      <trkpt lat="48.5514" lon="-3.37735">
        <ele>142.9</ele>
        <time>2020-06-10T16:42:34Z</time>
      </trkpt>
      <trkpt lat="48.5514" lon="-3.37728">
        <ele>143</ele>
        <time>2020-06-10T16:42:35Z</time>
      </trkpt>
      <trkpt lat="48.55141" lon="-3.37722">
        <ele>143.1</ele>
        <time>2020-06-10T16:42:36Z</time>
      </trkpt>
      <trkpt lat="48.55141" lon="-3.37716">
        <ele>143.2</ele>
        <time>2020-06-10T16:42:37Z</time>
      </trkpt>
      <trkpt lat="48.55141" lon="-3.3771">
        <ele>143.3</ele>
        <time>2020-06-10T16:42:38Z</time>
      </trkpt>
      <trkpt lat="48.55141" lon="-3.37703">
        <ele>143.5</ele>
        <time>2020-06-10T16:42:39Z</time>
      </trkpt>
      <trkpt lat="48.55142" lon="-3.37696">
        <ele>143.6</ele>
        <time>2020-06-10T16:42:40Z</time>
      </trkpt>
      <trkpt lat="48.55142" lon="-3.37689">
        <ele>143.7</ele>
        <time>2020-06-10T16:42:41Z</time>
      </trkpt>
      <trkpt lat="48.55143" lon="-3.37681">
        <ele>143.8</ele>
        <time>2020-06-10T16:42:42Z</time>
      </trkpt>
      <trkpt lat="48.55144" lon="-3.37675">
        <ele>143.9</ele>
        <time>2020-06-10T16:42:43Z</time>
      </trkpt>
      <trkpt lat="48.55146" lon="-3.37668">
        <ele>143.9</ele>
        <time>2020-06-10T16:42:44Z</time>
      </trkpt>
      <trkpt lat="48.55147" lon="-3.37661">
        <ele>144</ele>
        <time>2020-06-10T16:42:45Z</time>
      </trkpt>
      <trkpt lat="48.55147" lon="-3.37654">
        <ele>144.1</ele>
        <time>2020-06-10T16:42:46Z</time>
      </trkpt>
      <trkpt lat="48.55147" lon="-3.37647">
        <ele>144.2</ele>
        <time>2020-06-10T16:42:47Z</time>
      </trkpt>
      <trkpt lat="48.55147" lon="-3.37639">
        <ele>144.3</ele>
        <time>2020-06-10T16:42:48Z</time>
      </trkpt>
      <trkpt lat="48.55147" lon="-3.37632">
        <ele>144.3</ele>
        <time>2020-06-10T16:42:49Z</time>
      </trkpt>
      <trkpt lat="48.55147" lon="-3.37625">
        <ele>144.4</ele>
        <time>2020-06-10T16:42:50Z</time>
      </trkpt>
      <trkpt lat="48.55147" lon="-3.37618">
        <ele>144.5</ele>
        <time>2020-06-10T16:42:51Z</time>
      </trkpt>
      <trkpt lat="48.55147" lon="-3.37611">
        <ele>144.6</ele>
        <time>2020-06-10T16:42:52Z</time>
      </trkpt>
      <trkpt lat="48.55148" lon="-3.37605">
        <ele>144.7</ele>
        <time>2020-06-10T16:42:53Z</time>
      </trkpt>
      <trkpt lat="48.55149" lon="-3.37598">
        <ele>144.8</ele>
        <time>2020-06-10T16:42:54Z</time>
      </trkpt>
      <trkpt lat="48.55149" lon="-3.37591">
        <ele>144.8</ele>
        <time>2020-06-10T16:42:55Z</time>
      </trkpt>
      <trkpt lat="48.5515" lon="-3.37584">
        <ele>144.9</ele>
        <time>2020-06-10T16:42:56Z</time>
      </trkpt>
      <trkpt lat="48.5515" lon="-3.37577">
        <ele>145.1</ele>
        <time>2020-06-10T16:42:57Z</time>
      </trkpt>
      <trkpt lat="48.55151" lon="-3.3757">
        <ele>145.2</ele>
        <time>2020-06-10T16:42:58Z</time>
      </trkpt>
      <trkpt lat="48.55152" lon="-3.37563">
        <ele>145.3</ele>
        <time>2020-06-10T16:42:59Z</time>
      </trkpt>
      <trkpt lat="48.55153" lon="-3.37557">
        <ele>145.5</ele>
        <time>2020-06-10T16:43:00Z</time>
      </trkpt>
      <trkpt lat="48.55152" lon="-3.3755">
        <ele>145.6</ele>
        <time>2020-06-10T16:43:01Z</time>
      </trkpt>
      <trkpt lat="48.55152" lon="-3.37543">
        <ele>145.7</ele>
        <time>2020-06-10T16:43:02Z</time>
      </trkpt>
      <trkpt lat="48.55153" lon="-3.37537">
        <ele>145.7</ele>
        <time>2020-06-10T16:43:03Z</time>
      </trkpt>
      <trkpt lat="48.55153" lon="-3.3753">
        <ele>145.8</ele>
        <time>2020-06-10T16:43:04Z</time>
      </trkpt>
      <trkpt lat="48.55153" lon="-3.37523">
        <ele>145.9</ele>
        <time>2020-06-10T16:43:05Z</time>
      </trkpt>
      <trkpt lat="48.55153" lon="-3.37516">
        <ele>145.9</ele>
        <time>2020-06-10T16:43:06Z</time>
      </trkpt>
      <trkpt lat="48.55153" lon="-3.37509">
        <ele>146</ele>
        <time>2020-06-10T16:43:07Z</time>
      </trkpt>
      <trkpt lat="48.55153" lon="-3.37502">
        <ele>146</ele>
        <time>2020-06-10T16:43:08Z</time>
      </trkpt>
      <trkpt lat="48.55153" lon="-3.37495">
        <ele>146.1</ele>
        <time>2020-06-10T16:43:09Z</time>
      </trkpt>
      <trkpt lat="48.55153" lon="-3.37489">
        <ele>146.1</ele>
        <time>2020-06-10T16:43:10Z</time>
      </trkpt>
      <trkpt lat="48.55154" lon="-3.37482">
        <ele>146.2</ele>
        <time>2020-06-10T16:43:11Z</time>
      </trkpt>
      <trkpt lat="48.55156" lon="-3.37476">
        <ele>146.3</ele>
        <time>2020-06-10T16:43:12Z</time>
      </trkpt>
      <trkpt lat="48.55156" lon="-3.37469">
        <ele>146.4</ele>
        <time>2020-06-10T16:43:13Z</time>
      </trkpt>
      <trkpt lat="48.55156" lon="-3.37462">
        <ele>146.4</ele>
        <time>2020-06-10T16:43:14Z</time>
      </trkpt>
      <trkpt lat="48.55156" lon="-3.37456">
        <ele>146.5</ele>
        <time>2020-06-10T16:43:15Z</time>
      </trkpt>
      <trkpt lat="48.55157" lon="-3.37449">
        <ele>146.6</ele>
        <time>2020-06-10T16:43:16Z</time>
      </trkpt>
      <trkpt lat="48.55158" lon="-3.37442">
        <ele>146.6</ele>
        <time>2020-06-10T16:43:17Z</time>
      </trkpt>
      <trkpt lat="48.55158" lon="-3.37435">
        <ele>146.7</ele>
        <time>2020-06-10T16:43:18Z</time>
      </trkpt>
      <trkpt lat="48.55159" lon="-3.37428">
        <ele>146.8</ele>
        <time>2020-06-10T16:43:19Z</time>
      </trkpt>
      <trkpt lat="48.5516" lon="-3.37421">
        <ele>146.8</ele>
        <time>2020-06-10T16:43:20Z</time>
      </trkpt>
      <trkpt lat="48.5516" lon="-3.37415">
        <ele>146.9</ele>
        <time>2020-06-10T16:43:21Z</time>
      </trkpt>
      <trkpt lat="48.55162" lon="-3.37409">
        <ele>146.9</ele>
        <time>2020-06-10T16:43:22Z</time>
      </trkpt>
      <trkpt lat="48.55163" lon="-3.37402">
        <ele>147</ele>
        <time>2020-06-10T16:43:23Z</time>
      </trkpt>
      <trkpt lat="48.55163" lon="-3.37396">
        <ele>147.1</ele>
        <time>2020-06-10T16:43:24Z</time>
      </trkpt>
      <trkpt lat="48.55164" lon="-3.3739">
        <ele>147.1</ele>
        <time>2020-06-10T16:43:25Z</time>
      </trkpt>
      <trkpt lat="48.55165" lon="-3.37383">
        <ele>147.2</ele>
        <time>2020-06-10T16:43:26Z</time>
      </trkpt>
      <trkpt lat="48.55166" lon="-3.37377">
        <ele>147.2</ele>
        <time>2020-06-10T16:43:27Z</time>
      </trkpt>
      <trkpt lat="48.55167" lon="-3.3737">
        <ele>147.3</ele>
        <time>2020-06-10T16:43:28Z</time>
      </trkpt>
      <trkpt lat="48.55168" lon="-3.37364">
        <ele>147.4</ele>
        <time>2020-06-10T16:43:29Z</time>
      </trkpt>
      <trkpt lat="48.55168" lon="-3.37357">
        <ele>147.4</ele>
        <time>2020-06-10T16:43:30Z</time>
      </trkpt>
      <trkpt lat="48.5517" lon="-3.37351">
        <ele>147.5</ele>
        <time>2020-06-10T16:43:31Z</time>
      </trkpt>
      <trkpt lat="48.55171" lon="-3.37345">
        <ele>147.6</ele>
        <time>2020-06-10T16:43:32Z</time>
      </trkpt>
      <trkpt lat="48.55173" lon="-3.37339">
        <ele>147.6</ele>
        <time>2020-06-10T16:43:33Z</time>
      </trkpt>
      <trkpt lat="48.55175" lon="-3.37333">
        <ele>147.7</ele>
        <time>2020-06-10T16:43:34Z</time>
      </trkpt>
      <trkpt lat="48.55176" lon="-3.37328">
        <ele>147.7</ele>
        <time>2020-06-10T16:43:35Z</time>
      </trkpt>
      <trkpt lat="48.55179" lon="-3.37323">
        <ele>147.8</ele>
        <time>2020-06-10T16:43:36Z</time>
      </trkpt>
      <trkpt lat="48.55181" lon="-3.37318">
        <ele>147.9</ele>
        <time>2020-06-10T16:43:37Z</time>
      </trkpt>
      <trkpt lat="48.55184" lon="-3.37313">
        <ele>147.9</ele>
        <time>2020-06-10T16:43:38Z</time>
      </trkpt>
      <trkpt lat="48.55186" lon="-3.37308">
        <ele>148</ele>
        <time>2020-06-10T16:43:39Z</time>
      </trkpt>
      <trkpt lat="48.55188" lon="-3.37303">
        <ele>148.1</ele>
        <time>2020-06-10T16:43:40Z</time>
      </trkpt>
      <trkpt lat="48.5519" lon="-3.37298">
        <ele>148.2</ele>
        <time>2020-06-10T16:43:41Z</time>
      </trkpt>
      <trkpt lat="48.55192" lon="-3.37293">
        <ele>148.3</ele>
        <time>2020-06-10T16:43:42Z</time>
      </trkpt>
      <trkpt lat="48.55195" lon="-3.37289">
        <ele>148.3</ele>
        <time>2020-06-10T16:43:43Z</time>
      </trkpt>
      <trkpt lat="48.55198" lon="-3.37285">
        <ele>148.4</ele>
        <time>2020-06-10T16:43:44Z</time>
      </trkpt>
      <trkpt lat="48.552" lon="-3.37279">
        <ele>148.5</ele>
        <time>2020-06-10T16:43:45Z</time>
      </trkpt>
      <trkpt lat="48.55202" lon="-3.37276">
        <ele>148.6</ele>
        <time>2020-06-10T16:43:46Z</time>
      </trkpt>
      <trkpt lat="48.55206" lon="-3.37273">
        <ele>148.7</ele>
        <time>2020-06-10T16:43:47Z</time>
      </trkpt>
      <trkpt lat="48.55209" lon="-3.3727">
        <ele>148.7</ele>
        <time>2020-06-10T16:43:48Z</time>
      </trkpt>
      <trkpt lat="48.55213" lon="-3.37268">
        <ele>148.8</ele>
        <time>2020-06-10T16:43:49Z</time>
      </trkpt>
      <trkpt lat="48.55216" lon="-3.37266">
        <ele>148.8</ele>
        <time>2020-06-10T16:43:50Z</time>
      </trkpt>
      <trkpt lat="48.55219" lon="-3.37262">
        <ele>148.8</ele>
        <time>2020-06-10T16:43:51Z</time>
      </trkpt>
      <trkpt lat="48.55223" lon="-3.37258">
        <ele>148.8</ele>
        <time>2020-06-10T16:43:52Z</time>
      </trkpt>
      <trkpt lat="48.55225" lon="-3.37251">
        <ele>148.9</ele>
        <time>2020-06-10T16:43:53Z</time>
      </trkpt>
      <trkpt lat="48.55228" lon="-3.37247">
        <ele>149</ele>
        <time>2020-06-10T16:43:54Z</time>
      </trkpt>
      <trkpt lat="48.55232" lon="-3.37245">
        <ele>149</ele>
        <time>2020-06-10T16:43:55Z</time>
      </trkpt>
      <trkpt lat="48.55235" lon="-3.37243">
        <ele>149.1</ele>
        <time>2020-06-10T16:43:56Z</time>
      </trkpt>
      <trkpt lat="48.55239" lon="-3.37242">
        <ele>149.1</ele>
        <time>2020-06-10T16:43:57Z</time>
      </trkpt>
      <trkpt lat="48.55242" lon="-3.3724">
        <ele>149.2</ele>
        <time>2020-06-10T16:43:58Z</time>
      </trkpt>
      <trkpt lat="48.55246" lon="-3.37239">
        <ele>149.3</ele>
        <time>2020-06-10T16:43:59Z</time>
      </trkpt>
      <trkpt lat="48.55249" lon="-3.37236">
        <ele>149.3</ele>
        <time>2020-06-10T16:44:00Z</time>
      </trkpt>
      <trkpt lat="48.55253" lon="-3.37234">
        <ele>149.3</ele>
        <time>2020-06-10T16:44:01Z</time>
      </trkpt>
      <trkpt lat="48.55256" lon="-3.37231">
        <ele>149.4</ele>
        <time>2020-06-10T16:44:02Z</time>
      </trkpt>
      <trkpt lat="48.5526" lon="-3.37228">
        <ele>149.4</ele>
        <time>2020-06-10T16:44:03Z</time>
      </trkpt>
      <trkpt lat="48.55263" lon="-3.37225">
        <ele>149.4</ele>
        <time>2020-06-10T16:44:04Z</time>
      </trkpt>
      <trkpt lat="48.55267" lon="-3.37223">
        <ele>149.5</ele>
        <time>2020-06-10T16:44:05Z</time>
      </trkpt>
      <trkpt lat="48.55271" lon="-3.37221">
        <ele>149.5</ele>
        <time>2020-06-10T16:44:06Z</time>
      </trkpt>
      <trkpt lat="48.55274" lon="-3.37218">
        <ele>149.5</ele>
        <time>2020-06-10T16:44:07Z</time>
      </trkpt>
      <trkpt lat="48.55278" lon="-3.37215">
        <ele>149.5</ele>
        <time>2020-06-10T16:44:08Z</time>
      </trkpt>
      <trkpt lat="48.55281" lon="-3.37213">
        <ele>149.5</ele>
        <time>2020-06-10T16:44:09Z</time>
      </trkpt>
      <trkpt lat="48.55285" lon="-3.37211">
        <ele>149.5</ele>
        <time>2020-06-10T16:44:10Z</time>
      </trkpt>
      <trkpt lat="48.55288" lon="-3.37208">
        <ele>149.5</ele>
        <time>2020-06-10T16:44:11Z</time>
      </trkpt>
      <trkpt lat="48.55292" lon="-3.37205">
        <ele>149.4</ele>
        <time>2020-06-10T16:44:12Z</time>
      </trkpt>
      <trkpt lat="48.55296" lon="-3.37202">
        <ele>149.4</ele>
        <time>2020-06-10T16:44:13Z</time>
      </trkpt>
      <trkpt lat="48.55299" lon="-3.372">
        <ele>149.4</ele>
        <time>2020-06-10T16:44:14Z</time>
      </trkpt>
      <trkpt lat="48.55303" lon="-3.37197">
        <ele>149.3</ele>
        <time>2020-06-10T16:44:15Z</time>
      </trkpt>
      <trkpt lat="48.55308" lon="-3.37194">
        <ele>149.3</ele>
        <time>2020-06-10T16:44:16Z</time>
      </trkpt>
      <trkpt lat="48.55312" lon="-3.37191">
        <ele>149.2</ele>
        <time>2020-06-10T16:44:17Z</time>
      </trkpt>
      <trkpt lat="48.55316" lon="-3.37187">
        <ele>149.2</ele>
        <time>2020-06-10T16:44:18Z</time>
      </trkpt>
      <trkpt lat="48.55321" lon="-3.37183">
        <ele>149.1</ele>
        <time>2020-06-10T16:44:19Z</time>
      </trkpt>
      <trkpt lat="48.55325" lon="-3.37179">
        <ele>149</ele>
        <time>2020-06-10T16:44:20Z</time>
      </trkpt>
      <trkpt lat="48.55331" lon="-3.37175">
        <ele>149</ele>
        <time>2020-06-10T16:44:21Z</time>
      </trkpt>
      <trkpt lat="48.55336" lon="-3.37172">
        <ele>148.9</ele>
        <time>2020-06-10T16:44:22Z</time>
      </trkpt>
      <trkpt lat="48.55341" lon="-3.37168">
        <ele>148.9</ele>
        <time>2020-06-10T16:44:23Z</time>
      </trkpt>
      <trkpt lat="48.55347" lon="-3.37162">
        <ele>148.8</ele>
        <time>2020-06-10T16:44:24Z</time>
      </trkpt>
      <trkpt lat="48.55353" lon="-3.37158">
        <ele>148.8</ele>
        <time>2020-06-10T16:44:25Z</time>
      </trkpt>
      <trkpt lat="48.55358" lon="-3.37152">
        <ele>148.8</ele>
        <time>2020-06-10T16:44:26Z</time>
      </trkpt>
      <trkpt lat="48.55364" lon="-3.37146">
        <ele>148.7</ele>
        <time>2020-06-10T16:44:27Z</time>
      </trkpt>
      <trkpt lat="48.55369" lon="-3.3714">
        <ele>148.7</ele>
        <time>2020-06-10T16:44:28Z</time>
      </trkpt>
      <trkpt lat="48.55374" lon="-3.37134">
        <ele>148.7</ele>
        <time>2020-06-10T16:44:29Z</time>
      </trkpt>
      <trkpt lat="48.55378" lon="-3.37128">
        <ele>148.7</ele>
        <time>2020-06-10T16:44:30Z</time>
      </trkpt>
      <trkpt lat="48.55382" lon="-3.37121">
        <ele>148.7</ele>
        <time>2020-06-10T16:44:31Z</time>
      </trkpt>
      <trkpt lat="48.55385" lon="-3.37113">
        <ele>148.8</ele>
        <time>2020-06-10T16:44:32Z</time>
      </trkpt>
      <trkpt lat="48.55389" lon="-3.37107">
        <ele>148.8</ele>
        <time>2020-06-10T16:44:33Z</time>
      </trkpt>
      <trkpt lat="48.55392" lon="-3.37101">
        <ele>148.9</ele>
        <time>2020-06-10T16:44:34Z</time>
      </trkpt>
      <trkpt lat="48.55396" lon="-3.37096">
        <ele>148.9</ele>
        <time>2020-06-10T16:44:35Z</time>
      </trkpt>
      <trkpt lat="48.554" lon="-3.37091">
        <ele>149</ele>
        <time>2020-06-10T16:44:36Z</time>
      </trkpt>
      <trkpt lat="48.55403" lon="-3.37086">
        <ele>149.1</ele>
        <time>2020-06-10T16:44:37Z</time>
      </trkpt>
      <trkpt lat="48.55406" lon="-3.37081">
        <ele>149.1</ele>
        <time>2020-06-10T16:44:38Z</time>
      </trkpt>
      <trkpt lat="48.55409" lon="-3.37075">
        <ele>149.2</ele>
        <time>2020-06-10T16:44:39Z</time>
      </trkpt>
      <trkpt lat="48.55413" lon="-3.37069">
        <ele>149.2</ele>
        <time>2020-06-10T16:44:40Z</time>
      </trkpt>
      <trkpt lat="48.55415" lon="-3.37064">
        <ele>149.2</ele>
        <time>2020-06-10T16:44:41Z</time>
      </trkpt>
      <trkpt lat="48.55418" lon="-3.37058">
        <ele>149.2</ele>
        <time>2020-06-10T16:44:42Z</time>
      </trkpt>
      <trkpt lat="48.5542" lon="-3.37052">
        <ele>149.3</ele>
        <time>2020-06-10T16:44:43Z</time>
      </trkpt>
      <trkpt lat="48.55423" lon="-3.37046">
        <ele>149.4</ele>
        <time>2020-06-10T16:44:44Z</time>
      </trkpt>
      <trkpt lat="48.55426" lon="-3.37041">
        <ele>149.5</ele>
        <time>2020-06-10T16:44:45Z</time>
      </trkpt>
      <trkpt lat="48.55428" lon="-3.37035">
        <ele>149.6</ele>
        <time>2020-06-10T16:44:46Z</time>
      </trkpt>
      <trkpt lat="48.5543" lon="-3.3703">
        <ele>149.7</ele>
        <time>2020-06-10T16:44:47Z</time>
      </trkpt>
      <trkpt lat="48.55432" lon="-3.37024">
        <ele>149.8</ele>
        <time>2020-06-10T16:44:48Z</time>
      </trkpt>
      <trkpt lat="48.55434" lon="-3.37018">
        <ele>149.9</ele>
        <time>2020-06-10T16:44:49Z</time>
      </trkpt>
      <trkpt lat="48.55437" lon="-3.37012">
        <ele>150</ele>
        <time>2020-06-10T16:44:50Z</time>
      </trkpt>
      <trkpt lat="48.55439" lon="-3.37007">
        <ele>150.1</ele>
        <time>2020-06-10T16:44:51Z</time>
      </trkpt>
      <trkpt lat="48.55441" lon="-3.37002">
        <ele>150.2</ele>
        <time>2020-06-10T16:44:52Z</time>
      </trkpt>
      <trkpt lat="48.55444" lon="-3.36997">
        <ele>150.3</ele>
        <time>2020-06-10T16:44:53Z</time>
      </trkpt>
      <trkpt lat="48.55444" lon="-3.3699">
        <ele>150.4</ele>
        <time>2020-06-10T16:44:54Z</time>
      </trkpt>
      <trkpt lat="48.55446" lon="-3.36984">
        <ele>150.4</ele>
        <time>2020-06-10T16:44:55Z</time>
      </trkpt>
      <trkpt lat="48.55448" lon="-3.36978">
        <ele>150.5</ele>
        <time>2020-06-10T16:44:56Z</time>
      </trkpt>
      <trkpt lat="48.5545" lon="-3.36973">
        <ele>150.6</ele>
        <time>2020-06-10T16:44:57Z</time>
      </trkpt>
      <trkpt lat="48.55452" lon="-3.36968">
        <ele>150.7</ele>
        <time>2020-06-10T16:44:58Z</time>
      </trkpt>
      <trkpt lat="48.55455" lon="-3.36964">
        <ele>150.8</ele>
        <time>2020-06-10T16:44:59Z</time>
      </trkpt>
      <trkpt lat="48.55457" lon="-3.36959">
        <ele>150.9</ele>
        <time>2020-06-10T16:45:00Z</time>
      </trkpt>
      <trkpt lat="48.55459" lon="-3.36954">
        <ele>151</ele>
        <time>2020-06-10T16:45:01Z</time>
      </trkpt>
      <trkpt lat="48.55462" lon="-3.36949">
        <ele>151.2</ele>
        <time>2020-06-10T16:45:02Z</time>
      </trkpt>
      <trkpt lat="48.55463" lon="-3.36943">
        <ele>151.3</ele>
        <time>2020-06-10T16:45:03Z</time>
      </trkpt>
      <trkpt lat="48.55465" lon="-3.36938">
        <ele>151.4</ele>
        <time>2020-06-10T16:45:04Z</time>
      </trkpt>
      <trkpt lat="48.55467" lon="-3.36933">
        <ele>151.5</ele>
        <time>2020-06-10T16:45:05Z</time>
      </trkpt>
      <trkpt lat="48.55469" lon="-3.36928">
        <ele>151.6</ele>
        <time>2020-06-10T16:45:06Z</time>
      </trkpt>
      <trkpt lat="48.55471" lon="-3.36923">
        <ele>151.8</ele>
        <time>2020-06-10T16:45:07Z</time>
      </trkpt>
      <trkpt lat="48.55472" lon="-3.36917">
        <ele>152.2</ele>
        <time>2020-06-10T16:45:08Z</time>
      </trkpt>
      <trkpt lat="48.55474" lon="-3.36913">
        <ele>152.4</ele>
        <time>2020-06-10T16:45:09Z</time>
      </trkpt>
      <trkpt lat="48.55477" lon="-3.36909">
        <ele>152.6</ele>
        <time>2020-06-10T16:45:10Z</time>
      </trkpt>
      <trkpt lat="48.55478" lon="-3.36903">
        <ele>152.8</ele>
        <time>2020-06-10T16:45:11Z</time>
      </trkpt>
      <trkpt lat="48.5548" lon="-3.36899">
        <ele>153</ele>
        <time>2020-06-10T16:45:12Z</time>
      </trkpt>
      <trkpt lat="48.55482" lon="-3.36894">
        <ele>153.2</ele>
        <time>2020-06-10T16:45:13Z</time>
      </trkpt>
      <trkpt lat="48.55483" lon="-3.36889">
        <ele>153.4</ele>
        <time>2020-06-10T16:45:14Z</time>
      </trkpt>
      <trkpt lat="48.55484" lon="-3.36885">
        <ele>153.6</ele>
        <time>2020-06-10T16:45:15Z</time>
      </trkpt>
      <trkpt lat="48.55486" lon="-3.36881">
        <ele>153.8</ele>
        <time>2020-06-10T16:45:16Z</time>
      </trkpt>
      <trkpt lat="48.55488" lon="-3.36878">
        <ele>153.9</ele>
        <time>2020-06-10T16:45:17Z</time>
      </trkpt>
      <trkpt lat="48.5549" lon="-3.36874">
        <ele>154.1</ele>
        <time>2020-06-10T16:45:18Z</time>
      </trkpt>
      <trkpt lat="48.55491" lon="-3.3687">
        <ele>154.3</ele>
        <time>2020-06-10T16:45:19Z</time>
      </trkpt>
      <trkpt lat="48.55492" lon="-3.36865">
        <ele>154.5</ele>
        <time>2020-06-10T16:45:20Z</time>
      </trkpt>
      <trkpt lat="48.55493" lon="-3.36861">
        <ele>154.7</ele>
        <time>2020-06-10T16:45:21Z</time>
      </trkpt>
      <trkpt lat="48.55495" lon="-3.36857">
        <ele>154.8</ele>
        <time>2020-06-10T16:45:22Z</time>
      </trkpt>
      <trkpt lat="48.55496" lon="-3.36853">
        <ele>155</ele>
        <time>2020-06-10T16:45:23Z</time>
      </trkpt>
      <trkpt lat="48.55499" lon="-3.3685">
        <ele>155.2</ele>
        <time>2020-06-10T16:45:24Z</time>
      </trkpt>
      <trkpt lat="48.555" lon="-3.36847">
        <ele>155.4</ele>
        <time>2020-06-10T16:45:25Z</time>
      </trkpt>
      <trkpt lat="48.55501" lon="-3.36842">
        <ele>155.5</ele>
        <time>2020-06-10T16:45:26Z</time>
      </trkpt>
      <trkpt lat="48.55503" lon="-3.36838">
        <ele>155.7</ele>
        <time>2020-06-10T16:45:27Z</time>
      </trkpt>
      <trkpt lat="48.55505" lon="-3.36835">
        <ele>155.9</ele>
        <time>2020-06-10T16:45:28Z</time>
      </trkpt>
      <trkpt lat="48.55507" lon="-3.36832">
        <ele>156.1</ele>
        <time>2020-06-10T16:45:29Z</time>
      </trkpt>
      <trkpt lat="48.55509" lon="-3.36828">
        <ele>156.3</ele>
        <time>2020-06-10T16:45:30Z</time>
      </trkpt>
      <trkpt lat="48.5551" lon="-3.36823">
        <ele>156.5</ele>
        <time>2020-06-10T16:45:31Z</time>
      </trkpt>
      <trkpt lat="48.55512" lon="-3.3682">
        <ele>156.6</ele>
        <time>2020-06-10T16:45:32Z</time>
      </trkpt>
      <trkpt lat="48.55514" lon="-3.36816">
        <ele>156.8</ele>
        <time>2020-06-10T16:45:33Z</time>
      </trkpt>
      <trkpt lat="48.55516" lon="-3.36814">
        <ele>157</ele>
        <time>2020-06-10T16:45:34Z</time>
      </trkpt>
      <trkpt lat="48.55518" lon="-3.3681">
        <ele>157.2</ele>
        <time>2020-06-10T16:45:35Z</time>
      </trkpt>
      <trkpt lat="48.55519" lon="-3.36805">
        <ele>157.3</ele>
        <time>2020-06-10T16:45:36Z</time>
      </trkpt>
      <trkpt lat="48.5552" lon="-3.36801">
        <ele>157.5</ele>
        <time>2020-06-10T16:45:37Z</time>
      </trkpt>
      <trkpt lat="48.55522" lon="-3.36797">
        <ele>157.7</ele>
        <time>2020-06-10T16:45:38Z</time>
      </trkpt>
      <trkpt lat="48.55524" lon="-3.36793">
        <ele>157.9</ele>
        <time>2020-06-10T16:45:39Z</time>
      </trkpt>
      <trkpt lat="48.55525" lon="-3.36789">
        <ele>158.1</ele>
        <time>2020-06-10T16:45:40Z</time>
      </trkpt>
      <trkpt lat="48.55527" lon="-3.36785">
        <ele>158.3</ele>
        <time>2020-06-10T16:45:41Z</time>
      </trkpt>
      <trkpt lat="48.55528" lon="-3.3678">
        <ele>158.5</ele>
        <time>2020-06-10T16:45:42Z</time>
      </trkpt>
      <trkpt lat="48.5553" lon="-3.36776">
        <ele>158.7</ele>
        <time>2020-06-10T16:45:43Z</time>
      </trkpt>
      <trkpt lat="48.55532" lon="-3.36773">
        <ele>158.8</ele>
        <time>2020-06-10T16:45:44Z</time>
      </trkpt>
      <trkpt lat="48.55533" lon="-3.36769">
        <ele>159</ele>
        <time>2020-06-10T16:45:45Z</time>
      </trkpt>
      <trkpt lat="48.55534" lon="-3.36764">
        <ele>159.2</ele>
        <time>2020-06-10T16:45:46Z</time>
      </trkpt>
      <trkpt lat="48.55536" lon="-3.36761">
        <ele>159.4</ele>
        <time>2020-06-10T16:45:47Z</time>
      </trkpt>
      <trkpt lat="48.55537" lon="-3.36757">
        <ele>159.6</ele>
        <time>2020-06-10T16:45:48Z</time>
      </trkpt>
      <trkpt lat="48.5554" lon="-3.36753">
        <ele>159.7</ele>
        <time>2020-06-10T16:45:49Z</time>
      </trkpt>
      <trkpt lat="48.55541" lon="-3.36749">
        <ele>159.9</ele>
        <time>2020-06-10T16:45:50Z</time>
      </trkpt>
      <trkpt lat="48.55541" lon="-3.36745">
        <ele>160.1</ele>
        <time>2020-06-10T16:45:51Z</time>
      </trkpt>
      <trkpt lat="48.55543" lon="-3.36741">
        <ele>160.3</ele>
        <time>2020-06-10T16:45:52Z</time>
      </trkpt>
      <trkpt lat="48.55544" lon="-3.36736">
        <ele>160.5</ele>
        <time>2020-06-10T16:45:53Z</time>
      </trkpt>
      <trkpt lat="48.55546" lon="-3.36733">
        <ele>160.6</ele>
        <time>2020-06-10T16:45:54Z</time>
      </trkpt>
      <trkpt lat="48.55548" lon="-3.36728">
        <ele>160.8</ele>
        <time>2020-06-10T16:45:55Z</time>
      </trkpt>
      <trkpt lat="48.5555" lon="-3.36724">
        <ele>161</ele>
        <time>2020-06-10T16:45:56Z</time>
      </trkpt>
      <trkpt lat="48.55551" lon="-3.36718">
        <ele>161.2</ele>
        <time>2020-06-10T16:45:57Z</time>
      </trkpt>
      <trkpt lat="48.55552" lon="-3.36714">
        <ele>161.3</ele>
        <time>2020-06-10T16:45:58Z</time>
      </trkpt>
      <trkpt lat="48.55553" lon="-3.3671">
        <ele>161.5</ele>
        <time>2020-06-10T16:45:59Z</time>
      </trkpt>
      <trkpt lat="48.55555" lon="-3.36705">
        <ele>161.6</ele>
        <time>2020-06-10T16:46:00Z</time>
      </trkpt>
      <trkpt lat="48.55555" lon="-3.36703">
        <ele>161.7</ele>
        <time>2020-06-10T16:46:01Z</time>
      </trkpt>
      <trkpt lat="48.55558" lon="-3.36698">
        <ele>161.9</ele>
        <time>2020-06-10T16:46:02Z</time>
      </trkpt>
      <trkpt lat="48.55559" lon="-3.36697">
        <ele>162</ele>
        <time>2020-06-10T16:46:03Z</time>
      </trkpt>
      <trkpt lat="48.55561" lon="-3.36691">
        <ele>162.2</ele>
        <time>2020-06-10T16:46:04Z</time>
      </trkpt>
      <trkpt lat="48.55562" lon="-3.36688">
        <ele>162.3</ele>
        <time>2020-06-10T16:46:05Z</time>
      </trkpt>
      <trkpt lat="48.55564" lon="-3.36683">
        <ele>162.4</ele>
        <time>2020-06-10T16:46:06Z</time>
      </trkpt>
      <trkpt lat="48.55565" lon="-3.36679">
        <ele>162.6</ele>
        <time>2020-06-10T16:46:07Z</time>
      </trkpt>
      <trkpt lat="48.55567" lon="-3.36675">
        <ele>162.7</ele>
        <time>2020-06-10T16:46:08Z</time>
      </trkpt>
      <trkpt lat="48.55569" lon="-3.36669">
        <ele>162.8</ele>
        <time>2020-06-10T16:46:09Z</time>
      </trkpt>
      <trkpt lat="48.55571" lon="-3.36667">
        <ele>162.9</ele>
        <time>2020-06-10T16:46:10Z</time>
      </trkpt>
      <trkpt lat="48.55573" lon="-3.36662">
        <ele>163</ele>
        <time>2020-06-10T16:46:11Z</time>
      </trkpt>
      <trkpt lat="48.55574" lon="-3.36658">
        <ele>163.1</ele>
        <time>2020-06-10T16:46:12Z</time>
      </trkpt>
      <trkpt lat="48.55577" lon="-3.36654">
        <ele>163.2</ele>
        <time>2020-06-10T16:46:13Z</time>
      </trkpt>
      <trkpt lat="48.55579" lon="-3.36649">
        <ele>163.3</ele>
        <time>2020-06-10T16:46:14Z</time>
      </trkpt>
      <trkpt lat="48.5558" lon="-3.36644">
        <ele>163.3</ele>
        <time>2020-06-10T16:46:15Z</time>
      </trkpt>
      <trkpt lat="48.55582" lon="-3.36639">
        <ele>163.4</ele>
        <time>2020-06-10T16:46:16Z</time>
      </trkpt>
      <trkpt lat="48.55583" lon="-3.36634">
        <ele>163.5</ele>
        <time>2020-06-10T16:46:17Z</time>
      </trkpt>
      <trkpt lat="48.55585" lon="-3.36629">
        <ele>163.5</ele>
        <time>2020-06-10T16:46:18Z</time>
      </trkpt>
      <trkpt lat="48.55587" lon="-3.36626">
        <ele>163.6</ele>
        <time>2020-06-10T16:46:19Z</time>
      </trkpt>
      <trkpt lat="48.55589" lon="-3.36622">
        <ele>163.6</ele>
        <time>2020-06-10T16:46:20Z</time>
      </trkpt>
      <trkpt lat="48.55592" lon="-3.36617">
        <ele>163.7</ele>
        <time>2020-06-10T16:46:21Z</time>
      </trkpt>
      <trkpt lat="48.55593" lon="-3.36612">
        <ele>163.7</ele>
        <time>2020-06-10T16:46:22Z</time>
      </trkpt>
      <trkpt lat="48.55594" lon="-3.36607">
        <ele>163.7</ele>
        <time>2020-06-10T16:46:23Z</time>
      </trkpt>
      <trkpt lat="48.55596" lon="-3.36603">
        <ele>163.8</ele>
        <time>2020-06-10T16:46:24Z</time>
      </trkpt>
      <trkpt lat="48.55597" lon="-3.36598">
        <ele>163.8</ele>
        <time>2020-06-10T16:46:25Z</time>
      </trkpt>
      <trkpt lat="48.55599" lon="-3.36592">
        <ele>163.8</ele>
        <time>2020-06-10T16:46:26Z</time>
      </trkpt>
      <trkpt lat="48.55601" lon="-3.36587">
        <ele>163.9</ele>
        <time>2020-06-10T16:46:27Z</time>
      </trkpt>
      <trkpt lat="48.55603" lon="-3.36582">
        <ele>163.9</ele>
        <time>2020-06-10T16:46:28Z</time>
      </trkpt>
      <trkpt lat="48.55605" lon="-3.36576">
        <ele>164</ele>
        <time>2020-06-10T16:46:29Z</time>
      </trkpt>
      <trkpt lat="48.55607" lon="-3.36572">
        <ele>164</ele>
        <time>2020-06-10T16:46:30Z</time>
      </trkpt>
      <trkpt lat="48.55609" lon="-3.36568">
        <ele>164.1</ele>
        <time>2020-06-10T16:46:31Z</time>
      </trkpt>
      <trkpt lat="48.55612" lon="-3.36562">
        <ele>164.1</ele>
        <time>2020-06-10T16:46:32Z</time>
      </trkpt>
      <trkpt lat="48.55614" lon="-3.36557">
        <ele>164.2</ele>
        <time>2020-06-10T16:46:33Z</time>
      </trkpt>
      <trkpt lat="48.55616" lon="-3.36551">
        <ele>164.2</ele>
        <time>2020-06-10T16:46:34Z</time>
      </trkpt>
      <trkpt lat="48.55618" lon="-3.36547">
        <ele>164.2</ele>
        <time>2020-06-10T16:46:35Z</time>
      </trkpt>
      <trkpt lat="48.5562" lon="-3.36541">
        <ele>164.3</ele>
        <time>2020-06-10T16:46:36Z</time>
      </trkpt>
      <trkpt lat="48.55622" lon="-3.36535">
        <ele>164.3</ele>
        <time>2020-06-10T16:46:37Z</time>
      </trkpt>
      <trkpt lat="48.55625" lon="-3.36528">
        <ele>164.4</ele>
        <time>2020-06-10T16:46:38Z</time>
      </trkpt>
      <trkpt lat="48.55626" lon="-3.36524">
        <ele>164.4</ele>
        <time>2020-06-10T16:46:39Z</time>
      </trkpt>
      <trkpt lat="48.55629" lon="-3.36518">
        <ele>164.5</ele>
        <time>2020-06-10T16:46:40Z</time>
      </trkpt>
      <trkpt lat="48.55632" lon="-3.36512">
        <ele>164.5</ele>
        <time>2020-06-10T16:46:41Z</time>
      </trkpt>
      <trkpt lat="48.55633" lon="-3.36506">
        <ele>164.6</ele>
        <time>2020-06-10T16:46:42Z</time>
      </trkpt>
      <trkpt lat="48.55635" lon="-3.36501">
        <ele>164.6</ele>
        <time>2020-06-10T16:46:43Z</time>
      </trkpt>
      <trkpt lat="48.55637" lon="-3.36495">
        <ele>164.7</ele>
        <time>2020-06-10T16:46:44Z</time>
      </trkpt>
      <trkpt lat="48.55639" lon="-3.36489">
        <ele>164.8</ele>
        <time>2020-06-10T16:46:45Z</time>
      </trkpt>
      <trkpt lat="48.55641" lon="-3.36485">
        <ele>164.9</ele>
        <time>2020-06-10T16:46:46Z</time>
      </trkpt>
      <trkpt lat="48.55643" lon="-3.36481">
        <ele>165</ele>
        <time>2020-06-10T16:46:47Z</time>
      </trkpt>
      <trkpt lat="48.55645" lon="-3.36475">
        <ele>165.1</ele>
        <time>2020-06-10T16:46:48Z</time>
      </trkpt>
      <trkpt lat="48.55648" lon="-3.36468">
        <ele>165.2</ele>
        <time>2020-06-10T16:46:49Z</time>
      </trkpt>
      <trkpt lat="48.5565" lon="-3.3646">
        <ele>165.4</ele>
        <time>2020-06-10T16:46:50Z</time>
      </trkpt>
      <trkpt lat="48.55652" lon="-3.36455">
        <ele>165.5</ele>
        <time>2020-06-10T16:46:51Z</time>
      </trkpt>
      <trkpt lat="48.55654" lon="-3.36451">
        <ele>165.6</ele>
        <time>2020-06-10T16:46:52Z</time>
      </trkpt>
      <trkpt lat="48.55655" lon="-3.36444">
        <ele>165.7</ele>
        <time>2020-06-10T16:46:53Z</time>
      </trkpt>
      <trkpt lat="48.55657" lon="-3.36439">
        <ele>165.8</ele>
        <time>2020-06-10T16:46:54Z</time>
      </trkpt>
      <trkpt lat="48.5566" lon="-3.36433">
        <ele>165.9</ele>
        <time>2020-06-10T16:46:55Z</time>
      </trkpt>
      <trkpt lat="48.55661" lon="-3.36428">
        <ele>165.9</ele>
        <time>2020-06-10T16:46:56Z</time>
      </trkpt>
      <trkpt lat="48.55663" lon="-3.36424">
        <ele>166</ele>
        <time>2020-06-10T16:46:57Z</time>
      </trkpt>
      <trkpt lat="48.55665" lon="-3.3642">
        <ele>166.1</ele>
        <time>2020-06-10T16:46:58Z</time>
      </trkpt>
      <trkpt lat="48.55667" lon="-3.36416">
        <ele>166.3</ele>
        <time>2020-06-10T16:46:59Z</time>
      </trkpt>
      <trkpt lat="48.5567" lon="-3.3641">
        <ele>166.5</ele>
        <time>2020-06-10T16:47:00Z</time>
      </trkpt>
      <trkpt lat="48.55672" lon="-3.36403">
        <ele>166.7</ele>
        <time>2020-06-10T16:47:01Z</time>
      </trkpt>
      <trkpt lat="48.55674" lon="-3.36396">
        <ele>166.9</ele>
        <time>2020-06-10T16:47:02Z</time>
      </trkpt>
      <trkpt lat="48.55676" lon="-3.36392">
        <ele>167</ele>
        <time>2020-06-10T16:47:03Z</time>
      </trkpt>
      <trkpt lat="48.55678" lon="-3.36386">
        <ele>167.2</ele>
        <time>2020-06-10T16:47:04Z</time>
      </trkpt>
      <trkpt lat="48.5568" lon="-3.3638">
        <ele>167.3</ele>
        <time>2020-06-10T16:47:05Z</time>
      </trkpt>
      <trkpt lat="48.55682" lon="-3.36374">
        <ele>167.5</ele>
        <time>2020-06-10T16:47:06Z</time>
      </trkpt>
      <trkpt lat="48.55684" lon="-3.36369">
        <ele>167.6</ele>
        <time>2020-06-10T16:47:07Z</time>
      </trkpt>
      <trkpt lat="48.55686" lon="-3.36362">
        <ele>167.8</ele>
        <time>2020-06-10T16:47:08Z</time>
      </trkpt>
      <trkpt lat="48.55689" lon="-3.36357">
        <ele>168</ele>
        <time>2020-06-10T16:47:09Z</time>
      </trkpt>
      <trkpt lat="48.5569" lon="-3.36355">
        <ele>168</ele>
        <time>2020-06-10T16:47:10Z</time>
      </trkpt>
      <trkpt lat="48.55692" lon="-3.3635">
        <ele>168.2</ele>
        <time>2020-06-10T16:47:11Z</time>
      </trkpt>
      <trkpt lat="48.55693" lon="-3.36345">
        <ele>168.4</ele>
        <time>2020-06-10T16:47:12Z</time>
      </trkpt>
      <trkpt lat="48.55695" lon="-3.36342">
        <ele>168.5</ele>
        <time>2020-06-10T16:47:13Z</time>
      </trkpt>
      <trkpt lat="48.55696" lon="-3.36335">
        <ele>168.7</ele>
        <time>2020-06-10T16:47:14Z</time>
      </trkpt>
      <trkpt lat="48.55699" lon="-3.3633">
        <ele>168.9</ele>
        <time>2020-06-10T16:47:15Z</time>
      </trkpt>
      <trkpt lat="48.55701" lon="-3.36327">
        <ele>169</ele>
        <time>2020-06-10T16:47:16Z</time>
      </trkpt>
      <trkpt lat="48.55703" lon="-3.36323">
        <ele>169.2</ele>
        <time>2020-06-10T16:47:17Z</time>
      </trkpt>
      <trkpt lat="48.55705" lon="-3.36317">
        <ele>169.3</ele>
        <time>2020-06-10T16:47:18Z</time>
      </trkpt>
      <trkpt lat="48.55706" lon="-3.36314">
        <ele>169.5</ele>
        <time>2020-06-10T16:47:19Z</time>
      </trkpt>
      <trkpt lat="48.55708" lon="-3.36308">
        <ele>169.7</ele>
        <time>2020-06-10T16:47:20Z</time>
      </trkpt>
      <trkpt lat="48.5571" lon="-3.36303">
        <ele>169.8</ele>
        <time>2020-06-10T16:47:21Z</time>
      </trkpt>
      <trkpt lat="48.55711" lon="-3.36299">
        <ele>170</ele>
        <time>2020-06-10T16:47:22Z</time>
      </trkpt>
      <trkpt lat="48.55712" lon="-3.36297">
        <ele>170</ele>
        <time>2020-06-10T16:47:23Z</time>
      </trkpt>
      <trkpt lat="48.55714" lon="-3.36294">
        <ele>170.2</ele>
        <time>2020-06-10T16:47:24Z</time>
      </trkpt>
      <trkpt lat="48.55715" lon="-3.36289">
        <ele>170.3</ele>
        <time>2020-06-10T16:47:25Z</time>
      </trkpt>
      <trkpt lat="48.55716" lon="-3.36286">
        <ele>170.4</ele>
        <time>2020-06-10T16:47:26Z</time>
      </trkpt>
      <trkpt lat="48.55717" lon="-3.36281">
        <ele>170.5</ele>
        <time>2020-06-10T16:47:27Z</time>
      </trkpt>
      <trkpt lat="48.55719" lon="-3.36276">
        <ele>170.7</ele>
        <time>2020-06-10T16:47:28Z</time>
      </trkpt>
      <trkpt lat="48.55721" lon="-3.3627">
        <ele>170.8</ele>
        <time>2020-06-10T16:47:29Z</time>
      </trkpt>
      <trkpt lat="48.55723" lon="-3.36266">
        <ele>171</ele>
        <time>2020-06-10T16:47:30Z</time>
      </trkpt>
      <trkpt lat="48.55724" lon="-3.36261">
        <ele>171.1</ele>
        <time>2020-06-10T16:47:31Z</time>
      </trkpt>
      <trkpt lat="48.55726" lon="-3.36258">
        <ele>171.2</ele>
        <time>2020-06-10T16:47:32Z</time>
      </trkpt>
      <trkpt lat="48.55729" lon="-3.36255">
        <ele>171.3</ele>
        <time>2020-06-10T16:47:33Z</time>
      </trkpt>
      <trkpt lat="48.5573" lon="-3.3625">
        <ele>171.5</ele>
        <time>2020-06-10T16:47:34Z</time>
      </trkpt>
      <trkpt lat="48.55732" lon="-3.36244">
        <ele>171.6</ele>
        <time>2020-06-10T16:47:35Z</time>
      </trkpt>
      <trkpt lat="48.55733" lon="-3.36242">
        <ele>171.7</ele>
        <time>2020-06-10T16:47:36Z</time>
      </trkpt>
      <trkpt lat="48.55735" lon="-3.36236">
        <ele>171.8</ele>
        <time>2020-06-10T16:47:37Z</time>
      </trkpt>
      <trkpt lat="48.55735" lon="-3.36234">
        <ele>171.9</ele>
        <time>2020-06-10T16:47:38Z</time>
      </trkpt>
      <trkpt lat="48.55738" lon="-3.36229">
        <ele>172</ele>
        <time>2020-06-10T16:47:39Z</time>
      </trkpt>
      <trkpt lat="48.55739" lon="-3.36227">
        <ele>172</ele>
        <time>2020-06-10T16:47:40Z</time>
      </trkpt>
      <trkpt lat="48.5574" lon="-3.36222">
        <ele>172.1</ele>
        <time>2020-06-10T16:47:41Z</time>
      </trkpt>
      <trkpt lat="48.55742" lon="-3.36217">
        <ele>172.2</ele>
        <time>2020-06-10T16:47:42Z</time>
      </trkpt>
      <trkpt lat="48.55744" lon="-3.36213">
        <ele>172.3</ele>
        <time>2020-06-10T16:47:43Z</time>
      </trkpt>
      <trkpt lat="48.55746" lon="-3.36209">
        <ele>172.4</ele>
        <time>2020-06-10T16:47:44Z</time>
      </trkpt>
      <trkpt lat="48.55748" lon="-3.36205">
        <ele>172.4</ele>
        <time>2020-06-10T16:47:45Z</time>
      </trkpt>
      <trkpt lat="48.5575" lon="-3.36201">
        <ele>172.5</ele>
        <time>2020-06-10T16:47:46Z</time>
      </trkpt>
      <trkpt lat="48.55751" lon="-3.36196">
        <ele>172.5</ele>
        <time>2020-06-10T16:47:47Z</time>
      </trkpt>
      <trkpt lat="48.55752" lon="-3.36193">
        <ele>172.6</ele>
        <time>2020-06-10T16:47:48Z</time>
      </trkpt>
      <trkpt lat="48.55753" lon="-3.36189">
        <ele>172.6</ele>
        <time>2020-06-10T16:47:49Z</time>
      </trkpt>
      <trkpt lat="48.55755" lon="-3.36185">
        <ele>172.7</ele>
        <time>2020-06-10T16:47:50Z</time>
      </trkpt>
      <trkpt lat="48.55756" lon="-3.3618">
        <ele>172.7</ele>
        <time>2020-06-10T16:47:51Z</time>
      </trkpt>
      <trkpt lat="48.55758" lon="-3.36175">
        <ele>172.8</ele>
        <time>2020-06-10T16:47:52Z</time>
      </trkpt>
      <trkpt lat="48.5576" lon="-3.36171">
        <ele>172.8</ele>
        <time>2020-06-10T16:47:53Z</time>
      </trkpt>
      <trkpt lat="48.55761" lon="-3.36167">
        <ele>172.9</ele>
        <time>2020-06-10T16:47:54Z</time>
      </trkpt>
      <trkpt lat="48.55763" lon="-3.36162">
        <ele>172.9</ele>
        <time>2020-06-10T16:47:55Z</time>
      </trkpt>
      <trkpt lat="48.55765" lon="-3.36157">
        <ele>172.9</ele>
        <time>2020-06-10T16:47:56Z</time>
      </trkpt>
      <trkpt lat="48.55766" lon="-3.36153">
        <ele>173</ele>
        <time>2020-06-10T16:47:57Z</time>
      </trkpt>
      <trkpt lat="48.55768" lon="-3.36149">
        <ele>173</ele>
        <time>2020-06-10T16:47:58Z</time>
      </trkpt>
      <trkpt lat="48.55769" lon="-3.36144">
        <ele>173</ele>
        <time>2020-06-10T16:47:59Z</time>
      </trkpt>
      <trkpt lat="48.55771" lon="-3.3614">
        <ele>173.1</ele>
        <time>2020-06-10T16:48:00Z</time>
      </trkpt>
      <trkpt lat="48.55773" lon="-3.36135">
        <ele>173.1</ele>
        <time>2020-06-10T16:48:01Z</time>
      </trkpt>
      <trkpt lat="48.55775" lon="-3.36131">
        <ele>173.1</ele>
        <time>2020-06-10T16:48:02Z</time>
      </trkpt>
      <trkpt lat="48.55777" lon="-3.36126">
        <ele>173.1</ele>
        <time>2020-06-10T16:48:03Z</time>
      </trkpt>
      <trkpt lat="48.55779" lon="-3.36122">
        <ele>173.1</ele>
        <time>2020-06-10T16:48:04Z</time>
      </trkpt>
      <trkpt lat="48.5578" lon="-3.3612">
        <ele>173.1</ele>
        <time>2020-06-10T16:48:05Z</time>
      </trkpt>
      <trkpt lat="48.55782" lon="-3.36114">
        <ele>173.1</ele>
        <time>2020-06-10T16:48:06Z</time>
      </trkpt>
      <trkpt lat="48.55784" lon="-3.36108">
        <ele>173</ele>
        <time>2020-06-10T16:48:07Z</time>
      </trkpt>
      <trkpt lat="48.55785" lon="-3.36103">
        <ele>173</ele>
        <time>2020-06-10T16:48:08Z</time>
      </trkpt>
      <trkpt lat="48.55787" lon="-3.36098">
        <ele>173.1</ele>
        <time>2020-06-10T16:48:09Z</time>
      </trkpt>
      <trkpt lat="48.5579" lon="-3.36092">
        <ele>173.2</ele>
        <time>2020-06-10T16:48:10Z</time>
      </trkpt>
      <trkpt lat="48.55793" lon="-3.36086">
        <ele>173.3</ele>
        <time>2020-06-10T16:48:11Z</time>
      </trkpt>
      <trkpt lat="48.55794" lon="-3.36081">
        <ele>173.4</ele>
        <time>2020-06-10T16:48:12Z</time>
      </trkpt>
      <trkpt lat="48.55796" lon="-3.36077">
        <ele>173.4</ele>
        <time>2020-06-10T16:48:13Z</time>
      </trkpt>
      <trkpt lat="48.55798" lon="-3.36072">
        <ele>173.4</ele>
        <time>2020-06-10T16:48:14Z</time>
      </trkpt>
      <trkpt lat="48.558" lon="-3.36068">
        <ele>173.5</ele>
        <time>2020-06-10T16:48:15Z</time>
      </trkpt>
      <trkpt lat="48.55802" lon="-3.36063">
        <ele>173.5</ele>
        <time>2020-06-10T16:48:16Z</time>
      </trkpt>
      <trkpt lat="48.55803" lon="-3.36057">
        <ele>173.5</ele>
        <time>2020-06-10T16:48:17Z</time>
      </trkpt>
      <trkpt lat="48.55804" lon="-3.36052">
        <ele>173.5</ele>
        <time>2020-06-10T16:48:18Z</time>
      </trkpt>
      <trkpt lat="48.55806" lon="-3.36045">
        <ele>173.5</ele>
        <time>2020-06-10T16:48:19Z</time>
      </trkpt>
      <trkpt lat="48.55808" lon="-3.36038">
        <ele>173.6</ele>
        <time>2020-06-10T16:48:20Z</time>
      </trkpt>
      <trkpt lat="48.5581" lon="-3.36033">
        <ele>173.6</ele>
        <time>2020-06-10T16:48:21Z</time>
      </trkpt>
      <trkpt lat="48.55812" lon="-3.36028">
        <ele>173.6</ele>
        <time>2020-06-10T16:48:22Z</time>
      </trkpt>
      <trkpt lat="48.55815" lon="-3.36023">
        <ele>173.6</ele>
        <time>2020-06-10T16:48:23Z</time>
      </trkpt>
      <trkpt lat="48.55817" lon="-3.36017">
        <ele>173.7</ele>
        <time>2020-06-10T16:48:24Z</time>
      </trkpt>
      <trkpt lat="48.5582" lon="-3.36011">
        <ele>173.7</ele>
        <time>2020-06-10T16:48:25Z</time>
      </trkpt>
      <trkpt lat="48.55823" lon="-3.36007">
        <ele>173.7</ele>
        <time>2020-06-10T16:48:26Z</time>
      </trkpt>
      <trkpt lat="48.55824" lon="-3.36002">
        <ele>173.7</ele>
        <time>2020-06-10T16:48:27Z</time>
      </trkpt>
      <trkpt lat="48.55828" lon="-3.35995">
        <ele>173.7</ele>
        <time>2020-06-10T16:48:28Z</time>
      </trkpt>
      <trkpt lat="48.5583" lon="-3.3599">
        <ele>173.8</ele>
        <time>2020-06-10T16:48:29Z</time>
      </trkpt>
      <trkpt lat="48.55832" lon="-3.35985">
        <ele>173.8</ele>
        <time>2020-06-10T16:48:30Z</time>
      </trkpt>
      <trkpt lat="48.55834" lon="-3.3598">
        <ele>173.7</ele>
        <time>2020-06-10T16:48:31Z</time>
      </trkpt>
      <trkpt lat="48.55835" lon="-3.35975">
        <ele>173.7</ele>
        <time>2020-06-10T16:48:32Z</time>
      </trkpt>
      <trkpt lat="48.55836" lon="-3.35969">
        <ele>173.7</ele>
        <time>2020-06-10T16:48:33Z</time>
      </trkpt>
      <trkpt lat="48.55839" lon="-3.35963">
        <ele>173.6</ele>
        <time>2020-06-10T16:48:34Z</time>
      </trkpt>
      <trkpt lat="48.55842" lon="-3.35958">
        <ele>173.6</ele>
        <time>2020-06-10T16:48:35Z</time>
      </trkpt>
      <trkpt lat="48.55844" lon="-3.35953">
        <ele>173.6</ele>
        <time>2020-06-10T16:48:36Z</time>
      </trkpt>
      <trkpt lat="48.55846" lon="-3.35947">
        <ele>173.5</ele>
        <time>2020-06-10T16:48:37Z</time>
      </trkpt>
      <trkpt lat="48.55848" lon="-3.35941">
        <ele>173.5</ele>
        <time>2020-06-10T16:48:38Z</time>
      </trkpt>
      <trkpt lat="48.5585" lon="-3.35934">
        <ele>173.4</ele>
        <time>2020-06-10T16:48:39Z</time>
      </trkpt>
      <trkpt lat="48.55853" lon="-3.35927">
        <ele>173.4</ele>
        <time>2020-06-10T16:48:40Z</time>
      </trkpt>
      <trkpt lat="48.55855" lon="-3.35922">
        <ele>173.3</ele>
        <time>2020-06-10T16:48:41Z</time>
      </trkpt>
      <trkpt lat="48.55857" lon="-3.35915">
        <ele>173.3</ele>
        <time>2020-06-10T16:48:42Z</time>
      </trkpt>
      <trkpt lat="48.55859" lon="-3.35909">
        <ele>173.2</ele>
        <time>2020-06-10T16:48:43Z</time>
      </trkpt>
      <trkpt lat="48.55862" lon="-3.35902">
        <ele>173.1</ele>
        <time>2020-06-10T16:48:44Z</time>
      </trkpt>
      <trkpt lat="48.55864" lon="-3.35895">
        <ele>173.1</ele>
        <time>2020-06-10T16:48:45Z</time>
      </trkpt>
      <trkpt lat="48.55866" lon="-3.35891">
        <ele>173</ele>
        <time>2020-06-10T16:48:46Z</time>
      </trkpt>
      <trkpt lat="48.55868" lon="-3.35886">
        <ele>173</ele>
        <time>2020-06-10T16:48:47Z</time>
      </trkpt>
      <trkpt lat="48.5587" lon="-3.35881">
        <ele>172.9</ele>
        <time>2020-06-10T16:48:48Z</time>
      </trkpt>
      <trkpt lat="48.55872" lon="-3.35875">
        <ele>172.9</ele>
        <time>2020-06-10T16:48:49Z</time>
      </trkpt>
      <trkpt lat="48.55875" lon="-3.35868">
        <ele>172.8</ele>
        <time>2020-06-10T16:48:50Z</time>
      </trkpt>
      <trkpt lat="48.55877" lon="-3.35864">
        <ele>172.7</ele>
        <time>2020-06-10T16:48:51Z</time>
      </trkpt>
      <trkpt lat="48.5588" lon="-3.35858">
        <ele>172.6</ele>
        <time>2020-06-10T16:48:52Z</time>
      </trkpt>
      <trkpt lat="48.55883" lon="-3.35849">
        <ele>172.5</ele>
        <time>2020-06-10T16:48:53Z</time>
      </trkpt>
      <trkpt lat="48.55885" lon="-3.35841">
        <ele>172.3</ele>
        <time>2020-06-10T16:48:54Z</time>
      </trkpt>
      <trkpt lat="48.55888" lon="-3.35833">
        <ele>172.2</ele>
        <time>2020-06-10T16:48:55Z</time>
      </trkpt>
      <trkpt lat="48.55891" lon="-3.35825">
        <ele>172.1</ele>
        <time>2020-06-10T16:48:56Z</time>
      </trkpt>
      <trkpt lat="48.55894" lon="-3.35818">
        <ele>172</ele>
        <time>2020-06-10T16:48:57Z</time>
      </trkpt>
      <trkpt lat="48.55896" lon="-3.35811">
        <ele>171.9</ele>
        <time>2020-06-10T16:48:58Z</time>
      </trkpt>
      <trkpt lat="48.559" lon="-3.35803">
        <ele>171.8</ele>
        <time>2020-06-10T16:48:59Z</time>
      </trkpt>
      <trkpt lat="48.55903" lon="-3.35796">
        <ele>171.6</ele>
        <time>2020-06-10T16:49:00Z</time>
      </trkpt>
      <trkpt lat="48.55906" lon="-3.35788">
        <ele>171.5</ele>
        <time>2020-06-10T16:49:01Z</time>
      </trkpt>
      <trkpt lat="48.55909" lon="-3.3578">
        <ele>171.3</ele>
        <time>2020-06-10T16:49:02Z</time>
      </trkpt>
      <trkpt lat="48.55912" lon="-3.35773">
        <ele>171.2</ele>
        <time>2020-06-10T16:49:03Z</time>
      </trkpt>
      <trkpt lat="48.55914" lon="-3.35766">
        <ele>171.1</ele>
        <time>2020-06-10T16:49:04Z</time>
      </trkpt>
      <trkpt lat="48.55916" lon="-3.35758">
        <ele>170.9</ele>
        <time>2020-06-10T16:49:05Z</time>
      </trkpt>
      <trkpt lat="48.55919" lon="-3.3575">
        <ele>170.8</ele>
        <time>2020-06-10T16:49:06Z</time>
      </trkpt>
      <trkpt lat="48.55921" lon="-3.35743">
        <ele>170.7</ele>
        <time>2020-06-10T16:49:07Z</time>
      </trkpt>
      <trkpt lat="48.55924" lon="-3.35735">
        <ele>170.7</ele>
        <time>2020-06-10T16:49:08Z</time>
      </trkpt>
      <trkpt lat="48.55927" lon="-3.3573">
        <ele>170.6</ele>
        <time>2020-06-10T16:49:09Z</time>
      </trkpt>
      <trkpt lat="48.5593" lon="-3.35722">
        <ele>170.5</ele>
        <time>2020-06-10T16:49:10Z</time>
      </trkpt>
      <trkpt lat="48.55933" lon="-3.35714">
        <ele>170.3</ele>
        <time>2020-06-10T16:49:11Z</time>
      </trkpt>
      <trkpt lat="48.55935" lon="-3.35707">
        <ele>170.2</ele>
        <time>2020-06-10T16:49:12Z</time>
      </trkpt>
      <trkpt lat="48.55938" lon="-3.35698">
        <ele>170</ele>
        <time>2020-06-10T16:49:13Z</time>
      </trkpt>
      <trkpt lat="48.5594" lon="-3.35689">
        <ele>169.9</ele>
        <time>2020-06-10T16:49:14Z</time>
      </trkpt>
      <trkpt lat="48.55943" lon="-3.35682">
        <ele>169.8</ele>
        <time>2020-06-10T16:49:15Z</time>
      </trkpt>
      <trkpt lat="48.55947" lon="-3.35675">
        <ele>169.6</ele>
        <time>2020-06-10T16:49:16Z</time>
      </trkpt>
      <trkpt lat="48.5595" lon="-3.35666">
        <ele>169.5</ele>
        <time>2020-06-10T16:49:17Z</time>
      </trkpt>
      <trkpt lat="48.55954" lon="-3.35656">
        <ele>169.3</ele>
        <time>2020-06-10T16:49:18Z</time>
      </trkpt>
      <trkpt lat="48.55958" lon="-3.35648">
        <ele>169.2</ele>
        <time>2020-06-10T16:49:19Z</time>
      </trkpt>
      <trkpt lat="48.55961" lon="-3.35639">
        <ele>169.1</ele>
        <time>2020-06-10T16:49:20Z</time>
      </trkpt>
      <trkpt lat="48.55965" lon="-3.3563">
        <ele>169</ele>
        <time>2020-06-10T16:49:21Z</time>
      </trkpt>
      <trkpt lat="48.55968" lon="-3.35622">
        <ele>168.9</ele>
        <time>2020-06-10T16:49:22Z</time>
      </trkpt>
      <trkpt lat="48.5597" lon="-3.35615">
        <ele>168.9</ele>
        <time>2020-06-10T16:49:23Z</time>
      </trkpt>
      <trkpt lat="48.55974" lon="-3.35607">
        <ele>168.9</ele>
        <time>2020-06-10T16:49:24Z</time>
      </trkpt>
      <trkpt lat="48.55976" lon="-3.35598">
        <ele>168.9</ele>
        <time>2020-06-10T16:49:25Z</time>
      </trkpt>
      <trkpt lat="48.55979" lon="-3.35591">
        <ele>168.9</ele>
        <time>2020-06-10T16:49:26Z</time>
      </trkpt>
      <trkpt lat="48.55983" lon="-3.35581">
        <ele>168.9</ele>
        <time>2020-06-10T16:49:27Z</time>
      </trkpt>
      <trkpt lat="48.55986" lon="-3.35573">
        <ele>169</ele>
        <time>2020-06-10T16:49:28Z</time>
      </trkpt>
      <trkpt lat="48.5599" lon="-3.35565">
        <ele>169</ele>
        <time>2020-06-10T16:49:29Z</time>
      </trkpt>
      <trkpt lat="48.55993" lon="-3.35557">
        <ele>169.1</ele>
        <time>2020-06-10T16:49:30Z</time>
      </trkpt>
      <trkpt lat="48.55996" lon="-3.35549">
        <ele>169.2</ele>
        <time>2020-06-10T16:49:31Z</time>
      </trkpt>
      <trkpt lat="48.55999" lon="-3.35542">
        <ele>169.3</ele>
        <time>2020-06-10T16:49:32Z</time>
      </trkpt>
      <trkpt lat="48.56002" lon="-3.35532">
        <ele>169.4</ele>
        <time>2020-06-10T16:49:33Z</time>
      </trkpt>
      <trkpt lat="48.56005" lon="-3.35524">
        <ele>169.4</ele>
        <time>2020-06-10T16:49:34Z</time>
      </trkpt>
      <trkpt lat="48.56008" lon="-3.35518">
        <ele>169.4</ele>
        <time>2020-06-10T16:49:35Z</time>
      </trkpt>
      <trkpt lat="48.5601" lon="-3.35511">
        <ele>169.4</ele>
        <time>2020-06-10T16:49:36Z</time>
      </trkpt>
      <trkpt lat="48.56012" lon="-3.35505">
        <ele>169.4</ele>
        <time>2020-06-10T16:49:37Z</time>
      </trkpt>
      <trkpt lat="48.56014" lon="-3.35496">
        <ele>169.4</ele>
        <time>2020-06-10T16:49:38Z</time>
      </trkpt>
      <trkpt lat="48.56016" lon="-3.3549">
        <ele>169.4</ele>
        <time>2020-06-10T16:49:39Z</time>
      </trkpt>
      <trkpt lat="48.56019" lon="-3.35484">
        <ele>169.4</ele>
        <time>2020-06-10T16:49:40Z</time>
      </trkpt>
      <trkpt lat="48.56023" lon="-3.35477">
        <ele>169.3</ele>
        <time>2020-06-10T16:49:41Z</time>
      </trkpt>
      <trkpt lat="48.56025" lon="-3.3547">
        <ele>169.2</ele>
        <time>2020-06-10T16:49:42Z</time>
      </trkpt>
      <trkpt lat="48.56028" lon="-3.35463">
        <ele>169.2</ele>
        <time>2020-06-10T16:49:43Z</time>
      </trkpt>
      <trkpt lat="48.56031" lon="-3.35456">
        <ele>169.1</ele>
        <time>2020-06-10T16:49:44Z</time>
      </trkpt>
      <trkpt lat="48.56033" lon="-3.3545">
        <ele>169</ele>
        <time>2020-06-10T16:49:45Z</time>
      </trkpt>
      <trkpt lat="48.56035" lon="-3.35444">
        <ele>168.8</ele>
        <time>2020-06-10T16:49:46Z</time>
      </trkpt>
      <trkpt lat="48.56037" lon="-3.35437">
        <ele>168.7</ele>
        <time>2020-06-10T16:49:47Z</time>
      </trkpt>
      <trkpt lat="48.5604" lon="-3.3543">
        <ele>168.5</ele>
        <time>2020-06-10T16:49:48Z</time>
      </trkpt>
      <trkpt lat="48.56042" lon="-3.35422">
        <ele>168.4</ele>
        <time>2020-06-10T16:49:49Z</time>
      </trkpt>
      <trkpt lat="48.56046" lon="-3.35414">
        <ele>168.2</ele>
        <time>2020-06-10T16:49:50Z</time>
      </trkpt>
      <trkpt lat="48.56049" lon="-3.35407">
        <ele>168</ele>
        <time>2020-06-10T16:49:51Z</time>
      </trkpt>
      <trkpt lat="48.56052" lon="-3.35398">
        <ele>167.8</ele>
        <time>2020-06-10T16:49:52Z</time>
      </trkpt>
      <trkpt lat="48.56055" lon="-3.35389">
        <ele>167.5</ele>
        <time>2020-06-10T16:49:53Z</time>
      </trkpt>
      <trkpt lat="48.56058" lon="-3.35382">
        <ele>167.3</ele>
        <time>2020-06-10T16:49:54Z</time>
      </trkpt>
      <trkpt lat="48.56061" lon="-3.35374">
        <ele>167.1</ele>
        <time>2020-06-10T16:49:55Z</time>
      </trkpt>
      <trkpt lat="48.56064" lon="-3.35367">
        <ele>166.9</ele>
        <time>2020-06-10T16:49:56Z</time>
      </trkpt>
      <trkpt lat="48.56067" lon="-3.35359">
        <ele>166.7</ele>
        <time>2020-06-10T16:49:57Z</time>
      </trkpt>
      <trkpt lat="48.56071" lon="-3.35347">
        <ele>166.5</ele>
        <time>2020-06-10T16:49:58Z</time>
      </trkpt>
      <trkpt lat="48.56075" lon="-3.35338">
        <ele>166.3</ele>
        <time>2020-06-10T16:49:59Z</time>
      </trkpt>
      <trkpt lat="48.56078" lon="-3.35329">
        <ele>166.2</ele>
        <time>2020-06-10T16:50:00Z</time>
      </trkpt>
      <trkpt lat="48.56081" lon="-3.35321">
        <ele>166.1</ele>
        <time>2020-06-10T16:50:01Z</time>
      </trkpt>
      <trkpt lat="48.56084" lon="-3.35312">
        <ele>165.9</ele>
        <time>2020-06-10T16:50:02Z</time>
      </trkpt>
      <trkpt lat="48.56087" lon="-3.35304">
        <ele>165.8</ele>
        <time>2020-06-10T16:50:03Z</time>
      </trkpt>
      <trkpt lat="48.5609" lon="-3.35295">
        <ele>165.8</ele>
        <time>2020-06-10T16:50:04Z</time>
      </trkpt>
      <trkpt lat="48.56093" lon="-3.35287">
        <ele>165.7</ele>
        <time>2020-06-10T16:50:05Z</time>
      </trkpt>
      <trkpt lat="48.56096" lon="-3.35279">
        <ele>165.7</ele>
        <time>2020-06-10T16:50:06Z</time>
      </trkpt>
      <trkpt lat="48.56099" lon="-3.3527">
        <ele>165.7</ele>
        <time>2020-06-10T16:50:07Z</time>
      </trkpt>
      <trkpt lat="48.56102" lon="-3.35263">
        <ele>165.7</ele>
        <time>2020-06-10T16:50:08Z</time>
      </trkpt>
      <trkpt lat="48.56104" lon="-3.35256">
        <ele>165.8</ele>
        <time>2020-06-10T16:50:09Z</time>
      </trkpt>
      <trkpt lat="48.56107" lon="-3.35247">
        <ele>165.8</ele>
        <time>2020-06-10T16:50:10Z</time>
      </trkpt>
      <trkpt lat="48.56111" lon="-3.3524">
        <ele>165.9</ele>
        <time>2020-06-10T16:50:11Z</time>
      </trkpt>
      <trkpt lat="48.56114" lon="-3.35232">
        <ele>166</ele>
        <time>2020-06-10T16:50:12Z</time>
      </trkpt>
      <trkpt lat="48.56116" lon="-3.35224">
        <ele>166.1</ele>
        <time>2020-06-10T16:50:13Z</time>
      </trkpt>
      <trkpt lat="48.5612" lon="-3.35216">
        <ele>166.2</ele>
        <time>2020-06-10T16:50:14Z</time>
      </trkpt>
      <trkpt lat="48.56124" lon="-3.3521">
        <ele>166.3</ele>
        <time>2020-06-10T16:50:15Z</time>
      </trkpt>
      <trkpt lat="48.56127" lon="-3.35203">
        <ele>166.3</ele>
        <time>2020-06-10T16:50:16Z</time>
      </trkpt>
      <trkpt lat="48.56129" lon="-3.35196">
        <ele>166.4</ele>
        <time>2020-06-10T16:50:17Z</time>
      </trkpt>
      <trkpt lat="48.56132" lon="-3.3519">
        <ele>166.4</ele>
        <time>2020-06-10T16:50:18Z</time>
      </trkpt>
      <trkpt lat="48.56135" lon="-3.35185">
        <ele>166.5</ele>
        <time>2020-06-10T16:50:19Z</time>
      </trkpt>
      <trkpt lat="48.56136" lon="-3.35178">
        <ele>166.5</ele>
        <time>2020-06-10T16:50:20Z</time>
      </trkpt>
      <trkpt lat="48.56139" lon="-3.3517">
        <ele>166.4</ele>
        <time>2020-06-10T16:50:21Z</time>
      </trkpt>
      <trkpt lat="48.56142" lon="-3.35163">
        <ele>166.4</ele>
        <time>2020-06-10T16:50:22Z</time>
      </trkpt>
      <trkpt lat="48.56143" lon="-3.35155">
        <ele>166.3</ele>
        <time>2020-06-10T16:50:23Z</time>
      </trkpt>
      <trkpt lat="48.56145" lon="-3.35148">
        <ele>166.3</ele>
        <time>2020-06-10T16:50:24Z</time>
      </trkpt>
      <trkpt lat="48.56148" lon="-3.35141">
        <ele>166.3</ele>
        <time>2020-06-10T16:50:25Z</time>
      </trkpt>
      <trkpt lat="48.5615" lon="-3.35134">
        <ele>166.3</ele>
        <time>2020-06-10T16:50:26Z</time>
      </trkpt>
      <trkpt lat="48.56153" lon="-3.35128">
        <ele>166.4</ele>
        <time>2020-06-10T16:50:27Z</time>
      </trkpt>
      <trkpt lat="48.56156" lon="-3.35121">
        <ele>166.4</ele>
        <time>2020-06-10T16:50:28Z</time>
      </trkpt>
      <trkpt lat="48.56159" lon="-3.35114">
        <ele>166.4</ele>
        <time>2020-06-10T16:50:29Z</time>
      </trkpt>
      <trkpt lat="48.56161" lon="-3.35107">
        <ele>166.4</ele>
        <time>2020-06-10T16:50:30Z</time>
      </trkpt>
      <trkpt lat="48.56164" lon="-3.351">
        <ele>166.4</ele>
        <time>2020-06-10T16:50:31Z</time>
      </trkpt>
      <trkpt lat="48.56168" lon="-3.35093">
        <ele>166.4</ele>
        <time>2020-06-10T16:50:32Z</time>
      </trkpt>
      <trkpt lat="48.5617" lon="-3.35086">
        <ele>166.4</ele>
        <time>2020-06-10T16:50:33Z</time>
      </trkpt>
      <trkpt lat="48.56172" lon="-3.3508">
        <ele>166.4</ele>
        <time>2020-06-10T16:50:34Z</time>
      </trkpt>
      <trkpt lat="48.56175" lon="-3.35073">
        <ele>166.3</ele>
        <time>2020-06-10T16:50:35Z</time>
      </trkpt>
      <trkpt lat="48.56177" lon="-3.35066">
        <ele>166.2</ele>
        <time>2020-06-10T16:50:36Z</time>
      </trkpt>
      <trkpt lat="48.56179" lon="-3.35058">
        <ele>166.2</ele>
        <time>2020-06-10T16:50:37Z</time>
      </trkpt>
      <trkpt lat="48.56182" lon="-3.35051">
        <ele>166.1</ele>
        <time>2020-06-10T16:50:38Z</time>
      </trkpt>
      <trkpt lat="48.56185" lon="-3.35044">
        <ele>166</ele>
        <time>2020-06-10T16:50:39Z</time>
      </trkpt>
      <trkpt lat="48.56188" lon="-3.35036">
        <ele>165.9</ele>
        <time>2020-06-10T16:50:40Z</time>
      </trkpt>
      <trkpt lat="48.5619" lon="-3.35028">
        <ele>165.8</ele>
        <time>2020-06-10T16:50:41Z</time>
      </trkpt>
      <trkpt lat="48.56193" lon="-3.3502">
        <ele>165.6</ele>
        <time>2020-06-10T16:50:42Z</time>
      </trkpt>
      <trkpt lat="48.56196" lon="-3.35013">
        <ele>165.5</ele>
        <time>2020-06-10T16:50:43Z</time>
      </trkpt>
      <trkpt lat="48.56199" lon="-3.35005">
        <ele>165.3</ele>
        <time>2020-06-10T16:50:44Z</time>
      </trkpt>
      <trkpt lat="48.56202" lon="-3.34997">
        <ele>165.1</ele>
        <time>2020-06-10T16:50:45Z</time>
      </trkpt>
      <trkpt lat="48.56205" lon="-3.34988">
        <ele>165</ele>
        <time>2020-06-10T16:50:46Z</time>
      </trkpt>
      <trkpt lat="48.56208" lon="-3.3498">
        <ele>164.9</ele>
        <time>2020-06-10T16:50:47Z</time>
      </trkpt>
      <trkpt lat="48.56211" lon="-3.34972">
        <ele>164.8</ele>
        <time>2020-06-10T16:50:48Z</time>
      </trkpt>
      <trkpt lat="48.56215" lon="-3.34964">
        <ele>164.8</ele>
        <time>2020-06-10T16:50:49Z</time>
      </trkpt>
      <trkpt lat="48.56217" lon="-3.34955">
        <ele>164.8</ele>
        <time>2020-06-10T16:50:50Z</time>
      </trkpt>
      <trkpt lat="48.5622" lon="-3.34947">
        <ele>164.8</ele>
        <time>2020-06-10T16:50:51Z</time>
      </trkpt>
      <trkpt lat="48.56223" lon="-3.34939">
        <ele>164.8</ele>
        <time>2020-06-10T16:50:52Z</time>
      </trkpt>
      <trkpt lat="48.56226" lon="-3.34931">
        <ele>164.8</ele>
        <time>2020-06-10T16:50:53Z</time>
      </trkpt>
      <trkpt lat="48.56228" lon="-3.34923">
        <ele>164.8</ele>
        <time>2020-06-10T16:50:54Z</time>
      </trkpt>
      <trkpt lat="48.56231" lon="-3.34916">
        <ele>164.9</ele>
        <time>2020-06-10T16:50:55Z</time>
      </trkpt>
      <trkpt lat="48.56234" lon="-3.34908">
        <ele>165</ele>
        <time>2020-06-10T16:50:56Z</time>
      </trkpt>
      <trkpt lat="48.56237" lon="-3.34901">
        <ele>165.1</ele>
        <time>2020-06-10T16:50:57Z</time>
      </trkpt>
      <trkpt lat="48.5624" lon="-3.34895">
        <ele>165.3</ele>
        <time>2020-06-10T16:50:58Z</time>
      </trkpt>
      <trkpt lat="48.56242" lon="-3.34888">
        <ele>165.4</ele>
        <time>2020-06-10T16:50:59Z</time>
      </trkpt>
      <trkpt lat="48.56245" lon="-3.34882">
        <ele>165.6</ele>
        <time>2020-06-10T16:51:00Z</time>
      </trkpt>
      <trkpt lat="48.56246" lon="-3.34875">
        <ele>165.8</ele>
        <time>2020-06-10T16:51:01Z</time>
      </trkpt>
      <trkpt lat="48.56249" lon="-3.3487">
        <ele>166</ele>
        <time>2020-06-10T16:51:02Z</time>
      </trkpt>
      <trkpt lat="48.56251" lon="-3.34864">
        <ele>166.2</ele>
        <time>2020-06-10T16:51:03Z</time>
      </trkpt>
      <trkpt lat="48.56255" lon="-3.3486">
        <ele>166.3</ele>
        <time>2020-06-10T16:51:04Z</time>
      </trkpt>
      <trkpt lat="48.56257" lon="-3.34855">
        <ele>166.5</ele>
        <time>2020-06-10T16:51:05Z</time>
      </trkpt>
      <trkpt lat="48.56258" lon="-3.34849">
        <ele>166.7</ele>
        <time>2020-06-10T16:51:06Z</time>
      </trkpt>
      <trkpt lat="48.56259" lon="-3.34843">
        <ele>166.9</ele>
        <time>2020-06-10T16:51:07Z</time>
      </trkpt>
      <trkpt lat="48.56261" lon="-3.34838">
        <ele>167.1</ele>
        <time>2020-06-10T16:51:08Z</time>
      </trkpt>
      <trkpt lat="48.56261" lon="-3.34833">
        <ele>167.3</ele>
        <time>2020-06-10T16:51:09Z</time>
      </trkpt>
      <trkpt lat="48.56263" lon="-3.34828">
        <ele>167.5</ele>
        <time>2020-06-10T16:51:10Z</time>
      </trkpt>
      <trkpt lat="48.56265" lon="-3.34824">
        <ele>167.7</ele>
        <time>2020-06-10T16:51:11Z</time>
      </trkpt>
      <trkpt lat="48.56267" lon="-3.3482">
        <ele>167.9</ele>
        <time>2020-06-10T16:51:12Z</time>
      </trkpt>
      <trkpt lat="48.56268" lon="-3.34816">
        <ele>168.1</ele>
        <time>2020-06-10T16:51:13Z</time>
      </trkpt>
      <trkpt lat="48.5627" lon="-3.34812">
        <ele>168.3</ele>
        <time>2020-06-10T16:51:14Z</time>
      </trkpt>
      <trkpt lat="48.56272" lon="-3.34808">
        <ele>168.5</ele>
        <time>2020-06-10T16:51:15Z</time>
      </trkpt>
      <trkpt lat="48.56274" lon="-3.34805">
        <ele>168.7</ele>
        <time>2020-06-10T16:51:16Z</time>
      </trkpt>
      <trkpt lat="48.56275" lon="-3.348">
        <ele>169</ele>
        <time>2020-06-10T16:51:17Z</time>
      </trkpt>
      <trkpt lat="48.56276" lon="-3.34795">
        <ele>169.2</ele>
        <time>2020-06-10T16:51:18Z</time>
      </trkpt>
      <trkpt lat="48.56277" lon="-3.3479">
        <ele>169.5</ele>
        <time>2020-06-10T16:51:19Z</time>
      </trkpt>
      <trkpt lat="48.56279" lon="-3.34785">
        <ele>169.7</ele>
        <time>2020-06-10T16:51:20Z</time>
      </trkpt>
      <trkpt lat="48.5628" lon="-3.34781">
        <ele>169.9</ele>
        <time>2020-06-10T16:51:21Z</time>
      </trkpt>
      <trkpt lat="48.56282" lon="-3.34777">
        <ele>170.2</ele>
        <time>2020-06-10T16:51:22Z</time>
      </trkpt>
      <trkpt lat="48.56284" lon="-3.34773">
        <ele>170.4</ele>
        <time>2020-06-10T16:51:23Z</time>
      </trkpt>
      <trkpt lat="48.56285" lon="-3.34769">
        <ele>170.6</ele>
        <time>2020-06-10T16:51:24Z</time>
      </trkpt>
      <trkpt lat="48.56286" lon="-3.34766">
        <ele>170.8</ele>
        <time>2020-06-10T16:51:25Z</time>
      </trkpt>
      <trkpt lat="48.56287" lon="-3.34761">
        <ele>171</ele>
        <time>2020-06-10T16:51:26Z</time>
      </trkpt>
      <trkpt lat="48.56289" lon="-3.34756">
        <ele>171.2</ele>
        <time>2020-06-10T16:51:27Z</time>
      </trkpt>
      <trkpt lat="48.5629" lon="-3.34753">
        <ele>171.3</ele>
        <time>2020-06-10T16:51:28Z</time>
      </trkpt>
      <trkpt lat="48.56292" lon="-3.34749">
        <ele>171.6</ele>
        <time>2020-06-10T16:51:29Z</time>
      </trkpt>
      <trkpt lat="48.56292" lon="-3.34746">
        <ele>171.7</ele>
        <time>2020-06-10T16:51:30Z</time>
      </trkpt>
      <trkpt lat="48.56294" lon="-3.34741">
        <ele>172</ele>
        <time>2020-06-10T16:51:31Z</time>
      </trkpt>
      <trkpt lat="48.56295" lon="-3.34738">
        <ele>172.1</ele>
        <time>2020-06-10T16:51:32Z</time>
      </trkpt>
      <trkpt lat="48.56296" lon="-3.34734">
        <ele>172.3</ele>
        <time>2020-06-10T16:51:33Z</time>
      </trkpt>
      <trkpt lat="48.56298" lon="-3.34729">
        <ele>172.6</ele>
        <time>2020-06-10T16:51:34Z</time>
      </trkpt>
      <trkpt lat="48.56301" lon="-3.34723">
        <ele>172.8</ele>
        <time>2020-06-10T16:51:35Z</time>
      </trkpt>
      <trkpt lat="48.56302" lon="-3.34719">
        <ele>173.1</ele>
        <time>2020-06-10T16:51:36Z</time>
      </trkpt>
      <trkpt lat="48.56304" lon="-3.34713">
        <ele>173.3</ele>
        <time>2020-06-10T16:51:37Z</time>
      </trkpt>
      <trkpt lat="48.56306" lon="-3.34709">
        <ele>173.5</ele>
        <time>2020-06-10T16:51:38Z</time>
      </trkpt>
      <trkpt lat="48.56307" lon="-3.34705">
        <ele>173.7</ele>
        <time>2020-06-10T16:51:39Z</time>
      </trkpt>
      <trkpt lat="48.56309" lon="-3.347">
        <ele>173.9</ele>
        <time>2020-06-10T16:51:40Z</time>
      </trkpt>
      <trkpt lat="48.56312" lon="-3.34694">
        <ele>174.2</ele>
        <time>2020-06-10T16:51:41Z</time>
      </trkpt>
      <trkpt lat="48.56314" lon="-3.3469">
        <ele>174.3</ele>
        <time>2020-06-10T16:51:42Z</time>
      </trkpt>
      <trkpt lat="48.56316" lon="-3.34686">
        <ele>174.5</ele>
        <time>2020-06-10T16:51:43Z</time>
      </trkpt>
      <trkpt lat="48.56318" lon="-3.34682">
        <ele>174.6</ele>
        <time>2020-06-10T16:51:44Z</time>
      </trkpt>
      <trkpt lat="48.56319" lon="-3.34678">
        <ele>174.8</ele>
        <time>2020-06-10T16:51:45Z</time>
      </trkpt>
      <trkpt lat="48.56321" lon="-3.34674">
        <ele>174.9</ele>
        <time>2020-06-10T16:51:46Z</time>
      </trkpt>
      <trkpt lat="48.56322" lon="-3.34669">
        <ele>175</ele>
        <time>2020-06-10T16:51:47Z</time>
      </trkpt>
      <trkpt lat="48.56324" lon="-3.34665">
        <ele>175.2</ele>
        <time>2020-06-10T16:51:48Z</time>
      </trkpt>
      <trkpt lat="48.56326" lon="-3.3466">
        <ele>175.3</ele>
        <time>2020-06-10T16:51:49Z</time>
      </trkpt>
      <trkpt lat="48.56328" lon="-3.34655">
        <ele>175.5</ele>
        <time>2020-06-10T16:51:50Z</time>
      </trkpt>
      <trkpt lat="48.56329" lon="-3.34653">
        <ele>175.6</ele>
        <time>2020-06-10T16:51:51Z</time>
      </trkpt>
      <trkpt lat="48.5633" lon="-3.34647">
        <ele>175.7</ele>
        <time>2020-06-10T16:51:52Z</time>
      </trkpt>
      <trkpt lat="48.56331" lon="-3.34644">
        <ele>175.8</ele>
        <time>2020-06-10T16:51:53Z</time>
      </trkpt>
      <trkpt lat="48.56332" lon="-3.34642">
        <ele>175.9</ele>
        <time>2020-06-10T16:51:54Z</time>
      </trkpt>
      <trkpt lat="48.56333" lon="-3.34638">
        <ele>176</ele>
        <time>2020-06-10T16:51:55Z</time>
      </trkpt>
      <trkpt lat="48.56336" lon="-3.34633">
        <ele>176.1</ele>
        <time>2020-06-10T16:51:56Z</time>
      </trkpt>
      <trkpt lat="48.56339" lon="-3.34628">
        <ele>176.2</ele>
        <time>2020-06-10T16:51:57Z</time>
      </trkpt>
      <trkpt lat="48.5634" lon="-3.34626">
        <ele>176.2</ele>
        <time>2020-06-10T16:51:58Z</time>
      </trkpt>
      <trkpt lat="48.56341" lon="-3.34619">
        <ele>176.4</ele>
        <time>2020-06-10T16:51:59Z</time>
      </trkpt>
      <trkpt lat="48.56344" lon="-3.34616">
        <ele>176.4</ele>
        <time>2020-06-10T16:52:00Z</time>
      </trkpt>
      <trkpt lat="48.56344" lon="-3.34614">
        <ele>176.5</ele>
        <time>2020-06-10T16:52:01Z</time>
      </trkpt>
      <trkpt lat="48.56346" lon="-3.34609">
        <ele>176.5</ele>
        <time>2020-06-10T16:52:02Z</time>
      </trkpt>
      <trkpt lat="48.56347" lon="-3.34604">
        <ele>176.6</ele>
        <time>2020-06-10T16:52:03Z</time>
      </trkpt>
      <trkpt lat="48.56348" lon="-3.34599">
        <ele>176.7</ele>
        <time>2020-06-10T16:52:04Z</time>
      </trkpt>
      <trkpt lat="48.5635" lon="-3.34595">
        <ele>176.8</ele>
        <time>2020-06-10T16:52:05Z</time>
      </trkpt>
      <trkpt lat="48.56351" lon="-3.3459">
        <ele>177</ele>
        <time>2020-06-10T16:52:06Z</time>
      </trkpt>
      <trkpt lat="48.56354" lon="-3.34586">
        <ele>177.1</ele>
        <time>2020-06-10T16:52:07Z</time>
      </trkpt>
      <trkpt lat="48.56356" lon="-3.34579">
        <ele>177.3</ele>
        <time>2020-06-10T16:52:08Z</time>
      </trkpt>
      <trkpt lat="48.56359" lon="-3.34573">
        <ele>177.4</ele>
        <time>2020-06-10T16:52:09Z</time>
      </trkpt>
      <trkpt lat="48.56361" lon="-3.34566">
        <ele>177.6</ele>
        <time>2020-06-10T16:52:10Z</time>
      </trkpt>
      <trkpt lat="48.56363" lon="-3.34561">
        <ele>177.7</ele>
        <time>2020-06-10T16:52:11Z</time>
      </trkpt>
      <trkpt lat="48.56365" lon="-3.34557">
        <ele>177.8</ele>
        <time>2020-06-10T16:52:12Z</time>
      </trkpt>
      <trkpt lat="48.56367" lon="-3.34551">
        <ele>177.9</ele>
        <time>2020-06-10T16:52:13Z</time>
      </trkpt>
      <trkpt lat="48.56369" lon="-3.34547">
        <ele>178</ele>
        <time>2020-06-10T16:52:14Z</time>
      </trkpt>
      <trkpt lat="48.5637" lon="-3.34541">
        <ele>178.1</ele>
        <time>2020-06-10T16:52:15Z</time>
      </trkpt>
      <trkpt lat="48.56372" lon="-3.34538">
        <ele>178.2</ele>
        <time>2020-06-10T16:52:16Z</time>
      </trkpt>
      <trkpt lat="48.56374" lon="-3.34533">
        <ele>178.3</ele>
        <time>2020-06-10T16:52:17Z</time>
      </trkpt>
      <trkpt lat="48.56376" lon="-3.34529">
        <ele>178.4</ele>
        <time>2020-06-10T16:52:18Z</time>
      </trkpt>
      <trkpt lat="48.56378" lon="-3.34525">
        <ele>178.5</ele>
        <time>2020-06-10T16:52:19Z</time>
      </trkpt>
      <trkpt lat="48.5638" lon="-3.3452">
        <ele>178.6</ele>
        <time>2020-06-10T16:52:20Z</time>
      </trkpt>
      <trkpt lat="48.56382" lon="-3.34516">
        <ele>178.7</ele>
        <time>2020-06-10T16:52:21Z</time>
      </trkpt>
      <trkpt lat="48.56383" lon="-3.34511">
        <ele>178.8</ele>
        <time>2020-06-10T16:52:22Z</time>
      </trkpt>
      <trkpt lat="48.56384" lon="-3.34509">
        <ele>178.9</ele>
        <time>2020-06-10T16:52:23Z</time>
      </trkpt>
      <trkpt lat="48.56386" lon="-3.34505">
        <ele>179</ele>
        <time>2020-06-10T16:52:24Z</time>
      </trkpt>
      <trkpt lat="48.56387" lon="-3.34501">
        <ele>179.1</ele>
        <time>2020-06-10T16:52:25Z</time>
      </trkpt>
      <trkpt lat="48.56389" lon="-3.34496">
        <ele>179.2</ele>
        <time>2020-06-10T16:52:26Z</time>
      </trkpt>
      <trkpt lat="48.5639" lon="-3.34493">
        <ele>179.3</ele>
        <time>2020-06-10T16:52:27Z</time>
      </trkpt>
      <trkpt lat="48.56391" lon="-3.34488">
        <ele>179.4</ele>
        <time>2020-06-10T16:52:28Z</time>
      </trkpt>
      <trkpt lat="48.56392" lon="-3.34482">
        <ele>179.5</ele>
        <time>2020-06-10T16:52:29Z</time>
      </trkpt>
      <trkpt lat="48.56394" lon="-3.34478">
        <ele>179.8</ele>
        <time>2020-06-10T16:52:30Z</time>
      </trkpt>
      <trkpt lat="48.56396" lon="-3.34473">
        <ele>180</ele>
        <time>2020-06-10T16:52:31Z</time>
      </trkpt>
      <trkpt lat="48.56397" lon="-3.3447">
        <ele>180.1</ele>
        <time>2020-06-10T16:52:32Z</time>
      </trkpt>
      <trkpt lat="48.56399" lon="-3.34467">
        <ele>180.3</ele>
        <time>2020-06-10T16:52:33Z</time>
      </trkpt>
      <trkpt lat="48.564" lon="-3.34462">
        <ele>180.5</ele>
        <time>2020-06-10T16:52:34Z</time>
      </trkpt>
      <trkpt lat="48.56402" lon="-3.34457">
        <ele>180.6</ele>
        <time>2020-06-10T16:52:35Z</time>
      </trkpt>
      <trkpt lat="48.56404" lon="-3.34452">
        <ele>180.8</ele>
        <time>2020-06-10T16:52:36Z</time>
      </trkpt>
      <trkpt lat="48.56407" lon="-3.34448">
        <ele>180.9</ele>
        <time>2020-06-10T16:52:37Z</time>
      </trkpt>
      <trkpt lat="48.56408" lon="-3.34444">
        <ele>181.1</ele>
        <time>2020-06-10T16:52:38Z</time>
      </trkpt>
      <trkpt lat="48.5641" lon="-3.34439">
        <ele>181.2</ele>
        <time>2020-06-10T16:52:39Z</time>
      </trkpt>
      <trkpt lat="48.56411" lon="-3.34434">
        <ele>181.3</ele>
        <time>2020-06-10T16:52:40Z</time>
      </trkpt>
      <trkpt lat="48.56413" lon="-3.34431">
        <ele>181.4</ele>
        <time>2020-06-10T16:52:41Z</time>
      </trkpt>
      <trkpt lat="48.56415" lon="-3.34425">
        <ele>181.6</ele>
        <time>2020-06-10T16:52:42Z</time>
      </trkpt>
      <trkpt lat="48.56415" lon="-3.34423">
        <ele>181.6</ele>
        <time>2020-06-10T16:52:43Z</time>
      </trkpt>
      <trkpt lat="48.56416" lon="-3.34418">
        <ele>181.7</ele>
        <time>2020-06-10T16:52:44Z</time>
      </trkpt>
      <trkpt lat="48.56418" lon="-3.34413">
        <ele>181.8</ele>
        <time>2020-06-10T16:52:45Z</time>
      </trkpt>
      <trkpt lat="48.5642" lon="-3.3441">
        <ele>181.9</ele>
        <time>2020-06-10T16:52:46Z</time>
      </trkpt>
      <trkpt lat="48.56422" lon="-3.34405">
        <ele>182</ele>
        <time>2020-06-10T16:52:47Z</time>
      </trkpt>
      <trkpt lat="48.56423" lon="-3.34401">
        <ele>182.1</ele>
        <time>2020-06-10T16:52:48Z</time>
      </trkpt>
      <trkpt lat="48.56425" lon="-3.34395">
        <ele>182.2</ele>
        <time>2020-06-10T16:52:49Z</time>
      </trkpt>
      <trkpt lat="48.56427" lon="-3.3439">
        <ele>182.3</ele>
        <time>2020-06-10T16:52:50Z</time>
      </trkpt>
      <trkpt lat="48.56428" lon="-3.34386">
        <ele>182.3</ele>
        <time>2020-06-10T16:52:51Z</time>
      </trkpt>
      <trkpt lat="48.5643" lon="-3.34381">
        <ele>182.4</ele>
        <time>2020-06-10T16:52:52Z</time>
      </trkpt>
      <trkpt lat="48.56432" lon="-3.34374">
        <ele>182.5</ele>
        <time>2020-06-10T16:52:53Z</time>
      </trkpt>
      <trkpt lat="48.56435" lon="-3.34369">
        <ele>182.6</ele>
        <time>2020-06-10T16:52:54Z</time>
      </trkpt>
      <trkpt lat="48.56437" lon="-3.34363">
        <ele>182.6</ele>
        <time>2020-06-10T16:52:55Z</time>
      </trkpt>
      <trkpt lat="48.56439" lon="-3.34358">
        <ele>182.7</ele>
        <time>2020-06-10T16:52:56Z</time>
      </trkpt>
      <trkpt lat="48.5644" lon="-3.34353">
        <ele>182.7</ele>
        <time>2020-06-10T16:52:57Z</time>
      </trkpt>
      <trkpt lat="48.56442" lon="-3.34348">
        <ele>182.7</ele>
        <time>2020-06-10T16:52:58Z</time>
      </trkpt>
      <trkpt lat="48.56444" lon="-3.34344">
        <ele>182.8</ele>
        <time>2020-06-10T16:52:59Z</time>
      </trkpt>
      <trkpt lat="48.56446" lon="-3.3434">
        <ele>182.8</ele>
        <time>2020-06-10T16:53:00Z</time>
      </trkpt>
      <trkpt lat="48.56448" lon="-3.34334">
        <ele>182.9</ele>
        <time>2020-06-10T16:53:01Z</time>
      </trkpt>
      <trkpt lat="48.5645" lon="-3.34329">
        <ele>182.9</ele>
        <time>2020-06-10T16:53:02Z</time>
      </trkpt>
      <trkpt lat="48.56452" lon="-3.34324">
        <ele>182.9</ele>
        <time>2020-06-10T16:53:03Z</time>
      </trkpt>
      <trkpt lat="48.56454" lon="-3.34319">
        <ele>182.9</ele>
        <time>2020-06-10T16:53:04Z</time>
      </trkpt>
      <trkpt lat="48.56457" lon="-3.34312">
        <ele>182.9</ele>
        <time>2020-06-10T16:53:05Z</time>
      </trkpt>
      <trkpt lat="48.5646" lon="-3.34307">
        <ele>182.8</ele>
        <time>2020-06-10T16:53:06Z</time>
      </trkpt>
      <trkpt lat="48.56462" lon="-3.34301">
        <ele>182.8</ele>
        <time>2020-06-10T16:53:07Z</time>
      </trkpt>
      <trkpt lat="48.56465" lon="-3.34296">
        <ele>182.8</ele>
        <time>2020-06-10T16:53:08Z</time>
      </trkpt>
      <trkpt lat="48.56467" lon="-3.3429">
        <ele>182.8</ele>
        <time>2020-06-10T16:53:09Z</time>
      </trkpt>
      <trkpt lat="48.56469" lon="-3.34285">
        <ele>182.8</ele>
        <time>2020-06-10T16:53:10Z</time>
      </trkpt>
      <trkpt lat="48.5647" lon="-3.34279">
        <ele>182.8</ele>
        <time>2020-06-10T16:53:11Z</time>
      </trkpt>
      <trkpt lat="48.56472" lon="-3.34274">
        <ele>182.8</ele>
        <time>2020-06-10T16:53:12Z</time>
      </trkpt>
      <trkpt lat="48.56474" lon="-3.34267">
        <ele>182.8</ele>
        <time>2020-06-10T16:53:13Z</time>
      </trkpt>
      <trkpt lat="48.56476" lon="-3.34262">
        <ele>182.7</ele>
        <time>2020-06-10T16:53:14Z</time>
      </trkpt>
      <trkpt lat="48.56479" lon="-3.34256">
        <ele>182.7</ele>
        <time>2020-06-10T16:53:15Z</time>
      </trkpt>
      <trkpt lat="48.56482" lon="-3.34252">
        <ele>182.6</ele>
        <time>2020-06-10T16:53:16Z</time>
      </trkpt>
      <trkpt lat="48.56483" lon="-3.34247">
        <ele>182.5</ele>
        <time>2020-06-10T16:53:17Z</time>
      </trkpt>
      <trkpt lat="48.56485" lon="-3.34241">
        <ele>182.4</ele>
        <time>2020-06-10T16:53:18Z</time>
      </trkpt>
      <trkpt lat="48.56488" lon="-3.34236">
        <ele>182.4</ele>
        <time>2020-06-10T16:53:19Z</time>
      </trkpt>
      <trkpt lat="48.5649" lon="-3.3423">
        <ele>182.4</ele>
        <time>2020-06-10T16:53:20Z</time>
      </trkpt>
      <trkpt lat="48.56492" lon="-3.34223">
        <ele>182.4</ele>
        <time>2020-06-10T16:53:21Z</time>
      </trkpt>
      <trkpt lat="48.56493" lon="-3.34217">
        <ele>182.4</ele>
        <time>2020-06-10T16:53:22Z</time>
      </trkpt>
      <trkpt lat="48.56495" lon="-3.34212">
        <ele>182.4</ele>
        <time>2020-06-10T16:53:23Z</time>
      </trkpt>
      <trkpt lat="48.56497" lon="-3.34206">
        <ele>182.4</ele>
        <time>2020-06-10T16:53:24Z</time>
      </trkpt>
      <trkpt lat="48.56498" lon="-3.34201">
        <ele>182.4</ele>
        <time>2020-06-10T16:53:25Z</time>
      </trkpt>
      <trkpt lat="48.565" lon="-3.34196">
        <ele>182.4</ele>
        <time>2020-06-10T16:53:26Z</time>
      </trkpt>
      <trkpt lat="48.56502" lon="-3.34189">
        <ele>182.4</ele>
        <time>2020-06-10T16:53:27Z</time>
      </trkpt>
      <trkpt lat="48.56505" lon="-3.34185">
        <ele>182.4</ele>
        <time>2020-06-10T16:53:28Z</time>
      </trkpt>
      <trkpt lat="48.56507" lon="-3.34179">
        <ele>182.4</ele>
        <time>2020-06-10T16:53:29Z</time>
      </trkpt>
      <trkpt lat="48.5651" lon="-3.34174">
        <ele>182.4</ele>
        <time>2020-06-10T16:53:30Z</time>
      </trkpt>
      <trkpt lat="48.56513" lon="-3.34169">
        <ele>182.4</ele>
        <time>2020-06-10T16:53:31Z</time>
      </trkpt>
      <trkpt lat="48.56515" lon="-3.34163">
        <ele>182.4</ele>
        <time>2020-06-10T16:53:32Z</time>
      </trkpt>
      <trkpt lat="48.56517" lon="-3.34158">
        <ele>182.4</ele>
        <time>2020-06-10T16:53:33Z</time>
      </trkpt>
      <trkpt lat="48.5652" lon="-3.34152">
        <ele>182.4</ele>
        <time>2020-06-10T16:53:34Z</time>
      </trkpt>
      <trkpt lat="48.56522" lon="-3.34145">
        <ele>182.4</ele>
        <time>2020-06-10T16:53:35Z</time>
      </trkpt>
      <trkpt lat="48.56523" lon="-3.3414">
        <ele>182.4</ele>
        <time>2020-06-10T16:53:36Z</time>
      </trkpt>
      <trkpt lat="48.56525" lon="-3.34134">
        <ele>182.5</ele>
        <time>2020-06-10T16:53:37Z</time>
      </trkpt>
      <trkpt lat="48.56527" lon="-3.34127">
        <ele>182.5</ele>
        <time>2020-06-10T16:53:38Z</time>
      </trkpt>
      <trkpt lat="48.56529" lon="-3.34119">
        <ele>182.5</ele>
        <time>2020-06-10T16:53:39Z</time>
      </trkpt>
      <trkpt lat="48.56532" lon="-3.34116">
        <ele>182.6</ele>
        <time>2020-06-10T16:53:40Z</time>
      </trkpt>
      <trkpt lat="48.56533" lon="-3.34109">
        <ele>182.6</ele>
        <time>2020-06-10T16:53:41Z</time>
      </trkpt>
      <trkpt lat="48.56536" lon="-3.34103">
        <ele>182.6</ele>
        <time>2020-06-10T16:53:42Z</time>
      </trkpt>
      <trkpt lat="48.56539" lon="-3.34098">
        <ele>182.6</ele>
        <time>2020-06-10T16:53:43Z</time>
      </trkpt>
      <trkpt lat="48.56541" lon="-3.34092">
        <ele>182.7</ele>
        <time>2020-06-10T16:53:44Z</time>
      </trkpt>
      <trkpt lat="48.56542" lon="-3.34087">
        <ele>182.7</ele>
        <time>2020-06-10T16:53:45Z</time>
      </trkpt>
      <trkpt lat="48.56545" lon="-3.34082">
        <ele>182.7</ele>
        <time>2020-06-10T16:53:46Z</time>
      </trkpt>
      <trkpt lat="48.56545" lon="-3.34079">
        <ele>182.7</ele>
        <time>2020-06-10T16:53:47Z</time>
      </trkpt>
      <trkpt lat="48.56548" lon="-3.34073">
        <ele>182.7</ele>
        <time>2020-06-10T16:53:48Z</time>
      </trkpt>
      <trkpt lat="48.5655" lon="-3.34065">
        <ele>182.7</ele>
        <time>2020-06-10T16:53:49Z</time>
      </trkpt>
      <trkpt lat="48.56552" lon="-3.34058">
        <ele>182.7</ele>
        <time>2020-06-10T16:53:50Z</time>
      </trkpt>
      <trkpt lat="48.56554" lon="-3.34052">
        <ele>182.7</ele>
        <time>2020-06-10T16:53:51Z</time>
      </trkpt>
      <trkpt lat="48.56556" lon="-3.34046">
        <ele>182.7</ele>
        <time>2020-06-10T16:53:52Z</time>
      </trkpt>
      <trkpt lat="48.56558" lon="-3.3404">
        <ele>182.8</ele>
        <time>2020-06-10T16:53:53Z</time>
      </trkpt>
      <trkpt lat="48.56561" lon="-3.34035">
        <ele>182.8</ele>
        <time>2020-06-10T16:53:54Z</time>
      </trkpt>
      <trkpt lat="48.56562" lon="-3.34028">
        <ele>182.9</ele>
        <time>2020-06-10T16:53:55Z</time>
      </trkpt>
      <trkpt lat="48.56565" lon="-3.34023">
        <ele>182.9</ele>
        <time>2020-06-10T16:53:56Z</time>
      </trkpt>
      <trkpt lat="48.56567" lon="-3.34016">
        <ele>183</ele>
        <time>2020-06-10T16:53:57Z</time>
      </trkpt>
      <trkpt lat="48.56569" lon="-3.34011">
        <ele>183</ele>
        <time>2020-06-10T16:53:58Z</time>
      </trkpt>
      <trkpt lat="48.56572" lon="-3.34006">
        <ele>183.1</ele>
        <time>2020-06-10T16:53:59Z</time>
      </trkpt>
      <trkpt lat="48.56575" lon="-3.33998">
        <ele>183.1</ele>
        <time>2020-06-10T16:54:00Z</time>
      </trkpt>
      <trkpt lat="48.56577" lon="-3.33992">
        <ele>183.2</ele>
        <time>2020-06-10T16:54:01Z</time>
      </trkpt>
      <trkpt lat="48.5658" lon="-3.33987">
        <ele>183.3</ele>
        <time>2020-06-10T16:54:02Z</time>
      </trkpt>
      <trkpt lat="48.56583" lon="-3.33982">
        <ele>183.4</ele>
        <time>2020-06-10T16:54:03Z</time>
      </trkpt>
      <trkpt lat="48.56585" lon="-3.33977">
        <ele>183.5</ele>
        <time>2020-06-10T16:54:04Z</time>
      </trkpt>
      <trkpt lat="48.56588" lon="-3.3397">
        <ele>183.6</ele>
        <time>2020-06-10T16:54:05Z</time>
      </trkpt>
      <trkpt lat="48.5659" lon="-3.33964">
        <ele>183.8</ele>
        <time>2020-06-10T16:54:06Z</time>
      </trkpt>
      <trkpt lat="48.56592" lon="-3.33958">
        <ele>183.9</ele>
        <time>2020-06-10T16:54:07Z</time>
      </trkpt>
      <trkpt lat="48.56593" lon="-3.33949">
        <ele>184.1</ele>
        <time>2020-06-10T16:54:08Z</time>
      </trkpt>
      <trkpt lat="48.56596" lon="-3.33945">
        <ele>184.2</ele>
        <time>2020-06-10T16:54:09Z</time>
      </trkpt>
      <trkpt lat="48.56598" lon="-3.3394">
        <ele>184.3</ele>
        <time>2020-06-10T16:54:10Z</time>
      </trkpt>
      <trkpt lat="48.566" lon="-3.33933">
        <ele>184.4</ele>
        <time>2020-06-10T16:54:11Z</time>
      </trkpt>
      <trkpt lat="48.56602" lon="-3.33926">
        <ele>184.5</ele>
        <time>2020-06-10T16:54:12Z</time>
      </trkpt>
      <trkpt lat="48.56603" lon="-3.33917">
        <ele>184.7</ele>
        <time>2020-06-10T16:54:13Z</time>
      </trkpt>
      <trkpt lat="48.56605" lon="-3.33911">
        <ele>184.8</ele>
        <time>2020-06-10T16:54:14Z</time>
      </trkpt>
      <trkpt lat="48.56607" lon="-3.33905">
        <ele>185</ele>
        <time>2020-06-10T16:54:15Z</time>
      </trkpt>
      <trkpt lat="48.56609" lon="-3.33899">
        <ele>185.1</ele>
        <time>2020-06-10T16:54:16Z</time>
      </trkpt>
      <trkpt lat="48.56611" lon="-3.33892">
        <ele>185.2</ele>
        <time>2020-06-10T16:54:17Z</time>
      </trkpt>
      <trkpt lat="48.56611" lon="-3.33887">
        <ele>185.2</ele>
        <time>2020-06-10T16:54:18Z</time>
      </trkpt>
      <trkpt lat="48.56614" lon="-3.3388">
        <ele>185.2</ele>
        <time>2020-06-10T16:54:19Z</time>
      </trkpt>
      <trkpt lat="48.56615" lon="-3.33874">
        <ele>185.3</ele>
        <time>2020-06-10T16:54:20Z</time>
      </trkpt>
      <trkpt lat="48.56615" lon="-3.33869">
        <ele>185.4</ele>
        <time>2020-06-10T16:54:21Z</time>
      </trkpt>
      <trkpt lat="48.56615" lon="-3.33864">
        <ele>185.5</ele>
        <time>2020-06-10T16:54:22Z</time>
      </trkpt>
      <trkpt lat="48.56616" lon="-3.33859">
        <ele>185.7</ele>
        <time>2020-06-10T16:54:23Z</time>
      </trkpt>
      <trkpt lat="48.56617" lon="-3.33854">
        <ele>185.8</ele>
        <time>2020-06-10T16:54:24Z</time>
      </trkpt>
      <trkpt lat="48.56617" lon="-3.33849">
        <ele>186</ele>
        <time>2020-06-10T16:54:25Z</time>
      </trkpt>
      <trkpt lat="48.56617" lon="-3.33844">
        <ele>186.1</ele>
        <time>2020-06-10T16:54:26Z</time>
      </trkpt>
      <trkpt lat="48.56618" lon="-3.33838">
        <ele>186.2</ele>
        <time>2020-06-10T16:54:27Z</time>
      </trkpt>
      <trkpt lat="48.56618" lon="-3.33833">
        <ele>186.4</ele>
        <time>2020-06-10T16:54:28Z</time>
      </trkpt>
      <trkpt lat="48.56618" lon="-3.33828">
        <ele>186.5</ele>
        <time>2020-06-10T16:54:29Z</time>
      </trkpt>
      <trkpt lat="48.56617" lon="-3.33823">
        <ele>186.6</ele>
        <time>2020-06-10T16:54:30Z</time>
      </trkpt>
      <trkpt lat="48.56617" lon="-3.33816">
        <ele>186.8</ele>
        <time>2020-06-10T16:54:31Z</time>
      </trkpt>
      <trkpt lat="48.56617" lon="-3.33812">
        <ele>187</ele>
        <time>2020-06-10T16:54:32Z</time>
      </trkpt>
      <trkpt lat="48.56617" lon="-3.33806">
        <ele>187.1</ele>
        <time>2020-06-10T16:54:33Z</time>
      </trkpt>
      <trkpt lat="48.56617" lon="-3.33801">
        <ele>187.3</ele>
        <time>2020-06-10T16:54:34Z</time>
      </trkpt>
      <trkpt lat="48.56617" lon="-3.33796">
        <ele>187.4</ele>
        <time>2020-06-10T16:54:35Z</time>
      </trkpt>
      <trkpt lat="48.56618" lon="-3.33791">
        <ele>187.6</ele>
        <time>2020-06-10T16:54:36Z</time>
      </trkpt>
      <trkpt lat="48.5662" lon="-3.33787">
        <ele>187.7</ele>
        <time>2020-06-10T16:54:37Z</time>
      </trkpt>
      <trkpt lat="48.56621" lon="-3.33782">
        <ele>187.9</ele>
        <time>2020-06-10T16:54:38Z</time>
      </trkpt>
      <trkpt lat="48.56622" lon="-3.33777">
        <ele>188.1</ele>
        <time>2020-06-10T16:54:39Z</time>
      </trkpt>
      <trkpt lat="48.56623" lon="-3.3377">
        <ele>188.3</ele>
        <time>2020-06-10T16:54:40Z</time>
      </trkpt>
      <trkpt lat="48.56625" lon="-3.33764">
        <ele>188.5</ele>
        <time>2020-06-10T16:54:41Z</time>
      </trkpt>
      <trkpt lat="48.56625" lon="-3.33758">
        <ele>188.7</ele>
        <time>2020-06-10T16:54:42Z</time>
      </trkpt>
      <trkpt lat="48.56626" lon="-3.33753">
        <ele>188.9</ele>
        <time>2020-06-10T16:54:43Z</time>
      </trkpt>
      <trkpt lat="48.56627" lon="-3.33746">
        <ele>189.1</ele>
        <time>2020-06-10T16:54:44Z</time>
      </trkpt>
      <trkpt lat="48.56627" lon="-3.33743">
        <ele>189.3</ele>
        <time>2020-06-10T16:54:45Z</time>
      </trkpt>
      <trkpt lat="48.56627" lon="-3.33737">
        <ele>189.5</ele>
        <time>2020-06-10T16:54:46Z</time>
      </trkpt>
      <trkpt lat="48.56628" lon="-3.33732">
        <ele>189.7</ele>
        <time>2020-06-10T16:54:47Z</time>
      </trkpt>
      <trkpt lat="48.56628" lon="-3.33728">
        <ele>189.8</ele>
        <time>2020-06-10T16:54:48Z</time>
      </trkpt>
      <trkpt lat="48.56627" lon="-3.33723">
        <ele>190</ele>
        <time>2020-06-10T16:54:49Z</time>
      </trkpt>
      <trkpt lat="48.56627" lon="-3.33717">
        <ele>190.3</ele>
        <time>2020-06-10T16:54:50Z</time>
      </trkpt>
      <trkpt lat="48.56627" lon="-3.33715">
        <ele>190.4</ele>
        <time>2020-06-10T16:54:51Z</time>
      </trkpt>
      <trkpt lat="48.56628" lon="-3.3371">
        <ele>190.6</ele>
        <time>2020-06-10T16:54:52Z</time>
      </trkpt>
      <trkpt lat="48.56627" lon="-3.33705">
        <ele>190.8</ele>
        <time>2020-06-10T16:54:53Z</time>
      </trkpt>
      <trkpt lat="48.56627" lon="-3.337">
        <ele>191</ele>
        <time>2020-06-10T16:54:54Z</time>
      </trkpt>
      <trkpt lat="48.56628" lon="-3.33698">
        <ele>191.1</ele>
        <time>2020-06-10T16:54:55Z</time>
      </trkpt>
      <trkpt lat="48.56626" lon="-3.33694">
        <ele>191.3</ele>
        <time>2020-06-10T16:54:56Z</time>
      </trkpt>
      <trkpt lat="48.56627" lon="-3.3369">
        <ele>191.4</ele>
        <time>2020-06-10T16:54:57Z</time>
      </trkpt>
      <trkpt lat="48.56627" lon="-3.33684">
        <ele>191.7</ele>
        <time>2020-06-10T16:54:58Z</time>
      </trkpt>
      <trkpt lat="48.56627" lon="-3.33682">
        <ele>191.7</ele>
        <time>2020-06-10T16:54:59Z</time>
      </trkpt>
      <trkpt lat="48.56628" lon="-3.33677">
        <ele>191.9</ele>
        <time>2020-06-10T16:55:00Z</time>
      </trkpt>
      <trkpt lat="48.56629" lon="-3.33673">
        <ele>192</ele>
        <time>2020-06-10T16:55:01Z</time>
      </trkpt>
      <trkpt lat="48.56628" lon="-3.33669">
        <ele>192.1</ele>
        <time>2020-06-10T16:55:02Z</time>
      </trkpt>
      <trkpt lat="48.56628" lon="-3.33664">
        <ele>192.2</ele>
        <time>2020-06-10T16:55:03Z</time>
      </trkpt>
      <trkpt lat="48.56629" lon="-3.33658">
        <ele>192.3</ele>
        <time>2020-06-10T16:55:04Z</time>
      </trkpt>
      <trkpt lat="48.56627" lon="-3.33652">
        <ele>192.4</ele>
        <time>2020-06-10T16:55:05Z</time>
      </trkpt>
      <trkpt lat="48.56627" lon="-3.3365">
        <ele>192.5</ele>
        <time>2020-06-10T16:55:06Z</time>
      </trkpt>
      <trkpt lat="48.56626" lon="-3.33645">
        <ele>192.8</ele>
        <time>2020-06-10T16:55:07Z</time>
      </trkpt>
      <trkpt lat="48.56625" lon="-3.3364">
        <ele>192.8</ele>
        <time>2020-06-10T16:55:08Z</time>
      </trkpt>
      <trkpt lat="48.56625" lon="-3.33636">
        <ele>192.8</ele>
        <time>2020-06-10T16:55:09Z</time>
      </trkpt>
      <trkpt lat="48.56625" lon="-3.3363">
        <ele>193.1</ele>
        <time>2020-06-10T16:55:10Z</time>
      </trkpt>
      <trkpt lat="48.56626" lon="-3.33624">
        <ele>193.2</ele>
        <time>2020-06-10T16:55:11Z</time>
      </trkpt>
      <trkpt lat="48.56626" lon="-3.33622">
        <ele>193.2</ele>
        <time>2020-06-10T16:55:12Z</time>
      </trkpt>
      <trkpt lat="48.56627" lon="-3.33617">
        <ele>193.2</ele>
        <time>2020-06-10T16:55:13Z</time>
      </trkpt>
      <trkpt lat="48.56627" lon="-3.33613">
        <ele>193.3</ele>
        <time>2020-06-10T16:55:14Z</time>
      </trkpt>
      <trkpt lat="48.56627" lon="-3.33607">
        <ele>193.5</ele>
        <time>2020-06-10T16:55:15Z</time>
      </trkpt>
      <trkpt lat="48.56627" lon="-3.33604">
        <ele>193.5</ele>
        <time>2020-06-10T16:55:16Z</time>
      </trkpt>
      <trkpt lat="48.56628" lon="-3.33599">
        <ele>193.6</ele>
        <time>2020-06-10T16:55:17Z</time>
      </trkpt>
      <trkpt lat="48.56628" lon="-3.33594">
        <ele>193.8</ele>
        <time>2020-06-10T16:55:18Z</time>
      </trkpt>
      <trkpt lat="48.56628" lon="-3.33589">
        <ele>193.9</ele>
        <time>2020-06-10T16:55:19Z</time>
      </trkpt>
      <trkpt lat="48.56629" lon="-3.33583">
        <ele>194</ele>
        <time>2020-06-10T16:55:20Z</time>
      </trkpt>
      <trkpt lat="48.56629" lon="-3.3358">
        <ele>194.1</ele>
        <time>2020-06-10T16:55:21Z</time>
      </trkpt>
      <trkpt lat="48.56629" lon="-3.33575">
        <ele>194.2</ele>
        <time>2020-06-10T16:55:22Z</time>
      </trkpt>
      <trkpt lat="48.5663" lon="-3.3357">
        <ele>194.3</ele>
        <time>2020-06-10T16:55:23Z</time>
      </trkpt>
      <trkpt lat="48.5663" lon="-3.33564">
        <ele>194.5</ele>
        <time>2020-06-10T16:55:24Z</time>
      </trkpt>
      <trkpt lat="48.56631" lon="-3.33559">
        <ele>194.7</ele>
        <time>2020-06-10T16:55:25Z</time>
      </trkpt>
      <trkpt lat="48.56631" lon="-3.33554">
        <ele>194.8</ele>
        <time>2020-06-10T16:55:26Z</time>
      </trkpt>
      <trkpt lat="48.56632" lon="-3.33549">
        <ele>194.9</ele>
        <time>2020-06-10T16:55:27Z</time>
      </trkpt>
      <trkpt lat="48.56633" lon="-3.33544">
        <ele>195.1</ele>
        <time>2020-06-10T16:55:28Z</time>
      </trkpt>
      <trkpt lat="48.56633" lon="-3.33539">
        <ele>195.2</ele>
        <time>2020-06-10T16:55:29Z</time>
      </trkpt>
      <trkpt lat="48.56633" lon="-3.33534">
        <ele>195.3</ele>
        <time>2020-06-10T16:55:30Z</time>
      </trkpt>
      <trkpt lat="48.56632" lon="-3.33529">
        <ele>195.5</ele>
        <time>2020-06-10T16:55:31Z</time>
      </trkpt>
      <trkpt lat="48.56633" lon="-3.33527">
        <ele>195.6</ele>
        <time>2020-06-10T16:55:32Z</time>
      </trkpt>
      <trkpt lat="48.56633" lon="-3.33521">
        <ele>195.8</ele>
        <time>2020-06-10T16:55:33Z</time>
      </trkpt>
      <trkpt lat="48.56633" lon="-3.33519">
        <ele>195.8</ele>
        <time>2020-06-10T16:55:34Z</time>
      </trkpt>
      <trkpt lat="48.56633" lon="-3.33514">
        <ele>196</ele>
        <time>2020-06-10T16:55:35Z</time>
      </trkpt>
      <trkpt lat="48.56633" lon="-3.33511">
        <ele>196.1</ele>
        <time>2020-06-10T16:55:36Z</time>
      </trkpt>
      <trkpt lat="48.56634" lon="-3.33507">
        <ele>196.2</ele>
        <time>2020-06-10T16:55:37Z</time>
      </trkpt>
      <trkpt lat="48.56635" lon="-3.33502">
        <ele>196.4</ele>
        <time>2020-06-10T16:55:38Z</time>
      </trkpt>
      <trkpt lat="48.56635" lon="-3.335">
        <ele>196.5</ele>
        <time>2020-06-10T16:55:39Z</time>
      </trkpt>
      <trkpt lat="48.56635" lon="-3.33495">
        <ele>196.7</ele>
        <time>2020-06-10T16:55:40Z</time>
      </trkpt>
      <trkpt lat="48.56635" lon="-3.33493">
        <ele>196.8</ele>
        <time>2020-06-10T16:55:41Z</time>
      </trkpt>
      <trkpt lat="48.56636" lon="-3.33488">
        <ele>197.3</ele>
        <time>2020-06-10T16:55:42Z</time>
      </trkpt>
      <trkpt lat="48.56636" lon="-3.33483">
        <ele>197.5</ele>
        <time>2020-06-10T16:55:43Z</time>
      </trkpt>
      <trkpt lat="48.56637" lon="-3.33481">
        <ele>197.5</ele>
        <time>2020-06-10T16:55:44Z</time>
      </trkpt>
      <trkpt lat="48.56636" lon="-3.33477">
        <ele>197.7</ele>
        <time>2020-06-10T16:55:45Z</time>
      </trkpt>
      <trkpt lat="48.56637" lon="-3.33473">
        <ele>197.9</ele>
        <time>2020-06-10T16:55:46Z</time>
      </trkpt>
      <trkpt lat="48.56638" lon="-3.33467">
        <ele>198.1</ele>
        <time>2020-06-10T16:55:47Z</time>
      </trkpt>
      <trkpt lat="48.56638" lon="-3.33465">
        <ele>198.2</ele>
        <time>2020-06-10T16:55:48Z</time>
      </trkpt>
      <trkpt lat="48.56638" lon="-3.33461">
        <ele>198.4</ele>
        <time>2020-06-10T16:55:49Z</time>
      </trkpt>
      <trkpt lat="48.56639" lon="-3.33457">
        <ele>198.6</ele>
        <time>2020-06-10T16:55:50Z</time>
      </trkpt>
      <trkpt lat="48.56639" lon="-3.33452">
        <ele>198.8</ele>
        <time>2020-06-10T16:55:51Z</time>
      </trkpt>
      <trkpt lat="48.56639" lon="-3.33448">
        <ele>198.9</ele>
        <time>2020-06-10T16:55:52Z</time>
      </trkpt>
      <trkpt lat="48.5664" lon="-3.33443">
        <ele>199.1</ele>
        <time>2020-06-10T16:55:53Z</time>
      </trkpt>
      <trkpt lat="48.5664" lon="-3.33439">
        <ele>199.3</ele>
        <time>2020-06-10T16:55:54Z</time>
      </trkpt>
      <trkpt lat="48.5664" lon="-3.33433">
        <ele>199.6</ele>
        <time>2020-06-10T16:55:55Z</time>
      </trkpt>
      <trkpt lat="48.5664" lon="-3.3343">
        <ele>199.7</ele>
        <time>2020-06-10T16:55:56Z</time>
      </trkpt>
      <trkpt lat="48.56639" lon="-3.33424">
        <ele>199.9</ele>
        <time>2020-06-10T16:55:57Z</time>
      </trkpt>
      <trkpt lat="48.56639" lon="-3.33418">
        <ele>200.2</ele>
        <time>2020-06-10T16:55:58Z</time>
      </trkpt>
      <trkpt lat="48.5664" lon="-3.33415">
        <ele>200.3</ele>
        <time>2020-06-10T16:55:59Z</time>
      </trkpt>
      <trkpt lat="48.56639" lon="-3.3341">
        <ele>200.6</ele>
        <time>2020-06-10T16:56:00Z</time>
      </trkpt>
      <trkpt lat="48.56639" lon="-3.33408">
        <ele>200.7</ele>
        <time>2020-06-10T16:56:01Z</time>
      </trkpt>
      <trkpt lat="48.56639" lon="-3.33403">
        <ele>200.9</ele>
        <time>2020-06-10T16:56:02Z</time>
      </trkpt>
      <trkpt lat="48.5664" lon="-3.33398">
        <ele>201.1</ele>
        <time>2020-06-10T16:56:03Z</time>
      </trkpt>
      <trkpt lat="48.56639" lon="-3.33394">
        <ele>201.2</ele>
        <time>2020-06-10T16:56:04Z</time>
      </trkpt>
      <trkpt lat="48.5664" lon="-3.3339">
        <ele>201.4</ele>
        <time>2020-06-10T16:56:05Z</time>
      </trkpt>
      <trkpt lat="48.56641" lon="-3.33385">
        <ele>201.6</ele>
        <time>2020-06-10T16:56:06Z</time>
      </trkpt>
      <trkpt lat="48.56642" lon="-3.3338">
        <ele>201.8</ele>
        <time>2020-06-10T16:56:07Z</time>
      </trkpt>
      <trkpt lat="48.56642" lon="-3.33375">
        <ele>202</ele>
        <time>2020-06-10T16:56:08Z</time>
      </trkpt>
      <trkpt lat="48.56644" lon="-3.3337">
        <ele>202.1</ele>
        <time>2020-06-10T16:56:09Z</time>
      </trkpt>
      <trkpt lat="48.56644" lon="-3.33368">
        <ele>202.2</ele>
        <time>2020-06-10T16:56:10Z</time>
      </trkpt>
      <trkpt lat="48.56645" lon="-3.33363">
        <ele>202.4</ele>
        <time>2020-06-10T16:56:11Z</time>
      </trkpt>
      <trkpt lat="48.56644" lon="-3.33359">
        <ele>202.6</ele>
        <time>2020-06-10T16:56:12Z</time>
      </trkpt>
      <trkpt lat="48.56644" lon="-3.33353">
        <ele>202.7</ele>
        <time>2020-06-10T16:56:13Z</time>
      </trkpt>
      <trkpt lat="48.56644" lon="-3.33348">
        <ele>202.9</ele>
        <time>2020-06-10T16:56:14Z</time>
      </trkpt>
      <trkpt lat="48.56645" lon="-3.33343">
        <ele>203.1</ele>
        <time>2020-06-10T16:56:15Z</time>
      </trkpt>
      <trkpt lat="48.56645" lon="-3.33336">
        <ele>203.3</ele>
        <time>2020-06-10T16:56:16Z</time>
      </trkpt>
      <trkpt lat="48.56644" lon="-3.33332">
        <ele>203.4</ele>
        <time>2020-06-10T16:56:17Z</time>
      </trkpt>
      <trkpt lat="48.56645" lon="-3.33328">
        <ele>203.5</ele>
        <time>2020-06-10T16:56:18Z</time>
      </trkpt>
      <trkpt lat="48.56646" lon="-3.33324">
        <ele>203.6</ele>
        <time>2020-06-10T16:56:19Z</time>
      </trkpt>
      <trkpt lat="48.56648" lon="-3.3332">
        <ele>203.7</ele>
        <time>2020-06-10T16:56:20Z</time>
      </trkpt>
      <trkpt lat="48.56649" lon="-3.33315">
        <ele>203.9</ele>
        <time>2020-06-10T16:56:21Z</time>
      </trkpt>
      <trkpt lat="48.56649" lon="-3.33309">
        <ele>204</ele>
        <time>2020-06-10T16:56:22Z</time>
      </trkpt>
      <trkpt lat="48.5665" lon="-3.33305">
        <ele>204.1</ele>
        <time>2020-06-10T16:56:23Z</time>
      </trkpt>
      <trkpt lat="48.5665" lon="-3.33301">
        <ele>204.2</ele>
        <time>2020-06-10T16:56:24Z</time>
      </trkpt>
      <trkpt lat="48.5665" lon="-3.33296">
        <ele>204.2</ele>
        <time>2020-06-10T16:56:25Z</time>
      </trkpt>
      <trkpt lat="48.56651" lon="-3.33292">
        <ele>204.3</ele>
        <time>2020-06-10T16:56:26Z</time>
      </trkpt>
      <trkpt lat="48.56651" lon="-3.33286">
        <ele>204.4</ele>
        <time>2020-06-10T16:56:27Z</time>
      </trkpt>
      <trkpt lat="48.56651" lon="-3.33282">
        <ele>204.5</ele>
        <time>2020-06-10T16:56:28Z</time>
      </trkpt>
      <trkpt lat="48.56651" lon="-3.33277">
        <ele>204.6</ele>
        <time>2020-06-10T16:56:29Z</time>
      </trkpt>
      <trkpt lat="48.56652" lon="-3.33273">
        <ele>204.7</ele>
        <time>2020-06-10T16:56:30Z</time>
      </trkpt>
      <trkpt lat="48.56651" lon="-3.33268">
        <ele>204.8</ele>
        <time>2020-06-10T16:56:31Z</time>
      </trkpt>
      <trkpt lat="48.56651" lon="-3.33262">
        <ele>204.9</ele>
        <time>2020-06-10T16:56:32Z</time>
      </trkpt>
      <trkpt lat="48.56651" lon="-3.3326">
        <ele>204.9</ele>
        <time>2020-06-10T16:56:33Z</time>
      </trkpt>
      <trkpt lat="48.56652" lon="-3.33254">
        <ele>205</ele>
        <time>2020-06-10T16:56:34Z</time>
      </trkpt>
      <trkpt lat="48.56652" lon="-3.33249">
        <ele>205</ele>
        <time>2020-06-10T16:56:35Z</time>
      </trkpt>
      <trkpt lat="48.56653" lon="-3.33243">
        <ele>205.1</ele>
        <time>2020-06-10T16:56:36Z</time>
      </trkpt>
      <trkpt lat="48.56654" lon="-3.33236">
        <ele>205.2</ele>
        <time>2020-06-10T16:56:37Z</time>
      </trkpt>
      <trkpt lat="48.56655" lon="-3.33231">
        <ele>205.2</ele>
        <time>2020-06-10T16:56:38Z</time>
      </trkpt>
      <trkpt lat="48.56655" lon="-3.33226">
        <ele>205.2</ele>
        <time>2020-06-10T16:56:39Z</time>
      </trkpt>
      <trkpt lat="48.56656" lon="-3.33219">
        <ele>205.2</ele>
        <time>2020-06-10T16:56:40Z</time>
      </trkpt>
      <trkpt lat="48.56657" lon="-3.33214">
        <ele>205.2</ele>
        <time>2020-06-10T16:56:41Z</time>
      </trkpt>
      <trkpt lat="48.56657" lon="-3.33207">
        <ele>205.2</ele>
        <time>2020-06-10T16:56:42Z</time>
      </trkpt>
      <trkpt lat="48.56657" lon="-3.332">
        <ele>205.2</ele>
        <time>2020-06-10T16:56:43Z</time>
      </trkpt>
      <trkpt lat="48.56657" lon="-3.33195">
        <ele>205.2</ele>
        <time>2020-06-10T16:56:44Z</time>
      </trkpt>
      <trkpt lat="48.56657" lon="-3.33188">
        <ele>205.2</ele>
        <time>2020-06-10T16:56:45Z</time>
      </trkpt>
      <trkpt lat="48.56657" lon="-3.33182">
        <ele>205.2</ele>
        <time>2020-06-10T16:56:46Z</time>
      </trkpt>
      <trkpt lat="48.56657" lon="-3.33176">
        <ele>205.3</ele>
        <time>2020-06-10T16:56:47Z</time>
      </trkpt>
      <trkpt lat="48.56656" lon="-3.33171">
        <ele>205.3</ele>
        <time>2020-06-10T16:56:48Z</time>
      </trkpt>
      <trkpt lat="48.56655" lon="-3.33165">
        <ele>205.3</ele>
        <time>2020-06-10T16:56:49Z</time>
      </trkpt>
      <trkpt lat="48.56655" lon="-3.33159">
        <ele>205.3</ele>
        <time>2020-06-10T16:56:50Z</time>
      </trkpt>
      <trkpt lat="48.56656" lon="-3.33154">
        <ele>205.3</ele>
        <time>2020-06-10T16:56:51Z</time>
      </trkpt>
      <trkpt lat="48.56656" lon="-3.33147">
        <ele>205.3</ele>
        <time>2020-06-10T16:56:52Z</time>
      </trkpt>
      <trkpt lat="48.56656" lon="-3.3314">
        <ele>205.2</ele>
        <time>2020-06-10T16:56:53Z</time>
      </trkpt>
      <trkpt lat="48.56657" lon="-3.33133">
        <ele>205.2</ele>
        <time>2020-06-10T16:56:54Z</time>
      </trkpt>
      <trkpt lat="48.56657" lon="-3.33127">
        <ele>205.2</ele>
        <time>2020-06-10T16:56:55Z</time>
      </trkpt>
      <trkpt lat="48.56658" lon="-3.33119">
        <ele>205.2</ele>
        <time>2020-06-10T16:56:56Z</time>
      </trkpt>
      <trkpt lat="48.56658" lon="-3.33113">
        <ele>205.1</ele>
        <time>2020-06-10T16:56:57Z</time>
      </trkpt>
      <trkpt lat="48.56659" lon="-3.33106">
        <ele>205.1</ele>
        <time>2020-06-10T16:56:58Z</time>
      </trkpt>
      <trkpt lat="48.5666" lon="-3.33099">
        <ele>205</ele>
        <time>2020-06-10T16:56:59Z</time>
      </trkpt>
      <trkpt lat="48.56661" lon="-3.33093">
        <ele>205</ele>
        <time>2020-06-10T16:57:00Z</time>
      </trkpt>
      <trkpt lat="48.56663" lon="-3.33085">
        <ele>205</ele>
        <time>2020-06-10T16:57:01Z</time>
      </trkpt>
      <trkpt lat="48.56664" lon="-3.33078">
        <ele>204.9</ele>
        <time>2020-06-10T16:57:02Z</time>
      </trkpt>
      <trkpt lat="48.56665" lon="-3.3307">
        <ele>204.9</ele>
        <time>2020-06-10T16:57:03Z</time>
      </trkpt>
      <trkpt lat="48.56664" lon="-3.33065">
        <ele>204.9</ele>
        <time>2020-06-10T16:57:04Z</time>
      </trkpt>
      <trkpt lat="48.56664" lon="-3.33057">
        <ele>204.9</ele>
        <time>2020-06-10T16:57:05Z</time>
      </trkpt>
      <trkpt lat="48.56664" lon="-3.3305">
        <ele>204.9</ele>
        <time>2020-06-10T16:57:06Z</time>
      </trkpt>
      <trkpt lat="48.56665" lon="-3.33043">
        <ele>204.9</ele>
        <time>2020-06-10T16:57:07Z</time>
      </trkpt>
      <trkpt lat="48.56666" lon="-3.33034">
        <ele>204.8</ele>
        <time>2020-06-10T16:57:08Z</time>
      </trkpt>
      <trkpt lat="48.56666" lon="-3.33026">
        <ele>204.8</ele>
        <time>2020-06-10T16:57:09Z</time>
      </trkpt>
      <trkpt lat="48.56666" lon="-3.33019">
        <ele>204.8</ele>
        <time>2020-06-10T16:57:10Z</time>
      </trkpt>
      <trkpt lat="48.56666" lon="-3.33012">
        <ele>204.8</ele>
        <time>2020-06-10T16:57:11Z</time>
      </trkpt>
      <trkpt lat="48.56667" lon="-3.33005">
        <ele>204.8</ele>
        <time>2020-06-10T16:57:12Z</time>
      </trkpt>
      <trkpt lat="48.56667" lon="-3.32998">
        <ele>204.7</ele>
        <time>2020-06-10T16:57:13Z</time>
      </trkpt>
      <trkpt lat="48.56666" lon="-3.3299">
        <ele>204.7</ele>
        <time>2020-06-10T16:57:14Z</time>
      </trkpt>
      <trkpt lat="48.56665" lon="-3.32983">
        <ele>204.7</ele>
        <time>2020-06-10T16:57:15Z</time>
      </trkpt>
      <trkpt lat="48.56666" lon="-3.32975">
        <ele>204.7</ele>
        <time>2020-06-10T16:57:16Z</time>
      </trkpt>
      <trkpt lat="48.56667" lon="-3.32967">
        <ele>204.7</ele>
        <time>2020-06-10T16:57:17Z</time>
      </trkpt>
      <trkpt lat="48.56667" lon="-3.3296">
        <ele>204.6</ele>
        <time>2020-06-10T16:57:18Z</time>
      </trkpt>
      <trkpt lat="48.56667" lon="-3.32952">
        <ele>204.6</ele>
        <time>2020-06-10T16:57:19Z</time>
      </trkpt>
      <trkpt lat="48.56669" lon="-3.32945">
        <ele>204.6</ele>
        <time>2020-06-10T16:57:20Z</time>
      </trkpt>
      <trkpt lat="48.56669" lon="-3.32938">
        <ele>204.5</ele>
        <time>2020-06-10T16:57:21Z</time>
      </trkpt>
      <trkpt lat="48.56669" lon="-3.32931">
        <ele>204.5</ele>
        <time>2020-06-10T16:57:22Z</time>
      </trkpt>
      <trkpt lat="48.5667" lon="-3.32925">
        <ele>204.5</ele>
        <time>2020-06-10T16:57:23Z</time>
      </trkpt>
      <trkpt lat="48.5667" lon="-3.32918">
        <ele>204.5</ele>
        <time>2020-06-10T16:57:24Z</time>
      </trkpt>
      <trkpt lat="48.5667" lon="-3.3291">
        <ele>204.5</ele>
        <time>2020-06-10T16:57:25Z</time>
      </trkpt>
      <trkpt lat="48.56671" lon="-3.32902">
        <ele>204.5</ele>
        <time>2020-06-10T16:57:26Z</time>
      </trkpt>
      <trkpt lat="48.56672" lon="-3.32896">
        <ele>204.5</ele>
        <time>2020-06-10T16:57:27Z</time>
      </trkpt>
      <trkpt lat="48.56672" lon="-3.32889">
        <ele>204.5</ele>
        <time>2020-06-10T16:57:28Z</time>
      </trkpt>
      <trkpt lat="48.56672" lon="-3.3288">
        <ele>204.5</ele>
        <time>2020-06-10T16:57:29Z</time>
      </trkpt>
      <trkpt lat="48.56673" lon="-3.32873">
        <ele>204.5</ele>
        <time>2020-06-10T16:57:30Z</time>
      </trkpt>
      <trkpt lat="48.56673" lon="-3.32868">
        <ele>204.5</ele>
        <time>2020-06-10T16:57:31Z</time>
      </trkpt>
      <trkpt lat="48.56673" lon="-3.3286">
        <ele>204.5</ele>
        <time>2020-06-10T16:57:32Z</time>
      </trkpt>
      <trkpt lat="48.56675" lon="-3.32854">
        <ele>204.5</ele>
        <time>2020-06-10T16:57:33Z</time>
      </trkpt>
      <trkpt lat="48.56676" lon="-3.32847">
        <ele>204.5</ele>
        <time>2020-06-10T16:57:34Z</time>
      </trkpt>
      <trkpt lat="48.56676" lon="-3.32839">
        <ele>204.5</ele>
        <time>2020-06-10T16:57:35Z</time>
      </trkpt>
      <trkpt lat="48.56677" lon="-3.32832">
        <ele>204.5</ele>
        <time>2020-06-10T16:57:36Z</time>
      </trkpt>
      <trkpt lat="48.56678" lon="-3.32825">
        <ele>204.5</ele>
        <time>2020-06-10T16:57:37Z</time>
      </trkpt>
      <trkpt lat="48.56678" lon="-3.32818">
        <ele>204.5</ele>
        <time>2020-06-10T16:57:38Z</time>
      </trkpt>
      <trkpt lat="48.56678" lon="-3.3281">
        <ele>204.5</ele>
        <time>2020-06-10T16:57:39Z</time>
      </trkpt>
      <trkpt lat="48.5668" lon="-3.32804">
        <ele>204.4</ele>
        <time>2020-06-10T16:57:40Z</time>
      </trkpt>
      <trkpt lat="48.56679" lon="-3.32798">
        <ele>204.4</ele>
        <time>2020-06-10T16:57:41Z</time>
      </trkpt>
      <trkpt lat="48.56679" lon="-3.3279">
        <ele>204.4</ele>
        <time>2020-06-10T16:57:42Z</time>
      </trkpt>
      <trkpt lat="48.56678" lon="-3.32782">
        <ele>204.4</ele>
        <time>2020-06-10T16:57:43Z</time>
      </trkpt>
      <trkpt lat="48.56679" lon="-3.32776">
        <ele>204.4</ele>
        <time>2020-06-10T16:57:44Z</time>
      </trkpt>
      <trkpt lat="48.56679" lon="-3.32769">
        <ele>204.4</ele>
        <time>2020-06-10T16:57:45Z</time>
      </trkpt>
      <trkpt lat="48.56679" lon="-3.32762">
        <ele>204.4</ele>
        <time>2020-06-10T16:57:46Z</time>
      </trkpt>
      <trkpt lat="48.56679" lon="-3.32755">
        <ele>204.4</ele>
        <time>2020-06-10T16:57:47Z</time>
      </trkpt>
      <trkpt lat="48.5668" lon="-3.32748">
        <ele>204.3</ele>
        <time>2020-06-10T16:57:48Z</time>
      </trkpt>
      <trkpt lat="48.5668" lon="-3.3274">
        <ele>204.3</ele>
        <time>2020-06-10T16:57:49Z</time>
      </trkpt>
      <trkpt lat="48.5668" lon="-3.32733">
        <ele>204.2</ele>
        <time>2020-06-10T16:57:50Z</time>
      </trkpt>
      <trkpt lat="48.5668" lon="-3.32726">
        <ele>204.2</ele>
        <time>2020-06-10T16:57:51Z</time>
      </trkpt>
      <trkpt lat="48.56681" lon="-3.32719">
        <ele>204.1</ele>
        <time>2020-06-10T16:57:52Z</time>
      </trkpt>
      <trkpt lat="48.56681" lon="-3.32712">
        <ele>204</ele>
        <time>2020-06-10T16:57:53Z</time>
      </trkpt>
      <trkpt lat="48.56683" lon="-3.32705">
        <ele>204</ele>
        <time>2020-06-10T16:57:54Z</time>
      </trkpt>
      <trkpt lat="48.56683" lon="-3.32697">
        <ele>203.9</ele>
        <time>2020-06-10T16:57:55Z</time>
      </trkpt>
      <trkpt lat="48.56684" lon="-3.32691">
        <ele>203.8</ele>
        <time>2020-06-10T16:57:56Z</time>
      </trkpt>
      <trkpt lat="48.56685" lon="-3.32684">
        <ele>203.7</ele>
        <time>2020-06-10T16:57:57Z</time>
      </trkpt>
      <trkpt lat="48.56685" lon="-3.32677">
        <ele>203.6</ele>
        <time>2020-06-10T16:57:58Z</time>
      </trkpt>
      <trkpt lat="48.56687" lon="-3.32669">
        <ele>203.5</ele>
        <time>2020-06-10T16:57:59Z</time>
      </trkpt>
      <trkpt lat="48.56687" lon="-3.32661">
        <ele>203.4</ele>
        <time>2020-06-10T16:58:00Z</time>
      </trkpt>
      <trkpt lat="48.56687" lon="-3.32653">
        <ele>203.2</ele>
        <time>2020-06-10T16:58:01Z</time>
      </trkpt>
      <trkpt lat="48.56687" lon="-3.32645">
        <ele>203</ele>
        <time>2020-06-10T16:58:02Z</time>
      </trkpt>
      <trkpt lat="48.56687" lon="-3.32637">
        <ele>202.9</ele>
        <time>2020-06-10T16:58:03Z</time>
      </trkpt>
      <trkpt lat="48.56687" lon="-3.32628">
        <ele>202.7</ele>
        <time>2020-06-10T16:58:04Z</time>
      </trkpt>
      <trkpt lat="48.56688" lon="-3.32619">
        <ele>202.5</ele>
        <time>2020-06-10T16:58:05Z</time>
      </trkpt>
      <trkpt lat="48.56688" lon="-3.3261">
        <ele>202.3</ele>
        <time>2020-06-10T16:58:06Z</time>
      </trkpt>
      <trkpt lat="48.56688" lon="-3.32601">
        <ele>202.2</ele>
        <time>2020-06-10T16:58:07Z</time>
      </trkpt>
      <trkpt lat="48.56688" lon="-3.32592">
        <ele>202</ele>
        <time>2020-06-10T16:58:08Z</time>
      </trkpt>
      <trkpt lat="48.56688" lon="-3.32582">
        <ele>201.8</ele>
        <time>2020-06-10T16:58:09Z</time>
      </trkpt>
      <trkpt lat="48.56689" lon="-3.32573">
        <ele>201.6</ele>
        <time>2020-06-10T16:58:10Z</time>
      </trkpt>
      <trkpt lat="48.56689" lon="-3.32563">
        <ele>201.5</ele>
        <time>2020-06-10T16:58:11Z</time>
      </trkpt>
      <trkpt lat="48.5669" lon="-3.32554">
        <ele>201.3</ele>
        <time>2020-06-10T16:58:12Z</time>
      </trkpt>
      <trkpt lat="48.5669" lon="-3.32544">
        <ele>201.1</ele>
        <time>2020-06-10T16:58:13Z</time>
      </trkpt>
      <trkpt lat="48.5669" lon="-3.32534">
        <ele>200.9</ele>
        <time>2020-06-10T16:58:14Z</time>
      </trkpt>
      <trkpt lat="48.5669" lon="-3.32523">
        <ele>200.8</ele>
        <time>2020-06-10T16:58:15Z</time>
      </trkpt>
      <trkpt lat="48.5669" lon="-3.32513">
        <ele>200.6</ele>
        <time>2020-06-10T16:58:16Z</time>
      </trkpt>
      <trkpt lat="48.56691" lon="-3.32503">
        <ele>200.4</ele>
        <time>2020-06-10T16:58:17Z</time>
      </trkpt>
      <trkpt lat="48.56691" lon="-3.32492">
        <ele>200.2</ele>
        <time>2020-06-10T16:58:18Z</time>
      </trkpt>
      <trkpt lat="48.56691" lon="-3.32482">
        <ele>200</ele>
        <time>2020-06-10T16:58:19Z</time>
      </trkpt>
      <trkpt lat="48.56692" lon="-3.32471">
        <ele>199.8</ele>
        <time>2020-06-10T16:58:20Z</time>
      </trkpt>
      <trkpt lat="48.56692" lon="-3.32461">
        <ele>199.6</ele>
        <time>2020-06-10T16:58:21Z</time>
      </trkpt>
      <trkpt lat="48.56692" lon="-3.3245">
        <ele>199.4</ele>
        <time>2020-06-10T16:58:22Z</time>
      </trkpt>
      <trkpt lat="48.56693" lon="-3.32439">
        <ele>199.2</ele>
        <time>2020-06-10T16:58:23Z</time>
      </trkpt>
      <trkpt lat="48.56694" lon="-3.32428">
        <ele>199</ele>
        <time>2020-06-10T16:58:24Z</time>
      </trkpt>
      <trkpt lat="48.56694" lon="-3.32417">
        <ele>198.8</ele>
        <time>2020-06-10T16:58:25Z</time>
      </trkpt>
      <trkpt lat="48.56695" lon="-3.32407">
        <ele>198.6</ele>
        <time>2020-06-10T16:58:26Z</time>
      </trkpt>
      <trkpt lat="48.56696" lon="-3.32396">
        <ele>198.6</ele>
        <time>2020-06-10T16:58:27Z</time>
      </trkpt>
      <trkpt lat="48.56696" lon="-3.32385">
        <ele>198.3</ele>
        <time>2020-06-10T16:58:28Z</time>
      </trkpt>
      <trkpt lat="48.56696" lon="-3.32374">
        <ele>198.2</ele>
        <time>2020-06-10T16:58:29Z</time>
      </trkpt>
      <trkpt lat="48.56697" lon="-3.32364">
        <ele>198.2</ele>
        <time>2020-06-10T16:58:30Z</time>
      </trkpt>
      <trkpt lat="48.56697" lon="-3.32353">
        <ele>198.1</ele>
        <time>2020-06-10T16:58:31Z</time>
      </trkpt>
      <trkpt lat="48.56697" lon="-3.32343">
        <ele>198</ele>
        <time>2020-06-10T16:58:32Z</time>
      </trkpt>
      <trkpt lat="48.56697" lon="-3.32333">
        <ele>198</ele>
        <time>2020-06-10T16:58:33Z</time>
      </trkpt>
      <trkpt lat="48.56697" lon="-3.32323">
        <ele>197.9</ele>
        <time>2020-06-10T16:58:34Z</time>
      </trkpt>
      <trkpt lat="48.56698" lon="-3.32313">
        <ele>197.8</ele>
        <time>2020-06-10T16:58:35Z</time>
      </trkpt>
      <trkpt lat="48.56699" lon="-3.32303">
        <ele>197.6</ele>
        <time>2020-06-10T16:58:36Z</time>
      </trkpt>
      <trkpt lat="48.56699" lon="-3.32293">
        <ele>197.6</ele>
        <time>2020-06-10T16:58:37Z</time>
      </trkpt>
      <trkpt lat="48.567" lon="-3.32284">
        <ele>197.5</ele>
        <time>2020-06-10T16:58:38Z</time>
      </trkpt>
      <trkpt lat="48.56701" lon="-3.32274">
        <ele>197.4</ele>
        <time>2020-06-10T16:58:39Z</time>
      </trkpt>
      <trkpt lat="48.56702" lon="-3.32264">
        <ele>197.4</ele>
        <time>2020-06-10T16:58:40Z</time>
      </trkpt>
      <trkpt lat="48.56702" lon="-3.32255">
        <ele>197.3</ele>
        <time>2020-06-10T16:58:41Z</time>
      </trkpt>
      <trkpt lat="48.56703" lon="-3.32245">
        <ele>197.2</ele>
        <time>2020-06-10T16:58:42Z</time>
      </trkpt>
      <trkpt lat="48.56704" lon="-3.32235">
        <ele>197.1</ele>
        <time>2020-06-10T16:58:43Z</time>
      </trkpt>
      <trkpt lat="48.56706" lon="-3.32226">
        <ele>197.1</ele>
        <time>2020-06-10T16:58:44Z</time>
      </trkpt>
      <trkpt lat="48.56707" lon="-3.32216">
        <ele>197</ele>
        <time>2020-06-10T16:58:45Z</time>
      </trkpt>
      <trkpt lat="48.56708" lon="-3.32206">
        <ele>197.1</ele>
        <time>2020-06-10T16:58:46Z</time>
      </trkpt>
      <trkpt lat="48.56708" lon="-3.32196">
        <ele>197.1</ele>
        <time>2020-06-10T16:58:47Z</time>
      </trkpt>
      <trkpt lat="48.56708" lon="-3.32187">
        <ele>197.2</ele>
        <time>2020-06-10T16:58:48Z</time>
      </trkpt>
      <trkpt lat="48.56709" lon="-3.32178">
        <ele>197.2</ele>
        <time>2020-06-10T16:58:49Z</time>
      </trkpt>
      <trkpt lat="48.56709" lon="-3.32168">
        <ele>197.3</ele>
        <time>2020-06-10T16:58:50Z</time>
      </trkpt>
      <trkpt lat="48.56709" lon="-3.3216">
        <ele>197.3</ele>
        <time>2020-06-10T16:58:51Z</time>
      </trkpt>
      <trkpt lat="48.5671" lon="-3.32152">
        <ele>197.4</ele>
        <time>2020-06-10T16:58:52Z</time>
      </trkpt>
      <trkpt lat="48.5671" lon="-3.32143">
        <ele>197.4</ele>
        <time>2020-06-10T16:58:53Z</time>
      </trkpt>
      <trkpt lat="48.5671" lon="-3.32135">
        <ele>197.5</ele>
        <time>2020-06-10T16:58:54Z</time>
      </trkpt>
      <trkpt lat="48.5671" lon="-3.32128">
        <ele>197.5</ele>
        <time>2020-06-10T16:58:55Z</time>
      </trkpt>
      <trkpt lat="48.5671" lon="-3.32119">
        <ele>197.6</ele>
        <time>2020-06-10T16:58:56Z</time>
      </trkpt>
      <trkpt lat="48.56711" lon="-3.32112">
        <ele>197.7</ele>
        <time>2020-06-10T16:58:57Z</time>
      </trkpt>
      <trkpt lat="48.5671" lon="-3.32104">
        <ele>197.7</ele>
        <time>2020-06-10T16:58:58Z</time>
      </trkpt>
      <trkpt lat="48.5671" lon="-3.32096">
        <ele>197.8</ele>
        <time>2020-06-10T16:58:59Z</time>
      </trkpt>
      <trkpt lat="48.56709" lon="-3.32088">
        <ele>197.9</ele>
        <time>2020-06-10T16:59:00Z</time>
      </trkpt>
      <trkpt lat="48.56709" lon="-3.32081">
        <ele>197.9</ele>
        <time>2020-06-10T16:59:01Z</time>
      </trkpt>
      <trkpt lat="48.56708" lon="-3.32073">
        <ele>198</ele>
        <time>2020-06-10T16:59:02Z</time>
      </trkpt>
      <trkpt lat="48.56709" lon="-3.32065">
        <ele>198</ele>
        <time>2020-06-10T16:59:03Z</time>
      </trkpt>
      <trkpt lat="48.5671" lon="-3.32058">
        <ele>198.1</ele>
        <time>2020-06-10T16:59:04Z</time>
      </trkpt>
      <trkpt lat="48.5671" lon="-3.3205">
        <ele>198.2</ele>
        <time>2020-06-10T16:59:05Z</time>
      </trkpt>
      <trkpt lat="48.5671" lon="-3.32041">
        <ele>198.2</ele>
        <time>2020-06-10T16:59:06Z</time>
      </trkpt>
      <trkpt lat="48.56709" lon="-3.32033">
        <ele>198.2</ele>
        <time>2020-06-10T16:59:07Z</time>
      </trkpt>
      <trkpt lat="48.56709" lon="-3.32025">
        <ele>198.3</ele>
        <time>2020-06-10T16:59:08Z</time>
      </trkpt>
      <trkpt lat="48.5671" lon="-3.32018">
        <ele>198.3</ele>
        <time>2020-06-10T16:59:09Z</time>
      </trkpt>
      <trkpt lat="48.5671" lon="-3.3201">
        <ele>198.3</ele>
        <time>2020-06-10T16:59:10Z</time>
      </trkpt>
      <trkpt lat="48.56711" lon="-3.32002">
        <ele>198.3</ele>
        <time>2020-06-10T16:59:11Z</time>
      </trkpt>
      <trkpt lat="48.56711" lon="-3.31994">
        <ele>198.4</ele>
        <time>2020-06-10T16:59:12Z</time>
      </trkpt>
      <trkpt lat="48.56712" lon="-3.31986">
        <ele>198.4</ele>
        <time>2020-06-10T16:59:13Z</time>
      </trkpt>
      <trkpt lat="48.56712" lon="-3.31979">
        <ele>198.4</ele>
        <time>2020-06-10T16:59:14Z</time>
      </trkpt>
      <trkpt lat="48.56712" lon="-3.31971">
        <ele>198.5</ele>
        <time>2020-06-10T16:59:15Z</time>
      </trkpt>
      <trkpt lat="48.56712" lon="-3.31964">
        <ele>198.5</ele>
        <time>2020-06-10T16:59:16Z</time>
      </trkpt>
      <trkpt lat="48.56711" lon="-3.31956">
        <ele>198.6</ele>
        <time>2020-06-10T16:59:17Z</time>
      </trkpt>
      <trkpt lat="48.56712" lon="-3.31948">
        <ele>198.6</ele>
        <time>2020-06-10T16:59:18Z</time>
      </trkpt>
      <trkpt lat="48.56712" lon="-3.31941">
        <ele>198.7</ele>
        <time>2020-06-10T16:59:19Z</time>
      </trkpt>
      <trkpt lat="48.56713" lon="-3.31933">
        <ele>198.7</ele>
        <time>2020-06-10T16:59:20Z</time>
      </trkpt>
      <trkpt lat="48.56714" lon="-3.31925">
        <ele>198.7</ele>
        <time>2020-06-10T16:59:21Z</time>
      </trkpt>
      <trkpt lat="48.56713" lon="-3.31918">
        <ele>198.8</ele>
        <time>2020-06-10T16:59:22Z</time>
      </trkpt>
      <trkpt lat="48.56713" lon="-3.3191">
        <ele>198.8</ele>
        <time>2020-06-10T16:59:23Z</time>
      </trkpt>
      <trkpt lat="48.5671" lon="-3.31903">
        <ele>198.7</ele>
        <time>2020-06-10T16:59:24Z</time>
      </trkpt>
      <trkpt lat="48.56709" lon="-3.31895">
        <ele>198.7</ele>
        <time>2020-06-10T16:59:25Z</time>
      </trkpt>
      <trkpt lat="48.56709" lon="-3.31888">
        <ele>198.7</ele>
        <time>2020-06-10T16:59:26Z</time>
      </trkpt>
      <trkpt lat="48.56708" lon="-3.3188">
        <ele>198.7</ele>
        <time>2020-06-10T16:59:27Z</time>
      </trkpt>
      <trkpt lat="48.56707" lon="-3.31872">
        <ele>198.7</ele>
        <time>2020-06-10T16:59:28Z</time>
      </trkpt>
      <trkpt lat="48.56708" lon="-3.31864">
        <ele>198.6</ele>
        <time>2020-06-10T16:59:29Z</time>
      </trkpt>
      <trkpt lat="48.56708" lon="-3.31856">
        <ele>198.6</ele>
        <time>2020-06-10T16:59:30Z</time>
      </trkpt>
      <trkpt lat="48.56709" lon="-3.31848">
        <ele>198.5</ele>
        <time>2020-06-10T16:59:31Z</time>
      </trkpt>
      <trkpt lat="48.5671" lon="-3.3184">
        <ele>198.5</ele>
        <time>2020-06-10T16:59:32Z</time>
      </trkpt>
      <trkpt lat="48.56714" lon="-3.31833">
        <ele>198.5</ele>
        <time>2020-06-10T16:59:33Z</time>
      </trkpt>
      <trkpt lat="48.56716" lon="-3.31826">
        <ele>198.5</ele>
        <time>2020-06-10T16:59:34Z</time>
      </trkpt>
      <trkpt lat="48.56719" lon="-3.31819">
        <ele>198.4</ele>
        <time>2020-06-10T16:59:35Z</time>
      </trkpt>
      <trkpt lat="48.56722" lon="-3.31812">
        <ele>198.3</ele>
        <time>2020-06-10T16:59:36Z</time>
      </trkpt>
      <trkpt lat="48.56724" lon="-3.31805">
        <ele>198.3</ele>
        <time>2020-06-10T16:59:37Z</time>
      </trkpt>
      <trkpt lat="48.56726" lon="-3.31798">
        <ele>198.2</ele>
        <time>2020-06-10T16:59:38Z</time>
      </trkpt>
      <trkpt lat="48.56729" lon="-3.31791">
        <ele>198.2</ele>
        <time>2020-06-10T16:59:39Z</time>
      </trkpt>
      <trkpt lat="48.56732" lon="-3.31784">
        <ele>198.1</ele>
        <time>2020-06-10T16:59:40Z</time>
      </trkpt>
      <trkpt lat="48.56734" lon="-3.31775">
        <ele>197.9</ele>
        <time>2020-06-10T16:59:41Z</time>
      </trkpt>
      <trkpt lat="48.56736" lon="-3.31767">
        <ele>197.8</ele>
        <time>2020-06-10T16:59:42Z</time>
      </trkpt>
      <trkpt lat="48.56737" lon="-3.31759">
        <ele>197.7</ele>
        <time>2020-06-10T16:59:43Z</time>
      </trkpt>
      <trkpt lat="48.56736" lon="-3.3175">
        <ele>197.5</ele>
        <time>2020-06-10T16:59:44Z</time>
      </trkpt>
      <trkpt lat="48.56735" lon="-3.31742">
        <ele>197.4</ele>
        <time>2020-06-10T16:59:45Z</time>
      </trkpt>
      <trkpt lat="48.56734" lon="-3.31733">
        <ele>197.3</ele>
        <time>2020-06-10T16:59:46Z</time>
      </trkpt>
      <trkpt lat="48.56733" lon="-3.31723">
        <ele>197.1</ele>
        <time>2020-06-10T16:59:47Z</time>
      </trkpt>
      <trkpt lat="48.56732" lon="-3.31714">
        <ele>197</ele>
        <time>2020-06-10T16:59:48Z</time>
      </trkpt>
      <trkpt lat="48.56731" lon="-3.31704">
        <ele>196.9</ele>
        <time>2020-06-10T16:59:49Z</time>
      </trkpt>
      <trkpt lat="48.56731" lon="-3.31695">
        <ele>196.8</ele>
        <time>2020-06-10T16:59:50Z</time>
      </trkpt>
      <trkpt lat="48.56731" lon="-3.31685">
        <ele>196.7</ele>
        <time>2020-06-10T16:59:51Z</time>
      </trkpt>
      <trkpt lat="48.56731" lon="-3.31675">
        <ele>196.6</ele>
        <time>2020-06-10T16:59:52Z</time>
      </trkpt>
      <trkpt lat="48.56731" lon="-3.31665">
        <ele>196.5</ele>
        <time>2020-06-10T16:59:53Z</time>
      </trkpt>
      <trkpt lat="48.5673" lon="-3.31655">
        <ele>196.4</ele>
        <time>2020-06-10T16:59:54Z</time>
      </trkpt>
      <trkpt lat="48.56731" lon="-3.31646">
        <ele>196.3</ele>
        <time>2020-06-10T16:59:55Z</time>
      </trkpt>
      <trkpt lat="48.56731" lon="-3.31637">
        <ele>196.3</ele>
        <time>2020-06-10T16:59:56Z</time>
      </trkpt>
      <trkpt lat="48.56731" lon="-3.31628">
        <ele>196.1</ele>
        <time>2020-06-10T16:59:57Z</time>
      </trkpt>
      <trkpt lat="48.56732" lon="-3.31619">
        <ele>196</ele>
        <time>2020-06-10T16:59:58Z</time>
      </trkpt>
      <trkpt lat="48.56732" lon="-3.3161">
        <ele>195.8</ele>
        <time>2020-06-10T16:59:59Z</time>
      </trkpt>
      <trkpt lat="48.56733" lon="-3.31601">
        <ele>195.7</ele>
        <time>2020-06-10T17:00:00Z</time>
      </trkpt>
      <trkpt lat="48.56733" lon="-3.31593">
        <ele>195.6</ele>
        <time>2020-06-10T17:00:01Z</time>
      </trkpt>
      <trkpt lat="48.56733" lon="-3.31584">
        <ele>195.5</ele>
        <time>2020-06-10T17:00:02Z</time>
      </trkpt>
      <trkpt lat="48.56733" lon="-3.31575">
        <ele>195.4</ele>
        <time>2020-06-10T17:00:03Z</time>
      </trkpt>
      <trkpt lat="48.56733" lon="-3.31566">
        <ele>195.3</ele>
        <time>2020-06-10T17:00:04Z</time>
      </trkpt>
      <trkpt lat="48.56732" lon="-3.31556">
        <ele>195.1</ele>
        <time>2020-06-10T17:00:05Z</time>
      </trkpt>
      <trkpt lat="48.56732" lon="-3.31547">
        <ele>195</ele>
        <time>2020-06-10T17:00:06Z</time>
      </trkpt>
      <trkpt lat="48.56733" lon="-3.31538">
        <ele>194.8</ele>
        <time>2020-06-10T17:00:07Z</time>
      </trkpt>
      <trkpt lat="48.56733" lon="-3.31529">
        <ele>194.7</ele>
        <time>2020-06-10T17:00:08Z</time>
      </trkpt>
      <trkpt lat="48.56733" lon="-3.3152">
        <ele>194.5</ele>
        <time>2020-06-10T17:00:09Z</time>
      </trkpt>
      <trkpt lat="48.56733" lon="-3.3151">
        <ele>194.3</ele>
        <time>2020-06-10T17:00:10Z</time>
      </trkpt>
      <trkpt lat="48.56733" lon="-3.315">
        <ele>194</ele>
        <time>2020-06-10T17:00:11Z</time>
      </trkpt>
      <trkpt lat="48.56733" lon="-3.31491">
        <ele>193.8</ele>
        <time>2020-06-10T17:00:12Z</time>
      </trkpt>
      <trkpt lat="48.56733" lon="-3.31481">
        <ele>193.5</ele>
        <time>2020-06-10T17:00:13Z</time>
      </trkpt>
      <trkpt lat="48.56733" lon="-3.31472">
        <ele>193.2</ele>
        <time>2020-06-10T17:00:14Z</time>
      </trkpt>
      <trkpt lat="48.56733" lon="-3.31462">
        <ele>192.9</ele>
        <time>2020-06-10T17:00:15Z</time>
      </trkpt>
      <trkpt lat="48.56734" lon="-3.31452">
        <ele>192.6</ele>
        <time>2020-06-10T17:00:16Z</time>
      </trkpt>
      <trkpt lat="48.56735" lon="-3.31442">
        <ele>192.2</ele>
        <time>2020-06-10T17:00:17Z</time>
      </trkpt>
      <trkpt lat="48.56736" lon="-3.31431">
        <ele>191.8</ele>
        <time>2020-06-10T17:00:18Z</time>
      </trkpt>
      <trkpt lat="48.56737" lon="-3.3142">
        <ele>191.4</ele>
        <time>2020-06-10T17:00:19Z</time>
      </trkpt>
      <trkpt lat="48.56739" lon="-3.31409">
        <ele>191</ele>
        <time>2020-06-10T17:00:20Z</time>
      </trkpt>
      <trkpt lat="48.56741" lon="-3.31398">
        <ele>190.6</ele>
        <time>2020-06-10T17:00:21Z</time>
      </trkpt>
      <trkpt lat="48.56744" lon="-3.31387">
        <ele>190.2</ele>
        <time>2020-06-10T17:00:22Z</time>
      </trkpt>
      <trkpt lat="48.56747" lon="-3.31377">
        <ele>189.8</ele>
        <time>2020-06-10T17:00:23Z</time>
      </trkpt>
      <trkpt lat="48.56749" lon="-3.31365">
        <ele>189.3</ele>
        <time>2020-06-10T17:00:24Z</time>
      </trkpt>
      <trkpt lat="48.56749" lon="-3.31354">
        <ele>189</ele>
        <time>2020-06-10T17:00:25Z</time>
      </trkpt>
      <trkpt lat="48.56749" lon="-3.31343">
        <ele>188.6</ele>
        <time>2020-06-10T17:00:26Z</time>
      </trkpt>
      <trkpt lat="48.56747" lon="-3.31333">
        <ele>188.3</ele>
        <time>2020-06-10T17:00:27Z</time>
      </trkpt>
      <trkpt lat="48.56744" lon="-3.31323">
        <ele>188.2</ele>
        <time>2020-06-10T17:00:28Z</time>
      </trkpt>
      <trkpt lat="48.56738" lon="-3.31315">
        <ele>188.1</ele>
        <time>2020-06-10T17:00:29Z</time>
      </trkpt>
      <trkpt lat="48.56733" lon="-3.31309">
        <ele>188</ele>
        <time>2020-06-10T17:00:30Z</time>
      </trkpt>
      <trkpt lat="48.56725" lon="-3.31308">
        <ele>187.9</ele>
        <time>2020-06-10T17:00:31Z</time>
      </trkpt>
      <trkpt lat="48.56716" lon="-3.31304">
        <ele>187.7</ele>
        <time>2020-06-10T17:00:32Z</time>
      </trkpt>
      <trkpt lat="48.56713" lon="-3.31302">
        <ele>187.7</ele>
        <time>2020-06-10T17:00:33Z</time>
      </trkpt>
      <trkpt lat="48.56707" lon="-3.31294">
        <ele>187.6</ele>
        <time>2020-06-10T17:00:34Z</time>
      </trkpt>
      <trkpt lat="48.56702" lon="-3.31287">
        <ele>187.6</ele>
        <time>2020-06-10T17:00:35Z</time>
      </trkpt>
      <trkpt lat="48.56698" lon="-3.31279">
        <ele>187.7</ele>
        <time>2020-06-10T17:00:36Z</time>
      </trkpt>
      <trkpt lat="48.56695" lon="-3.3127">
        <ele>187.7</ele>
        <time>2020-06-10T17:00:37Z</time>
      </trkpt>
      <trkpt lat="48.56694" lon="-3.31259">
        <ele>187.7</ele>
        <time>2020-06-10T17:00:38Z</time>
      </trkpt>
      <trkpt lat="48.56694" lon="-3.31249">
        <ele>187.7</ele>
        <time>2020-06-10T17:00:39Z</time>
      </trkpt>
      <trkpt lat="48.56694" lon="-3.31238">
        <ele>187.8</ele>
        <time>2020-06-10T17:00:40Z</time>
      </trkpt>
      <trkpt lat="48.56695" lon="-3.31228">
        <ele>187.9</ele>
        <time>2020-06-10T17:00:41Z</time>
      </trkpt>
      <trkpt lat="48.56696" lon="-3.31218">
        <ele>188</ele>
        <time>2020-06-10T17:00:42Z</time>
      </trkpt>
      <trkpt lat="48.56698" lon="-3.31208">
        <ele>188.1</ele>
        <time>2020-06-10T17:00:43Z</time>
      </trkpt>
      <trkpt lat="48.56699" lon="-3.31199">
        <ele>188.3</ele>
        <time>2020-06-10T17:00:44Z</time>
      </trkpt>
      <trkpt lat="48.56701" lon="-3.3119">
        <ele>188.4</ele>
        <time>2020-06-10T17:00:45Z</time>
      </trkpt>
      <trkpt lat="48.56702" lon="-3.31182">
        <ele>188.5</ele>
        <time>2020-06-10T17:00:46Z</time>
      </trkpt>
      <trkpt lat="48.56703" lon="-3.31173">
        <ele>188.6</ele>
        <time>2020-06-10T17:00:47Z</time>
      </trkpt>
      <trkpt lat="48.56705" lon="-3.31165">
        <ele>188.7</ele>
        <time>2020-06-10T17:00:48Z</time>
      </trkpt>
      <trkpt lat="48.56706" lon="-3.31156">
        <ele>188.8</ele>
        <time>2020-06-10T17:00:49Z</time>
      </trkpt>
      <trkpt lat="48.56707" lon="-3.31148">
        <ele>188.9</ele>
        <time>2020-06-10T17:00:50Z</time>
      </trkpt>
      <trkpt lat="48.56708" lon="-3.3114">
        <ele>188.9</ele>
        <time>2020-06-10T17:00:51Z</time>
      </trkpt>
      <trkpt lat="48.56709" lon="-3.31133">
        <ele>189</ele>
        <time>2020-06-10T17:00:52Z</time>
      </trkpt>
      <trkpt lat="48.56709" lon="-3.31125">
        <ele>189</ele>
        <time>2020-06-10T17:00:53Z</time>
      </trkpt>
      <trkpt lat="48.5671" lon="-3.31118">
        <ele>189</ele>
        <time>2020-06-10T17:00:54Z</time>
      </trkpt>
      <trkpt lat="48.5671" lon="-3.3111">
        <ele>189</ele>
        <time>2020-06-10T17:00:55Z</time>
      </trkpt>
      <trkpt lat="48.56709" lon="-3.31101">
        <ele>189</ele>
        <time>2020-06-10T17:00:56Z</time>
      </trkpt>
      <trkpt lat="48.56709" lon="-3.31092">
        <ele>189</ele>
        <time>2020-06-10T17:00:57Z</time>
      </trkpt>
      <trkpt lat="48.56709" lon="-3.31084">
        <ele>188.9</ele>
        <time>2020-06-10T17:00:58Z</time>
      </trkpt>
      <trkpt lat="48.56709" lon="-3.31076">
        <ele>188.8</ele>
        <time>2020-06-10T17:00:59Z</time>
      </trkpt>
      <trkpt lat="48.56709" lon="-3.31067">
        <ele>188.8</ele>
        <time>2020-06-10T17:01:00Z</time>
      </trkpt>
      <trkpt lat="48.56709" lon="-3.31059">
        <ele>188.7</ele>
        <time>2020-06-10T17:01:01Z</time>
      </trkpt>
      <trkpt lat="48.56709" lon="-3.3105">
        <ele>188.7</ele>
        <time>2020-06-10T17:01:02Z</time>
      </trkpt>
      <trkpt lat="48.56709" lon="-3.31042">
        <ele>188.6</ele>
        <time>2020-06-10T17:01:03Z</time>
      </trkpt>
      <trkpt lat="48.56709" lon="-3.31034">
        <ele>188.6</ele>
        <time>2020-06-10T17:01:04Z</time>
      </trkpt>
      <trkpt lat="48.56709" lon="-3.31026">
        <ele>188.5</ele>
        <time>2020-06-10T17:01:05Z</time>
      </trkpt>
      <trkpt lat="48.56709" lon="-3.31017">
        <ele>188.5</ele>
        <time>2020-06-10T17:01:06Z</time>
      </trkpt>
      <trkpt lat="48.56709" lon="-3.31009">
        <ele>188.4</ele>
        <time>2020-06-10T17:01:07Z</time>
      </trkpt>
      <trkpt lat="48.56709" lon="-3.31001">
        <ele>188.4</ele>
        <time>2020-06-10T17:01:08Z</time>
      </trkpt>
      <trkpt lat="48.56709" lon="-3.30992">
        <ele>188.4</ele>
        <time>2020-06-10T17:01:09Z</time>
      </trkpt>
      <trkpt lat="48.5671" lon="-3.30984">
        <ele>188.3</ele>
        <time>2020-06-10T17:01:10Z</time>
      </trkpt>
      <trkpt lat="48.56711" lon="-3.30975">
        <ele>188.3</ele>
        <time>2020-06-10T17:01:11Z</time>
      </trkpt>
      <trkpt lat="48.56712" lon="-3.30967">
        <ele>188.2</ele>
        <time>2020-06-10T17:01:12Z</time>
      </trkpt>
      <trkpt lat="48.56712" lon="-3.30958">
        <ele>188.2</ele>
        <time>2020-06-10T17:01:13Z</time>
      </trkpt>
      <trkpt lat="48.56712" lon="-3.3095">
        <ele>188.1</ele>
        <time>2020-06-10T17:01:14Z</time>
      </trkpt>
      <trkpt lat="48.56712" lon="-3.30941">
        <ele>188</ele>
        <time>2020-06-10T17:01:15Z</time>
      </trkpt>
      <trkpt lat="48.56712" lon="-3.30932">
        <ele>188</ele>
        <time>2020-06-10T17:01:16Z</time>
      </trkpt>
      <trkpt lat="48.56712" lon="-3.30923">
        <ele>187.9</ele>
        <time>2020-06-10T17:01:17Z</time>
      </trkpt>
      <trkpt lat="48.56713" lon="-3.30914">
        <ele>187.8</ele>
        <time>2020-06-10T17:01:18Z</time>
      </trkpt>
      <trkpt lat="48.56713" lon="-3.30904">
        <ele>187.8</ele>
        <time>2020-06-10T17:01:19Z</time>
      </trkpt>
      <trkpt lat="48.56714" lon="-3.30895">
        <ele>187.7</ele>
        <time>2020-06-10T17:01:20Z</time>
      </trkpt>
      <trkpt lat="48.56715" lon="-3.30886">
        <ele>187.7</ele>
        <time>2020-06-10T17:01:21Z</time>
      </trkpt>
      <trkpt lat="48.56715" lon="-3.30877">
        <ele>187.7</ele>
        <time>2020-06-10T17:01:22Z</time>
      </trkpt>
      <trkpt lat="48.56716" lon="-3.30868">
        <ele>187.7</ele>
        <time>2020-06-10T17:01:23Z</time>
      </trkpt>
      <trkpt lat="48.56716" lon="-3.30859">
        <ele>187.7</ele>
        <time>2020-06-10T17:01:24Z</time>
      </trkpt>
      <trkpt lat="48.56715" lon="-3.30851">
        <ele>187.7</ele>
        <time>2020-06-10T17:01:25Z</time>
      </trkpt>
      <trkpt lat="48.56714" lon="-3.30843">
        <ele>187.6</ele>
        <time>2020-06-10T17:01:26Z</time>
      </trkpt>
      <trkpt lat="48.56713" lon="-3.30834">
        <ele>187.6</ele>
        <time>2020-06-10T17:01:27Z</time>
      </trkpt>
      <trkpt lat="48.56713" lon="-3.30825">
        <ele>187.5</ele>
        <time>2020-06-10T17:01:28Z</time>
      </trkpt>
      <trkpt lat="48.56714" lon="-3.30816">
        <ele>187.5</ele>
        <time>2020-06-10T17:01:29Z</time>
      </trkpt>
      <trkpt lat="48.56715" lon="-3.30807">
        <ele>187.5</ele>
        <time>2020-06-10T17:01:30Z</time>
      </trkpt>
      <trkpt lat="48.56715" lon="-3.30798">
        <ele>187.4</ele>
        <time>2020-06-10T17:01:31Z</time>
      </trkpt>
      <trkpt lat="48.56715" lon="-3.30789">
        <ele>187.4</ele>
        <time>2020-06-10T17:01:32Z</time>
      </trkpt>
      <trkpt lat="48.56715" lon="-3.3078">
        <ele>187.4</ele>
        <time>2020-06-10T17:01:33Z</time>
      </trkpt>
      <trkpt lat="48.56715" lon="-3.3077">
        <ele>187.3</ele>
        <time>2020-06-10T17:01:34Z</time>
      </trkpt>
      <trkpt lat="48.56716" lon="-3.30761">
        <ele>187.3</ele>
        <time>2020-06-10T17:01:35Z</time>
      </trkpt>
      <trkpt lat="48.56716" lon="-3.30751">
        <ele>187.3</ele>
        <time>2020-06-10T17:01:36Z</time>
      </trkpt>
      <trkpt lat="48.56717" lon="-3.30742">
        <ele>187.4</ele>
        <time>2020-06-10T17:01:37Z</time>
      </trkpt>
      <trkpt lat="48.56717" lon="-3.30733">
        <ele>187.4</ele>
        <time>2020-06-10T17:01:38Z</time>
      </trkpt>
      <trkpt lat="48.56718" lon="-3.30724">
        <ele>187.4</ele>
        <time>2020-06-10T17:01:39Z</time>
      </trkpt>
      <trkpt lat="48.56718" lon="-3.30715">
        <ele>187.5</ele>
        <time>2020-06-10T17:01:40Z</time>
      </trkpt>
      <trkpt lat="48.56719" lon="-3.30706">
        <ele>187.5</ele>
        <time>2020-06-10T17:01:41Z</time>
      </trkpt>
      <trkpt lat="48.56719" lon="-3.30697">
        <ele>187.5</ele>
        <time>2020-06-10T17:01:42Z</time>
      </trkpt>
      <trkpt lat="48.56718" lon="-3.30689">
        <ele>187.5</ele>
        <time>2020-06-10T17:01:43Z</time>
      </trkpt>
      <trkpt lat="48.56719" lon="-3.3068">
        <ele>187.5</ele>
        <time>2020-06-10T17:01:44Z</time>
      </trkpt>
      <trkpt lat="48.56719" lon="-3.30672">
        <ele>187.6</ele>
        <time>2020-06-10T17:01:45Z</time>
      </trkpt>
      <trkpt lat="48.56719" lon="-3.30663">
        <ele>187.6</ele>
        <time>2020-06-10T17:01:46Z</time>
      </trkpt>
      <trkpt lat="48.56719" lon="-3.30655">
        <ele>187.7</ele>
        <time>2020-06-10T17:01:47Z</time>
      </trkpt>
      <trkpt lat="48.5672" lon="-3.30646">
        <ele>187.7</ele>
        <time>2020-06-10T17:01:48Z</time>
      </trkpt>
      <trkpt lat="48.5672" lon="-3.30638">
        <ele>187.7</ele>
        <time>2020-06-10T17:01:49Z</time>
      </trkpt>
      <trkpt lat="48.5672" lon="-3.30629">
        <ele>187.7</ele>
        <time>2020-06-10T17:01:50Z</time>
      </trkpt>
      <trkpt lat="48.5672" lon="-3.30621">
        <ele>187.6</ele>
        <time>2020-06-10T17:01:51Z</time>
      </trkpt>
      <trkpt lat="48.56721" lon="-3.30612">
        <ele>187.6</ele>
        <time>2020-06-10T17:01:52Z</time>
      </trkpt>
      <trkpt lat="48.56721" lon="-3.30603">
        <ele>187.7</ele>
        <time>2020-06-10T17:01:53Z</time>
      </trkpt>
      <trkpt lat="48.5672" lon="-3.30595">
        <ele>187.7</ele>
        <time>2020-06-10T17:01:54Z</time>
      </trkpt>
      <trkpt lat="48.5672" lon="-3.30586">
        <ele>187.7</ele>
        <time>2020-06-10T17:01:55Z</time>
      </trkpt>
      <trkpt lat="48.5672" lon="-3.30577">
        <ele>187.7</ele>
        <time>2020-06-10T17:01:56Z</time>
      </trkpt>
      <trkpt lat="48.5672" lon="-3.30568">
        <ele>187.7</ele>
        <time>2020-06-10T17:01:57Z</time>
      </trkpt>
      <trkpt lat="48.5672" lon="-3.3056">
        <ele>187.7</ele>
        <time>2020-06-10T17:01:58Z</time>
      </trkpt>
      <trkpt lat="48.56719" lon="-3.30551">
        <ele>187.7</ele>
        <time>2020-06-10T17:01:59Z</time>
      </trkpt>
      <trkpt lat="48.56719" lon="-3.30542">
        <ele>187.7</ele>
        <time>2020-06-10T17:02:00Z</time>
      </trkpt>
      <trkpt lat="48.56719" lon="-3.30533">
        <ele>187.7</ele>
        <time>2020-06-10T17:02:01Z</time>
      </trkpt>
      <trkpt lat="48.56718" lon="-3.30525">
        <ele>187.6</ele>
        <time>2020-06-10T17:02:02Z</time>
      </trkpt>
      <trkpt lat="48.56719" lon="-3.30516">
        <ele>187.6</ele>
        <time>2020-06-10T17:02:03Z</time>
      </trkpt>
      <trkpt lat="48.56719" lon="-3.30508">
        <ele>187.5</ele>
        <time>2020-06-10T17:02:04Z</time>
      </trkpt>
      <trkpt lat="48.56718" lon="-3.305">
        <ele>187.4</ele>
        <time>2020-06-10T17:02:05Z</time>
      </trkpt>
      <trkpt lat="48.56716" lon="-3.30492">
        <ele>187.4</ele>
        <time>2020-06-10T17:02:06Z</time>
      </trkpt>
      <trkpt lat="48.56715" lon="-3.30484">
        <ele>187.4</ele>
        <time>2020-06-10T17:02:07Z</time>
      </trkpt>
      <trkpt lat="48.56713" lon="-3.30476">
        <ele>187.3</ele>
        <time>2020-06-10T17:02:08Z</time>
      </trkpt>
      <trkpt lat="48.56712" lon="-3.30468">
        <ele>187.3</ele>
        <time>2020-06-10T17:02:09Z</time>
      </trkpt>
      <trkpt lat="48.56711" lon="-3.30459">
        <ele>187.2</ele>
        <time>2020-06-10T17:02:10Z</time>
      </trkpt>
      <trkpt lat="48.5671" lon="-3.30451">
        <ele>187.2</ele>
        <time>2020-06-10T17:02:11Z</time>
      </trkpt>
      <trkpt lat="48.56709" lon="-3.30442">
        <ele>187.2</ele>
        <time>2020-06-10T17:02:12Z</time>
      </trkpt>
      <trkpt lat="48.56709" lon="-3.30434">
        <ele>187.2</ele>
        <time>2020-06-10T17:02:13Z</time>
      </trkpt>
      <trkpt lat="48.56709" lon="-3.30426">
        <ele>187.2</ele>
        <time>2020-06-10T17:02:14Z</time>
      </trkpt>
      <trkpt lat="48.56708" lon="-3.30418">
        <ele>187.2</ele>
        <time>2020-06-10T17:02:15Z</time>
      </trkpt>
      <trkpt lat="48.56708" lon="-3.30409">
        <ele>187.2</ele>
        <time>2020-06-10T17:02:16Z</time>
      </trkpt>
      <trkpt lat="48.56707" lon="-3.30401">
        <ele>187.2</ele>
        <time>2020-06-10T17:02:17Z</time>
      </trkpt>
      <trkpt lat="48.56707" lon="-3.30392">
        <ele>187.3</ele>
        <time>2020-06-10T17:02:18Z</time>
      </trkpt>
      <trkpt lat="48.56707" lon="-3.30384">
        <ele>187.3</ele>
        <time>2020-06-10T17:02:19Z</time>
      </trkpt>
      <trkpt lat="48.56705" lon="-3.30376">
        <ele>187.3</ele>
        <time>2020-06-10T17:02:20Z</time>
      </trkpt>
      <trkpt lat="48.56704" lon="-3.30369">
        <ele>187.4</ele>
        <time>2020-06-10T17:02:21Z</time>
      </trkpt>
      <trkpt lat="48.56704" lon="-3.30361">
        <ele>187.4</ele>
        <time>2020-06-10T17:02:22Z</time>
      </trkpt>
      <trkpt lat="48.56704" lon="-3.30354">
        <ele>187.4</ele>
        <time>2020-06-10T17:02:23Z</time>
      </trkpt>
      <trkpt lat="48.56703" lon="-3.30346">
        <ele>187.4</ele>
        <time>2020-06-10T17:02:24Z</time>
      </trkpt>
      <trkpt lat="48.56703" lon="-3.30337">
        <ele>187.4</ele>
        <time>2020-06-10T17:02:25Z</time>
      </trkpt>
      <trkpt lat="48.56703" lon="-3.30329">
        <ele>187.3</ele>
        <time>2020-06-10T17:02:26Z</time>
      </trkpt>
      <trkpt lat="48.56703" lon="-3.30321">
        <ele>187.3</ele>
        <time>2020-06-10T17:02:27Z</time>
      </trkpt>
      <trkpt lat="48.56702" lon="-3.30312">
        <ele>187.3</ele>
        <time>2020-06-10T17:02:28Z</time>
      </trkpt>
      <trkpt lat="48.56703" lon="-3.30304">
        <ele>187.3</ele>
        <time>2020-06-10T17:02:29Z</time>
      </trkpt>
      <trkpt lat="48.56702" lon="-3.30296">
        <ele>187.3</ele>
        <time>2020-06-10T17:02:30Z</time>
      </trkpt>
      <trkpt lat="48.56702" lon="-3.30288">
        <ele>187.2</ele>
        <time>2020-06-10T17:02:31Z</time>
      </trkpt>
      <trkpt lat="48.56703" lon="-3.3028">
        <ele>187.2</ele>
        <time>2020-06-10T17:02:32Z</time>
      </trkpt>
      <trkpt lat="48.56702" lon="-3.30272">
        <ele>187.2</ele>
        <time>2020-06-10T17:02:33Z</time>
      </trkpt>
      <trkpt lat="48.56702" lon="-3.30265">
        <ele>187.2</ele>
        <time>2020-06-10T17:02:34Z</time>
      </trkpt>
      <trkpt lat="48.56701" lon="-3.30258">
        <ele>187.2</ele>
        <time>2020-06-10T17:02:35Z</time>
      </trkpt>
      <trkpt lat="48.56701" lon="-3.30251">
        <ele>187.1</ele>
        <time>2020-06-10T17:02:36Z</time>
      </trkpt>
      <trkpt lat="48.56701" lon="-3.30243">
        <ele>187.1</ele>
        <time>2020-06-10T17:02:37Z</time>
      </trkpt>
      <trkpt lat="48.567" lon="-3.30236">
        <ele>187.1</ele>
        <time>2020-06-10T17:02:38Z</time>
      </trkpt>
      <trkpt lat="48.56699" lon="-3.30228">
        <ele>187.1</ele>
        <time>2020-06-10T17:02:39Z</time>
      </trkpt>
      <trkpt lat="48.56699" lon="-3.30221">
        <ele>187.1</ele>
        <time>2020-06-10T17:02:40Z</time>
      </trkpt>
      <trkpt lat="48.56698" lon="-3.30215">
        <ele>187.1</ele>
        <time>2020-06-10T17:02:41Z</time>
      </trkpt>
      <trkpt lat="48.56699" lon="-3.30209">
        <ele>187.1</ele>
        <time>2020-06-10T17:02:42Z</time>
      </trkpt>
      <trkpt lat="48.56698" lon="-3.30203">
        <ele>187.1</ele>
        <time>2020-06-10T17:02:43Z</time>
      </trkpt>
      <trkpt lat="48.56698" lon="-3.30197">
        <ele>187.1</ele>
        <time>2020-06-10T17:02:44Z</time>
      </trkpt>
      <trkpt lat="48.56698" lon="-3.30191">
        <ele>187.1</ele>
        <time>2020-06-10T17:02:45Z</time>
      </trkpt>
      <trkpt lat="48.56698" lon="-3.30185">
        <ele>187</ele>
        <time>2020-06-10T17:02:46Z</time>
      </trkpt>
      <trkpt lat="48.56699" lon="-3.30178">
        <ele>187</ele>
        <time>2020-06-10T17:02:47Z</time>
      </trkpt>
      <trkpt lat="48.56699" lon="-3.30171">
        <ele>187</ele>
        <time>2020-06-10T17:02:48Z</time>
      </trkpt>
      <trkpt lat="48.567" lon="-3.30164">
        <ele>187</ele>
        <time>2020-06-10T17:02:49Z</time>
      </trkpt>
      <trkpt lat="48.567" lon="-3.30157">
        <ele>187</ele>
        <time>2020-06-10T17:02:50Z</time>
      </trkpt>
      <trkpt lat="48.567" lon="-3.3015">
        <ele>187</ele>
        <time>2020-06-10T17:02:51Z</time>
      </trkpt>
      <trkpt lat="48.567" lon="-3.30143">
        <ele>186.9</ele>
        <time>2020-06-10T17:02:52Z</time>
      </trkpt>
      <trkpt lat="48.567" lon="-3.30136">
        <ele>186.9</ele>
        <time>2020-06-10T17:02:53Z</time>
      </trkpt>
      <trkpt lat="48.567" lon="-3.30129">
        <ele>186.9</ele>
        <time>2020-06-10T17:02:54Z</time>
      </trkpt>
      <trkpt lat="48.567" lon="-3.30121">
        <ele>186.8</ele>
        <time>2020-06-10T17:02:55Z</time>
      </trkpt>
      <trkpt lat="48.567" lon="-3.30113">
        <ele>186.7</ele>
        <time>2020-06-10T17:02:56Z</time>
      </trkpt>
      <trkpt lat="48.567" lon="-3.30105">
        <ele>186.7</ele>
        <time>2020-06-10T17:02:57Z</time>
      </trkpt>
      <trkpt lat="48.56699" lon="-3.30098">
        <ele>186.6</ele>
        <time>2020-06-10T17:02:58Z</time>
      </trkpt>
      <trkpt lat="48.56699" lon="-3.3009">
        <ele>186.5</ele>
        <time>2020-06-10T17:02:59Z</time>
      </trkpt>
      <trkpt lat="48.56697" lon="-3.30082">
        <ele>186.4</ele>
        <time>2020-06-10T17:03:00Z</time>
      </trkpt>
      <trkpt lat="48.56697" lon="-3.30074">
        <ele>186.3</ele>
        <time>2020-06-10T17:03:01Z</time>
      </trkpt>
      <trkpt lat="48.56697" lon="-3.30067">
        <ele>186.2</ele>
        <time>2020-06-10T17:03:02Z</time>
      </trkpt>
      <trkpt lat="48.56698" lon="-3.30059">
        <ele>186.1</ele>
        <time>2020-06-10T17:03:03Z</time>
      </trkpt>
      <trkpt lat="48.56698" lon="-3.30052">
        <ele>186</ele>
        <time>2020-06-10T17:03:04Z</time>
      </trkpt>
      <trkpt lat="48.56698" lon="-3.30044">
        <ele>185.9</ele>
        <time>2020-06-10T17:03:05Z</time>
      </trkpt>
      <trkpt lat="48.56699" lon="-3.30036">
        <ele>185.8</ele>
        <time>2020-06-10T17:03:06Z</time>
      </trkpt>
      <trkpt lat="48.56698" lon="-3.30029">
        <ele>185.7</ele>
        <time>2020-06-10T17:03:07Z</time>
      </trkpt>
      <trkpt lat="48.56698" lon="-3.30021">
        <ele>185.6</ele>
        <time>2020-06-10T17:03:08Z</time>
      </trkpt>
      <trkpt lat="48.56698" lon="-3.30013">
        <ele>185.5</ele>
        <time>2020-06-10T17:03:09Z</time>
      </trkpt>
      <trkpt lat="48.56699" lon="-3.30005">
        <ele>185.4</ele>
        <time>2020-06-10T17:03:10Z</time>
      </trkpt>
      <trkpt lat="48.567" lon="-3.29997">
        <ele>185.3</ele>
        <time>2020-06-10T17:03:11Z</time>
      </trkpt>
      <trkpt lat="48.567" lon="-3.29989">
        <ele>185.2</ele>
        <time>2020-06-10T17:03:12Z</time>
      </trkpt>
      <trkpt lat="48.567" lon="-3.29981">
        <ele>185</ele>
        <time>2020-06-10T17:03:13Z</time>
      </trkpt>
      <trkpt lat="48.567" lon="-3.29973">
        <ele>184.9</ele>
        <time>2020-06-10T17:03:14Z</time>
      </trkpt>
      <trkpt lat="48.567" lon="-3.29965">
        <ele>184.7</ele>
        <time>2020-06-10T17:03:15Z</time>
      </trkpt>
      <trkpt lat="48.567" lon="-3.29956">
        <ele>184.6</ele>
        <time>2020-06-10T17:03:16Z</time>
      </trkpt>
      <trkpt lat="48.567" lon="-3.29948">
        <ele>184.5</ele>
        <time>2020-06-10T17:03:17Z</time>
      </trkpt>
      <trkpt lat="48.56701" lon="-3.2994">
        <ele>184.3</ele>
        <time>2020-06-10T17:03:18Z</time>
      </trkpt>
      <trkpt lat="48.56701" lon="-3.29931">
        <ele>184.2</ele>
        <time>2020-06-10T17:03:19Z</time>
      </trkpt>
      <trkpt lat="48.56701" lon="-3.29922">
        <ele>184</ele>
        <time>2020-06-10T17:03:20Z</time>
      </trkpt>
      <trkpt lat="48.56701" lon="-3.29912">
        <ele>183.8</ele>
        <time>2020-06-10T17:03:21Z</time>
      </trkpt>
      <trkpt lat="48.56701" lon="-3.29903">
        <ele>183.6</ele>
        <time>2020-06-10T17:03:22Z</time>
      </trkpt>
      <trkpt lat="48.567" lon="-3.29894">
        <ele>183.4</ele>
        <time>2020-06-10T17:03:23Z</time>
      </trkpt>
      <trkpt lat="48.567" lon="-3.29884">
        <ele>183.2</ele>
        <time>2020-06-10T17:03:24Z</time>
      </trkpt>
      <trkpt lat="48.567" lon="-3.29875">
        <ele>183</ele>
        <time>2020-06-10T17:03:25Z</time>
      </trkpt>
      <trkpt lat="48.56701" lon="-3.29865">
        <ele>182.7</ele>
        <time>2020-06-10T17:03:26Z</time>
      </trkpt>
      <trkpt lat="48.56701" lon="-3.29856">
        <ele>182.5</ele>
        <time>2020-06-10T17:03:27Z</time>
      </trkpt>
      <trkpt lat="48.56702" lon="-3.29847">
        <ele>182.3</ele>
        <time>2020-06-10T17:03:28Z</time>
      </trkpt>
      <trkpt lat="48.56702" lon="-3.29837">
        <ele>182</ele>
        <time>2020-06-10T17:03:29Z</time>
      </trkpt>
      <trkpt lat="48.56703" lon="-3.29827">
        <ele>181.8</ele>
        <time>2020-06-10T17:03:30Z</time>
      </trkpt>
      <trkpt lat="48.56703" lon="-3.29817">
        <ele>181.6</ele>
        <time>2020-06-10T17:03:31Z</time>
      </trkpt>
      <trkpt lat="48.56704" lon="-3.29807">
        <ele>181.3</ele>
        <time>2020-06-10T17:03:32Z</time>
      </trkpt>
      <trkpt lat="48.56705" lon="-3.29797">
        <ele>181.1</ele>
        <time>2020-06-10T17:03:33Z</time>
      </trkpt>
      <trkpt lat="48.56705" lon="-3.29787">
        <ele>180.8</ele>
        <time>2020-06-10T17:03:34Z</time>
      </trkpt>
      <trkpt lat="48.56705" lon="-3.29776">
        <ele>180.6</ele>
        <time>2020-06-10T17:03:35Z</time>
      </trkpt>
      <trkpt lat="48.56706" lon="-3.29766">
        <ele>180.3</ele>
        <time>2020-06-10T17:03:36Z</time>
      </trkpt>
      <trkpt lat="48.56706" lon="-3.29755">
        <ele>180.1</ele>
        <time>2020-06-10T17:03:37Z</time>
      </trkpt>
      <trkpt lat="48.56706" lon="-3.29744">
        <ele>179.9</ele>
        <time>2020-06-10T17:03:38Z</time>
      </trkpt>
      <trkpt lat="48.56707" lon="-3.29733">
        <ele>179.6</ele>
        <time>2020-06-10T17:03:39Z</time>
      </trkpt>
      <trkpt lat="48.56709" lon="-3.29722">
        <ele>179.4</ele>
        <time>2020-06-10T17:03:40Z</time>
      </trkpt>
      <trkpt lat="48.5671" lon="-3.29711">
        <ele>179.2</ele>
        <time>2020-06-10T17:03:41Z</time>
      </trkpt>
      <trkpt lat="48.56711" lon="-3.29701">
        <ele>178.9</ele>
        <time>2020-06-10T17:03:42Z</time>
      </trkpt>
      <trkpt lat="48.56713" lon="-3.2969">
        <ele>178.7</ele>
        <time>2020-06-10T17:03:43Z</time>
      </trkpt>
      <trkpt lat="48.56715" lon="-3.29679">
        <ele>178.4</ele>
        <time>2020-06-10T17:03:44Z</time>
      </trkpt>
      <trkpt lat="48.56718" lon="-3.29668">
        <ele>178.2</ele>
        <time>2020-06-10T17:03:45Z</time>
      </trkpt>
      <trkpt lat="48.56721" lon="-3.29658">
        <ele>177.9</ele>
        <time>2020-06-10T17:03:46Z</time>
      </trkpt>
      <trkpt lat="48.56725" lon="-3.29648">
        <ele>177.7</ele>
        <time>2020-06-10T17:03:47Z</time>
      </trkpt>
      <trkpt lat="48.56729" lon="-3.29638">
        <ele>177.4</ele>
        <time>2020-06-10T17:03:48Z</time>
      </trkpt>
      <trkpt lat="48.56733" lon="-3.29628">
        <ele>177.2</ele>
        <time>2020-06-10T17:03:49Z</time>
      </trkpt>
      <trkpt lat="48.56737" lon="-3.29618">
        <ele>176.9</ele>
        <time>2020-06-10T17:03:50Z</time>
      </trkpt>
      <trkpt lat="48.56742" lon="-3.29608">
        <ele>176.7</ele>
        <time>2020-06-10T17:03:51Z</time>
      </trkpt>
      <trkpt lat="48.56746" lon="-3.29598">
        <ele>176.4</ele>
        <time>2020-06-10T17:03:52Z</time>
      </trkpt>
      <trkpt lat="48.5675" lon="-3.29589">
        <ele>176.1</ele>
        <time>2020-06-10T17:03:53Z</time>
      </trkpt>
      <trkpt lat="48.56754" lon="-3.29579">
        <ele>175.9</ele>
        <time>2020-06-10T17:03:54Z</time>
      </trkpt>
      <trkpt lat="48.56759" lon="-3.29569">
        <ele>175.7</ele>
        <time>2020-06-10T17:03:55Z</time>
      </trkpt>
      <trkpt lat="48.56762" lon="-3.29559">
        <ele>175.4</ele>
        <time>2020-06-10T17:03:56Z</time>
      </trkpt>
      <trkpt lat="48.56766" lon="-3.29548">
        <ele>175.1</ele>
        <time>2020-06-10T17:03:57Z</time>
      </trkpt>
      <trkpt lat="48.56769" lon="-3.29537">
        <ele>174.9</ele>
        <time>2020-06-10T17:03:58Z</time>
      </trkpt>
      <trkpt lat="48.56771" lon="-3.29526">
        <ele>174.6</ele>
        <time>2020-06-10T17:03:59Z</time>
      </trkpt>
      <trkpt lat="48.56772" lon="-3.29514">
        <ele>174.3</ele>
        <time>2020-06-10T17:04:00Z</time>
      </trkpt>
      <trkpt lat="48.56774" lon="-3.29503">
        <ele>174.1</ele>
        <time>2020-06-10T17:04:01Z</time>
      </trkpt>
      <trkpt lat="48.56774" lon="-3.29491">
        <ele>173.9</ele>
        <time>2020-06-10T17:04:02Z</time>
      </trkpt>
      <trkpt lat="48.56775" lon="-3.29479">
        <ele>173.6</ele>
        <time>2020-06-10T17:04:03Z</time>
      </trkpt>
      <trkpt lat="48.56776" lon="-3.29466">
        <ele>173.4</ele>
        <time>2020-06-10T17:04:04Z</time>
      </trkpt>
      <trkpt lat="48.56776" lon="-3.29454">
        <ele>173.1</ele>
        <time>2020-06-10T17:04:05Z</time>
      </trkpt>
      <trkpt lat="48.56777" lon="-3.29443">
        <ele>173</ele>
        <time>2020-06-10T17:04:06Z</time>
      </trkpt>
      <trkpt lat="48.56776" lon="-3.29431">
        <ele>172.8</ele>
        <time>2020-06-10T17:04:07Z</time>
      </trkpt>
      <trkpt lat="48.56777" lon="-3.29419">
        <ele>172.7</ele>
        <time>2020-06-10T17:04:08Z</time>
      </trkpt>
      <trkpt lat="48.56777" lon="-3.29407">
        <ele>172.6</ele>
        <time>2020-06-10T17:04:09Z</time>
      </trkpt>
      <trkpt lat="48.56777" lon="-3.29396">
        <ele>172.5</ele>
        <time>2020-06-10T17:04:10Z</time>
      </trkpt>
      <trkpt lat="48.56778" lon="-3.29385">
        <ele>172.5</ele>
        <time>2020-06-10T17:04:11Z</time>
      </trkpt>
      <trkpt lat="48.56778" lon="-3.29374">
        <ele>172.5</ele>
        <time>2020-06-10T17:04:12Z</time>
      </trkpt>
      <trkpt lat="48.56778" lon="-3.29363">
        <ele>172.5</ele>
        <time>2020-06-10T17:04:13Z</time>
      </trkpt>
      <trkpt lat="48.56779" lon="-3.29353">
        <ele>172.5</ele>
        <time>2020-06-10T17:04:14Z</time>
      </trkpt>
      <trkpt lat="48.56779" lon="-3.29343">
        <ele>172.5</ele>
        <time>2020-06-10T17:04:15Z</time>
      </trkpt>
      <trkpt lat="48.56779" lon="-3.29334">
        <ele>172.5</ele>
        <time>2020-06-10T17:04:16Z</time>
      </trkpt>
      <trkpt lat="48.56779" lon="-3.29325">
        <ele>172.6</ele>
        <time>2020-06-10T17:04:17Z</time>
      </trkpt>
      <trkpt lat="48.5678" lon="-3.29315">
        <ele>172.8</ele>
        <time>2020-06-10T17:04:18Z</time>
      </trkpt>
      <trkpt lat="48.5678" lon="-3.29306">
        <ele>172.7</ele>
        <time>2020-06-10T17:04:19Z</time>
      </trkpt>
      <trkpt lat="48.56781" lon="-3.29297">
        <ele>172.6</ele>
        <time>2020-06-10T17:04:20Z</time>
      </trkpt>
      <trkpt lat="48.56781" lon="-3.29289">
        <ele>172.6</ele>
        <time>2020-06-10T17:04:21Z</time>
      </trkpt>
      <trkpt lat="48.56782" lon="-3.2928">
        <ele>172.6</ele>
        <time>2020-06-10T17:04:22Z</time>
      </trkpt>
      <trkpt lat="48.56782" lon="-3.29272">
        <ele>172.6</ele>
        <time>2020-06-10T17:04:23Z</time>
      </trkpt>
      <trkpt lat="48.56783" lon="-3.29264">
        <ele>172.6</ele>
        <time>2020-06-10T17:04:24Z</time>
      </trkpt>
      <trkpt lat="48.56783" lon="-3.29256">
        <ele>172.6</ele>
        <time>2020-06-10T17:04:25Z</time>
      </trkpt>
      <trkpt lat="48.56783" lon="-3.29247">
        <ele>172.7</ele>
        <time>2020-06-10T17:04:26Z</time>
      </trkpt>
      <trkpt lat="48.56783" lon="-3.29239">
        <ele>172.7</ele>
        <time>2020-06-10T17:04:27Z</time>
      </trkpt>
      <trkpt lat="48.56783" lon="-3.29231">
        <ele>172.8</ele>
        <time>2020-06-10T17:04:28Z</time>
      </trkpt>
      <trkpt lat="48.56783" lon="-3.29224">
        <ele>172.8</ele>
        <time>2020-06-10T17:04:29Z</time>
      </trkpt>
      <trkpt lat="48.56784" lon="-3.29216">
        <ele>172.9</ele>
        <time>2020-06-10T17:04:30Z</time>
      </trkpt>
      <trkpt lat="48.56784" lon="-3.29209">
        <ele>172.9</ele>
        <time>2020-06-10T17:04:31Z</time>
      </trkpt>
      <trkpt lat="48.56784" lon="-3.29201">
        <ele>173</ele>
        <time>2020-06-10T17:04:32Z</time>
      </trkpt>
      <trkpt lat="48.56785" lon="-3.29194">
        <ele>173</ele>
        <time>2020-06-10T17:04:33Z</time>
      </trkpt>
      <trkpt lat="48.56785" lon="-3.29187">
        <ele>173</ele>
        <time>2020-06-10T17:04:34Z</time>
      </trkpt>
      <trkpt lat="48.56786" lon="-3.29179">
        <ele>173.1</ele>
        <time>2020-06-10T17:04:35Z</time>
      </trkpt>
      <trkpt lat="48.56786" lon="-3.29172">
        <ele>173.1</ele>
        <time>2020-06-10T17:04:36Z</time>
      </trkpt>
      <trkpt lat="48.56785" lon="-3.29165">
        <ele>173.1</ele>
        <time>2020-06-10T17:04:37Z</time>
      </trkpt>
      <trkpt lat="48.56786" lon="-3.29158">
        <ele>173.2</ele>
        <time>2020-06-10T17:04:38Z</time>
      </trkpt>
      <trkpt lat="48.56786" lon="-3.2915">
        <ele>173.2</ele>
        <time>2020-06-10T17:04:39Z</time>
      </trkpt>
      <trkpt lat="48.56786" lon="-3.29143">
        <ele>173.2</ele>
        <time>2020-06-10T17:04:40Z</time>
      </trkpt>
      <trkpt lat="48.56787" lon="-3.29135">
        <ele>173.2</ele>
        <time>2020-06-10T17:04:41Z</time>
      </trkpt>
      <trkpt lat="48.56788" lon="-3.29128">
        <ele>173.2</ele>
        <time>2020-06-10T17:04:42Z</time>
      </trkpt>
      <trkpt lat="48.56789" lon="-3.2912">
        <ele>173.1</ele>
        <time>2020-06-10T17:04:43Z</time>
      </trkpt>
      <trkpt lat="48.56789" lon="-3.29111">
        <ele>173.1</ele>
        <time>2020-06-10T17:04:44Z</time>
      </trkpt>
      <trkpt lat="48.56788" lon="-3.29104">
        <ele>173</ele>
        <time>2020-06-10T17:04:45Z</time>
      </trkpt>
      <trkpt lat="48.56788" lon="-3.29096">
        <ele>173</ele>
        <time>2020-06-10T17:04:46Z</time>
      </trkpt>
      <trkpt lat="48.56788" lon="-3.29089">
        <ele>172.9</ele>
        <time>2020-06-10T17:04:47Z</time>
      </trkpt>
      <trkpt lat="48.56788" lon="-3.29081">
        <ele>172.8</ele>
        <time>2020-06-10T17:04:48Z</time>
      </trkpt>
      <trkpt lat="48.56787" lon="-3.29073">
        <ele>172.8</ele>
        <time>2020-06-10T17:04:49Z</time>
      </trkpt>
      <trkpt lat="48.56787" lon="-3.29065">
        <ele>172.5</ele>
        <time>2020-06-10T17:04:50Z</time>
      </trkpt>
      <trkpt lat="48.56787" lon="-3.29057">
        <ele>172.5</ele>
        <time>2020-06-10T17:04:51Z</time>
      </trkpt>
      <trkpt lat="48.56787" lon="-3.29048">
        <ele>172.5</ele>
        <time>2020-06-10T17:04:52Z</time>
      </trkpt>
      <trkpt lat="48.56787" lon="-3.2904">
        <ele>172.4</ele>
        <time>2020-06-10T17:04:53Z</time>
      </trkpt>
      <trkpt lat="48.56788" lon="-3.29031">
        <ele>172.4</ele>
        <time>2020-06-10T17:04:54Z</time>
      </trkpt>
      <trkpt lat="48.56788" lon="-3.29023">
        <ele>172.4</ele>
        <time>2020-06-10T17:04:55Z</time>
      </trkpt>
      <trkpt lat="48.56789" lon="-3.29015">
        <ele>172.3</ele>
        <time>2020-06-10T17:04:56Z</time>
      </trkpt>
      <trkpt lat="48.5679" lon="-3.29007">
        <ele>172.1</ele>
        <time>2020-06-10T17:04:57Z</time>
      </trkpt>
      <trkpt lat="48.56791" lon="-3.28998">
        <ele>171.9</ele>
        <time>2020-06-10T17:04:58Z</time>
      </trkpt>
      <trkpt lat="48.56791" lon="-3.28989">
        <ele>171.8</ele>
        <time>2020-06-10T17:04:59Z</time>
      </trkpt>
      <trkpt lat="48.56792" lon="-3.2898">
        <ele>171.6</ele>
        <time>2020-06-10T17:05:00Z</time>
      </trkpt>
      <trkpt lat="48.56792" lon="-3.28971">
        <ele>171.4</ele>
        <time>2020-06-10T17:05:01Z</time>
      </trkpt>
      <trkpt lat="48.56792" lon="-3.28961">
        <ele>171.2</ele>
        <time>2020-06-10T17:05:02Z</time>
      </trkpt>
      <trkpt lat="48.56791" lon="-3.28952">
        <ele>171</ele>
        <time>2020-06-10T17:05:03Z</time>
      </trkpt>
      <trkpt lat="48.56791" lon="-3.28942">
        <ele>170.7</ele>
        <time>2020-06-10T17:05:04Z</time>
      </trkpt>
      <trkpt lat="48.56791" lon="-3.28933">
        <ele>170.5</ele>
        <time>2020-06-10T17:05:05Z</time>
      </trkpt>
      <trkpt lat="48.56792" lon="-3.28922">
        <ele>170.1</ele>
        <time>2020-06-10T17:05:06Z</time>
      </trkpt>
      <trkpt lat="48.56791" lon="-3.28912">
        <ele>169.8</ele>
        <time>2020-06-10T17:05:07Z</time>
      </trkpt>
      <trkpt lat="48.56792" lon="-3.289">
        <ele>169.5</ele>
        <time>2020-06-10T17:05:08Z</time>
      </trkpt>
      <trkpt lat="48.56792" lon="-3.28889">
        <ele>169.1</ele>
        <time>2020-06-10T17:05:09Z</time>
      </trkpt>
      <trkpt lat="48.56792" lon="-3.28877">
        <ele>168.7</ele>
        <time>2020-06-10T17:05:10Z</time>
      </trkpt>
      <trkpt lat="48.56793" lon="-3.28865">
        <ele>168.2</ele>
        <time>2020-06-10T17:05:11Z</time>
      </trkpt>
      <trkpt lat="48.56793" lon="-3.28853">
        <ele>167.8</ele>
        <time>2020-06-10T17:05:12Z</time>
      </trkpt>
      <trkpt lat="48.56794" lon="-3.28841">
        <ele>167.3</ele>
        <time>2020-06-10T17:05:13Z</time>
      </trkpt>
      <trkpt lat="48.56794" lon="-3.28828">
        <ele>166.9</ele>
        <time>2020-06-10T17:05:14Z</time>
      </trkpt>
      <trkpt lat="48.56795" lon="-3.28815">
        <ele>166.4</ele>
        <time>2020-06-10T17:05:15Z</time>
      </trkpt>
      <trkpt lat="48.56795" lon="-3.28802">
        <ele>165.9</ele>
        <time>2020-06-10T17:05:16Z</time>
      </trkpt>
      <trkpt lat="48.56796" lon="-3.28789">
        <ele>165.4</ele>
        <time>2020-06-10T17:05:17Z</time>
      </trkpt>
      <trkpt lat="48.56797" lon="-3.28776">
        <ele>164.9</ele>
        <time>2020-06-10T17:05:18Z</time>
      </trkpt>
      <trkpt lat="48.56797" lon="-3.28762">
        <ele>164.4</ele>
        <time>2020-06-10T17:05:19Z</time>
      </trkpt>
      <trkpt lat="48.56797" lon="-3.28749">
        <ele>163.9</ele>
        <time>2020-06-10T17:05:20Z</time>
      </trkpt>
      <trkpt lat="48.56796" lon="-3.28736">
        <ele>163.4</ele>
        <time>2020-06-10T17:05:21Z</time>
      </trkpt>
      <trkpt lat="48.56798" lon="-3.28722">
        <ele>162.9</ele>
        <time>2020-06-10T17:05:22Z</time>
      </trkpt>
      <trkpt lat="48.56799" lon="-3.28708">
        <ele>162.4</ele>
        <time>2020-06-10T17:05:23Z</time>
      </trkpt>
      <trkpt lat="48.568" lon="-3.28694">
        <ele>161.8</ele>
        <time>2020-06-10T17:05:24Z</time>
      </trkpt>
      <trkpt lat="48.56801" lon="-3.28679">
        <ele>161.1</ele>
        <time>2020-06-10T17:05:25Z</time>
      </trkpt>
      <trkpt lat="48.56802" lon="-3.28664">
        <ele>160.5</ele>
        <time>2020-06-10T17:05:26Z</time>
      </trkpt>
      <trkpt lat="48.56802" lon="-3.28649">
        <ele>159.9</ele>
        <time>2020-06-10T17:05:27Z</time>
      </trkpt>
      <trkpt lat="48.56802" lon="-3.28634">
        <ele>159.4</ele>
        <time>2020-06-10T17:05:28Z</time>
      </trkpt>
      <trkpt lat="48.56802" lon="-3.28619">
        <ele>158.9</ele>
        <time>2020-06-10T17:05:29Z</time>
      </trkpt>
      <trkpt lat="48.56802" lon="-3.28604">
        <ele>158.2</ele>
        <time>2020-06-10T17:05:30Z</time>
      </trkpt>
      <trkpt lat="48.56802" lon="-3.28588">
        <ele>157.5</ele>
        <time>2020-06-10T17:05:31Z</time>
      </trkpt>
      <trkpt lat="48.56803" lon="-3.28572">
        <ele>156.8</ele>
        <time>2020-06-10T17:05:32Z</time>
      </trkpt>
      <trkpt lat="48.56803" lon="-3.28556">
        <ele>156.2</ele>
        <time>2020-06-10T17:05:33Z</time>
      </trkpt>
      <trkpt lat="48.56804" lon="-3.28541">
        <ele>155.6</ele>
        <time>2020-06-10T17:05:34Z</time>
      </trkpt>
      <trkpt lat="48.56804" lon="-3.28525">
        <ele>155.1</ele>
        <time>2020-06-10T17:05:35Z</time>
      </trkpt>
      <trkpt lat="48.56804" lon="-3.28509">
        <ele>154.7</ele>
        <time>2020-06-10T17:05:36Z</time>
      </trkpt>
      <trkpt lat="48.56805" lon="-3.28494">
        <ele>154.3</ele>
        <time>2020-06-10T17:05:37Z</time>
      </trkpt>
      <trkpt lat="48.56804" lon="-3.28478">
        <ele>154</ele>
        <time>2020-06-10T17:05:38Z</time>
      </trkpt>
      <trkpt lat="48.56805" lon="-3.28464">
        <ele>153.7</ele>
        <time>2020-06-10T17:05:39Z</time>
      </trkpt>
      <trkpt lat="48.56805" lon="-3.28449">
        <ele>153.6</ele>
        <time>2020-06-10T17:05:40Z</time>
      </trkpt>
      <trkpt lat="48.56806" lon="-3.28435">
        <ele>153.5</ele>
        <time>2020-06-10T17:05:41Z</time>
      </trkpt>
      <trkpt lat="48.56806" lon="-3.28422">
        <ele>153.4</ele>
        <time>2020-06-10T17:05:42Z</time>
      </trkpt>
      <trkpt lat="48.56806" lon="-3.28409">
        <ele>153.4</ele>
        <time>2020-06-10T17:05:43Z</time>
      </trkpt>
      <trkpt lat="48.56805" lon="-3.28396">
        <ele>153.4</ele>
        <time>2020-06-10T17:05:44Z</time>
      </trkpt>
      <trkpt lat="48.56805" lon="-3.28384">
        <ele>153.3</ele>
        <time>2020-06-10T17:05:45Z</time>
      </trkpt>
      <trkpt lat="48.56806" lon="-3.28373">
        <ele>153.4</ele>
        <time>2020-06-10T17:05:46Z</time>
      </trkpt>
      <trkpt lat="48.56807" lon="-3.28363">
        <ele>153.5</ele>
        <time>2020-06-10T17:05:47Z</time>
      </trkpt>
      <trkpt lat="48.56808" lon="-3.28353">
        <ele>153.7</ele>
        <time>2020-06-10T17:05:48Z</time>
      </trkpt>
      <trkpt lat="48.56807" lon="-3.28344">
        <ele>153.8</ele>
        <time>2020-06-10T17:05:49Z</time>
      </trkpt>
      <trkpt lat="48.56807" lon="-3.28334">
        <ele>154</ele>
        <time>2020-06-10T17:05:50Z</time>
      </trkpt>
      <trkpt lat="48.56807" lon="-3.28326">
        <ele>154.3</ele>
        <time>2020-06-10T17:05:51Z</time>
      </trkpt>
      <trkpt lat="48.56807" lon="-3.28316">
        <ele>154.6</ele>
        <time>2020-06-10T17:05:52Z</time>
      </trkpt>
      <trkpt lat="48.56806" lon="-3.28308">
        <ele>154.9</ele>
        <time>2020-06-10T17:05:53Z</time>
      </trkpt>
      <trkpt lat="48.56807" lon="-3.283">
        <ele>155.3</ele>
        <time>2020-06-10T17:05:54Z</time>
      </trkpt>
      <trkpt lat="48.56808" lon="-3.28293">
        <ele>155.6</ele>
        <time>2020-06-10T17:05:55Z</time>
      </trkpt>
      <trkpt lat="48.56808" lon="-3.28286">
        <ele>155.8</ele>
        <time>2020-06-10T17:05:56Z</time>
      </trkpt>
      <trkpt lat="48.56809" lon="-3.28279">
        <ele>156.1</ele>
        <time>2020-06-10T17:05:57Z</time>
      </trkpt>
      <trkpt lat="48.5681" lon="-3.28273">
        <ele>156.3</ele>
        <time>2020-06-10T17:05:58Z</time>
      </trkpt>
      <trkpt lat="48.5681" lon="-3.28266">
        <ele>156.6</ele>
        <time>2020-06-10T17:05:59Z</time>
      </trkpt>
      <trkpt lat="48.56811" lon="-3.2826">
        <ele>156.8</ele>
        <time>2020-06-10T17:06:00Z</time>
      </trkpt>
      <trkpt lat="48.5681" lon="-3.28254">
        <ele>157</ele>
        <time>2020-06-10T17:06:01Z</time>
      </trkpt>
      <trkpt lat="48.5681" lon="-3.28248">
        <ele>157.2</ele>
        <time>2020-06-10T17:06:02Z</time>
      </trkpt>
      <trkpt lat="48.56809" lon="-3.28242">
        <ele>157.4</ele>
        <time>2020-06-10T17:06:03Z</time>
      </trkpt>
      <trkpt lat="48.56809" lon="-3.28236">
        <ele>157.6</ele>
        <time>2020-06-10T17:06:04Z</time>
      </trkpt>
      <trkpt lat="48.5681" lon="-3.2823">
        <ele>157.9</ele>
        <time>2020-06-10T17:06:05Z</time>
      </trkpt>
      <trkpt lat="48.5681" lon="-3.28224">
        <ele>158.1</ele>
        <time>2020-06-10T17:06:06Z</time>
      </trkpt>
      <trkpt lat="48.5681" lon="-3.28218">
        <ele>158.3</ele>
        <time>2020-06-10T17:06:07Z</time>
      </trkpt>
      <trkpt lat="48.5681" lon="-3.28213">
        <ele>158.5</ele>
        <time>2020-06-10T17:06:08Z</time>
      </trkpt>
      <trkpt lat="48.5681" lon="-3.28207">
        <ele>158.8</ele>
        <time>2020-06-10T17:06:09Z</time>
      </trkpt>
      <trkpt lat="48.5681" lon="-3.28202">
        <ele>159</ele>
        <time>2020-06-10T17:06:10Z</time>
      </trkpt>
      <trkpt lat="48.5681" lon="-3.28196">
        <ele>159.2</ele>
        <time>2020-06-10T17:06:11Z</time>
      </trkpt>
      <trkpt lat="48.56811" lon="-3.28191">
        <ele>159.4</ele>
        <time>2020-06-10T17:06:12Z</time>
      </trkpt>
      <trkpt lat="48.56812" lon="-3.28185">
        <ele>159.7</ele>
        <time>2020-06-10T17:06:13Z</time>
      </trkpt>
      <trkpt lat="48.56812" lon="-3.28179">
        <ele>159.9</ele>
        <time>2020-06-10T17:06:14Z</time>
      </trkpt>
      <trkpt lat="48.56812" lon="-3.28173">
        <ele>160.1</ele>
        <time>2020-06-10T17:06:15Z</time>
      </trkpt>
      <trkpt lat="48.56812" lon="-3.28168">
        <ele>160.3</ele>
        <time>2020-06-10T17:06:16Z</time>
      </trkpt>
      <trkpt lat="48.56812" lon="-3.28162">
        <ele>160.6</ele>
        <time>2020-06-10T17:06:17Z</time>
      </trkpt>
      <trkpt lat="48.56812" lon="-3.28156">
        <ele>160.8</ele>
        <time>2020-06-10T17:06:18Z</time>
      </trkpt>
      <trkpt lat="48.56811" lon="-3.2815">
        <ele>161.1</ele>
        <time>2020-06-10T17:06:19Z</time>
      </trkpt>
      <trkpt lat="48.56811" lon="-3.28144">
        <ele>161.3</ele>
        <time>2020-06-10T17:06:20Z</time>
      </trkpt>
      <trkpt lat="48.56811" lon="-3.28138">
        <ele>161.6</ele>
        <time>2020-06-10T17:06:21Z</time>
      </trkpt>
      <trkpt lat="48.56811" lon="-3.28132">
        <ele>161.8</ele>
        <time>2020-06-10T17:06:22Z</time>
      </trkpt>
      <trkpt lat="48.5681" lon="-3.28127">
        <ele>162</ele>
        <time>2020-06-10T17:06:23Z</time>
      </trkpt>
      <trkpt lat="48.5681" lon="-3.28122">
        <ele>162.3</ele>
        <time>2020-06-10T17:06:24Z</time>
      </trkpt>
      <trkpt lat="48.56811" lon="-3.28116">
        <ele>162.5</ele>
        <time>2020-06-10T17:06:25Z</time>
      </trkpt>
      <trkpt lat="48.56812" lon="-3.28111">
        <ele>162.7</ele>
        <time>2020-06-10T17:06:26Z</time>
      </trkpt>
      <trkpt lat="48.56812" lon="-3.28106">
        <ele>162.9</ele>
        <time>2020-06-10T17:06:27Z</time>
      </trkpt>
      <trkpt lat="48.56813" lon="-3.28101">
        <ele>163.1</ele>
        <time>2020-06-10T17:06:28Z</time>
      </trkpt>
      <trkpt lat="48.56813" lon="-3.28096">
        <ele>163.4</ele>
        <time>2020-06-10T17:06:29Z</time>
      </trkpt>
      <trkpt lat="48.56814" lon="-3.28091">
        <ele>163.6</ele>
        <time>2020-06-10T17:06:30Z</time>
      </trkpt>
      <trkpt lat="48.56814" lon="-3.28087">
        <ele>163.8</ele>
        <time>2020-06-10T17:06:31Z</time>
      </trkpt>
      <trkpt lat="48.56814" lon="-3.28081">
        <ele>164</ele>
        <time>2020-06-10T17:06:32Z</time>
      </trkpt>
      <trkpt lat="48.56814" lon="-3.28075">
        <ele>164.3</ele>
        <time>2020-06-10T17:06:33Z</time>
      </trkpt>
      <trkpt lat="48.56814" lon="-3.28069">
        <ele>164.5</ele>
        <time>2020-06-10T17:06:34Z</time>
      </trkpt>
      <trkpt lat="48.56814" lon="-3.28063">
        <ele>164.8</ele>
        <time>2020-06-10T17:06:35Z</time>
      </trkpt>
      <trkpt lat="48.56815" lon="-3.28059">
        <ele>165</ele>
        <time>2020-06-10T17:06:36Z</time>
      </trkpt>
      <trkpt lat="48.56815" lon="-3.28053">
        <ele>165.3</ele>
        <time>2020-06-10T17:06:37Z</time>
      </trkpt>
      <trkpt lat="48.56815" lon="-3.2805">
        <ele>165.4</ele>
        <time>2020-06-10T17:06:38Z</time>
      </trkpt>
      <trkpt lat="48.56817" lon="-3.28045">
        <ele>165.6</ele>
        <time>2020-06-10T17:06:39Z</time>
      </trkpt>
      <trkpt lat="48.56818" lon="-3.2804">
        <ele>165.8</ele>
        <time>2020-06-10T17:06:40Z</time>
      </trkpt>
      <trkpt lat="48.56819" lon="-3.28034">
        <ele>166.1</ele>
        <time>2020-06-10T17:06:41Z</time>
      </trkpt>
      <trkpt lat="48.56819" lon="-3.28028">
        <ele>166.3</ele>
        <time>2020-06-10T17:06:42Z</time>
      </trkpt>
      <trkpt lat="48.56819" lon="-3.28023">
        <ele>166.6</ele>
        <time>2020-06-10T17:06:43Z</time>
      </trkpt>
      <trkpt lat="48.56819" lon="-3.28018">
        <ele>166.8</ele>
        <time>2020-06-10T17:06:44Z</time>
      </trkpt>
      <trkpt lat="48.5682" lon="-3.28011">
        <ele>167.1</ele>
        <time>2020-06-10T17:06:45Z</time>
      </trkpt>
      <trkpt lat="48.5682" lon="-3.28005">
        <ele>167.3</ele>
        <time>2020-06-10T17:06:46Z</time>
      </trkpt>
      <trkpt lat="48.5682" lon="-3.27998">
        <ele>167.6</ele>
        <time>2020-06-10T17:06:47Z</time>
      </trkpt>
      <trkpt lat="48.5682" lon="-3.27993">
        <ele>167.8</ele>
        <time>2020-06-10T17:06:48Z</time>
      </trkpt>
      <trkpt lat="48.5682" lon="-3.27989">
        <ele>168</ele>
        <time>2020-06-10T17:06:49Z</time>
      </trkpt>
      <trkpt lat="48.56819" lon="-3.27983">
        <ele>168.2</ele>
        <time>2020-06-10T17:06:50Z</time>
      </trkpt>
      <trkpt lat="48.56819" lon="-3.27981">
        <ele>168.3</ele>
        <time>2020-06-10T17:06:51Z</time>
      </trkpt>
      <trkpt lat="48.56819" lon="-3.27975">
        <ele>168.5</ele>
        <time>2020-06-10T17:06:52Z</time>
      </trkpt>
      <trkpt lat="48.56819" lon="-3.27972">
        <ele>168.6</ele>
        <time>2020-06-10T17:06:53Z</time>
      </trkpt>
      <trkpt lat="48.56819" lon="-3.27971">
        <ele>168.7</ele>
        <time>2020-06-10T17:06:54Z</time>
      </trkpt>
      <trkpt lat="48.56818" lon="-3.27966">
        <ele>168.9</ele>
        <time>2020-06-10T17:06:55Z</time>
      </trkpt>
      <trkpt lat="48.56818" lon="-3.27958">
        <ele>169.2</ele>
        <time>2020-06-10T17:06:56Z</time>
      </trkpt>
      <trkpt lat="48.56819" lon="-3.27952">
        <ele>169.4</ele>
        <time>2020-06-10T17:06:57Z</time>
      </trkpt>
      <trkpt lat="48.56819" lon="-3.27947">
        <ele>169.6</ele>
        <time>2020-06-10T17:06:58Z</time>
      </trkpt>
      <trkpt lat="48.56819" lon="-3.27943">
        <ele>169.8</ele>
        <time>2020-06-10T17:06:59Z</time>
      </trkpt>
      <trkpt lat="48.56818" lon="-3.27937">
        <ele>170</ele>
        <time>2020-06-10T17:07:00Z</time>
      </trkpt>
      <trkpt lat="48.56818" lon="-3.2793">
        <ele>170.3</ele>
        <time>2020-06-10T17:07:01Z</time>
      </trkpt>
      <trkpt lat="48.56818" lon="-3.27927">
        <ele>170.4</ele>
        <time>2020-06-10T17:07:02Z</time>
      </trkpt>
      <trkpt lat="48.56819" lon="-3.27922">
        <ele>170.6</ele>
        <time>2020-06-10T17:07:03Z</time>
      </trkpt>
      <trkpt lat="48.5682" lon="-3.27917">
        <ele>170.8</ele>
        <time>2020-06-10T17:07:04Z</time>
      </trkpt>
      <trkpt lat="48.5682" lon="-3.27914">
        <ele>171</ele>
        <time>2020-06-10T17:07:05Z</time>
      </trkpt>
      <trkpt lat="48.56821" lon="-3.2791">
        <ele>171.2</ele>
        <time>2020-06-10T17:07:06Z</time>
      </trkpt>
      <trkpt lat="48.56821" lon="-3.27906">
        <ele>171.3</ele>
        <time>2020-06-10T17:07:07Z</time>
      </trkpt>
      <trkpt lat="48.56821" lon="-3.27899">
        <ele>171.6</ele>
        <time>2020-06-10T17:07:08Z</time>
      </trkpt>
      <trkpt lat="48.5682" lon="-3.27895">
        <ele>171.8</ele>
        <time>2020-06-10T17:07:09Z</time>
      </trkpt>
      <trkpt lat="48.56821" lon="-3.27889">
        <ele>172</ele>
        <time>2020-06-10T17:07:10Z</time>
      </trkpt>
      <trkpt lat="48.56821" lon="-3.27884">
        <ele>172.2</ele>
        <time>2020-06-10T17:07:11Z</time>
      </trkpt>
      <trkpt lat="48.56821" lon="-3.27879">
        <ele>172.4</ele>
        <time>2020-06-10T17:07:12Z</time>
      </trkpt>
      <trkpt lat="48.56821" lon="-3.27873">
        <ele>172.7</ele>
        <time>2020-06-10T17:07:13Z</time>
      </trkpt>
      <trkpt lat="48.56822" lon="-3.27867">
        <ele>172.9</ele>
        <time>2020-06-10T17:07:14Z</time>
      </trkpt>
      <trkpt lat="48.56822" lon="-3.27864">
        <ele>173</ele>
        <time>2020-06-10T17:07:15Z</time>
      </trkpt>
      <trkpt lat="48.56822" lon="-3.27858">
        <ele>173.3</ele>
        <time>2020-06-10T17:07:16Z</time>
      </trkpt>
      <trkpt lat="48.56822" lon="-3.27853">
        <ele>173.5</ele>
        <time>2020-06-10T17:07:17Z</time>
      </trkpt>
      <trkpt lat="48.56822" lon="-3.27848">
        <ele>173.7</ele>
        <time>2020-06-10T17:07:18Z</time>
      </trkpt>
      <trkpt lat="48.56821" lon="-3.27843">
        <ele>173.9</ele>
        <time>2020-06-10T17:07:19Z</time>
      </trkpt>
      <trkpt lat="48.56821" lon="-3.27838">
        <ele>174.1</ele>
        <time>2020-06-10T17:07:20Z</time>
      </trkpt>
      <trkpt lat="48.56821" lon="-3.27832">
        <ele>174.3</ele>
        <time>2020-06-10T17:07:21Z</time>
      </trkpt>
      <trkpt lat="48.56821" lon="-3.27826">
        <ele>174.5</ele>
        <time>2020-06-10T17:07:22Z</time>
      </trkpt>
      <trkpt lat="48.56821" lon="-3.27824">
        <ele>174.6</ele>
        <time>2020-06-10T17:07:23Z</time>
      </trkpt>
      <trkpt lat="48.56821" lon="-3.27818">
        <ele>174.8</ele>
        <time>2020-06-10T17:07:24Z</time>
      </trkpt>
      <trkpt lat="48.56821" lon="-3.27815">
        <ele>174.9</ele>
        <time>2020-06-10T17:07:25Z</time>
      </trkpt>
      <trkpt lat="48.56821" lon="-3.27811">
        <ele>175.1</ele>
        <time>2020-06-10T17:07:26Z</time>
      </trkpt>
      <trkpt lat="48.56822" lon="-3.27807">
        <ele>175.3</ele>
        <time>2020-06-10T17:07:27Z</time>
      </trkpt>
      <trkpt lat="48.56823" lon="-3.27801">
        <ele>175.6</ele>
        <time>2020-06-10T17:07:28Z</time>
      </trkpt>
      <trkpt lat="48.56824" lon="-3.27796">
        <ele>175.7</ele>
        <time>2020-06-10T17:07:29Z</time>
      </trkpt>
      <trkpt lat="48.56824" lon="-3.2779">
        <ele>176</ele>
        <time>2020-06-10T17:07:30Z</time>
      </trkpt>
      <trkpt lat="48.56824" lon="-3.27785">
        <ele>176.2</ele>
        <time>2020-06-10T17:07:31Z</time>
      </trkpt>
      <trkpt lat="48.56825" lon="-3.27781">
        <ele>176.4</ele>
        <time>2020-06-10T17:07:32Z</time>
      </trkpt>
      <trkpt lat="48.56826" lon="-3.27775">
        <ele>176.6</ele>
        <time>2020-06-10T17:07:33Z</time>
      </trkpt>
      <trkpt lat="48.56826" lon="-3.27773">
        <ele>176.7</ele>
        <time>2020-06-10T17:07:34Z</time>
      </trkpt>
      <trkpt lat="48.56827" lon="-3.27768">
        <ele>177</ele>
        <time>2020-06-10T17:07:35Z</time>
      </trkpt>
      <trkpt lat="48.56827" lon="-3.27763">
        <ele>177.2</ele>
        <time>2020-06-10T17:07:36Z</time>
      </trkpt>
      <trkpt lat="48.56828" lon="-3.27758">
        <ele>177.4</ele>
        <time>2020-06-10T17:07:37Z</time>
      </trkpt>
      <trkpt lat="48.56828" lon="-3.27753">
        <ele>177.6</ele>
        <time>2020-06-10T17:07:38Z</time>
      </trkpt>
      <trkpt lat="48.56827" lon="-3.27748">
        <ele>177.8</ele>
        <time>2020-06-10T17:07:39Z</time>
      </trkpt>
      <trkpt lat="48.56826" lon="-3.27743">
        <ele>178</ele>
        <time>2020-06-10T17:07:40Z</time>
      </trkpt>
      <trkpt lat="48.56825" lon="-3.27738">
        <ele>178.2</ele>
        <time>2020-06-10T17:07:41Z</time>
      </trkpt>
      <trkpt lat="48.56825" lon="-3.27736">
        <ele>178.3</ele>
        <time>2020-06-10T17:07:42Z</time>
      </trkpt>
      <trkpt lat="48.56826" lon="-3.27732">
        <ele>178.4</ele>
        <time>2020-06-10T17:07:43Z</time>
      </trkpt>
      <trkpt lat="48.56827" lon="-3.2773">
        <ele>178.5</ele>
        <time>2020-06-10T17:07:44Z</time>
      </trkpt>
      <trkpt lat="48.56828" lon="-3.27726">
        <ele>178.6</ele>
        <time>2020-06-10T17:07:45Z</time>
      </trkpt>
      <trkpt lat="48.56828" lon="-3.27719">
        <ele>178.9</ele>
        <time>2020-06-10T17:07:46Z</time>
      </trkpt>
      <trkpt lat="48.56828" lon="-3.27712">
        <ele>179.1</ele>
        <time>2020-06-10T17:07:47Z</time>
      </trkpt>
      <trkpt lat="48.56828" lon="-3.27707">
        <ele>179.3</ele>
        <time>2020-06-10T17:07:48Z</time>
      </trkpt>
      <trkpt lat="48.56829" lon="-3.27702">
        <ele>179.5</ele>
        <time>2020-06-10T17:07:49Z</time>
      </trkpt>
      <trkpt lat="48.56829" lon="-3.27698">
        <ele>179.6</ele>
        <time>2020-06-10T17:07:50Z</time>
      </trkpt>
      <trkpt lat="48.5683" lon="-3.27693">
        <ele>179.8</ele>
        <time>2020-06-10T17:07:51Z</time>
      </trkpt>
      <trkpt lat="48.5683" lon="-3.27688">
        <ele>179.9</ele>
        <time>2020-06-10T17:07:52Z</time>
      </trkpt>
      <trkpt lat="48.5683" lon="-3.27685">
        <ele>180</ele>
        <time>2020-06-10T17:07:53Z</time>
      </trkpt>
      <trkpt lat="48.5683" lon="-3.27679">
        <ele>180.1</ele>
        <time>2020-06-10T17:07:54Z</time>
      </trkpt>
      <trkpt lat="48.56829" lon="-3.27674">
        <ele>180.3</ele>
        <time>2020-06-10T17:07:55Z</time>
      </trkpt>
      <trkpt lat="48.56829" lon="-3.27672">
        <ele>180.4</ele>
        <time>2020-06-10T17:07:56Z</time>
      </trkpt>
      <trkpt lat="48.5683" lon="-3.27665">
        <ele>180.5</ele>
        <time>2020-06-10T17:07:57Z</time>
      </trkpt>
      <trkpt lat="48.5683" lon="-3.27662">
        <ele>180.6</ele>
        <time>2020-06-10T17:07:58Z</time>
      </trkpt>
      <trkpt lat="48.56831" lon="-3.27658">
        <ele>180.7</ele>
        <time>2020-06-10T17:07:59Z</time>
      </trkpt>
      <trkpt lat="48.56831" lon="-3.27651">
        <ele>180.9</ele>
        <time>2020-06-10T17:08:00Z</time>
      </trkpt>
      <trkpt lat="48.5683" lon="-3.27646">
        <ele>181</ele>
        <time>2020-06-10T17:08:01Z</time>
      </trkpt>
      <trkpt lat="48.56829" lon="-3.27645">
        <ele>181.1</ele>
        <time>2020-06-10T17:08:02Z</time>
      </trkpt>
      <trkpt lat="48.5683" lon="-3.27638">
        <ele>181.2</ele>
        <time>2020-06-10T17:08:03Z</time>
      </trkpt>
      <trkpt lat="48.5683" lon="-3.27633">
        <ele>181.4</ele>
        <time>2020-06-10T17:08:04Z</time>
      </trkpt>
      <trkpt lat="48.56829" lon="-3.27625">
        <ele>181.6</ele>
        <time>2020-06-10T17:08:05Z</time>
      </trkpt>
      <trkpt lat="48.56829" lon="-3.27621">
        <ele>181.7</ele>
        <time>2020-06-10T17:08:06Z</time>
      </trkpt>
      <trkpt lat="48.56829" lon="-3.27617">
        <ele>181.8</ele>
        <time>2020-06-10T17:08:07Z</time>
      </trkpt>
      <trkpt lat="48.56827" lon="-3.27616">
        <ele>181.8</ele>
        <time>2020-06-10T17:08:08Z</time>
      </trkpt>
      <trkpt lat="48.56827" lon="-3.27612">
        <ele>181.9</ele>
        <time>2020-06-10T17:08:09Z</time>
      </trkpt>
      <trkpt lat="48.56827" lon="-3.27606">
        <ele>182</ele>
        <time>2020-06-10T17:08:10Z</time>
      </trkpt>
      <trkpt lat="48.56827" lon="-3.27601">
        <ele>182.1</ele>
        <time>2020-06-10T17:08:11Z</time>
      </trkpt>
      <trkpt lat="48.56827" lon="-3.27596">
        <ele>182.2</ele>
        <time>2020-06-10T17:08:12Z</time>
      </trkpt>
      <trkpt lat="48.56827" lon="-3.2759">
        <ele>182.3</ele>
        <time>2020-06-10T17:08:13Z</time>
      </trkpt>
      <trkpt lat="48.56827" lon="-3.27583">
        <ele>182.4</ele>
        <time>2020-06-10T17:08:14Z</time>
      </trkpt>
      <trkpt lat="48.56827" lon="-3.27578">
        <ele>182.5</ele>
        <time>2020-06-10T17:08:15Z</time>
      </trkpt>
      <trkpt lat="48.56828" lon="-3.27571">
        <ele>182.6</ele>
        <time>2020-06-10T17:08:16Z</time>
      </trkpt>
      <trkpt lat="48.56828" lon="-3.27567">
        <ele>182.6</ele>
        <time>2020-06-10T17:08:17Z</time>
      </trkpt>
      <trkpt lat="48.56828" lon="-3.27562">
        <ele>182.7</ele>
        <time>2020-06-10T17:08:18Z</time>
      </trkpt>
      <trkpt lat="48.56829" lon="-3.27558">
        <ele>182.7</ele>
        <time>2020-06-10T17:08:19Z</time>
      </trkpt>
      <trkpt lat="48.56827" lon="-3.27553">
        <ele>182.8</ele>
        <time>2020-06-10T17:08:20Z</time>
      </trkpt>
      <trkpt lat="48.56827" lon="-3.27548">
        <ele>182.8</ele>
        <time>2020-06-10T17:08:21Z</time>
      </trkpt>
      <trkpt lat="48.56827" lon="-3.2754">
        <ele>182.9</ele>
        <time>2020-06-10T17:08:22Z</time>
      </trkpt>
      <trkpt lat="48.56827" lon="-3.27535">
        <ele>182.9</ele>
        <time>2020-06-10T17:08:23Z</time>
      </trkpt>
      <trkpt lat="48.56826" lon="-3.2753">
        <ele>182.9</ele>
        <time>2020-06-10T17:08:24Z</time>
      </trkpt>
      <trkpt lat="48.56827" lon="-3.27524">
        <ele>183</ele>
        <time>2020-06-10T17:08:25Z</time>
      </trkpt>
      <trkpt lat="48.56828" lon="-3.2752">
        <ele>183</ele>
        <time>2020-06-10T17:08:26Z</time>
      </trkpt>
      <trkpt lat="48.56829" lon="-3.27513">
        <ele>183</ele>
        <time>2020-06-10T17:08:27Z</time>
      </trkpt>
      <trkpt lat="48.56828" lon="-3.27505">
        <ele>183.1</ele>
        <time>2020-06-10T17:08:28Z</time>
      </trkpt>
      <trkpt lat="48.56828" lon="-3.27499">
        <ele>183.1</ele>
        <time>2020-06-10T17:08:29Z</time>
      </trkpt>
      <trkpt lat="48.56829" lon="-3.27493">
        <ele>183.1</ele>
        <time>2020-06-10T17:08:30Z</time>
      </trkpt>
      <trkpt lat="48.56829" lon="-3.27487">
        <ele>183.2</ele>
        <time>2020-06-10T17:08:31Z</time>
      </trkpt>
      <trkpt lat="48.56831" lon="-3.2748">
        <ele>183.2</ele>
        <time>2020-06-10T17:08:32Z</time>
      </trkpt>
      <trkpt lat="48.56831" lon="-3.27474">
        <ele>183.2</ele>
        <time>2020-06-10T17:08:33Z</time>
      </trkpt>
      <trkpt lat="48.56831" lon="-3.27468">
        <ele>183.2</ele>
        <time>2020-06-10T17:08:34Z</time>
      </trkpt>
      <trkpt lat="48.56831" lon="-3.27461">
        <ele>183.3</ele>
        <time>2020-06-10T17:08:35Z</time>
      </trkpt>
      <trkpt lat="48.56831" lon="-3.27455">
        <ele>183.3</ele>
        <time>2020-06-10T17:08:36Z</time>
      </trkpt>
      <trkpt lat="48.56831" lon="-3.27449">
        <ele>183.3</ele>
        <time>2020-06-10T17:08:37Z</time>
      </trkpt>
      <trkpt lat="48.56832" lon="-3.27444">
        <ele>183.3</ele>
        <time>2020-06-10T17:08:38Z</time>
      </trkpt>
      <trkpt lat="48.56832" lon="-3.2744">
        <ele>183.3</ele>
        <time>2020-06-10T17:08:39Z</time>
      </trkpt>
      <trkpt lat="48.56833" lon="-3.27435">
        <ele>183.3</ele>
        <time>2020-06-10T17:08:40Z</time>
      </trkpt>
      <trkpt lat="48.56833" lon="-3.27429">
        <ele>183.3</ele>
        <time>2020-06-10T17:08:41Z</time>
      </trkpt>
      <trkpt lat="48.56834" lon="-3.27422">
        <ele>183.3</ele>
        <time>2020-06-10T17:08:42Z</time>
      </trkpt>
      <trkpt lat="48.56833" lon="-3.27417">
        <ele>183.2</ele>
        <time>2020-06-10T17:08:43Z</time>
      </trkpt>
      <trkpt lat="48.56833" lon="-3.27412">
        <ele>183.2</ele>
        <time>2020-06-10T17:08:44Z</time>
      </trkpt>
      <trkpt lat="48.56833" lon="-3.27408">
        <ele>183.2</ele>
        <time>2020-06-10T17:08:45Z</time>
      </trkpt>
      <trkpt lat="48.56833" lon="-3.27402">
        <ele>183.2</ele>
        <time>2020-06-10T17:08:46Z</time>
      </trkpt>
      <trkpt lat="48.56832" lon="-3.27397">
        <ele>183.2</ele>
        <time>2020-06-10T17:08:47Z</time>
      </trkpt>
      <trkpt lat="48.56832" lon="-3.2739">
        <ele>183.2</ele>
        <time>2020-06-10T17:08:48Z</time>
      </trkpt>
      <trkpt lat="48.56832" lon="-3.27388">
        <ele>183.2</ele>
        <time>2020-06-10T17:08:49Z</time>
      </trkpt>
      <trkpt lat="48.56832" lon="-3.27384">
        <ele>183.1</ele>
        <time>2020-06-10T17:08:50Z</time>
      </trkpt>
      <trkpt lat="48.56831" lon="-3.27379">
        <ele>183.1</ele>
        <time>2020-06-10T17:08:51Z</time>
      </trkpt>
      <trkpt lat="48.56831" lon="-3.27378">
        <ele>183.1</ele>
        <time>2020-06-10T17:08:52Z</time>
      </trkpt>
      <trkpt lat="48.56833" lon="-3.27372">
        <ele>183.1</ele>
        <time>2020-06-10T17:08:53Z</time>
      </trkpt>
      <trkpt lat="48.56833" lon="-3.27367">
        <ele>183</ele>
        <time>2020-06-10T17:08:54Z</time>
      </trkpt>
      <trkpt lat="48.56833" lon="-3.27365">
        <ele>183</ele>
        <time>2020-06-10T17:08:55Z</time>
      </trkpt>
      <trkpt lat="48.56833" lon="-3.2736">
        <ele>183</ele>
        <time>2020-06-10T17:08:56Z</time>
      </trkpt>
      <trkpt lat="48.56833" lon="-3.27358">
        <ele>183</ele>
        <time>2020-06-10T17:08:57Z</time>
      </trkpt>
      <trkpt lat="48.56833" lon="-3.27353">
        <ele>183</ele>
        <time>2020-06-10T17:08:58Z</time>
      </trkpt>
      <trkpt lat="48.56833" lon="-3.27349">
        <ele>183</ele>
        <time>2020-06-10T17:08:59Z</time>
      </trkpt>
      <trkpt lat="48.56833" lon="-3.27345">
        <ele>183</ele>
        <time>2020-06-10T17:09:00Z</time>
      </trkpt>
      <trkpt lat="48.56832" lon="-3.27343">
        <ele>182.9</ele>
        <time>2020-06-10T17:09:01Z</time>
      </trkpt>
      <trkpt lat="48.56832" lon="-3.27343">
        <ele>182.9</ele>
        <time>2020-06-10T17:09:02Z</time>
      </trkpt>
      <trkpt lat="48.56832" lon="-3.27343">
        <ele>182.9</ele>
        <time>2020-06-10T17:09:03Z</time>
      </trkpt>
      <trkpt lat="48.56832" lon="-3.27342">
        <ele>182.9</ele>
        <time>2020-06-10T17:09:04Z</time>
      </trkpt>
      <trkpt lat="48.56832" lon="-3.27342">
        <ele>182.9</ele>
        <time>2020-06-10T17:09:05Z</time>
      </trkpt>
      <trkpt lat="48.56832" lon="-3.27341">
        <ele>182.9</ele>
        <time>2020-06-10T17:09:06Z</time>
      </trkpt>
      <trkpt lat="48.56832" lon="-3.27341">
        <ele>182.9</ele>
        <time>2020-06-10T17:09:07Z</time>
      </trkpt>
      <trkpt lat="48.56832" lon="-3.27341">
        <ele>182.9</ele>
        <time>2020-06-10T17:09:08Z</time>
      </trkpt>
      <trkpt lat="48.56832" lon="-3.2734">
        <ele>182.9</ele>
        <time>2020-06-10T17:09:09Z</time>
      </trkpt>
      <trkpt lat="48.56833" lon="-3.2734">
        <ele>182.9</ele>
        <time>2020-06-10T17:09:10Z</time>
      </trkpt>
      <trkpt lat="48.56833" lon="-3.27339">
        <ele>182.9</ele>
        <time>2020-06-10T17:09:11Z</time>
      </trkpt>
      <trkpt lat="48.56833" lon="-3.27339">
        <ele>182.9</ele>
        <time>2020-06-10T17:09:12Z</time>
      </trkpt>
      <trkpt lat="48.56833" lon="-3.27338">
        <ele>182.9</ele>
        <time>2020-06-10T17:09:13Z</time>
      </trkpt>
      <trkpt lat="48.56833" lon="-3.27338">
        <ele>182.9</ele>
        <time>2020-06-10T17:09:14Z</time>
      </trkpt>
      <trkpt lat="48.56833" lon="-3.27338">
        <ele>182.9</ele>
        <time>2020-06-10T17:09:15Z</time>
      </trkpt>
      <trkpt lat="48.56833" lon="-3.27337">
        <ele>182.9</ele>
        <time>2020-06-10T17:09:16Z</time>
      </trkpt>
      <trkpt lat="48.56833" lon="-3.27337">
        <ele>182.9</ele>
        <time>2020-06-10T17:09:17Z</time>
      </trkpt>
      <trkpt lat="48.56833" lon="-3.27336">
        <ele>182.9</ele>
        <time>2020-06-10T17:09:18Z</time>
      </trkpt>
      <trkpt lat="48.56833" lon="-3.27336">
        <ele>182.9</ele>
        <time>2020-06-10T17:09:19Z</time>
      </trkpt>
      <trkpt lat="48.56833" lon="-3.27335">
        <ele>182.9</ele>
        <time>2020-06-10T17:09:20Z</time>
      </trkpt>
      <trkpt lat="48.56833" lon="-3.27335">
        <ele>182.9</ele>
        <time>2020-06-10T17:09:21Z</time>
      </trkpt>
      <trkpt lat="48.56833" lon="-3.27334">
        <ele>182.9</ele>
        <time>2020-06-10T17:10:08Z</time>
      </trkpt>
      <trkpt lat="48.56833" lon="-3.27334">
        <ele>182.9</ele>
        <time>2020-06-10T17:10:09Z</time>
      </trkpt>
      <trkpt lat="48.56834" lon="-3.2733">
        <ele>182.9</ele>
        <time>2020-06-10T17:10:10Z</time>
      </trkpt>
      <trkpt lat="48.56834" lon="-3.27324">
        <ele>182.8</ele>
        <time>2020-06-10T17:10:11Z</time>
      </trkpt>
      <trkpt lat="48.56835" lon="-3.27318">
        <ele>182.8</ele>
        <time>2020-06-10T17:10:12Z</time>
      </trkpt>
      <trkpt lat="48.56834" lon="-3.27312">
        <ele>182.7</ele>
        <time>2020-06-10T17:10:13Z</time>
      </trkpt>
      <trkpt lat="48.56834" lon="-3.27309">
        <ele>182.7</ele>
        <time>2020-06-10T17:10:14Z</time>
      </trkpt>
      <trkpt lat="48.56835" lon="-3.27304">
        <ele>182.6</ele>
        <time>2020-06-10T17:10:15Z</time>
      </trkpt>
      <trkpt lat="48.56835" lon="-3.27302">
        <ele>182.6</ele>
        <time>2020-06-10T17:10:16Z</time>
      </trkpt>
      <trkpt lat="48.56835" lon="-3.27298">
        <ele>182.6</ele>
        <time>2020-06-10T17:10:17Z</time>
      </trkpt>
      <trkpt lat="48.56836" lon="-3.27293">
        <ele>182.5</ele>
        <time>2020-06-10T17:10:18Z</time>
      </trkpt>
      <trkpt lat="48.56836" lon="-3.27289">
        <ele>182.5</ele>
        <time>2020-06-10T17:10:19Z</time>
      </trkpt>
      <trkpt lat="48.56836" lon="-3.27284">
        <ele>182.4</ele>
        <time>2020-06-10T17:10:20Z</time>
      </trkpt>
      <trkpt lat="48.56836" lon="-3.27278">
        <ele>182.4</ele>
        <time>2020-06-10T17:10:21Z</time>
      </trkpt>
      <trkpt lat="48.56836" lon="-3.27273">
        <ele>182.3</ele>
        <time>2020-06-10T17:10:22Z</time>
      </trkpt>
      <trkpt lat="48.56835" lon="-3.27267">
        <ele>182.2</ele>
        <time>2020-06-10T17:10:23Z</time>
      </trkpt>
      <trkpt lat="48.56836" lon="-3.27265">
        <ele>182.2</ele>
        <time>2020-06-10T17:10:24Z</time>
      </trkpt>
      <trkpt lat="48.56835" lon="-3.27263">
        <ele>182.1</ele>
        <time>2020-06-10T17:10:25Z</time>
      </trkpt>
      <trkpt lat="48.56835" lon="-3.27263">
        <ele>182.1</ele>
        <time>2020-06-10T17:10:26Z</time>
      </trkpt>
      <trkpt lat="48.56835" lon="-3.27264">
        <ele>182.1</ele>
        <time>2020-06-10T17:10:27Z</time>
      </trkpt>
      <trkpt lat="48.56835" lon="-3.27266">
        <ele>182.1</ele>
        <time>2020-06-10T17:10:28Z</time>
      </trkpt>
      <trkpt lat="48.56835" lon="-3.27266">
        <ele>182.1</ele>
        <time>2020-06-10T17:10:29Z</time>
      </trkpt>
      <trkpt lat="48.56834" lon="-3.27265">
        <ele>182.1</ele>
        <time>2020-06-10T17:10:30Z</time>
      </trkpt>
      <trkpt lat="48.56834" lon="-3.27266">
        <ele>182</ele>
        <time>2020-06-10T17:10:31Z</time>
      </trkpt>
      <trkpt lat="48.56834" lon="-3.27266">
        <ele>182</ele>
        <time>2020-06-10T17:10:32Z</time>
      </trkpt>
      <trkpt lat="48.56834" lon="-3.27266">
        <ele>182</ele>
        <time>2020-06-10T17:10:33Z</time>
      </trkpt>
      <trkpt lat="48.56834" lon="-3.27266">
        <ele>182</ele>
        <time>2020-06-10T17:10:34Z</time>
      </trkpt>
      <trkpt lat="48.56834" lon="-3.27266">
        <ele>182</ele>
        <time>2020-06-10T17:10:35Z</time>
      </trkpt>
      <trkpt lat="48.56834" lon="-3.27265">
        <ele>182</ele>
        <time>2020-06-10T17:10:36Z</time>
      </trkpt>
      <trkpt lat="48.56834" lon="-3.27265">
        <ele>182</ele>
        <time>2020-06-10T17:10:37Z</time>
      </trkpt>
      <trkpt lat="48.56834" lon="-3.27266">
        <ele>182</ele>
        <time>2020-06-10T17:10:38Z</time>
      </trkpt>
      <trkpt lat="48.56837" lon="-3.27251">
        <ele>181.8</ele>
        <time>2020-06-10T17:11:56Z</time>
      </trkpt>
      <trkpt lat="48.56836" lon="-3.27247">
        <ele>181.7</ele>
        <time>2020-06-10T17:11:57Z</time>
      </trkpt>
      <trkpt lat="48.56836" lon="-3.27242">
        <ele>181.6</ele>
        <time>2020-06-10T17:11:58Z</time>
      </trkpt>
      <trkpt lat="48.56836" lon="-3.27236">
        <ele>181.5</ele>
        <time>2020-06-10T17:11:59Z</time>
      </trkpt>
      <trkpt lat="48.56836" lon="-3.27229">
        <ele>181.4</ele>
        <time>2020-06-10T17:12:00Z</time>
      </trkpt>
      <trkpt lat="48.56836" lon="-3.27222">
        <ele>181.2</ele>
        <time>2020-06-10T17:12:01Z</time>
      </trkpt>
      <trkpt lat="48.56836" lon="-3.27216">
        <ele>181.1</ele>
        <time>2020-06-10T17:12:02Z</time>
      </trkpt>
      <trkpt lat="48.56837" lon="-3.27209">
        <ele>181</ele>
        <time>2020-06-10T17:12:03Z</time>
      </trkpt>
      <trkpt lat="48.56836" lon="-3.27202">
        <ele>180.9</ele>
        <time>2020-06-10T17:12:04Z</time>
      </trkpt>
      <trkpt lat="48.56837" lon="-3.27194">
        <ele>180.7</ele>
        <time>2020-06-10T17:12:05Z</time>
      </trkpt>
      <trkpt lat="48.56837" lon="-3.27186">
        <ele>180.6</ele>
        <time>2020-06-10T17:12:06Z</time>
      </trkpt>
      <trkpt lat="48.56836" lon="-3.27178">
        <ele>180.4</ele>
        <time>2020-06-10T17:12:07Z</time>
      </trkpt>
      <trkpt lat="48.56836" lon="-3.2717">
        <ele>180.2</ele>
        <time>2020-06-10T17:12:08Z</time>
      </trkpt>
      <trkpt lat="48.56837" lon="-3.27163">
        <ele>180.1</ele>
        <time>2020-06-10T17:12:09Z</time>
      </trkpt>
      <trkpt lat="48.56837" lon="-3.27155">
        <ele>179.9</ele>
        <time>2020-06-10T17:12:10Z</time>
      </trkpt>
      <trkpt lat="48.56837" lon="-3.27145">
        <ele>179.7</ele>
        <time>2020-06-10T17:12:11Z</time>
      </trkpt>
      <trkpt lat="48.56837" lon="-3.27136">
        <ele>179.5</ele>
        <time>2020-06-10T17:12:12Z</time>
      </trkpt>
      <trkpt lat="48.56838" lon="-3.27127">
        <ele>179.4</ele>
        <time>2020-06-10T17:12:13Z</time>
      </trkpt>
      <trkpt lat="48.56838" lon="-3.27117">
        <ele>179.1</ele>
        <time>2020-06-10T17:12:14Z</time>
      </trkpt>
      <trkpt lat="48.56839" lon="-3.27108">
        <ele>178.9</ele>
        <time>2020-06-10T17:12:15Z</time>
      </trkpt>
      <trkpt lat="48.56838" lon="-3.27099">
        <ele>178.7</ele>
        <time>2020-06-10T17:12:16Z</time>
      </trkpt>
      <trkpt lat="48.56839" lon="-3.27091">
        <ele>178.5</ele>
        <time>2020-06-10T17:12:17Z</time>
      </trkpt>
      <trkpt lat="48.56838" lon="-3.27081">
        <ele>178.2</ele>
        <time>2020-06-10T17:12:18Z</time>
      </trkpt>
      <trkpt lat="48.56839" lon="-3.27072">
        <ele>178</ele>
        <time>2020-06-10T17:12:19Z</time>
      </trkpt>
      <trkpt lat="48.56839" lon="-3.27059">
        <ele>177.7</ele>
        <time>2020-06-10T17:12:20Z</time>
      </trkpt>
      <trkpt lat="48.56839" lon="-3.27049">
        <ele>177.3</ele>
        <time>2020-06-10T17:12:21Z</time>
      </trkpt>
      <trkpt lat="48.56839" lon="-3.27039">
        <ele>177</ele>
        <time>2020-06-10T17:12:22Z</time>
      </trkpt>
      <trkpt lat="48.56839" lon="-3.27029">
        <ele>176.7</ele>
        <time>2020-06-10T17:12:23Z</time>
      </trkpt>
      <trkpt lat="48.56839" lon="-3.27019">
        <ele>176.4</ele>
        <time>2020-06-10T17:12:24Z</time>
      </trkpt>
      <trkpt lat="48.56839" lon="-3.27008">
        <ele>176.1</ele>
        <time>2020-06-10T17:12:25Z</time>
      </trkpt>
      <trkpt lat="48.56839" lon="-3.26999">
        <ele>175.8</ele>
        <time>2020-06-10T17:12:26Z</time>
      </trkpt>
      <trkpt lat="48.56838" lon="-3.2699">
        <ele>175.5</ele>
        <time>2020-06-10T17:12:27Z</time>
      </trkpt>
      <trkpt lat="48.56838" lon="-3.2698">
        <ele>175.2</ele>
        <time>2020-06-10T17:12:28Z</time>
      </trkpt>
      <trkpt lat="48.56838" lon="-3.2697">
        <ele>174.9</ele>
        <time>2020-06-10T17:12:29Z</time>
      </trkpt>
      <trkpt lat="48.56838" lon="-3.26959">
        <ele>174.5</ele>
        <time>2020-06-10T17:12:30Z</time>
      </trkpt>
      <trkpt lat="48.56838" lon="-3.26948">
        <ele>174.2</ele>
        <time>2020-06-10T17:12:31Z</time>
      </trkpt>
      <trkpt lat="48.56839" lon="-3.26936">
        <ele>173.8</ele>
        <time>2020-06-10T17:12:32Z</time>
      </trkpt>
      <trkpt lat="48.56839" lon="-3.26924">
        <ele>173.4</ele>
        <time>2020-06-10T17:12:33Z</time>
      </trkpt>
      <trkpt lat="48.56839" lon="-3.26912">
        <ele>173</ele>
        <time>2020-06-10T17:12:34Z</time>
      </trkpt>
      <trkpt lat="48.56839" lon="-3.26899">
        <ele>172.7</ele>
        <time>2020-06-10T17:12:35Z</time>
      </trkpt>
      <trkpt lat="48.56839" lon="-3.26886">
        <ele>172.3</ele>
        <time>2020-06-10T17:12:36Z</time>
      </trkpt>
      <trkpt lat="48.56839" lon="-3.26872">
        <ele>171.9</ele>
        <time>2020-06-10T17:12:37Z</time>
      </trkpt>
      <trkpt lat="48.5684" lon="-3.26859">
        <ele>171.6</ele>
        <time>2020-06-10T17:12:38Z</time>
      </trkpt>
      <trkpt lat="48.5684" lon="-3.26845">
        <ele>171.3</ele>
        <time>2020-06-10T17:12:39Z</time>
      </trkpt>
      <trkpt lat="48.5684" lon="-3.26831">
        <ele>171</ele>
        <time>2020-06-10T17:12:40Z</time>
      </trkpt>
      <trkpt lat="48.56841" lon="-3.26817">
        <ele>170.6</ele>
        <time>2020-06-10T17:12:41Z</time>
      </trkpt>
      <trkpt lat="48.56841" lon="-3.26802">
        <ele>170.3</ele>
        <time>2020-06-10T17:12:42Z</time>
      </trkpt>
      <trkpt lat="48.56841" lon="-3.26788">
        <ele>170</ele>
        <time>2020-06-10T17:12:43Z</time>
      </trkpt>
      <trkpt lat="48.56841" lon="-3.26773">
        <ele>169.6</ele>
        <time>2020-06-10T17:12:44Z</time>
      </trkpt>
      <trkpt lat="48.56841" lon="-3.26758">
        <ele>169.3</ele>
        <time>2020-06-10T17:12:45Z</time>
      </trkpt>
      <trkpt lat="48.56842" lon="-3.26744">
        <ele>168.8</ele>
        <time>2020-06-10T17:12:46Z</time>
      </trkpt>
      <trkpt lat="48.56842" lon="-3.26729">
        <ele>168.4</ele>
        <time>2020-06-10T17:12:47Z</time>
      </trkpt>
      <trkpt lat="48.56842" lon="-3.26714">
        <ele>168</ele>
        <time>2020-06-10T17:12:48Z</time>
      </trkpt>
      <trkpt lat="48.56842" lon="-3.267">
        <ele>167.5</ele>
        <time>2020-06-10T17:12:49Z</time>
      </trkpt>
      <trkpt lat="48.56842" lon="-3.26685">
        <ele>167</ele>
        <time>2020-06-10T17:12:50Z</time>
      </trkpt>
      <trkpt lat="48.56842" lon="-3.26671">
        <ele>166.5</ele>
        <time>2020-06-10T17:12:51Z</time>
      </trkpt>
      <trkpt lat="48.56841" lon="-3.26658">
        <ele>166</ele>
        <time>2020-06-10T17:12:52Z</time>
      </trkpt>
      <trkpt lat="48.56841" lon="-3.26645">
        <ele>165.5</ele>
        <time>2020-06-10T17:12:53Z</time>
      </trkpt>
      <trkpt lat="48.56841" lon="-3.26632">
        <ele>165.1</ele>
        <time>2020-06-10T17:12:54Z</time>
      </trkpt>
      <trkpt lat="48.56841" lon="-3.26618">
        <ele>165</ele>
        <time>2020-06-10T17:12:55Z</time>
      </trkpt>
      <trkpt lat="48.56841" lon="-3.26605">
        <ele>164.7</ele>
        <time>2020-06-10T17:12:56Z</time>
      </trkpt>
      <trkpt lat="48.56841" lon="-3.26591">
        <ele>164.2</ele>
        <time>2020-06-10T17:12:57Z</time>
      </trkpt>
      <trkpt lat="48.56842" lon="-3.26577">
        <ele>163.7</ele>
        <time>2020-06-10T17:12:58Z</time>
      </trkpt>
      <trkpt lat="48.56842" lon="-3.26563">
        <ele>163.1</ele>
        <time>2020-06-10T17:12:59Z</time>
      </trkpt>
      <trkpt lat="48.56842" lon="-3.26549">
        <ele>162.7</ele>
        <time>2020-06-10T17:13:00Z</time>
      </trkpt>
      <trkpt lat="48.56843" lon="-3.26536">
        <ele>162.3</ele>
        <time>2020-06-10T17:13:01Z</time>
      </trkpt>
      <trkpt lat="48.56843" lon="-3.26522">
        <ele>161.9</ele>
        <time>2020-06-10T17:13:02Z</time>
      </trkpt>
      <trkpt lat="48.56843" lon="-3.26508">
        <ele>161.5</ele>
        <time>2020-06-10T17:13:03Z</time>
      </trkpt>
      <trkpt lat="48.56843" lon="-3.26494">
        <ele>161</ele>
        <time>2020-06-10T17:13:04Z</time>
      </trkpt>
      <trkpt lat="48.56842" lon="-3.26481">
        <ele>160.7</ele>
        <time>2020-06-10T17:13:05Z</time>
      </trkpt>
      <trkpt lat="48.56843" lon="-3.26467">
        <ele>160.3</ele>
        <time>2020-06-10T17:13:06Z</time>
      </trkpt>
      <trkpt lat="48.56842" lon="-3.26454">
        <ele>159.8</ele>
        <time>2020-06-10T17:13:07Z</time>
      </trkpt>
      <trkpt lat="48.56841" lon="-3.26441">
        <ele>159.4</ele>
        <time>2020-06-10T17:13:08Z</time>
      </trkpt>
      <trkpt lat="48.56841" lon="-3.26428">
        <ele>159</ele>
        <time>2020-06-10T17:13:09Z</time>
      </trkpt>
      <trkpt lat="48.56841" lon="-3.26415">
        <ele>158.6</ele>
        <time>2020-06-10T17:13:10Z</time>
      </trkpt>
      <trkpt lat="48.5684" lon="-3.26402">
        <ele>158.2</ele>
        <time>2020-06-10T17:13:11Z</time>
      </trkpt>
      <trkpt lat="48.5684" lon="-3.26389">
        <ele>157.8</ele>
        <time>2020-06-10T17:13:12Z</time>
      </trkpt>
      <trkpt lat="48.5684" lon="-3.26377">
        <ele>157.5</ele>
        <time>2020-06-10T17:13:13Z</time>
      </trkpt>
      <trkpt lat="48.56839" lon="-3.26364">
        <ele>157.1</ele>
        <time>2020-06-10T17:13:14Z</time>
      </trkpt>
      <trkpt lat="48.5684" lon="-3.26351">
        <ele>156.6</ele>
        <time>2020-06-10T17:13:15Z</time>
      </trkpt>
      <trkpt lat="48.56839" lon="-3.26338">
        <ele>156.1</ele>
        <time>2020-06-10T17:13:16Z</time>
      </trkpt>
      <trkpt lat="48.5684" lon="-3.26325">
        <ele>155.5</ele>
        <time>2020-06-10T17:13:17Z</time>
      </trkpt>
      <trkpt lat="48.5684" lon="-3.26312">
        <ele>155</ele>
        <time>2020-06-10T17:13:18Z</time>
      </trkpt>
      <trkpt lat="48.5684" lon="-3.26299">
        <ele>154.4</ele>
        <time>2020-06-10T17:13:19Z</time>
      </trkpt>
      <trkpt lat="48.56841" lon="-3.26286">
        <ele>154</ele>
        <time>2020-06-10T17:13:20Z</time>
      </trkpt>
      <trkpt lat="48.56842" lon="-3.26271">
        <ele>153.5</ele>
        <time>2020-06-10T17:13:21Z</time>
      </trkpt>
      <trkpt lat="48.56842" lon="-3.26257">
        <ele>153.1</ele>
        <time>2020-06-10T17:13:22Z</time>
      </trkpt>
      <trkpt lat="48.56842" lon="-3.26242">
        <ele>152.7</ele>
        <time>2020-06-10T17:13:23Z</time>
      </trkpt>
      <trkpt lat="48.56842" lon="-3.26227">
        <ele>152.3</ele>
        <time>2020-06-10T17:13:24Z</time>
      </trkpt>
      <trkpt lat="48.56842" lon="-3.26212">
        <ele>152</ele>
        <time>2020-06-10T17:13:25Z</time>
      </trkpt>
      <trkpt lat="48.56842" lon="-3.26197">
        <ele>151.8</ele>
        <time>2020-06-10T17:13:26Z</time>
      </trkpt>
      <trkpt lat="48.56842" lon="-3.26182">
        <ele>151.6</ele>
        <time>2020-06-10T17:13:27Z</time>
      </trkpt>
      <trkpt lat="48.56842" lon="-3.26167">
        <ele>151.5</ele>
        <time>2020-06-10T17:13:28Z</time>
      </trkpt>
      <trkpt lat="48.56842" lon="-3.26153">
        <ele>151.4</ele>
        <time>2020-06-10T17:13:29Z</time>
      </trkpt>
      <trkpt lat="48.56843" lon="-3.26139">
        <ele>151.3</ele>
        <time>2020-06-10T17:13:30Z</time>
      </trkpt>
      <trkpt lat="48.56841" lon="-3.26125">
        <ele>151.3</ele>
        <time>2020-06-10T17:13:31Z</time>
      </trkpt>
      <trkpt lat="48.56841" lon="-3.26111">
        <ele>151.4</ele>
        <time>2020-06-10T17:13:32Z</time>
      </trkpt>
      <trkpt lat="48.56841" lon="-3.26098">
        <ele>151.6</ele>
        <time>2020-06-10T17:13:33Z</time>
      </trkpt>
      <trkpt lat="48.5684" lon="-3.26085">
        <ele>151.8</ele>
        <time>2020-06-10T17:13:34Z</time>
      </trkpt>
      <trkpt lat="48.5684" lon="-3.26071">
        <ele>152</ele>
        <time>2020-06-10T17:13:35Z</time>
      </trkpt>
      <trkpt lat="48.56839" lon="-3.26058">
        <ele>152.2</ele>
        <time>2020-06-10T17:13:36Z</time>
      </trkpt>
      <trkpt lat="48.5684" lon="-3.26044">
        <ele>152.4</ele>
        <time>2020-06-10T17:13:37Z</time>
      </trkpt>
      <trkpt lat="48.56839" lon="-3.26031">
        <ele>152.7</ele>
        <time>2020-06-10T17:13:38Z</time>
      </trkpt>
      <trkpt lat="48.56839" lon="-3.26019">
        <ele>153.1</ele>
        <time>2020-06-10T17:13:39Z</time>
      </trkpt>
      <trkpt lat="48.56839" lon="-3.26006">
        <ele>153.4</ele>
        <time>2020-06-10T17:13:40Z</time>
      </trkpt>
      <trkpt lat="48.5684" lon="-3.25995">
        <ele>153.8</ele>
        <time>2020-06-10T17:13:41Z</time>
      </trkpt>
      <trkpt lat="48.5684" lon="-3.25984">
        <ele>154.2</ele>
        <time>2020-06-10T17:13:42Z</time>
      </trkpt>
      <trkpt lat="48.5684" lon="-3.25973">
        <ele>154.6</ele>
        <time>2020-06-10T17:13:43Z</time>
      </trkpt>
      <trkpt lat="48.5684" lon="-3.25962">
        <ele>155</ele>
        <time>2020-06-10T17:13:44Z</time>
      </trkpt>
      <trkpt lat="48.56841" lon="-3.25952">
        <ele>155.4</ele>
        <time>2020-06-10T17:13:45Z</time>
      </trkpt>
      <trkpt lat="48.56841" lon="-3.25942">
        <ele>155.8</ele>
        <time>2020-06-10T17:13:46Z</time>
      </trkpt>
      <trkpt lat="48.56841" lon="-3.25933">
        <ele>156.2</ele>
        <time>2020-06-10T17:13:47Z</time>
      </trkpt>
      <trkpt lat="48.56841" lon="-3.25923">
        <ele>156.5</ele>
        <time>2020-06-10T17:13:48Z</time>
      </trkpt>
      <trkpt lat="48.5684" lon="-3.25914">
        <ele>156.9</ele>
        <time>2020-06-10T17:13:49Z</time>
      </trkpt>
      <trkpt lat="48.5684" lon="-3.25906">
        <ele>157.2</ele>
        <time>2020-06-10T17:13:50Z</time>
      </trkpt>
      <trkpt lat="48.5684" lon="-3.25897">
        <ele>157.5</ele>
        <time>2020-06-10T17:13:51Z</time>
      </trkpt>
      <trkpt lat="48.56841" lon="-3.25888">
        <ele>157.8</ele>
        <time>2020-06-10T17:13:52Z</time>
      </trkpt>
      <trkpt lat="48.56841" lon="-3.2588">
        <ele>158.1</ele>
        <time>2020-06-10T17:13:53Z</time>
      </trkpt>
      <trkpt lat="48.5684" lon="-3.25871">
        <ele>158.4</ele>
        <time>2020-06-10T17:13:54Z</time>
      </trkpt>
      <trkpt lat="48.5684" lon="-3.25863">
        <ele>158.7</ele>
        <time>2020-06-10T17:13:55Z</time>
      </trkpt>
      <trkpt lat="48.56841" lon="-3.25855">
        <ele>159</ele>
        <time>2020-06-10T17:13:56Z</time>
      </trkpt>
      <trkpt lat="48.5684" lon="-3.25847">
        <ele>159.2</ele>
        <time>2020-06-10T17:13:57Z</time>
      </trkpt>
      <trkpt lat="48.5684" lon="-3.25839">
        <ele>159.5</ele>
        <time>2020-06-10T17:13:58Z</time>
      </trkpt>
      <trkpt lat="48.5684" lon="-3.25832">
        <ele>159.7</ele>
        <time>2020-06-10T17:13:59Z</time>
      </trkpt>
      <trkpt lat="48.5684" lon="-3.25825">
        <ele>159.9</ele>
        <time>2020-06-10T17:14:00Z</time>
      </trkpt>
      <trkpt lat="48.56839" lon="-3.25816">
        <ele>160.1</ele>
        <time>2020-06-10T17:14:01Z</time>
      </trkpt>
      <trkpt lat="48.56839" lon="-3.25808">
        <ele>160.3</ele>
        <time>2020-06-10T17:14:02Z</time>
      </trkpt>
      <trkpt lat="48.56839" lon="-3.258">
        <ele>160.4</ele>
        <time>2020-06-10T17:14:03Z</time>
      </trkpt>
      <trkpt lat="48.56839" lon="-3.25793">
        <ele>160.5</ele>
        <time>2020-06-10T17:14:04Z</time>
      </trkpt>
      <trkpt lat="48.56838" lon="-3.25786">
        <ele>160.6</ele>
        <time>2020-06-10T17:14:05Z</time>
      </trkpt>
      <trkpt lat="48.56839" lon="-3.2578">
        <ele>160.6</ele>
        <time>2020-06-10T17:14:06Z</time>
      </trkpt>
      <trkpt lat="48.56839" lon="-3.25773">
        <ele>160.7</ele>
        <time>2020-06-10T17:14:07Z</time>
      </trkpt>
      <trkpt lat="48.56839" lon="-3.25767">
        <ele>160.8</ele>
        <time>2020-06-10T17:14:08Z</time>
      </trkpt>
      <trkpt lat="48.56839" lon="-3.25758">
        <ele>160.8</ele>
        <time>2020-06-10T17:14:09Z</time>
      </trkpt>
      <trkpt lat="48.56839" lon="-3.2575">
        <ele>160.9</ele>
        <time>2020-06-10T17:14:10Z</time>
      </trkpt>
      <trkpt lat="48.56839" lon="-3.25744">
        <ele>160.9</ele>
        <time>2020-06-10T17:14:11Z</time>
      </trkpt>
      <trkpt lat="48.56839" lon="-3.25738">
        <ele>161</ele>
        <time>2020-06-10T17:14:12Z</time>
      </trkpt>
      <trkpt lat="48.56839" lon="-3.25733">
        <ele>161</ele>
        <time>2020-06-10T17:14:13Z</time>
      </trkpt>
      <trkpt lat="48.5684" lon="-3.25727">
        <ele>161</ele>
        <time>2020-06-10T17:14:14Z</time>
      </trkpt>
      <trkpt lat="48.5684" lon="-3.25721">
        <ele>161.1</ele>
        <time>2020-06-10T17:14:15Z</time>
      </trkpt>
      <trkpt lat="48.56839" lon="-3.25711">
        <ele>161.1</ele>
        <time>2020-06-10T17:14:16Z</time>
      </trkpt>
      <trkpt lat="48.56839" lon="-3.25706">
        <ele>161.2</ele>
        <time>2020-06-10T17:14:17Z</time>
      </trkpt>
      <trkpt lat="48.56839" lon="-3.25701">
        <ele>161.2</ele>
        <time>2020-06-10T17:14:18Z</time>
      </trkpt>
      <trkpt lat="48.56839" lon="-3.257">
        <ele>161.2</ele>
        <time>2020-06-10T17:14:19Z</time>
      </trkpt>
      <trkpt lat="48.56838" lon="-3.257">
        <ele>161.2</ele>
        <time>2020-06-10T17:14:20Z</time>
      </trkpt>
      <trkpt lat="48.56837" lon="-3.257">
        <ele>161.2</ele>
        <time>2020-06-10T17:14:21Z</time>
      </trkpt>
      <trkpt lat="48.56837" lon="-3.25701">
        <ele>161.2</ele>
        <time>2020-06-10T17:14:22Z</time>
      </trkpt>
      <trkpt lat="48.56837" lon="-3.25701">
        <ele>161.2</ele>
        <time>2020-06-10T17:14:23Z</time>
      </trkpt>
      <trkpt lat="48.56837" lon="-3.25699">
        <ele>161.2</ele>
        <time>2020-06-10T17:14:24Z</time>
      </trkpt>
      <trkpt lat="48.56836" lon="-3.257">
        <ele>161.2</ele>
        <time>2020-06-10T17:14:25Z</time>
      </trkpt>
      <trkpt lat="48.56836" lon="-3.25701">
        <ele>161.2</ele>
        <time>2020-06-10T17:14:26Z</time>
      </trkpt>
      <trkpt lat="48.56836" lon="-3.25702">
        <ele>161.2</ele>
        <time>2020-06-10T17:14:27Z</time>
      </trkpt>
      <trkpt lat="48.56836" lon="-3.25703">
        <ele>161.2</ele>
        <time>2020-06-10T17:14:28Z</time>
      </trkpt>
      <trkpt lat="48.56836" lon="-3.25704">
        <ele>161.3</ele>
        <time>2020-06-10T17:14:29Z</time>
      </trkpt>
      <trkpt lat="48.56837" lon="-3.25704">
        <ele>161.3</ele>
        <time>2020-06-10T17:14:30Z</time>
      </trkpt>
      <trkpt lat="48.56837" lon="-3.25703">
        <ele>161.3</ele>
        <time>2020-06-10T17:14:31Z</time>
      </trkpt>
      <trkpt lat="48.56837" lon="-3.25703">
        <ele>161.3</ele>
        <time>2020-06-10T17:14:32Z</time>
      </trkpt>
      <trkpt lat="48.56837" lon="-3.25703">
        <ele>161.3</ele>
        <time>2020-06-10T17:14:33Z</time>
      </trkpt>
      <trkpt lat="48.56837" lon="-3.25703">
        <ele>161.3</ele>
        <time>2020-06-10T17:14:34Z</time>
      </trkpt>
      <trkpt lat="48.56838" lon="-3.25703">
        <ele>161.3</ele>
        <time>2020-06-10T17:14:35Z</time>
      </trkpt>
      <trkpt lat="48.56838" lon="-3.25703">
        <ele>161.3</ele>
        <time>2020-06-10T17:14:36Z</time>
      </trkpt>
      <trkpt lat="48.56839" lon="-3.257">
        <ele>161.3</ele>
        <time>2020-06-10T17:15:22Z</time>
      </trkpt>
      <trkpt lat="48.5684" lon="-3.25701">
        <ele>161.3</ele>
        <time>2020-06-10T17:15:23Z</time>
      </trkpt>
      <trkpt lat="48.5684" lon="-3.25702">
        <ele>161.3</ele>
        <time>2020-06-10T17:15:24Z</time>
      </trkpt>
      <trkpt lat="48.5684" lon="-3.25702">
        <ele>161.3</ele>
        <time>2020-06-10T17:15:25Z</time>
      </trkpt>
      <trkpt lat="48.5684" lon="-3.25702">
        <ele>161.3</ele>
        <time>2020-06-10T17:15:26Z</time>
      </trkpt>
      <trkpt lat="48.5684" lon="-3.25702">
        <ele>161.3</ele>
        <time>2020-06-10T17:15:27Z</time>
      </trkpt>
      <trkpt lat="48.5684" lon="-3.25702">
        <ele>161.3</ele>
        <time>2020-06-10T17:15:28Z</time>
      </trkpt>
      <trkpt lat="48.5684" lon="-3.25702">
        <ele>161.3</ele>
        <time>2020-06-10T17:15:29Z</time>
      </trkpt>
      <trkpt lat="48.5684" lon="-3.25702">
        <ele>161.3</ele>
        <time>2020-06-10T17:15:30Z</time>
      </trkpt>
      <trkpt lat="48.56839" lon="-3.25701">
        <ele>161.3</ele>
        <time>2020-06-10T17:15:31Z</time>
      </trkpt>
      <trkpt lat="48.56839" lon="-3.25701">
        <ele>161.3</ele>
        <time>2020-06-10T17:15:32Z</time>
      </trkpt>
      <trkpt lat="48.56839" lon="-3.25701">
        <ele>161.3</ele>
        <time>2020-06-10T17:15:33Z</time>
      </trkpt>
      <trkpt lat="48.56846" lon="-3.25704">
        <ele>161.4</ele>
        <time>2020-06-10T17:23:58Z</time>
      </trkpt>
      <trkpt lat="48.56847" lon="-3.25705">
        <ele>161.4</ele>
        <time>2020-06-10T17:23:59Z</time>
      </trkpt>
      <trkpt lat="48.56848" lon="-3.25705">
        <ele>161.4</ele>
        <time>2020-06-10T17:24:00Z</time>
      </trkpt>
      <trkpt lat="48.5685" lon="-3.25706">
        <ele>161.4</ele>
        <time>2020-06-10T17:24:01Z</time>
      </trkpt>
      <trkpt lat="48.56851" lon="-3.25706">
        <ele>161.4</ele>
        <time>2020-06-10T17:24:02Z</time>
      </trkpt>
      <trkpt lat="48.56852" lon="-3.25707">
        <ele>161.4</ele>
        <time>2020-06-10T17:24:03Z</time>
      </trkpt>
      <trkpt lat="48.56855" lon="-3.25708">
        <ele>161.5</ele>
        <time>2020-06-10T17:24:04Z</time>
      </trkpt>
      <trkpt lat="48.56857" lon="-3.25709">
        <ele>161.5</ele>
        <time>2020-06-10T17:24:05Z</time>
      </trkpt>
      <trkpt lat="48.56856" lon="-3.25708">
        <ele>161.5</ele>
        <time>2020-06-10T17:24:06Z</time>
      </trkpt>
      <trkpt lat="48.56855" lon="-3.25706">
        <ele>161.5</ele>
        <time>2020-06-10T17:24:07Z</time>
      </trkpt>
      <trkpt lat="48.56853" lon="-3.25704">
        <ele>161.5</ele>
        <time>2020-06-10T17:24:08Z</time>
      </trkpt>
      <trkpt lat="48.56853" lon="-3.25704">
        <ele>161.5</ele>
        <time>2020-06-10T17:24:09Z</time>
      </trkpt>
      <trkpt lat="48.56853" lon="-3.25703">
        <ele>161.5</ele>
        <time>2020-06-10T17:24:10Z</time>
      </trkpt>
      <trkpt lat="48.56853" lon="-3.25703">
        <ele>161.5</ele>
        <time>2020-06-10T17:24:11Z</time>
      </trkpt>
      <trkpt lat="48.56852" lon="-3.25702">
        <ele>161.5</ele>
        <time>2020-06-10T17:24:12Z</time>
      </trkpt>
      <trkpt lat="48.56852" lon="-3.25702">
        <ele>161.5</ele>
        <time>2020-06-10T17:24:13Z</time>
      </trkpt>
      <trkpt lat="48.56852" lon="-3.25702">
        <ele>161.5</ele>
        <time>2020-06-10T17:24:14Z</time>
      </trkpt>
      <trkpt lat="48.56852" lon="-3.25701">
        <ele>161.5</ele>
        <time>2020-06-10T17:24:15Z</time>
      </trkpt>
      <trkpt lat="48.56852" lon="-3.25701">
        <ele>161.5</ele>
        <time>2020-06-10T17:24:16Z</time>
      </trkpt>
      <trkpt lat="48.56852" lon="-3.25701">
        <ele>161.5</ele>
        <time>2020-06-10T17:24:17Z</time>
      </trkpt>
      <trkpt lat="48.56852" lon="-3.257">
        <ele>161.5</ele>
        <time>2020-06-10T17:24:18Z</time>
      </trkpt>
      <trkpt lat="48.56852" lon="-3.257">
        <ele>161.5</ele>
        <time>2020-06-10T17:24:19Z</time>
      </trkpt>
      <trkpt lat="48.56852" lon="-3.25699">
        <ele>161.5</ele>
        <time>2020-06-10T17:24:20Z</time>
      </trkpt>
      <trkpt lat="48.56852" lon="-3.25699">
        <ele>161.5</ele>
        <time>2020-06-10T17:24:21Z</time>
      </trkpt>
      <trkpt lat="48.56852" lon="-3.25699">
        <ele>161.5</ele>
        <time>2020-06-10T17:24:22Z</time>
      </trkpt>
      <trkpt lat="48.56854" lon="-3.25698">
        <ele>161.6</ele>
        <time>2020-06-10T17:24:23Z</time>
      </trkpt>
      <trkpt lat="48.56854" lon="-3.25698">
        <ele>161.6</ele>
        <time>2020-06-10T17:24:24Z</time>
      </trkpt>
      <trkpt lat="48.56855" lon="-3.25697">
        <ele>161.6</ele>
        <time>2020-06-10T17:24:25Z</time>
      </trkpt>
      <trkpt lat="48.56855" lon="-3.25697">
        <ele>161.6</ele>
        <time>2020-06-10T17:24:26Z</time>
      </trkpt>
      <trkpt lat="48.56856" lon="-3.25697">
        <ele>161.6</ele>
        <time>2020-06-10T17:24:27Z</time>
      </trkpt>
      <trkpt lat="48.56855" lon="-3.25697">
        <ele>161.6</ele>
        <time>2020-06-10T17:24:28Z</time>
      </trkpt>
      <trkpt lat="48.56855" lon="-3.25698">
        <ele>161.6</ele>
        <time>2020-06-10T17:24:29Z</time>
      </trkpt>
      <trkpt lat="48.56855" lon="-3.25697">
        <ele>161.6</ele>
        <time>2020-06-10T17:24:30Z</time>
      </trkpt>
      <trkpt lat="48.56854" lon="-3.25698">
        <ele>161.6</ele>
        <time>2020-06-10T17:24:31Z</time>
      </trkpt>
      <trkpt lat="48.56854" lon="-3.25698">
        <ele>161.6</ele>
        <time>2020-06-10T17:24:32Z</time>
      </trkpt>
      <trkpt lat="48.56853" lon="-3.25698">
        <ele>161.6</ele>
        <time>2020-06-10T17:24:33Z</time>
      </trkpt>
      <trkpt lat="48.56853" lon="-3.25697">
        <ele>161.6</ele>
        <time>2020-06-10T17:24:34Z</time>
      </trkpt>
      <trkpt lat="48.56853" lon="-3.25695">
        <ele>161.6</ele>
        <time>2020-06-10T17:24:36Z</time>
      </trkpt>
      <trkpt lat="48.56853" lon="-3.25695">
        <ele>161.6</ele>
        <time>2020-06-10T17:24:37Z</time>
      </trkpt>
      <trkpt lat="48.56853" lon="-3.25693">
        <ele>161.6</ele>
        <time>2020-06-10T17:24:38Z</time>
      </trkpt>
      <trkpt lat="48.56853" lon="-3.25692">
        <ele>161.6</ele>
        <time>2020-06-10T17:24:39Z</time>
      </trkpt>
      <trkpt lat="48.56853" lon="-3.25693">
        <ele>161.7</ele>
        <time>2020-06-10T17:24:40Z</time>
      </trkpt>
      <trkpt lat="48.56853" lon="-3.25696">
        <ele>161.7</ele>
        <time>2020-06-10T17:24:41Z</time>
      </trkpt>
      <trkpt lat="48.56851" lon="-3.25697">
        <ele>161.7</ele>
        <time>2020-06-10T17:24:42Z</time>
      </trkpt>
      <trkpt lat="48.56851" lon="-3.25697">
        <ele>161.7</ele>
        <time>2020-06-10T17:24:43Z</time>
      </trkpt>
      <trkpt lat="48.56847" lon="-3.25696">
        <ele>161.7</ele>
        <time>2020-06-10T17:24:44Z</time>
      </trkpt>
      <trkpt lat="48.56847" lon="-3.25696">
        <ele>161.7</ele>
        <time>2020-06-10T17:24:45Z</time>
      </trkpt>
      <trkpt lat="48.56847" lon="-3.25696">
        <ele>161.7</ele>
        <time>2020-06-10T17:24:46Z</time>
      </trkpt>
      <trkpt lat="48.56847" lon="-3.25696">
        <ele>161.7</ele>
        <time>2020-06-10T17:24:47Z</time>
      </trkpt>
      <trkpt lat="48.56847" lon="-3.25696">
        <ele>161.7</ele>
        <time>2020-06-10T17:24:48Z</time>
      </trkpt>
      <trkpt lat="48.56847" lon="-3.25696">
        <ele>161.7</ele>
        <time>2020-06-10T17:24:49Z</time>
      </trkpt>
      <trkpt lat="48.56847" lon="-3.25696">
        <ele>161.7</ele>
        <time>2020-06-10T17:24:50Z</time>
      </trkpt>
      <trkpt lat="48.56847" lon="-3.25696">
        <ele>161.7</ele>
        <time>2020-06-10T17:24:51Z</time>
      </trkpt>
      <trkpt lat="48.56847" lon="-3.25696">
        <ele>161.7</ele>
        <time>2020-06-10T17:24:52Z</time>
      </trkpt>
      <trkpt lat="48.56847" lon="-3.25696">
        <ele>161.7</ele>
        <time>2020-06-10T17:24:53Z</time>
      </trkpt>
      <trkpt lat="48.56847" lon="-3.25696">
        <ele>161.7</ele>
        <time>2020-06-10T17:24:54Z</time>
      </trkpt>
      <trkpt lat="48.56848" lon="-3.25696">
        <ele>161.7</ele>
        <time>2020-06-10T17:24:55Z</time>
      </trkpt>
      <trkpt lat="48.56848" lon="-3.25697">
        <ele>161.7</ele>
        <time>2020-06-10T17:24:56Z</time>
      </trkpt>
      <trkpt lat="48.56847" lon="-3.25695">
        <ele>161.7</ele>
        <time>2020-06-10T17:24:57Z</time>
      </trkpt>
      <trkpt lat="48.56846" lon="-3.25694">
        <ele>161.7</ele>
        <time>2020-06-10T17:24:58Z</time>
      </trkpt>
      <trkpt lat="48.56845" lon="-3.25693">
        <ele>161.7</ele>
        <time>2020-06-10T17:24:59Z</time>
      </trkpt>
      <trkpt lat="48.56844" lon="-3.25693">
        <ele>161.7</ele>
        <time>2020-06-10T17:25:00Z</time>
      </trkpt>
      <trkpt lat="48.56844" lon="-3.25692">
        <ele>161.7</ele>
        <time>2020-06-10T17:25:01Z</time>
      </trkpt>
      <trkpt lat="48.56843" lon="-3.25691">
        <ele>161.7</ele>
        <time>2020-06-10T17:25:02Z</time>
      </trkpt>
      <trkpt lat="48.56843" lon="-3.2569">
        <ele>161.8</ele>
        <time>2020-06-10T17:25:03Z</time>
      </trkpt>
      <trkpt lat="48.56842" lon="-3.25689">
        <ele>161.8</ele>
        <time>2020-06-10T17:25:04Z</time>
      </trkpt>
      <trkpt lat="48.56842" lon="-3.25689">
        <ele>161.8</ele>
        <time>2020-06-10T17:25:05Z</time>
      </trkpt>
      <trkpt lat="48.56841" lon="-3.25688">
        <ele>161.8</ele>
        <time>2020-06-10T17:25:06Z</time>
      </trkpt>
      <trkpt lat="48.56841" lon="-3.25687">
        <ele>161.8</ele>
        <time>2020-06-10T17:31:49Z</time>
      </trkpt>
      <trkpt lat="48.56841" lon="-3.25686">
        <ele>161.8</ele>
        <time>2020-06-10T17:31:50Z</time>
      </trkpt>
      <trkpt lat="48.5684" lon="-3.25682">
        <ele>161.8</ele>
        <time>2020-06-10T17:31:51Z</time>
      </trkpt>
      <trkpt lat="48.56839" lon="-3.25674">
        <ele>161.8</ele>
        <time>2020-06-10T17:31:52Z</time>
      </trkpt>
      <trkpt lat="48.56838" lon="-3.25669">
        <ele>161.8</ele>
        <time>2020-06-10T17:31:53Z</time>
      </trkpt>
      <trkpt lat="48.56838" lon="-3.25662">
        <ele>161.7</ele>
        <time>2020-06-10T17:31:54Z</time>
      </trkpt>
      <trkpt lat="48.56838" lon="-3.25656">
        <ele>161.7</ele>
        <time>2020-06-10T17:31:55Z</time>
      </trkpt>
      <trkpt lat="48.56837" lon="-3.25651">
        <ele>161.7</ele>
        <time>2020-06-10T17:31:56Z</time>
      </trkpt>
      <trkpt lat="48.56838" lon="-3.25644">
        <ele>161.6</ele>
        <time>2020-06-10T17:31:57Z</time>
      </trkpt>
      <trkpt lat="48.56838" lon="-3.25636">
        <ele>161.5</ele>
        <time>2020-06-10T17:31:58Z</time>
      </trkpt>
      <trkpt lat="48.56838" lon="-3.25629">
        <ele>161.4</ele>
        <time>2020-06-10T17:31:59Z</time>
      </trkpt>
      <trkpt lat="48.56838" lon="-3.25623">
        <ele>161.3</ele>
        <time>2020-06-10T17:32:00Z</time>
      </trkpt>
      <trkpt lat="48.56838" lon="-3.25617">
        <ele>161.2</ele>
        <time>2020-06-10T17:32:01Z</time>
      </trkpt>
      <trkpt lat="48.56838" lon="-3.25611">
        <ele>161.1</ele>
        <time>2020-06-10T17:32:02Z</time>
      </trkpt>
      <trkpt lat="48.56838" lon="-3.25604">
        <ele>160.9</ele>
        <time>2020-06-10T17:32:03Z</time>
      </trkpt>
      <trkpt lat="48.56839" lon="-3.25598">
        <ele>160.8</ele>
        <time>2020-06-10T17:32:04Z</time>
      </trkpt>
      <trkpt lat="48.56839" lon="-3.25591">
        <ele>160.6</ele>
        <time>2020-06-10T17:32:05Z</time>
      </trkpt>
      <trkpt lat="48.56839" lon="-3.25583">
        <ele>160.5</ele>
        <time>2020-06-10T17:32:06Z</time>
      </trkpt>
      <trkpt lat="48.56839" lon="-3.25575">
        <ele>160.3</ele>
        <time>2020-06-10T17:32:07Z</time>
      </trkpt>
      <trkpt lat="48.56838" lon="-3.25567">
        <ele>160.1</ele>
        <time>2020-06-10T17:32:08Z</time>
      </trkpt>
      <trkpt lat="48.56839" lon="-3.25558">
        <ele>159.9</ele>
        <time>2020-06-10T17:32:09Z</time>
      </trkpt>
      <trkpt lat="48.56838" lon="-3.2555">
        <ele>159.6</ele>
        <time>2020-06-10T17:32:10Z</time>
      </trkpt>
      <trkpt lat="48.56838" lon="-3.25541">
        <ele>159.4</ele>
        <time>2020-06-10T17:32:11Z</time>
      </trkpt>
      <trkpt lat="48.56838" lon="-3.25532">
        <ele>159.1</ele>
        <time>2020-06-10T17:32:12Z</time>
      </trkpt>
      <trkpt lat="48.56838" lon="-3.25522">
        <ele>158.8</ele>
        <time>2020-06-10T17:32:13Z</time>
      </trkpt>
      <trkpt lat="48.56837" lon="-3.25512">
        <ele>158.4</ele>
        <time>2020-06-10T17:32:14Z</time>
      </trkpt>
      <trkpt lat="48.56837" lon="-3.25502">
        <ele>158.1</ele>
        <time>2020-06-10T17:32:15Z</time>
      </trkpt>
      <trkpt lat="48.56837" lon="-3.25492">
        <ele>157.8</ele>
        <time>2020-06-10T17:32:16Z</time>
      </trkpt>
      <trkpt lat="48.56837" lon="-3.25482">
        <ele>157.4</ele>
        <time>2020-06-10T17:32:17Z</time>
      </trkpt>
      <trkpt lat="48.56838" lon="-3.25471">
        <ele>157</ele>
        <time>2020-06-10T17:32:18Z</time>
      </trkpt>
      <trkpt lat="48.56838" lon="-3.25461">
        <ele>156.6</ele>
        <time>2020-06-10T17:32:19Z</time>
      </trkpt>
      <trkpt lat="48.56838" lon="-3.2545">
        <ele>156.2</ele>
        <time>2020-06-10T17:32:20Z</time>
      </trkpt>
      <trkpt lat="48.56838" lon="-3.25438">
        <ele>155.7</ele>
        <time>2020-06-10T17:32:21Z</time>
      </trkpt>
      <trkpt lat="48.56838" lon="-3.25426">
        <ele>155.2</ele>
        <time>2020-06-10T17:32:22Z</time>
      </trkpt>
      <trkpt lat="48.56838" lon="-3.25414">
        <ele>154.6</ele>
        <time>2020-06-10T17:32:23Z</time>
      </trkpt>
      <trkpt lat="48.56837" lon="-3.25401">
        <ele>154</ele>
        <time>2020-06-10T17:32:24Z</time>
      </trkpt>
      <trkpt lat="48.56837" lon="-3.25388">
        <ele>153.4</ele>
        <time>2020-06-10T17:32:25Z</time>
      </trkpt>
      <trkpt lat="48.56837" lon="-3.25374">
        <ele>152.8</ele>
        <time>2020-06-10T17:32:26Z</time>
      </trkpt>
      <trkpt lat="48.56837" lon="-3.2536">
        <ele>152.2</ele>
        <time>2020-06-10T17:32:27Z</time>
      </trkpt>
      <trkpt lat="48.56838" lon="-3.25346">
        <ele>151.7</ele>
        <time>2020-06-10T17:32:28Z</time>
      </trkpt>
      <trkpt lat="48.56838" lon="-3.25331">
        <ele>151.2</ele>
        <time>2020-06-10T17:32:29Z</time>
      </trkpt>
      <trkpt lat="48.56838" lon="-3.25316">
        <ele>150.9</ele>
        <time>2020-06-10T17:32:30Z</time>
      </trkpt>
      <trkpt lat="48.56838" lon="-3.25302">
        <ele>150.5</ele>
        <time>2020-06-10T17:32:31Z</time>
      </trkpt>
      <trkpt lat="48.56838" lon="-3.25287">
        <ele>150.7</ele>
        <time>2020-06-10T17:32:32Z</time>
      </trkpt>
      <trkpt lat="48.56838" lon="-3.25273">
        <ele>151.4</ele>
        <time>2020-06-10T17:32:33Z</time>
      </trkpt>
      <trkpt lat="48.56838" lon="-3.2526">
        <ele>151.8</ele>
        <time>2020-06-10T17:32:34Z</time>
      </trkpt>
      <trkpt lat="48.56838" lon="-3.25247">
        <ele>152</ele>
        <time>2020-06-10T17:32:35Z</time>
      </trkpt>
      <trkpt lat="48.56838" lon="-3.25234">
        <ele>152.2</ele>
        <time>2020-06-10T17:32:36Z</time>
      </trkpt>
      <trkpt lat="48.56838" lon="-3.25223">
        <ele>152.5</ele>
        <time>2020-06-10T17:32:37Z</time>
      </trkpt>
      <trkpt lat="48.56838" lon="-3.25211">
        <ele>152.8</ele>
        <time>2020-06-10T17:32:38Z</time>
      </trkpt>
      <trkpt lat="48.56838" lon="-3.25201">
        <ele>153.1</ele>
        <time>2020-06-10T17:32:39Z</time>
      </trkpt>
      <trkpt lat="48.56837" lon="-3.25191">
        <ele>153.4</ele>
        <time>2020-06-10T17:32:40Z</time>
      </trkpt>
      <trkpt lat="48.56837" lon="-3.25181">
        <ele>153.8</ele>
        <time>2020-06-10T17:32:41Z</time>
      </trkpt>
      <trkpt lat="48.56836" lon="-3.25172">
        <ele>154.1</ele>
        <time>2020-06-10T17:32:42Z</time>
      </trkpt>
      <trkpt lat="48.56836" lon="-3.25163">
        <ele>154.5</ele>
        <time>2020-06-10T17:32:43Z</time>
      </trkpt>
      <trkpt lat="48.56835" lon="-3.25155">
        <ele>154.8</ele>
        <time>2020-06-10T17:32:44Z</time>
      </trkpt>
      <trkpt lat="48.56834" lon="-3.25147">
        <ele>155.1</ele>
        <time>2020-06-10T17:32:45Z</time>
      </trkpt>
      <trkpt lat="48.56834" lon="-3.2514">
        <ele>155.4</ele>
        <time>2020-06-10T17:32:46Z</time>
      </trkpt>
      <trkpt lat="48.56833" lon="-3.25132">
        <ele>155.7</ele>
        <time>2020-06-10T17:32:47Z</time>
      </trkpt>
      <trkpt lat="48.56833" lon="-3.25125">
        <ele>156</ele>
        <time>2020-06-10T17:32:48Z</time>
      </trkpt>
      <trkpt lat="48.56833" lon="-3.25118">
        <ele>156.2</ele>
        <time>2020-06-10T17:32:49Z</time>
      </trkpt>
      <trkpt lat="48.56833" lon="-3.25111">
        <ele>156.5</ele>
        <time>2020-06-10T17:32:50Z</time>
      </trkpt>
      <trkpt lat="48.56832" lon="-3.25104">
        <ele>156.7</ele>
        <time>2020-06-10T17:32:51Z</time>
      </trkpt>
      <trkpt lat="48.56832" lon="-3.25097">
        <ele>156.9</ele>
        <time>2020-06-10T17:32:52Z</time>
      </trkpt>
      <trkpt lat="48.56831" lon="-3.25091">
        <ele>157.1</ele>
        <time>2020-06-10T17:32:53Z</time>
      </trkpt>
      <trkpt lat="48.56831" lon="-3.25084">
        <ele>157.3</ele>
        <time>2020-06-10T17:32:54Z</time>
      </trkpt>
      <trkpt lat="48.56831" lon="-3.25077">
        <ele>157.5</ele>
        <time>2020-06-10T17:32:55Z</time>
      </trkpt>
      <trkpt lat="48.5683" lon="-3.25071">
        <ele>157.7</ele>
        <time>2020-06-10T17:32:56Z</time>
      </trkpt>
      <trkpt lat="48.5683" lon="-3.25064">
        <ele>157.8</ele>
        <time>2020-06-10T17:32:57Z</time>
      </trkpt>
      <trkpt lat="48.56829" lon="-3.25057">
        <ele>158</ele>
        <time>2020-06-10T17:32:58Z</time>
      </trkpt>
      <trkpt lat="48.56828" lon="-3.25051">
        <ele>158.2</ele>
        <time>2020-06-10T17:32:59Z</time>
      </trkpt>
      <trkpt lat="48.56828" lon="-3.25043">
        <ele>158.3</ele>
        <time>2020-06-10T17:33:00Z</time>
      </trkpt>
      <trkpt lat="48.56827" lon="-3.25036">
        <ele>158.5</ele>
        <time>2020-06-10T17:33:01Z</time>
      </trkpt>
      <trkpt lat="48.56827" lon="-3.25029">
        <ele>158.6</ele>
        <time>2020-06-10T17:33:02Z</time>
      </trkpt>
      <trkpt lat="48.56827" lon="-3.25023">
        <ele>158.7</ele>
        <time>2020-06-10T17:33:03Z</time>
      </trkpt>
      <trkpt lat="48.56827" lon="-3.25015">
        <ele>158.9</ele>
        <time>2020-06-10T17:33:04Z</time>
      </trkpt>
      <trkpt lat="48.56826" lon="-3.25008">
        <ele>159</ele>
        <time>2020-06-10T17:33:05Z</time>
      </trkpt>
      <trkpt lat="48.56825" lon="-3.25001">
        <ele>159.1</ele>
        <time>2020-06-10T17:33:06Z</time>
      </trkpt>
      <trkpt lat="48.56825" lon="-3.24996">
        <ele>159.2</ele>
        <time>2020-06-10T17:33:07Z</time>
      </trkpt>
      <trkpt lat="48.56825" lon="-3.24989">
        <ele>159.3</ele>
        <time>2020-06-10T17:33:08Z</time>
      </trkpt>
      <trkpt lat="48.56824" lon="-3.24983">
        <ele>159.5</ele>
        <time>2020-06-10T17:33:09Z</time>
      </trkpt>
      <trkpt lat="48.56824" lon="-3.24977">
        <ele>159.6</ele>
        <time>2020-06-10T17:33:10Z</time>
      </trkpt>
      <trkpt lat="48.56824" lon="-3.24969">
        <ele>159.7</ele>
        <time>2020-06-10T17:33:11Z</time>
      </trkpt>
      <trkpt lat="48.56824" lon="-3.24961">
        <ele>159.8</ele>
        <time>2020-06-10T17:33:12Z</time>
      </trkpt>
      <trkpt lat="48.56823" lon="-3.24954">
        <ele>159.9</ele>
        <time>2020-06-10T17:33:13Z</time>
      </trkpt>
      <trkpt lat="48.56823" lon="-3.24947">
        <ele>160</ele>
        <time>2020-06-10T17:33:14Z</time>
      </trkpt>
      <trkpt lat="48.56823" lon="-3.2494">
        <ele>160.1</ele>
        <time>2020-06-10T17:33:15Z</time>
      </trkpt>
      <trkpt lat="48.56823" lon="-3.24933">
        <ele>160.2</ele>
        <time>2020-06-10T17:33:16Z</time>
      </trkpt>
      <trkpt lat="48.56822" lon="-3.24926">
        <ele>160.2</ele>
        <time>2020-06-10T17:33:17Z</time>
      </trkpt>
      <trkpt lat="48.56822" lon="-3.24918">
        <ele>160.3</ele>
        <time>2020-06-10T17:33:18Z</time>
      </trkpt>
      <trkpt lat="48.56822" lon="-3.24912">
        <ele>160.4</ele>
        <time>2020-06-10T17:33:19Z</time>
      </trkpt>
      <trkpt lat="48.56823" lon="-3.24905">
        <ele>160.4</ele>
        <time>2020-06-10T17:33:20Z</time>
      </trkpt>
      <trkpt lat="48.56822" lon="-3.24899">
        <ele>160.5</ele>
        <time>2020-06-10T17:33:21Z</time>
      </trkpt>
      <trkpt lat="48.56822" lon="-3.24894">
        <ele>160.5</ele>
        <time>2020-06-10T17:33:22Z</time>
      </trkpt>
      <trkpt lat="48.56822" lon="-3.24889">
        <ele>160.5</ele>
        <time>2020-06-10T17:33:23Z</time>
      </trkpt>
      <trkpt lat="48.56822" lon="-3.24882">
        <ele>160.6</ele>
        <time>2020-06-10T17:33:24Z</time>
      </trkpt>
      <trkpt lat="48.56822" lon="-3.24875">
        <ele>160.6</ele>
        <time>2020-06-10T17:33:25Z</time>
      </trkpt>
      <trkpt lat="48.56821" lon="-3.24869">
        <ele>160.6</ele>
        <time>2020-06-10T17:33:26Z</time>
      </trkpt>
      <trkpt lat="48.56821" lon="-3.24863">
        <ele>160.7</ele>
        <time>2020-06-10T17:33:27Z</time>
      </trkpt>
      <trkpt lat="48.56821" lon="-3.24857">
        <ele>160.7</ele>
        <time>2020-06-10T17:33:28Z</time>
      </trkpt>
      <trkpt lat="48.5682" lon="-3.24851">
        <ele>160.7</ele>
        <time>2020-06-10T17:33:29Z</time>
      </trkpt>
      <trkpt lat="48.5682" lon="-3.24843">
        <ele>160.7</ele>
        <time>2020-06-10T17:33:30Z</time>
      </trkpt>
      <trkpt lat="48.5682" lon="-3.24836">
        <ele>160.7</ele>
        <time>2020-06-10T17:33:31Z</time>
      </trkpt>
      <trkpt lat="48.56819" lon="-3.24829">
        <ele>160.7</ele>
        <time>2020-06-10T17:33:32Z</time>
      </trkpt>
      <trkpt lat="48.56819" lon="-3.24822">
        <ele>160.7</ele>
        <time>2020-06-10T17:33:33Z</time>
      </trkpt>
      <trkpt lat="48.56818" lon="-3.24815">
        <ele>160.7</ele>
        <time>2020-06-10T17:33:34Z</time>
      </trkpt>
      <trkpt lat="48.56818" lon="-3.24807">
        <ele>160.8</ele>
        <time>2020-06-10T17:33:35Z</time>
      </trkpt>
      <trkpt lat="48.56818" lon="-3.248">
        <ele>160.8</ele>
        <time>2020-06-10T17:33:36Z</time>
      </trkpt>
      <trkpt lat="48.56818" lon="-3.24793">
        <ele>160.8</ele>
        <time>2020-06-10T17:33:37Z</time>
      </trkpt>
      <trkpt lat="48.56818" lon="-3.24786">
        <ele>160.8</ele>
        <time>2020-06-10T17:33:38Z</time>
      </trkpt>
      <trkpt lat="48.56818" lon="-3.24778">
        <ele>160.9</ele>
        <time>2020-06-10T17:33:39Z</time>
      </trkpt>
      <trkpt lat="48.56817" lon="-3.24769">
        <ele>161</ele>
        <time>2020-06-10T17:33:40Z</time>
      </trkpt>
      <trkpt lat="48.56817" lon="-3.24761">
        <ele>161</ele>
        <time>2020-06-10T17:33:41Z</time>
      </trkpt>
      <trkpt lat="48.56817" lon="-3.24756">
        <ele>161.1</ele>
        <time>2020-06-10T17:33:42Z</time>
      </trkpt>
      <trkpt lat="48.56817" lon="-3.2475">
        <ele>161.2</ele>
        <time>2020-06-10T17:33:43Z</time>
      </trkpt>
      <trkpt lat="48.56816" lon="-3.24743">
        <ele>161.3</ele>
        <time>2020-06-10T17:33:44Z</time>
      </trkpt>
      <trkpt lat="48.56816" lon="-3.24737">
        <ele>161.4</ele>
        <time>2020-06-10T17:33:45Z</time>
      </trkpt>
      <trkpt lat="48.56816" lon="-3.24731">
        <ele>161.5</ele>
        <time>2020-06-10T17:33:46Z</time>
      </trkpt>
      <trkpt lat="48.56815" lon="-3.24724">
        <ele>161.6</ele>
        <time>2020-06-10T17:33:47Z</time>
      </trkpt>
      <trkpt lat="48.56815" lon="-3.24717">
        <ele>161.8</ele>
        <time>2020-06-10T17:33:48Z</time>
      </trkpt>
      <trkpt lat="48.56815" lon="-3.24711">
        <ele>161.9</ele>
        <time>2020-06-10T17:33:49Z</time>
      </trkpt>
      <trkpt lat="48.56814" lon="-3.24704">
        <ele>162</ele>
        <time>2020-06-10T17:33:50Z</time>
      </trkpt>
      <trkpt lat="48.56814" lon="-3.24697">
        <ele>162.1</ele>
        <time>2020-06-10T17:33:51Z</time>
      </trkpt>
      <trkpt lat="48.56813" lon="-3.2469">
        <ele>162.3</ele>
        <time>2020-06-10T17:33:52Z</time>
      </trkpt>
      <trkpt lat="48.56813" lon="-3.24683">
        <ele>162.4</ele>
        <time>2020-06-10T17:33:53Z</time>
      </trkpt>
      <trkpt lat="48.56813" lon="-3.24678">
        <ele>162.5</ele>
        <time>2020-06-10T17:33:54Z</time>
      </trkpt>
      <trkpt lat="48.56812" lon="-3.24671">
        <ele>162.6</ele>
        <time>2020-06-10T17:33:55Z</time>
      </trkpt>
      <trkpt lat="48.56812" lon="-3.24665">
        <ele>162.7</ele>
        <time>2020-06-10T17:33:56Z</time>
      </trkpt>
      <trkpt lat="48.56811" lon="-3.24658">
        <ele>162.9</ele>
        <time>2020-06-10T17:33:57Z</time>
      </trkpt>
      <trkpt lat="48.56811" lon="-3.24651">
        <ele>163</ele>
        <time>2020-06-10T17:33:58Z</time>
      </trkpt>
      <trkpt lat="48.5681" lon="-3.24645">
        <ele>163.2</ele>
        <time>2020-06-10T17:33:59Z</time>
      </trkpt>
      <trkpt lat="48.5681" lon="-3.2464">
        <ele>163.3</ele>
        <time>2020-06-10T17:34:00Z</time>
      </trkpt>
      <trkpt lat="48.5681" lon="-3.24633">
        <ele>163.5</ele>
        <time>2020-06-10T17:34:01Z</time>
      </trkpt>
      <trkpt lat="48.5681" lon="-3.24627">
        <ele>163.7</ele>
        <time>2020-06-10T17:34:02Z</time>
      </trkpt>
      <trkpt lat="48.56809" lon="-3.2462">
        <ele>163.8</ele>
        <time>2020-06-10T17:34:03Z</time>
      </trkpt>
      <trkpt lat="48.56808" lon="-3.24614">
        <ele>164</ele>
        <time>2020-06-10T17:34:04Z</time>
      </trkpt>
      <trkpt lat="48.56808" lon="-3.24607">
        <ele>164.2</ele>
        <time>2020-06-10T17:34:05Z</time>
      </trkpt>
      <trkpt lat="48.56808" lon="-3.24601">
        <ele>164.4</ele>
        <time>2020-06-10T17:34:06Z</time>
      </trkpt>
      <trkpt lat="48.56808" lon="-3.24593">
        <ele>164.6</ele>
        <time>2020-06-10T17:34:07Z</time>
      </trkpt>
      <trkpt lat="48.56808" lon="-3.24587">
        <ele>164.8</ele>
        <time>2020-06-10T17:34:08Z</time>
      </trkpt>
      <trkpt lat="48.56808" lon="-3.24583">
        <ele>164.9</ele>
        <time>2020-06-10T17:34:09Z</time>
      </trkpt>
      <trkpt lat="48.56808" lon="-3.24577">
        <ele>165.1</ele>
        <time>2020-06-10T17:34:10Z</time>
      </trkpt>
      <trkpt lat="48.56808" lon="-3.24571">
        <ele>165.3</ele>
        <time>2020-06-10T17:34:11Z</time>
      </trkpt>
      <trkpt lat="48.56808" lon="-3.24565">
        <ele>165.5</ele>
        <time>2020-06-10T17:34:12Z</time>
      </trkpt>
      <trkpt lat="48.56806" lon="-3.2456">
        <ele>165.7</ele>
        <time>2020-06-10T17:34:13Z</time>
      </trkpt>
      <trkpt lat="48.56806" lon="-3.24556">
        <ele>165.8</ele>
        <time>2020-06-10T17:34:14Z</time>
      </trkpt>
      <trkpt lat="48.56805" lon="-3.24551">
        <ele>166</ele>
        <time>2020-06-10T17:34:15Z</time>
      </trkpt>
      <trkpt lat="48.56805" lon="-3.24546">
        <ele>166.2</ele>
        <time>2020-06-10T17:34:16Z</time>
      </trkpt>
      <trkpt lat="48.56805" lon="-3.2454">
        <ele>166.3</ele>
        <time>2020-06-10T17:34:17Z</time>
      </trkpt>
      <trkpt lat="48.56805" lon="-3.24535">
        <ele>166.5</ele>
        <time>2020-06-10T17:34:18Z</time>
      </trkpt>
      <trkpt lat="48.56804" lon="-3.24529">
        <ele>166.7</ele>
        <time>2020-06-10T17:34:19Z</time>
      </trkpt>
      <trkpt lat="48.56804" lon="-3.24527">
        <ele>166.8</ele>
        <time>2020-06-10T17:34:20Z</time>
      </trkpt>
      <trkpt lat="48.56803" lon="-3.24522">
        <ele>166.9</ele>
        <time>2020-06-10T17:34:21Z</time>
      </trkpt>
      <trkpt lat="48.56803" lon="-3.24518">
        <ele>167.1</ele>
        <time>2020-06-10T17:34:22Z</time>
      </trkpt>
      <trkpt lat="48.56803" lon="-3.24512">
        <ele>167.3</ele>
        <time>2020-06-10T17:34:23Z</time>
      </trkpt>
      <trkpt lat="48.56802" lon="-3.24507">
        <ele>167.4</ele>
        <time>2020-06-10T17:34:24Z</time>
      </trkpt>
      <trkpt lat="48.56801" lon="-3.24503">
        <ele>167.6</ele>
        <time>2020-06-10T17:34:25Z</time>
      </trkpt>
      <trkpt lat="48.56801" lon="-3.24498">
        <ele>167.8</ele>
        <time>2020-06-10T17:34:26Z</time>
      </trkpt>
      <trkpt lat="48.56801" lon="-3.24491">
        <ele>168</ele>
        <time>2020-06-10T17:34:27Z</time>
      </trkpt>
      <trkpt lat="48.56801" lon="-3.24488">
        <ele>168.1</ele>
        <time>2020-06-10T17:34:28Z</time>
      </trkpt>
      <trkpt lat="48.568" lon="-3.24482">
        <ele>168.3</ele>
        <time>2020-06-10T17:34:29Z</time>
      </trkpt>
      <trkpt lat="48.568" lon="-3.24476">
        <ele>168.5</ele>
        <time>2020-06-10T17:34:30Z</time>
      </trkpt>
      <trkpt lat="48.568" lon="-3.24471">
        <ele>168.7</ele>
        <time>2020-06-10T17:34:31Z</time>
      </trkpt>
      <trkpt lat="48.56799" lon="-3.24464">
        <ele>168.9</ele>
        <time>2020-06-10T17:34:32Z</time>
      </trkpt>
      <trkpt lat="48.56799" lon="-3.2446">
        <ele>169.1</ele>
        <time>2020-06-10T17:34:33Z</time>
      </trkpt>
      <trkpt lat="48.568" lon="-3.24455">
        <ele>169.3</ele>
        <time>2020-06-10T17:34:34Z</time>
      </trkpt>
      <trkpt lat="48.568" lon="-3.24451">
        <ele>169.4</ele>
        <time>2020-06-10T17:34:35Z</time>
      </trkpt>
      <trkpt lat="48.568" lon="-3.24448">
        <ele>169.5</ele>
        <time>2020-06-10T17:34:36Z</time>
      </trkpt>
      <trkpt lat="48.568" lon="-3.24443">
        <ele>169.7</ele>
        <time>2020-06-10T17:34:37Z</time>
      </trkpt>
      <trkpt lat="48.568" lon="-3.24439">
        <ele>169.9</ele>
        <time>2020-06-10T17:34:38Z</time>
      </trkpt>
      <trkpt lat="48.568" lon="-3.24433">
        <ele>170.1</ele>
        <time>2020-06-10T17:34:39Z</time>
      </trkpt>
      <trkpt lat="48.568" lon="-3.24428">
        <ele>170.3</ele>
        <time>2020-06-10T17:34:40Z</time>
      </trkpt>
      <trkpt lat="48.568" lon="-3.24422">
        <ele>170.5</ele>
        <time>2020-06-10T17:34:41Z</time>
      </trkpt>
      <trkpt lat="48.568" lon="-3.24416">
        <ele>170.7</ele>
        <time>2020-06-10T17:34:42Z</time>
      </trkpt>
      <trkpt lat="48.56799" lon="-3.24411">
        <ele>170.9</ele>
        <time>2020-06-10T17:34:43Z</time>
      </trkpt>
      <trkpt lat="48.56798" lon="-3.24405">
        <ele>171.1</ele>
        <time>2020-06-10T17:34:44Z</time>
      </trkpt>
      <trkpt lat="48.56798" lon="-3.24398">
        <ele>171.3</ele>
        <time>2020-06-10T17:34:45Z</time>
      </trkpt>
      <trkpt lat="48.56797" lon="-3.24394">
        <ele>171.4</ele>
        <time>2020-06-10T17:34:46Z</time>
      </trkpt>
      <trkpt lat="48.56796" lon="-3.24389">
        <ele>171.5</ele>
        <time>2020-06-10T17:34:47Z</time>
      </trkpt>
      <trkpt lat="48.56795" lon="-3.24384">
        <ele>171.6</ele>
        <time>2020-06-10T17:34:48Z</time>
      </trkpt>
      <trkpt lat="48.56794" lon="-3.24379">
        <ele>171.8</ele>
        <time>2020-06-10T17:34:49Z</time>
      </trkpt>
      <trkpt lat="48.56793" lon="-3.24373">
        <ele>172.1</ele>
        <time>2020-06-10T17:34:50Z</time>
      </trkpt>
      <trkpt lat="48.56792" lon="-3.24367">
        <ele>172.3</ele>
        <time>2020-06-10T17:34:51Z</time>
      </trkpt>
      <trkpt lat="48.56792" lon="-3.24361">
        <ele>172.5</ele>
        <time>2020-06-10T17:34:52Z</time>
      </trkpt>
      <trkpt lat="48.56792" lon="-3.24355">
        <ele>172.7</ele>
        <time>2020-06-10T17:34:53Z</time>
      </trkpt>
      <trkpt lat="48.56793" lon="-3.24349">
        <ele>172.8</ele>
        <time>2020-06-10T17:34:54Z</time>
      </trkpt>
      <trkpt lat="48.56793" lon="-3.24343">
        <ele>172.9</ele>
        <time>2020-06-10T17:34:55Z</time>
      </trkpt>
      <trkpt lat="48.56793" lon="-3.24337">
        <ele>172.9</ele>
        <time>2020-06-10T17:34:56Z</time>
      </trkpt>
      <trkpt lat="48.56792" lon="-3.24331">
        <ele>173</ele>
        <time>2020-06-10T17:34:57Z</time>
      </trkpt>
      <trkpt lat="48.56792" lon="-3.24328">
        <ele>173</ele>
        <time>2020-06-10T17:34:58Z</time>
      </trkpt>
      <trkpt lat="48.56791" lon="-3.24322">
        <ele>173.1</ele>
        <time>2020-06-10T17:34:59Z</time>
      </trkpt>
      <trkpt lat="48.56791" lon="-3.24315">
        <ele>173.2</ele>
        <time>2020-06-10T17:35:00Z</time>
      </trkpt>
      <trkpt lat="48.56789" lon="-3.24309">
        <ele>173.2</ele>
        <time>2020-06-10T17:35:01Z</time>
      </trkpt>
      <trkpt lat="48.56789" lon="-3.24303">
        <ele>173.3</ele>
        <time>2020-06-10T17:35:02Z</time>
      </trkpt>
      <trkpt lat="48.56788" lon="-3.24296">
        <ele>173.3</ele>
        <time>2020-06-10T17:35:03Z</time>
      </trkpt>
      <trkpt lat="48.56788" lon="-3.24291">
        <ele>173.4</ele>
        <time>2020-06-10T17:35:04Z</time>
      </trkpt>
      <trkpt lat="48.56786" lon="-3.24285">
        <ele>173.4</ele>
        <time>2020-06-10T17:35:05Z</time>
      </trkpt>
      <trkpt lat="48.56785" lon="-3.24279">
        <ele>173.4</ele>
        <time>2020-06-10T17:35:06Z</time>
      </trkpt>
      <trkpt lat="48.56784" lon="-3.24272">
        <ele>173.5</ele>
        <time>2020-06-10T17:35:07Z</time>
      </trkpt>
      <trkpt lat="48.56783" lon="-3.24267">
        <ele>173.5</ele>
        <time>2020-06-10T17:35:08Z</time>
      </trkpt>
      <trkpt lat="48.56782" lon="-3.24262">
        <ele>173.5</ele>
        <time>2020-06-10T17:35:09Z</time>
      </trkpt>
      <trkpt lat="48.56781" lon="-3.24255">
        <ele>173.5</ele>
        <time>2020-06-10T17:35:10Z</time>
      </trkpt>
      <trkpt lat="48.5678" lon="-3.24248">
        <ele>173.5</ele>
        <time>2020-06-10T17:35:11Z</time>
      </trkpt>
      <trkpt lat="48.56778" lon="-3.2424">
        <ele>173.6</ele>
        <time>2020-06-10T17:35:12Z</time>
      </trkpt>
      <trkpt lat="48.56777" lon="-3.24233">
        <ele>173.6</ele>
        <time>2020-06-10T17:35:13Z</time>
      </trkpt>
      <trkpt lat="48.56775" lon="-3.24227">
        <ele>173.6</ele>
        <time>2020-06-10T17:35:14Z</time>
      </trkpt>
      <trkpt lat="48.56774" lon="-3.24221">
        <ele>173.6</ele>
        <time>2020-06-10T17:35:15Z</time>
      </trkpt>
      <trkpt lat="48.56772" lon="-3.24216">
        <ele>173.6</ele>
        <time>2020-06-10T17:35:16Z</time>
      </trkpt>
      <trkpt lat="48.56772" lon="-3.24212">
        <ele>173.6</ele>
        <time>2020-06-10T17:35:17Z</time>
      </trkpt>
      <trkpt lat="48.56771" lon="-3.24205">
        <ele>173.7</ele>
        <time>2020-06-10T17:35:18Z</time>
      </trkpt>
      <trkpt lat="48.56769" lon="-3.24198">
        <ele>173.7</ele>
        <time>2020-06-10T17:35:19Z</time>
      </trkpt>
      <trkpt lat="48.56768" lon="-3.24192">
        <ele>173.7</ele>
        <time>2020-06-10T17:35:20Z</time>
      </trkpt>
      <trkpt lat="48.56766" lon="-3.24186">
        <ele>173.7</ele>
        <time>2020-06-10T17:35:21Z</time>
      </trkpt>
      <trkpt lat="48.56764" lon="-3.24179">
        <ele>173.7</ele>
        <time>2020-06-10T17:35:22Z</time>
      </trkpt>
      <trkpt lat="48.56763" lon="-3.24173">
        <ele>173.7</ele>
        <time>2020-06-10T17:35:23Z</time>
      </trkpt>
      <trkpt lat="48.56763" lon="-3.24167">
        <ele>173.7</ele>
        <time>2020-06-10T17:35:24Z</time>
      </trkpt>
      <trkpt lat="48.56763" lon="-3.24164">
        <ele>173.7</ele>
        <time>2020-06-10T17:35:25Z</time>
      </trkpt>
      <trkpt lat="48.56762" lon="-3.24157">
        <ele>173.7</ele>
        <time>2020-06-10T17:35:26Z</time>
      </trkpt>
      <trkpt lat="48.56761" lon="-3.24149">
        <ele>173.7</ele>
        <time>2020-06-10T17:35:27Z</time>
      </trkpt>
      <trkpt lat="48.5676" lon="-3.24142">
        <ele>173.7</ele>
        <time>2020-06-10T17:35:28Z</time>
      </trkpt>
      <trkpt lat="48.5676" lon="-3.24135">
        <ele>173.8</ele>
        <time>2020-06-10T17:35:29Z</time>
      </trkpt>
      <trkpt lat="48.56758" lon="-3.24129">
        <ele>173.8</ele>
        <time>2020-06-10T17:35:30Z</time>
      </trkpt>
      <trkpt lat="48.56757" lon="-3.24125">
        <ele>173.8</ele>
        <time>2020-06-10T17:35:31Z</time>
      </trkpt>
      <trkpt lat="48.56757" lon="-3.24118">
        <ele>173.8</ele>
        <time>2020-06-10T17:35:32Z</time>
      </trkpt>
      <trkpt lat="48.56755" lon="-3.24109">
        <ele>173.8</ele>
        <time>2020-06-10T17:35:33Z</time>
      </trkpt>
      <trkpt lat="48.56754" lon="-3.24101">
        <ele>173.7</ele>
        <time>2020-06-10T17:35:34Z</time>
      </trkpt>
      <trkpt lat="48.56753" lon="-3.24094">
        <ele>173.7</ele>
        <time>2020-06-10T17:35:35Z</time>
      </trkpt>
      <trkpt lat="48.56753" lon="-3.2409">
        <ele>173.7</ele>
        <time>2020-06-10T17:35:36Z</time>
      </trkpt>
      <trkpt lat="48.56753" lon="-3.24084">
        <ele>173.7</ele>
        <time>2020-06-10T17:35:37Z</time>
      </trkpt>
      <trkpt lat="48.56752" lon="-3.24078">
        <ele>173.7</ele>
        <time>2020-06-10T17:35:38Z</time>
      </trkpt>
      <trkpt lat="48.56751" lon="-3.24072">
        <ele>173.7</ele>
        <time>2020-06-10T17:35:39Z</time>
      </trkpt>
      <trkpt lat="48.5675" lon="-3.24065">
        <ele>173.7</ele>
        <time>2020-06-10T17:35:40Z</time>
      </trkpt>
      <trkpt lat="48.56749" lon="-3.24058">
        <ele>173.8</ele>
        <time>2020-06-10T17:35:41Z</time>
      </trkpt>
      <trkpt lat="48.56748" lon="-3.2405">
        <ele>173.8</ele>
        <time>2020-06-10T17:35:42Z</time>
      </trkpt>
      <trkpt lat="48.56746" lon="-3.24042">
        <ele>173.7</ele>
        <time>2020-06-10T17:35:43Z</time>
      </trkpt>
      <trkpt lat="48.56744" lon="-3.24037">
        <ele>173.7</ele>
        <time>2020-06-10T17:35:44Z</time>
      </trkpt>
      <trkpt lat="48.56743" lon="-3.24031">
        <ele>173.7</ele>
        <time>2020-06-10T17:35:45Z</time>
      </trkpt>
      <trkpt lat="48.56742" lon="-3.24024">
        <ele>173.7</ele>
        <time>2020-06-10T17:35:46Z</time>
      </trkpt>
      <trkpt lat="48.56741" lon="-3.24017">
        <ele>173.6</ele>
        <time>2020-06-10T17:35:47Z</time>
      </trkpt>
      <trkpt lat="48.5674" lon="-3.2401">
        <ele>173.6</ele>
        <time>2020-06-10T17:35:48Z</time>
      </trkpt>
      <trkpt lat="48.56738" lon="-3.24">
        <ele>173.6</ele>
        <time>2020-06-10T17:35:49Z</time>
      </trkpt>
      <trkpt lat="48.56738" lon="-3.23993">
        <ele>173.6</ele>
        <time>2020-06-10T17:35:50Z</time>
      </trkpt>
      <trkpt lat="48.56736" lon="-3.23985">
        <ele>173.6</ele>
        <time>2020-06-10T17:35:51Z</time>
      </trkpt>
      <trkpt lat="48.56735" lon="-3.23978">
        <ele>173.6</ele>
        <time>2020-06-10T17:35:52Z</time>
      </trkpt>
      <trkpt lat="48.56734" lon="-3.23972">
        <ele>173.6</ele>
        <time>2020-06-10T17:35:53Z</time>
      </trkpt>
      <trkpt lat="48.56733" lon="-3.23965">
        <ele>173.6</ele>
        <time>2020-06-10T17:35:54Z</time>
      </trkpt>
      <trkpt lat="48.56732" lon="-3.23958">
        <ele>173.6</ele>
        <time>2020-06-10T17:35:55Z</time>
      </trkpt>
      <trkpt lat="48.56731" lon="-3.23951">
        <ele>173.6</ele>
        <time>2020-06-10T17:35:56Z</time>
      </trkpt>
      <trkpt lat="48.5673" lon="-3.23945">
        <ele>173.7</ele>
        <time>2020-06-10T17:35:57Z</time>
      </trkpt>
      <trkpt lat="48.56728" lon="-3.23938">
        <ele>173.7</ele>
        <time>2020-06-10T17:35:58Z</time>
      </trkpt>
      <trkpt lat="48.56727" lon="-3.23932">
        <ele>173.7</ele>
        <time>2020-06-10T17:35:59Z</time>
      </trkpt>
      <trkpt lat="48.56725" lon="-3.23924">
        <ele>173.7</ele>
        <time>2020-06-10T17:36:00Z</time>
      </trkpt>
      <trkpt lat="48.56724" lon="-3.23919">
        <ele>173.7</ele>
        <time>2020-06-10T17:36:01Z</time>
      </trkpt>
      <trkpt lat="48.56723" lon="-3.23915">
        <ele>173.7</ele>
        <time>2020-06-10T17:36:02Z</time>
      </trkpt>
      <trkpt lat="48.56721" lon="-3.23909">
        <ele>173.8</ele>
        <time>2020-06-10T17:36:03Z</time>
      </trkpt>
      <trkpt lat="48.56718" lon="-3.23904">
        <ele>173.8</ele>
        <time>2020-06-10T17:36:04Z</time>
      </trkpt>
      <trkpt lat="48.56715" lon="-3.23897">
        <ele>173.8</ele>
        <time>2020-06-10T17:36:05Z</time>
      </trkpt>
      <trkpt lat="48.56711" lon="-3.2389">
        <ele>173.8</ele>
        <time>2020-06-10T17:36:06Z</time>
      </trkpt>
      <trkpt lat="48.56708" lon="-3.23882">
        <ele>173.9</ele>
        <time>2020-06-10T17:36:07Z</time>
      </trkpt>
      <trkpt lat="48.56705" lon="-3.23876">
        <ele>173.9</ele>
        <time>2020-06-10T17:36:08Z</time>
      </trkpt>
      <trkpt lat="48.56702" lon="-3.23869">
        <ele>174</ele>
        <time>2020-06-10T17:36:09Z</time>
      </trkpt>
      <trkpt lat="48.56699" lon="-3.23864">
        <ele>174.1</ele>
        <time>2020-06-10T17:36:10Z</time>
      </trkpt>
      <trkpt lat="48.56696" lon="-3.23859">
        <ele>174.1</ele>
        <time>2020-06-10T17:36:11Z</time>
      </trkpt>
      <trkpt lat="48.56691" lon="-3.23853">
        <ele>174.3</ele>
        <time>2020-06-10T17:36:12Z</time>
      </trkpt>
      <trkpt lat="48.56687" lon="-3.23846">
        <ele>174.5</ele>
        <time>2020-06-10T17:36:13Z</time>
      </trkpt>
      <trkpt lat="48.56683" lon="-3.23842">
        <ele>174.6</ele>
        <time>2020-06-10T17:36:14Z</time>
      </trkpt>
      <trkpt lat="48.5668" lon="-3.23837">
        <ele>174.6</ele>
        <time>2020-06-10T17:36:15Z</time>
      </trkpt>
      <trkpt lat="48.56677" lon="-3.23833">
        <ele>174.7</ele>
        <time>2020-06-10T17:36:16Z</time>
      </trkpt>
      <trkpt lat="48.56673" lon="-3.23827">
        <ele>174.7</ele>
        <time>2020-06-10T17:36:17Z</time>
      </trkpt>
      <trkpt lat="48.5667" lon="-3.23822">
        <ele>174.8</ele>
        <time>2020-06-10T17:36:18Z</time>
      </trkpt>
      <trkpt lat="48.56667" lon="-3.23819">
        <ele>174.8</ele>
        <time>2020-06-10T17:36:19Z</time>
      </trkpt>
      <trkpt lat="48.56664" lon="-3.23817">
        <ele>174.9</ele>
        <time>2020-06-10T17:36:20Z</time>
      </trkpt>
      <trkpt lat="48.56661" lon="-3.23814">
        <ele>174.9</ele>
        <time>2020-06-10T17:36:21Z</time>
      </trkpt>
      <trkpt lat="48.56657" lon="-3.2381">
        <ele>175</ele>
        <time>2020-06-10T17:36:22Z</time>
      </trkpt>
      <trkpt lat="48.56653" lon="-3.23806">
        <ele>175.1</ele>
        <time>2020-06-10T17:36:23Z</time>
      </trkpt>
      <trkpt lat="48.56649" lon="-3.23801">
        <ele>175.1</ele>
        <time>2020-06-10T17:36:24Z</time>
      </trkpt>
      <trkpt lat="48.56645" lon="-3.23797">
        <ele>175.2</ele>
        <time>2020-06-10T17:36:25Z</time>
      </trkpt>
      <trkpt lat="48.5664" lon="-3.23792">
        <ele>175.3</ele>
        <time>2020-06-10T17:36:26Z</time>
      </trkpt>
      <trkpt lat="48.56636" lon="-3.23787">
        <ele>175.4</ele>
        <time>2020-06-10T17:36:27Z</time>
      </trkpt>
      <trkpt lat="48.56631" lon="-3.23782">
        <ele>175.5</ele>
        <time>2020-06-10T17:36:28Z</time>
      </trkpt>
      <trkpt lat="48.56627" lon="-3.23777">
        <ele>175.6</ele>
        <time>2020-06-10T17:36:29Z</time>
      </trkpt>
      <trkpt lat="48.56623" lon="-3.23772">
        <ele>175.7</ele>
        <time>2020-06-10T17:36:30Z</time>
      </trkpt>
      <trkpt lat="48.56619" lon="-3.23768">
        <ele>175.8</ele>
        <time>2020-06-10T17:36:31Z</time>
      </trkpt>
      <trkpt lat="48.56615" lon="-3.23763">
        <ele>175.9</ele>
        <time>2020-06-10T17:36:32Z</time>
      </trkpt>
      <trkpt lat="48.56611" lon="-3.23758">
        <ele>176</ele>
        <time>2020-06-10T17:36:33Z</time>
      </trkpt>
      <trkpt lat="48.56607" lon="-3.23753">
        <ele>176.2</ele>
        <time>2020-06-10T17:36:34Z</time>
      </trkpt>
      <trkpt lat="48.56603" lon="-3.23749">
        <ele>176.3</ele>
        <time>2020-06-10T17:36:35Z</time>
      </trkpt>
      <trkpt lat="48.56599" lon="-3.23744">
        <ele>176.4</ele>
        <time>2020-06-10T17:36:36Z</time>
      </trkpt>
      <trkpt lat="48.56595" lon="-3.2374">
        <ele>176.5</ele>
        <time>2020-06-10T17:36:37Z</time>
      </trkpt>
      <trkpt lat="48.5659" lon="-3.23736">
        <ele>176.7</ele>
        <time>2020-06-10T17:36:38Z</time>
      </trkpt>
      <trkpt lat="48.56585" lon="-3.23731">
        <ele>176.8</ele>
        <time>2020-06-10T17:36:39Z</time>
      </trkpt>
      <trkpt lat="48.56581" lon="-3.23727">
        <ele>177</ele>
        <time>2020-06-10T17:36:40Z</time>
      </trkpt>
      <trkpt lat="48.56577" lon="-3.23723">
        <ele>177.1</ele>
        <time>2020-06-10T17:36:41Z</time>
      </trkpt>
      <trkpt lat="48.56574" lon="-3.23719">
        <ele>177.2</ele>
        <time>2020-06-10T17:36:42Z</time>
      </trkpt>
      <trkpt lat="48.5657" lon="-3.23716">
        <ele>177.3</ele>
        <time>2020-06-10T17:36:43Z</time>
      </trkpt>
      <trkpt lat="48.56567" lon="-3.23713">
        <ele>177.3</ele>
        <time>2020-06-10T17:36:44Z</time>
      </trkpt>
      <trkpt lat="48.56562" lon="-3.2371">
        <ele>177.4</ele>
        <time>2020-06-10T17:36:45Z</time>
      </trkpt>
      <trkpt lat="48.56558" lon="-3.23706">
        <ele>177.4</ele>
        <time>2020-06-10T17:36:46Z</time>
      </trkpt>
      <trkpt lat="48.56553" lon="-3.23701">
        <ele>177.5</ele>
        <time>2020-06-10T17:36:47Z</time>
      </trkpt>
      <trkpt lat="48.5655" lon="-3.23695">
        <ele>177.6</ele>
        <time>2020-06-10T17:36:48Z</time>
      </trkpt>
      <trkpt lat="48.56547" lon="-3.23691">
        <ele>177.6</ele>
        <time>2020-06-10T17:36:49Z</time>
      </trkpt>
      <trkpt lat="48.56543" lon="-3.23685">
        <ele>177.7</ele>
        <time>2020-06-10T17:36:50Z</time>
      </trkpt>
      <trkpt lat="48.5654" lon="-3.2368">
        <ele>177.8</ele>
        <time>2020-06-10T17:36:51Z</time>
      </trkpt>
      <trkpt lat="48.56537" lon="-3.23675">
        <ele>177.9</ele>
        <time>2020-06-10T17:36:52Z</time>
      </trkpt>
      <trkpt lat="48.56534" lon="-3.23671">
        <ele>177.9</ele>
        <time>2020-06-10T17:36:53Z</time>
      </trkpt>
      <trkpt lat="48.5653" lon="-3.23666">
        <ele>178</ele>
        <time>2020-06-10T17:36:54Z</time>
      </trkpt>
      <trkpt lat="48.56527" lon="-3.23662">
        <ele>178</ele>
        <time>2020-06-10T17:36:55Z</time>
      </trkpt>
      <trkpt lat="48.56524" lon="-3.23658">
        <ele>178</ele>
        <time>2020-06-10T17:36:56Z</time>
      </trkpt>
      <trkpt lat="48.56521" lon="-3.23655">
        <ele>178</ele>
        <time>2020-06-10T17:36:57Z</time>
      </trkpt>
      <trkpt lat="48.56519" lon="-3.2365">
        <ele>178.1</ele>
        <time>2020-06-10T17:36:58Z</time>
      </trkpt>
      <trkpt lat="48.56516" lon="-3.23645">
        <ele>178.1</ele>
        <time>2020-06-10T17:36:59Z</time>
      </trkpt>
      <trkpt lat="48.56513" lon="-3.23639">
        <ele>178.1</ele>
        <time>2020-06-10T17:37:00Z</time>
      </trkpt>
      <trkpt lat="48.5651" lon="-3.23634">
        <ele>178.2</ele>
        <time>2020-06-10T17:37:01Z</time>
      </trkpt>
      <trkpt lat="48.56507" lon="-3.2363">
        <ele>178.2</ele>
        <time>2020-06-10T17:37:02Z</time>
      </trkpt>
      <trkpt lat="48.56504" lon="-3.23624">
        <ele>178.2</ele>
        <time>2020-06-10T17:37:03Z</time>
      </trkpt>
      <trkpt lat="48.56502" lon="-3.23618">
        <ele>178.1</ele>
        <time>2020-06-10T17:37:04Z</time>
      </trkpt>
      <trkpt lat="48.565" lon="-3.23612">
        <ele>178.1</ele>
        <time>2020-06-10T17:37:05Z</time>
      </trkpt>
      <trkpt lat="48.56498" lon="-3.23606">
        <ele>178.1</ele>
        <time>2020-06-10T17:37:06Z</time>
      </trkpt>
      <trkpt lat="48.56496" lon="-3.23602">
        <ele>178.1</ele>
        <time>2020-06-10T17:37:07Z</time>
      </trkpt>
      <trkpt lat="48.56495" lon="-3.23598">
        <ele>178.1</ele>
        <time>2020-06-10T17:37:08Z</time>
      </trkpt>
      <trkpt lat="48.56494" lon="-3.23594">
        <ele>178</ele>
        <time>2020-06-10T17:37:09Z</time>
      </trkpt>
      <trkpt lat="48.56494" lon="-3.23592">
        <ele>178</ele>
        <time>2020-06-10T17:37:10Z</time>
      </trkpt>
      <trkpt lat="48.56492" lon="-3.23584">
        <ele>178</ele>
        <time>2020-06-10T17:37:11Z</time>
      </trkpt>
      <trkpt lat="48.56491" lon="-3.23578">
        <ele>177.9</ele>
        <time>2020-06-10T17:37:12Z</time>
      </trkpt>
      <trkpt lat="48.5649" lon="-3.23572">
        <ele>177.9</ele>
        <time>2020-06-10T17:37:13Z</time>
      </trkpt>
      <trkpt lat="48.56489" lon="-3.23563">
        <ele>177.8</ele>
        <time>2020-06-10T17:37:14Z</time>
      </trkpt>
      <trkpt lat="48.56488" lon="-3.23554">
        <ele>177.7</ele>
        <time>2020-06-10T17:37:15Z</time>
      </trkpt>
      <trkpt lat="48.56488" lon="-3.23546">
        <ele>177.6</ele>
        <time>2020-06-10T17:37:16Z</time>
      </trkpt>
      <trkpt lat="48.56486" lon="-3.23539">
        <ele>177.5</ele>
        <time>2020-06-10T17:37:17Z</time>
      </trkpt>
      <trkpt lat="48.56484" lon="-3.23532">
        <ele>177.4</ele>
        <time>2020-06-10T17:37:18Z</time>
      </trkpt>
      <trkpt lat="48.56482" lon="-3.23525">
        <ele>177.4</ele>
        <time>2020-06-10T17:37:19Z</time>
      </trkpt>
      <trkpt lat="48.5648" lon="-3.23519">
        <ele>177.5</ele>
        <time>2020-06-10T17:37:20Z</time>
      </trkpt>
      <trkpt lat="48.56478" lon="-3.23512">
        <ele>177.6</ele>
        <time>2020-06-10T17:37:21Z</time>
      </trkpt>
      <trkpt lat="48.56475" lon="-3.23504">
        <ele>177.7</ele>
        <time>2020-06-10T17:37:22Z</time>
      </trkpt>
      <trkpt lat="48.56473" lon="-3.23495">
        <ele>177.7</ele>
        <time>2020-06-10T17:37:23Z</time>
      </trkpt>
      <trkpt lat="48.56471" lon="-3.23486">
        <ele>177.6</ele>
        <time>2020-06-10T17:37:24Z</time>
      </trkpt>
      <trkpt lat="48.5647" lon="-3.23476">
        <ele>177.5</ele>
        <time>2020-06-10T17:37:25Z</time>
      </trkpt>
      <trkpt lat="48.56468" lon="-3.23468">
        <ele>177.4</ele>
        <time>2020-06-10T17:37:26Z</time>
      </trkpt>
      <trkpt lat="48.56467" lon="-3.23461">
        <ele>177.3</ele>
        <time>2020-06-10T17:37:27Z</time>
      </trkpt>
      <trkpt lat="48.56465" lon="-3.23455">
        <ele>177.3</ele>
        <time>2020-06-10T17:37:28Z</time>
      </trkpt>
      <trkpt lat="48.56464" lon="-3.2345">
        <ele>177.2</ele>
        <time>2020-06-10T17:37:29Z</time>
      </trkpt>
      <trkpt lat="48.56464" lon="-3.23442">
        <ele>177.2</ele>
        <time>2020-06-10T17:37:30Z</time>
      </trkpt>
      <trkpt lat="48.56462" lon="-3.23434">
        <ele>177.2</ele>
        <time>2020-06-10T17:37:31Z</time>
      </trkpt>
      <trkpt lat="48.56459" lon="-3.23424">
        <ele>177.2</ele>
        <time>2020-06-10T17:37:32Z</time>
      </trkpt>
      <trkpt lat="48.56456" lon="-3.23416">
        <ele>177.2</ele>
        <time>2020-06-10T17:37:33Z</time>
      </trkpt>
      <trkpt lat="48.56454" lon="-3.23409">
        <ele>177.1</ele>
        <time>2020-06-10T17:37:34Z</time>
      </trkpt>
      <trkpt lat="48.56453" lon="-3.23404">
        <ele>177.1</ele>
        <time>2020-06-10T17:37:35Z</time>
      </trkpt>
      <trkpt lat="48.56451" lon="-3.23398">
        <ele>177.1</ele>
        <time>2020-06-10T17:37:36Z</time>
      </trkpt>
      <trkpt lat="48.56449" lon="-3.23391">
        <ele>177.1</ele>
        <time>2020-06-10T17:37:37Z</time>
      </trkpt>
      <trkpt lat="48.56449" lon="-3.23384">
        <ele>177</ele>
        <time>2020-06-10T17:37:38Z</time>
      </trkpt>
      <trkpt lat="48.56446" lon="-3.23375">
        <ele>176.9</ele>
        <time>2020-06-10T17:37:39Z</time>
      </trkpt>
      <trkpt lat="48.56445" lon="-3.23366">
        <ele>176.9</ele>
        <time>2020-06-10T17:37:40Z</time>
      </trkpt>
      <trkpt lat="48.56443" lon="-3.23357">
        <ele>176.8</ele>
        <time>2020-06-10T17:37:41Z</time>
      </trkpt>
      <trkpt lat="48.56441" lon="-3.23348">
        <ele>176.8</ele>
        <time>2020-06-10T17:37:42Z</time>
      </trkpt>
      <trkpt lat="48.56439" lon="-3.2334">
        <ele>176.9</ele>
        <time>2020-06-10T17:37:43Z</time>
      </trkpt>
      <trkpt lat="48.56439" lon="-3.23333">
        <ele>176.9</ele>
        <time>2020-06-10T17:37:44Z</time>
      </trkpt>
      <trkpt lat="48.56438" lon="-3.23326">
        <ele>176.9</ele>
        <time>2020-06-10T17:37:45Z</time>
      </trkpt>
      <trkpt lat="48.56437" lon="-3.23317">
        <ele>176.9</ele>
        <time>2020-06-10T17:37:46Z</time>
      </trkpt>
      <trkpt lat="48.56437" lon="-3.23311">
        <ele>176.9</ele>
        <time>2020-06-10T17:37:47Z</time>
      </trkpt>
      <trkpt lat="48.56436" lon="-3.23305">
        <ele>176.9</ele>
        <time>2020-06-10T17:37:48Z</time>
      </trkpt>
      <trkpt lat="48.56435" lon="-3.23298">
        <ele>176.9</ele>
        <time>2020-06-10T17:37:49Z</time>
      </trkpt>
      <trkpt lat="48.56434" lon="-3.23293">
        <ele>176.9</ele>
        <time>2020-06-10T17:37:50Z</time>
      </trkpt>
      <trkpt lat="48.56434" lon="-3.23287">
        <ele>176.9</ele>
        <time>2020-06-10T17:37:51Z</time>
      </trkpt>
      <trkpt lat="48.56432" lon="-3.23279">
        <ele>176.9</ele>
        <time>2020-06-10T17:37:52Z</time>
      </trkpt>
      <trkpt lat="48.5643" lon="-3.23272">
        <ele>176.9</ele>
        <time>2020-06-10T17:37:53Z</time>
      </trkpt>
      <trkpt lat="48.56427" lon="-3.23267">
        <ele>176.9</ele>
        <time>2020-06-10T17:37:54Z</time>
      </trkpt>
      <trkpt lat="48.56425" lon="-3.23262">
        <ele>176.9</ele>
        <time>2020-06-10T17:37:55Z</time>
      </trkpt>
      <trkpt lat="48.56423" lon="-3.23256">
        <ele>176.9</ele>
        <time>2020-06-10T17:37:56Z</time>
      </trkpt>
      <trkpt lat="48.56422" lon="-3.23249">
        <ele>176.9</ele>
        <time>2020-06-10T17:37:57Z</time>
      </trkpt>
      <trkpt lat="48.5642" lon="-3.23243">
        <ele>176.9</ele>
        <time>2020-06-10T17:37:58Z</time>
      </trkpt>
      <trkpt lat="48.56418" lon="-3.23237">
        <ele>176.9</ele>
        <time>2020-06-10T17:37:59Z</time>
      </trkpt>
      <trkpt lat="48.56416" lon="-3.23231">
        <ele>176.9</ele>
        <time>2020-06-10T17:38:00Z</time>
      </trkpt>
      <trkpt lat="48.56415" lon="-3.23224">
        <ele>176.8</ele>
        <time>2020-06-10T17:38:01Z</time>
      </trkpt>
      <trkpt lat="48.56413" lon="-3.23217">
        <ele>176.8</ele>
        <time>2020-06-10T17:38:02Z</time>
      </trkpt>
      <trkpt lat="48.56411" lon="-3.23212">
        <ele>176.8</ele>
        <time>2020-06-10T17:38:03Z</time>
      </trkpt>
      <trkpt lat="48.5641" lon="-3.23206">
        <ele>176.9</ele>
        <time>2020-06-10T17:38:04Z</time>
      </trkpt>
      <trkpt lat="48.56409" lon="-3.23198">
        <ele>176.9</ele>
        <time>2020-06-10T17:38:05Z</time>
      </trkpt>
      <trkpt lat="48.56407" lon="-3.2319">
        <ele>176.9</ele>
        <time>2020-06-10T17:38:06Z</time>
      </trkpt>
      <trkpt lat="48.56405" lon="-3.23182">
        <ele>176.9</ele>
        <time>2020-06-10T17:38:07Z</time>
      </trkpt>
      <trkpt lat="48.56404" lon="-3.23176">
        <ele>176.9</ele>
        <time>2020-06-10T17:38:08Z</time>
      </trkpt>
      <trkpt lat="48.56402" lon="-3.23171">
        <ele>176.9</ele>
        <time>2020-06-10T17:38:09Z</time>
      </trkpt>
      <trkpt lat="48.56401" lon="-3.23164">
        <ele>176.9</ele>
        <time>2020-06-10T17:38:10Z</time>
      </trkpt>
      <trkpt lat="48.56399" lon="-3.23158">
        <ele>176.9</ele>
        <time>2020-06-10T17:38:11Z</time>
      </trkpt>
      <trkpt lat="48.56397" lon="-3.23151">
        <ele>176.9</ele>
        <time>2020-06-10T17:38:12Z</time>
      </trkpt>
      <trkpt lat="48.56395" lon="-3.23145">
        <ele>176.9</ele>
        <time>2020-06-10T17:38:13Z</time>
      </trkpt>
      <trkpt lat="48.56394" lon="-3.23139">
        <ele>176.9</ele>
        <time>2020-06-10T17:38:14Z</time>
      </trkpt>
      <trkpt lat="48.56392" lon="-3.23132">
        <ele>177</ele>
        <time>2020-06-10T17:38:15Z</time>
      </trkpt>
      <trkpt lat="48.5639" lon="-3.23126">
        <ele>177</ele>
        <time>2020-06-10T17:38:16Z</time>
      </trkpt>
      <trkpt lat="48.56388" lon="-3.23119">
        <ele>177</ele>
        <time>2020-06-10T17:38:17Z</time>
      </trkpt>
      <trkpt lat="48.56385" lon="-3.23111">
        <ele>177</ele>
        <time>2020-06-10T17:38:18Z</time>
      </trkpt>
      <trkpt lat="48.56383" lon="-3.23103">
        <ele>177.1</ele>
        <time>2020-06-10T17:38:19Z</time>
      </trkpt>
      <trkpt lat="48.56382" lon="-3.23096">
        <ele>177.1</ele>
        <time>2020-06-10T17:38:20Z</time>
      </trkpt>
      <trkpt lat="48.56379" lon="-3.23088">
        <ele>177.1</ele>
        <time>2020-06-10T17:38:21Z</time>
      </trkpt>
      <trkpt lat="48.56378" lon="-3.23081">
        <ele>177.1</ele>
        <time>2020-06-10T17:38:22Z</time>
      </trkpt>
      <trkpt lat="48.56376" lon="-3.23074">
        <ele>177.2</ele>
        <time>2020-06-10T17:38:23Z</time>
      </trkpt>
      <trkpt lat="48.56375" lon="-3.23067">
        <ele>177.2</ele>
        <time>2020-06-10T17:38:24Z</time>
      </trkpt>
      <trkpt lat="48.56373" lon="-3.2306">
        <ele>177.2</ele>
        <time>2020-06-10T17:38:25Z</time>
      </trkpt>
      <trkpt lat="48.56372" lon="-3.23054">
        <ele>177.1</ele>
        <time>2020-06-10T17:38:26Z</time>
      </trkpt>
      <trkpt lat="48.56371" lon="-3.23047">
        <ele>177.1</ele>
        <time>2020-06-10T17:38:27Z</time>
      </trkpt>
      <trkpt lat="48.5637" lon="-3.23041">
        <ele>177.1</ele>
        <time>2020-06-10T17:38:28Z</time>
      </trkpt>
      <trkpt lat="48.56368" lon="-3.23035">
        <ele>177</ele>
        <time>2020-06-10T17:38:29Z</time>
      </trkpt>
      <trkpt lat="48.56367" lon="-3.23028">
        <ele>177</ele>
        <time>2020-06-10T17:38:30Z</time>
      </trkpt>
      <trkpt lat="48.56365" lon="-3.23021">
        <ele>176.9</ele>
        <time>2020-06-10T17:38:31Z</time>
      </trkpt>
      <trkpt lat="48.56363" lon="-3.23014">
        <ele>176.9</ele>
        <time>2020-06-10T17:38:32Z</time>
      </trkpt>
      <trkpt lat="48.56362" lon="-3.23006">
        <ele>176.8</ele>
        <time>2020-06-10T17:38:33Z</time>
      </trkpt>
      <trkpt lat="48.5636" lon="-3.23">
        <ele>176.8</ele>
        <time>2020-06-10T17:38:34Z</time>
      </trkpt>
      <trkpt lat="48.56359" lon="-3.22993">
        <ele>176.7</ele>
        <time>2020-06-10T17:38:35Z</time>
      </trkpt>
      <trkpt lat="48.56357" lon="-3.22986">
        <ele>176.7</ele>
        <time>2020-06-10T17:38:36Z</time>
      </trkpt>
      <trkpt lat="48.56356" lon="-3.22979">
        <ele>176.6</ele>
        <time>2020-06-10T17:38:37Z</time>
      </trkpt>
      <trkpt lat="48.56355" lon="-3.22972">
        <ele>176.5</ele>
        <time>2020-06-10T17:38:38Z</time>
      </trkpt>
      <trkpt lat="48.56353" lon="-3.22965">
        <ele>176.5</ele>
        <time>2020-06-10T17:38:39Z</time>
      </trkpt>
      <trkpt lat="48.56352" lon="-3.22959">
        <ele>176.4</ele>
        <time>2020-06-10T17:38:40Z</time>
      </trkpt>
      <trkpt lat="48.56351" lon="-3.22952">
        <ele>176.3</ele>
        <time>2020-06-10T17:38:41Z</time>
      </trkpt>
      <trkpt lat="48.5635" lon="-3.22946">
        <ele>176.2</ele>
        <time>2020-06-10T17:38:42Z</time>
      </trkpt>
      <trkpt lat="48.56349" lon="-3.2294">
        <ele>176.2</ele>
        <time>2020-06-10T17:38:43Z</time>
      </trkpt>
      <trkpt lat="48.56348" lon="-3.22933">
        <ele>176.1</ele>
        <time>2020-06-10T17:38:44Z</time>
      </trkpt>
      <trkpt lat="48.56347" lon="-3.22926">
        <ele>176</ele>
        <time>2020-06-10T17:38:45Z</time>
      </trkpt>
      <trkpt lat="48.56346" lon="-3.2292">
        <ele>175.9</ele>
        <time>2020-06-10T17:38:46Z</time>
      </trkpt>
      <trkpt lat="48.56346" lon="-3.22913">
        <ele>175.8</ele>
        <time>2020-06-10T17:38:47Z</time>
      </trkpt>
      <trkpt lat="48.56345" lon="-3.22906">
        <ele>175.7</ele>
        <time>2020-06-10T17:38:48Z</time>
      </trkpt>
      <trkpt lat="48.56344" lon="-3.22899">
        <ele>175.6</ele>
        <time>2020-06-10T17:38:49Z</time>
      </trkpt>
      <trkpt lat="48.56344" lon="-3.22893">
        <ele>175.5</ele>
        <time>2020-06-10T17:38:50Z</time>
      </trkpt>
      <trkpt lat="48.56344" lon="-3.22885">
        <ele>175.4</ele>
        <time>2020-06-10T17:38:51Z</time>
      </trkpt>
      <trkpt lat="48.56344" lon="-3.22879">
        <ele>175.3</ele>
        <time>2020-06-10T17:38:52Z</time>
      </trkpt>
      <trkpt lat="48.56342" lon="-3.22872">
        <ele>175.2</ele>
        <time>2020-06-10T17:38:53Z</time>
      </trkpt>
      <trkpt lat="48.56342" lon="-3.22866">
        <ele>175.1</ele>
        <time>2020-06-10T17:38:54Z</time>
      </trkpt>
      <trkpt lat="48.56341" lon="-3.22859">
        <ele>174.9</ele>
        <time>2020-06-10T17:38:55Z</time>
      </trkpt>
      <trkpt lat="48.5634" lon="-3.22851">
        <ele>174.8</ele>
        <time>2020-06-10T17:38:56Z</time>
      </trkpt>
      <trkpt lat="48.56339" lon="-3.22844">
        <ele>174.7</ele>
        <time>2020-06-10T17:38:57Z</time>
      </trkpt>
      <trkpt lat="48.56338" lon="-3.22836">
        <ele>174.6</ele>
        <time>2020-06-10T17:38:58Z</time>
      </trkpt>
      <trkpt lat="48.56338" lon="-3.22828">
        <ele>174.4</ele>
        <time>2020-06-10T17:38:59Z</time>
      </trkpt>
      <trkpt lat="48.56338" lon="-3.22819">
        <ele>174.3</ele>
        <time>2020-06-10T17:39:00Z</time>
      </trkpt>
      <trkpt lat="48.56338" lon="-3.22812">
        <ele>174.1</ele>
        <time>2020-06-10T17:39:01Z</time>
      </trkpt>
      <trkpt lat="48.56337" lon="-3.22803">
        <ele>174</ele>
        <time>2020-06-10T17:39:02Z</time>
      </trkpt>
      <trkpt lat="48.56337" lon="-3.22795">
        <ele>173.8</ele>
        <time>2020-06-10T17:39:03Z</time>
      </trkpt>
      <trkpt lat="48.56336" lon="-3.22787">
        <ele>173.6</ele>
        <time>2020-06-10T17:39:04Z</time>
      </trkpt>
      <trkpt lat="48.56337" lon="-3.22779">
        <ele>173.5</ele>
        <time>2020-06-10T17:39:05Z</time>
      </trkpt>
      <trkpt lat="48.56338" lon="-3.22774">
        <ele>173.4</ele>
        <time>2020-06-10T17:39:06Z</time>
      </trkpt>
      <trkpt lat="48.56338" lon="-3.22767">
        <ele>173.2</ele>
        <time>2020-06-10T17:39:07Z</time>
      </trkpt>
      <trkpt lat="48.56338" lon="-3.22757">
        <ele>173</ele>
        <time>2020-06-10T17:39:08Z</time>
      </trkpt>
      <trkpt lat="48.56338" lon="-3.22748">
        <ele>172.8</ele>
        <time>2020-06-10T17:39:09Z</time>
      </trkpt>
      <trkpt lat="48.56339" lon="-3.22739">
        <ele>172.6</ele>
        <time>2020-06-10T17:39:10Z</time>
      </trkpt>
      <trkpt lat="48.56339" lon="-3.22731">
        <ele>172.5</ele>
        <time>2020-06-10T17:39:11Z</time>
      </trkpt>
      <trkpt lat="48.56339" lon="-3.22724">
        <ele>172.3</ele>
        <time>2020-06-10T17:39:12Z</time>
      </trkpt>
      <trkpt lat="48.56338" lon="-3.22717">
        <ele>172.2</ele>
        <time>2020-06-10T17:39:13Z</time>
      </trkpt>
      <trkpt lat="48.56339" lon="-3.22709">
        <ele>172</ele>
        <time>2020-06-10T17:39:14Z</time>
      </trkpt>
      <trkpt lat="48.5634" lon="-3.22699">
        <ele>171.9</ele>
        <time>2020-06-10T17:39:15Z</time>
      </trkpt>
      <trkpt lat="48.5634" lon="-3.2269">
        <ele>171.7</ele>
        <time>2020-06-10T17:39:16Z</time>
      </trkpt>
      <trkpt lat="48.5634" lon="-3.22681">
        <ele>171.6</ele>
        <time>2020-06-10T17:39:17Z</time>
      </trkpt>
      <trkpt lat="48.5634" lon="-3.22672">
        <ele>171.5</ele>
        <time>2020-06-10T17:39:18Z</time>
      </trkpt>
      <trkpt lat="48.56341" lon="-3.22663">
        <ele>171.3</ele>
        <time>2020-06-10T17:39:19Z</time>
      </trkpt>
      <trkpt lat="48.56342" lon="-3.22654">
        <ele>171.1</ele>
        <time>2020-06-10T17:39:20Z</time>
      </trkpt>
      <trkpt lat="48.56343" lon="-3.22644">
        <ele>170.9</ele>
        <time>2020-06-10T17:39:21Z</time>
      </trkpt>
      <trkpt lat="48.56344" lon="-3.22633">
        <ele>170.7</ele>
        <time>2020-06-10T17:39:22Z</time>
      </trkpt>
      <trkpt lat="48.56344" lon="-3.22622">
        <ele>170.5</ele>
        <time>2020-06-10T17:39:23Z</time>
      </trkpt>
      <trkpt lat="48.56345" lon="-3.22612">
        <ele>170.3</ele>
        <time>2020-06-10T17:39:24Z</time>
      </trkpt>
      <trkpt lat="48.56345" lon="-3.22602">
        <ele>170.1</ele>
        <time>2020-06-10T17:39:25Z</time>
      </trkpt>
      <trkpt lat="48.56345" lon="-3.22593">
        <ele>169.9</ele>
        <time>2020-06-10T17:39:26Z</time>
      </trkpt>
      <trkpt lat="48.56345" lon="-3.22585">
        <ele>169.7</ele>
        <time>2020-06-10T17:39:27Z</time>
      </trkpt>
      <trkpt lat="48.56346" lon="-3.22574">
        <ele>169.5</ele>
        <time>2020-06-10T17:39:28Z</time>
      </trkpt>
      <trkpt lat="48.56346" lon="-3.2256">
        <ele>169.1</ele>
        <time>2020-06-10T17:39:29Z</time>
      </trkpt>
      <trkpt lat="48.56346" lon="-3.22549">
        <ele>168.9</ele>
        <time>2020-06-10T17:39:30Z</time>
      </trkpt>
      <trkpt lat="48.56346" lon="-3.22538">
        <ele>168.6</ele>
        <time>2020-06-10T17:39:31Z</time>
      </trkpt>
      <trkpt lat="48.56347" lon="-3.22525">
        <ele>168.2</ele>
        <time>2020-06-10T17:39:32Z</time>
      </trkpt>
      <trkpt lat="48.56347" lon="-3.22514">
        <ele>167.9</ele>
        <time>2020-06-10T17:39:33Z</time>
      </trkpt>
      <trkpt lat="48.56348" lon="-3.22503">
        <ele>167.6</ele>
        <time>2020-06-10T17:39:34Z</time>
      </trkpt>
      <trkpt lat="48.56349" lon="-3.22491">
        <ele>167.3</ele>
        <time>2020-06-10T17:39:35Z</time>
      </trkpt>
      <trkpt lat="48.56349" lon="-3.22478">
        <ele>166.8</ele>
        <time>2020-06-10T17:39:36Z</time>
      </trkpt>
      <trkpt lat="48.56349" lon="-3.22466">
        <ele>166.4</ele>
        <time>2020-06-10T17:39:37Z</time>
      </trkpt>
      <trkpt lat="48.5635" lon="-3.22454">
        <ele>165.9</ele>
        <time>2020-06-10T17:39:38Z</time>
      </trkpt>
      <trkpt lat="48.5635" lon="-3.22442">
        <ele>165.5</ele>
        <time>2020-06-10T17:39:39Z</time>
      </trkpt>
      <trkpt lat="48.56351" lon="-3.2243">
        <ele>165</ele>
        <time>2020-06-10T17:39:40Z</time>
      </trkpt>
      <trkpt lat="48.56351" lon="-3.22417">
        <ele>164.5</ele>
        <time>2020-06-10T17:39:41Z</time>
      </trkpt>
      <trkpt lat="48.56352" lon="-3.22405">
        <ele>164.1</ele>
        <time>2020-06-10T17:39:42Z</time>
      </trkpt>
      <trkpt lat="48.56353" lon="-3.22392">
        <ele>163.7</ele>
        <time>2020-06-10T17:39:43Z</time>
      </trkpt>
      <trkpt lat="48.56353" lon="-3.22379">
        <ele>163.3</ele>
        <time>2020-06-10T17:39:44Z</time>
      </trkpt>
      <trkpt lat="48.56354" lon="-3.22365">
        <ele>162.9</ele>
        <time>2020-06-10T17:39:45Z</time>
      </trkpt>
      <trkpt lat="48.56354" lon="-3.22352">
        <ele>162.5</ele>
        <time>2020-06-10T17:39:46Z</time>
      </trkpt>
      <trkpt lat="48.56355" lon="-3.22339">
        <ele>162</ele>
        <time>2020-06-10T17:39:47Z</time>
      </trkpt>
      <trkpt lat="48.56356" lon="-3.22325">
        <ele>161.6</ele>
        <time>2020-06-10T17:39:48Z</time>
      </trkpt>
      <trkpt lat="48.56357" lon="-3.22312">
        <ele>161.1</ele>
        <time>2020-06-10T17:39:49Z</time>
      </trkpt>
      <trkpt lat="48.56357" lon="-3.22298">
        <ele>160.7</ele>
        <time>2020-06-10T17:39:50Z</time>
      </trkpt>
      <trkpt lat="48.56357" lon="-3.22284">
        <ele>160.4</ele>
        <time>2020-06-10T17:39:51Z</time>
      </trkpt>
      <trkpt lat="48.56358" lon="-3.22271">
        <ele>159.8</ele>
        <time>2020-06-10T17:39:52Z</time>
      </trkpt>
      <trkpt lat="48.56358" lon="-3.22258">
        <ele>159.6</ele>
        <time>2020-06-10T17:39:53Z</time>
      </trkpt>
      <trkpt lat="48.56358" lon="-3.22244">
        <ele>159.3</ele>
        <time>2020-06-10T17:39:54Z</time>
      </trkpt>
      <trkpt lat="48.56358" lon="-3.22231">
        <ele>159</ele>
        <time>2020-06-10T17:39:55Z</time>
      </trkpt>
      <trkpt lat="48.56358" lon="-3.22217">
        <ele>158.6</ele>
        <time>2020-06-10T17:39:56Z</time>
      </trkpt>
      <trkpt lat="48.56359" lon="-3.22204">
        <ele>158.3</ele>
        <time>2020-06-10T17:39:57Z</time>
      </trkpt>
      <trkpt lat="48.56358" lon="-3.22191">
        <ele>157.9</ele>
        <time>2020-06-10T17:39:58Z</time>
      </trkpt>
      <trkpt lat="48.56358" lon="-3.22179">
        <ele>157.6</ele>
        <time>2020-06-10T17:39:59Z</time>
      </trkpt>
      <trkpt lat="48.56357" lon="-3.22166">
        <ele>157.3</ele>
        <time>2020-06-10T17:40:00Z</time>
      </trkpt>
      <trkpt lat="48.56356" lon="-3.22152">
        <ele>156.9</ele>
        <time>2020-06-10T17:40:01Z</time>
      </trkpt>
      <trkpt lat="48.56355" lon="-3.22138">
        <ele>156.6</ele>
        <time>2020-06-10T17:40:02Z</time>
      </trkpt>
      <trkpt lat="48.56354" lon="-3.22125">
        <ele>156.3</ele>
        <time>2020-06-10T17:40:03Z</time>
      </trkpt>
      <trkpt lat="48.56353" lon="-3.22111">
        <ele>156.1</ele>
        <time>2020-06-10T17:40:04Z</time>
      </trkpt>
      <trkpt lat="48.56352" lon="-3.22097">
        <ele>155.8</ele>
        <time>2020-06-10T17:40:05Z</time>
      </trkpt>
      <trkpt lat="48.56349" lon="-3.22083">
        <ele>155.6</ele>
        <time>2020-06-10T17:40:06Z</time>
      </trkpt>
      <trkpt lat="48.56347" lon="-3.2207">
        <ele>155.3</ele>
        <time>2020-06-10T17:40:07Z</time>
      </trkpt>
      <trkpt lat="48.56346" lon="-3.22056">
        <ele>155.1</ele>
        <time>2020-06-10T17:40:08Z</time>
      </trkpt>
      <trkpt lat="48.56344" lon="-3.22043">
        <ele>155</ele>
        <time>2020-06-10T17:40:09Z</time>
      </trkpt>
      <trkpt lat="48.56343" lon="-3.22029">
        <ele>154.8</ele>
        <time>2020-06-10T17:40:10Z</time>
      </trkpt>
      <trkpt lat="48.56341" lon="-3.22015">
        <ele>154.7</ele>
        <time>2020-06-10T17:40:11Z</time>
      </trkpt>
      <trkpt lat="48.5634" lon="-3.22002">
        <ele>154.6</ele>
        <time>2020-06-10T17:40:12Z</time>
      </trkpt>
      <trkpt lat="48.56337" lon="-3.21989">
        <ele>154.5</ele>
        <time>2020-06-10T17:40:13Z</time>
      </trkpt>
      <trkpt lat="48.56336" lon="-3.21975">
        <ele>154.5</ele>
        <time>2020-06-10T17:40:14Z</time>
      </trkpt>
      <trkpt lat="48.56333" lon="-3.21962">
        <ele>154.4</ele>
        <time>2020-06-10T17:40:15Z</time>
      </trkpt>
      <trkpt lat="48.56331" lon="-3.21949">
        <ele>154.3</ele>
        <time>2020-06-10T17:40:16Z</time>
      </trkpt>
      <trkpt lat="48.5633" lon="-3.21936">
        <ele>154.3</ele>
        <time>2020-06-10T17:40:17Z</time>
      </trkpt>
      <trkpt lat="48.56329" lon="-3.21923">
        <ele>154.2</ele>
        <time>2020-06-10T17:40:18Z</time>
      </trkpt>
      <trkpt lat="48.56327" lon="-3.21911">
        <ele>154.1</ele>
        <time>2020-06-10T17:40:19Z</time>
      </trkpt>
      <trkpt lat="48.56326" lon="-3.21898">
        <ele>154.1</ele>
        <time>2020-06-10T17:40:20Z</time>
      </trkpt>
      <trkpt lat="48.56324" lon="-3.21885">
        <ele>154</ele>
        <time>2020-06-10T17:40:21Z</time>
      </trkpt>
      <trkpt lat="48.56322" lon="-3.21872">
        <ele>154</ele>
        <time>2020-06-10T17:40:22Z</time>
      </trkpt>
      <trkpt lat="48.5632" lon="-3.2186">
        <ele>154</ele>
        <time>2020-06-10T17:40:23Z</time>
      </trkpt>
      <trkpt lat="48.56319" lon="-3.21847">
        <ele>154</ele>
        <time>2020-06-10T17:40:24Z</time>
      </trkpt>
      <trkpt lat="48.56317" lon="-3.21834">
        <ele>154</ele>
        <time>2020-06-10T17:40:25Z</time>
      </trkpt>
      <trkpt lat="48.56315" lon="-3.21822">
        <ele>154</ele>
        <time>2020-06-10T17:40:26Z</time>
      </trkpt>
      <trkpt lat="48.56314" lon="-3.21809">
        <ele>154</ele>
        <time>2020-06-10T17:40:27Z</time>
      </trkpt>
      <trkpt lat="48.56313" lon="-3.21797">
        <ele>154</ele>
        <time>2020-06-10T17:40:28Z</time>
      </trkpt>
      <trkpt lat="48.56311" lon="-3.21785">
        <ele>154</ele>
        <time>2020-06-10T17:40:29Z</time>
      </trkpt>
      <trkpt lat="48.56309" lon="-3.21773">
        <ele>154</ele>
        <time>2020-06-10T17:40:30Z</time>
      </trkpt>
      <trkpt lat="48.56307" lon="-3.2176">
        <ele>154.1</ele>
        <time>2020-06-10T17:40:31Z</time>
      </trkpt>
      <trkpt lat="48.56306" lon="-3.21748">
        <ele>154.2</ele>
        <time>2020-06-10T17:40:32Z</time>
      </trkpt>
      <trkpt lat="48.56305" lon="-3.21737">
        <ele>154.2</ele>
        <time>2020-06-10T17:40:33Z</time>
      </trkpt>
      <trkpt lat="48.56303" lon="-3.21725">
        <ele>154.2</ele>
        <time>2020-06-10T17:40:34Z</time>
      </trkpt>
      <trkpt lat="48.56302" lon="-3.21714">
        <ele>154.2</ele>
        <time>2020-06-10T17:40:35Z</time>
      </trkpt>
      <trkpt lat="48.56301" lon="-3.21703">
        <ele>154.2</ele>
        <time>2020-06-10T17:40:36Z</time>
      </trkpt>
      <trkpt lat="48.563" lon="-3.21692">
        <ele>154.2</ele>
        <time>2020-06-10T17:40:37Z</time>
      </trkpt>
      <trkpt lat="48.563" lon="-3.21681">
        <ele>154.2</ele>
        <time>2020-06-10T17:40:38Z</time>
      </trkpt>
      <trkpt lat="48.56299" lon="-3.21671">
        <ele>154.2</ele>
        <time>2020-06-10T17:40:39Z</time>
      </trkpt>
      <trkpt lat="48.56298" lon="-3.21662">
        <ele>154.2</ele>
        <time>2020-06-10T17:40:40Z</time>
      </trkpt>
      <trkpt lat="48.56298" lon="-3.21653">
        <ele>154.2</ele>
        <time>2020-06-10T17:40:41Z</time>
      </trkpt>
      <trkpt lat="48.56298" lon="-3.21645">
        <ele>154.2</ele>
        <time>2020-06-10T17:40:42Z</time>
      </trkpt>
      <trkpt lat="48.56297" lon="-3.21636">
        <ele>154.2</ele>
        <time>2020-06-10T17:40:43Z</time>
      </trkpt>
      <trkpt lat="48.56298" lon="-3.21628">
        <ele>154.2</ele>
        <time>2020-06-10T17:40:44Z</time>
      </trkpt>
      <trkpt lat="48.56299" lon="-3.21619">
        <ele>154.2</ele>
        <time>2020-06-10T17:40:45Z</time>
      </trkpt>
      <trkpt lat="48.563" lon="-3.21611">
        <ele>154.2</ele>
        <time>2020-06-10T17:40:46Z</time>
      </trkpt>
      <trkpt lat="48.56301" lon="-3.21603">
        <ele>154.2</ele>
        <time>2020-06-10T17:40:47Z</time>
      </trkpt>
      <trkpt lat="48.56303" lon="-3.21595">
        <ele>154.2</ele>
        <time>2020-06-10T17:40:48Z</time>
      </trkpt>
      <trkpt lat="48.56304" lon="-3.21586">
        <ele>154.2</ele>
        <time>2020-06-10T17:40:49Z</time>
      </trkpt>
      <trkpt lat="48.56304" lon="-3.21577">
        <ele>154.2</ele>
        <time>2020-06-10T17:40:50Z</time>
      </trkpt>
      <trkpt lat="48.56305" lon="-3.21569">
        <ele>154.1</ele>
        <time>2020-06-10T17:40:51Z</time>
      </trkpt>
      <trkpt lat="48.56303" lon="-3.2156">
        <ele>154.1</ele>
        <time>2020-06-10T17:40:52Z</time>
      </trkpt>
      <trkpt lat="48.56303" lon="-3.21551">
        <ele>154.1</ele>
        <time>2020-06-10T17:40:53Z</time>
      </trkpt>
      <trkpt lat="48.56304" lon="-3.21542">
        <ele>154</ele>
        <time>2020-06-10T17:40:54Z</time>
      </trkpt>
      <trkpt lat="48.56305" lon="-3.21534">
        <ele>153.9</ele>
        <time>2020-06-10T17:40:55Z</time>
      </trkpt>
      <trkpt lat="48.56306" lon="-3.21526">
        <ele>153.9</ele>
        <time>2020-06-10T17:40:56Z</time>
      </trkpt>
      <trkpt lat="48.56307" lon="-3.21518">
        <ele>153.8</ele>
        <time>2020-06-10T17:40:57Z</time>
      </trkpt>
      <trkpt lat="48.56308" lon="-3.2151">
        <ele>153.7</ele>
        <time>2020-06-10T17:40:58Z</time>
      </trkpt>
      <trkpt lat="48.56309" lon="-3.21502">
        <ele>153.6</ele>
        <time>2020-06-10T17:40:59Z</time>
      </trkpt>
      <trkpt lat="48.5631" lon="-3.21493">
        <ele>153.5</ele>
        <time>2020-06-10T17:41:00Z</time>
      </trkpt>
      <trkpt lat="48.56312" lon="-3.21485">
        <ele>153.4</ele>
        <time>2020-06-10T17:41:01Z</time>
      </trkpt>
      <trkpt lat="48.56313" lon="-3.21476">
        <ele>153.3</ele>
        <time>2020-06-10T17:41:02Z</time>
      </trkpt>
      <trkpt lat="48.56314" lon="-3.21467">
        <ele>153.2</ele>
        <time>2020-06-10T17:41:03Z</time>
      </trkpt>
      <trkpt lat="48.56315" lon="-3.21458">
        <ele>153</ele>
        <time>2020-06-10T17:41:04Z</time>
      </trkpt>
      <trkpt lat="48.56316" lon="-3.2145">
        <ele>152.9</ele>
        <time>2020-06-10T17:41:05Z</time>
      </trkpt>
      <trkpt lat="48.56317" lon="-3.21441">
        <ele>152.8</ele>
        <time>2020-06-10T17:41:06Z</time>
      </trkpt>
      <trkpt lat="48.56319" lon="-3.21433">
        <ele>152.7</ele>
        <time>2020-06-10T17:41:07Z</time>
      </trkpt>
      <trkpt lat="48.56321" lon="-3.21425">
        <ele>152.5</ele>
        <time>2020-06-10T17:41:08Z</time>
      </trkpt>
      <trkpt lat="48.56323" lon="-3.21417">
        <ele>152.4</ele>
        <time>2020-06-10T17:41:09Z</time>
      </trkpt>
      <trkpt lat="48.56325" lon="-3.21409">
        <ele>152.3</ele>
        <time>2020-06-10T17:41:10Z</time>
      </trkpt>
      <trkpt lat="48.56327" lon="-3.21401">
        <ele>152.1</ele>
        <time>2020-06-10T17:41:11Z</time>
      </trkpt>
      <trkpt lat="48.5633" lon="-3.21393">
        <ele>151.9</ele>
        <time>2020-06-10T17:41:12Z</time>
      </trkpt>
      <trkpt lat="48.56333" lon="-3.21385">
        <ele>151.8</ele>
        <time>2020-06-10T17:41:13Z</time>
      </trkpt>
      <trkpt lat="48.56335" lon="-3.21378">
        <ele>151.7</ele>
        <time>2020-06-10T17:41:14Z</time>
      </trkpt>
      <trkpt lat="48.56338" lon="-3.2137">
        <ele>151.6</ele>
        <time>2020-06-10T17:41:15Z</time>
      </trkpt>
      <trkpt lat="48.56341" lon="-3.21362">
        <ele>151.5</ele>
        <time>2020-06-10T17:41:16Z</time>
      </trkpt>
      <trkpt lat="48.56343" lon="-3.21353">
        <ele>151.4</ele>
        <time>2020-06-10T17:41:17Z</time>
      </trkpt>
      <trkpt lat="48.56346" lon="-3.21345">
        <ele>151.3</ele>
        <time>2020-06-10T17:41:18Z</time>
      </trkpt>
      <trkpt lat="48.56349" lon="-3.21337">
        <ele>151.2</ele>
        <time>2020-06-10T17:41:19Z</time>
      </trkpt>
      <trkpt lat="48.56352" lon="-3.2133">
        <ele>151.1</ele>
        <time>2020-06-10T17:41:20Z</time>
      </trkpt>
      <trkpt lat="48.56355" lon="-3.21322">
        <ele>151</ele>
        <time>2020-06-10T17:41:21Z</time>
      </trkpt>
      <trkpt lat="48.56358" lon="-3.21314">
        <ele>150.9</ele>
        <time>2020-06-10T17:41:22Z</time>
      </trkpt>
      <trkpt lat="48.56361" lon="-3.21307">
        <ele>150.8</ele>
        <time>2020-06-10T17:41:23Z</time>
      </trkpt>
      <trkpt lat="48.56364" lon="-3.213">
        <ele>150.7</ele>
        <time>2020-06-10T17:41:24Z</time>
      </trkpt>
      <trkpt lat="48.56368" lon="-3.21292">
        <ele>150.5</ele>
        <time>2020-06-10T17:41:25Z</time>
      </trkpt>
      <trkpt lat="48.56371" lon="-3.21284">
        <ele>150.4</ele>
        <time>2020-06-10T17:41:26Z</time>
      </trkpt>
      <trkpt lat="48.56374" lon="-3.21277">
        <ele>150.3</ele>
        <time>2020-06-10T17:41:27Z</time>
      </trkpt>
      <trkpt lat="48.56377" lon="-3.21269">
        <ele>150.1</ele>
        <time>2020-06-10T17:41:28Z</time>
      </trkpt>
      <trkpt lat="48.56381" lon="-3.21261">
        <ele>150</ele>
        <time>2020-06-10T17:41:29Z</time>
      </trkpt>
      <trkpt lat="48.56384" lon="-3.21253">
        <ele>149.9</ele>
        <time>2020-06-10T17:41:30Z</time>
      </trkpt>
      <trkpt lat="48.56387" lon="-3.21244">
        <ele>149.7</ele>
        <time>2020-06-10T17:41:31Z</time>
      </trkpt>
      <trkpt lat="48.5639" lon="-3.21237">
        <ele>149.6</ele>
        <time>2020-06-10T17:41:32Z</time>
      </trkpt>
      <trkpt lat="48.56393" lon="-3.21229">
        <ele>149.5</ele>
        <time>2020-06-10T17:41:33Z</time>
      </trkpt>
      <trkpt lat="48.56396" lon="-3.2122">
        <ele>149.3</ele>
        <time>2020-06-10T17:41:34Z</time>
      </trkpt>
      <trkpt lat="48.56399" lon="-3.21213">
        <ele>149.1</ele>
        <time>2020-06-10T17:41:35Z</time>
      </trkpt>
      <trkpt lat="48.56402" lon="-3.21206">
        <ele>149</ele>
        <time>2020-06-10T17:41:36Z</time>
      </trkpt>
      <trkpt lat="48.56405" lon="-3.21199">
        <ele>148.8</ele>
        <time>2020-06-10T17:41:37Z</time>
      </trkpt>
      <trkpt lat="48.56408" lon="-3.21192">
        <ele>148.6</ele>
        <time>2020-06-10T17:41:38Z</time>
      </trkpt>
      <trkpt lat="48.5641" lon="-3.21184">
        <ele>148.5</ele>
        <time>2020-06-10T17:41:39Z</time>
      </trkpt>
      <trkpt lat="48.56413" lon="-3.21177">
        <ele>148.3</ele>
        <time>2020-06-10T17:41:40Z</time>
      </trkpt>
      <trkpt lat="48.56417" lon="-3.2117">
        <ele>148.2</ele>
        <time>2020-06-10T17:41:41Z</time>
      </trkpt>
      <trkpt lat="48.56419" lon="-3.21161">
        <ele>148</ele>
        <time>2020-06-10T17:41:42Z</time>
      </trkpt>
      <trkpt lat="48.56422" lon="-3.21153">
        <ele>147.4</ele>
        <time>2020-06-10T17:41:43Z</time>
      </trkpt>
      <trkpt lat="48.56426" lon="-3.21145">
        <ele>147.1</ele>
        <time>2020-06-10T17:41:44Z</time>
      </trkpt>
      <trkpt lat="48.56428" lon="-3.21136">
        <ele>146.6</ele>
        <time>2020-06-10T17:41:45Z</time>
      </trkpt>
      <trkpt lat="48.56431" lon="-3.21127">
        <ele>146.2</ele>
        <time>2020-06-10T17:41:46Z</time>
      </trkpt>
      <trkpt lat="48.56434" lon="-3.21118">
        <ele>145.8</ele>
        <time>2020-06-10T17:41:47Z</time>
      </trkpt>
      <trkpt lat="48.56438" lon="-3.21108">
        <ele>145.2</ele>
        <time>2020-06-10T17:41:48Z</time>
      </trkpt>
      <trkpt lat="48.56441" lon="-3.21098">
        <ele>144.7</ele>
        <time>2020-06-10T17:41:49Z</time>
      </trkpt>
      <trkpt lat="48.56446" lon="-3.21087">
        <ele>144.1</ele>
        <time>2020-06-10T17:41:50Z</time>
      </trkpt>
      <trkpt lat="48.5645" lon="-3.21077">
        <ele>143.5</ele>
        <time>2020-06-10T17:41:51Z</time>
      </trkpt>
      <trkpt lat="48.56454" lon="-3.21067">
        <ele>142.9</ele>
        <time>2020-06-10T17:41:52Z</time>
      </trkpt>
      <trkpt lat="48.56459" lon="-3.21058">
        <ele>142.3</ele>
        <time>2020-06-10T17:41:53Z</time>
      </trkpt>
      <trkpt lat="48.56464" lon="-3.21048">
        <ele>141.7</ele>
        <time>2020-06-10T17:41:54Z</time>
      </trkpt>
      <trkpt lat="48.56469" lon="-3.21039">
        <ele>141.2</ele>
        <time>2020-06-10T17:41:55Z</time>
      </trkpt>
      <trkpt lat="48.56476" lon="-3.21031">
        <ele>140.7</ele>
        <time>2020-06-10T17:41:56Z</time>
      </trkpt>
      <trkpt lat="48.56483" lon="-3.21024">
        <ele>140.1</ele>
        <time>2020-06-10T17:41:57Z</time>
      </trkpt>
      <trkpt lat="48.56491" lon="-3.21016">
        <ele>139.7</ele>
        <time>2020-06-10T17:41:58Z</time>
      </trkpt>
      <trkpt lat="48.56499" lon="-3.21007">
        <ele>139.4</ele>
        <time>2020-06-10T17:41:59Z</time>
      </trkpt>
      <trkpt lat="48.56507" lon="-3.21">
        <ele>139.1</ele>
        <time>2020-06-10T17:42:00Z</time>
      </trkpt>
      <trkpt lat="48.56515" lon="-3.20992">
        <ele>138.8</ele>
        <time>2020-06-10T17:42:01Z</time>
      </trkpt>
      <trkpt lat="48.56523" lon="-3.20985">
        <ele>138.6</ele>
        <time>2020-06-10T17:42:02Z</time>
      </trkpt>
      <trkpt lat="48.56531" lon="-3.20977">
        <ele>138.5</ele>
        <time>2020-06-10T17:42:03Z</time>
      </trkpt>
      <trkpt lat="48.56538" lon="-3.20969">
        <ele>138.4</ele>
        <time>2020-06-10T17:42:04Z</time>
      </trkpt>
      <trkpt lat="48.56546" lon="-3.20961">
        <ele>138.3</ele>
        <time>2020-06-10T17:42:05Z</time>
      </trkpt>
      <trkpt lat="48.56554" lon="-3.20954">
        <ele>138</ele>
        <time>2020-06-10T17:42:06Z</time>
      </trkpt>
      <trkpt lat="48.56561" lon="-3.20946">
        <ele>137.2</ele>
        <time>2020-06-10T17:42:07Z</time>
      </trkpt>
      <trkpt lat="48.56569" lon="-3.20937">
        <ele>136.9</ele>
        <time>2020-06-10T17:42:08Z</time>
      </trkpt>
      <trkpt lat="48.56575" lon="-3.20927">
        <ele>136.7</ele>
        <time>2020-06-10T17:42:09Z</time>
      </trkpt>
      <trkpt lat="48.56579" lon="-3.20916">
        <ele>136.6</ele>
        <time>2020-06-10T17:42:10Z</time>
      </trkpt>
      <trkpt lat="48.56583" lon="-3.20903">
        <ele>136.4</ele>
        <time>2020-06-10T17:42:11Z</time>
      </trkpt>
      <trkpt lat="48.56585" lon="-3.20891">
        <ele>136.2</ele>
        <time>2020-06-10T17:42:12Z</time>
      </trkpt>
      <trkpt lat="48.56587" lon="-3.20879">
        <ele>136</ele>
        <time>2020-06-10T17:42:13Z</time>
      </trkpt>
      <trkpt lat="48.56588" lon="-3.20867">
        <ele>135.7</ele>
        <time>2020-06-10T17:42:14Z</time>
      </trkpt>
      <trkpt lat="48.56588" lon="-3.20854">
        <ele>135.4</ele>
        <time>2020-06-10T17:42:15Z</time>
      </trkpt>
      <trkpt lat="48.56589" lon="-3.20842">
        <ele>135.1</ele>
        <time>2020-06-10T17:42:16Z</time>
      </trkpt>
      <trkpt lat="48.56589" lon="-3.20829">
        <ele>134.7</ele>
        <time>2020-06-10T17:42:17Z</time>
      </trkpt>
      <trkpt lat="48.56589" lon="-3.20817">
        <ele>134.3</ele>
        <time>2020-06-10T17:42:18Z</time>
      </trkpt>
      <trkpt lat="48.56588" lon="-3.20805">
        <ele>133.9</ele>
        <time>2020-06-10T17:42:19Z</time>
      </trkpt>
      <trkpt lat="48.56587" lon="-3.20792">
        <ele>133.5</ele>
        <time>2020-06-10T17:42:20Z</time>
      </trkpt>
      <trkpt lat="48.56586" lon="-3.2078">
        <ele>133.1</ele>
        <time>2020-06-10T17:42:21Z</time>
      </trkpt>
      <trkpt lat="48.56585" lon="-3.20767">
        <ele>132.7</ele>
        <time>2020-06-10T17:42:22Z</time>
      </trkpt>
      <trkpt lat="48.56584" lon="-3.20755">
        <ele>132.2</ele>
        <time>2020-06-10T17:42:23Z</time>
      </trkpt>
      <trkpt lat="48.56582" lon="-3.20742">
        <ele>131.8</ele>
        <time>2020-06-10T17:42:24Z</time>
      </trkpt>
      <trkpt lat="48.5658" lon="-3.2073">
        <ele>131.3</ele>
        <time>2020-06-10T17:42:25Z</time>
      </trkpt>
      <trkpt lat="48.56578" lon="-3.20719">
        <ele>130.7</ele>
        <time>2020-06-10T17:42:26Z</time>
      </trkpt>
      <trkpt lat="48.56575" lon="-3.20707">
        <ele>130.2</ele>
        <time>2020-06-10T17:42:27Z</time>
      </trkpt>
      <trkpt lat="48.56572" lon="-3.20695">
        <ele>129.9</ele>
        <time>2020-06-10T17:42:28Z</time>
      </trkpt>
      <trkpt lat="48.56569" lon="-3.20684">
        <ele>129.6</ele>
        <time>2020-06-10T17:42:29Z</time>
      </trkpt>
      <trkpt lat="48.56566" lon="-3.20673">
        <ele>129.4</ele>
        <time>2020-06-10T17:42:30Z</time>
      </trkpt>
      <trkpt lat="48.56565" lon="-3.20662">
        <ele>129.2</ele>
        <time>2020-06-10T17:42:31Z</time>
      </trkpt>
      <trkpt lat="48.56563" lon="-3.20653">
        <ele>128.9</ele>
        <time>2020-06-10T17:42:32Z</time>
      </trkpt>
      <trkpt lat="48.56562" lon="-3.20643">
        <ele>128.8</ele>
        <time>2020-06-10T17:42:33Z</time>
      </trkpt>
      <trkpt lat="48.56561" lon="-3.20634">
        <ele>128.7</ele>
        <time>2020-06-10T17:42:34Z</time>
      </trkpt>
      <trkpt lat="48.5656" lon="-3.20628">
        <ele>128.6</ele>
        <time>2020-06-10T17:42:35Z</time>
      </trkpt>
      <trkpt lat="48.5656" lon="-3.20623">
        <ele>128.6</ele>
        <time>2020-06-10T17:42:36Z</time>
      </trkpt>
      <trkpt lat="48.56559" lon="-3.20617">
        <ele>128.6</ele>
        <time>2020-06-10T17:42:37Z</time>
      </trkpt>
      <trkpt lat="48.56559" lon="-3.20615">
        <ele>128.6</ele>
        <time>2020-06-10T17:42:38Z</time>
      </trkpt>
      <trkpt lat="48.56557" lon="-3.20611">
        <ele>128.6</ele>
        <time>2020-06-10T17:42:39Z</time>
      </trkpt>
      <trkpt lat="48.56556" lon="-3.20607">
        <ele>128.5</ele>
        <time>2020-06-10T17:42:40Z</time>
      </trkpt>
      <trkpt lat="48.56554" lon="-3.20603">
        <ele>128.5</ele>
        <time>2020-06-10T17:42:41Z</time>
      </trkpt>
      <trkpt lat="48.56551" lon="-3.206">
        <ele>128.5</ele>
        <time>2020-06-10T17:42:42Z</time>
      </trkpt>
      <trkpt lat="48.56549" lon="-3.20597">
        <ele>128.5</ele>
        <time>2020-06-10T17:42:43Z</time>
      </trkpt>
      <trkpt lat="48.56546" lon="-3.20594">
        <ele>128.5</ele>
        <time>2020-06-10T17:42:44Z</time>
      </trkpt>
      <trkpt lat="48.56544" lon="-3.20589">
        <ele>128.4</ele>
        <time>2020-06-10T17:42:45Z</time>
      </trkpt>
      <trkpt lat="48.56541" lon="-3.20585">
        <ele>128.4</ele>
        <time>2020-06-10T17:42:46Z</time>
      </trkpt>
      <trkpt lat="48.56538" lon="-3.2058">
        <ele>128.4</ele>
        <time>2020-06-10T17:42:47Z</time>
      </trkpt>
      <trkpt lat="48.56536" lon="-3.20574">
        <ele>128.4</ele>
        <time>2020-06-10T17:42:48Z</time>
      </trkpt>
      <trkpt lat="48.56534" lon="-3.20568">
        <ele>128.3</ele>
        <time>2020-06-10T17:42:49Z</time>
      </trkpt>
      <trkpt lat="48.56533" lon="-3.20561">
        <ele>128.3</ele>
        <time>2020-06-10T17:42:50Z</time>
      </trkpt>
      <trkpt lat="48.56532" lon="-3.20554">
        <ele>128.3</ele>
        <time>2020-06-10T17:42:51Z</time>
      </trkpt>
      <trkpt lat="48.56533" lon="-3.20546">
        <ele>128.3</ele>
        <time>2020-06-10T17:42:52Z</time>
      </trkpt>
      <trkpt lat="48.56534" lon="-3.20539">
        <ele>128.2</ele>
        <time>2020-06-10T17:42:53Z</time>
      </trkpt>
      <trkpt lat="48.56535" lon="-3.20532">
        <ele>128.2</ele>
        <time>2020-06-10T17:42:54Z</time>
      </trkpt>
      <trkpt lat="48.56537" lon="-3.20525">
        <ele>128.2</ele>
        <time>2020-06-10T17:42:55Z</time>
      </trkpt>
      <trkpt lat="48.56539" lon="-3.20518">
        <ele>128.2</ele>
        <time>2020-06-10T17:42:56Z</time>
      </trkpt>
      <trkpt lat="48.56541" lon="-3.20513">
        <ele>128.2</ele>
        <time>2020-06-10T17:42:57Z</time>
      </trkpt>
      <trkpt lat="48.56545" lon="-3.20509">
        <ele>128.2</ele>
        <time>2020-06-10T17:42:58Z</time>
      </trkpt>
      <trkpt lat="48.5655" lon="-3.20506">
        <ele>128.2</ele>
        <time>2020-06-10T17:42:59Z</time>
      </trkpt>
      <trkpt lat="48.56554" lon="-3.20503">
        <ele>128.2</ele>
        <time>2020-06-10T17:43:00Z</time>
      </trkpt>
      <trkpt lat="48.56558" lon="-3.205">
        <ele>128.3</ele>
        <time>2020-06-10T17:43:01Z</time>
      </trkpt>
      <trkpt lat="48.56562" lon="-3.20498">
        <ele>128.3</ele>
        <time>2020-06-10T17:43:02Z</time>
      </trkpt>
      <trkpt lat="48.56566" lon="-3.20497">
        <ele>128.4</ele>
        <time>2020-06-10T17:43:03Z</time>
      </trkpt>
      <trkpt lat="48.56571" lon="-3.20497">
        <ele>128.4</ele>
        <time>2020-06-10T17:43:04Z</time>
      </trkpt>
      <trkpt lat="48.56576" lon="-3.20497">
        <ele>128.4</ele>
        <time>2020-06-10T17:43:05Z</time>
      </trkpt>
      <trkpt lat="48.5658" lon="-3.20496">
        <ele>128.4</ele>
        <time>2020-06-10T17:43:06Z</time>
      </trkpt>
      <trkpt lat="48.56585" lon="-3.20496">
        <ele>128.3</ele>
        <time>2020-06-10T17:43:07Z</time>
      </trkpt>
      <trkpt lat="48.56589" lon="-3.20496">
        <ele>128.1</ele>
        <time>2020-06-10T17:43:08Z</time>
      </trkpt>
      <trkpt lat="48.56594" lon="-3.20494">
        <ele>128</ele>
        <time>2020-06-10T17:43:09Z</time>
      </trkpt>
      <trkpt lat="48.56598" lon="-3.20492">
        <ele>127.8</ele>
        <time>2020-06-10T17:43:10Z</time>
      </trkpt>
      <trkpt lat="48.56603" lon="-3.20488">
        <ele>127.7</ele>
        <time>2020-06-10T17:43:11Z</time>
      </trkpt>
      <trkpt lat="48.56607" lon="-3.2048">
        <ele>127.5</ele>
        <time>2020-06-10T17:43:12Z</time>
      </trkpt>
      <trkpt lat="48.56611" lon="-3.20473">
        <ele>127.4</ele>
        <time>2020-06-10T17:43:13Z</time>
      </trkpt>
      <trkpt lat="48.56615" lon="-3.20465">
        <ele>127.2</ele>
        <time>2020-06-10T17:43:14Z</time>
      </trkpt>
      <trkpt lat="48.56618" lon="-3.20458">
        <ele>127.1</ele>
        <time>2020-06-10T17:43:15Z</time>
      </trkpt>
      <trkpt lat="48.56621" lon="-3.20449">
        <ele>127</ele>
        <time>2020-06-10T17:43:16Z</time>
      </trkpt>
      <trkpt lat="48.56624" lon="-3.2044">
        <ele>126.9</ele>
        <time>2020-06-10T17:43:17Z</time>
      </trkpt>
      <trkpt lat="48.56627" lon="-3.20431">
        <ele>126.7</ele>
        <time>2020-06-10T17:43:18Z</time>
      </trkpt>
      <trkpt lat="48.56628" lon="-3.20421">
        <ele>126.6</ele>
        <time>2020-06-10T17:43:19Z</time>
      </trkpt>
      <trkpt lat="48.56631" lon="-3.20411">
        <ele>126.4</ele>
        <time>2020-06-10T17:43:20Z</time>
      </trkpt>
      <trkpt lat="48.56634" lon="-3.20401">
        <ele>126.2</ele>
        <time>2020-06-10T17:43:21Z</time>
      </trkpt>
      <trkpt lat="48.56636" lon="-3.20391">
        <ele>126.1</ele>
        <time>2020-06-10T17:43:22Z</time>
      </trkpt>
      <trkpt lat="48.56638" lon="-3.20381">
        <ele>125.9</ele>
        <time>2020-06-10T17:43:23Z</time>
      </trkpt>
      <trkpt lat="48.56639" lon="-3.20371">
        <ele>125.8</ele>
        <time>2020-06-10T17:43:24Z</time>
      </trkpt>
      <trkpt lat="48.5664" lon="-3.2036">
        <ele>125.7</ele>
        <time>2020-06-10T17:43:25Z</time>
      </trkpt>
      <trkpt lat="48.56641" lon="-3.20351">
        <ele>125.6</ele>
        <time>2020-06-10T17:43:26Z</time>
      </trkpt>
      <trkpt lat="48.56643" lon="-3.20341">
        <ele>125.5</ele>
        <time>2020-06-10T17:43:27Z</time>
      </trkpt>
      <trkpt lat="48.56645" lon="-3.20331">
        <ele>125.3</ele>
        <time>2020-06-10T17:43:28Z</time>
      </trkpt>
      <trkpt lat="48.56646" lon="-3.20321">
        <ele>125.2</ele>
        <time>2020-06-10T17:43:29Z</time>
      </trkpt>
      <trkpt lat="48.56645" lon="-3.2031">
        <ele>125</ele>
        <time>2020-06-10T17:43:30Z</time>
      </trkpt>
      <trkpt lat="48.56645" lon="-3.203">
        <ele>124.9</ele>
        <time>2020-06-10T17:43:31Z</time>
      </trkpt>
      <trkpt lat="48.56644" lon="-3.20289">
        <ele>124.7</ele>
        <time>2020-06-10T17:43:32Z</time>
      </trkpt>
      <trkpt lat="48.56642" lon="-3.20279">
        <ele>124.5</ele>
        <time>2020-06-10T17:43:33Z</time>
      </trkpt>
      <trkpt lat="48.5664" lon="-3.20269">
        <ele>124.3</ele>
        <time>2020-06-10T17:43:34Z</time>
      </trkpt>
      <trkpt lat="48.56638" lon="-3.20259">
        <ele>124.2</ele>
        <time>2020-06-10T17:43:35Z</time>
      </trkpt>
      <trkpt lat="48.56636" lon="-3.20249">
        <ele>124.1</ele>
        <time>2020-06-10T17:43:36Z</time>
      </trkpt>
      <trkpt lat="48.56634" lon="-3.2024">
        <ele>124</ele>
        <time>2020-06-10T17:43:37Z</time>
      </trkpt>
      <trkpt lat="48.56631" lon="-3.20232">
        <ele>124</ele>
        <time>2020-06-10T17:43:38Z</time>
      </trkpt>
      <trkpt lat="48.56629" lon="-3.20223">
        <ele>123.9</ele>
        <time>2020-06-10T17:43:39Z</time>
      </trkpt>
      <trkpt lat="48.56626" lon="-3.20214">
        <ele>123.8</ele>
        <time>2020-06-10T17:43:40Z</time>
      </trkpt>
      <trkpt lat="48.56624" lon="-3.20206">
        <ele>123.6</ele>
        <time>2020-06-10T17:43:41Z</time>
      </trkpt>
      <trkpt lat="48.56621" lon="-3.20197">
        <ele>123.5</ele>
        <time>2020-06-10T17:43:42Z</time>
      </trkpt>
      <trkpt lat="48.56619" lon="-3.20188">
        <ele>123.4</ele>
        <time>2020-06-10T17:43:43Z</time>
      </trkpt>
      <trkpt lat="48.56617" lon="-3.20179">
        <ele>123.2</ele>
        <time>2020-06-10T17:43:44Z</time>
      </trkpt>
      <trkpt lat="48.56614" lon="-3.20171">
        <ele>123.1</ele>
        <time>2020-06-10T17:43:45Z</time>
      </trkpt>
      <trkpt lat="48.56611" lon="-3.20162">
        <ele>123.1</ele>
        <time>2020-06-10T17:43:46Z</time>
      </trkpt>
      <trkpt lat="48.56609" lon="-3.20152">
        <ele>123</ele>
        <time>2020-06-10T17:43:47Z</time>
      </trkpt>
      <trkpt lat="48.56606" lon="-3.20143">
        <ele>122.9</ele>
        <time>2020-06-10T17:43:48Z</time>
      </trkpt>
      <trkpt lat="48.56604" lon="-3.20133">
        <ele>122.8</ele>
        <time>2020-06-10T17:43:49Z</time>
      </trkpt>
      <trkpt lat="48.56601" lon="-3.20124">
        <ele>122.7</ele>
        <time>2020-06-10T17:43:50Z</time>
      </trkpt>
      <trkpt lat="48.56599" lon="-3.20115">
        <ele>122.6</ele>
        <time>2020-06-10T17:43:51Z</time>
      </trkpt>
      <trkpt lat="48.56596" lon="-3.20106">
        <ele>122.6</ele>
        <time>2020-06-10T17:43:52Z</time>
      </trkpt>
      <trkpt lat="48.56593" lon="-3.20097">
        <ele>122.6</ele>
        <time>2020-06-10T17:43:53Z</time>
      </trkpt>
      <trkpt lat="48.5659" lon="-3.20088">
        <ele>122.6</ele>
        <time>2020-06-10T17:43:54Z</time>
      </trkpt>
      <trkpt lat="48.56587" lon="-3.20079">
        <ele>122.6</ele>
        <time>2020-06-10T17:43:55Z</time>
      </trkpt>
      <trkpt lat="48.56585" lon="-3.2007">
        <ele>122.6</ele>
        <time>2020-06-10T17:43:56Z</time>
      </trkpt>
      <trkpt lat="48.56582" lon="-3.20061">
        <ele>122.6</ele>
        <time>2020-06-10T17:43:57Z</time>
      </trkpt>
      <trkpt lat="48.5658" lon="-3.20052">
        <ele>122.6</ele>
        <time>2020-06-10T17:43:58Z</time>
      </trkpt>
      <trkpt lat="48.56579" lon="-3.20043">
        <ele>122.6</ele>
        <time>2020-06-10T17:43:59Z</time>
      </trkpt>
      <trkpt lat="48.56576" lon="-3.20034">
        <ele>122.5</ele>
        <time>2020-06-10T17:44:00Z</time>
      </trkpt>
      <trkpt lat="48.56574" lon="-3.20025">
        <ele>122.5</ele>
        <time>2020-06-10T17:44:01Z</time>
      </trkpt>
      <trkpt lat="48.56571" lon="-3.20017">
        <ele>122.1</ele>
        <time>2020-06-10T17:44:02Z</time>
      </trkpt>
      <trkpt lat="48.56569" lon="-3.20008">
        <ele>122.1</ele>
        <time>2020-06-10T17:44:03Z</time>
      </trkpt>
      <trkpt lat="48.56567" lon="-3.2">
        <ele>122</ele>
        <time>2020-06-10T17:44:04Z</time>
      </trkpt>
      <trkpt lat="48.56564" lon="-3.19992">
        <ele>122</ele>
        <time>2020-06-10T17:44:05Z</time>
      </trkpt>
      <trkpt lat="48.56562" lon="-3.19983">
        <ele>122</ele>
        <time>2020-06-10T17:44:06Z</time>
      </trkpt>
      <trkpt lat="48.5656" lon="-3.19975">
        <ele>121.9</ele>
        <time>2020-06-10T17:44:07Z</time>
      </trkpt>
      <trkpt lat="48.56558" lon="-3.19967">
        <ele>121.9</ele>
        <time>2020-06-10T17:44:08Z</time>
      </trkpt>
      <trkpt lat="48.56556" lon="-3.19959">
        <ele>122</ele>
        <time>2020-06-10T17:44:09Z</time>
      </trkpt>
      <trkpt lat="48.56554" lon="-3.1995">
        <ele>122</ele>
        <time>2020-06-10T17:44:10Z</time>
      </trkpt>
      <trkpt lat="48.56553" lon="-3.19941">
        <ele>122</ele>
        <time>2020-06-10T17:44:11Z</time>
      </trkpt>
      <trkpt lat="48.56552" lon="-3.19933">
        <ele>122</ele>
        <time>2020-06-10T17:44:12Z</time>
      </trkpt>
      <trkpt lat="48.56552" lon="-3.19924">
        <ele>122</ele>
        <time>2020-06-10T17:44:13Z</time>
      </trkpt>
      <trkpt lat="48.56552" lon="-3.19915">
        <ele>122.1</ele>
        <time>2020-06-10T17:44:14Z</time>
      </trkpt>
      <trkpt lat="48.56551" lon="-3.19906">
        <ele>122.1</ele>
        <time>2020-06-10T17:44:15Z</time>
      </trkpt>
      <trkpt lat="48.56552" lon="-3.19897">
        <ele>122.1</ele>
        <time>2020-06-10T17:44:16Z</time>
      </trkpt>
      <trkpt lat="48.56553" lon="-3.19889">
        <ele>122.1</ele>
        <time>2020-06-10T17:44:17Z</time>
      </trkpt>
      <trkpt lat="48.56553" lon="-3.1988">
        <ele>122.2</ele>
        <time>2020-06-10T17:44:18Z</time>
      </trkpt>
      <trkpt lat="48.56553" lon="-3.19871">
        <ele>122.2</ele>
        <time>2020-06-10T17:44:19Z</time>
      </trkpt>
      <trkpt lat="48.56553" lon="-3.19863">
        <ele>122.3</ele>
        <time>2020-06-10T17:44:20Z</time>
      </trkpt>
      <trkpt lat="48.56553" lon="-3.19855">
        <ele>122.3</ele>
        <time>2020-06-10T17:44:21Z</time>
      </trkpt>
      <trkpt lat="48.56553" lon="-3.19846">
        <ele>122.4</ele>
        <time>2020-06-10T17:44:22Z</time>
      </trkpt>
      <trkpt lat="48.56554" lon="-3.19838">
        <ele>122.5</ele>
        <time>2020-06-10T17:44:23Z</time>
      </trkpt>
      <trkpt lat="48.56555" lon="-3.19831">
        <ele>122.5</ele>
        <time>2020-06-10T17:44:24Z</time>
      </trkpt>
      <trkpt lat="48.56555" lon="-3.19823">
        <ele>122.5</ele>
        <time>2020-06-10T17:44:25Z</time>
      </trkpt>
      <trkpt lat="48.56555" lon="-3.19816">
        <ele>122.6</ele>
        <time>2020-06-10T17:44:26Z</time>
      </trkpt>
      <trkpt lat="48.56555" lon="-3.19809">
        <ele>122.6</ele>
        <time>2020-06-10T17:44:27Z</time>
      </trkpt>
      <trkpt lat="48.56556" lon="-3.19802">
        <ele>122.6</ele>
        <time>2020-06-10T17:44:28Z</time>
      </trkpt>
      <trkpt lat="48.56556" lon="-3.19796">
        <ele>122.7</ele>
        <time>2020-06-10T17:44:29Z</time>
      </trkpt>
      <trkpt lat="48.56556" lon="-3.1979">
        <ele>122.7</ele>
        <time>2020-06-10T17:44:30Z</time>
      </trkpt>
      <trkpt lat="48.56555" lon="-3.19784">
        <ele>122.8</ele>
        <time>2020-06-10T17:44:31Z</time>
      </trkpt>
      <trkpt lat="48.56556" lon="-3.19778">
        <ele>122.8</ele>
        <time>2020-06-10T17:44:32Z</time>
      </trkpt>
      <trkpt lat="48.56555" lon="-3.19773">
        <ele>122.9</ele>
        <time>2020-06-10T17:44:33Z</time>
      </trkpt>
      <trkpt lat="48.56555" lon="-3.19767">
        <ele>122.9</ele>
        <time>2020-06-10T17:44:34Z</time>
      </trkpt>
      <trkpt lat="48.56555" lon="-3.19761">
        <ele>122.9</ele>
        <time>2020-06-10T17:44:35Z</time>
      </trkpt>
      <trkpt lat="48.56555" lon="-3.19754">
        <ele>122.9</ele>
        <time>2020-06-10T17:44:36Z</time>
      </trkpt>
      <trkpt lat="48.56555" lon="-3.19747">
        <ele>122.9</ele>
        <time>2020-06-10T17:44:37Z</time>
      </trkpt>
      <trkpt lat="48.56555" lon="-3.19739">
        <ele>122.9</ele>
        <time>2020-06-10T17:44:38Z</time>
      </trkpt>
      <trkpt lat="48.56555" lon="-3.19731">
        <ele>122.9</ele>
        <time>2020-06-10T17:44:39Z</time>
      </trkpt>
      <trkpt lat="48.56555" lon="-3.19722">
        <ele>123</ele>
        <time>2020-06-10T17:44:40Z</time>
      </trkpt>
      <trkpt lat="48.56555" lon="-3.19713">
        <ele>123</ele>
        <time>2020-06-10T17:44:41Z</time>
      </trkpt>
      <trkpt lat="48.56555" lon="-3.19704">
        <ele>123.1</ele>
        <time>2020-06-10T17:44:42Z</time>
      </trkpt>
      <trkpt lat="48.56555" lon="-3.19694">
        <ele>123.1</ele>
        <time>2020-06-10T17:44:43Z</time>
      </trkpt>
      <trkpt lat="48.56555" lon="-3.19685">
        <ele>123.2</ele>
        <time>2020-06-10T17:44:44Z</time>
      </trkpt>
      <trkpt lat="48.56555" lon="-3.19676">
        <ele>123.3</ele>
        <time>2020-06-10T17:44:45Z</time>
      </trkpt>
      <trkpt lat="48.56555" lon="-3.19666">
        <ele>123.4</ele>
        <time>2020-06-10T17:44:46Z</time>
      </trkpt>
      <trkpt lat="48.56556" lon="-3.19657">
        <ele>123.5</ele>
        <time>2020-06-10T17:44:47Z</time>
      </trkpt>
      <trkpt lat="48.56557" lon="-3.19647">
        <ele>123.6</ele>
        <time>2020-06-10T17:44:48Z</time>
      </trkpt>
      <trkpt lat="48.56558" lon="-3.19638">
        <ele>123.7</ele>
        <time>2020-06-10T17:44:49Z</time>
      </trkpt>
      <trkpt lat="48.56558" lon="-3.19629">
        <ele>123.8</ele>
        <time>2020-06-10T17:44:50Z</time>
      </trkpt>
      <trkpt lat="48.56559" lon="-3.1962">
        <ele>123.9</ele>
        <time>2020-06-10T17:44:51Z</time>
      </trkpt>
      <trkpt lat="48.5656" lon="-3.19611">
        <ele>124.1</ele>
        <time>2020-06-10T17:44:52Z</time>
      </trkpt>
      <trkpt lat="48.56559" lon="-3.19601">
        <ele>124.3</ele>
        <time>2020-06-10T17:44:53Z</time>
      </trkpt>
      <trkpt lat="48.56559" lon="-3.19592">
        <ele>124.4</ele>
        <time>2020-06-10T17:44:54Z</time>
      </trkpt>
      <trkpt lat="48.5656" lon="-3.19584">
        <ele>124.5</ele>
        <time>2020-06-10T17:44:55Z</time>
      </trkpt>
      <trkpt lat="48.5656" lon="-3.19575">
        <ele>124.7</ele>
        <time>2020-06-10T17:44:56Z</time>
      </trkpt>
      <trkpt lat="48.56561" lon="-3.19566">
        <ele>124.8</ele>
        <time>2020-06-10T17:44:57Z</time>
      </trkpt>
      <trkpt lat="48.56563" lon="-3.19557">
        <ele>125</ele>
        <time>2020-06-10T17:44:58Z</time>
      </trkpt>
      <trkpt lat="48.56564" lon="-3.19547">
        <ele>125.1</ele>
        <time>2020-06-10T17:44:59Z</time>
      </trkpt>
      <trkpt lat="48.56565" lon="-3.19538">
        <ele>125.3</ele>
        <time>2020-06-10T17:45:00Z</time>
      </trkpt>
      <trkpt lat="48.56566" lon="-3.19531">
        <ele>125.4</ele>
        <time>2020-06-10T17:45:01Z</time>
      </trkpt>
      <trkpt lat="48.56567" lon="-3.19522">
        <ele>125.5</ele>
        <time>2020-06-10T17:45:02Z</time>
      </trkpt>
      <trkpt lat="48.56567" lon="-3.19514">
        <ele>125.6</ele>
        <time>2020-06-10T17:45:03Z</time>
      </trkpt>
      <trkpt lat="48.56568" lon="-3.19506">
        <ele>125.7</ele>
        <time>2020-06-10T17:45:04Z</time>
      </trkpt>
      <trkpt lat="48.56568" lon="-3.19497">
        <ele>125.8</ele>
        <time>2020-06-10T17:45:05Z</time>
      </trkpt>
      <trkpt lat="48.56569" lon="-3.1949">
        <ele>126</ele>
        <time>2020-06-10T17:45:06Z</time>
      </trkpt>
      <trkpt lat="48.5657" lon="-3.19484">
        <ele>126.1</ele>
        <time>2020-06-10T17:45:07Z</time>
      </trkpt>
      <trkpt lat="48.56571" lon="-3.19477">
        <ele>126.2</ele>
        <time>2020-06-10T17:45:08Z</time>
      </trkpt>
      <trkpt lat="48.56571" lon="-3.1947">
        <ele>126.3</ele>
        <time>2020-06-10T17:45:09Z</time>
      </trkpt>
      <trkpt lat="48.56572" lon="-3.19464">
        <ele>126.5</ele>
        <time>2020-06-10T17:45:10Z</time>
      </trkpt>
      <trkpt lat="48.56572" lon="-3.19456">
        <ele>126.6</ele>
        <time>2020-06-10T17:45:11Z</time>
      </trkpt>
      <trkpt lat="48.56573" lon="-3.19449">
        <ele>126.7</ele>
        <time>2020-06-10T17:45:12Z</time>
      </trkpt>
      <trkpt lat="48.56574" lon="-3.19441">
        <ele>126.9</ele>
        <time>2020-06-10T17:45:13Z</time>
      </trkpt>
      <trkpt lat="48.56575" lon="-3.19434">
        <ele>127</ele>
        <time>2020-06-10T17:45:14Z</time>
      </trkpt>
      <trkpt lat="48.56575" lon="-3.19427">
        <ele>127.2</ele>
        <time>2020-06-10T17:45:15Z</time>
      </trkpt>
      <trkpt lat="48.56576" lon="-3.19421">
        <ele>127.3</ele>
        <time>2020-06-10T17:45:16Z</time>
      </trkpt>
      <trkpt lat="48.56576" lon="-3.19415">
        <ele>127.4</ele>
        <time>2020-06-10T17:45:17Z</time>
      </trkpt>
      <trkpt lat="48.56577" lon="-3.19409">
        <ele>127.5</ele>
        <time>2020-06-10T17:45:18Z</time>
      </trkpt>
      <trkpt lat="48.56577" lon="-3.19403">
        <ele>127.7</ele>
        <time>2020-06-10T17:45:19Z</time>
      </trkpt>
      <trkpt lat="48.56577" lon="-3.19397">
        <ele>127.8</ele>
        <time>2020-06-10T17:45:20Z</time>
      </trkpt>
      <trkpt lat="48.56577" lon="-3.1939">
        <ele>127.9</ele>
        <time>2020-06-10T17:45:21Z</time>
      </trkpt>
      <trkpt lat="48.56578" lon="-3.19382">
        <ele>128</ele>
        <time>2020-06-10T17:45:22Z</time>
      </trkpt>
      <trkpt lat="48.56578" lon="-3.19375">
        <ele>128.1</ele>
        <time>2020-06-10T17:45:23Z</time>
      </trkpt>
      <trkpt lat="48.56578" lon="-3.19367">
        <ele>128.3</ele>
        <time>2020-06-10T17:45:24Z</time>
      </trkpt>
      <trkpt lat="48.56579" lon="-3.19361">
        <ele>128.4</ele>
        <time>2020-06-10T17:45:25Z</time>
      </trkpt>
      <trkpt lat="48.56579" lon="-3.19355">
        <ele>128.5</ele>
        <time>2020-06-10T17:45:26Z</time>
      </trkpt>
      <trkpt lat="48.5658" lon="-3.19348">
        <ele>128.6</ele>
        <time>2020-06-10T17:45:27Z</time>
      </trkpt>
      <trkpt lat="48.56581" lon="-3.19341">
        <ele>128.7</ele>
        <time>2020-06-10T17:45:28Z</time>
      </trkpt>
      <trkpt lat="48.56582" lon="-3.19334">
        <ele>128.8</ele>
        <time>2020-06-10T17:45:29Z</time>
      </trkpt>
      <trkpt lat="48.56582" lon="-3.19328">
        <ele>128.8</ele>
        <time>2020-06-10T17:45:30Z</time>
      </trkpt>
      <trkpt lat="48.56583" lon="-3.19323">
        <ele>128.9</ele>
        <time>2020-06-10T17:45:31Z</time>
      </trkpt>
      <trkpt lat="48.56584" lon="-3.19314">
        <ele>129</ele>
        <time>2020-06-10T17:45:32Z</time>
      </trkpt>
      <trkpt lat="48.56584" lon="-3.19308">
        <ele>129.1</ele>
        <time>2020-06-10T17:45:33Z</time>
      </trkpt>
      <trkpt lat="48.56585" lon="-3.19302">
        <ele>129.1</ele>
        <time>2020-06-10T17:45:34Z</time>
      </trkpt>
      <trkpt lat="48.56585" lon="-3.19296">
        <ele>129.2</ele>
        <time>2020-06-10T17:45:35Z</time>
      </trkpt>
      <trkpt lat="48.56585" lon="-3.1929">
        <ele>129.2</ele>
        <time>2020-06-10T17:45:36Z</time>
      </trkpt>
      <trkpt lat="48.56586" lon="-3.19283">
        <ele>129.3</ele>
        <time>2020-06-10T17:45:37Z</time>
      </trkpt>
      <trkpt lat="48.56586" lon="-3.19276">
        <ele>129.4</ele>
        <time>2020-06-10T17:45:38Z</time>
      </trkpt>
      <trkpt lat="48.56587" lon="-3.19269">
        <ele>129.4</ele>
        <time>2020-06-10T17:45:39Z</time>
      </trkpt>
      <trkpt lat="48.56587" lon="-3.19262">
        <ele>129.4</ele>
        <time>2020-06-10T17:45:40Z</time>
      </trkpt>
      <trkpt lat="48.56588" lon="-3.19256">
        <ele>129.4</ele>
        <time>2020-06-10T17:45:41Z</time>
      </trkpt>
      <trkpt lat="48.56588" lon="-3.1925">
        <ele>129.4</ele>
        <time>2020-06-10T17:45:42Z</time>
      </trkpt>
      <trkpt lat="48.56589" lon="-3.19242">
        <ele>129.4</ele>
        <time>2020-06-10T17:45:43Z</time>
      </trkpt>
      <trkpt lat="48.56589" lon="-3.19234">
        <ele>129.4</ele>
        <time>2020-06-10T17:45:44Z</time>
      </trkpt>
      <trkpt lat="48.5659" lon="-3.19227">
        <ele>129.4</ele>
        <time>2020-06-10T17:45:45Z</time>
      </trkpt>
      <trkpt lat="48.5659" lon="-3.1922">
        <ele>129.4</ele>
        <time>2020-06-10T17:45:46Z</time>
      </trkpt>
      <trkpt lat="48.56592" lon="-3.19214">
        <ele>129.4</ele>
        <time>2020-06-10T17:45:47Z</time>
      </trkpt>
      <trkpt lat="48.56592" lon="-3.19206">
        <ele>129.3</ele>
        <time>2020-06-10T17:45:48Z</time>
      </trkpt>
      <trkpt lat="48.56593" lon="-3.19197">
        <ele>129.3</ele>
        <time>2020-06-10T17:45:49Z</time>
      </trkpt>
      <trkpt lat="48.56593" lon="-3.19191">
        <ele>129.3</ele>
        <time>2020-06-10T17:45:50Z</time>
      </trkpt>
      <trkpt lat="48.56594" lon="-3.19185">
        <ele>129.3</ele>
        <time>2020-06-10T17:45:51Z</time>
      </trkpt>
      <trkpt lat="48.56594" lon="-3.19178">
        <ele>129.3</ele>
        <time>2020-06-10T17:45:52Z</time>
      </trkpt>
      <trkpt lat="48.56595" lon="-3.19172">
        <ele>129.3</ele>
        <time>2020-06-10T17:45:53Z</time>
      </trkpt>
      <trkpt lat="48.56595" lon="-3.19165">
        <ele>129.2</ele>
        <time>2020-06-10T17:45:54Z</time>
      </trkpt>
      <trkpt lat="48.56595" lon="-3.19156">
        <ele>129.2</ele>
        <time>2020-06-10T17:45:55Z</time>
      </trkpt>
      <trkpt lat="48.56595" lon="-3.19148">
        <ele>129.1</ele>
        <time>2020-06-10T17:45:56Z</time>
      </trkpt>
      <trkpt lat="48.56596" lon="-3.19143">
        <ele>129.1</ele>
        <time>2020-06-10T17:45:57Z</time>
      </trkpt>
      <trkpt lat="48.56597" lon="-3.19135">
        <ele>129</ele>
        <time>2020-06-10T17:45:58Z</time>
      </trkpt>
      <trkpt lat="48.56598" lon="-3.19128">
        <ele>128.9</ele>
        <time>2020-06-10T17:45:59Z</time>
      </trkpt>
      <trkpt lat="48.56598" lon="-3.1912">
        <ele>128.8</ele>
        <time>2020-06-10T17:46:00Z</time>
      </trkpt>
      <trkpt lat="48.56598" lon="-3.19111">
        <ele>128.7</ele>
        <time>2020-06-10T17:46:01Z</time>
      </trkpt>
      <trkpt lat="48.56599" lon="-3.19104">
        <ele>128.5</ele>
        <time>2020-06-10T17:46:02Z</time>
      </trkpt>
      <trkpt lat="48.566" lon="-3.19096">
        <ele>128.4</ele>
        <time>2020-06-10T17:46:03Z</time>
      </trkpt>
      <trkpt lat="48.566" lon="-3.19087">
        <ele>128.2</ele>
        <time>2020-06-10T17:46:04Z</time>
      </trkpt>
      <trkpt lat="48.56601" lon="-3.19079">
        <ele>128</ele>
        <time>2020-06-10T17:46:05Z</time>
      </trkpt>
      <trkpt lat="48.56601" lon="-3.19071">
        <ele>127.9</ele>
        <time>2020-06-10T17:46:06Z</time>
      </trkpt>
      <trkpt lat="48.56602" lon="-3.19061">
        <ele>127.7</ele>
        <time>2020-06-10T17:46:07Z</time>
      </trkpt>
      <trkpt lat="48.56603" lon="-3.19051">
        <ele>127.5</ele>
        <time>2020-06-10T17:46:08Z</time>
      </trkpt>
      <trkpt lat="48.56605" lon="-3.1904">
        <ele>127.2</ele>
        <time>2020-06-10T17:46:09Z</time>
      </trkpt>
      <trkpt lat="48.56606" lon="-3.19031">
        <ele>127.1</ele>
        <time>2020-06-10T17:46:10Z</time>
      </trkpt>
      <trkpt lat="48.56608" lon="-3.19022">
        <ele>126.9</ele>
        <time>2020-06-10T17:46:11Z</time>
      </trkpt>
      <trkpt lat="48.56609" lon="-3.19012">
        <ele>126.8</ele>
        <time>2020-06-10T17:46:12Z</time>
      </trkpt>
      <trkpt lat="48.5661" lon="-3.19003">
        <ele>126.7</ele>
        <time>2020-06-10T17:46:13Z</time>
      </trkpt>
      <trkpt lat="48.56611" lon="-3.18994">
        <ele>126.6</ele>
        <time>2020-06-10T17:46:14Z</time>
      </trkpt>
      <trkpt lat="48.56612" lon="-3.18985">
        <ele>126.5</ele>
        <time>2020-06-10T17:46:15Z</time>
      </trkpt>
      <trkpt lat="48.56613" lon="-3.18975">
        <ele>126.5</ele>
        <time>2020-06-10T17:46:16Z</time>
      </trkpt>
      <trkpt lat="48.56613" lon="-3.18966">
        <ele>126.5</ele>
        <time>2020-06-10T17:46:17Z</time>
      </trkpt>
      <trkpt lat="48.56614" lon="-3.18957">
        <ele>126.5</ele>
        <time>2020-06-10T17:46:18Z</time>
      </trkpt>
      <trkpt lat="48.56614" lon="-3.18949">
        <ele>126.5</ele>
        <time>2020-06-10T17:46:19Z</time>
      </trkpt>
      <trkpt lat="48.56616" lon="-3.1894">
        <ele>126.5</ele>
        <time>2020-06-10T17:46:20Z</time>
      </trkpt>
      <trkpt lat="48.56617" lon="-3.18931">
        <ele>126.5</ele>
        <time>2020-06-10T17:46:21Z</time>
      </trkpt>
      <trkpt lat="48.56617" lon="-3.18923">
        <ele>126.5</ele>
        <time>2020-06-10T17:46:22Z</time>
      </trkpt>
      <trkpt lat="48.56618" lon="-3.18914">
        <ele>126.5</ele>
        <time>2020-06-10T17:46:23Z</time>
      </trkpt>
      <trkpt lat="48.56619" lon="-3.18906">
        <ele>126.6</ele>
        <time>2020-06-10T17:46:24Z</time>
      </trkpt>
      <trkpt lat="48.5662" lon="-3.18898">
        <ele>126.6</ele>
        <time>2020-06-10T17:46:25Z</time>
      </trkpt>
      <trkpt lat="48.56621" lon="-3.1889">
        <ele>126.6</ele>
        <time>2020-06-10T17:46:26Z</time>
      </trkpt>
      <trkpt lat="48.56621" lon="-3.18882">
        <ele>126.7</ele>
        <time>2020-06-10T17:46:27Z</time>
      </trkpt>
      <trkpt lat="48.56622" lon="-3.18873">
        <ele>126.7</ele>
        <time>2020-06-10T17:46:28Z</time>
      </trkpt>
      <trkpt lat="48.56623" lon="-3.18865">
        <ele>126.7</ele>
        <time>2020-06-10T17:46:29Z</time>
      </trkpt>
      <trkpt lat="48.56625" lon="-3.18855">
        <ele>126.7</ele>
        <time>2020-06-10T17:46:30Z</time>
      </trkpt>
      <trkpt lat="48.56625" lon="-3.18846">
        <ele>126.7</ele>
        <time>2020-06-10T17:46:31Z</time>
      </trkpt>
      <trkpt lat="48.56626" lon="-3.18836">
        <ele>126.6</ele>
        <time>2020-06-10T17:46:32Z</time>
      </trkpt>
      <trkpt lat="48.56626" lon="-3.18826">
        <ele>126.6</ele>
        <time>2020-06-10T17:46:33Z</time>
      </trkpt>
      <trkpt lat="48.56627" lon="-3.18816">
        <ele>126.5</ele>
        <time>2020-06-10T17:46:34Z</time>
      </trkpt>
      <trkpt lat="48.56628" lon="-3.18807">
        <ele>126.4</ele>
        <time>2020-06-10T17:46:35Z</time>
      </trkpt>
      <trkpt lat="48.56629" lon="-3.18797">
        <ele>126.3</ele>
        <time>2020-06-10T17:46:36Z</time>
      </trkpt>
      <trkpt lat="48.5663" lon="-3.18787">
        <ele>126.3</ele>
        <time>2020-06-10T17:46:37Z</time>
      </trkpt>
      <trkpt lat="48.5663" lon="-3.18778">
        <ele>126.3</ele>
        <time>2020-06-10T17:46:38Z</time>
      </trkpt>
      <trkpt lat="48.56631" lon="-3.18768">
        <ele>126.3</ele>
        <time>2020-06-10T17:46:39Z</time>
      </trkpt>
      <trkpt lat="48.56632" lon="-3.18759">
        <ele>126.2</ele>
        <time>2020-06-10T17:46:40Z</time>
      </trkpt>
      <trkpt lat="48.56633" lon="-3.1875">
        <ele>126.2</ele>
        <time>2020-06-10T17:46:41Z</time>
      </trkpt>
      <trkpt lat="48.56634" lon="-3.18741">
        <ele>126.1</ele>
        <time>2020-06-10T17:46:42Z</time>
      </trkpt>
      <trkpt lat="48.56634" lon="-3.18731">
        <ele>126.1</ele>
        <time>2020-06-10T17:46:43Z</time>
      </trkpt>
      <trkpt lat="48.56635" lon="-3.18722">
        <ele>126</ele>
        <time>2020-06-10T17:46:44Z</time>
      </trkpt>
      <trkpt lat="48.56636" lon="-3.18712">
        <ele>126</ele>
        <time>2020-06-10T17:46:45Z</time>
      </trkpt>
      <trkpt lat="48.56637" lon="-3.18703">
        <ele>125.9</ele>
        <time>2020-06-10T17:46:46Z</time>
      </trkpt>
      <trkpt lat="48.56638" lon="-3.18694">
        <ele>125.9</ele>
        <time>2020-06-10T17:46:47Z</time>
      </trkpt>
      <trkpt lat="48.56639" lon="-3.18685">
        <ele>125.8</ele>
        <time>2020-06-10T17:46:48Z</time>
      </trkpt>
      <trkpt lat="48.5664" lon="-3.18676">
        <ele>125.7</ele>
        <time>2020-06-10T17:46:49Z</time>
      </trkpt>
      <trkpt lat="48.56641" lon="-3.18667">
        <ele>125.6</ele>
        <time>2020-06-10T17:46:50Z</time>
      </trkpt>
      <trkpt lat="48.56641" lon="-3.18658">
        <ele>125.5</ele>
        <time>2020-06-10T17:46:51Z</time>
      </trkpt>
      <trkpt lat="48.56641" lon="-3.18649">
        <ele>125.4</ele>
        <time>2020-06-10T17:46:52Z</time>
      </trkpt>
      <trkpt lat="48.56641" lon="-3.1864">
        <ele>125.3</ele>
        <time>2020-06-10T17:46:53Z</time>
      </trkpt>
      <trkpt lat="48.56642" lon="-3.18632">
        <ele>125.2</ele>
        <time>2020-06-10T17:46:54Z</time>
      </trkpt>
      <trkpt lat="48.56643" lon="-3.18624">
        <ele>125.1</ele>
        <time>2020-06-10T17:46:55Z</time>
      </trkpt>
      <trkpt lat="48.56644" lon="-3.18616">
        <ele>124.9</ele>
        <time>2020-06-10T17:46:56Z</time>
      </trkpt>
      <trkpt lat="48.56645" lon="-3.18607">
        <ele>124.8</ele>
        <time>2020-06-10T17:46:57Z</time>
      </trkpt>
      <trkpt lat="48.56646" lon="-3.18599">
        <ele>124.6</ele>
        <time>2020-06-10T17:46:58Z</time>
      </trkpt>
      <trkpt lat="48.56646" lon="-3.1859">
        <ele>124.4</ele>
        <time>2020-06-10T17:46:59Z</time>
      </trkpt>
      <trkpt lat="48.56646" lon="-3.18581">
        <ele>124.2</ele>
        <time>2020-06-10T17:47:00Z</time>
      </trkpt>
      <trkpt lat="48.5665" lon="-3.18572">
        <ele>124</ele>
        <time>2020-06-10T17:47:01Z</time>
      </trkpt>
      <trkpt lat="48.56651" lon="-3.18563">
        <ele>123.7</ele>
        <time>2020-06-10T17:47:02Z</time>
      </trkpt>
      <trkpt lat="48.56652" lon="-3.18552">
        <ele>123.4</ele>
        <time>2020-06-10T17:47:03Z</time>
      </trkpt>
      <trkpt lat="48.56654" lon="-3.18542">
        <ele>123.1</ele>
        <time>2020-06-10T17:47:04Z</time>
      </trkpt>
      <trkpt lat="48.56655" lon="-3.18532">
        <ele>122.8</ele>
        <time>2020-06-10T17:47:05Z</time>
      </trkpt>
      <trkpt lat="48.56656" lon="-3.18521">
        <ele>122.4</ele>
        <time>2020-06-10T17:47:06Z</time>
      </trkpt>
      <trkpt lat="48.56657" lon="-3.1851">
        <ele>122</ele>
        <time>2020-06-10T17:47:07Z</time>
      </trkpt>
      <trkpt lat="48.56658" lon="-3.18499">
        <ele>121.7</ele>
        <time>2020-06-10T17:47:08Z</time>
      </trkpt>
      <trkpt lat="48.56658" lon="-3.18487">
        <ele>121.2</ele>
        <time>2020-06-10T17:47:09Z</time>
      </trkpt>
      <trkpt lat="48.5666" lon="-3.18475">
        <ele>120.9</ele>
        <time>2020-06-10T17:47:10Z</time>
      </trkpt>
      <trkpt lat="48.56661" lon="-3.18463">
        <ele>120.5</ele>
        <time>2020-06-10T17:47:11Z</time>
      </trkpt>
      <trkpt lat="48.56662" lon="-3.18451">
        <ele>120.1</ele>
        <time>2020-06-10T17:47:12Z</time>
      </trkpt>
      <trkpt lat="48.56663" lon="-3.18439">
        <ele>119.8</ele>
        <time>2020-06-10T17:47:13Z</time>
      </trkpt>
      <trkpt lat="48.56664" lon="-3.18427">
        <ele>119.4</ele>
        <time>2020-06-10T17:47:14Z</time>
      </trkpt>
      <trkpt lat="48.56664" lon="-3.18415">
        <ele>118.9</ele>
        <time>2020-06-10T17:47:15Z</time>
      </trkpt>
      <trkpt lat="48.56665" lon="-3.18403">
        <ele>118.5</ele>
        <time>2020-06-10T17:47:16Z</time>
      </trkpt>
      <trkpt lat="48.56665" lon="-3.18391">
        <ele>118</ele>
        <time>2020-06-10T17:47:17Z</time>
      </trkpt>
      <trkpt lat="48.56666" lon="-3.18378">
        <ele>117.7</ele>
        <time>2020-06-10T17:47:18Z</time>
      </trkpt>
      <trkpt lat="48.56667" lon="-3.18365">
        <ele>117.3</ele>
        <time>2020-06-10T17:47:19Z</time>
      </trkpt>
      <trkpt lat="48.56667" lon="-3.18352">
        <ele>116.8</ele>
        <time>2020-06-10T17:47:20Z</time>
      </trkpt>
      <trkpt lat="48.56667" lon="-3.18339">
        <ele>116.2</ele>
        <time>2020-06-10T17:47:21Z</time>
      </trkpt>
      <trkpt lat="48.56667" lon="-3.18326">
        <ele>115.6</ele>
        <time>2020-06-10T17:47:22Z</time>
      </trkpt>
      <trkpt lat="48.56667" lon="-3.18312">
        <ele>115.2</ele>
        <time>2020-06-10T17:47:23Z</time>
      </trkpt>
      <trkpt lat="48.56667" lon="-3.18299">
        <ele>114.8</ele>
        <time>2020-06-10T17:47:24Z</time>
      </trkpt>
      <trkpt lat="48.56668" lon="-3.18285">
        <ele>114.5</ele>
        <time>2020-06-10T17:47:25Z</time>
      </trkpt>
      <trkpt lat="48.56668" lon="-3.18272">
        <ele>114.3</ele>
        <time>2020-06-10T17:47:26Z</time>
      </trkpt>
      <trkpt lat="48.56669" lon="-3.18259">
        <ele>114.1</ele>
        <time>2020-06-10T17:47:27Z</time>
      </trkpt>
      <trkpt lat="48.5667" lon="-3.18246">
        <ele>114</ele>
        <time>2020-06-10T17:47:28Z</time>
      </trkpt>
      <trkpt lat="48.56672" lon="-3.18234">
        <ele>113.9</ele>
        <time>2020-06-10T17:47:29Z</time>
      </trkpt>
      <trkpt lat="48.56674" lon="-3.18223">
        <ele>113.8</ele>
        <time>2020-06-10T17:47:30Z</time>
      </trkpt>
      <trkpt lat="48.56676" lon="-3.18212">
        <ele>113.6</ele>
        <time>2020-06-10T17:47:31Z</time>
      </trkpt>
      <trkpt lat="48.56678" lon="-3.18202">
        <ele>113.7</ele>
        <time>2020-06-10T17:47:32Z</time>
      </trkpt>
      <trkpt lat="48.56681" lon="-3.18192">
        <ele>113.7</ele>
        <time>2020-06-10T17:47:33Z</time>
      </trkpt>
      <trkpt lat="48.56683" lon="-3.18182">
        <ele>113.7</ele>
        <time>2020-06-10T17:47:34Z</time>
      </trkpt>
      <trkpt lat="48.56686" lon="-3.18172">
        <ele>113.7</ele>
        <time>2020-06-10T17:47:35Z</time>
      </trkpt>
      <trkpt lat="48.56689" lon="-3.18162">
        <ele>113.7</ele>
        <time>2020-06-10T17:47:36Z</time>
      </trkpt>
      <trkpt lat="48.56691" lon="-3.18153">
        <ele>113.6</ele>
        <time>2020-06-10T17:47:37Z</time>
      </trkpt>
      <trkpt lat="48.56694" lon="-3.18144">
        <ele>113.6</ele>
        <time>2020-06-10T17:47:38Z</time>
      </trkpt>
      <trkpt lat="48.56696" lon="-3.18135">
        <ele>113.6</ele>
        <time>2020-06-10T17:47:39Z</time>
      </trkpt>
      <trkpt lat="48.56699" lon="-3.18127">
        <ele>113.6</ele>
        <time>2020-06-10T17:47:40Z</time>
      </trkpt>
      <trkpt lat="48.56701" lon="-3.18118">
        <ele>113.5</ele>
        <time>2020-06-10T17:47:41Z</time>
      </trkpt>
      <trkpt lat="48.56703" lon="-3.1811">
        <ele>113.5</ele>
        <time>2020-06-10T17:47:42Z</time>
      </trkpt>
      <trkpt lat="48.56705" lon="-3.18102">
        <ele>113.5</ele>
        <time>2020-06-10T17:47:43Z</time>
      </trkpt>
      <trkpt lat="48.56707" lon="-3.18094">
        <ele>113.5</ele>
        <time>2020-06-10T17:47:44Z</time>
      </trkpt>
      <trkpt lat="48.56709" lon="-3.18086">
        <ele>113.4</ele>
        <time>2020-06-10T17:47:45Z</time>
      </trkpt>
      <trkpt lat="48.56711" lon="-3.18078">
        <ele>113.3</ele>
        <time>2020-06-10T17:47:46Z</time>
      </trkpt>
      <trkpt lat="48.56712" lon="-3.1807">
        <ele>113.3</ele>
        <time>2020-06-10T17:47:47Z</time>
      </trkpt>
      <trkpt lat="48.56714" lon="-3.18062">
        <ele>113.2</ele>
        <time>2020-06-10T17:47:48Z</time>
      </trkpt>
      <trkpt lat="48.56715" lon="-3.18053">
        <ele>113</ele>
        <time>2020-06-10T17:47:49Z</time>
      </trkpt>
      <trkpt lat="48.56714" lon="-3.18044">
        <ele>112.9</ele>
        <time>2020-06-10T17:47:50Z</time>
      </trkpt>
      <trkpt lat="48.56714" lon="-3.18035">
        <ele>112.7</ele>
        <time>2020-06-10T17:47:51Z</time>
      </trkpt>
      <trkpt lat="48.56713" lon="-3.18025">
        <ele>112.4</ele>
        <time>2020-06-10T17:47:52Z</time>
      </trkpt>
      <trkpt lat="48.5671" lon="-3.18015">
        <ele>112.2</ele>
        <time>2020-06-10T17:47:53Z</time>
      </trkpt>
      <trkpt lat="48.56708" lon="-3.18005">
        <ele>111.9</ele>
        <time>2020-06-10T17:47:54Z</time>
      </trkpt>
      <trkpt lat="48.56706" lon="-3.17996">
        <ele>111.6</ele>
        <time>2020-06-10T17:47:55Z</time>
      </trkpt>
      <trkpt lat="48.56703" lon="-3.17986">
        <ele>111.3</ele>
        <time>2020-06-10T17:47:56Z</time>
      </trkpt>
      <trkpt lat="48.56699" lon="-3.17976">
        <ele>110.9</ele>
        <time>2020-06-10T17:47:57Z</time>
      </trkpt>
      <trkpt lat="48.56695" lon="-3.17966">
        <ele>110.6</ele>
        <time>2020-06-10T17:47:58Z</time>
      </trkpt>
      <trkpt lat="48.56692" lon="-3.17956">
        <ele>110.3</ele>
        <time>2020-06-10T17:47:59Z</time>
      </trkpt>
      <trkpt lat="48.56688" lon="-3.17946">
        <ele>110</ele>
        <time>2020-06-10T17:48:00Z</time>
      </trkpt>
      <trkpt lat="48.56685" lon="-3.17935">
        <ele>109.7</ele>
        <time>2020-06-10T17:48:01Z</time>
      </trkpt>
      <trkpt lat="48.56681" lon="-3.17925">
        <ele>109.3</ele>
        <time>2020-06-10T17:48:02Z</time>
      </trkpt>
      <trkpt lat="48.56677" lon="-3.17915">
        <ele>109</ele>
        <time>2020-06-10T17:48:03Z</time>
      </trkpt>
      <trkpt lat="48.56673" lon="-3.17904">
        <ele>108.7</ele>
        <time>2020-06-10T17:48:04Z</time>
      </trkpt>
      <trkpt lat="48.56669" lon="-3.17895">
        <ele>108.4</ele>
        <time>2020-06-10T17:48:05Z</time>
      </trkpt>
      <trkpt lat="48.56665" lon="-3.17885">
        <ele>108.1</ele>
        <time>2020-06-10T17:48:06Z</time>
      </trkpt>
      <trkpt lat="48.56661" lon="-3.17875">
        <ele>107.8</ele>
        <time>2020-06-10T17:48:07Z</time>
      </trkpt>
      <trkpt lat="48.56658" lon="-3.17865">
        <ele>107.5</ele>
        <time>2020-06-10T17:48:08Z</time>
      </trkpt>
      <trkpt lat="48.56654" lon="-3.17856">
        <ele>107.2</ele>
        <time>2020-06-10T17:48:09Z</time>
      </trkpt>
      <trkpt lat="48.56651" lon="-3.17846">
        <ele>107</ele>
        <time>2020-06-10T17:48:10Z</time>
      </trkpt>
      <trkpt lat="48.56648" lon="-3.17837">
        <ele>106.8</ele>
        <time>2020-06-10T17:48:11Z</time>
      </trkpt>
      <trkpt lat="48.56644" lon="-3.17828">
        <ele>106.6</ele>
        <time>2020-06-10T17:48:12Z</time>
      </trkpt>
      <trkpt lat="48.56642" lon="-3.17818">
        <ele>106.4</ele>
        <time>2020-06-10T17:48:13Z</time>
      </trkpt>
      <trkpt lat="48.5664" lon="-3.17808">
        <ele>106.2</ele>
        <time>2020-06-10T17:48:14Z</time>
      </trkpt>
      <trkpt lat="48.56638" lon="-3.17798">
        <ele>106</ele>
        <time>2020-06-10T17:48:15Z</time>
      </trkpt>
      <trkpt lat="48.56636" lon="-3.17788">
        <ele>105.8</ele>
        <time>2020-06-10T17:48:16Z</time>
      </trkpt>
      <trkpt lat="48.56635" lon="-3.17778">
        <ele>105.5</ele>
        <time>2020-06-10T17:48:17Z</time>
      </trkpt>
      <trkpt lat="48.56633" lon="-3.17767">
        <ele>105.3</ele>
        <time>2020-06-10T17:48:18Z</time>
      </trkpt>
      <trkpt lat="48.56632" lon="-3.17756">
        <ele>105</ele>
        <time>2020-06-10T17:48:19Z</time>
      </trkpt>
      <trkpt lat="48.56631" lon="-3.17745">
        <ele>104.7</ele>
        <time>2020-06-10T17:48:20Z</time>
      </trkpt>
      <trkpt lat="48.5663" lon="-3.17733">
        <ele>104.4</ele>
        <time>2020-06-10T17:48:21Z</time>
      </trkpt>
      <trkpt lat="48.56629" lon="-3.17722">
        <ele>104.1</ele>
        <time>2020-06-10T17:48:22Z</time>
      </trkpt>
      <trkpt lat="48.56628" lon="-3.17711">
        <ele>103.8</ele>
        <time>2020-06-10T17:48:23Z</time>
      </trkpt>
      <trkpt lat="48.56627" lon="-3.17699">
        <ele>103.5</ele>
        <time>2020-06-10T17:48:24Z</time>
      </trkpt>
      <trkpt lat="48.56626" lon="-3.17688">
        <ele>103.2</ele>
        <time>2020-06-10T17:48:25Z</time>
      </trkpt>
      <trkpt lat="48.56624" lon="-3.17676">
        <ele>102.8</ele>
        <time>2020-06-10T17:48:26Z</time>
      </trkpt>
      <trkpt lat="48.56622" lon="-3.17664">
        <ele>102.4</ele>
        <time>2020-06-10T17:48:27Z</time>
      </trkpt>
      <trkpt lat="48.5662" lon="-3.17652">
        <ele>102</ele>
        <time>2020-06-10T17:48:28Z</time>
      </trkpt>
      <trkpt lat="48.56618" lon="-3.1764">
        <ele>101.6</ele>
        <time>2020-06-10T17:48:29Z</time>
      </trkpt>
      <trkpt lat="48.56616" lon="-3.17627">
        <ele>101.1</ele>
        <time>2020-06-10T17:48:30Z</time>
      </trkpt>
      <trkpt lat="48.56613" lon="-3.17614">
        <ele>100.6</ele>
        <time>2020-06-10T17:48:31Z</time>
      </trkpt>
      <trkpt lat="48.56611" lon="-3.17601">
        <ele>100.2</ele>
        <time>2020-06-10T17:48:32Z</time>
      </trkpt>
      <trkpt lat="48.56609" lon="-3.17588">
        <ele>99.7</ele>
        <time>2020-06-10T17:48:33Z</time>
      </trkpt>
      <trkpt lat="48.56606" lon="-3.17574">
        <ele>99.2</ele>
        <time>2020-06-10T17:48:34Z</time>
      </trkpt>
      <trkpt lat="48.56603" lon="-3.17561">
        <ele>98.7</ele>
        <time>2020-06-10T17:48:35Z</time>
      </trkpt>
      <trkpt lat="48.566" lon="-3.17547">
        <ele>98.3</ele>
        <time>2020-06-10T17:48:36Z</time>
      </trkpt>
      <trkpt lat="48.56596" lon="-3.17534">
        <ele>97.9</ele>
        <time>2020-06-10T17:48:37Z</time>
      </trkpt>
      <trkpt lat="48.56594" lon="-3.1752">
        <ele>97.4</ele>
        <time>2020-06-10T17:48:38Z</time>
      </trkpt>
      <trkpt lat="48.56591" lon="-3.17506">
        <ele>97</ele>
        <time>2020-06-10T17:48:39Z</time>
      </trkpt>
      <trkpt lat="48.56588" lon="-3.17493">
        <ele>96.5</ele>
        <time>2020-06-10T17:48:40Z</time>
      </trkpt>
      <trkpt lat="48.56586" lon="-3.17479">
        <ele>96</ele>
        <time>2020-06-10T17:48:41Z</time>
      </trkpt>
      <trkpt lat="48.56584" lon="-3.17465">
        <ele>95.6</ele>
        <time>2020-06-10T17:48:42Z</time>
      </trkpt>
      <trkpt lat="48.56581" lon="-3.17451">
        <ele>95.2</ele>
        <time>2020-06-10T17:48:43Z</time>
      </trkpt>
      <trkpt lat="48.5658" lon="-3.17436">
        <ele>94.8</ele>
        <time>2020-06-10T17:48:44Z</time>
      </trkpt>
      <trkpt lat="48.56579" lon="-3.17422">
        <ele>94.4</ele>
        <time>2020-06-10T17:48:45Z</time>
      </trkpt>
      <trkpt lat="48.56578" lon="-3.17408">
        <ele>94</ele>
        <time>2020-06-10T17:48:46Z</time>
      </trkpt>
      <trkpt lat="48.56577" lon="-3.17395">
        <ele>93.6</ele>
        <time>2020-06-10T17:48:47Z</time>
      </trkpt>
      <trkpt lat="48.56576" lon="-3.17381">
        <ele>93.4</ele>
        <time>2020-06-10T17:48:48Z</time>
      </trkpt>
      <trkpt lat="48.56575" lon="-3.17368">
        <ele>93.1</ele>
        <time>2020-06-10T17:48:49Z</time>
      </trkpt>
      <trkpt lat="48.56575" lon="-3.17354">
        <ele>92.9</ele>
        <time>2020-06-10T17:48:50Z</time>
      </trkpt>
      <trkpt lat="48.56574" lon="-3.17341">
        <ele>92.6</ele>
        <time>2020-06-10T17:48:51Z</time>
      </trkpt>
      <trkpt lat="48.56573" lon="-3.17327">
        <ele>92.3</ele>
        <time>2020-06-10T17:48:52Z</time>
      </trkpt>
      <trkpt lat="48.56572" lon="-3.17313">
        <ele>91.9</ele>
        <time>2020-06-10T17:48:53Z</time>
      </trkpt>
      <trkpt lat="48.5657" lon="-3.173">
        <ele>91.5</ele>
        <time>2020-06-10T17:48:54Z</time>
      </trkpt>
      <trkpt lat="48.56567" lon="-3.17286">
        <ele>91.1</ele>
        <time>2020-06-10T17:48:55Z</time>
      </trkpt>
      <trkpt lat="48.56564" lon="-3.17274">
        <ele>90.8</ele>
        <time>2020-06-10T17:48:56Z</time>
      </trkpt>
      <trkpt lat="48.5656" lon="-3.17261">
        <ele>90.4</ele>
        <time>2020-06-10T17:48:57Z</time>
      </trkpt>
      <trkpt lat="48.56557" lon="-3.17248">
        <ele>90</ele>
        <time>2020-06-10T17:48:58Z</time>
      </trkpt>
      <trkpt lat="48.56553" lon="-3.17235">
        <ele>89.7</ele>
        <time>2020-06-10T17:48:59Z</time>
      </trkpt>
      <trkpt lat="48.5655" lon="-3.17222">
        <ele>89.3</ele>
        <time>2020-06-10T17:49:00Z</time>
      </trkpt>
      <trkpt lat="48.56546" lon="-3.1721">
        <ele>89</ele>
        <time>2020-06-10T17:49:01Z</time>
      </trkpt>
      <trkpt lat="48.56542" lon="-3.17197">
        <ele>88.6</ele>
        <time>2020-06-10T17:49:02Z</time>
      </trkpt>
      <trkpt lat="48.56539" lon="-3.17184">
        <ele>88.2</ele>
        <time>2020-06-10T17:49:03Z</time>
      </trkpt>
      <trkpt lat="48.56535" lon="-3.17171">
        <ele>87.8</ele>
        <time>2020-06-10T17:49:04Z</time>
      </trkpt>
      <trkpt lat="48.56532" lon="-3.17159">
        <ele>87.5</ele>
        <time>2020-06-10T17:49:05Z</time>
      </trkpt>
      <trkpt lat="48.56528" lon="-3.17146">
        <ele>87.1</ele>
        <time>2020-06-10T17:49:06Z</time>
      </trkpt>
      <trkpt lat="48.56524" lon="-3.17133">
        <ele>86.6</ele>
        <time>2020-06-10T17:49:07Z</time>
      </trkpt>
      <trkpt lat="48.5652" lon="-3.17121">
        <ele>86.2</ele>
        <time>2020-06-10T17:49:08Z</time>
      </trkpt>
      <trkpt lat="48.56516" lon="-3.17108">
        <ele>85.7</ele>
        <time>2020-06-10T17:49:09Z</time>
      </trkpt>
      <trkpt lat="48.56511" lon="-3.17095">
        <ele>85.2</ele>
        <time>2020-06-10T17:49:10Z</time>
      </trkpt>
      <trkpt lat="48.56507" lon="-3.17082">
        <ele>84.7</ele>
        <time>2020-06-10T17:49:11Z</time>
      </trkpt>
      <trkpt lat="48.56502" lon="-3.17069">
        <ele>84.3</ele>
        <time>2020-06-10T17:49:12Z</time>
      </trkpt>
      <trkpt lat="48.56498" lon="-3.17056">
        <ele>83.9</ele>
        <time>2020-06-10T17:49:13Z</time>
      </trkpt>
      <trkpt lat="48.56493" lon="-3.17043">
        <ele>83.7</ele>
        <time>2020-06-10T17:49:14Z</time>
      </trkpt>
      <trkpt lat="48.56488" lon="-3.1703">
        <ele>83.4</ele>
        <time>2020-06-10T17:49:15Z</time>
      </trkpt>
      <trkpt lat="48.56483" lon="-3.17017">
        <ele>83.1</ele>
        <time>2020-06-10T17:49:16Z</time>
      </trkpt>
      <trkpt lat="48.56478" lon="-3.17004">
        <ele>82.8</ele>
        <time>2020-06-10T17:49:17Z</time>
      </trkpt>
      <trkpt lat="48.56474" lon="-3.16993">
        <ele>82.5</ele>
        <time>2020-06-10T17:49:18Z</time>
      </trkpt>
      <trkpt lat="48.56469" lon="-3.1698">
        <ele>82.3</ele>
        <time>2020-06-10T17:49:19Z</time>
      </trkpt>
      <trkpt lat="48.56464" lon="-3.16969">
        <ele>82.1</ele>
        <time>2020-06-10T17:49:20Z</time>
      </trkpt>
      <trkpt lat="48.5646" lon="-3.16957">
        <ele>81.8</ele>
        <time>2020-06-10T17:49:21Z</time>
      </trkpt>
      <trkpt lat="48.56456" lon="-3.16947">
        <ele>81.6</ele>
        <time>2020-06-10T17:49:22Z</time>
      </trkpt>
      <trkpt lat="48.56451" lon="-3.16936">
        <ele>81.4</ele>
        <time>2020-06-10T17:49:23Z</time>
      </trkpt>
      <trkpt lat="48.56446" lon="-3.16926">
        <ele>81.2</ele>
        <time>2020-06-10T17:49:24Z</time>
      </trkpt>
      <trkpt lat="48.56442" lon="-3.16916">
        <ele>81</ele>
        <time>2020-06-10T17:49:25Z</time>
      </trkpt>
      <trkpt lat="48.56438" lon="-3.16906">
        <ele>80.8</ele>
        <time>2020-06-10T17:49:26Z</time>
      </trkpt>
      <trkpt lat="48.56434" lon="-3.16896">
        <ele>80.6</ele>
        <time>2020-06-10T17:49:27Z</time>
      </trkpt>
      <trkpt lat="48.56429" lon="-3.16886">
        <ele>80.4</ele>
        <time>2020-06-10T17:49:28Z</time>
      </trkpt>
      <trkpt lat="48.56426" lon="-3.16876">
        <ele>80.2</ele>
        <time>2020-06-10T17:49:29Z</time>
      </trkpt>
      <trkpt lat="48.56421" lon="-3.16866">
        <ele>80</ele>
        <time>2020-06-10T17:49:30Z</time>
      </trkpt>
      <trkpt lat="48.56417" lon="-3.16856">
        <ele>79.8</ele>
        <time>2020-06-10T17:49:31Z</time>
      </trkpt>
      <trkpt lat="48.56413" lon="-3.16846">
        <ele>79.5</ele>
        <time>2020-06-10T17:49:32Z</time>
      </trkpt>
      <trkpt lat="48.56409" lon="-3.16836">
        <ele>79.1</ele>
        <time>2020-06-10T17:49:33Z</time>
      </trkpt>
      <trkpt lat="48.56405" lon="-3.16826">
        <ele>78.8</ele>
        <time>2020-06-10T17:49:34Z</time>
      </trkpt>
      <trkpt lat="48.56401" lon="-3.16816">
        <ele>78.4</ele>
        <time>2020-06-10T17:49:35Z</time>
      </trkpt>
      <trkpt lat="48.56397" lon="-3.16806">
        <ele>78.1</ele>
        <time>2020-06-10T17:49:36Z</time>
      </trkpt>
      <trkpt lat="48.56393" lon="-3.16796">
        <ele>77.9</ele>
        <time>2020-06-10T17:49:37Z</time>
      </trkpt>
      <trkpt lat="48.56388" lon="-3.16786">
        <ele>77.6</ele>
        <time>2020-06-10T17:49:38Z</time>
      </trkpt>
      <trkpt lat="48.56384" lon="-3.16775">
        <ele>77.3</ele>
        <time>2020-06-10T17:49:39Z</time>
      </trkpt>
      <trkpt lat="48.5638" lon="-3.16765">
        <ele>76.9</ele>
        <time>2020-06-10T17:49:40Z</time>
      </trkpt>
      <trkpt lat="48.56375" lon="-3.16755">
        <ele>76.7</ele>
        <time>2020-06-10T17:49:41Z</time>
      </trkpt>
      <trkpt lat="48.56371" lon="-3.16744">
        <ele>76.5</ele>
        <time>2020-06-10T17:49:42Z</time>
      </trkpt>
      <trkpt lat="48.56367" lon="-3.16734">
        <ele>76.3</ele>
        <time>2020-06-10T17:49:43Z</time>
      </trkpt>
      <trkpt lat="48.56362" lon="-3.16723">
        <ele>76.1</ele>
        <time>2020-06-10T17:49:44Z</time>
      </trkpt>
      <trkpt lat="48.56358" lon="-3.16713">
        <ele>76</ele>
        <time>2020-06-10T17:49:45Z</time>
      </trkpt>
      <trkpt lat="48.56354" lon="-3.16705">
        <ele>75.9</ele>
        <time>2020-06-10T17:49:46Z</time>
      </trkpt>
      <trkpt lat="48.56351" lon="-3.16697">
        <ele>75.8</ele>
        <time>2020-06-10T17:49:47Z</time>
      </trkpt>
      <trkpt lat="48.56347" lon="-3.1669">
        <ele>75.7</ele>
        <time>2020-06-10T17:49:48Z</time>
      </trkpt>
      <trkpt lat="48.56343" lon="-3.16683">
        <ele>75.5</ele>
        <time>2020-06-10T17:49:49Z</time>
      </trkpt>
      <trkpt lat="48.56339" lon="-3.16676">
        <ele>75.3</ele>
        <time>2020-06-10T17:49:50Z</time>
      </trkpt>
      <trkpt lat="48.56336" lon="-3.16668">
        <ele>75.1</ele>
        <time>2020-06-10T17:49:51Z</time>
      </trkpt>
      <trkpt lat="48.56333" lon="-3.1666">
        <ele>74.9</ele>
        <time>2020-06-10T17:49:52Z</time>
      </trkpt>
      <trkpt lat="48.5633" lon="-3.16651">
        <ele>74.7</ele>
        <time>2020-06-10T17:49:53Z</time>
      </trkpt>
      <trkpt lat="48.56326" lon="-3.16642">
        <ele>74.4</ele>
        <time>2020-06-10T17:49:54Z</time>
      </trkpt>
      <trkpt lat="48.56323" lon="-3.16634">
        <ele>74.1</ele>
        <time>2020-06-10T17:49:55Z</time>
      </trkpt>
      <trkpt lat="48.56318" lon="-3.16626">
        <ele>73.8</ele>
        <time>2020-06-10T17:49:56Z</time>
      </trkpt>
      <trkpt lat="48.56315" lon="-3.16617">
        <ele>73.5</ele>
        <time>2020-06-10T17:49:57Z</time>
      </trkpt>
      <trkpt lat="48.56312" lon="-3.16607">
        <ele>73.2</ele>
        <time>2020-06-10T17:49:58Z</time>
      </trkpt>
      <trkpt lat="48.56309" lon="-3.16598">
        <ele>72.9</ele>
        <time>2020-06-10T17:49:59Z</time>
      </trkpt>
      <trkpt lat="48.56306" lon="-3.1659">
        <ele>72.6</ele>
        <time>2020-06-10T17:50:00Z</time>
      </trkpt>
      <trkpt lat="48.56303" lon="-3.16582">
        <ele>72.4</ele>
        <time>2020-06-10T17:50:01Z</time>
      </trkpt>
      <trkpt lat="48.563" lon="-3.16573">
        <ele>72.1</ele>
        <time>2020-06-10T17:50:02Z</time>
      </trkpt>
      <trkpt lat="48.56297" lon="-3.16565">
        <ele>72</ele>
        <time>2020-06-10T17:50:03Z</time>
      </trkpt>
      <trkpt lat="48.56292" lon="-3.16559">
        <ele>71.9</ele>
        <time>2020-06-10T17:50:04Z</time>
      </trkpt>
      <trkpt lat="48.56288" lon="-3.16552">
        <ele>71.9</ele>
        <time>2020-06-10T17:50:05Z</time>
      </trkpt>
      <trkpt lat="48.56285" lon="-3.16545">
        <ele>71.9</ele>
        <time>2020-06-10T17:50:06Z</time>
      </trkpt>
      <trkpt lat="48.56281" lon="-3.16539">
        <ele>71.7</ele>
        <time>2020-06-10T17:50:07Z</time>
      </trkpt>
      <trkpt lat="48.56277" lon="-3.16533">
        <ele>71.7</ele>
        <time>2020-06-10T17:50:08Z</time>
      </trkpt>
      <trkpt lat="48.56274" lon="-3.16527">
        <ele>71.7</ele>
        <time>2020-06-10T17:50:09Z</time>
      </trkpt>
      <trkpt lat="48.56271" lon="-3.1652">
        <ele>71.4</ele>
        <time>2020-06-10T17:50:10Z</time>
      </trkpt>
      <trkpt lat="48.56268" lon="-3.16514">
        <ele>70.9</ele>
        <time>2020-06-10T17:50:11Z</time>
      </trkpt>
      <trkpt lat="48.56268" lon="-3.16508">
        <ele>70.8</ele>
        <time>2020-06-10T17:50:12Z</time>
      </trkpt>
      <trkpt lat="48.5627" lon="-3.16502">
        <ele>70.7</ele>
        <time>2020-06-10T17:50:13Z</time>
      </trkpt>
      <trkpt lat="48.56275" lon="-3.16499">
        <ele>70.6</ele>
        <time>2020-06-10T17:50:14Z</time>
      </trkpt>
      <trkpt lat="48.56279" lon="-3.16495">
        <ele>70.5</ele>
        <time>2020-06-10T17:50:15Z</time>
      </trkpt>
      <trkpt lat="48.56282" lon="-3.16489">
        <ele>70.4</ele>
        <time>2020-06-10T17:50:16Z</time>
      </trkpt>
      <trkpt lat="48.56285" lon="-3.16483">
        <ele>70.3</ele>
        <time>2020-06-10T17:50:17Z</time>
      </trkpt>
      <trkpt lat="48.56286" lon="-3.16474">
        <ele>70.2</ele>
        <time>2020-06-10T17:50:18Z</time>
      </trkpt>
      <trkpt lat="48.56287" lon="-3.16464">
        <ele>70.2</ele>
        <time>2020-06-10T17:50:19Z</time>
      </trkpt>
      <trkpt lat="48.56288" lon="-3.16454">
        <ele>70.1</ele>
        <time>2020-06-10T17:50:20Z</time>
      </trkpt>
      <trkpt lat="48.56288" lon="-3.16444">
        <ele>70.1</ele>
        <time>2020-06-10T17:50:21Z</time>
      </trkpt>
      <trkpt lat="48.56288" lon="-3.16434">
        <ele>70</ele>
        <time>2020-06-10T17:50:22Z</time>
      </trkpt>
      <trkpt lat="48.56289" lon="-3.16424">
        <ele>70</ele>
        <time>2020-06-10T17:50:23Z</time>
      </trkpt>
      <trkpt lat="48.56288" lon="-3.16413">
        <ele>69.9</ele>
        <time>2020-06-10T17:50:24Z</time>
      </trkpt>
      <trkpt lat="48.5629" lon="-3.16403">
        <ele>70.2</ele>
        <time>2020-06-10T17:50:25Z</time>
      </trkpt>
      <trkpt lat="48.56291" lon="-3.16393">
        <ele>70.4</ele>
        <time>2020-06-10T17:50:26Z</time>
      </trkpt>
      <trkpt lat="48.56292" lon="-3.16383">
        <ele>70.5</ele>
        <time>2020-06-10T17:50:27Z</time>
      </trkpt>
      <trkpt lat="48.56293" lon="-3.16373">
        <ele>70.7</ele>
        <time>2020-06-10T17:50:28Z</time>
      </trkpt>
      <trkpt lat="48.56293" lon="-3.16364">
        <ele>70.8</ele>
        <time>2020-06-10T17:50:29Z</time>
      </trkpt>
      <trkpt lat="48.56294" lon="-3.16355">
        <ele>70.9</ele>
        <time>2020-06-10T17:50:30Z</time>
      </trkpt>
      <trkpt lat="48.56295" lon="-3.16347">
        <ele>71.1</ele>
        <time>2020-06-10T17:50:31Z</time>
      </trkpt>
      <trkpt lat="48.56294" lon="-3.16338">
        <ele>71.2</ele>
        <time>2020-06-10T17:50:32Z</time>
      </trkpt>
      <trkpt lat="48.56294" lon="-3.1633">
        <ele>71.4</ele>
        <time>2020-06-10T17:50:33Z</time>
      </trkpt>
      <trkpt lat="48.56296" lon="-3.16322">
        <ele>71.5</ele>
        <time>2020-06-10T17:50:34Z</time>
      </trkpt>
      <trkpt lat="48.56297" lon="-3.16314">
        <ele>71.7</ele>
        <time>2020-06-10T17:50:35Z</time>
      </trkpt>
      <trkpt lat="48.56297" lon="-3.16307">
        <ele>71.8</ele>
        <time>2020-06-10T17:50:36Z</time>
      </trkpt>
      <trkpt lat="48.56298" lon="-3.16299">
        <ele>71.8</ele>
        <time>2020-06-10T17:50:37Z</time>
      </trkpt>
      <trkpt lat="48.56298" lon="-3.16293">
        <ele>71.9</ele>
        <time>2020-06-10T17:50:38Z</time>
      </trkpt>
      <trkpt lat="48.56298" lon="-3.16286">
        <ele>72</ele>
        <time>2020-06-10T17:50:39Z</time>
      </trkpt>
      <trkpt lat="48.56297" lon="-3.1628">
        <ele>72.1</ele>
        <time>2020-06-10T17:50:40Z</time>
      </trkpt>
      <trkpt lat="48.56297" lon="-3.16273">
        <ele>72.2</ele>
        <time>2020-06-10T17:50:41Z</time>
      </trkpt>
      <trkpt lat="48.56296" lon="-3.16267">
        <ele>72.2</ele>
        <time>2020-06-10T17:50:42Z</time>
      </trkpt>
      <trkpt lat="48.56298" lon="-3.16261">
        <ele>72.3</ele>
        <time>2020-06-10T17:50:43Z</time>
      </trkpt>
      <trkpt lat="48.56299" lon="-3.16254">
        <ele>72.4</ele>
        <time>2020-06-10T17:50:44Z</time>
      </trkpt>
      <trkpt lat="48.56299" lon="-3.16247">
        <ele>72.4</ele>
        <time>2020-06-10T17:50:45Z</time>
      </trkpt>
      <trkpt lat="48.563" lon="-3.1624">
        <ele>72.5</ele>
        <time>2020-06-10T17:50:46Z</time>
      </trkpt>
      <trkpt lat="48.563" lon="-3.16233">
        <ele>72.5</ele>
        <time>2020-06-10T17:50:47Z</time>
      </trkpt>
      <trkpt lat="48.56299" lon="-3.16226">
        <ele>72.6</ele>
        <time>2020-06-10T17:50:48Z</time>
      </trkpt>
      <trkpt lat="48.56299" lon="-3.1622">
        <ele>72.6</ele>
        <time>2020-06-10T17:50:49Z</time>
      </trkpt>
      <trkpt lat="48.56299" lon="-3.16213">
        <ele>72.7</ele>
        <time>2020-06-10T17:50:50Z</time>
      </trkpt>
      <trkpt lat="48.563" lon="-3.16207">
        <ele>72.7</ele>
        <time>2020-06-10T17:50:51Z</time>
      </trkpt>
      <trkpt lat="48.563" lon="-3.162">
        <ele>72.8</ele>
        <time>2020-06-10T17:50:52Z</time>
      </trkpt>
      <trkpt lat="48.56302" lon="-3.16194">
        <ele>72.8</ele>
        <time>2020-06-10T17:50:53Z</time>
      </trkpt>
      <trkpt lat="48.56302" lon="-3.16188">
        <ele>72.8</ele>
        <time>2020-06-10T17:50:54Z</time>
      </trkpt>
      <trkpt lat="48.56302" lon="-3.16181">
        <ele>72.8</ele>
        <time>2020-06-10T17:50:55Z</time>
      </trkpt>
      <trkpt lat="48.56302" lon="-3.16175">
        <ele>72.8</ele>
        <time>2020-06-10T17:50:56Z</time>
      </trkpt>
      <trkpt lat="48.56303" lon="-3.16169">
        <ele>72.8</ele>
        <time>2020-06-10T17:50:57Z</time>
      </trkpt>
      <trkpt lat="48.56303" lon="-3.16162">
        <ele>72.8</ele>
        <time>2020-06-10T17:50:58Z</time>
      </trkpt>
      <trkpt lat="48.56304" lon="-3.16155">
        <ele>72.8</ele>
        <time>2020-06-10T17:50:59Z</time>
      </trkpt>
      <trkpt lat="48.56305" lon="-3.16149">
        <ele>72.7</ele>
        <time>2020-06-10T17:51:00Z</time>
      </trkpt>
      <trkpt lat="48.56306" lon="-3.16142">
        <ele>72.7</ele>
        <time>2020-06-10T17:51:01Z</time>
      </trkpt>
      <trkpt lat="48.56306" lon="-3.16135">
        <ele>72.7</ele>
        <time>2020-06-10T17:51:02Z</time>
      </trkpt>
      <trkpt lat="48.56306" lon="-3.16128">
        <ele>72.6</ele>
        <time>2020-06-10T17:51:03Z</time>
      </trkpt>
      <trkpt lat="48.56307" lon="-3.16122">
        <ele>72.6</ele>
        <time>2020-06-10T17:51:04Z</time>
      </trkpt>
      <trkpt lat="48.56307" lon="-3.16115">
        <ele>72.6</ele>
        <time>2020-06-10T17:51:05Z</time>
      </trkpt>
      <trkpt lat="48.56307" lon="-3.16109">
        <ele>72.5</ele>
        <time>2020-06-10T17:51:06Z</time>
      </trkpt>
      <trkpt lat="48.56308" lon="-3.16105">
        <ele>72.5</ele>
        <time>2020-06-10T17:51:07Z</time>
      </trkpt>
      <trkpt lat="48.5631" lon="-3.161">
        <ele>72.5</ele>
        <time>2020-06-10T17:51:08Z</time>
      </trkpt>
      <trkpt lat="48.56311" lon="-3.16099">
        <ele>72.4</ele>
        <time>2020-06-10T17:51:09Z</time>
      </trkpt>
      <trkpt lat="48.56313" lon="-3.16096">
        <ele>72.4</ele>
        <time>2020-06-10T17:51:10Z</time>
      </trkpt>
      <trkpt lat="48.56314" lon="-3.16095">
        <ele>72.4</ele>
        <time>2020-06-10T17:51:11Z</time>
      </trkpt>
      <trkpt lat="48.56314" lon="-3.1609">
        <ele>72.3</ele>
        <time>2020-06-10T17:51:12Z</time>
      </trkpt>
      <trkpt lat="48.56315" lon="-3.16088">
        <ele>72.3</ele>
        <time>2020-06-10T17:51:13Z</time>
      </trkpt>
      <trkpt lat="48.56316" lon="-3.16084">
        <ele>72.2</ele>
        <time>2020-06-10T17:51:14Z</time>
      </trkpt>
      <trkpt lat="48.56316" lon="-3.1608">
        <ele>72.2</ele>
        <time>2020-06-10T17:51:15Z</time>
      </trkpt>
      <trkpt lat="48.56317" lon="-3.16076">
        <ele>72.1</ele>
        <time>2020-06-10T17:51:16Z</time>
      </trkpt>
      <trkpt lat="48.56317" lon="-3.16071">
        <ele>72</ele>
        <time>2020-06-10T17:51:17Z</time>
      </trkpt>
      <trkpt lat="48.56317" lon="-3.16066">
        <ele>71.8</ele>
        <time>2020-06-10T17:51:18Z</time>
      </trkpt>
      <trkpt lat="48.56317" lon="-3.1606">
        <ele>71.7</ele>
        <time>2020-06-10T17:51:19Z</time>
      </trkpt>
      <trkpt lat="48.56319" lon="-3.16054">
        <ele>71.4</ele>
        <time>2020-06-10T17:51:20Z</time>
      </trkpt>
      <trkpt lat="48.5632" lon="-3.16048">
        <ele>71.2</ele>
        <time>2020-06-10T17:51:21Z</time>
      </trkpt>
      <trkpt lat="48.56321" lon="-3.16041">
        <ele>71</ele>
        <time>2020-06-10T17:51:22Z</time>
      </trkpt>
      <trkpt lat="48.56321" lon="-3.16035">
        <ele>70.7</ele>
        <time>2020-06-10T17:51:23Z</time>
      </trkpt>
      <trkpt lat="48.56322" lon="-3.16029">
        <ele>70.5</ele>
        <time>2020-06-10T17:51:24Z</time>
      </trkpt>
      <trkpt lat="48.56323" lon="-3.16023">
        <ele>70.2</ele>
        <time>2020-06-10T17:51:25Z</time>
      </trkpt>
      <trkpt lat="48.56324" lon="-3.16017">
        <ele>69.9</ele>
        <time>2020-06-10T17:51:26Z</time>
      </trkpt>
      <trkpt lat="48.56325" lon="-3.1601">
        <ele>69.5</ele>
        <time>2020-06-10T17:51:27Z</time>
      </trkpt>
      <trkpt lat="48.56327" lon="-3.16003">
        <ele>69.2</ele>
        <time>2020-06-10T17:51:28Z</time>
      </trkpt>
      <trkpt lat="48.56328" lon="-3.15996">
        <ele>68.9</ele>
        <time>2020-06-10T17:51:29Z</time>
      </trkpt>
      <trkpt lat="48.56331" lon="-3.15989">
        <ele>68.5</ele>
        <time>2020-06-10T17:51:30Z</time>
      </trkpt>
      <trkpt lat="48.56334" lon="-3.15983">
        <ele>68.2</ele>
        <time>2020-06-10T17:51:31Z</time>
      </trkpt>
      <trkpt lat="48.56336" lon="-3.15977">
        <ele>68</ele>
        <time>2020-06-10T17:51:32Z</time>
      </trkpt>
      <trkpt lat="48.56337" lon="-3.15973">
        <ele>67.5</ele>
        <time>2020-06-10T17:51:33Z</time>
      </trkpt>
      <trkpt lat="48.5634" lon="-3.15972">
        <ele>67.5</ele>
        <time>2020-06-10T17:51:34Z</time>
      </trkpt>
      <trkpt lat="48.56344" lon="-3.15971">
        <ele>67.4</ele>
        <time>2020-06-10T17:51:35Z</time>
      </trkpt>
      <trkpt lat="48.5635" lon="-3.15973">
        <ele>67.3</ele>
        <time>2020-06-10T17:51:36Z</time>
      </trkpt>
      <trkpt lat="48.56357" lon="-3.15975">
        <ele>67.2</ele>
        <time>2020-06-10T17:51:37Z</time>
      </trkpt>
      <trkpt lat="48.56363" lon="-3.15977">
        <ele>67</ele>
        <time>2020-06-10T17:51:38Z</time>
      </trkpt>
      <trkpt lat="48.5637" lon="-3.1598">
        <ele>67</ele>
        <time>2020-06-10T17:51:39Z</time>
      </trkpt>
      <trkpt lat="48.56376" lon="-3.15983">
        <ele>66.7</ele>
        <time>2020-06-10T17:51:40Z</time>
      </trkpt>
      <trkpt lat="48.56383" lon="-3.15986">
        <ele>66.5</ele>
        <time>2020-06-10T17:51:41Z</time>
      </trkpt>
      <trkpt lat="48.5639" lon="-3.1599">
        <ele>66.4</ele>
        <time>2020-06-10T17:51:42Z</time>
      </trkpt>
      <trkpt lat="48.56396" lon="-3.15993">
        <ele>66.3</ele>
        <time>2020-06-10T17:51:43Z</time>
      </trkpt>
      <trkpt lat="48.56403" lon="-3.15996">
        <ele>66.2</ele>
        <time>2020-06-10T17:51:44Z</time>
      </trkpt>
      <trkpt lat="48.56409" lon="-3.15999">
        <ele>66.1</ele>
        <time>2020-06-10T17:51:45Z</time>
      </trkpt>
      <trkpt lat="48.56415" lon="-3.16">
        <ele>66</ele>
        <time>2020-06-10T17:51:46Z</time>
      </trkpt>
      <trkpt lat="48.5642" lon="-3.16002">
        <ele>66</ele>
        <time>2020-06-10T17:51:47Z</time>
      </trkpt>
      <trkpt lat="48.56425" lon="-3.16006">
        <ele>65.9</ele>
        <time>2020-06-10T17:51:48Z</time>
      </trkpt>
      <trkpt lat="48.56429" lon="-3.16009">
        <ele>65.9</ele>
        <time>2020-06-10T17:51:49Z</time>
      </trkpt>
      <trkpt lat="48.56434" lon="-3.1601">
        <ele>65.9</ele>
        <time>2020-06-10T17:51:50Z</time>
      </trkpt>
      <trkpt lat="48.56439" lon="-3.1601">
        <ele>65.9</ele>
        <time>2020-06-10T17:51:51Z</time>
      </trkpt>
      <trkpt lat="48.56444" lon="-3.16009">
        <ele>65.9</ele>
        <time>2020-06-10T17:51:52Z</time>
      </trkpt>
      <trkpt lat="48.56449" lon="-3.16008">
        <ele>65.9</ele>
        <time>2020-06-10T17:51:53Z</time>
      </trkpt>
      <trkpt lat="48.56453" lon="-3.16009">
        <ele>65.9</ele>
        <time>2020-06-10T17:51:54Z</time>
      </trkpt>
      <trkpt lat="48.56458" lon="-3.16008">
        <ele>65.9</ele>
        <time>2020-06-10T17:51:55Z</time>
      </trkpt>
      <trkpt lat="48.56462" lon="-3.16008">
        <ele>65.9</ele>
        <time>2020-06-10T17:51:56Z</time>
      </trkpt>
      <trkpt lat="48.56467" lon="-3.16008">
        <ele>65.9</ele>
        <time>2020-06-10T17:51:57Z</time>
      </trkpt>
      <trkpt lat="48.56471" lon="-3.1601">
        <ele>65.9</ele>
        <time>2020-06-10T17:51:58Z</time>
      </trkpt>
      <trkpt lat="48.56475" lon="-3.1601">
        <ele>65.9</ele>
        <time>2020-06-10T17:51:59Z</time>
      </trkpt>
      <trkpt lat="48.5648" lon="-3.1601">
        <ele>65.9</ele>
        <time>2020-06-10T17:52:00Z</time>
      </trkpt>
      <trkpt lat="48.56484" lon="-3.1601">
        <ele>65.9</ele>
        <time>2020-06-10T17:52:01Z</time>
      </trkpt>
      <trkpt lat="48.56489" lon="-3.16006">
        <ele>65.9</ele>
        <time>2020-06-10T17:52:02Z</time>
      </trkpt>
      <trkpt lat="48.56493" lon="-3.16006">
        <ele>65.8</ele>
        <time>2020-06-10T17:52:03Z</time>
      </trkpt>
      <trkpt lat="48.56497" lon="-3.16005">
        <ele>65.8</ele>
        <time>2020-06-10T17:52:04Z</time>
      </trkpt>
      <trkpt lat="48.56501" lon="-3.16005">
        <ele>65.7</ele>
        <time>2020-06-10T17:52:05Z</time>
      </trkpt>
      <trkpt lat="48.56505" lon="-3.16007">
        <ele>65.7</ele>
        <time>2020-06-10T17:52:06Z</time>
      </trkpt>
      <trkpt lat="48.5651" lon="-3.16009">
        <ele>65.6</ele>
        <time>2020-06-10T17:52:07Z</time>
      </trkpt>
      <trkpt lat="48.56514" lon="-3.16011">
        <ele>65.5</ele>
        <time>2020-06-10T17:52:08Z</time>
      </trkpt>
      <trkpt lat="48.56517" lon="-3.16013">
        <ele>65.5</ele>
        <time>2020-06-10T17:52:09Z</time>
      </trkpt>
      <trkpt lat="48.56521" lon="-3.16014">
        <ele>65.4</ele>
        <time>2020-06-10T17:52:10Z</time>
      </trkpt>
      <trkpt lat="48.56525" lon="-3.16016">
        <ele>65.4</ele>
        <time>2020-06-10T17:52:11Z</time>
      </trkpt>
      <trkpt lat="48.56529" lon="-3.16018">
        <ele>65.3</ele>
        <time>2020-06-10T17:52:12Z</time>
      </trkpt>
      <trkpt lat="48.56532" lon="-3.16018">
        <ele>65.3</ele>
        <time>2020-06-10T17:52:13Z</time>
      </trkpt>
      <trkpt lat="48.56536" lon="-3.16017">
        <ele>65.2</ele>
        <time>2020-06-10T17:52:14Z</time>
      </trkpt>
      <trkpt lat="48.5654" lon="-3.16015">
        <ele>65.2</ele>
        <time>2020-06-10T17:52:15Z</time>
      </trkpt>
      <trkpt lat="48.56544" lon="-3.16012">
        <ele>65.2</ele>
        <time>2020-06-10T17:52:16Z</time>
      </trkpt>
      <trkpt lat="48.56548" lon="-3.16009">
        <ele>65.3</ele>
        <time>2020-06-10T17:52:17Z</time>
      </trkpt>
      <trkpt lat="48.56553" lon="-3.16008">
        <ele>65.3</ele>
        <time>2020-06-10T17:52:18Z</time>
      </trkpt>
      <trkpt lat="48.56558" lon="-3.16005">
        <ele>65.4</ele>
        <time>2020-06-10T17:52:19Z</time>
      </trkpt>
      <trkpt lat="48.56563" lon="-3.16002">
        <ele>65.4</ele>
        <time>2020-06-10T17:52:20Z</time>
      </trkpt>
      <trkpt lat="48.56568" lon="-3.16001">
        <ele>65.4</ele>
        <time>2020-06-10T17:52:21Z</time>
      </trkpt>
      <trkpt lat="48.56573" lon="-3.15999">
        <ele>65.4</ele>
        <time>2020-06-10T17:52:22Z</time>
      </trkpt>
      <trkpt lat="48.56578" lon="-3.15997">
        <ele>65.4</ele>
        <time>2020-06-10T17:52:23Z</time>
      </trkpt>
      <trkpt lat="48.56583" lon="-3.15994">
        <ele>65.4</ele>
        <time>2020-06-10T17:52:24Z</time>
      </trkpt>
      <trkpt lat="48.56588" lon="-3.15993">
        <ele>65.4</ele>
        <time>2020-06-10T17:52:25Z</time>
      </trkpt>
      <trkpt lat="48.56592" lon="-3.15992">
        <ele>65.4</ele>
        <time>2020-06-10T17:52:26Z</time>
      </trkpt>
      <trkpt lat="48.56596" lon="-3.15991">
        <ele>65.5</ele>
        <time>2020-06-10T17:52:27Z</time>
      </trkpt>
      <trkpt lat="48.56599" lon="-3.15992">
        <ele>65.5</ele>
        <time>2020-06-10T17:52:28Z</time>
      </trkpt>
      <trkpt lat="48.56602" lon="-3.15994">
        <ele>65.5</ele>
        <time>2020-06-10T17:52:29Z</time>
      </trkpt>
      <trkpt lat="48.56605" lon="-3.15993">
        <ele>65.5</ele>
        <time>2020-06-10T17:52:30Z</time>
      </trkpt>
      <trkpt lat="48.56608" lon="-3.15992">
        <ele>65.5</ele>
        <time>2020-06-10T17:52:31Z</time>
      </trkpt>
      <trkpt lat="48.56609" lon="-3.15992">
        <ele>65.5</ele>
        <time>2020-06-10T17:52:32Z</time>
      </trkpt>
      <trkpt lat="48.56612" lon="-3.1599">
        <ele>65.5</ele>
        <time>2020-06-10T17:52:33Z</time>
      </trkpt>
      <trkpt lat="48.56613" lon="-3.1599">
        <ele>65.5</ele>
        <time>2020-06-10T17:52:34Z</time>
      </trkpt>
      <trkpt lat="48.56615" lon="-3.15991">
        <ele>65.5</ele>
        <time>2020-06-10T17:52:35Z</time>
      </trkpt>
      <trkpt lat="48.56616" lon="-3.15992">
        <ele>65.5</ele>
        <time>2020-06-10T17:52:36Z</time>
      </trkpt>
      <trkpt lat="48.56616" lon="-3.15993">
        <ele>65.5</ele>
        <time>2020-06-10T17:52:37Z</time>
      </trkpt>
      <trkpt lat="48.56619" lon="-3.15997">
        <ele>65.6</ele>
        <time>2020-06-10T17:52:38Z</time>
      </trkpt>
      <trkpt lat="48.56619" lon="-3.15999">
        <ele>65.6</ele>
        <time>2020-06-10T17:52:39Z</time>
      </trkpt>
      <trkpt lat="48.56622" lon="-3.16003">
        <ele>65.6</ele>
        <time>2020-06-10T17:52:40Z</time>
      </trkpt>
      <trkpt lat="48.56626" lon="-3.16005">
        <ele>65.6</ele>
        <time>2020-06-10T17:52:41Z</time>
      </trkpt>
      <trkpt lat="48.56629" lon="-3.16007">
        <ele>65.5</ele>
        <time>2020-06-10T17:52:42Z</time>
      </trkpt>
      <trkpt lat="48.56632" lon="-3.16011">
        <ele>65.4</ele>
        <time>2020-06-10T17:52:43Z</time>
      </trkpt>
      <trkpt lat="48.56635" lon="-3.16015">
        <ele>65.3</ele>
        <time>2020-06-10T17:52:44Z</time>
      </trkpt>
      <trkpt lat="48.56639" lon="-3.16017">
        <ele>65.2</ele>
        <time>2020-06-10T17:52:45Z</time>
      </trkpt>
      <trkpt lat="48.56643" lon="-3.16019">
        <ele>65.1</ele>
        <time>2020-06-10T17:52:46Z</time>
      </trkpt>
      <trkpt lat="48.56648" lon="-3.16022">
        <ele>65</ele>
        <time>2020-06-10T17:52:47Z</time>
      </trkpt>
      <trkpt lat="48.56653" lon="-3.16022">
        <ele>64.8</ele>
        <time>2020-06-10T17:52:48Z</time>
      </trkpt>
      <trkpt lat="48.56657" lon="-3.16023">
        <ele>64.7</ele>
        <time>2020-06-10T17:52:49Z</time>
      </trkpt>
      <trkpt lat="48.56661" lon="-3.16026">
        <ele>64.6</ele>
        <time>2020-06-10T17:52:50Z</time>
      </trkpt>
      <trkpt lat="48.56666" lon="-3.16028">
        <ele>64.6</ele>
        <time>2020-06-10T17:52:51Z</time>
      </trkpt>
      <trkpt lat="48.5667" lon="-3.16031">
        <ele>64.6</ele>
        <time>2020-06-10T17:52:52Z</time>
      </trkpt>
      <trkpt lat="48.56674" lon="-3.16033">
        <ele>64.6</ele>
        <time>2020-06-10T17:52:53Z</time>
      </trkpt>
      <trkpt lat="48.56678" lon="-3.16033">
        <ele>64.6</ele>
        <time>2020-06-10T17:52:54Z</time>
      </trkpt>
      <trkpt lat="48.56681" lon="-3.16033">
        <ele>64.6</ele>
        <time>2020-06-10T17:52:55Z</time>
      </trkpt>
      <trkpt lat="48.56685" lon="-3.16033">
        <ele>64.6</ele>
        <time>2020-06-10T17:52:56Z</time>
      </trkpt>
      <trkpt lat="48.56689" lon="-3.16034">
        <ele>64.6</ele>
        <time>2020-06-10T17:52:57Z</time>
      </trkpt>
      <trkpt lat="48.56692" lon="-3.16034">
        <ele>64.6</ele>
        <time>2020-06-10T17:52:58Z</time>
      </trkpt>
      <trkpt lat="48.56696" lon="-3.16034">
        <ele>64.6</ele>
        <time>2020-06-10T17:52:59Z</time>
      </trkpt>
      <trkpt lat="48.56699" lon="-3.16034">
        <ele>64.5</ele>
        <time>2020-06-10T17:53:00Z</time>
      </trkpt>
      <trkpt lat="48.56702" lon="-3.16035">
        <ele>64.5</ele>
        <time>2020-06-10T17:53:01Z</time>
      </trkpt>
      <trkpt lat="48.56705" lon="-3.16036">
        <ele>64.5</ele>
        <time>2020-06-10T17:53:02Z</time>
      </trkpt>
      <trkpt lat="48.56709" lon="-3.16036">
        <ele>64.5</ele>
        <time>2020-06-10T17:53:03Z</time>
      </trkpt>
      <trkpt lat="48.5671" lon="-3.16036">
        <ele>64.5</ele>
        <time>2020-06-10T17:53:04Z</time>
      </trkpt>
      <trkpt lat="48.56712" lon="-3.16036">
        <ele>64.5</ele>
        <time>2020-06-10T17:53:05Z</time>
      </trkpt>
      <trkpt lat="48.56716" lon="-3.16036">
        <ele>64.5</ele>
        <time>2020-06-10T17:53:06Z</time>
      </trkpt>
      <trkpt lat="48.56718" lon="-3.16036">
        <ele>64.5</ele>
        <time>2020-06-10T17:53:07Z</time>
      </trkpt>
      <trkpt lat="48.56721" lon="-3.16037">
        <ele>64.5</ele>
        <time>2020-06-10T17:53:08Z</time>
      </trkpt>
      <trkpt lat="48.56724" lon="-3.16037">
        <ele>64.4</ele>
        <time>2020-06-10T17:53:09Z</time>
      </trkpt>
      <trkpt lat="48.56727" lon="-3.16034">
        <ele>64.4</ele>
        <time>2020-06-10T17:53:10Z</time>
      </trkpt>
      <trkpt lat="48.56731" lon="-3.16034">
        <ele>64.4</ele>
        <time>2020-06-10T17:53:11Z</time>
      </trkpt>
      <trkpt lat="48.56735" lon="-3.16034">
        <ele>64.4</ele>
        <time>2020-06-10T17:53:12Z</time>
      </trkpt>
      <trkpt lat="48.56739" lon="-3.16035">
        <ele>64.4</ele>
        <time>2020-06-10T17:53:13Z</time>
      </trkpt>
      <trkpt lat="48.56742" lon="-3.16036">
        <ele>64.4</ele>
        <time>2020-06-10T17:53:14Z</time>
      </trkpt>
      <trkpt lat="48.56746" lon="-3.16036">
        <ele>64.4</ele>
        <time>2020-06-10T17:53:15Z</time>
      </trkpt>
      <trkpt lat="48.5675" lon="-3.16036">
        <ele>64.4</ele>
        <time>2020-06-10T17:53:16Z</time>
      </trkpt>
      <trkpt lat="48.56754" lon="-3.16037">
        <ele>64.4</ele>
        <time>2020-06-10T17:53:17Z</time>
      </trkpt>
      <trkpt lat="48.56757" lon="-3.16039">
        <ele>64.4</ele>
        <time>2020-06-10T17:53:18Z</time>
      </trkpt>
      <trkpt lat="48.56761" lon="-3.16039">
        <ele>64.4</ele>
        <time>2020-06-10T17:53:19Z</time>
      </trkpt>
      <trkpt lat="48.56765" lon="-3.16041">
        <ele>64.3</ele>
        <time>2020-06-10T17:53:20Z</time>
      </trkpt>
      <trkpt lat="48.56769" lon="-3.16042">
        <ele>64.3</ele>
        <time>2020-06-10T17:53:21Z</time>
      </trkpt>
      <trkpt lat="48.56773" lon="-3.16043">
        <ele>64.3</ele>
        <time>2020-06-10T17:53:22Z</time>
      </trkpt>
      <trkpt lat="48.56777" lon="-3.16043">
        <ele>64.3</ele>
        <time>2020-06-10T17:53:23Z</time>
      </trkpt>
      <trkpt lat="48.56781" lon="-3.16042">
        <ele>64.3</ele>
        <time>2020-06-10T17:53:24Z</time>
      </trkpt>
      <trkpt lat="48.56784" lon="-3.16042">
        <ele>64.3</ele>
        <time>2020-06-10T17:53:25Z</time>
      </trkpt>
      <trkpt lat="48.56788" lon="-3.16042">
        <ele>64.3</ele>
        <time>2020-06-10T17:53:26Z</time>
      </trkpt>
      <trkpt lat="48.56793" lon="-3.16048">
        <ele>64.3</ele>
        <time>2020-06-10T17:53:27Z</time>
      </trkpt>
      <trkpt lat="48.56797" lon="-3.16047">
        <ele>64.3</ele>
        <time>2020-06-10T17:53:28Z</time>
      </trkpt>
      <trkpt lat="48.56802" lon="-3.16047">
        <ele>64.3</ele>
        <time>2020-06-10T17:53:29Z</time>
      </trkpt>
      <trkpt lat="48.56808" lon="-3.16048">
        <ele>64.3</ele>
        <time>2020-06-10T17:53:30Z</time>
      </trkpt>
      <trkpt lat="48.56812" lon="-3.16046">
        <ele>64.4</ele>
        <time>2020-06-10T17:53:31Z</time>
      </trkpt>
      <trkpt lat="48.56817" lon="-3.16046">
        <ele>64.4</ele>
        <time>2020-06-10T17:53:32Z</time>
      </trkpt>
      <trkpt lat="48.56822" lon="-3.16048">
        <ele>64.4</ele>
        <time>2020-06-10T17:53:33Z</time>
      </trkpt>
      <trkpt lat="48.56826" lon="-3.16049">
        <ele>64.4</ele>
        <time>2020-06-10T17:53:34Z</time>
      </trkpt>
      <trkpt lat="48.5683" lon="-3.1605">
        <ele>64.4</ele>
        <time>2020-06-10T17:53:35Z</time>
      </trkpt>
      <trkpt lat="48.56834" lon="-3.16051">
        <ele>64.4</ele>
        <time>2020-06-10T17:53:36Z</time>
      </trkpt>
      <trkpt lat="48.56837" lon="-3.16053">
        <ele>64.4</ele>
        <time>2020-06-10T17:53:37Z</time>
      </trkpt>
      <trkpt lat="48.56841" lon="-3.16055">
        <ele>64.4</ele>
        <time>2020-06-10T17:53:38Z</time>
      </trkpt>
      <trkpt lat="48.56845" lon="-3.16056">
        <ele>64.4</ele>
        <time>2020-06-10T17:53:39Z</time>
      </trkpt>
      <trkpt lat="48.56848" lon="-3.16057">
        <ele>64.4</ele>
        <time>2020-06-10T17:53:40Z</time>
      </trkpt>
      <trkpt lat="48.56852" lon="-3.16057">
        <ele>64.3</ele>
        <time>2020-06-10T17:53:41Z</time>
      </trkpt>
      <trkpt lat="48.56856" lon="-3.16056">
        <ele>64.3</ele>
        <time>2020-06-10T17:53:42Z</time>
      </trkpt>
      <trkpt lat="48.56859" lon="-3.16056">
        <ele>64.3</ele>
        <time>2020-06-10T17:53:43Z</time>
      </trkpt>
      <trkpt lat="48.56864" lon="-3.16057">
        <ele>64.3</ele>
        <time>2020-06-10T17:53:44Z</time>
      </trkpt>
      <trkpt lat="48.5687" lon="-3.16058">
        <ele>64.3</ele>
        <time>2020-06-10T17:53:45Z</time>
      </trkpt>
      <trkpt lat="48.56874" lon="-3.16058">
        <ele>64.2</ele>
        <time>2020-06-10T17:53:46Z</time>
      </trkpt>
      <trkpt lat="48.5688" lon="-3.16058">
        <ele>64.2</ele>
        <time>2020-06-10T17:53:47Z</time>
      </trkpt>
      <trkpt lat="48.56887" lon="-3.16058">
        <ele>64.2</ele>
        <time>2020-06-10T17:53:48Z</time>
      </trkpt>
      <trkpt lat="48.56894" lon="-3.16059">
        <ele>64.1</ele>
        <time>2020-06-10T17:53:49Z</time>
      </trkpt>
      <trkpt lat="48.56901" lon="-3.16062">
        <ele>64</ele>
        <time>2020-06-10T17:53:50Z</time>
      </trkpt>
      <trkpt lat="48.56907" lon="-3.16063">
        <ele>63.9</ele>
        <time>2020-06-10T17:53:51Z</time>
      </trkpt>
      <trkpt lat="48.56913" lon="-3.16066">
        <ele>63.9</ele>
        <time>2020-06-10T17:53:52Z</time>
      </trkpt>
      <trkpt lat="48.56919" lon="-3.16067">
        <ele>63.9</ele>
        <time>2020-06-10T17:53:53Z</time>
      </trkpt>
      <trkpt lat="48.56925" lon="-3.16068">
        <ele>63.9</ele>
        <time>2020-06-10T17:53:54Z</time>
      </trkpt>
      <trkpt lat="48.5693" lon="-3.16069">
        <ele>64</ele>
        <time>2020-06-10T17:53:55Z</time>
      </trkpt>
      <trkpt lat="48.56936" lon="-3.1607">
        <ele>64</ele>
        <time>2020-06-10T17:53:56Z</time>
      </trkpt>
      <trkpt lat="48.5694" lon="-3.16072">
        <ele>64</ele>
        <time>2020-06-10T17:53:57Z</time>
      </trkpt>
      <trkpt lat="48.56947" lon="-3.16077">
        <ele>64.1</ele>
        <time>2020-06-10T17:53:58Z</time>
      </trkpt>
      <trkpt lat="48.56952" lon="-3.16082">
        <ele>64.1</ele>
        <time>2020-06-10T17:53:59Z</time>
      </trkpt>
      <trkpt lat="48.56958" lon="-3.16086">
        <ele>64.2</ele>
        <time>2020-06-10T17:54:00Z</time>
      </trkpt>
      <trkpt lat="48.56963" lon="-3.16087">
        <ele>64.2</ele>
        <time>2020-06-10T17:54:01Z</time>
      </trkpt>
      <trkpt lat="48.5697" lon="-3.16087">
        <ele>64.2</ele>
        <time>2020-06-10T17:54:02Z</time>
      </trkpt>
      <trkpt lat="48.56974" lon="-3.16088">
        <ele>64.3</ele>
        <time>2020-06-10T17:54:03Z</time>
      </trkpt>
      <trkpt lat="48.56979" lon="-3.16092">
        <ele>64.3</ele>
        <time>2020-06-10T17:54:04Z</time>
      </trkpt>
      <trkpt lat="48.56984" lon="-3.16097">
        <ele>64.4</ele>
        <time>2020-06-10T17:54:05Z</time>
      </trkpt>
      <trkpt lat="48.56988" lon="-3.16102">
        <ele>64.4</ele>
        <time>2020-06-10T17:54:06Z</time>
      </trkpt>
      <trkpt lat="48.56992" lon="-3.16107">
        <ele>64.5</ele>
        <time>2020-06-10T17:54:07Z</time>
      </trkpt>
      <trkpt lat="48.56995" lon="-3.16112">
        <ele>64.5</ele>
        <time>2020-06-10T17:54:08Z</time>
      </trkpt>
      <trkpt lat="48.56998" lon="-3.16116">
        <ele>64.4</ele>
        <time>2020-06-10T17:54:09Z</time>
      </trkpt>
      <trkpt lat="48.57003" lon="-3.16121">
        <ele>64.4</ele>
        <time>2020-06-10T17:54:10Z</time>
      </trkpt>
      <trkpt lat="48.57008" lon="-3.16126">
        <ele>64.4</ele>
        <time>2020-06-10T17:54:11Z</time>
      </trkpt>
      <trkpt lat="48.57012" lon="-3.16131">
        <ele>64.3</ele>
        <time>2020-06-10T17:54:12Z</time>
      </trkpt>
      <trkpt lat="48.57015" lon="-3.16134">
        <ele>64.2</ele>
        <time>2020-06-10T17:54:13Z</time>
      </trkpt>
      <trkpt lat="48.57018" lon="-3.16137">
        <ele>64.2</ele>
        <time>2020-06-10T17:54:14Z</time>
      </trkpt>
      <trkpt lat="48.57022" lon="-3.16138">
        <ele>64.2</ele>
        <time>2020-06-10T17:54:15Z</time>
      </trkpt>
      <trkpt lat="48.57025" lon="-3.16138">
        <ele>64.1</ele>
        <time>2020-06-10T17:54:16Z</time>
      </trkpt>
      <trkpt lat="48.57028" lon="-3.16141">
        <ele>64</ele>
        <time>2020-06-10T17:54:17Z</time>
      </trkpt>
      <trkpt lat="48.57029" lon="-3.16145">
        <ele>64</ele>
        <time>2020-06-10T17:54:18Z</time>
      </trkpt>
      <trkpt lat="48.57029" lon="-3.16147">
        <ele>64</ele>
        <time>2020-06-10T17:54:19Z</time>
      </trkpt>
      <trkpt lat="48.57028" lon="-3.16152">
        <ele>64</ele>
        <time>2020-06-10T17:54:20Z</time>
      </trkpt>
      <trkpt lat="48.57028" lon="-3.16154">
        <ele>63.9</ele>
        <time>2020-06-10T17:54:21Z</time>
      </trkpt>
      <trkpt lat="48.57028" lon="-3.16158">
        <ele>63.9</ele>
        <time>2020-06-10T17:54:22Z</time>
      </trkpt>
      <trkpt lat="48.57028" lon="-3.1616">
        <ele>63.9</ele>
        <time>2020-06-10T17:54:23Z</time>
      </trkpt>
      <trkpt lat="48.57027" lon="-3.16163">
        <ele>63.9</ele>
        <time>2020-06-10T17:54:24Z</time>
      </trkpt>
      <trkpt lat="48.57027" lon="-3.16164">
        <ele>63.9</ele>
        <time>2020-06-10T17:54:25Z</time>
      </trkpt>
      <trkpt lat="48.57027" lon="-3.16166">
        <ele>63.9</ele>
        <time>2020-06-10T17:54:26Z</time>
      </trkpt>
      <trkpt lat="48.57027" lon="-3.16168">
        <ele>63.9</ele>
        <time>2020-06-10T17:54:27Z</time>
      </trkpt>
      <trkpt lat="48.57028" lon="-3.16169">
        <ele>63.9</ele>
        <time>2020-06-10T17:54:28Z</time>
      </trkpt>
      <trkpt lat="48.57028" lon="-3.16169">
        <ele>63.9</ele>
        <time>2020-06-10T17:54:29Z</time>
      </trkpt>
      <trkpt lat="48.57028" lon="-3.16169">
        <ele>63.9</ele>
        <time>2020-06-10T17:54:30Z</time>
      </trkpt>
      <trkpt lat="48.57029" lon="-3.16168">
        <ele>63.9</ele>
        <time>2020-06-10T17:54:31Z</time>
      </trkpt>
      <trkpt lat="48.57029" lon="-3.16166">
        <ele>63.9</ele>
        <time>2020-06-10T17:54:32Z</time>
      </trkpt>
      <trkpt lat="48.57029" lon="-3.16165">
        <ele>63.9</ele>
        <time>2020-06-10T17:54:33Z</time>
      </trkpt>
      <trkpt lat="48.57029" lon="-3.16164">
        <ele>63.9</ele>
        <time>2020-06-10T17:54:34Z</time>
      </trkpt>
      <trkpt lat="48.57029" lon="-3.16163">
        <ele>63.9</ele>
        <time>2020-06-10T17:54:35Z</time>
      </trkpt>
      <trkpt lat="48.57029" lon="-3.16162">
        <ele>63.9</ele>
        <time>2020-06-10T17:54:36Z</time>
      </trkpt>
      <trkpt lat="48.57029" lon="-3.16161">
        <ele>63.9</ele>
        <time>2020-06-10T17:54:37Z</time>
      </trkpt>
      <trkpt lat="48.5703" lon="-3.1616">
        <ele>63.9</ele>
        <time>2020-06-10T17:54:38Z</time>
      </trkpt>
      <trkpt lat="48.5703" lon="-3.16159">
        <ele>63.9</ele>
        <time>2020-06-10T17:54:39Z</time>
      </trkpt>
      <trkpt lat="48.5703" lon="-3.16158">
        <ele>63.9</ele>
        <time>2020-06-10T17:55:04Z</time>
      </trkpt>
      <trkpt lat="48.5703" lon="-3.16157">
        <ele>63.9</ele>
        <time>2020-06-10T17:55:05Z</time>
      </trkpt>
      <trkpt lat="48.5703" lon="-3.16156">
        <ele>63.9</ele>
        <time>2020-06-10T17:55:06Z</time>
      </trkpt>
      <trkpt lat="48.57031" lon="-3.16151">
        <ele>63.9</ele>
        <time>2020-06-10T17:55:07Z</time>
      </trkpt>
      <trkpt lat="48.57032" lon="-3.16149">
        <ele>63.9</ele>
        <time>2020-06-10T17:55:08Z</time>
      </trkpt>
      <trkpt lat="48.57033" lon="-3.16144">
        <ele>63.9</ele>
        <time>2020-06-10T17:55:09Z</time>
      </trkpt>
      <trkpt lat="48.57034" lon="-3.16142">
        <ele>63.9</ele>
        <time>2020-06-10T17:55:10Z</time>
      </trkpt>
      <trkpt lat="48.57035" lon="-3.16137">
        <ele>63.9</ele>
        <time>2020-06-10T17:55:11Z</time>
      </trkpt>
      <trkpt lat="48.57036" lon="-3.16135">
        <ele>63.9</ele>
        <time>2020-06-10T17:55:12Z</time>
      </trkpt>
      <trkpt lat="48.57039" lon="-3.16131">
        <ele>63.8</ele>
        <time>2020-06-10T17:55:13Z</time>
      </trkpt>
      <trkpt lat="48.5704" lon="-3.1613">
        <ele>63.8</ele>
        <time>2020-06-10T17:55:14Z</time>
      </trkpt>
      <trkpt lat="48.57043" lon="-3.1613">
        <ele>63.7</ele>
        <time>2020-06-10T17:55:15Z</time>
      </trkpt>
      <trkpt lat="48.57046" lon="-3.16133">
        <ele>63.6</ele>
        <time>2020-06-10T17:55:16Z</time>
      </trkpt>
      <trkpt lat="48.57049" lon="-3.16135">
        <ele>63.5</ele>
        <time>2020-06-10T17:55:17Z</time>
      </trkpt>
      <trkpt lat="48.57053" lon="-3.16137">
        <ele>63.4</ele>
        <time>2020-06-10T17:55:18Z</time>
      </trkpt>
      <trkpt lat="48.57058" lon="-3.16137">
        <ele>63.4</ele>
        <time>2020-06-10T17:55:19Z</time>
      </trkpt>
      <trkpt lat="48.57061" lon="-3.16137">
        <ele>63.3</ele>
        <time>2020-06-10T17:55:20Z</time>
      </trkpt>
      <trkpt lat="48.57065" lon="-3.16137">
        <ele>63.2</ele>
        <time>2020-06-10T17:55:21Z</time>
      </trkpt>
      <trkpt lat="48.57069" lon="-3.16137">
        <ele>63.2</ele>
        <time>2020-06-10T17:55:22Z</time>
      </trkpt>
      <trkpt lat="48.57073" lon="-3.16138">
        <ele>63.1</ele>
        <time>2020-06-10T17:55:23Z</time>
      </trkpt>
      <trkpt lat="48.57077" lon="-3.16139">
        <ele>63.1</ele>
        <time>2020-06-10T17:55:24Z</time>
      </trkpt>
      <trkpt lat="48.5708" lon="-3.16141">
        <ele>63</ele>
        <time>2020-06-10T17:55:25Z</time>
      </trkpt>
      <trkpt lat="48.57085" lon="-3.1614">
        <ele>63</ele>
        <time>2020-06-10T17:55:26Z</time>
      </trkpt>
      <trkpt lat="48.57088" lon="-3.16142">
        <ele>62.9</ele>
        <time>2020-06-10T17:55:27Z</time>
      </trkpt>
      <trkpt lat="48.57092" lon="-3.16143">
        <ele>62.9</ele>
        <time>2020-06-10T17:55:28Z</time>
      </trkpt>
      <trkpt lat="48.57096" lon="-3.16145">
        <ele>62.9</ele>
        <time>2020-06-10T17:55:29Z</time>
      </trkpt>
      <trkpt lat="48.57099" lon="-3.16147">
        <ele>62.9</ele>
        <time>2020-06-10T17:55:30Z</time>
      </trkpt>
      <trkpt lat="48.57104" lon="-3.16145">
        <ele>62.9</ele>
        <time>2020-06-10T17:55:31Z</time>
      </trkpt>
      <trkpt lat="48.57108" lon="-3.16147">
        <ele>62.9</ele>
        <time>2020-06-10T17:55:32Z</time>
      </trkpt>
      <trkpt lat="48.57111" lon="-3.16148">
        <ele>63</ele>
        <time>2020-06-10T17:55:33Z</time>
      </trkpt>
      <trkpt lat="48.57115" lon="-3.16149">
        <ele>63</ele>
        <time>2020-06-10T17:55:34Z</time>
      </trkpt>
      <trkpt lat="48.57118" lon="-3.16149">
        <ele>63</ele>
        <time>2020-06-10T17:55:35Z</time>
      </trkpt>
      <trkpt lat="48.57122" lon="-3.1615">
        <ele>63</ele>
        <time>2020-06-10T17:55:36Z</time>
      </trkpt>
      <trkpt lat="48.57125" lon="-3.16153">
        <ele>63</ele>
        <time>2020-06-10T17:55:37Z</time>
      </trkpt>
      <trkpt lat="48.57128" lon="-3.16157">
        <ele>63</ele>
        <time>2020-06-10T17:55:38Z</time>
      </trkpt>
      <trkpt lat="48.57131" lon="-3.16161">
        <ele>63</ele>
        <time>2020-06-10T17:55:39Z</time>
      </trkpt>
      <trkpt lat="48.57134" lon="-3.16164">
        <ele>63.1</ele>
        <time>2020-06-10T17:55:40Z</time>
      </trkpt>
      <trkpt lat="48.57136" lon="-3.16167">
        <ele>63.1</ele>
        <time>2020-06-10T17:55:41Z</time>
      </trkpt>
      <trkpt lat="48.57139" lon="-3.1617">
        <ele>63.1</ele>
        <time>2020-06-10T17:55:42Z</time>
      </trkpt>
      <trkpt lat="48.57142" lon="-3.16172">
        <ele>63.2</ele>
        <time>2020-06-10T17:55:43Z</time>
      </trkpt>
      <trkpt lat="48.57145" lon="-3.16173">
        <ele>63.2</ele>
        <time>2020-06-10T17:55:44Z</time>
      </trkpt>
      <trkpt lat="48.57148" lon="-3.16174">
        <ele>63.2</ele>
        <time>2020-06-10T17:55:45Z</time>
      </trkpt>
      <trkpt lat="48.57151" lon="-3.16175">
        <ele>63.3</ele>
        <time>2020-06-10T17:55:46Z</time>
      </trkpt>
      <trkpt lat="48.57152" lon="-3.16177">
        <ele>63.3</ele>
        <time>2020-06-10T17:55:47Z</time>
      </trkpt>
      <trkpt lat="48.57155" lon="-3.16175">
        <ele>63.3</ele>
        <time>2020-06-10T17:55:48Z</time>
      </trkpt>
      <trkpt lat="48.57156" lon="-3.16174">
        <ele>63.3</ele>
        <time>2020-06-10T17:55:49Z</time>
      </trkpt>
      <trkpt lat="48.57158" lon="-3.16172">
        <ele>63.4</ele>
        <time>2020-06-10T17:55:50Z</time>
      </trkpt>
      <trkpt lat="48.5716" lon="-3.16173">
        <ele>63.4</ele>
        <time>2020-06-10T17:55:51Z</time>
      </trkpt>
      <trkpt lat="48.57162" lon="-3.16175">
        <ele>63.4</ele>
        <time>2020-06-10T17:55:52Z</time>
      </trkpt>
      <trkpt lat="48.57163" lon="-3.16175">
        <ele>63.4</ele>
        <time>2020-06-10T17:55:53Z</time>
      </trkpt>
      <trkpt lat="48.57165" lon="-3.16179">
        <ele>63.4</ele>
        <time>2020-06-10T17:55:54Z</time>
      </trkpt>
      <trkpt lat="48.57166" lon="-3.1618">
        <ele>63.4</ele>
        <time>2020-06-10T17:55:55Z</time>
      </trkpt>
      <trkpt lat="48.57167" lon="-3.16184">
        <ele>63.4</ele>
        <time>2020-06-10T17:55:56Z</time>
      </trkpt>
      <trkpt lat="48.57167" lon="-3.16186">
        <ele>63.4</ele>
        <time>2020-06-10T17:55:57Z</time>
      </trkpt>
      <trkpt lat="48.57169" lon="-3.1619">
        <ele>63.5</ele>
        <time>2020-06-10T17:55:58Z</time>
      </trkpt>
      <trkpt lat="48.57169" lon="-3.16192">
        <ele>63.5</ele>
        <time>2020-06-10T17:55:59Z</time>
      </trkpt>
      <trkpt lat="48.5717" lon="-3.16196">
        <ele>63.6</ele>
        <time>2020-06-10T17:56:00Z</time>
      </trkpt>
      <trkpt lat="48.57171" lon="-3.16197">
        <ele>63.6</ele>
        <time>2020-06-10T17:56:01Z</time>
      </trkpt>
      <trkpt lat="48.57173" lon="-3.16201">
        <ele>63.6</ele>
        <time>2020-06-10T17:56:02Z</time>
      </trkpt>
      <trkpt lat="48.57175" lon="-3.16202">
        <ele>63.6</ele>
        <time>2020-06-10T17:56:03Z</time>
      </trkpt>
      <trkpt lat="48.57176" lon="-3.16206">
        <ele>63.7</ele>
        <time>2020-06-10T17:56:04Z</time>
      </trkpt>
      <trkpt lat="48.57177" lon="-3.16208">
        <ele>63.7</ele>
        <time>2020-06-10T17:56:05Z</time>
      </trkpt>
      <trkpt lat="48.57179" lon="-3.16212">
        <ele>63.7</ele>
        <time>2020-06-10T17:56:06Z</time>
      </trkpt>
      <trkpt lat="48.5718" lon="-3.16213">
        <ele>63.7</ele>
        <time>2020-06-10T17:56:07Z</time>
      </trkpt>
      <trkpt lat="48.57179" lon="-3.16218">
        <ele>63.7</ele>
        <time>2020-06-10T17:56:08Z</time>
      </trkpt>
      <trkpt lat="48.57179" lon="-3.16219">
        <ele>63.8</ele>
        <time>2020-06-10T17:56:09Z</time>
      </trkpt>
      <trkpt lat="48.5718" lon="-3.16223">
        <ele>63.8</ele>
        <time>2020-06-10T17:56:10Z</time>
      </trkpt>
      <trkpt lat="48.5718" lon="-3.16225">
        <ele>63.8</ele>
        <time>2020-06-10T17:56:11Z</time>
      </trkpt>
      <trkpt lat="48.57181" lon="-3.16229">
        <ele>63.9</ele>
        <time>2020-06-10T17:56:12Z</time>
      </trkpt>
      <trkpt lat="48.57182" lon="-3.16231">
        <ele>63.9</ele>
        <time>2020-06-10T17:56:13Z</time>
      </trkpt>
      <trkpt lat="48.57182" lon="-3.16233">
        <ele>63.9</ele>
        <time>2020-06-10T17:56:14Z</time>
      </trkpt>
      <trkpt lat="48.57183" lon="-3.16236">
        <ele>64</ele>
        <time>2020-06-10T17:56:15Z</time>
      </trkpt>
      <trkpt lat="48.57183" lon="-3.16238">
        <ele>64</ele>
        <time>2020-06-10T17:56:16Z</time>
      </trkpt>
      <trkpt lat="48.57184" lon="-3.1624">
        <ele>64</ele>
        <time>2020-06-10T17:56:17Z</time>
      </trkpt>
      <trkpt lat="48.57185" lon="-3.16242">
        <ele>64</ele>
        <time>2020-06-10T17:56:18Z</time>
      </trkpt>
      <trkpt lat="48.57185" lon="-3.16245">
        <ele>64.1</ele>
        <time>2020-06-10T17:56:19Z</time>
      </trkpt>
      <trkpt lat="48.57185" lon="-3.1625">
        <ele>64.2</ele>
        <time>2020-06-10T17:56:20Z</time>
      </trkpt>
      <trkpt lat="48.57185" lon="-3.16252">
        <ele>64.2</ele>
        <time>2020-06-10T17:56:21Z</time>
      </trkpt>
      <trkpt lat="48.57186" lon="-3.16257">
        <ele>64.3</ele>
        <time>2020-06-10T17:56:22Z</time>
      </trkpt>
      <trkpt lat="48.57187" lon="-3.16258">
        <ele>64.3</ele>
        <time>2020-06-10T17:56:23Z</time>
      </trkpt>
      <trkpt lat="48.57189" lon="-3.1626">
        <ele>64.4</ele>
        <time>2020-06-10T17:56:24Z</time>
      </trkpt>
      <trkpt lat="48.57189" lon="-3.16262">
        <ele>64.4</ele>
        <time>2020-06-10T17:56:25Z</time>
      </trkpt>
      <trkpt lat="48.57188" lon="-3.16266">
        <ele>64.5</ele>
        <time>2020-06-10T17:56:26Z</time>
      </trkpt>
      <trkpt lat="48.57187" lon="-3.16267">
        <ele>64.5</ele>
        <time>2020-06-10T17:56:27Z</time>
      </trkpt>
      <trkpt lat="48.57188" lon="-3.16269">
        <ele>64.5</ele>
        <time>2020-06-10T17:56:28Z</time>
      </trkpt>
      <trkpt lat="48.57188" lon="-3.1627">
        <ele>64.5</ele>
        <time>2020-06-10T17:56:29Z</time>
      </trkpt>
      <trkpt lat="48.57189" lon="-3.1627">
        <ele>64.6</ele>
        <time>2020-06-10T17:56:30Z</time>
      </trkpt>
      <trkpt lat="48.5719" lon="-3.1627">
        <ele>64.6</ele>
        <time>2020-06-10T17:56:31Z</time>
      </trkpt>
      <trkpt lat="48.57191" lon="-3.16269">
        <ele>64.6</ele>
        <time>2020-06-10T17:56:32Z</time>
      </trkpt>
      <trkpt lat="48.57192" lon="-3.1627">
        <ele>64.6</ele>
        <time>2020-06-10T17:56:33Z</time>
      </trkpt>
      <trkpt lat="48.57192" lon="-3.1627">
        <ele>64.7</ele>
        <time>2020-06-10T17:56:34Z</time>
      </trkpt>
      <trkpt lat="48.57193" lon="-3.16271">
        <ele>64.7</ele>
        <time>2020-06-10T17:56:35Z</time>
      </trkpt>
      <trkpt lat="48.57194" lon="-3.16271">
        <ele>64.7</ele>
        <time>2020-06-10T17:56:36Z</time>
      </trkpt>
      <trkpt lat="48.57194" lon="-3.16271">
        <ele>64.7</ele>
        <time>2020-06-10T17:56:37Z</time>
      </trkpt>
      <trkpt lat="48.57195" lon="-3.16271">
        <ele>64.7</ele>
        <time>2020-06-10T17:56:38Z</time>
      </trkpt>
      <trkpt lat="48.57195" lon="-3.16272">
        <ele>64.7</ele>
        <time>2020-06-10T17:56:39Z</time>
      </trkpt>
      <trkpt lat="48.57195" lon="-3.16272">
        <ele>64.7</ele>
        <time>2020-06-10T17:56:40Z</time>
      </trkpt>
      <trkpt lat="48.57195" lon="-3.16273">
        <ele>64.7</ele>
        <time>2020-06-10T17:56:41Z</time>
      </trkpt>
      <trkpt lat="48.57195" lon="-3.16273">
        <ele>64.7</ele>
        <time>2020-06-10T17:56:42Z</time>
      </trkpt>
      <trkpt lat="48.57195" lon="-3.16273">
        <ele>64.7</ele>
        <time>2020-06-10T17:56:43Z</time>
      </trkpt>
      <trkpt lat="48.57196" lon="-3.16274">
        <ele>64.8</ele>
        <time>2020-06-10T17:56:44Z</time>
      </trkpt>
      <trkpt lat="48.57196" lon="-3.16275">
        <ele>64.8</ele>
        <time>2020-06-10T17:56:45Z</time>
      </trkpt>
      <trkpt lat="48.57196" lon="-3.16275">
        <ele>64.8</ele>
        <time>2020-06-10T17:56:46Z</time>
      </trkpt>
      <trkpt lat="48.57195" lon="-3.16277">
        <ele>64.8</ele>
        <time>2020-06-10T17:56:47Z</time>
      </trkpt>
      <trkpt lat="48.57196" lon="-3.16277">
        <ele>64.8</ele>
        <time>2020-06-10T17:56:48Z</time>
      </trkpt>
      <trkpt lat="48.57197" lon="-3.16276">
        <ele>64.8</ele>
        <time>2020-06-10T17:56:49Z</time>
      </trkpt>
      <trkpt lat="48.57198" lon="-3.16275">
        <ele>64.9</ele>
        <time>2020-06-10T17:56:50Z</time>
      </trkpt>
      <trkpt lat="48.57199" lon="-3.16274">
        <ele>64.9</ele>
        <time>2020-06-10T17:56:51Z</time>
      </trkpt>
      <trkpt lat="48.57199" lon="-3.16275">
        <ele>64.9</ele>
        <time>2020-06-10T17:56:52Z</time>
      </trkpt>
      <trkpt lat="48.57199" lon="-3.16275">
        <ele>64.9</ele>
        <time>2020-06-10T17:56:53Z</time>
      </trkpt>
      <trkpt lat="48.572" lon="-3.16275">
        <ele>64.9</ele>
        <time>2020-06-10T17:56:54Z</time>
      </trkpt>
      <trkpt lat="48.57201" lon="-3.16275">
        <ele>64.9</ele>
        <time>2020-06-10T17:56:55Z</time>
      </trkpt>
      <trkpt lat="48.57201" lon="-3.16275">
        <ele>64.9</ele>
        <time>2020-06-10T17:56:56Z</time>
      </trkpt>
      <trkpt lat="48.57202" lon="-3.16275">
        <ele>65</ele>
        <time>2020-06-10T17:56:57Z</time>
      </trkpt>
      <trkpt lat="48.57203" lon="-3.16274">
        <ele>65</ele>
        <time>2020-06-10T17:56:58Z</time>
      </trkpt>
      <trkpt lat="48.57203" lon="-3.16274">
        <ele>65</ele>
        <time>2020-06-10T17:56:59Z</time>
      </trkpt>
      <trkpt lat="48.57203" lon="-3.16274">
        <ele>65</ele>
        <time>2020-06-10T17:57:00Z</time>
      </trkpt>
      <trkpt lat="48.57203" lon="-3.16274">
        <ele>65</ele>
        <time>2020-06-10T17:57:01Z</time>
      </trkpt>
      <trkpt lat="48.57203" lon="-3.16275">
        <ele>65</ele>
        <time>2020-06-10T17:57:02Z</time>
      </trkpt>
      <trkpt lat="48.57203" lon="-3.16276">
        <ele>65</ele>
        <time>2020-06-10T17:57:03Z</time>
      </trkpt>
      <trkpt lat="48.57203" lon="-3.16277">
        <ele>65</ele>
        <time>2020-06-10T17:57:04Z</time>
      </trkpt>
      <trkpt lat="48.57203" lon="-3.16279">
        <ele>65.1</ele>
        <time>2020-06-10T17:57:05Z</time>
      </trkpt>
      <trkpt lat="48.57203" lon="-3.16279">
        <ele>65.1</ele>
        <time>2020-06-10T17:57:06Z</time>
      </trkpt>
      <trkpt lat="48.57203" lon="-3.16281">
        <ele>65.1</ele>
        <time>2020-06-10T17:57:07Z</time>
      </trkpt>
      <trkpt lat="48.57203" lon="-3.16282">
        <ele>65.1</ele>
        <time>2020-06-10T17:57:08Z</time>
      </trkpt>
      <trkpt lat="48.57203" lon="-3.16282">
        <ele>65.1</ele>
        <time>2020-06-10T17:57:09Z</time>
      </trkpt>
      <trkpt lat="48.57204" lon="-3.1628">
        <ele>65.1</ele>
        <time>2020-06-10T17:57:10Z</time>
      </trkpt>
      <trkpt lat="48.57204" lon="-3.1628">
        <ele>65.2</ele>
        <time>2020-06-10T17:57:11Z</time>
      </trkpt>
      <trkpt lat="48.57203" lon="-3.1628">
        <ele>65.2</ele>
        <time>2020-06-10T17:57:12Z</time>
      </trkpt>
      <trkpt lat="48.57203" lon="-3.16281">
        <ele>65.2</ele>
        <time>2020-06-10T17:57:13Z</time>
      </trkpt>
      <trkpt lat="48.57203" lon="-3.16281">
        <ele>65.2</ele>
        <time>2020-06-10T17:57:14Z</time>
      </trkpt>
      <trkpt lat="48.57202" lon="-3.16283">
        <ele>65.2</ele>
        <time>2020-06-10T17:57:15Z</time>
      </trkpt>
      <trkpt lat="48.57201" lon="-3.16284">
        <ele>65.2</ele>
        <time>2020-06-10T17:57:16Z</time>
      </trkpt>
      <trkpt lat="48.572" lon="-3.16285">
        <ele>65.3</ele>
        <time>2020-06-10T17:57:17Z</time>
      </trkpt>
      <trkpt lat="48.572" lon="-3.16285">
        <ele>65.3</ele>
        <time>2020-06-10T17:57:18Z</time>
      </trkpt>
    </trkseg>
  </trk>
</gpx>